<?xml version="1.0" encoding="UTF-8" standalone="no" ?>
<gpx xmlns="http://www.topografix.com/GPX/1/1" xmlns:xsi="http://www.w3.org/2001/XMLSchema-instance" xsi:schemaLocation="http://www.topografix.com/GPX/1/1 http://www.topografix.com/GPX/1/1/gpx.xsd" version="1.1" creator="VisuGPX - https://www.visugpx.com">
  <metadata>
    <name>2016-04-10 07h56 Balade Joz34 complet</name>
    <desc><![CDATA[2016-04-10 07h56 Balade Joz34 complet]]></desc>
  </metadata>
  <trk>
    <name><![CDATA[2016-04-10 07:56 Balade Joz34 complet]]></name>
    <trkseg>
      <trkpt lat="43.62106" lon="3.84032">
        <ele>66.47</ele>
        <time>2016-04-10T05:56:52Z</time>
      </trkpt>
      <trkpt lat="43.62108" lon="3.84022">
        <ele>76.56</ele>
        <time>2016-04-10T05:56:54Z</time>
      </trkpt>
      <trkpt lat="43.62094" lon="3.83948">
        <ele>78.48</ele>
        <time>2016-04-10T05:57:02Z</time>
      </trkpt>
      <trkpt lat="43.6209" lon="3.8394">
        <ele>78.97</ele>
        <time>2016-04-10T05:57:03Z</time>
      </trkpt>
      <trkpt lat="43.62076" lon="3.83913">
        <ele>81.85</ele>
        <time>2016-04-10T05:57:06Z</time>
      </trkpt>
      <trkpt lat="43.6207" lon="3.83904">
        <ele>82.81</ele>
        <time>2016-04-10T05:57:07Z</time>
      </trkpt>
      <trkpt lat="43.62021" lon="3.83846">
        <ele>89.06</ele>
        <time>2016-04-10T05:57:14Z</time>
      </trkpt>
      <trkpt lat="43.61986" lon="3.83806">
        <ele>86.66</ele>
        <time>2016-04-10T05:57:22Z</time>
      </trkpt>
      <trkpt lat="43.61986" lon="3.83804">
        <ele>85.69</ele>
        <time>2016-04-10T05:57:33Z</time>
      </trkpt>
      <trkpt lat="43.6198" lon="3.83789">
        <ele>83.29</ele>
        <time>2016-04-10T05:57:50Z</time>
      </trkpt>
      <trkpt lat="43.61976" lon="3.83784">
        <ele>83.29</ele>
        <time>2016-04-10T05:57:51Z</time>
      </trkpt>
      <trkpt lat="43.6197" lon="3.83781">
        <ele>83.29</ele>
        <time>2016-04-10T05:57:52Z</time>
      </trkpt>
      <trkpt lat="43.61964" lon="3.83782">
        <ele>83.29</ele>
        <time>2016-04-10T05:57:53Z</time>
      </trkpt>
      <trkpt lat="43.61958" lon="3.83786">
        <ele>82.81</ele>
        <time>2016-04-10T05:57:54Z</time>
      </trkpt>
      <trkpt lat="43.61951" lon="3.83793">
        <ele>83.29</ele>
        <time>2016-04-10T05:57:55Z</time>
      </trkpt>
      <trkpt lat="43.61944" lon="3.83801">
        <ele>83.29</ele>
        <time>2016-04-10T05:57:56Z</time>
      </trkpt>
      <trkpt lat="43.61856" lon="3.83878">
        <ele>84.73</ele>
        <time>2016-04-10T05:58:05Z</time>
      </trkpt>
      <trkpt lat="43.61792" lon="3.83936">
        <ele>90.98</ele>
        <time>2016-04-10T05:58:13Z</time>
      </trkpt>
      <trkpt lat="43.61786" lon="3.83945">
        <ele>91.46</ele>
        <time>2016-04-10T05:58:14Z</time>
      </trkpt>
      <trkpt lat="43.61782" lon="3.83954">
        <ele>90.98</ele>
        <time>2016-04-10T05:58:15Z</time>
      </trkpt>
      <trkpt lat="43.61775" lon="3.83962">
        <ele>90.98</ele>
        <time>2016-04-10T05:58:16Z</time>
      </trkpt>
      <trkpt lat="43.61766" lon="3.83969">
        <ele>90.98</ele>
        <time>2016-04-10T05:58:17Z</time>
      </trkpt>
      <trkpt lat="43.61757" lon="3.83976">
        <ele>90.98</ele>
        <time>2016-04-10T05:58:18Z</time>
      </trkpt>
      <trkpt lat="43.61747" lon="3.83983">
        <ele>90.98</ele>
        <time>2016-04-10T05:58:19Z</time>
      </trkpt>
      <trkpt lat="43.61649" lon="3.84069">
        <ele>92.42</ele>
        <time>2016-04-10T05:58:30Z</time>
      </trkpt>
      <trkpt lat="43.6163" lon="3.84088">
        <ele>91.94</ele>
        <time>2016-04-10T05:58:36Z</time>
      </trkpt>
      <trkpt lat="43.61625" lon="3.8409">
        <ele>90.02</ele>
        <time>2016-04-10T05:58:55Z</time>
      </trkpt>
      <trkpt lat="43.61619" lon="3.84088">
        <ele>89.06</ele>
        <time>2016-04-10T05:58:56Z</time>
      </trkpt>
      <trkpt lat="43.61613" lon="3.84082">
        <ele>88.58</ele>
        <time>2016-04-10T05:58:57Z</time>
      </trkpt>
      <trkpt lat="43.61607" lon="3.84074">
        <ele>87.62</ele>
        <time>2016-04-10T05:58:58Z</time>
      </trkpt>
      <trkpt lat="43.616" lon="3.84064">
        <ele>87.14</ele>
        <time>2016-04-10T05:58:59Z</time>
      </trkpt>
      <trkpt lat="43.61551" lon="3.84006">
        <ele>82.81</ele>
        <time>2016-04-10T05:59:04Z</time>
      </trkpt>
      <trkpt lat="43.61537" lon="3.83996">
        <ele>82.33</ele>
        <time>2016-04-10T05:59:05Z</time>
      </trkpt>
      <trkpt lat="43.61523" lon="3.83988">
        <ele>81.37</ele>
        <time>2016-04-10T05:59:06Z</time>
      </trkpt>
      <trkpt lat="43.6136" lon="3.83906">
        <ele>71.76</ele>
        <time>2016-04-10T05:59:16Z</time>
      </trkpt>
      <trkpt lat="43.61232" lon="3.83886">
        <ele>68.87</ele>
        <time>2016-04-10T05:59:23Z</time>
      </trkpt>
      <trkpt lat="43.61015" lon="3.83878">
        <ele>68.39</ele>
        <time>2016-04-10T05:59:35Z</time>
      </trkpt>
      <trkpt lat="43.60752" lon="3.83793">
        <ele>67.91</ele>
        <time>2016-04-10T05:59:49Z</time>
      </trkpt>
      <trkpt lat="43.60616" lon="3.83811">
        <ele>65.03</ele>
        <time>2016-04-10T05:59:56Z</time>
      </trkpt>
      <trkpt lat="43.60394" lon="3.83907">
        <ele>54.45</ele>
        <time>2016-04-10T06:00:07Z</time>
      </trkpt>
      <trkpt lat="43.60134" lon="3.83959">
        <ele>47.24</ele>
        <time>2016-04-10T06:00:19Z</time>
      </trkpt>
      <trkpt lat="43.59994" lon="3.8405">
        <ele>43.88</ele>
        <time>2016-04-10T06:00:26Z</time>
      </trkpt>
      <trkpt lat="43.59771" lon="3.84277">
        <ele>41.95</ele>
        <time>2016-04-10T06:00:39Z</time>
      </trkpt>
      <trkpt lat="43.59691" lon="3.84418">
        <ele>45.32</ele>
        <time>2016-04-10T06:00:46Z</time>
      </trkpt>
      <trkpt lat="43.59669" lon="3.84469">
        <ele>46.28</ele>
        <time>2016-04-10T06:00:51Z</time>
      </trkpt>
      <trkpt lat="43.59665" lon="3.8448">
        <ele>47.24</ele>
        <time>2016-04-10T06:00:59Z</time>
      </trkpt>
      <trkpt lat="43.59652" lon="3.84514">
        <ele>48.68</ele>
        <time>2016-04-10T06:01:12Z</time>
      </trkpt>
      <trkpt lat="43.59607" lon="3.84617">
        <ele>52.53</ele>
        <time>2016-04-10T06:01:19Z</time>
      </trkpt>
      <trkpt lat="43.59514" lon="3.84845">
        <ele>57.82</ele>
        <time>2016-04-10T06:01:30Z</time>
      </trkpt>
      <trkpt lat="43.59399" lon="3.85069">
        <ele>58.78</ele>
        <time>2016-04-10T06:01:41Z</time>
      </trkpt>
      <trkpt lat="43.59301" lon="3.85187">
        <ele>58.3</ele>
        <time>2016-04-10T06:01:49Z</time>
      </trkpt>
      <trkpt lat="43.59274" lon="3.8522">
        <ele>58.3</ele>
        <time>2016-04-10T06:01:54Z</time>
      </trkpt>
      <trkpt lat="43.59274" lon="3.8522">
        <ele>56.86</ele>
        <time>2016-04-10T06:02:04Z</time>
      </trkpt>
      <trkpt lat="43.59255" lon="3.8525">
        <ele>55.41</ele>
        <time>2016-04-10T06:02:32Z</time>
      </trkpt>
      <trkpt lat="43.5918" lon="3.85364">
        <ele>57.82</ele>
        <time>2016-04-10T06:02:40Z</time>
      </trkpt>
      <trkpt lat="43.59052" lon="3.85511">
        <ele>55.89</ele>
        <time>2016-04-10T06:02:50Z</time>
      </trkpt>
      <trkpt lat="43.59042" lon="3.85524">
        <ele>55.41</ele>
        <time>2016-04-10T06:02:51Z</time>
      </trkpt>
      <trkpt lat="43.59034" lon="3.85538">
        <ele>54.93</ele>
        <time>2016-04-10T06:02:52Z</time>
      </trkpt>
      <trkpt lat="43.5902" lon="3.85564">
        <ele>53.49</ele>
        <time>2016-04-10T06:02:54Z</time>
      </trkpt>
      <trkpt lat="43.59011" lon="3.85573">
        <ele>53.01</ele>
        <time>2016-04-10T06:02:55Z</time>
      </trkpt>
      <trkpt lat="43.59001" lon="3.85579">
        <ele>52.53</ele>
        <time>2016-04-10T06:02:56Z</time>
      </trkpt>
      <trkpt lat="43.58979" lon="3.85594">
        <ele>50.61</ele>
        <time>2016-04-10T06:02:58Z</time>
      </trkpt>
      <trkpt lat="43.5897" lon="3.85605">
        <ele>50.13</ele>
        <time>2016-04-10T06:02:59Z</time>
      </trkpt>
      <trkpt lat="43.58963" lon="3.8562">
        <ele>49.65</ele>
        <time>2016-04-10T06:03:00Z</time>
      </trkpt>
      <trkpt lat="43.58958" lon="3.85638">
        <ele>49.65</ele>
        <time>2016-04-10T06:03:01Z</time>
      </trkpt>
      <trkpt lat="43.58954" lon="3.85656">
        <ele>49.16</ele>
        <time>2016-04-10T06:03:02Z</time>
      </trkpt>
      <trkpt lat="43.58948" lon="3.85673">
        <ele>48.68</ele>
        <time>2016-04-10T06:03:03Z</time>
      </trkpt>
      <trkpt lat="43.58941" lon="3.85687">
        <ele>48.68</ele>
        <time>2016-04-10T06:03:04Z</time>
      </trkpt>
      <trkpt lat="43.58929" lon="3.85698">
        <ele>48.2</ele>
        <time>2016-04-10T06:03:05Z</time>
      </trkpt>
      <trkpt lat="43.58916" lon="3.85705">
        <ele>47.72</ele>
        <time>2016-04-10T06:03:06Z</time>
      </trkpt>
      <trkpt lat="43.589" lon="3.85711">
        <ele>46.76</ele>
        <time>2016-04-10T06:03:07Z</time>
      </trkpt>
      <trkpt lat="43.58851" lon="3.85741">
        <ele>45.8</ele>
        <time>2016-04-10T06:03:10Z</time>
      </trkpt>
      <trkpt lat="43.58835" lon="3.85755">
        <ele>44.84</ele>
        <time>2016-04-10T06:03:11Z</time>
      </trkpt>
      <trkpt lat="43.5882" lon="3.85771">
        <ele>44.84</ele>
        <time>2016-04-10T06:03:12Z</time>
      </trkpt>
      <trkpt lat="43.58776" lon="3.85817">
        <ele>44.36</ele>
        <time>2016-04-10T06:03:15Z</time>
      </trkpt>
      <trkpt lat="43.58759" lon="3.85829">
        <ele>44.36</ele>
        <time>2016-04-10T06:03:16Z</time>
      </trkpt>
      <trkpt lat="43.58741" lon="3.85839">
        <ele>44.36</ele>
        <time>2016-04-10T06:03:17Z</time>
      </trkpt>
      <trkpt lat="43.58589" lon="3.85942">
        <ele>45.32</ele>
        <time>2016-04-10T06:03:26Z</time>
      </trkpt>
      <trkpt lat="43.58533" lon="3.8599">
        <ele>44.36</ele>
        <time>2016-04-10T06:03:32Z</time>
      </trkpt>
      <trkpt lat="43.58529" lon="3.85994">
        <ele>44.84</ele>
        <time>2016-04-10T06:03:38Z</time>
      </trkpt>
      <trkpt lat="43.58503" lon="3.86016">
        <ele>44.36</ele>
        <time>2016-04-10T06:03:55Z</time>
      </trkpt>
      <trkpt lat="43.58427" lon="3.86084">
        <ele>41.47</ele>
        <time>2016-04-10T06:04:01Z</time>
      </trkpt>
      <trkpt lat="43.58284" lon="3.86238">
        <ele>31.38</ele>
        <time>2016-04-10T06:04:12Z</time>
      </trkpt>
      <trkpt lat="43.58244" lon="3.86301">
        <ele>30.42</ele>
        <time>2016-04-10T06:04:18Z</time>
      </trkpt>
      <trkpt lat="43.58243" lon="3.86303">
        <ele>30.9</ele>
        <time>2016-04-10T06:04:25Z</time>
      </trkpt>
      <trkpt lat="43.58225" lon="3.86329">
        <ele>30.42</ele>
        <time>2016-04-10T06:04:30Z</time>
      </trkpt>
      <trkpt lat="43.58168" lon="3.86439">
        <ele>27.53</ele>
        <time>2016-04-10T06:04:38Z</time>
      </trkpt>
      <trkpt lat="43.58095" lon="3.86603">
        <ele>23.69</ele>
        <time>2016-04-10T06:04:47Z</time>
      </trkpt>
      <trkpt lat="43.57978" lon="3.86875">
        <ele>24.65</ele>
        <time>2016-04-10T06:05:00Z</time>
      </trkpt>
      <trkpt lat="43.57839" lon="3.87152">
        <ele>29.46</ele>
        <time>2016-04-10T06:05:13Z</time>
      </trkpt>
      <trkpt lat="43.57738" lon="3.87281">
        <ele>29.94</ele>
        <time>2016-04-10T06:05:21Z</time>
      </trkpt>
      <trkpt lat="43.57676" lon="3.87334">
        <ele>26.57</ele>
        <time>2016-04-10T06:05:27Z</time>
      </trkpt>
      <trkpt lat="43.57678" lon="3.8733">
        <ele>26.09</ele>
        <time>2016-04-10T06:05:32Z</time>
      </trkpt>
      <trkpt lat="43.57674" lon="3.8733">
        <ele>26.09</ele>
        <time>2016-04-10T06:05:33Z</time>
      </trkpt>
      <trkpt lat="43.57668" lon="3.87329">
        <ele>26.09</ele>
        <time>2016-04-10T06:05:34Z</time>
      </trkpt>
      <trkpt lat="43.5766" lon="3.87329">
        <ele>26.09</ele>
        <time>2016-04-10T06:05:35Z</time>
      </trkpt>
      <trkpt lat="43.5765" lon="3.87331">
        <ele>25.61</ele>
        <time>2016-04-10T06:05:36Z</time>
      </trkpt>
      <trkpt lat="43.57639" lon="3.87335">
        <ele>25.13</ele>
        <time>2016-04-10T06:05:37Z</time>
      </trkpt>
      <trkpt lat="43.5763" lon="3.87343">
        <ele>24.65</ele>
        <time>2016-04-10T06:05:38Z</time>
      </trkpt>
      <trkpt lat="43.57619" lon="3.87353">
        <ele>24.17</ele>
        <time>2016-04-10T06:05:39Z</time>
      </trkpt>
      <trkpt lat="43.57606" lon="3.87363">
        <ele>24.17</ele>
        <time>2016-04-10T06:05:40Z</time>
      </trkpt>
      <trkpt lat="43.57591" lon="3.8737">
        <ele>24.17</ele>
        <time>2016-04-10T06:05:41Z</time>
      </trkpt>
      <trkpt lat="43.57574" lon="3.87375">
        <ele>23.69</ele>
        <time>2016-04-10T06:05:42Z</time>
      </trkpt>
      <trkpt lat="43.57414" lon="3.87445">
        <ele>24.65</ele>
        <time>2016-04-10T06:05:51Z</time>
      </trkpt>
      <trkpt lat="43.57324" lon="3.8751">
        <ele>26.09</ele>
        <time>2016-04-10T06:05:58Z</time>
      </trkpt>
      <trkpt lat="43.57313" lon="3.8752">
        <ele>25.61</ele>
        <time>2016-04-10T06:05:59Z</time>
      </trkpt>
      <trkpt lat="43.57305" lon="3.87534">
        <ele>25.13</ele>
        <time>2016-04-10T06:06:00Z</time>
      </trkpt>
      <trkpt lat="43.57299" lon="3.87553">
        <ele>24.65</ele>
        <time>2016-04-10T06:06:01Z</time>
      </trkpt>
      <trkpt lat="43.57297" lon="3.87573">
        <ele>24.17</ele>
        <time>2016-04-10T06:06:02Z</time>
      </trkpt>
      <trkpt lat="43.57297" lon="3.87594">
        <ele>23.69</ele>
        <time>2016-04-10T06:06:03Z</time>
      </trkpt>
      <trkpt lat="43.57302" lon="3.87613">
        <ele>22.73</ele>
        <time>2016-04-10T06:06:04Z</time>
      </trkpt>
      <trkpt lat="43.57311" lon="3.8763">
        <ele>21.77</ele>
        <time>2016-04-10T06:06:05Z</time>
      </trkpt>
      <trkpt lat="43.57322" lon="3.87644">
        <ele>20.81</ele>
        <time>2016-04-10T06:06:06Z</time>
      </trkpt>
      <trkpt lat="43.57336" lon="3.87653">
        <ele>19.84</ele>
        <time>2016-04-10T06:06:07Z</time>
      </trkpt>
      <trkpt lat="43.57347" lon="3.87662">
        <ele>18.4</ele>
        <time>2016-04-10T06:06:08Z</time>
      </trkpt>
      <trkpt lat="43.57362" lon="3.87667">
        <ele>17.44</ele>
        <time>2016-04-10T06:06:09Z</time>
      </trkpt>
      <trkpt lat="43.57378" lon="3.87672">
        <ele>16.48</ele>
        <time>2016-04-10T06:06:10Z</time>
      </trkpt>
      <trkpt lat="43.57397" lon="3.87677">
        <ele>15.52</ele>
        <time>2016-04-10T06:06:11Z</time>
      </trkpt>
      <trkpt lat="43.57482" lon="3.87721">
        <ele>15.04</ele>
        <time>2016-04-10T06:06:16Z</time>
      </trkpt>
      <trkpt lat="43.57498" lon="3.87738">
        <ele>16</ele>
        <time>2016-04-10T06:06:17Z</time>
      </trkpt>
      <trkpt lat="43.57512" lon="3.87756">
        <ele>16</ele>
        <time>2016-04-10T06:06:18Z</time>
      </trkpt>
      <trkpt lat="43.5768" lon="3.87978">
        <ele>13.6</ele>
        <time>2016-04-10T06:06:29Z</time>
      </trkpt>
      <trkpt lat="43.57853" lon="3.88203">
        <ele>13.12</ele>
        <time>2016-04-10T06:06:39Z</time>
      </trkpt>
      <trkpt lat="43.58259" lon="3.88746">
        <ele>12.63</ele>
        <time>2016-04-10T06:07:03Z</time>
      </trkpt>
      <trkpt lat="43.5857" lon="3.8916">
        <ele>12.63</ele>
        <time>2016-04-10T06:07:21Z</time>
      </trkpt>
      <trkpt lat="43.58725" lon="3.89369">
        <ele>13.6</ele>
        <time>2016-04-10T06:07:28Z</time>
      </trkpt>
      <trkpt lat="43.58925" lon="3.89665">
        <ele>15.52</ele>
        <time>2016-04-10T06:07:36Z</time>
      </trkpt>
      <trkpt lat="43.59147" lon="3.90071">
        <ele>18.88</ele>
        <time>2016-04-10T06:07:45Z</time>
      </trkpt>
      <trkpt lat="43.59617" lon="3.91006">
        <ele>22.25</ele>
        <time>2016-04-10T06:08:05Z</time>
      </trkpt>
      <trkpt lat="43.59821" lon="3.91439">
        <ele>23.69</ele>
        <time>2016-04-10T06:08:15Z</time>
      </trkpt>
      <trkpt lat="43.60059" lon="3.91943">
        <ele>25.61</ele>
        <time>2016-04-10T06:08:29Z</time>
      </trkpt>
      <trkpt lat="43.60341" lon="3.92611">
        <ele>32.34</ele>
        <time>2016-04-10T06:08:47Z</time>
      </trkpt>
      <trkpt lat="43.60574" lon="3.93181">
        <ele>41.47</ele>
        <time>2016-04-10T06:09:02Z</time>
      </trkpt>
      <trkpt lat="43.60783" lon="3.93561">
        <ele>45.32</ele>
        <time>2016-04-10T06:09:13Z</time>
      </trkpt>
      <trkpt lat="43.61012" lon="3.93879">
        <ele>45.8</ele>
        <time>2016-04-10T06:09:23Z</time>
      </trkpt>
      <trkpt lat="43.61352" lon="3.94324">
        <ele>41.47</ele>
        <time>2016-04-10T06:09:37Z</time>
      </trkpt>
      <trkpt lat="43.61676" lon="3.94766">
        <ele>36.67</ele>
        <time>2016-04-10T06:09:50Z</time>
      </trkpt>
      <trkpt lat="43.61867" lon="3.95118">
        <ele>33.78</ele>
        <time>2016-04-10T06:09:59Z</time>
      </trkpt>
      <trkpt lat="43.61948" lon="3.95376">
        <ele>28.5</ele>
        <time>2016-04-10T06:10:05Z</time>
      </trkpt>
      <trkpt lat="43.61986" lon="3.95505">
        <ele>26.09</ele>
        <time>2016-04-10T06:10:08Z</time>
      </trkpt>
      <trkpt lat="43.62122" lon="3.95778">
        <ele>25.61</ele>
        <time>2016-04-10T06:10:15Z</time>
      </trkpt>
      <trkpt lat="43.62289" lon="3.95957">
        <ele>25.61</ele>
        <time>2016-04-10T06:10:21Z</time>
      </trkpt>
      <trkpt lat="43.62475" lon="3.96162">
        <ele>25.61</ele>
        <time>2016-04-10T06:10:28Z</time>
      </trkpt>
      <trkpt lat="43.62694" lon="3.96453">
        <ele>24.65</ele>
        <time>2016-04-10T06:10:37Z</time>
      </trkpt>
      <trkpt lat="43.62902" lon="3.96672">
        <ele>26.57</ele>
        <time>2016-04-10T06:10:44Z</time>
      </trkpt>
      <trkpt lat="43.63027" lon="3.96769">
        <ele>28.5</ele>
        <time>2016-04-10T06:10:49Z</time>
      </trkpt>
      <trkpt lat="43.63222" lon="3.96919">
        <ele>32.34</ele>
        <time>2016-04-10T06:10:58Z</time>
      </trkpt>
      <trkpt lat="43.63454" lon="3.97049">
        <ele>37.63</ele>
        <time>2016-04-10T06:11:08Z</time>
      </trkpt>
      <trkpt lat="43.63752" lon="3.97162">
        <ele>40.03</ele>
        <time>2016-04-10T06:11:21Z</time>
      </trkpt>
      <trkpt lat="43.6403" lon="3.97304">
        <ele>37.63</ele>
        <time>2016-04-10T06:11:33Z</time>
      </trkpt>
      <trkpt lat="43.64266" lon="3.97492">
        <ele>35.23</ele>
        <time>2016-04-10T06:11:43Z</time>
      </trkpt>
      <trkpt lat="43.64481" lon="3.97728">
        <ele>33.78</ele>
        <time>2016-04-10T06:11:53Z</time>
      </trkpt>
      <trkpt lat="43.64667" lon="3.98003">
        <ele>33.78</ele>
        <time>2016-04-10T06:12:03Z</time>
      </trkpt>
      <trkpt lat="43.64911" lon="3.98416">
        <ele>34.74</ele>
        <time>2016-04-10T06:12:17Z</time>
      </trkpt>
      <trkpt lat="43.65052" lon="3.98666">
        <ele>34.74</ele>
        <time>2016-04-10T06:12:26Z</time>
      </trkpt>
      <trkpt lat="43.6518" lon="3.989">
        <ele>34.74</ele>
        <time>2016-04-10T06:12:35Z</time>
      </trkpt>
      <trkpt lat="43.6531" lon="3.99097">
        <ele>35.71</ele>
        <time>2016-04-10T06:12:43Z</time>
      </trkpt>
      <trkpt lat="43.65321" lon="3.99126">
        <ele>35.71</ele>
        <time>2016-04-10T06:12:44Z</time>
      </trkpt>
      <trkpt lat="43.6533" lon="3.99159">
        <ele>35.71</ele>
        <time>2016-04-10T06:12:45Z</time>
      </trkpt>
      <trkpt lat="43.65336" lon="3.99194">
        <ele>35.71</ele>
        <time>2016-04-10T06:12:46Z</time>
      </trkpt>
      <trkpt lat="43.6534" lon="3.9923">
        <ele>35.71</ele>
        <time>2016-04-10T06:12:47Z</time>
      </trkpt>
      <trkpt lat="43.65342" lon="3.99267">
        <ele>36.19</ele>
        <time>2016-04-10T06:12:48Z</time>
      </trkpt>
      <trkpt lat="43.65343" lon="3.99303">
        <ele>36.19</ele>
        <time>2016-04-10T06:12:49Z</time>
      </trkpt>
      <trkpt lat="43.65343" lon="3.99464">
        <ele>40.03</ele>
        <time>2016-04-10T06:12:55Z</time>
      </trkpt>
      <trkpt lat="43.65345" lon="3.9948">
        <ele>40.03</ele>
        <time>2016-04-10T06:12:56Z</time>
      </trkpt>
      <trkpt lat="43.65349" lon="3.99494">
        <ele>40.51</ele>
        <time>2016-04-10T06:12:57Z</time>
      </trkpt>
      <trkpt lat="43.65354" lon="3.99507">
        <ele>40.51</ele>
        <time>2016-04-10T06:12:58Z</time>
      </trkpt>
      <trkpt lat="43.65359" lon="3.99519">
        <ele>40.51</ele>
        <time>2016-04-10T06:12:59Z</time>
      </trkpt>
      <trkpt lat="43.65365" lon="3.9953">
        <ele>40.51</ele>
        <time>2016-04-10T06:13:00Z</time>
      </trkpt>
      <trkpt lat="43.65401" lon="3.99608">
        <ele>40.51</ele>
        <time>2016-04-10T06:13:05Z</time>
      </trkpt>
      <trkpt lat="43.65406" lon="3.99631">
        <ele>40.51</ele>
        <time>2016-04-10T06:13:06Z</time>
      </trkpt>
      <trkpt lat="43.6541" lon="3.99659">
        <ele>40.03</ele>
        <time>2016-04-10T06:13:07Z</time>
      </trkpt>
      <trkpt lat="43.65441" lon="3.9987">
        <ele>35.23</ele>
        <time>2016-04-10T06:13:14Z</time>
      </trkpt>
      <trkpt lat="43.6545" lon="3.99999">
        <ele>31.86</ele>
        <time>2016-04-10T06:13:20Z</time>
      </trkpt>
      <trkpt lat="43.65446" lon="4.0001">
        <ele>31.86</ele>
        <time>2016-04-10T06:13:21Z</time>
      </trkpt>
      <trkpt lat="43.65439" lon="4.00017">
        <ele>31.38</ele>
        <time>2016-04-10T06:13:22Z</time>
      </trkpt>
      <trkpt lat="43.65431" lon="4.00023">
        <ele>30.9</ele>
        <time>2016-04-10T06:13:23Z</time>
      </trkpt>
      <trkpt lat="43.65422" lon="4.00031">
        <ele>30.42</ele>
        <time>2016-04-10T06:13:24Z</time>
      </trkpt>
      <trkpt lat="43.65415" lon="4.00043">
        <ele>29.94</ele>
        <time>2016-04-10T06:13:25Z</time>
      </trkpt>
      <trkpt lat="43.6541" lon="4.00059">
        <ele>29.46</ele>
        <time>2016-04-10T06:13:26Z</time>
      </trkpt>
      <trkpt lat="43.65408" lon="4.00077">
        <ele>29.46</ele>
        <time>2016-04-10T06:13:27Z</time>
      </trkpt>
      <trkpt lat="43.6541" lon="4.00095">
        <ele>28.98</ele>
        <time>2016-04-10T06:13:28Z</time>
      </trkpt>
      <trkpt lat="43.65416" lon="4.00112">
        <ele>28.98</ele>
        <time>2016-04-10T06:13:29Z</time>
      </trkpt>
      <trkpt lat="43.65426" lon="4.00125">
        <ele>28.98</ele>
        <time>2016-04-10T06:13:30Z</time>
      </trkpt>
      <trkpt lat="43.65439" lon="4.00134">
        <ele>28.98</ele>
        <time>2016-04-10T06:13:31Z</time>
      </trkpt>
      <trkpt lat="43.65451" lon="4.00137">
        <ele>29.46</ele>
        <time>2016-04-10T06:13:32Z</time>
      </trkpt>
      <trkpt lat="43.65465" lon="4.00138">
        <ele>29.46</ele>
        <time>2016-04-10T06:13:33Z</time>
      </trkpt>
      <trkpt lat="43.6548" lon="4.00134">
        <ele>29.94</ele>
        <time>2016-04-10T06:13:34Z</time>
      </trkpt>
      <trkpt lat="43.65493" lon="4.00127">
        <ele>29.94</ele>
        <time>2016-04-10T06:13:35Z</time>
      </trkpt>
      <trkpt lat="43.65504" lon="4.00116">
        <ele>29.94</ele>
        <time>2016-04-10T06:13:36Z</time>
      </trkpt>
      <trkpt lat="43.65511" lon="4.00102">
        <ele>29.94</ele>
        <time>2016-04-10T06:13:37Z</time>
      </trkpt>
      <trkpt lat="43.65515" lon="4.00087">
        <ele>29.94</ele>
        <time>2016-04-10T06:13:38Z</time>
      </trkpt>
      <trkpt lat="43.65517" lon="4.00071">
        <ele>30.42</ele>
        <time>2016-04-10T06:13:39Z</time>
      </trkpt>
      <trkpt lat="43.65519" lon="4.00055">
        <ele>29.94</ele>
        <time>2016-04-10T06:13:40Z</time>
      </trkpt>
      <trkpt lat="43.65524" lon="4.00042">
        <ele>30.42</ele>
        <time>2016-04-10T06:13:41Z</time>
      </trkpt>
      <trkpt lat="43.65529" lon="4.0003">
        <ele>30.42</ele>
        <time>2016-04-10T06:13:42Z</time>
      </trkpt>
      <trkpt lat="43.65535" lon="4.00021">
        <ele>30.42</ele>
        <time>2016-04-10T06:13:43Z</time>
      </trkpt>
      <trkpt lat="43.65542" lon="4.00014">
        <ele>30.9</ele>
        <time>2016-04-10T06:13:44Z</time>
      </trkpt>
      <trkpt lat="43.65548" lon="4.00009">
        <ele>31.38</ele>
        <time>2016-04-10T06:13:45Z</time>
      </trkpt>
      <trkpt lat="43.65574" lon="3.9998">
        <ele>32.34</ele>
        <time>2016-04-10T06:13:52Z</time>
      </trkpt>
      <trkpt lat="43.65574" lon="3.99976">
        <ele>32.34</ele>
        <time>2016-04-10T06:13:53Z</time>
      </trkpt>
      <trkpt lat="43.65572" lon="3.99971">
        <ele>32.34</ele>
        <time>2016-04-10T06:13:54Z</time>
      </trkpt>
      <trkpt lat="43.6557" lon="3.99965">
        <ele>32.34</ele>
        <time>2016-04-10T06:13:55Z</time>
      </trkpt>
      <trkpt lat="43.65567" lon="3.99959">
        <ele>32.34</ele>
        <time>2016-04-10T06:13:56Z</time>
      </trkpt>
      <trkpt lat="43.65565" lon="3.99953">
        <ele>31.86</ele>
        <time>2016-04-10T06:13:57Z</time>
      </trkpt>
      <trkpt lat="43.65564" lon="3.99947">
        <ele>31.86</ele>
        <time>2016-04-10T06:13:58Z</time>
      </trkpt>
      <trkpt lat="43.6556" lon="3.99934">
        <ele>31.86</ele>
        <time>2016-04-10T06:14:00Z</time>
      </trkpt>
      <trkpt lat="43.6555" lon="3.99917">
        <ele>32.34</ele>
        <time>2016-04-10T06:14:04Z</time>
      </trkpt>
      <trkpt lat="43.65547" lon="3.99917">
        <ele>32.34</ele>
        <time>2016-04-10T06:14:05Z</time>
      </trkpt>
      <trkpt lat="43.65545" lon="3.99919">
        <ele>32.34</ele>
        <time>2016-04-10T06:14:06Z</time>
      </trkpt>
      <trkpt lat="43.65544" lon="3.99921">
        <ele>31.86</ele>
        <time>2016-04-10T06:14:07Z</time>
      </trkpt>
      <trkpt lat="43.65544" lon="3.99924">
        <ele>32.34</ele>
        <time>2016-04-10T06:14:08Z</time>
      </trkpt>
      <trkpt lat="43.65544" lon="3.99925">
        <ele>32.34</ele>
        <time>2016-04-10T06:14:09Z</time>
      </trkpt>
      <trkpt lat="43.65546" lon="3.9993">
        <ele>32.82</ele>
        <time>2016-04-10T06:14:25Z</time>
      </trkpt>
      <trkpt lat="43.65547" lon="3.99931">
        <ele>33.3</ele>
        <time>2016-04-10T06:56:39Z</time>
      </trkpt>
      <trkpt lat="43.65547" lon="3.99932">
        <ele>33.3</ele>
        <time>2016-04-10T06:56:54Z</time>
      </trkpt>
      <trkpt lat="43.6555" lon="3.99939">
        <ele>33.3</ele>
        <time>2016-04-10T06:56:58Z</time>
      </trkpt>
      <trkpt lat="43.65557" lon="3.99945">
        <ele>33.78</ele>
        <time>2016-04-10T06:57:10Z</time>
      </trkpt>
      <trkpt lat="43.6557" lon="3.9997">
        <ele>33.3</ele>
        <time>2016-04-10T06:57:22Z</time>
      </trkpt>
      <trkpt lat="43.65571" lon="3.99978">
        <ele>32.82</ele>
        <time>2016-04-10T06:57:28Z</time>
      </trkpt>
      <trkpt lat="43.65568" lon="3.99988">
        <ele>32.82</ele>
        <time>2016-04-10T06:57:30Z</time>
      </trkpt>
      <trkpt lat="43.65564" lon="3.99992">
        <ele>32.82</ele>
        <time>2016-04-10T06:57:31Z</time>
      </trkpt>
      <trkpt lat="43.6556" lon="3.99996">
        <ele>32.82</ele>
        <time>2016-04-10T06:57:32Z</time>
      </trkpt>
      <trkpt lat="43.65555" lon="3.99999">
        <ele>32.82</ele>
        <time>2016-04-10T06:57:33Z</time>
      </trkpt>
      <trkpt lat="43.65523" lon="4.00027">
        <ele>32.34</ele>
        <time>2016-04-10T06:57:44Z</time>
      </trkpt>
      <trkpt lat="43.65515" lon="4.00029">
        <ele>31.86</ele>
        <time>2016-04-10T06:57:49Z</time>
      </trkpt>
      <trkpt lat="43.6551" lon="4.00028">
        <ele>32.34</ele>
        <time>2016-04-10T06:57:50Z</time>
      </trkpt>
      <trkpt lat="43.65503" lon="4.00025">
        <ele>32.34</ele>
        <time>2016-04-10T06:57:51Z</time>
      </trkpt>
      <trkpt lat="43.65479" lon="4.00006">
        <ele>32.34</ele>
        <time>2016-04-10T06:57:54Z</time>
      </trkpt>
      <trkpt lat="43.6547" lon="3.99997">
        <ele>32.82</ele>
        <time>2016-04-10T06:57:55Z</time>
      </trkpt>
      <trkpt lat="43.65463" lon="3.99983">
        <ele>32.82</ele>
        <time>2016-04-10T06:57:56Z</time>
      </trkpt>
      <trkpt lat="43.65461" lon="3.99966">
        <ele>32.34</ele>
        <time>2016-04-10T06:57:57Z</time>
      </trkpt>
      <trkpt lat="43.65459" lon="3.99949">
        <ele>32.34</ele>
        <time>2016-04-10T06:57:58Z</time>
      </trkpt>
      <trkpt lat="43.65458" lon="3.99933">
        <ele>32.34</ele>
        <time>2016-04-10T06:57:59Z</time>
      </trkpt>
      <trkpt lat="43.65429" lon="3.99703">
        <ele>38.59</ele>
        <time>2016-04-10T06:58:13Z</time>
      </trkpt>
      <trkpt lat="43.65414" lon="3.99571">
        <ele>42.44</ele>
        <time>2016-04-10T06:58:22Z</time>
      </trkpt>
      <trkpt lat="43.65418" lon="3.99545">
        <ele>43.4</ele>
        <time>2016-04-10T06:58:28Z</time>
      </trkpt>
      <trkpt lat="43.65421" lon="3.99538">
        <ele>43.4</ele>
        <time>2016-04-10T06:58:29Z</time>
      </trkpt>
      <trkpt lat="43.65429" lon="3.99522">
        <ele>43.4</ele>
        <time>2016-04-10T06:58:31Z</time>
      </trkpt>
      <trkpt lat="43.6543" lon="3.99513">
        <ele>43.4</ele>
        <time>2016-04-10T06:58:32Z</time>
      </trkpt>
      <trkpt lat="43.6543" lon="3.99504">
        <ele>43.88</ele>
        <time>2016-04-10T06:58:33Z</time>
      </trkpt>
      <trkpt lat="43.65428" lon="3.99494">
        <ele>43.88</ele>
        <time>2016-04-10T06:58:34Z</time>
      </trkpt>
      <trkpt lat="43.65424" lon="3.99485">
        <ele>43.88</ele>
        <time>2016-04-10T06:58:35Z</time>
      </trkpt>
      <trkpt lat="43.65421" lon="3.99474">
        <ele>43.4</ele>
        <time>2016-04-10T06:58:36Z</time>
      </trkpt>
      <trkpt lat="43.65419" lon="3.99462">
        <ele>43.4</ele>
        <time>2016-04-10T06:58:37Z</time>
      </trkpt>
      <trkpt lat="43.65419" lon="3.99448">
        <ele>43.4</ele>
        <time>2016-04-10T06:58:38Z</time>
      </trkpt>
      <trkpt lat="43.65435" lon="3.99324">
        <ele>45.32</ele>
        <time>2016-04-10T06:58:45Z</time>
      </trkpt>
      <trkpt lat="43.65476" lon="3.9911">
        <ele>44.84</ele>
        <time>2016-04-10T06:58:56Z</time>
      </trkpt>
      <trkpt lat="43.65483" lon="3.99083">
        <ele>44.84</ele>
        <time>2016-04-10T06:58:58Z</time>
      </trkpt>
      <trkpt lat="43.65488" lon="3.99071">
        <ele>44.84</ele>
        <time>2016-04-10T06:58:59Z</time>
      </trkpt>
      <trkpt lat="43.65494" lon="3.99061">
        <ele>44.84</ele>
        <time>2016-04-10T06:59:00Z</time>
      </trkpt>
      <trkpt lat="43.65501" lon="3.99053">
        <ele>45.32</ele>
        <time>2016-04-10T06:59:01Z</time>
      </trkpt>
      <trkpt lat="43.65508" lon="3.99048">
        <ele>45.32</ele>
        <time>2016-04-10T06:59:02Z</time>
      </trkpt>
      <trkpt lat="43.65517" lon="3.99044">
        <ele>45.8</ele>
        <time>2016-04-10T06:59:03Z</time>
      </trkpt>
      <trkpt lat="43.65525" lon="3.99038">
        <ele>45.8</ele>
        <time>2016-04-10T06:59:04Z</time>
      </trkpt>
      <trkpt lat="43.65529" lon="3.99028">
        <ele>45.8</ele>
        <time>2016-04-10T06:59:05Z</time>
      </trkpt>
      <trkpt lat="43.65529" lon="3.99016">
        <ele>46.28</ele>
        <time>2016-04-10T06:59:06Z</time>
      </trkpt>
      <trkpt lat="43.65525" lon="3.99004">
        <ele>45.8</ele>
        <time>2016-04-10T06:59:07Z</time>
      </trkpt>
      <trkpt lat="43.65519" lon="3.98992">
        <ele>46.28</ele>
        <time>2016-04-10T06:59:08Z</time>
      </trkpt>
      <trkpt lat="43.65513" lon="3.98979">
        <ele>45.32</ele>
        <time>2016-04-10T06:59:09Z</time>
      </trkpt>
      <trkpt lat="43.65506" lon="3.98962">
        <ele>45.32</ele>
        <time>2016-04-10T06:59:10Z</time>
      </trkpt>
      <trkpt lat="43.65502" lon="3.98943">
        <ele>44.84</ele>
        <time>2016-04-10T06:59:11Z</time>
      </trkpt>
      <trkpt lat="43.65499" lon="3.98919">
        <ele>43.88</ele>
        <time>2016-04-10T06:59:12Z</time>
      </trkpt>
      <trkpt lat="43.65465" lon="3.9867">
        <ele>39.55</ele>
        <time>2016-04-10T06:59:22Z</time>
      </trkpt>
      <trkpt lat="43.65397" lon="3.98377">
        <ele>37.15</ele>
        <time>2016-04-10T06:59:34Z</time>
      </trkpt>
      <trkpt lat="43.65398" lon="3.98354">
        <ele>37.63</ele>
        <time>2016-04-10T06:59:35Z</time>
      </trkpt>
      <trkpt lat="43.65404" lon="3.9833">
        <ele>38.11</ele>
        <time>2016-04-10T06:59:36Z</time>
      </trkpt>
      <trkpt lat="43.65414" lon="3.98309">
        <ele>38.59</ele>
        <time>2016-04-10T06:59:37Z</time>
      </trkpt>
      <trkpt lat="43.65427" lon="3.98292">
        <ele>38.59</ele>
        <time>2016-04-10T06:59:38Z</time>
      </trkpt>
      <trkpt lat="43.6544" lon="3.98277">
        <ele>39.55</ele>
        <time>2016-04-10T06:59:39Z</time>
      </trkpt>
      <trkpt lat="43.65453" lon="3.98266">
        <ele>40.03</ele>
        <time>2016-04-10T06:59:40Z</time>
      </trkpt>
      <trkpt lat="43.65464" lon="3.98257">
        <ele>40.51</ele>
        <time>2016-04-10T06:59:41Z</time>
      </trkpt>
      <trkpt lat="43.65475" lon="3.98251">
        <ele>40.51</ele>
        <time>2016-04-10T06:59:42Z</time>
      </trkpt>
      <trkpt lat="43.65484" lon="3.98247">
        <ele>40.51</ele>
        <time>2016-04-10T06:59:43Z</time>
      </trkpt>
      <trkpt lat="43.65495" lon="3.98241">
        <ele>40.51</ele>
        <time>2016-04-10T06:59:44Z</time>
      </trkpt>
      <trkpt lat="43.65504" lon="3.98231">
        <ele>40.51</ele>
        <time>2016-04-10T06:59:45Z</time>
      </trkpt>
      <trkpt lat="43.65514" lon="3.98218">
        <ele>40.51</ele>
        <time>2016-04-10T06:59:46Z</time>
      </trkpt>
      <trkpt lat="43.65526" lon="3.98205">
        <ele>40.03</ele>
        <time>2016-04-10T06:59:47Z</time>
      </trkpt>
      <trkpt lat="43.65541" lon="3.98195">
        <ele>40.03</ele>
        <time>2016-04-10T06:59:48Z</time>
      </trkpt>
      <trkpt lat="43.65558" lon="3.98186">
        <ele>40.03</ele>
        <time>2016-04-10T06:59:49Z</time>
      </trkpt>
      <trkpt lat="43.65575" lon="3.98179">
        <ele>40.03</ele>
        <time>2016-04-10T06:59:50Z</time>
      </trkpt>
      <trkpt lat="43.65729" lon="3.98145">
        <ele>40.51</ele>
        <time>2016-04-10T06:59:59Z</time>
      </trkpt>
      <trkpt lat="43.65897" lon="3.98097">
        <ele>42.92</ele>
        <time>2016-04-10T07:00:09Z</time>
      </trkpt>
      <trkpt lat="43.66005" lon="3.98024">
        <ele>44.36</ele>
        <time>2016-04-10T07:00:17Z</time>
      </trkpt>
      <trkpt lat="43.6614" lon="3.97938">
        <ele>44.36</ele>
        <time>2016-04-10T07:00:27Z</time>
      </trkpt>
      <trkpt lat="43.6628" lon="3.97898">
        <ele>47.24</ele>
        <time>2016-04-10T07:00:35Z</time>
      </trkpt>
      <trkpt lat="43.66409" lon="3.97821">
        <ele>48.2</ele>
        <time>2016-04-10T07:00:43Z</time>
      </trkpt>
      <trkpt lat="43.66537" lon="3.97774">
        <ele>50.61</ele>
        <time>2016-04-10T07:00:51Z</time>
      </trkpt>
      <trkpt lat="43.66694" lon="3.97701">
        <ele>53.97</ele>
        <time>2016-04-10T07:01:01Z</time>
      </trkpt>
      <trkpt lat="43.66778" lon="3.97605">
        <ele>52.05</ele>
        <time>2016-04-10T07:01:09Z</time>
      </trkpt>
      <trkpt lat="43.66807" lon="3.97578">
        <ele>52.05</ele>
        <time>2016-04-10T07:01:15Z</time>
      </trkpt>
      <trkpt lat="43.66815" lon="3.97575">
        <ele>52.53</ele>
        <time>2016-04-10T07:01:19Z</time>
      </trkpt>
      <trkpt lat="43.66822" lon="3.97575">
        <ele>52.53</ele>
        <time>2016-04-10T07:01:20Z</time>
      </trkpt>
      <trkpt lat="43.66831" lon="3.97574">
        <ele>52.05</ele>
        <time>2016-04-10T07:01:21Z</time>
      </trkpt>
      <trkpt lat="43.66841" lon="3.97572">
        <ele>52.05</ele>
        <time>2016-04-10T07:01:22Z</time>
      </trkpt>
      <trkpt lat="43.6685" lon="3.97567">
        <ele>52.05</ele>
        <time>2016-04-10T07:01:23Z</time>
      </trkpt>
      <trkpt lat="43.66859" lon="3.9756">
        <ele>52.05</ele>
        <time>2016-04-10T07:01:24Z</time>
      </trkpt>
      <trkpt lat="43.66868" lon="3.97551">
        <ele>52.53</ele>
        <time>2016-04-10T07:01:25Z</time>
      </trkpt>
      <trkpt lat="43.66878" lon="3.97544">
        <ele>52.53</ele>
        <time>2016-04-10T07:01:26Z</time>
      </trkpt>
      <trkpt lat="43.66889" lon="3.97543">
        <ele>53.01</ele>
        <time>2016-04-10T07:01:27Z</time>
      </trkpt>
      <trkpt lat="43.66902" lon="3.97547">
        <ele>53.01</ele>
        <time>2016-04-10T07:01:28Z</time>
      </trkpt>
      <trkpt lat="43.66914" lon="3.97555">
        <ele>53.49</ele>
        <time>2016-04-10T07:01:29Z</time>
      </trkpt>
      <trkpt lat="43.66927" lon="3.97566">
        <ele>53.01</ele>
        <time>2016-04-10T07:01:30Z</time>
      </trkpt>
      <trkpt lat="43.66939" lon="3.97577">
        <ele>52.53</ele>
        <time>2016-04-10T07:01:31Z</time>
      </trkpt>
      <trkpt lat="43.66951" lon="3.9759">
        <ele>52.53</ele>
        <time>2016-04-10T07:01:32Z</time>
      </trkpt>
      <trkpt lat="43.66963" lon="3.97605">
        <ele>52.05</ele>
        <time>2016-04-10T07:01:33Z</time>
      </trkpt>
      <trkpt lat="43.66974" lon="3.97621">
        <ele>52.05</ele>
        <time>2016-04-10T07:01:34Z</time>
      </trkpt>
      <trkpt lat="43.66984" lon="3.97638">
        <ele>52.05</ele>
        <time>2016-04-10T07:01:35Z</time>
      </trkpt>
      <trkpt lat="43.67087" lon="3.97825">
        <ele>51.09</ele>
        <time>2016-04-10T07:01:47Z</time>
      </trkpt>
      <trkpt lat="43.67142" lon="3.97949">
        <ele>50.13</ele>
        <time>2016-04-10T07:01:52Z</time>
      </trkpt>
      <trkpt lat="43.67183" lon="3.98031">
        <ele>51.57</ele>
        <time>2016-04-10T07:01:55Z</time>
      </trkpt>
      <trkpt lat="43.67198" lon="3.98052">
        <ele>52.05</ele>
        <time>2016-04-10T07:01:56Z</time>
      </trkpt>
      <trkpt lat="43.67297" lon="3.98163">
        <ele>51.57</ele>
        <time>2016-04-10T07:02:03Z</time>
      </trkpt>
      <trkpt lat="43.67375" lon="3.98232">
        <ele>52.53</ele>
        <time>2016-04-10T07:02:10Z</time>
      </trkpt>
      <trkpt lat="43.674" lon="3.98255">
        <ele>53.01</ele>
        <time>2016-04-10T07:02:13Z</time>
      </trkpt>
      <trkpt lat="43.6741" lon="3.98258">
        <ele>53.49</ele>
        <time>2016-04-10T07:02:14Z</time>
      </trkpt>
      <trkpt lat="43.6742" lon="3.98259">
        <ele>53.49</ele>
        <time>2016-04-10T07:02:15Z</time>
      </trkpt>
      <trkpt lat="43.6743" lon="3.98259">
        <ele>53.01</ele>
        <time>2016-04-10T07:02:16Z</time>
      </trkpt>
      <trkpt lat="43.6744" lon="3.98259">
        <ele>53.01</ele>
        <time>2016-04-10T07:02:17Z</time>
      </trkpt>
      <trkpt lat="43.67451" lon="3.98265">
        <ele>53.01</ele>
        <time>2016-04-10T07:02:18Z</time>
      </trkpt>
      <trkpt lat="43.67464" lon="3.98272">
        <ele>53.01</ele>
        <time>2016-04-10T07:02:19Z</time>
      </trkpt>
      <trkpt lat="43.67476" lon="3.98281">
        <ele>53.01</ele>
        <time>2016-04-10T07:02:20Z</time>
      </trkpt>
      <trkpt lat="43.67488" lon="3.9829">
        <ele>53.01</ele>
        <time>2016-04-10T07:02:21Z</time>
      </trkpt>
      <trkpt lat="43.67586" lon="3.98356">
        <ele>54.45</ele>
        <time>2016-04-10T07:02:30Z</time>
      </trkpt>
      <trkpt lat="43.67623" lon="3.98379">
        <ele>56.37</ele>
        <time>2016-04-10T07:02:34Z</time>
      </trkpt>
      <trkpt lat="43.67633" lon="3.98382">
        <ele>56.86</ele>
        <time>2016-04-10T07:02:35Z</time>
      </trkpt>
      <trkpt lat="43.67644" lon="3.98383">
        <ele>57.34</ele>
        <time>2016-04-10T07:02:36Z</time>
      </trkpt>
      <trkpt lat="43.67739" lon="3.98382">
        <ele>63.1</ele>
        <time>2016-04-10T07:02:46Z</time>
      </trkpt>
      <trkpt lat="43.67794" lon="3.98384">
        <ele>68.87</ele>
        <time>2016-04-10T07:02:52Z</time>
      </trkpt>
      <trkpt lat="43.67803" lon="3.98387">
        <ele>69.35</ele>
        <time>2016-04-10T07:02:53Z</time>
      </trkpt>
      <trkpt lat="43.67812" lon="3.98393">
        <ele>69.35</ele>
        <time>2016-04-10T07:02:54Z</time>
      </trkpt>
      <trkpt lat="43.67821" lon="3.98401">
        <ele>69.35</ele>
        <time>2016-04-10T07:02:55Z</time>
      </trkpt>
      <trkpt lat="43.6783" lon="3.9841">
        <ele>69.35</ele>
        <time>2016-04-10T07:02:56Z</time>
      </trkpt>
      <trkpt lat="43.67838" lon="3.9842">
        <ele>70.31</ele>
        <time>2016-04-10T07:02:57Z</time>
      </trkpt>
      <trkpt lat="43.67845" lon="3.98433">
        <ele>70.31</ele>
        <time>2016-04-10T07:02:58Z</time>
      </trkpt>
      <trkpt lat="43.67853" lon="3.98447">
        <ele>70.31</ele>
        <time>2016-04-10T07:02:59Z</time>
      </trkpt>
      <trkpt lat="43.6786" lon="3.98462">
        <ele>70.79</ele>
        <time>2016-04-10T07:03:00Z</time>
      </trkpt>
      <trkpt lat="43.67917" lon="3.98604">
        <ele>71.27</ele>
        <time>2016-04-10T07:03:10Z</time>
      </trkpt>
      <trkpt lat="43.67969" lon="3.98763">
        <ele>66.95</ele>
        <time>2016-04-10T07:03:20Z</time>
      </trkpt>
      <trkpt lat="43.68043" lon="3.98917">
        <ele>61.66</ele>
        <time>2016-04-10T07:03:28Z</time>
      </trkpt>
      <trkpt lat="43.68101" lon="3.99022">
        <ele>57.34</ele>
        <time>2016-04-10T07:03:35Z</time>
      </trkpt>
      <trkpt lat="43.68141" lon="3.99092">
        <ele>56.37</ele>
        <time>2016-04-10T07:03:42Z</time>
      </trkpt>
      <trkpt lat="43.68211" lon="3.99197">
        <ele>55.89</ele>
        <time>2016-04-10T07:03:48Z</time>
      </trkpt>
      <trkpt lat="43.68375" lon="3.99379">
        <ele>49.65</ele>
        <time>2016-04-10T07:03:58Z</time>
      </trkpt>
      <trkpt lat="43.68442" lon="3.99459">
        <ele>49.16</ele>
        <time>2016-04-10T07:04:02Z</time>
      </trkpt>
      <trkpt lat="43.68462" lon="3.99476">
        <ele>49.65</ele>
        <time>2016-04-10T07:04:03Z</time>
      </trkpt>
      <trkpt lat="43.68484" lon="3.99491">
        <ele>49.65</ele>
        <time>2016-04-10T07:04:04Z</time>
      </trkpt>
      <trkpt lat="43.68758" lon="3.99676">
        <ele>50.13</ele>
        <time>2016-04-10T07:04:17Z</time>
      </trkpt>
      <trkpt lat="43.68809" lon="3.99732">
        <ele>50.61</ele>
        <time>2016-04-10T07:04:20Z</time>
      </trkpt>
      <trkpt lat="43.68821" lon="3.99754">
        <ele>50.61</ele>
        <time>2016-04-10T07:04:21Z</time>
      </trkpt>
      <trkpt lat="43.68831" lon="3.99783">
        <ele>50.61</ele>
        <time>2016-04-10T07:04:22Z</time>
      </trkpt>
      <trkpt lat="43.68839" lon="3.99814">
        <ele>51.09</ele>
        <time>2016-04-10T07:04:23Z</time>
      </trkpt>
      <trkpt lat="43.68847" lon="3.99846">
        <ele>50.61</ele>
        <time>2016-04-10T07:04:24Z</time>
      </trkpt>
      <trkpt lat="43.68919" lon="4.00098">
        <ele>49.65</ele>
        <time>2016-04-10T07:04:32Z</time>
      </trkpt>
      <trkpt lat="43.68934" lon="4.00127">
        <ele>49.65</ele>
        <time>2016-04-10T07:04:33Z</time>
      </trkpt>
      <trkpt lat="43.69011" lon="4.00271">
        <ele>50.13</ele>
        <time>2016-04-10T07:04:39Z</time>
      </trkpt>
      <trkpt lat="43.69052" lon="4.00402">
        <ele>48.2</ele>
        <time>2016-04-10T07:04:45Z</time>
      </trkpt>
      <trkpt lat="43.69094" lon="4.00611">
        <ele>46.28</ele>
        <time>2016-04-10T07:04:52Z</time>
      </trkpt>
      <trkpt lat="43.69107" lon="4.00642">
        <ele>46.28</ele>
        <time>2016-04-10T07:04:53Z</time>
      </trkpt>
      <trkpt lat="43.69124" lon="4.00671">
        <ele>46.28</ele>
        <time>2016-04-10T07:04:54Z</time>
      </trkpt>
      <trkpt lat="43.69253" lon="4.00862">
        <ele>46.28</ele>
        <time>2016-04-10T07:05:02Z</time>
      </trkpt>
      <trkpt lat="43.69416" lon="4.0112">
        <ele>46.28</ele>
        <time>2016-04-10T07:05:13Z</time>
      </trkpt>
      <trkpt lat="43.69558" lon="4.01342">
        <ele>48.2</ele>
        <time>2016-04-10T07:05:23Z</time>
      </trkpt>
      <trkpt lat="43.69674" lon="4.01481">
        <ele>53.01</ele>
        <time>2016-04-10T07:05:32Z</time>
      </trkpt>
      <trkpt lat="43.69787" lon="4.01613">
        <ele>57.34</ele>
        <time>2016-04-10T07:05:40Z</time>
      </trkpt>
      <trkpt lat="43.70004" lon="4.01876">
        <ele>67.91</ele>
        <time>2016-04-10T07:05:53Z</time>
      </trkpt>
      <trkpt lat="43.70132" lon="4.02064">
        <ele>71.76</ele>
        <time>2016-04-10T07:06:01Z</time>
      </trkpt>
      <trkpt lat="43.70332" lon="4.02369">
        <ele>79.45</ele>
        <time>2016-04-10T07:06:13Z</time>
      </trkpt>
      <trkpt lat="43.70448" lon="4.02492">
        <ele>84.25</ele>
        <time>2016-04-10T07:06:19Z</time>
      </trkpt>
      <trkpt lat="43.7047" lon="4.02507">
        <ele>84.73</ele>
        <time>2016-04-10T07:06:20Z</time>
      </trkpt>
      <trkpt lat="43.70493" lon="4.0252">
        <ele>85.21</ele>
        <time>2016-04-10T07:06:21Z</time>
      </trkpt>
      <trkpt lat="43.70817" lon="4.02686">
        <ele>91.46</ele>
        <time>2016-04-10T07:06:35Z</time>
      </trkpt>
      <trkpt lat="43.71112" lon="4.02828">
        <ele>97.71</ele>
        <time>2016-04-10T07:06:48Z</time>
      </trkpt>
      <trkpt lat="43.71161" lon="4.02839">
        <ele>96.27</ele>
        <time>2016-04-10T07:06:50Z</time>
      </trkpt>
      <trkpt lat="43.71185" lon="4.02851">
        <ele>95.31</ele>
        <time>2016-04-10T07:06:51Z</time>
      </trkpt>
      <trkpt lat="43.71209" lon="4.02867">
        <ele>93.87</ele>
        <time>2016-04-10T07:06:52Z</time>
      </trkpt>
      <trkpt lat="43.71456" lon="4.03041">
        <ele>82.81</ele>
        <time>2016-04-10T07:07:03Z</time>
      </trkpt>
      <trkpt lat="43.71711" lon="4.03256">
        <ele>81.85</ele>
        <time>2016-04-10T07:07:15Z</time>
      </trkpt>
      <trkpt lat="43.71829" lon="4.03387">
        <ele>90.98</ele>
        <time>2016-04-10T07:07:22Z</time>
      </trkpt>
      <trkpt lat="43.71893" lon="4.03465">
        <ele>93.39</ele>
        <time>2016-04-10T07:07:27Z</time>
      </trkpt>
      <trkpt lat="43.71909" lon="4.03478">
        <ele>93.39</ele>
        <time>2016-04-10T07:07:28Z</time>
      </trkpt>
      <trkpt lat="43.72044" lon="4.03558">
        <ele>92.42</ele>
        <time>2016-04-10T07:07:36Z</time>
      </trkpt>
      <trkpt lat="43.72131" lon="4.03599">
        <ele>93.87</ele>
        <time>2016-04-10T07:07:43Z</time>
      </trkpt>
      <trkpt lat="43.72239" lon="4.03624">
        <ele>88.58</ele>
        <time>2016-04-10T07:07:52Z</time>
      </trkpt>
      <trkpt lat="43.72262" lon="4.03637">
        <ele>87.14</ele>
        <time>2016-04-10T07:07:54Z</time>
      </trkpt>
      <trkpt lat="43.72272" lon="4.03646">
        <ele>85.69</ele>
        <time>2016-04-10T07:07:55Z</time>
      </trkpt>
      <trkpt lat="43.72282" lon="4.03657">
        <ele>85.21</ele>
        <time>2016-04-10T07:07:56Z</time>
      </trkpt>
      <trkpt lat="43.7229" lon="4.03669">
        <ele>84.73</ele>
        <time>2016-04-10T07:07:57Z</time>
      </trkpt>
      <trkpt lat="43.72296" lon="4.03682">
        <ele>84.25</ele>
        <time>2016-04-10T07:07:58Z</time>
      </trkpt>
      <trkpt lat="43.72302" lon="4.03694">
        <ele>84.25</ele>
        <time>2016-04-10T07:07:59Z</time>
      </trkpt>
      <trkpt lat="43.72332" lon="4.03751">
        <ele>85.69</ele>
        <time>2016-04-10T07:08:05Z</time>
      </trkpt>
      <trkpt lat="43.72379" lon="4.03848">
        <ele>88.58</ele>
        <time>2016-04-10T07:08:14Z</time>
      </trkpt>
      <trkpt lat="43.72385" lon="4.03872">
        <ele>88.1</ele>
        <time>2016-04-10T07:08:17Z</time>
      </trkpt>
      <trkpt lat="43.72393" lon="4.03908">
        <ele>86.66</ele>
        <time>2016-04-10T07:08:20Z</time>
      </trkpt>
      <trkpt lat="43.72399" lon="4.0392">
        <ele>86.66</ele>
        <time>2016-04-10T07:08:21Z</time>
      </trkpt>
      <trkpt lat="43.7241" lon="4.0393">
        <ele>86.18</ele>
        <time>2016-04-10T07:08:22Z</time>
      </trkpt>
      <trkpt lat="43.72421" lon="4.03938">
        <ele>85.69</ele>
        <time>2016-04-10T07:08:23Z</time>
      </trkpt>
      <trkpt lat="43.72431" lon="4.03946">
        <ele>85.21</ele>
        <time>2016-04-10T07:08:24Z</time>
      </trkpt>
      <trkpt lat="43.72516" lon="4.04017">
        <ele>81.85</ele>
        <time>2016-04-10T07:08:33Z</time>
      </trkpt>
      <trkpt lat="43.72633" lon="4.04113">
        <ele>87.62</ele>
        <time>2016-04-10T07:08:41Z</time>
      </trkpt>
      <trkpt lat="43.72872" lon="4.04308">
        <ele>94.83</ele>
        <time>2016-04-10T07:08:54Z</time>
      </trkpt>
      <trkpt lat="43.72974" lon="4.04396">
        <ele>97.71</ele>
        <time>2016-04-10T07:08:59Z</time>
      </trkpt>
      <trkpt lat="43.72991" lon="4.04417">
        <ele>99.15</ele>
        <time>2016-04-10T07:09:00Z</time>
      </trkpt>
      <trkpt lat="43.73007" lon="4.04441">
        <ele>100.6</ele>
        <time>2016-04-10T07:09:01Z</time>
      </trkpt>
      <trkpt lat="43.73023" lon="4.04466">
        <ele>101.08</ele>
        <time>2016-04-10T07:09:02Z</time>
      </trkpt>
      <trkpt lat="43.73037" lon="4.04493">
        <ele>101.56</ele>
        <time>2016-04-10T07:09:03Z</time>
      </trkpt>
      <trkpt lat="43.73051" lon="4.04522">
        <ele>101.56</ele>
        <time>2016-04-10T07:09:04Z</time>
      </trkpt>
      <trkpt lat="43.73165" lon="4.04741">
        <ele>97.71</ele>
        <time>2016-04-10T07:09:12Z</time>
      </trkpt>
      <trkpt lat="43.73298" lon="4.04844">
        <ele>92.9</ele>
        <time>2016-04-10T07:09:18Z</time>
      </trkpt>
      <trkpt lat="43.73322" lon="4.04852">
        <ele>92.42</ele>
        <time>2016-04-10T07:09:19Z</time>
      </trkpt>
      <trkpt lat="43.7368" lon="4.04952">
        <ele>81.37</ele>
        <time>2016-04-10T07:09:34Z</time>
      </trkpt>
      <trkpt lat="43.73997" lon="4.05043">
        <ele>72.24</ele>
        <time>2016-04-10T07:09:47Z</time>
      </trkpt>
      <trkpt lat="43.74339" lon="4.05141">
        <ele>70.79</ele>
        <time>2016-04-10T07:10:01Z</time>
      </trkpt>
      <trkpt lat="43.74537" lon="4.05228">
        <ele>71.27</ele>
        <time>2016-04-10T07:10:09Z</time>
      </trkpt>
      <trkpt lat="43.74663" lon="4.05354">
        <ele>73.68</ele>
        <time>2016-04-10T07:10:15Z</time>
      </trkpt>
      <trkpt lat="43.74914" lon="4.05612">
        <ele>77.52</ele>
        <time>2016-04-10T07:10:28Z</time>
      </trkpt>
      <trkpt lat="43.74929" lon="4.05636">
        <ele>77.52</ele>
        <time>2016-04-10T07:10:29Z</time>
      </trkpt>
      <trkpt lat="43.74941" lon="4.05662">
        <ele>77.52</ele>
        <time>2016-04-10T07:10:30Z</time>
      </trkpt>
      <trkpt lat="43.74952" lon="4.0569">
        <ele>77.52</ele>
        <time>2016-04-10T07:10:31Z</time>
      </trkpt>
      <trkpt lat="43.74959" lon="4.0572">
        <ele>78</ele>
        <time>2016-04-10T07:10:32Z</time>
      </trkpt>
      <trkpt lat="43.74964" lon="4.05751">
        <ele>78</ele>
        <time>2016-04-10T07:10:33Z</time>
      </trkpt>
      <trkpt lat="43.74966" lon="4.05783">
        <ele>78</ele>
        <time>2016-04-10T07:10:34Z</time>
      </trkpt>
      <trkpt lat="43.74964" lon="4.05818">
        <ele>78</ele>
        <time>2016-04-10T07:10:35Z</time>
      </trkpt>
      <trkpt lat="43.74961" lon="4.05853">
        <ele>78.48</ele>
        <time>2016-04-10T07:10:36Z</time>
      </trkpt>
      <trkpt lat="43.74957" lon="4.05888">
        <ele>78.48</ele>
        <time>2016-04-10T07:10:37Z</time>
      </trkpt>
      <trkpt lat="43.74922" lon="4.06249">
        <ele>76.56</ele>
        <time>2016-04-10T07:10:48Z</time>
      </trkpt>
      <trkpt lat="43.74945" lon="4.06442">
        <ele>72.72</ele>
        <time>2016-04-10T07:10:54Z</time>
      </trkpt>
      <trkpt lat="43.75043" lon="4.06778">
        <ele>65.51</ele>
        <time>2016-04-10T07:11:05Z</time>
      </trkpt>
      <trkpt lat="43.75138" lon="4.07093">
        <ele>60.22</ele>
        <time>2016-04-10T07:11:16Z</time>
      </trkpt>
      <trkpt lat="43.75153" lon="4.07118">
        <ele>60.22</ele>
        <time>2016-04-10T07:11:17Z</time>
      </trkpt>
      <trkpt lat="43.7517" lon="4.07142">
        <ele>60.7</ele>
        <time>2016-04-10T07:11:18Z</time>
      </trkpt>
      <trkpt lat="43.75342" lon="4.07351">
        <ele>61.66</ele>
        <time>2016-04-10T07:11:28Z</time>
      </trkpt>
      <trkpt lat="43.7555" lon="4.07582">
        <ele>58.78</ele>
        <time>2016-04-10T07:11:41Z</time>
      </trkpt>
      <trkpt lat="43.75646" lon="4.07655">
        <ele>55.41</ele>
        <time>2016-04-10T07:11:48Z</time>
      </trkpt>
      <trkpt lat="43.75659" lon="4.07659">
        <ele>55.41</ele>
        <time>2016-04-10T07:11:49Z</time>
      </trkpt>
      <trkpt lat="43.75718" lon="4.07666">
        <ele>49.65</ele>
        <time>2016-04-10T07:11:54Z</time>
      </trkpt>
      <trkpt lat="43.75803" lon="4.07658">
        <ele>41.95</ele>
        <time>2016-04-10T07:12:01Z</time>
      </trkpt>
      <trkpt lat="43.75813" lon="4.07663">
        <ele>41.47</ele>
        <time>2016-04-10T07:12:02Z</time>
      </trkpt>
      <trkpt lat="43.75824" lon="4.0767">
        <ele>40.99</ele>
        <time>2016-04-10T07:12:03Z</time>
      </trkpt>
      <trkpt lat="43.75834" lon="4.07679">
        <ele>40.99</ele>
        <time>2016-04-10T07:12:04Z</time>
      </trkpt>
      <trkpt lat="43.75844" lon="4.07689">
        <ele>40.99</ele>
        <time>2016-04-10T07:12:05Z</time>
      </trkpt>
      <trkpt lat="43.75854" lon="4.07701">
        <ele>40.99</ele>
        <time>2016-04-10T07:12:06Z</time>
      </trkpt>
      <trkpt lat="43.75862" lon="4.07713">
        <ele>40.99</ele>
        <time>2016-04-10T07:12:07Z</time>
      </trkpt>
      <trkpt lat="43.7587" lon="4.07725">
        <ele>40.99</ele>
        <time>2016-04-10T07:12:08Z</time>
      </trkpt>
      <trkpt lat="43.75896" lon="4.07771">
        <ele>40.99</ele>
        <time>2016-04-10T07:12:14Z</time>
      </trkpt>
      <trkpt lat="43.75935" lon="4.07831">
        <ele>40.03</ele>
        <time>2016-04-10T07:12:20Z</time>
      </trkpt>
      <trkpt lat="43.75991" lon="4.07923">
        <ele>35.71</ele>
        <time>2016-04-10T07:12:29Z</time>
      </trkpt>
      <trkpt lat="43.76046" lon="4.08011">
        <ele>32.82</ele>
        <time>2016-04-10T07:12:37Z</time>
      </trkpt>
      <trkpt lat="43.76095" lon="4.08091">
        <ele>29.94</ele>
        <time>2016-04-10T07:12:44Z</time>
      </trkpt>
      <trkpt lat="43.76109" lon="4.0811">
        <ele>29.94</ele>
        <time>2016-04-10T07:12:46Z</time>
      </trkpt>
      <trkpt lat="43.76118" lon="4.08117">
        <ele>29.94</ele>
        <time>2016-04-10T07:12:47Z</time>
      </trkpt>
      <trkpt lat="43.76129" lon="4.08122">
        <ele>29.94</ele>
        <time>2016-04-10T07:12:48Z</time>
      </trkpt>
      <trkpt lat="43.76142" lon="4.08125">
        <ele>30.42</ele>
        <time>2016-04-10T07:12:49Z</time>
      </trkpt>
      <trkpt lat="43.76155" lon="4.08129">
        <ele>29.94</ele>
        <time>2016-04-10T07:12:50Z</time>
      </trkpt>
      <trkpt lat="43.7622" lon="4.08147">
        <ele>29.94</ele>
        <time>2016-04-10T07:12:55Z</time>
      </trkpt>
      <trkpt lat="43.76234" lon="4.08155">
        <ele>29.94</ele>
        <time>2016-04-10T07:12:56Z</time>
      </trkpt>
      <trkpt lat="43.76248" lon="4.08165">
        <ele>30.42</ele>
        <time>2016-04-10T07:12:57Z</time>
      </trkpt>
      <trkpt lat="43.76261" lon="4.08178">
        <ele>30.42</ele>
        <time>2016-04-10T07:12:58Z</time>
      </trkpt>
      <trkpt lat="43.76276" lon="4.0819">
        <ele>30.9</ele>
        <time>2016-04-10T07:12:59Z</time>
      </trkpt>
      <trkpt lat="43.76395" lon="4.08276">
        <ele>28.98</ele>
        <time>2016-04-10T07:13:06Z</time>
      </trkpt>
      <trkpt lat="43.76504" lon="4.08332">
        <ele>27.05</ele>
        <time>2016-04-10T07:13:14Z</time>
      </trkpt>
      <trkpt lat="43.76531" lon="4.08351">
        <ele>27.05</ele>
        <time>2016-04-10T07:13:17Z</time>
      </trkpt>
      <trkpt lat="43.76537" lon="4.0836">
        <ele>27.53</ele>
        <time>2016-04-10T07:13:18Z</time>
      </trkpt>
      <trkpt lat="43.76543" lon="4.08369">
        <ele>27.53</ele>
        <time>2016-04-10T07:13:19Z</time>
      </trkpt>
      <trkpt lat="43.7655" lon="4.08376">
        <ele>27.05</ele>
        <time>2016-04-10T07:13:20Z</time>
      </trkpt>
      <trkpt lat="43.76559" lon="4.08378">
        <ele>27.05</ele>
        <time>2016-04-10T07:13:21Z</time>
      </trkpt>
      <trkpt lat="43.76568" lon="4.08373">
        <ele>27.05</ele>
        <time>2016-04-10T07:13:22Z</time>
      </trkpt>
      <trkpt lat="43.76579" lon="4.08367">
        <ele>26.57</ele>
        <time>2016-04-10T07:13:23Z</time>
      </trkpt>
      <trkpt lat="43.76594" lon="4.0836">
        <ele>26.57</ele>
        <time>2016-04-10T07:13:24Z</time>
      </trkpt>
      <trkpt lat="43.7661" lon="4.08358">
        <ele>26.57</ele>
        <time>2016-04-10T07:13:25Z</time>
      </trkpt>
      <trkpt lat="43.76629" lon="4.08359">
        <ele>26.57</ele>
        <time>2016-04-10T07:13:26Z</time>
      </trkpt>
      <trkpt lat="43.7665" lon="4.08359">
        <ele>26.57</ele>
        <time>2016-04-10T07:13:27Z</time>
      </trkpt>
      <trkpt lat="43.76816" lon="4.08361">
        <ele>27.05</ele>
        <time>2016-04-10T07:13:35Z</time>
      </trkpt>
      <trkpt lat="43.76986" lon="4.08395">
        <ele>28.5</ele>
        <time>2016-04-10T07:13:44Z</time>
      </trkpt>
      <trkpt lat="43.77123" lon="4.08453">
        <ele>29.94</ele>
        <time>2016-04-10T07:13:51Z</time>
      </trkpt>
      <trkpt lat="43.77265" lon="4.08542">
        <ele>29.46</ele>
        <time>2016-04-10T07:13:58Z</time>
      </trkpt>
      <trkpt lat="43.77502" lon="4.08693">
        <ele>28.5</ele>
        <time>2016-04-10T07:14:10Z</time>
      </trkpt>
      <trkpt lat="43.77543" lon="4.08709">
        <ele>28.98</ele>
        <time>2016-04-10T07:14:12Z</time>
      </trkpt>
      <trkpt lat="43.77564" lon="4.08713">
        <ele>28.98</ele>
        <time>2016-04-10T07:14:13Z</time>
      </trkpt>
      <trkpt lat="43.77586" lon="4.08715">
        <ele>28.98</ele>
        <time>2016-04-10T07:14:14Z</time>
      </trkpt>
      <trkpt lat="43.77608" lon="4.08713">
        <ele>28.98</ele>
        <time>2016-04-10T07:14:15Z</time>
      </trkpt>
      <trkpt lat="43.77631" lon="4.08709">
        <ele>28.98</ele>
        <time>2016-04-10T07:14:16Z</time>
      </trkpt>
      <trkpt lat="43.77653" lon="4.08701">
        <ele>29.46</ele>
        <time>2016-04-10T07:14:17Z</time>
      </trkpt>
      <trkpt lat="43.77673" lon="4.08691">
        <ele>28.5</ele>
        <time>2016-04-10T07:14:18Z</time>
      </trkpt>
      <trkpt lat="43.77694" lon="4.0868">
        <ele>28.02</ele>
        <time>2016-04-10T07:14:19Z</time>
      </trkpt>
      <trkpt lat="43.77806" lon="4.08642">
        <ele>26.09</ele>
        <time>2016-04-10T07:14:25Z</time>
      </trkpt>
      <trkpt lat="43.77872" lon="4.0865">
        <ele>26.09</ele>
        <time>2016-04-10T07:14:30Z</time>
      </trkpt>
      <trkpt lat="43.7788" lon="4.08655">
        <ele>26.09</ele>
        <time>2016-04-10T07:14:31Z</time>
      </trkpt>
      <trkpt lat="43.77888" lon="4.08662">
        <ele>26.09</ele>
        <time>2016-04-10T07:14:32Z</time>
      </trkpt>
      <trkpt lat="43.77895" lon="4.08667">
        <ele>26.57</ele>
        <time>2016-04-10T07:14:33Z</time>
      </trkpt>
      <trkpt lat="43.77902" lon="4.08668">
        <ele>26.57</ele>
        <time>2016-04-10T07:14:34Z</time>
      </trkpt>
      <trkpt lat="43.7791" lon="4.08663">
        <ele>26.57</ele>
        <time>2016-04-10T07:14:35Z</time>
      </trkpt>
      <trkpt lat="43.77919" lon="4.08658">
        <ele>26.57</ele>
        <time>2016-04-10T07:14:36Z</time>
      </trkpt>
      <trkpt lat="43.77931" lon="4.08655">
        <ele>26.57</ele>
        <time>2016-04-10T07:14:37Z</time>
      </trkpt>
      <trkpt lat="43.77944" lon="4.08654">
        <ele>26.57</ele>
        <time>2016-04-10T07:14:38Z</time>
      </trkpt>
      <trkpt lat="43.77986" lon="4.08657">
        <ele>26.57</ele>
        <time>2016-04-10T07:14:41Z</time>
      </trkpt>
      <trkpt lat="43.77999" lon="4.0866">
        <ele>26.57</ele>
        <time>2016-04-10T07:14:42Z</time>
      </trkpt>
      <trkpt lat="43.78067" lon="4.08681">
        <ele>27.05</ele>
        <time>2016-04-10T07:14:47Z</time>
      </trkpt>
      <trkpt lat="43.7808" lon="4.08681">
        <ele>27.05</ele>
        <time>2016-04-10T07:14:48Z</time>
      </trkpt>
      <trkpt lat="43.78093" lon="4.08678">
        <ele>27.05</ele>
        <time>2016-04-10T07:14:49Z</time>
      </trkpt>
      <trkpt lat="43.78158" lon="4.08667">
        <ele>27.05</ele>
        <time>2016-04-10T07:14:56Z</time>
      </trkpt>
      <trkpt lat="43.78165" lon="4.08668">
        <ele>27.05</ele>
        <time>2016-04-10T07:14:57Z</time>
      </trkpt>
      <trkpt lat="43.78171" lon="4.08671">
        <ele>26.57</ele>
        <time>2016-04-10T07:14:58Z</time>
      </trkpt>
      <trkpt lat="43.78176" lon="4.08676">
        <ele>26.57</ele>
        <time>2016-04-10T07:14:59Z</time>
      </trkpt>
      <trkpt lat="43.78179" lon="4.08683">
        <ele>26.57</ele>
        <time>2016-04-10T07:15:00Z</time>
      </trkpt>
      <trkpt lat="43.78182" lon="4.08692">
        <ele>26.57</ele>
        <time>2016-04-10T07:15:01Z</time>
      </trkpt>
      <trkpt lat="43.78187" lon="4.08701">
        <ele>26.57</ele>
        <time>2016-04-10T07:15:02Z</time>
      </trkpt>
      <trkpt lat="43.78194" lon="4.08709">
        <ele>26.57</ele>
        <time>2016-04-10T07:15:03Z</time>
      </trkpt>
      <trkpt lat="43.78202" lon="4.08715">
        <ele>27.05</ele>
        <time>2016-04-10T07:15:04Z</time>
      </trkpt>
      <trkpt lat="43.78211" lon="4.08717">
        <ele>27.05</ele>
        <time>2016-04-10T07:15:05Z</time>
      </trkpt>
      <trkpt lat="43.78218" lon="4.08717">
        <ele>27.05</ele>
        <time>2016-04-10T07:15:06Z</time>
      </trkpt>
      <trkpt lat="43.78223" lon="4.08717">
        <ele>26.57</ele>
        <time>2016-04-10T07:15:07Z</time>
      </trkpt>
      <trkpt lat="43.78225" lon="4.08717">
        <ele>26.09</ele>
        <time>2016-04-10T07:15:08Z</time>
      </trkpt>
      <trkpt lat="43.78226" lon="4.08717">
        <ele>26.09</ele>
        <time>2016-04-10T07:15:11Z</time>
      </trkpt>
      <trkpt lat="43.78229" lon="4.08719">
        <ele>26.09</ele>
        <time>2016-04-10T07:15:12Z</time>
      </trkpt>
      <trkpt lat="43.78244" lon="4.08728">
        <ele>25.13</ele>
        <time>2016-04-10T07:15:14Z</time>
      </trkpt>
      <trkpt lat="43.78256" lon="4.08727">
        <ele>25.13</ele>
        <time>2016-04-10T07:15:15Z</time>
      </trkpt>
      <trkpt lat="43.78269" lon="4.0872">
        <ele>25.61</ele>
        <time>2016-04-10T07:15:16Z</time>
      </trkpt>
      <trkpt lat="43.78283" lon="4.08713">
        <ele>25.61</ele>
        <time>2016-04-10T07:15:17Z</time>
      </trkpt>
      <trkpt lat="43.78296" lon="4.08706">
        <ele>26.09</ele>
        <time>2016-04-10T07:15:18Z</time>
      </trkpt>
      <trkpt lat="43.78307" lon="4.08698">
        <ele>26.09</ele>
        <time>2016-04-10T07:15:19Z</time>
      </trkpt>
      <trkpt lat="43.78348" lon="4.08666">
        <ele>27.05</ele>
        <time>2016-04-10T07:15:23Z</time>
      </trkpt>
      <trkpt lat="43.78358" lon="4.08655">
        <ele>27.05</ele>
        <time>2016-04-10T07:15:24Z</time>
      </trkpt>
      <trkpt lat="43.78475" lon="4.08524">
        <ele>28.02</ele>
        <time>2016-04-10T07:15:37Z</time>
      </trkpt>
      <trkpt lat="43.78527" lon="4.08471">
        <ele>28.5</ele>
        <time>2016-04-10T07:15:43Z</time>
      </trkpt>
      <trkpt lat="43.78536" lon="4.08465">
        <ele>28.5</ele>
        <time>2016-04-10T07:15:44Z</time>
      </trkpt>
      <trkpt lat="43.78545" lon="4.08459">
        <ele>28.5</ele>
        <time>2016-04-10T07:15:45Z</time>
      </trkpt>
      <trkpt lat="43.78553" lon="4.0845">
        <ele>28.5</ele>
        <time>2016-04-10T07:15:46Z</time>
      </trkpt>
      <trkpt lat="43.78561" lon="4.08438">
        <ele>28.5</ele>
        <time>2016-04-10T07:15:47Z</time>
      </trkpt>
      <trkpt lat="43.78571" lon="4.08427">
        <ele>28.5</ele>
        <time>2016-04-10T07:15:48Z</time>
      </trkpt>
      <trkpt lat="43.78583" lon="4.0842">
        <ele>28.5</ele>
        <time>2016-04-10T07:15:49Z</time>
      </trkpt>
      <trkpt lat="43.78596" lon="4.08413">
        <ele>28.98</ele>
        <time>2016-04-10T07:15:50Z</time>
      </trkpt>
      <trkpt lat="43.78668" lon="4.08381">
        <ele>29.46</ele>
        <time>2016-04-10T07:15:58Z</time>
      </trkpt>
      <trkpt lat="43.7873" lon="4.08335">
        <ele>29.94</ele>
        <time>2016-04-10T07:16:06Z</time>
      </trkpt>
      <trkpt lat="43.78858" lon="4.08231">
        <ele>32.82</ele>
        <time>2016-04-10T07:16:19Z</time>
      </trkpt>
      <trkpt lat="43.78867" lon="4.08227">
        <ele>33.3</ele>
        <time>2016-04-10T07:16:20Z</time>
      </trkpt>
      <trkpt lat="43.78876" lon="4.08225">
        <ele>33.78</ele>
        <time>2016-04-10T07:16:21Z</time>
      </trkpt>
      <trkpt lat="43.78885" lon="4.08226">
        <ele>34.26</ele>
        <time>2016-04-10T07:16:22Z</time>
      </trkpt>
      <trkpt lat="43.78906" lon="4.0823">
        <ele>35.23</ele>
        <time>2016-04-10T07:16:24Z</time>
      </trkpt>
      <trkpt lat="43.78929" lon="4.08232">
        <ele>35.71</ele>
        <time>2016-04-10T07:16:26Z</time>
      </trkpt>
      <trkpt lat="43.78941" lon="4.08237">
        <ele>36.19</ele>
        <time>2016-04-10T07:16:27Z</time>
      </trkpt>
      <trkpt lat="43.78953" lon="4.08245">
        <ele>36.19</ele>
        <time>2016-04-10T07:16:28Z</time>
      </trkpt>
      <trkpt lat="43.79055" lon="4.08318">
        <ele>36.19</ele>
        <time>2016-04-10T07:16:37Z</time>
      </trkpt>
      <trkpt lat="43.79228" lon="4.08447">
        <ele>34.26</ele>
        <time>2016-04-10T07:16:48Z</time>
      </trkpt>
      <trkpt lat="43.79319" lon="4.0853">
        <ele>36.19</ele>
        <time>2016-04-10T07:16:56Z</time>
      </trkpt>
      <trkpt lat="43.79326" lon="4.08541">
        <ele>36.67</ele>
        <time>2016-04-10T07:16:57Z</time>
      </trkpt>
      <trkpt lat="43.7933" lon="4.08551">
        <ele>36.67</ele>
        <time>2016-04-10T07:16:58Z</time>
      </trkpt>
      <trkpt lat="43.79332" lon="4.08562">
        <ele>36.67</ele>
        <time>2016-04-10T07:16:59Z</time>
      </trkpt>
      <trkpt lat="43.79333" lon="4.08572">
        <ele>36.67</ele>
        <time>2016-04-10T07:17:00Z</time>
      </trkpt>
      <trkpt lat="43.79335" lon="4.08582">
        <ele>37.15</ele>
        <time>2016-04-10T07:17:01Z</time>
      </trkpt>
      <trkpt lat="43.7934" lon="4.0859">
        <ele>37.15</ele>
        <time>2016-04-10T07:17:02Z</time>
      </trkpt>
      <trkpt lat="43.79347" lon="4.08596">
        <ele>37.63</ele>
        <time>2016-04-10T07:17:03Z</time>
      </trkpt>
      <trkpt lat="43.79355" lon="4.08594">
        <ele>37.63</ele>
        <time>2016-04-10T07:17:04Z</time>
      </trkpt>
      <trkpt lat="43.79363" lon="4.0859">
        <ele>37.63</ele>
        <time>2016-04-10T07:17:05Z</time>
      </trkpt>
      <trkpt lat="43.79372" lon="4.08585">
        <ele>38.11</ele>
        <time>2016-04-10T07:17:06Z</time>
      </trkpt>
      <trkpt lat="43.79384" lon="4.08582">
        <ele>38.59</ele>
        <time>2016-04-10T07:17:07Z</time>
      </trkpt>
      <trkpt lat="43.79399" lon="4.08583">
        <ele>39.55</ele>
        <time>2016-04-10T07:17:08Z</time>
      </trkpt>
      <trkpt lat="43.79414" lon="4.08585">
        <ele>39.55</ele>
        <time>2016-04-10T07:17:09Z</time>
      </trkpt>
      <trkpt lat="43.79531" lon="4.08595">
        <ele>43.4</ele>
        <time>2016-04-10T07:17:15Z</time>
      </trkpt>
      <trkpt lat="43.79669" lon="4.08601">
        <ele>44.36</ele>
        <time>2016-04-10T07:17:24Z</time>
      </trkpt>
      <trkpt lat="43.79783" lon="4.08601">
        <ele>44.36</ele>
        <time>2016-04-10T07:17:29Z</time>
      </trkpt>
      <trkpt lat="43.80008" lon="4.08613">
        <ele>47.24</ele>
        <time>2016-04-10T07:17:37Z</time>
      </trkpt>
      <trkpt lat="43.80135" lon="4.08629">
        <ele>49.65</ele>
        <time>2016-04-10T07:17:43Z</time>
      </trkpt>
      <trkpt lat="43.80155" lon="4.08643">
        <ele>50.13</ele>
        <time>2016-04-10T07:17:44Z</time>
      </trkpt>
      <trkpt lat="43.80175" lon="4.08659">
        <ele>50.61</ele>
        <time>2016-04-10T07:17:45Z</time>
      </trkpt>
      <trkpt lat="43.80305" lon="4.08737">
        <ele>55.89</ele>
        <time>2016-04-10T07:17:51Z</time>
      </trkpt>
      <trkpt lat="43.80337" lon="4.08769">
        <ele>56.37</ele>
        <time>2016-04-10T07:17:53Z</time>
      </trkpt>
      <trkpt lat="43.80351" lon="4.08794">
        <ele>55.41</ele>
        <time>2016-04-10T07:17:54Z</time>
      </trkpt>
      <trkpt lat="43.8048" lon="4.09007">
        <ele>57.34</ele>
        <time>2016-04-10T07:18:02Z</time>
      </trkpt>
      <trkpt lat="43.8061" lon="4.09227">
        <ele>55.41</ele>
        <time>2016-04-10T07:18:11Z</time>
      </trkpt>
      <trkpt lat="43.8064" lon="4.09309">
        <ele>54.45</ele>
        <time>2016-04-10T07:18:14Z</time>
      </trkpt>
      <trkpt lat="43.80645" lon="4.09335">
        <ele>53.97</ele>
        <time>2016-04-10T07:18:15Z</time>
      </trkpt>
      <trkpt lat="43.80645" lon="4.0936">
        <ele>53.49</ele>
        <time>2016-04-10T07:18:16Z</time>
      </trkpt>
      <trkpt lat="43.80648" lon="4.09428">
        <ele>53.49</ele>
        <time>2016-04-10T07:18:20Z</time>
      </trkpt>
      <trkpt lat="43.80646" lon="4.09441">
        <ele>53.97</ele>
        <time>2016-04-10T07:18:21Z</time>
      </trkpt>
      <trkpt lat="43.80644" lon="4.09453">
        <ele>53.97</ele>
        <time>2016-04-10T07:18:22Z</time>
      </trkpt>
      <trkpt lat="43.80646" lon="4.09465">
        <ele>53.97</ele>
        <time>2016-04-10T07:18:23Z</time>
      </trkpt>
      <trkpt lat="43.80651" lon="4.09473">
        <ele>53.97</ele>
        <time>2016-04-10T07:18:24Z</time>
      </trkpt>
      <trkpt lat="43.80659" lon="4.09477">
        <ele>53.97</ele>
        <time>2016-04-10T07:18:25Z</time>
      </trkpt>
      <trkpt lat="43.80669" lon="4.09475">
        <ele>53.97</ele>
        <time>2016-04-10T07:18:26Z</time>
      </trkpt>
      <trkpt lat="43.80679" lon="4.09472">
        <ele>53.97</ele>
        <time>2016-04-10T07:18:27Z</time>
      </trkpt>
      <trkpt lat="43.80693" lon="4.09469">
        <ele>53.49</ele>
        <time>2016-04-10T07:18:28Z</time>
      </trkpt>
      <trkpt lat="43.80708" lon="4.09472">
        <ele>53.49</ele>
        <time>2016-04-10T07:18:29Z</time>
      </trkpt>
      <trkpt lat="43.80724" lon="4.09475">
        <ele>53.49</ele>
        <time>2016-04-10T07:18:30Z</time>
      </trkpt>
      <trkpt lat="43.80741" lon="4.09477">
        <ele>53.49</ele>
        <time>2016-04-10T07:18:31Z</time>
      </trkpt>
      <trkpt lat="43.80763" lon="4.09479">
        <ele>52.53</ele>
        <time>2016-04-10T07:18:32Z</time>
      </trkpt>
      <trkpt lat="43.80787" lon="4.09474">
        <ele>51.57</ele>
        <time>2016-04-10T07:18:33Z</time>
      </trkpt>
      <trkpt lat="43.80809" lon="4.09465">
        <ele>50.13</ele>
        <time>2016-04-10T07:18:34Z</time>
      </trkpt>
      <trkpt lat="43.80833" lon="4.09454">
        <ele>49.16</ele>
        <time>2016-04-10T07:18:35Z</time>
      </trkpt>
      <trkpt lat="43.80903" lon="4.09429">
        <ele>46.76</ele>
        <time>2016-04-10T07:18:38Z</time>
      </trkpt>
      <trkpt lat="43.80928" lon="4.09425">
        <ele>46.28</ele>
        <time>2016-04-10T07:18:39Z</time>
      </trkpt>
      <trkpt lat="43.81084" lon="4.09418">
        <ele>41.47</ele>
        <time>2016-04-10T07:18:46Z</time>
      </trkpt>
      <trkpt lat="43.81191" lon="4.09411">
        <ele>42.44</ele>
        <time>2016-04-10T07:18:52Z</time>
      </trkpt>
      <trkpt lat="43.81206" lon="4.09415">
        <ele>42.92</ele>
        <time>2016-04-10T07:18:53Z</time>
      </trkpt>
      <trkpt lat="43.81222" lon="4.09422">
        <ele>42.92</ele>
        <time>2016-04-10T07:18:54Z</time>
      </trkpt>
      <trkpt lat="43.8132" lon="4.09469">
        <ele>42.44</ele>
        <time>2016-04-10T07:18:59Z</time>
      </trkpt>
      <trkpt lat="43.81341" lon="4.09484">
        <ele>43.4</ele>
        <time>2016-04-10T07:19:00Z</time>
      </trkpt>
      <trkpt lat="43.81418" lon="4.09541">
        <ele>44.84</ele>
        <time>2016-04-10T07:19:04Z</time>
      </trkpt>
      <trkpt lat="43.81439" lon="4.09547">
        <ele>45.32</ele>
        <time>2016-04-10T07:19:05Z</time>
      </trkpt>
      <trkpt lat="43.81461" lon="4.09551">
        <ele>45.8</ele>
        <time>2016-04-10T07:19:06Z</time>
      </trkpt>
      <trkpt lat="43.81484" lon="4.09553">
        <ele>46.28</ele>
        <time>2016-04-10T07:19:07Z</time>
      </trkpt>
      <trkpt lat="43.81507" lon="4.09554">
        <ele>46.76</ele>
        <time>2016-04-10T07:19:08Z</time>
      </trkpt>
      <trkpt lat="43.81699" lon="4.09561">
        <ele>50.61</ele>
        <time>2016-04-10T07:19:17Z</time>
      </trkpt>
      <trkpt lat="43.81821" lon="4.09572">
        <ele>53.01</ele>
        <time>2016-04-10T07:19:23Z</time>
      </trkpt>
      <trkpt lat="43.81916" lon="4.09575">
        <ele>55.41</ele>
        <time>2016-04-10T07:19:27Z</time>
      </trkpt>
      <trkpt lat="43.8194" lon="4.0957">
        <ele>56.37</ele>
        <time>2016-04-10T07:19:28Z</time>
      </trkpt>
      <trkpt lat="43.81991" lon="4.09559">
        <ele>57.82</ele>
        <time>2016-04-10T07:19:30Z</time>
      </trkpt>
      <trkpt lat="43.82018" lon="4.09558">
        <ele>59.26</ele>
        <time>2016-04-10T07:19:31Z</time>
      </trkpt>
      <trkpt lat="43.82213" lon="4.09571">
        <ele>70.31</ele>
        <time>2016-04-10T07:19:39Z</time>
      </trkpt>
      <trkpt lat="43.82343" lon="4.09577">
        <ele>78</ele>
        <time>2016-04-10T07:19:45Z</time>
      </trkpt>
      <trkpt lat="43.82366" lon="4.09569">
        <ele>78.97</ele>
        <time>2016-04-10T07:19:46Z</time>
      </trkpt>
      <trkpt lat="43.82463" lon="4.09546">
        <ele>81.85</ele>
        <time>2016-04-10T07:19:50Z</time>
      </trkpt>
      <trkpt lat="43.82718" lon="4.09535">
        <ele>73.2</ele>
        <time>2016-04-10T07:20:00Z</time>
      </trkpt>
      <trkpt lat="43.82828" lon="4.09528">
        <ele>70.31</ele>
        <time>2016-04-10T07:20:06Z</time>
      </trkpt>
      <trkpt lat="43.8284" lon="4.0953">
        <ele>69.83</ele>
        <time>2016-04-10T07:20:07Z</time>
      </trkpt>
      <trkpt lat="43.8285" lon="4.09533">
        <ele>69.83</ele>
        <time>2016-04-10T07:20:08Z</time>
      </trkpt>
      <trkpt lat="43.82869" lon="4.09541">
        <ele>69.83</ele>
        <time>2016-04-10T07:20:10Z</time>
      </trkpt>
      <trkpt lat="43.82878" lon="4.09537">
        <ele>69.83</ele>
        <time>2016-04-10T07:20:11Z</time>
      </trkpt>
      <trkpt lat="43.82887" lon="4.09528">
        <ele>69.35</ele>
        <time>2016-04-10T07:20:12Z</time>
      </trkpt>
      <trkpt lat="43.82898" lon="4.09518">
        <ele>68.87</ele>
        <time>2016-04-10T07:20:13Z</time>
      </trkpt>
      <trkpt lat="43.82914" lon="4.09511">
        <ele>68.87</ele>
        <time>2016-04-10T07:20:14Z</time>
      </trkpt>
      <trkpt lat="43.82935" lon="4.09506">
        <ele>68.39</ele>
        <time>2016-04-10T07:20:15Z</time>
      </trkpt>
      <trkpt lat="43.82957" lon="4.09501">
        <ele>68.39</ele>
        <time>2016-04-10T07:20:16Z</time>
      </trkpt>
      <trkpt lat="43.8298" lon="4.09497">
        <ele>67.91</ele>
        <time>2016-04-10T07:20:17Z</time>
      </trkpt>
      <trkpt lat="43.8311" lon="4.09466">
        <ele>68.39</ele>
        <time>2016-04-10T07:20:24Z</time>
      </trkpt>
      <trkpt lat="43.83149" lon="4.09454">
        <ele>66.95</ele>
        <time>2016-04-10T07:20:27Z</time>
      </trkpt>
      <trkpt lat="43.83163" lon="4.09454">
        <ele>66.95</ele>
        <time>2016-04-10T07:20:28Z</time>
      </trkpt>
      <trkpt lat="43.83177" lon="4.09456">
        <ele>66.47</ele>
        <time>2016-04-10T07:20:29Z</time>
      </trkpt>
      <trkpt lat="43.83315" lon="4.095">
        <ele>65.03</ele>
        <time>2016-04-10T07:20:37Z</time>
      </trkpt>
      <trkpt lat="43.83463" lon="4.0959">
        <ele>60.22</ele>
        <time>2016-04-10T07:20:45Z</time>
      </trkpt>
      <trkpt lat="43.83593" lon="4.09651">
        <ele>58.3</ele>
        <time>2016-04-10T07:20:51Z</time>
      </trkpt>
      <trkpt lat="43.83613" lon="4.09672">
        <ele>58.3</ele>
        <time>2016-04-10T07:20:52Z</time>
      </trkpt>
      <trkpt lat="43.83631" lon="4.09696">
        <ele>58.3</ele>
        <time>2016-04-10T07:20:53Z</time>
      </trkpt>
      <trkpt lat="43.83647" lon="4.09723">
        <ele>58.3</ele>
        <time>2016-04-10T07:20:54Z</time>
      </trkpt>
      <trkpt lat="43.83662" lon="4.09749">
        <ele>58.3</ele>
        <time>2016-04-10T07:20:55Z</time>
      </trkpt>
      <trkpt lat="43.83675" lon="4.09775">
        <ele>58.78</ele>
        <time>2016-04-10T07:20:56Z</time>
      </trkpt>
      <trkpt lat="43.83702" lon="4.09824">
        <ele>59.26</ele>
        <time>2016-04-10T07:20:58Z</time>
      </trkpt>
      <trkpt lat="43.83718" lon="4.09845">
        <ele>59.74</ele>
        <time>2016-04-10T07:20:59Z</time>
      </trkpt>
      <trkpt lat="43.83735" lon="4.09865">
        <ele>59.74</ele>
        <time>2016-04-10T07:21:00Z</time>
      </trkpt>
      <trkpt lat="43.83754" lon="4.09882">
        <ele>59.74</ele>
        <time>2016-04-10T07:21:01Z</time>
      </trkpt>
      <trkpt lat="43.83774" lon="4.09896">
        <ele>60.22</ele>
        <time>2016-04-10T07:21:02Z</time>
      </trkpt>
      <trkpt lat="43.83797" lon="4.09908">
        <ele>60.22</ele>
        <time>2016-04-10T07:21:03Z</time>
      </trkpt>
      <trkpt lat="43.83821" lon="4.09916">
        <ele>60.22</ele>
        <time>2016-04-10T07:21:04Z</time>
      </trkpt>
      <trkpt lat="43.83844" lon="4.09923">
        <ele>60.7</ele>
        <time>2016-04-10T07:21:05Z</time>
      </trkpt>
      <trkpt lat="43.83932" lon="4.09934">
        <ele>61.18</ele>
        <time>2016-04-10T07:21:09Z</time>
      </trkpt>
      <trkpt lat="43.83954" lon="4.09926">
        <ele>61.18</ele>
        <time>2016-04-10T07:21:10Z</time>
      </trkpt>
      <trkpt lat="43.83974" lon="4.09914">
        <ele>61.18</ele>
        <time>2016-04-10T07:21:11Z</time>
      </trkpt>
      <trkpt lat="43.83996" lon="4.099">
        <ele>61.66</ele>
        <time>2016-04-10T07:21:12Z</time>
      </trkpt>
      <trkpt lat="43.84019" lon="4.09886">
        <ele>61.66</ele>
        <time>2016-04-10T07:21:13Z</time>
      </trkpt>
      <trkpt lat="43.84044" lon="4.09876">
        <ele>61.66</ele>
        <time>2016-04-10T07:21:14Z</time>
      </trkpt>
      <trkpt lat="43.84068" lon="4.09869">
        <ele>62.14</ele>
        <time>2016-04-10T07:21:15Z</time>
      </trkpt>
      <trkpt lat="43.84092" lon="4.09863">
        <ele>62.62</ele>
        <time>2016-04-10T07:21:16Z</time>
      </trkpt>
      <trkpt lat="43.84261" lon="4.09848">
        <ele>65.03</ele>
        <time>2016-04-10T07:21:23Z</time>
      </trkpt>
      <trkpt lat="43.84286" lon="4.09856">
        <ele>65.51</ele>
        <time>2016-04-10T07:21:24Z</time>
      </trkpt>
      <trkpt lat="43.8436" lon="4.09879">
        <ele>66.95</ele>
        <time>2016-04-10T07:21:27Z</time>
      </trkpt>
      <trkpt lat="43.84385" lon="4.09882">
        <ele>67.43</ele>
        <time>2016-04-10T07:21:28Z</time>
      </trkpt>
      <trkpt lat="43.84498" lon="4.09882">
        <ele>69.83</ele>
        <time>2016-04-10T07:21:33Z</time>
      </trkpt>
      <trkpt lat="43.84518" lon="4.09874">
        <ele>70.79</ele>
        <time>2016-04-10T07:21:34Z</time>
      </trkpt>
      <trkpt lat="43.8454" lon="4.09862">
        <ele>71.27</ele>
        <time>2016-04-10T07:21:35Z</time>
      </trkpt>
      <trkpt lat="43.84692" lon="4.09794">
        <ele>75.12</ele>
        <time>2016-04-10T07:21:41Z</time>
      </trkpt>
      <trkpt lat="43.84854" lon="4.09702">
        <ele>78.97</ele>
        <time>2016-04-10T07:21:48Z</time>
      </trkpt>
      <trkpt lat="43.84875" lon="4.0968">
        <ele>79.45</ele>
        <time>2016-04-10T07:21:49Z</time>
      </trkpt>
      <trkpt lat="43.84984" lon="4.09574">
        <ele>81.37</ele>
        <time>2016-04-10T07:21:54Z</time>
      </trkpt>
      <trkpt lat="43.85011" lon="4.09563">
        <ele>81.85</ele>
        <time>2016-04-10T07:21:55Z</time>
      </trkpt>
      <trkpt lat="43.85038" lon="4.09556">
        <ele>82.33</ele>
        <time>2016-04-10T07:21:56Z</time>
      </trkpt>
      <trkpt lat="43.85067" lon="4.09554">
        <ele>82.81</ele>
        <time>2016-04-10T07:21:57Z</time>
      </trkpt>
      <trkpt lat="43.85098" lon="4.09559">
        <ele>83.29</ele>
        <time>2016-04-10T07:21:58Z</time>
      </trkpt>
      <trkpt lat="43.85128" lon="4.09565">
        <ele>83.77</ele>
        <time>2016-04-10T07:21:59Z</time>
      </trkpt>
      <trkpt lat="43.85157" lon="4.09573">
        <ele>83.77</ele>
        <time>2016-04-10T07:22:00Z</time>
      </trkpt>
      <trkpt lat="43.85361" lon="4.09635">
        <ele>88.1</ele>
        <time>2016-04-10T07:22:08Z</time>
      </trkpt>
      <trkpt lat="43.85485" lon="4.09705">
        <ele>91.46</ele>
        <time>2016-04-10T07:22:14Z</time>
      </trkpt>
      <trkpt lat="43.85507" lon="4.0971">
        <ele>91.94</ele>
        <time>2016-04-10T07:22:15Z</time>
      </trkpt>
      <trkpt lat="43.8553" lon="4.09712">
        <ele>92.42</ele>
        <time>2016-04-10T07:22:16Z</time>
      </trkpt>
      <trkpt lat="43.85556" lon="4.09711">
        <ele>93.87</ele>
        <time>2016-04-10T07:22:17Z</time>
      </trkpt>
      <trkpt lat="43.85584" lon="4.09708">
        <ele>94.83</ele>
        <time>2016-04-10T07:22:18Z</time>
      </trkpt>
      <trkpt lat="43.85851" lon="4.09713">
        <ele>105.4</ele>
        <time>2016-04-10T07:22:28Z</time>
      </trkpt>
      <trkpt lat="43.85877" lon="4.09724">
        <ele>105.88</ele>
        <time>2016-04-10T07:22:29Z</time>
      </trkpt>
      <trkpt lat="43.86129" lon="4.09835">
        <ele>106.36</ele>
        <time>2016-04-10T07:22:39Z</time>
      </trkpt>
      <trkpt lat="43.86362" lon="4.09904">
        <ele>107.81</ele>
        <time>2016-04-10T07:22:48Z</time>
      </trkpt>
      <trkpt lat="43.86541" lon="4.09932">
        <ele>110.21</ele>
        <time>2016-04-10T07:22:55Z</time>
      </trkpt>
      <trkpt lat="43.86568" lon="4.09929">
        <ele>110.69</ele>
        <time>2016-04-10T07:22:56Z</time>
      </trkpt>
      <trkpt lat="43.86594" lon="4.09922">
        <ele>111.17</ele>
        <time>2016-04-10T07:22:57Z</time>
      </trkpt>
      <trkpt lat="43.86769" lon="4.09898">
        <ele>113.09</ele>
        <time>2016-04-10T07:23:04Z</time>
      </trkpt>
      <trkpt lat="43.86941" lon="4.09922">
        <ele>115.98</ele>
        <time>2016-04-10T07:23:12Z</time>
      </trkpt>
      <trkpt lat="43.86989" lon="4.09933">
        <ele>118.86</ele>
        <time>2016-04-10T07:23:16Z</time>
      </trkpt>
      <trkpt lat="43.86994" lon="4.09936">
        <ele>119.34</ele>
        <time>2016-04-10T07:23:17Z</time>
      </trkpt>
      <trkpt lat="43.86996" lon="4.09938">
        <ele>119.82</ele>
        <time>2016-04-10T07:23:18Z</time>
      </trkpt>
      <trkpt lat="43.86999" lon="4.09942">
        <ele>119.82</ele>
        <time>2016-04-10T07:23:19Z</time>
      </trkpt>
      <trkpt lat="43.87001" lon="4.09948">
        <ele>120.3</ele>
        <time>2016-04-10T07:23:20Z</time>
      </trkpt>
      <trkpt lat="43.87005" lon="4.09957">
        <ele>120.3</ele>
        <time>2016-04-10T07:23:21Z</time>
      </trkpt>
      <trkpt lat="43.8701" lon="4.09968">
        <ele>120.78</ele>
        <time>2016-04-10T07:23:22Z</time>
      </trkpt>
      <trkpt lat="43.87017" lon="4.09976">
        <ele>120.78</ele>
        <time>2016-04-10T07:23:23Z</time>
      </trkpt>
      <trkpt lat="43.87027" lon="4.09979">
        <ele>120.78</ele>
        <time>2016-04-10T07:23:24Z</time>
      </trkpt>
      <trkpt lat="43.87037" lon="4.09975">
        <ele>121.26</ele>
        <time>2016-04-10T07:23:25Z</time>
      </trkpt>
      <trkpt lat="43.87049" lon="4.09964">
        <ele>121.74</ele>
        <time>2016-04-10T07:23:26Z</time>
      </trkpt>
      <trkpt lat="43.87064" lon="4.09953">
        <ele>121.74</ele>
        <time>2016-04-10T07:23:27Z</time>
      </trkpt>
      <trkpt lat="43.87081" lon="4.09942">
        <ele>121.74</ele>
        <time>2016-04-10T07:23:28Z</time>
      </trkpt>
      <trkpt lat="43.87099" lon="4.09932">
        <ele>121.74</ele>
        <time>2016-04-10T07:23:29Z</time>
      </trkpt>
      <trkpt lat="43.87232" lon="4.09824">
        <ele>117.42</ele>
        <time>2016-04-10T07:23:37Z</time>
      </trkpt>
      <trkpt lat="43.87244" lon="4.09805">
        <ele>115.98</ele>
        <time>2016-04-10T07:23:38Z</time>
      </trkpt>
      <trkpt lat="43.87251" lon="4.09782">
        <ele>115.01</ele>
        <time>2016-04-10T07:23:39Z</time>
      </trkpt>
      <trkpt lat="43.87255" lon="4.09757">
        <ele>114.05</ele>
        <time>2016-04-10T07:23:40Z</time>
      </trkpt>
      <trkpt lat="43.87256" lon="4.09734">
        <ele>113.57</ele>
        <time>2016-04-10T07:23:41Z</time>
      </trkpt>
      <trkpt lat="43.87259" lon="4.09712">
        <ele>112.61</ele>
        <time>2016-04-10T07:23:42Z</time>
      </trkpt>
      <trkpt lat="43.87265" lon="4.09693">
        <ele>111.65</ele>
        <time>2016-04-10T07:23:43Z</time>
      </trkpt>
      <trkpt lat="43.87276" lon="4.09675">
        <ele>110.21</ele>
        <time>2016-04-10T07:23:44Z</time>
      </trkpt>
      <trkpt lat="43.87294" lon="4.09664">
        <ele>109.73</ele>
        <time>2016-04-10T07:23:45Z</time>
      </trkpt>
      <trkpt lat="43.87314" lon="4.09656">
        <ele>109.25</ele>
        <time>2016-04-10T07:23:46Z</time>
      </trkpt>
      <trkpt lat="43.87336" lon="4.09647">
        <ele>108.29</ele>
        <time>2016-04-10T07:23:47Z</time>
      </trkpt>
      <trkpt lat="43.87357" lon="4.09636">
        <ele>106.84</ele>
        <time>2016-04-10T07:23:48Z</time>
      </trkpt>
      <trkpt lat="43.87377" lon="4.09621">
        <ele>106.36</ele>
        <time>2016-04-10T07:23:49Z</time>
      </trkpt>
      <trkpt lat="43.87396" lon="4.09606">
        <ele>104.92</ele>
        <time>2016-04-10T07:23:50Z</time>
      </trkpt>
      <trkpt lat="43.8753" lon="4.09548">
        <ele>98.67</ele>
        <time>2016-04-10T07:23:56Z</time>
      </trkpt>
      <trkpt lat="43.87746" lon="4.09489">
        <ele>90.02</ele>
        <time>2016-04-10T07:24:06Z</time>
      </trkpt>
      <trkpt lat="43.87764" lon="4.09487">
        <ele>89.54</ele>
        <time>2016-04-10T07:24:07Z</time>
      </trkpt>
      <trkpt lat="43.87782" lon="4.09494">
        <ele>89.06</ele>
        <time>2016-04-10T07:24:08Z</time>
      </trkpt>
      <trkpt lat="43.878" lon="4.09506">
        <ele>88.1</ele>
        <time>2016-04-10T07:24:09Z</time>
      </trkpt>
      <trkpt lat="43.87816" lon="4.09522">
        <ele>87.62</ele>
        <time>2016-04-10T07:24:10Z</time>
      </trkpt>
      <trkpt lat="43.87831" lon="4.09537">
        <ele>86.18</ele>
        <time>2016-04-10T07:24:11Z</time>
      </trkpt>
      <trkpt lat="43.87844" lon="4.09556">
        <ele>85.21</ele>
        <time>2016-04-10T07:24:12Z</time>
      </trkpt>
      <trkpt lat="43.87859" lon="4.09571">
        <ele>84.25</ele>
        <time>2016-04-10T07:24:13Z</time>
      </trkpt>
      <trkpt lat="43.87873" lon="4.09586">
        <ele>83.77</ele>
        <time>2016-04-10T07:24:14Z</time>
      </trkpt>
      <trkpt lat="43.87888" lon="4.09597">
        <ele>83.29</ele>
        <time>2016-04-10T07:24:15Z</time>
      </trkpt>
      <trkpt lat="43.87903" lon="4.09606">
        <ele>83.29</ele>
        <time>2016-04-10T07:24:16Z</time>
      </trkpt>
      <trkpt lat="43.87919" lon="4.09614">
        <ele>82.81</ele>
        <time>2016-04-10T07:24:17Z</time>
      </trkpt>
      <trkpt lat="43.8803" lon="4.09658">
        <ele>84.73</ele>
        <time>2016-04-10T07:24:25Z</time>
      </trkpt>
      <trkpt lat="43.88046" lon="4.0966">
        <ele>85.21</ele>
        <time>2016-04-10T07:24:27Z</time>
      </trkpt>
      <trkpt lat="43.88053" lon="4.09659">
        <ele>85.21</ele>
        <time>2016-04-10T07:24:28Z</time>
      </trkpt>
      <trkpt lat="43.8806" lon="4.09656">
        <ele>84.73</ele>
        <time>2016-04-10T07:24:29Z</time>
      </trkpt>
      <trkpt lat="43.88067" lon="4.09652">
        <ele>84.73</ele>
        <time>2016-04-10T07:24:30Z</time>
      </trkpt>
      <trkpt lat="43.88075" lon="4.09647">
        <ele>84.73</ele>
        <time>2016-04-10T07:24:31Z</time>
      </trkpt>
      <trkpt lat="43.88099" lon="4.09635">
        <ele>85.21</ele>
        <time>2016-04-10T07:24:34Z</time>
      </trkpt>
      <trkpt lat="43.88107" lon="4.09633">
        <ele>85.21</ele>
        <time>2016-04-10T07:24:35Z</time>
      </trkpt>
      <trkpt lat="43.88116" lon="4.09631">
        <ele>85.69</ele>
        <time>2016-04-10T07:24:36Z</time>
      </trkpt>
      <trkpt lat="43.88124" lon="4.09632">
        <ele>86.18</ele>
        <time>2016-04-10T07:24:37Z</time>
      </trkpt>
      <trkpt lat="43.88133" lon="4.09634">
        <ele>86.66</ele>
        <time>2016-04-10T07:24:38Z</time>
      </trkpt>
      <trkpt lat="43.88141" lon="4.09637">
        <ele>87.14</ele>
        <time>2016-04-10T07:24:39Z</time>
      </trkpt>
      <trkpt lat="43.88164" lon="4.09646">
        <ele>89.06</ele>
        <time>2016-04-10T07:24:43Z</time>
      </trkpt>
      <trkpt lat="43.88174" lon="4.09648">
        <ele>89.54</ele>
        <time>2016-04-10T07:24:45Z</time>
      </trkpt>
      <trkpt lat="43.88178" lon="4.09648">
        <ele>90.98</ele>
        <time>2016-04-10T07:24:46Z</time>
      </trkpt>
      <trkpt lat="43.88184" lon="4.09647">
        <ele>90.98</ele>
        <time>2016-04-10T07:24:47Z</time>
      </trkpt>
      <trkpt lat="43.8819" lon="4.09646">
        <ele>90.98</ele>
        <time>2016-04-10T07:24:48Z</time>
      </trkpt>
      <trkpt lat="43.88201" lon="4.09643">
        <ele>91.94</ele>
        <time>2016-04-10T07:24:49Z</time>
      </trkpt>
      <trkpt lat="43.88211" lon="4.09646">
        <ele>92.42</ele>
        <time>2016-04-10T07:24:50Z</time>
      </trkpt>
      <trkpt lat="43.88223" lon="4.09651">
        <ele>92.42</ele>
        <time>2016-04-10T07:24:51Z</time>
      </trkpt>
      <trkpt lat="43.88235" lon="4.09656">
        <ele>91.94</ele>
        <time>2016-04-10T07:24:52Z</time>
      </trkpt>
      <trkpt lat="43.88247" lon="4.09662">
        <ele>91.46</ele>
        <time>2016-04-10T07:24:53Z</time>
      </trkpt>
      <trkpt lat="43.88369" lon="4.09731">
        <ele>86.18</ele>
        <time>2016-04-10T07:25:03Z</time>
      </trkpt>
      <trkpt lat="43.8851" lon="4.09794">
        <ele>84.73</ele>
        <time>2016-04-10T07:25:11Z</time>
      </trkpt>
      <trkpt lat="43.8869" lon="4.09853">
        <ele>83.77</ele>
        <time>2016-04-10T07:25:19Z</time>
      </trkpt>
      <trkpt lat="43.88825" lon="4.09889">
        <ele>84.73</ele>
        <time>2016-04-10T07:25:25Z</time>
      </trkpt>
      <trkpt lat="43.88849" lon="4.09889">
        <ele>84.73</ele>
        <time>2016-04-10T07:25:26Z</time>
      </trkpt>
      <trkpt lat="43.89055" lon="4.09886">
        <ele>85.69</ele>
        <time>2016-04-10T07:25:35Z</time>
      </trkpt>
      <trkpt lat="43.89241" lon="4.09957">
        <ele>87.14</ele>
        <time>2016-04-10T07:25:43Z</time>
      </trkpt>
      <trkpt lat="43.89392" lon="4.10034">
        <ele>87.62</ele>
        <time>2016-04-10T07:25:50Z</time>
      </trkpt>
      <trkpt lat="43.89598" lon="4.10123">
        <ele>88.58</ele>
        <time>2016-04-10T07:26:00Z</time>
      </trkpt>
      <trkpt lat="43.89749" lon="4.10198">
        <ele>88.58</ele>
        <time>2016-04-10T07:26:09Z</time>
      </trkpt>
      <trkpt lat="43.89856" lon="4.10227">
        <ele>87.14</ele>
        <time>2016-04-10T07:26:18Z</time>
      </trkpt>
      <trkpt lat="43.89965" lon="4.10264">
        <ele>89.54</ele>
        <time>2016-04-10T07:26:30Z</time>
      </trkpt>
      <trkpt lat="43.90044" lon="4.10307">
        <ele>88.1</ele>
        <time>2016-04-10T07:26:39Z</time>
      </trkpt>
      <trkpt lat="43.90164" lon="4.10419">
        <ele>81.85</ele>
        <time>2016-04-10T07:26:50Z</time>
      </trkpt>
      <trkpt lat="43.90241" lon="4.1048">
        <ele>80.89</ele>
        <time>2016-04-10T07:26:56Z</time>
      </trkpt>
      <trkpt lat="43.90256" lon="4.10486">
        <ele>80.89</ele>
        <time>2016-04-10T07:26:57Z</time>
      </trkpt>
      <trkpt lat="43.90272" lon="4.10491">
        <ele>81.37</ele>
        <time>2016-04-10T07:26:58Z</time>
      </trkpt>
      <trkpt lat="43.90449" lon="4.10531">
        <ele>86.66</ele>
        <time>2016-04-10T07:27:09Z</time>
      </trkpt>
      <trkpt lat="43.90469" lon="4.10542">
        <ele>86.66</ele>
        <time>2016-04-10T07:27:10Z</time>
      </trkpt>
      <trkpt lat="43.90606" lon="4.10611">
        <ele>86.66</ele>
        <time>2016-04-10T07:27:16Z</time>
      </trkpt>
      <trkpt lat="43.90823" lon="4.10732">
        <ele>86.66</ele>
        <time>2016-04-10T07:27:25Z</time>
      </trkpt>
      <trkpt lat="43.91036" lon="4.10861">
        <ele>88.1</ele>
        <time>2016-04-10T07:27:34Z</time>
      </trkpt>
      <trkpt lat="43.91225" lon="4.10934">
        <ele>90.02</ele>
        <time>2016-04-10T07:27:42Z</time>
      </trkpt>
      <trkpt lat="43.91247" lon="4.1095">
        <ele>90.5</ele>
        <time>2016-04-10T07:27:43Z</time>
      </trkpt>
      <trkpt lat="43.91268" lon="4.10968">
        <ele>90.5</ele>
        <time>2016-04-10T07:27:44Z</time>
      </trkpt>
      <trkpt lat="43.91338" lon="4.11028">
        <ele>89.06</ele>
        <time>2016-04-10T07:27:48Z</time>
      </trkpt>
      <trkpt lat="43.91355" lon="4.11031">
        <ele>89.06</ele>
        <time>2016-04-10T07:27:49Z</time>
      </trkpt>
      <trkpt lat="43.91373" lon="4.11026">
        <ele>88.58</ele>
        <time>2016-04-10T07:27:50Z</time>
      </trkpt>
      <trkpt lat="43.91391" lon="4.11016">
        <ele>88.1</ele>
        <time>2016-04-10T07:27:51Z</time>
      </trkpt>
      <trkpt lat="43.91411" lon="4.11003">
        <ele>88.1</ele>
        <time>2016-04-10T07:27:52Z</time>
      </trkpt>
      <trkpt lat="43.91432" lon="4.10989">
        <ele>87.14</ele>
        <time>2016-04-10T07:27:53Z</time>
      </trkpt>
      <trkpt lat="43.9165" lon="4.10847">
        <ele>82.33</ele>
        <time>2016-04-10T07:28:02Z</time>
      </trkpt>
      <trkpt lat="43.91915" lon="4.10682">
        <ele>75.12</ele>
        <time>2016-04-10T07:28:13Z</time>
      </trkpt>
      <trkpt lat="43.92068" lon="4.10637">
        <ele>76.08</ele>
        <time>2016-04-10T07:28:19Z</time>
      </trkpt>
      <trkpt lat="43.92157" lon="4.10609">
        <ele>77.52</ele>
        <time>2016-04-10T07:28:23Z</time>
      </trkpt>
      <trkpt lat="43.92179" lon="4.10595">
        <ele>77.52</ele>
        <time>2016-04-10T07:28:24Z</time>
      </trkpt>
      <trkpt lat="43.92201" lon="4.10578">
        <ele>77.52</ele>
        <time>2016-04-10T07:28:25Z</time>
      </trkpt>
      <trkpt lat="43.92315" lon="4.10477">
        <ele>77.52</ele>
        <time>2016-04-10T07:28:31Z</time>
      </trkpt>
      <trkpt lat="43.92333" lon="4.10466">
        <ele>78</ele>
        <time>2016-04-10T07:28:32Z</time>
      </trkpt>
      <trkpt lat="43.92353" lon="4.1046">
        <ele>78</ele>
        <time>2016-04-10T07:28:33Z</time>
      </trkpt>
      <trkpt lat="43.92375" lon="4.10454">
        <ele>78.48</ele>
        <time>2016-04-10T07:28:34Z</time>
      </trkpt>
      <trkpt lat="43.92458" lon="4.10444">
        <ele>80.41</ele>
        <time>2016-04-10T07:28:38Z</time>
      </trkpt>
      <trkpt lat="43.92477" lon="4.10447">
        <ele>80.89</ele>
        <time>2016-04-10T07:28:39Z</time>
      </trkpt>
      <trkpt lat="43.92494" lon="4.10453">
        <ele>81.85</ele>
        <time>2016-04-10T07:28:40Z</time>
      </trkpt>
      <trkpt lat="43.92573" lon="4.10482">
        <ele>86.66</ele>
        <time>2016-04-10T07:28:45Z</time>
      </trkpt>
      <trkpt lat="43.92589" lon="4.10483">
        <ele>87.62</ele>
        <time>2016-04-10T07:28:46Z</time>
      </trkpt>
      <trkpt lat="43.92607" lon="4.1048">
        <ele>88.1</ele>
        <time>2016-04-10T07:28:47Z</time>
      </trkpt>
      <trkpt lat="43.92744" lon="4.10449">
        <ele>91.94</ele>
        <time>2016-04-10T07:28:53Z</time>
      </trkpt>
      <trkpt lat="43.92934" lon="4.10384">
        <ele>97.71</ele>
        <time>2016-04-10T07:29:00Z</time>
      </trkpt>
      <trkpt lat="43.92959" lon="4.10377">
        <ele>98.67</ele>
        <time>2016-04-10T07:29:01Z</time>
      </trkpt>
      <trkpt lat="43.93111" lon="4.10348">
        <ele>101.08</ele>
        <time>2016-04-10T07:29:07Z</time>
      </trkpt>
      <trkpt lat="43.93256" lon="4.10284">
        <ele>105.88</ele>
        <time>2016-04-10T07:29:13Z</time>
      </trkpt>
      <trkpt lat="43.93361" lon="4.10218">
        <ele>108.29</ele>
        <time>2016-04-10T07:29:18Z</time>
      </trkpt>
      <trkpt lat="43.93384" lon="4.10211">
        <ele>109.25</ele>
        <time>2016-04-10T07:29:19Z</time>
      </trkpt>
      <trkpt lat="43.9341" lon="4.10209">
        <ele>109.73</ele>
        <time>2016-04-10T07:29:20Z</time>
      </trkpt>
      <trkpt lat="43.93436" lon="4.10209">
        <ele>110.21</ele>
        <time>2016-04-10T07:29:21Z</time>
      </trkpt>
      <trkpt lat="43.93461" lon="4.10211">
        <ele>111.17</ele>
        <time>2016-04-10T07:29:22Z</time>
      </trkpt>
      <trkpt lat="43.93612" lon="4.10192">
        <ele>114.53</ele>
        <time>2016-04-10T07:29:28Z</time>
      </trkpt>
      <trkpt lat="43.93844" lon="4.10152">
        <ele>117.9</ele>
        <time>2016-04-10T07:29:37Z</time>
      </trkpt>
      <trkpt lat="43.94139" lon="4.10076">
        <ele>127.51</ele>
        <time>2016-04-10T07:29:49Z</time>
      </trkpt>
      <trkpt lat="43.94211" lon="4.10052">
        <ele>130.4</ele>
        <time>2016-04-10T07:29:52Z</time>
      </trkpt>
      <trkpt lat="43.94234" lon="4.10039">
        <ele>131.36</ele>
        <time>2016-04-10T07:29:53Z</time>
      </trkpt>
      <trkpt lat="43.94301" lon="4.10005">
        <ele>133.76</ele>
        <time>2016-04-10T07:29:56Z</time>
      </trkpt>
      <trkpt lat="43.94324" lon="4.10004">
        <ele>134.72</ele>
        <time>2016-04-10T07:29:57Z</time>
      </trkpt>
      <trkpt lat="43.94349" lon="4.1001">
        <ele>135.68</ele>
        <time>2016-04-10T07:29:58Z</time>
      </trkpt>
      <trkpt lat="43.94374" lon="4.10024">
        <ele>136.16</ele>
        <time>2016-04-10T07:29:59Z</time>
      </trkpt>
      <trkpt lat="43.94399" lon="4.10038">
        <ele>136.64</ele>
        <time>2016-04-10T07:30:00Z</time>
      </trkpt>
      <trkpt lat="43.94422" lon="4.10054">
        <ele>136.64</ele>
        <time>2016-04-10T07:30:01Z</time>
      </trkpt>
      <trkpt lat="43.94445" lon="4.10068">
        <ele>136.16</ele>
        <time>2016-04-10T07:30:02Z</time>
      </trkpt>
      <trkpt lat="43.94469" lon="4.10079">
        <ele>136.16</ele>
        <time>2016-04-10T07:30:03Z</time>
      </trkpt>
      <trkpt lat="43.94495" lon="4.10087">
        <ele>136.16</ele>
        <time>2016-04-10T07:30:04Z</time>
      </trkpt>
      <trkpt lat="43.94521" lon="4.10093">
        <ele>136.16</ele>
        <time>2016-04-10T07:30:05Z</time>
      </trkpt>
      <trkpt lat="43.94548" lon="4.10096">
        <ele>136.16</ele>
        <time>2016-04-10T07:30:06Z</time>
      </trkpt>
      <trkpt lat="43.94574" lon="4.10097">
        <ele>136.16</ele>
        <time>2016-04-10T07:30:07Z</time>
      </trkpt>
      <trkpt lat="43.94601" lon="4.10096">
        <ele>136.16</ele>
        <time>2016-04-10T07:30:08Z</time>
      </trkpt>
      <trkpt lat="43.94626" lon="4.10093">
        <ele>136.16</ele>
        <time>2016-04-10T07:30:09Z</time>
      </trkpt>
      <trkpt lat="43.94754" lon="4.10055">
        <ele>137.61</ele>
        <time>2016-04-10T07:30:15Z</time>
      </trkpt>
      <trkpt lat="43.94774" lon="4.10041">
        <ele>137.61</ele>
        <time>2016-04-10T07:30:16Z</time>
      </trkpt>
      <trkpt lat="43.94911" lon="4.09974">
        <ele>138.09</ele>
        <time>2016-04-10T07:30:22Z</time>
      </trkpt>
      <trkpt lat="43.94957" lon="4.09964">
        <ele>138.09</ele>
        <time>2016-04-10T07:30:24Z</time>
      </trkpt>
      <trkpt lat="43.94981" lon="4.09965">
        <ele>138.09</ele>
        <time>2016-04-10T07:30:25Z</time>
      </trkpt>
      <trkpt lat="43.95007" lon="4.09973">
        <ele>138.09</ele>
        <time>2016-04-10T07:30:26Z</time>
      </trkpt>
      <trkpt lat="43.95033" lon="4.09983">
        <ele>138.09</ele>
        <time>2016-04-10T07:30:27Z</time>
      </trkpt>
      <trkpt lat="43.95058" lon="4.09994">
        <ele>138.09</ele>
        <time>2016-04-10T07:30:28Z</time>
      </trkpt>
      <trkpt lat="43.95268" lon="4.10068">
        <ele>140.49</ele>
        <time>2016-04-10T07:30:37Z</time>
      </trkpt>
      <trkpt lat="43.9531" lon="4.10075">
        <ele>141.93</ele>
        <time>2016-04-10T07:30:39Z</time>
      </trkpt>
      <trkpt lat="43.9533" lon="4.10072">
        <ele>142.41</ele>
        <time>2016-04-10T07:30:40Z</time>
      </trkpt>
      <trkpt lat="43.95349" lon="4.10063">
        <ele>143.37</ele>
        <time>2016-04-10T07:30:41Z</time>
      </trkpt>
      <trkpt lat="43.95367" lon="4.10047">
        <ele>143.85</ele>
        <time>2016-04-10T07:30:42Z</time>
      </trkpt>
      <trkpt lat="43.95385" lon="4.10028">
        <ele>144.82</ele>
        <time>2016-04-10T07:30:43Z</time>
      </trkpt>
      <trkpt lat="43.95405" lon="4.10008">
        <ele>145.78</ele>
        <time>2016-04-10T07:30:44Z</time>
      </trkpt>
      <trkpt lat="43.95426" lon="4.09991">
        <ele>146.74</ele>
        <time>2016-04-10T07:30:45Z</time>
      </trkpt>
      <trkpt lat="43.95448" lon="4.09977">
        <ele>147.22</ele>
        <time>2016-04-10T07:30:46Z</time>
      </trkpt>
      <trkpt lat="43.9547" lon="4.09965">
        <ele>147.7</ele>
        <time>2016-04-10T07:30:47Z</time>
      </trkpt>
      <trkpt lat="43.95494" lon="4.09959">
        <ele>148.66</ele>
        <time>2016-04-10T07:30:48Z</time>
      </trkpt>
      <trkpt lat="43.9552" lon="4.09953">
        <ele>148.66</ele>
        <time>2016-04-10T07:30:49Z</time>
      </trkpt>
      <trkpt lat="43.95546" lon="4.09947">
        <ele>149.14</ele>
        <time>2016-04-10T07:30:50Z</time>
      </trkpt>
      <trkpt lat="43.95867" lon="4.09894">
        <ele>138.09</ele>
        <time>2016-04-10T07:31:02Z</time>
      </trkpt>
      <trkpt lat="43.9609" lon="4.09854">
        <ele>132.32</ele>
        <time>2016-04-10T07:31:11Z</time>
      </trkpt>
      <trkpt lat="43.96245" lon="4.09828">
        <ele>127.99</ele>
        <time>2016-04-10T07:31:18Z</time>
      </trkpt>
      <trkpt lat="43.96504" lon="4.09805">
        <ele>121.74</ele>
        <time>2016-04-10T07:31:27Z</time>
      </trkpt>
      <trkpt lat="43.9668" lon="4.09798">
        <ele>119.34</ele>
        <time>2016-04-10T07:31:34Z</time>
      </trkpt>
      <trkpt lat="43.967" lon="4.09804">
        <ele>118.86</ele>
        <time>2016-04-10T07:31:35Z</time>
      </trkpt>
      <trkpt lat="43.9672" lon="4.09821">
        <ele>118.38</ele>
        <time>2016-04-10T07:31:36Z</time>
      </trkpt>
      <trkpt lat="43.96737" lon="4.09844">
        <ele>116.94</ele>
        <time>2016-04-10T07:31:37Z</time>
      </trkpt>
      <trkpt lat="43.96847" lon="4.09994">
        <ele>112.61</ele>
        <time>2016-04-10T07:31:43Z</time>
      </trkpt>
      <trkpt lat="43.96925" lon="4.10089">
        <ele>111.17</ele>
        <time>2016-04-10T07:31:48Z</time>
      </trkpt>
      <trkpt lat="43.96942" lon="4.10095">
        <ele>110.21</ele>
        <time>2016-04-10T07:31:49Z</time>
      </trkpt>
      <trkpt lat="43.96961" lon="4.10094">
        <ele>109.73</ele>
        <time>2016-04-10T07:31:50Z</time>
      </trkpt>
      <trkpt lat="43.96982" lon="4.10086">
        <ele>109.25</ele>
        <time>2016-04-10T07:31:51Z</time>
      </trkpt>
      <trkpt lat="43.97003" lon="4.10073">
        <ele>108.77</ele>
        <time>2016-04-10T07:31:52Z</time>
      </trkpt>
      <trkpt lat="43.97026" lon="4.10059">
        <ele>108.29</ele>
        <time>2016-04-10T07:31:53Z</time>
      </trkpt>
      <trkpt lat="43.97095" lon="4.10028">
        <ele>107.32</ele>
        <time>2016-04-10T07:31:56Z</time>
      </trkpt>
      <trkpt lat="43.97121" lon="4.10028">
        <ele>106.84</ele>
        <time>2016-04-10T07:31:57Z</time>
      </trkpt>
      <trkpt lat="43.97148" lon="4.10033">
        <ele>106.84</ele>
        <time>2016-04-10T07:31:58Z</time>
      </trkpt>
      <trkpt lat="43.97177" lon="4.10041">
        <ele>106.36</ele>
        <time>2016-04-10T07:31:59Z</time>
      </trkpt>
      <trkpt lat="43.97205" lon="4.1005">
        <ele>105.88</ele>
        <time>2016-04-10T07:32:00Z</time>
      </trkpt>
      <trkpt lat="43.97233" lon="4.10063">
        <ele>105.88</ele>
        <time>2016-04-10T07:32:01Z</time>
      </trkpt>
      <trkpt lat="43.97261" lon="4.10077">
        <ele>105.88</ele>
        <time>2016-04-10T07:32:02Z</time>
      </trkpt>
      <trkpt lat="43.9757" lon="4.10222">
        <ele>113.09</ele>
        <time>2016-04-10T07:32:14Z</time>
      </trkpt>
      <trkpt lat="43.9789" lon="4.10338">
        <ele>118.86</ele>
        <time>2016-04-10T07:32:27Z</time>
      </trkpt>
      <trkpt lat="43.9821" lon="4.10455">
        <ele>128.47</ele>
        <time>2016-04-10T07:32:41Z</time>
      </trkpt>
      <trkpt lat="43.98324" lon="4.10504">
        <ele>135.68</ele>
        <time>2016-04-10T07:32:48Z</time>
      </trkpt>
      <trkpt lat="43.98377" lon="4.10531">
        <ele>140.49</ele>
        <time>2016-04-10T07:32:53Z</time>
      </trkpt>
      <trkpt lat="43.9839" lon="4.1054">
        <ele>141.45</ele>
        <time>2016-04-10T07:32:55Z</time>
      </trkpt>
      <trkpt lat="43.98398" lon="4.10537">
        <ele>141.93</ele>
        <time>2016-04-10T07:32:56Z</time>
      </trkpt>
      <trkpt lat="43.9841" lon="4.10533">
        <ele>141.93</ele>
        <time>2016-04-10T07:32:57Z</time>
      </trkpt>
      <trkpt lat="43.98425" lon="4.1053">
        <ele>141.93</ele>
        <time>2016-04-10T07:32:58Z</time>
      </trkpt>
      <trkpt lat="43.98442" lon="4.10533">
        <ele>142.41</ele>
        <time>2016-04-10T07:32:59Z</time>
      </trkpt>
      <trkpt lat="43.98459" lon="4.10539">
        <ele>142.89</ele>
        <time>2016-04-10T07:33:00Z</time>
      </trkpt>
      <trkpt lat="43.98475" lon="4.10549">
        <ele>143.85</ele>
        <time>2016-04-10T07:33:01Z</time>
      </trkpt>
      <trkpt lat="43.9849" lon="4.1056">
        <ele>144.82</ele>
        <time>2016-04-10T07:33:02Z</time>
      </trkpt>
      <trkpt lat="43.98503" lon="4.10571">
        <ele>145.78</ele>
        <time>2016-04-10T07:33:03Z</time>
      </trkpt>
      <trkpt lat="43.98573" lon="4.1062">
        <ele>150.1</ele>
        <time>2016-04-10T07:33:08Z</time>
      </trkpt>
      <trkpt lat="43.98589" lon="4.10625">
        <ele>151.06</ele>
        <time>2016-04-10T07:33:09Z</time>
      </trkpt>
      <trkpt lat="43.98606" lon="4.10628">
        <ele>152.03</ele>
        <time>2016-04-10T07:33:10Z</time>
      </trkpt>
      <trkpt lat="43.98621" lon="4.1063">
        <ele>152.51</ele>
        <time>2016-04-10T07:33:11Z</time>
      </trkpt>
      <trkpt lat="43.98636" lon="4.10629">
        <ele>152.99</ele>
        <time>2016-04-10T07:33:12Z</time>
      </trkpt>
      <trkpt lat="43.98648" lon="4.10628">
        <ele>153.47</ele>
        <time>2016-04-10T07:33:13Z</time>
      </trkpt>
      <trkpt lat="43.98696" lon="4.10624">
        <ele>156.35</ele>
        <time>2016-04-10T07:33:18Z</time>
      </trkpt>
      <trkpt lat="43.98707" lon="4.10628">
        <ele>156.35</ele>
        <time>2016-04-10T07:33:19Z</time>
      </trkpt>
      <trkpt lat="43.98717" lon="4.10635">
        <ele>156.83</ele>
        <time>2016-04-10T07:33:20Z</time>
      </trkpt>
      <trkpt lat="43.98724" lon="4.10643">
        <ele>157.31</ele>
        <time>2016-04-10T07:33:21Z</time>
      </trkpt>
      <trkpt lat="43.98732" lon="4.10651">
        <ele>157.31</ele>
        <time>2016-04-10T07:33:22Z</time>
      </trkpt>
      <trkpt lat="43.98748" lon="4.10664">
        <ele>156.35</ele>
        <time>2016-04-10T07:33:24Z</time>
      </trkpt>
      <trkpt lat="43.98755" lon="4.10669">
        <ele>156.35</ele>
        <time>2016-04-10T07:33:25Z</time>
      </trkpt>
      <trkpt lat="43.98763" lon="4.10673">
        <ele>156.35</ele>
        <time>2016-04-10T07:33:26Z</time>
      </trkpt>
      <trkpt lat="43.98772" lon="4.10677">
        <ele>156.35</ele>
        <time>2016-04-10T07:33:27Z</time>
      </trkpt>
      <trkpt lat="43.98781" lon="4.10679">
        <ele>156.35</ele>
        <time>2016-04-10T07:33:28Z</time>
      </trkpt>
      <trkpt lat="43.9882" lon="4.10688">
        <ele>154.43</ele>
        <time>2016-04-10T07:33:33Z</time>
      </trkpt>
      <trkpt lat="43.98829" lon="4.10688">
        <ele>154.43</ele>
        <time>2016-04-10T07:33:35Z</time>
      </trkpt>
      <trkpt lat="43.98833" lon="4.10686">
        <ele>154.91</ele>
        <time>2016-04-10T07:33:36Z</time>
      </trkpt>
      <trkpt lat="43.98837" lon="4.10683">
        <ele>154.91</ele>
        <time>2016-04-10T07:33:37Z</time>
      </trkpt>
      <trkpt lat="43.98841" lon="4.1068">
        <ele>154.91</ele>
        <time>2016-04-10T07:33:38Z</time>
      </trkpt>
      <trkpt lat="43.98846" lon="4.10677">
        <ele>154.43</ele>
        <time>2016-04-10T07:33:39Z</time>
      </trkpt>
      <trkpt lat="43.98852" lon="4.10676">
        <ele>154.43</ele>
        <time>2016-04-10T07:33:40Z</time>
      </trkpt>
      <trkpt lat="43.98856" lon="4.10675">
        <ele>154.43</ele>
        <time>2016-04-10T07:33:41Z</time>
      </trkpt>
      <trkpt lat="43.98859" lon="4.10675">
        <ele>154.43</ele>
        <time>2016-04-10T07:33:42Z</time>
      </trkpt>
      <trkpt lat="43.98862" lon="4.10677">
        <ele>153.95</ele>
        <time>2016-04-10T07:33:43Z</time>
      </trkpt>
      <trkpt lat="43.98868" lon="4.10679">
        <ele>153.95</ele>
        <time>2016-04-10T07:33:44Z</time>
      </trkpt>
      <trkpt lat="43.98875" lon="4.10681">
        <ele>153.95</ele>
        <time>2016-04-10T07:33:45Z</time>
      </trkpt>
      <trkpt lat="43.98883" lon="4.1068">
        <ele>154.43</ele>
        <time>2016-04-10T07:33:46Z</time>
      </trkpt>
      <trkpt lat="43.98891" lon="4.10679">
        <ele>154.43</ele>
        <time>2016-04-10T07:33:47Z</time>
      </trkpt>
      <trkpt lat="43.98899" lon="4.10677">
        <ele>154.43</ele>
        <time>2016-04-10T07:33:48Z</time>
      </trkpt>
      <trkpt lat="43.98941" lon="4.10688">
        <ele>153.47</ele>
        <time>2016-04-10T07:33:54Z</time>
      </trkpt>
      <trkpt lat="43.98946" lon="4.1069">
        <ele>152.03</ele>
        <time>2016-04-10T07:33:55Z</time>
      </trkpt>
      <trkpt lat="43.98953" lon="4.10691">
        <ele>151.06</ele>
        <time>2016-04-10T07:33:56Z</time>
      </trkpt>
      <trkpt lat="43.98961" lon="4.10689">
        <ele>151.06</ele>
        <time>2016-04-10T07:33:57Z</time>
      </trkpt>
      <trkpt lat="43.98969" lon="4.10686">
        <ele>150.58</ele>
        <time>2016-04-10T07:33:58Z</time>
      </trkpt>
      <trkpt lat="43.98976" lon="4.10681">
        <ele>150.1</ele>
        <time>2016-04-10T07:33:59Z</time>
      </trkpt>
      <trkpt lat="43.98983" lon="4.10675">
        <ele>149.62</ele>
        <time>2016-04-10T07:34:00Z</time>
      </trkpt>
      <trkpt lat="43.9899" lon="4.10668">
        <ele>149.62</ele>
        <time>2016-04-10T07:34:01Z</time>
      </trkpt>
      <trkpt lat="43.98995" lon="4.10662">
        <ele>149.14</ele>
        <time>2016-04-10T07:34:02Z</time>
      </trkpt>
      <trkpt lat="43.99031" lon="4.10597">
        <ele>146.74</ele>
        <time>2016-04-10T07:34:09Z</time>
      </trkpt>
      <trkpt lat="43.99039" lon="4.10586">
        <ele>147.22</ele>
        <time>2016-04-10T07:34:10Z</time>
      </trkpt>
      <trkpt lat="43.99054" lon="4.10565">
        <ele>146.26</ele>
        <time>2016-04-10T07:34:12Z</time>
      </trkpt>
      <trkpt lat="43.99064" lon="4.10556">
        <ele>145.78</ele>
        <time>2016-04-10T07:34:13Z</time>
      </trkpt>
      <trkpt lat="43.99075" lon="4.10548">
        <ele>145.3</ele>
        <time>2016-04-10T07:34:14Z</time>
      </trkpt>
      <trkpt lat="43.99087" lon="4.10541">
        <ele>144.34</ele>
        <time>2016-04-10T07:34:15Z</time>
      </trkpt>
      <trkpt lat="43.99101" lon="4.10535">
        <ele>143.85</ele>
        <time>2016-04-10T07:34:16Z</time>
      </trkpt>
      <trkpt lat="43.99116" lon="4.10531">
        <ele>143.37</ele>
        <time>2016-04-10T07:34:17Z</time>
      </trkpt>
      <trkpt lat="43.99133" lon="4.10528">
        <ele>142.89</ele>
        <time>2016-04-10T07:34:18Z</time>
      </trkpt>
      <trkpt lat="43.99151" lon="4.10526">
        <ele>142.41</ele>
        <time>2016-04-10T07:34:19Z</time>
      </trkpt>
      <trkpt lat="43.9933" lon="4.10532">
        <ele>135.68</ele>
        <time>2016-04-10T07:34:28Z</time>
      </trkpt>
      <trkpt lat="43.99394" lon="4.10539">
        <ele>134.24</ele>
        <time>2016-04-10T07:34:31Z</time>
      </trkpt>
      <trkpt lat="43.99419" lon="4.10535">
        <ele>134.24</ele>
        <time>2016-04-10T07:34:32Z</time>
      </trkpt>
      <trkpt lat="43.99445" lon="4.10528">
        <ele>133.76</ele>
        <time>2016-04-10T07:34:33Z</time>
      </trkpt>
      <trkpt lat="43.99631" lon="4.10458">
        <ele>130.88</ele>
        <time>2016-04-10T07:34:40Z</time>
      </trkpt>
      <trkpt lat="43.99739" lon="4.10446">
        <ele>128.47</ele>
        <time>2016-04-10T07:34:44Z</time>
      </trkpt>
      <trkpt lat="43.99766" lon="4.1045">
        <ele>128.47</ele>
        <time>2016-04-10T07:34:45Z</time>
      </trkpt>
      <trkpt lat="43.99896" lon="4.10446">
        <ele>127.99</ele>
        <time>2016-04-10T07:34:50Z</time>
      </trkpt>
      <trkpt lat="44.00208" lon="4.10359">
        <ele>124.15</ele>
        <time>2016-04-10T07:35:01Z</time>
      </trkpt>
      <trkpt lat="44.00472" lon="4.10294">
        <ele>123.19</ele>
        <time>2016-04-10T07:35:11Z</time>
      </trkpt>
      <trkpt lat="44.00684" lon="4.10302">
        <ele>119.34</ele>
        <time>2016-04-10T07:35:19Z</time>
      </trkpt>
      <trkpt lat="44.00889" lon="4.10284">
        <ele>115.01</ele>
        <time>2016-04-10T07:35:27Z</time>
      </trkpt>
      <trkpt lat="44.01148" lon="4.10251">
        <ele>114.53</ele>
        <time>2016-04-10T07:35:36Z</time>
      </trkpt>
      <trkpt lat="44.01462" lon="4.10252">
        <ele>111.65</ele>
        <time>2016-04-10T07:35:47Z</time>
      </trkpt>
      <trkpt lat="44.01624" lon="4.10235">
        <ele>108.77</ele>
        <time>2016-04-10T07:35:54Z</time>
      </trkpt>
      <trkpt lat="44.01859" lon="4.10174">
        <ele>108.77</ele>
        <time>2016-04-10T07:36:06Z</time>
      </trkpt>
      <trkpt lat="44.01878" lon="4.10173">
        <ele>108.77</ele>
        <time>2016-04-10T07:36:07Z</time>
      </trkpt>
      <trkpt lat="44.01896" lon="4.10177">
        <ele>108.29</ele>
        <time>2016-04-10T07:36:08Z</time>
      </trkpt>
      <trkpt lat="44.01914" lon="4.10183">
        <ele>108.29</ele>
        <time>2016-04-10T07:36:09Z</time>
      </trkpt>
      <trkpt lat="44.01928" lon="4.10192">
        <ele>108.29</ele>
        <time>2016-04-10T07:36:10Z</time>
      </trkpt>
      <trkpt lat="44.0194" lon="4.10202">
        <ele>108.29</ele>
        <time>2016-04-10T07:36:11Z</time>
      </trkpt>
      <trkpt lat="44.01948" lon="4.10215">
        <ele>108.77</ele>
        <time>2016-04-10T07:36:12Z</time>
      </trkpt>
      <trkpt lat="44.01954" lon="4.10226">
        <ele>108.77</ele>
        <time>2016-04-10T07:36:13Z</time>
      </trkpt>
      <trkpt lat="44.01955" lon="4.10237">
        <ele>108.77</ele>
        <time>2016-04-10T07:36:14Z</time>
      </trkpt>
      <trkpt lat="44.01956" lon="4.1025">
        <ele>108.29</ele>
        <time>2016-04-10T07:36:15Z</time>
      </trkpt>
      <trkpt lat="44.01958" lon="4.10264">
        <ele>108.29</ele>
        <time>2016-04-10T07:36:16Z</time>
      </trkpt>
      <trkpt lat="44.01964" lon="4.10276">
        <ele>107.81</ele>
        <time>2016-04-10T07:36:17Z</time>
      </trkpt>
      <trkpt lat="44.01973" lon="4.10286">
        <ele>107.81</ele>
        <time>2016-04-10T07:36:18Z</time>
      </trkpt>
      <trkpt lat="44.01983" lon="4.10296">
        <ele>107.81</ele>
        <time>2016-04-10T07:36:19Z</time>
      </trkpt>
      <trkpt lat="44.01991" lon="4.10307">
        <ele>108.29</ele>
        <time>2016-04-10T07:36:20Z</time>
      </trkpt>
      <trkpt lat="44.01998" lon="4.10319">
        <ele>108.29</ele>
        <time>2016-04-10T07:36:21Z</time>
      </trkpt>
      <trkpt lat="44.02004" lon="4.10333">
        <ele>108.29</ele>
        <time>2016-04-10T07:36:22Z</time>
      </trkpt>
      <trkpt lat="44.02051" lon="4.10438">
        <ele>107.81</ele>
        <time>2016-04-10T07:36:27Z</time>
      </trkpt>
      <trkpt lat="44.02134" lon="4.10631">
        <ele>106.84</ele>
        <time>2016-04-10T07:36:33Z</time>
      </trkpt>
      <trkpt lat="44.02237" lon="4.10865">
        <ele>106.84</ele>
        <time>2016-04-10T07:36:40Z</time>
      </trkpt>
      <trkpt lat="44.0234" lon="4.11097">
        <ele>106.84</ele>
        <time>2016-04-10T07:36:49Z</time>
      </trkpt>
      <trkpt lat="44.02353" lon="4.11115">
        <ele>106.84</ele>
        <time>2016-04-10T07:36:50Z</time>
      </trkpt>
      <trkpt lat="44.02368" lon="4.11131">
        <ele>106.36</ele>
        <time>2016-04-10T07:36:51Z</time>
      </trkpt>
      <trkpt lat="44.02385" lon="4.11145">
        <ele>106.36</ele>
        <time>2016-04-10T07:36:52Z</time>
      </trkpt>
      <trkpt lat="44.02403" lon="4.11156">
        <ele>106.36</ele>
        <time>2016-04-10T07:36:53Z</time>
      </trkpt>
      <trkpt lat="44.02423" lon="4.11163">
        <ele>106.36</ele>
        <time>2016-04-10T07:36:54Z</time>
      </trkpt>
      <trkpt lat="44.02445" lon="4.11167">
        <ele>105.88</ele>
        <time>2016-04-10T07:36:55Z</time>
      </trkpt>
      <trkpt lat="44.02468" lon="4.11167">
        <ele>105.88</ele>
        <time>2016-04-10T07:36:56Z</time>
      </trkpt>
      <trkpt lat="44.02492" lon="4.11167">
        <ele>105.88</ele>
        <time>2016-04-10T07:36:57Z</time>
      </trkpt>
      <trkpt lat="44.0273" lon="4.11163">
        <ele>105.88</ele>
        <time>2016-04-10T07:37:06Z</time>
      </trkpt>
      <trkpt lat="44.02986" lon="4.11159">
        <ele>107.81</ele>
        <time>2016-04-10T07:37:16Z</time>
      </trkpt>
      <trkpt lat="44.03099" lon="4.11151">
        <ele>107.81</ele>
        <time>2016-04-10T07:37:23Z</time>
      </trkpt>
      <trkpt lat="44.0311" lon="4.11136">
        <ele>107.81</ele>
        <time>2016-04-10T07:37:24Z</time>
      </trkpt>
      <trkpt lat="44.03118" lon="4.11117">
        <ele>107.81</ele>
        <time>2016-04-10T07:37:25Z</time>
      </trkpt>
      <trkpt lat="44.03122" lon="4.11095">
        <ele>107.81</ele>
        <time>2016-04-10T07:37:26Z</time>
      </trkpt>
      <trkpt lat="44.03123" lon="4.11071">
        <ele>107.81</ele>
        <time>2016-04-10T07:37:27Z</time>
      </trkpt>
      <trkpt lat="44.03124" lon="4.11044">
        <ele>107.81</ele>
        <time>2016-04-10T07:37:28Z</time>
      </trkpt>
      <trkpt lat="44.03133" lon="4.10927">
        <ele>107.32</ele>
        <time>2016-04-10T07:37:32Z</time>
      </trkpt>
      <trkpt lat="44.03139" lon="4.10897">
        <ele>107.32</ele>
        <time>2016-04-10T07:37:33Z</time>
      </trkpt>
      <trkpt lat="44.03209" lon="4.10638">
        <ele>107.81</ele>
        <time>2016-04-10T07:37:42Z</time>
      </trkpt>
      <trkpt lat="44.03221" lon="4.10614">
        <ele>107.81</ele>
        <time>2016-04-10T07:37:43Z</time>
      </trkpt>
      <trkpt lat="44.033" lon="4.10482">
        <ele>108.29</ele>
        <time>2016-04-10T07:37:50Z</time>
      </trkpt>
      <trkpt lat="44.03329" lon="4.10427">
        <ele>107.81</ele>
        <time>2016-04-10T07:37:54Z</time>
      </trkpt>
      <trkpt lat="44.03333" lon="4.10411">
        <ele>107.32</ele>
        <time>2016-04-10T07:37:55Z</time>
      </trkpt>
      <trkpt lat="44.03337" lon="4.10394">
        <ele>107.32</ele>
        <time>2016-04-10T07:37:56Z</time>
      </trkpt>
      <trkpt lat="44.03348" lon="4.1033">
        <ele>106.36</ele>
        <time>2016-04-10T07:38:00Z</time>
      </trkpt>
      <trkpt lat="44.03353" lon="4.10313">
        <ele>106.84</ele>
        <time>2016-04-10T07:38:01Z</time>
      </trkpt>
      <trkpt lat="44.03359" lon="4.10297">
        <ele>106.84</ele>
        <time>2016-04-10T07:38:02Z</time>
      </trkpt>
      <trkpt lat="44.03366" lon="4.10282">
        <ele>106.84</ele>
        <time>2016-04-10T07:38:03Z</time>
      </trkpt>
      <trkpt lat="44.03375" lon="4.10268">
        <ele>106.84</ele>
        <time>2016-04-10T07:38:04Z</time>
      </trkpt>
      <trkpt lat="44.03383" lon="4.10255">
        <ele>106.84</ele>
        <time>2016-04-10T07:38:05Z</time>
      </trkpt>
      <trkpt lat="44.03392" lon="4.10244">
        <ele>106.84</ele>
        <time>2016-04-10T07:38:06Z</time>
      </trkpt>
      <trkpt lat="44.03401" lon="4.10235">
        <ele>106.36</ele>
        <time>2016-04-10T07:38:07Z</time>
      </trkpt>
      <trkpt lat="44.0341" lon="4.10227">
        <ele>106.84</ele>
        <time>2016-04-10T07:38:08Z</time>
      </trkpt>
      <trkpt lat="44.03419" lon="4.10219">
        <ele>106.84</ele>
        <time>2016-04-10T07:38:09Z</time>
      </trkpt>
      <trkpt lat="44.03429" lon="4.10213">
        <ele>107.32</ele>
        <time>2016-04-10T07:38:10Z</time>
      </trkpt>
      <trkpt lat="44.0344" lon="4.10209">
        <ele>107.81</ele>
        <time>2016-04-10T07:38:11Z</time>
      </trkpt>
      <trkpt lat="44.0345" lon="4.10206">
        <ele>108.29</ele>
        <time>2016-04-10T07:38:12Z</time>
      </trkpt>
      <trkpt lat="44.03555" lon="4.10171">
        <ele>111.17</ele>
        <time>2016-04-10T07:38:23Z</time>
      </trkpt>
      <trkpt lat="44.03675" lon="4.10131">
        <ele>112.13</ele>
        <time>2016-04-10T07:38:34Z</time>
      </trkpt>
      <trkpt lat="44.03786" lon="4.10091">
        <ele>110.69</ele>
        <time>2016-04-10T07:38:41Z</time>
      </trkpt>
      <trkpt lat="44.03974" lon="4.10027">
        <ele>108.29</ele>
        <time>2016-04-10T07:38:51Z</time>
      </trkpt>
      <trkpt lat="44.04185" lon="4.09954">
        <ele>108.29</ele>
        <time>2016-04-10T07:39:01Z</time>
      </trkpt>
      <trkpt lat="44.04459" lon="4.09859">
        <ele>111.65</ele>
        <time>2016-04-10T07:39:15Z</time>
      </trkpt>
      <trkpt lat="44.04811" lon="4.09734">
        <ele>107.32</ele>
        <time>2016-04-10T07:39:34Z</time>
      </trkpt>
      <trkpt lat="44.05056" lon="4.09625">
        <ele>106.84</ele>
        <time>2016-04-10T07:39:46Z</time>
      </trkpt>
      <trkpt lat="44.05371" lon="4.09447">
        <ele>107.81</ele>
        <time>2016-04-10T07:40:02Z</time>
      </trkpt>
      <trkpt lat="44.05663" lon="4.09282">
        <ele>109.25</ele>
        <time>2016-04-10T07:40:16Z</time>
      </trkpt>
      <trkpt lat="44.06021" lon="4.09082">
        <ele>111.65</ele>
        <time>2016-04-10T07:40:33Z</time>
      </trkpt>
      <trkpt lat="44.06177" lon="4.08958">
        <ele>111.65</ele>
        <time>2016-04-10T07:40:42Z</time>
      </trkpt>
      <trkpt lat="44.06438" lon="4.08704">
        <ele>114.05</ele>
        <time>2016-04-10T07:40:58Z</time>
      </trkpt>
      <trkpt lat="44.0679" lon="4.08361">
        <ele>118.86</ele>
        <time>2016-04-10T07:41:18Z</time>
      </trkpt>
      <trkpt lat="44.06905" lon="4.08259">
        <ele>122.71</ele>
        <time>2016-04-10T07:41:25Z</time>
      </trkpt>
      <trkpt lat="44.06924" lon="4.08249">
        <ele>122.71</ele>
        <time>2016-04-10T07:41:26Z</time>
      </trkpt>
      <trkpt lat="44.07088" lon="4.08185">
        <ele>123.67</ele>
        <time>2016-04-10T07:41:35Z</time>
      </trkpt>
      <trkpt lat="44.07221" lon="4.08135">
        <ele>124.15</ele>
        <time>2016-04-10T07:41:44Z</time>
      </trkpt>
      <trkpt lat="44.07239" lon="4.08131">
        <ele>124.15</ele>
        <time>2016-04-10T07:41:46Z</time>
      </trkpt>
      <trkpt lat="44.07247" lon="4.08131">
        <ele>124.15</ele>
        <time>2016-04-10T07:41:47Z</time>
      </trkpt>
      <trkpt lat="44.07255" lon="4.08132">
        <ele>124.63</ele>
        <time>2016-04-10T07:41:48Z</time>
      </trkpt>
      <trkpt lat="44.07262" lon="4.08131">
        <ele>124.63</ele>
        <time>2016-04-10T07:41:49Z</time>
      </trkpt>
      <trkpt lat="44.07271" lon="4.08124">
        <ele>124.63</ele>
        <time>2016-04-10T07:41:50Z</time>
      </trkpt>
      <trkpt lat="44.07281" lon="4.08115">
        <ele>124.15</ele>
        <time>2016-04-10T07:41:51Z</time>
      </trkpt>
      <trkpt lat="44.07294" lon="4.08107">
        <ele>124.15</ele>
        <time>2016-04-10T07:41:52Z</time>
      </trkpt>
      <trkpt lat="44.07308" lon="4.08102">
        <ele>124.15</ele>
        <time>2016-04-10T07:41:53Z</time>
      </trkpt>
      <trkpt lat="44.07477" lon="4.08039">
        <ele>125.11</ele>
        <time>2016-04-10T07:42:05Z</time>
      </trkpt>
      <trkpt lat="44.07555" lon="4.08012">
        <ele>126.07</ele>
        <time>2016-04-10T07:42:12Z</time>
      </trkpt>
      <trkpt lat="44.07563" lon="4.08011">
        <ele>126.07</ele>
        <time>2016-04-10T07:42:13Z</time>
      </trkpt>
      <trkpt lat="44.07579" lon="4.08011">
        <ele>126.55</ele>
        <time>2016-04-10T07:42:15Z</time>
      </trkpt>
      <trkpt lat="44.07588" lon="4.08005">
        <ele>126.07</ele>
        <time>2016-04-10T07:42:16Z</time>
      </trkpt>
      <trkpt lat="44.07683" lon="4.0796">
        <ele>126.55</ele>
        <time>2016-04-10T07:42:23Z</time>
      </trkpt>
      <trkpt lat="44.07824" lon="4.07907">
        <ele>127.03</ele>
        <time>2016-04-10T07:42:32Z</time>
      </trkpt>
      <trkpt lat="44.07941" lon="4.07866">
        <ele>128.47</ele>
        <time>2016-04-10T07:42:41Z</time>
      </trkpt>
      <trkpt lat="44.08082" lon="4.0781">
        <ele>130.4</ele>
        <time>2016-04-10T07:42:53Z</time>
      </trkpt>
      <trkpt lat="44.08184" lon="4.07774">
        <ele>133.28</ele>
        <time>2016-04-10T07:43:03Z</time>
      </trkpt>
      <trkpt lat="44.08194" lon="4.07768">
        <ele>133.28</ele>
        <time>2016-04-10T07:43:04Z</time>
      </trkpt>
      <trkpt lat="44.08206" lon="4.07762">
        <ele>133.76</ele>
        <time>2016-04-10T07:43:05Z</time>
      </trkpt>
      <trkpt lat="44.0832" lon="4.0772">
        <ele>134.72</ele>
        <time>2016-04-10T07:43:15Z</time>
      </trkpt>
      <trkpt lat="44.08396" lon="4.07695">
        <ele>137.61</ele>
        <time>2016-04-10T07:43:25Z</time>
      </trkpt>
      <trkpt lat="44.0841" lon="4.07695">
        <ele>137.61</ele>
        <time>2016-04-10T07:43:30Z</time>
      </trkpt>
      <trkpt lat="44.08421" lon="4.07695">
        <ele>137.13</ele>
        <time>2016-04-10T07:43:32Z</time>
      </trkpt>
      <trkpt lat="44.08428" lon="4.07696">
        <ele>137.13</ele>
        <time>2016-04-10T07:43:33Z</time>
      </trkpt>
      <trkpt lat="44.08503" lon="4.07715">
        <ele>137.13</ele>
        <time>2016-04-10T07:43:46Z</time>
      </trkpt>
      <trkpt lat="44.08524" lon="4.0772">
        <ele>139.53</ele>
        <time>2016-04-10T07:43:56Z</time>
      </trkpt>
      <trkpt lat="44.08578" lon="4.07734">
        <ele>141.93</ele>
        <time>2016-04-10T07:44:06Z</time>
      </trkpt>
      <trkpt lat="44.08676" lon="4.07758">
        <ele>142.89</ele>
        <time>2016-04-10T07:44:16Z</time>
      </trkpt>
      <trkpt lat="44.08803" lon="4.07797">
        <ele>136.64</ele>
        <time>2016-04-10T07:44:27Z</time>
      </trkpt>
      <trkpt lat="44.08976" lon="4.07841">
        <ele>130.4</ele>
        <time>2016-04-10T07:44:40Z</time>
      </trkpt>
      <trkpt lat="44.09152" lon="4.07887">
        <ele>132.32</ele>
        <time>2016-04-10T07:44:52Z</time>
      </trkpt>
      <trkpt lat="44.09295" lon="4.07926">
        <ele>133.28</ele>
        <time>2016-04-10T07:45:04Z</time>
      </trkpt>
      <trkpt lat="44.0931" lon="4.07927">
        <ele>133.76</ele>
        <time>2016-04-10T07:45:06Z</time>
      </trkpt>
      <trkpt lat="44.09318" lon="4.0793">
        <ele>134.24</ele>
        <time>2016-04-10T07:45:07Z</time>
      </trkpt>
      <trkpt lat="44.09327" lon="4.07934">
        <ele>134.24</ele>
        <time>2016-04-10T07:45:08Z</time>
      </trkpt>
      <trkpt lat="44.09336" lon="4.07938">
        <ele>134.72</ele>
        <time>2016-04-10T07:45:09Z</time>
      </trkpt>
      <trkpt lat="44.09346" lon="4.0794">
        <ele>135.2</ele>
        <time>2016-04-10T07:45:10Z</time>
      </trkpt>
      <trkpt lat="44.09358" lon="4.07941">
        <ele>135.2</ele>
        <time>2016-04-10T07:45:11Z</time>
      </trkpt>
      <trkpt lat="44.0937" lon="4.07944">
        <ele>135.68</ele>
        <time>2016-04-10T07:45:12Z</time>
      </trkpt>
      <trkpt lat="44.09383" lon="4.07949">
        <ele>136.16</ele>
        <time>2016-04-10T07:45:13Z</time>
      </trkpt>
      <trkpt lat="44.09476" lon="4.07979">
        <ele>140.49</ele>
        <time>2016-04-10T07:45:18Z</time>
      </trkpt>
      <trkpt lat="44.09626" lon="4.0802">
        <ele>148.18</ele>
        <time>2016-04-10T07:45:25Z</time>
      </trkpt>
      <trkpt lat="44.09872" lon="4.08088">
        <ele>151.06</ele>
        <time>2016-04-10T07:45:37Z</time>
      </trkpt>
      <trkpt lat="44.10059" lon="4.08119">
        <ele>145.78</ele>
        <time>2016-04-10T07:45:46Z</time>
      </trkpt>
      <trkpt lat="44.10113" lon="4.08123">
        <ele>143.37</ele>
        <time>2016-04-10T07:45:49Z</time>
      </trkpt>
      <trkpt lat="44.1013" lon="4.08128">
        <ele>142.89</ele>
        <time>2016-04-10T07:45:50Z</time>
      </trkpt>
      <trkpt lat="44.10147" lon="4.08141">
        <ele>141.93</ele>
        <time>2016-04-10T07:45:51Z</time>
      </trkpt>
      <trkpt lat="44.10163" lon="4.08157">
        <ele>141.45</ele>
        <time>2016-04-10T07:45:52Z</time>
      </trkpt>
      <trkpt lat="44.10177" lon="4.08174">
        <ele>140.49</ele>
        <time>2016-04-10T07:45:53Z</time>
      </trkpt>
      <trkpt lat="44.10191" lon="4.08188">
        <ele>140.01</ele>
        <time>2016-04-10T07:45:54Z</time>
      </trkpt>
      <trkpt lat="44.10209" lon="4.08199">
        <ele>139.05</ele>
        <time>2016-04-10T07:45:55Z</time>
      </trkpt>
      <trkpt lat="44.10227" lon="4.08206">
        <ele>138.09</ele>
        <time>2016-04-10T07:45:56Z</time>
      </trkpt>
      <trkpt lat="44.10326" lon="4.08244">
        <ele>132.32</ele>
        <time>2016-04-10T07:46:03Z</time>
      </trkpt>
      <trkpt lat="44.10334" lon="4.08252">
        <ele>132.32</ele>
        <time>2016-04-10T07:46:04Z</time>
      </trkpt>
      <trkpt lat="44.10343" lon="4.08264">
        <ele>131.36</ele>
        <time>2016-04-10T07:46:05Z</time>
      </trkpt>
      <trkpt lat="44.10354" lon="4.08276">
        <ele>130.88</ele>
        <time>2016-04-10T07:46:06Z</time>
      </trkpt>
      <trkpt lat="44.10365" lon="4.0829">
        <ele>129.92</ele>
        <time>2016-04-10T07:46:07Z</time>
      </trkpt>
      <trkpt lat="44.10376" lon="4.08307">
        <ele>129.43</ele>
        <time>2016-04-10T07:46:08Z</time>
      </trkpt>
      <trkpt lat="44.10384" lon="4.08327">
        <ele>128.95</ele>
        <time>2016-04-10T07:46:09Z</time>
      </trkpt>
      <trkpt lat="44.10393" lon="4.08349">
        <ele>128.47</ele>
        <time>2016-04-10T07:46:10Z</time>
      </trkpt>
      <trkpt lat="44.10506" lon="4.08654">
        <ele>124.15</ele>
        <time>2016-04-10T07:46:23Z</time>
      </trkpt>
      <trkpt lat="44.10583" lon="4.08849">
        <ele>123.67</ele>
        <time>2016-04-10T07:46:32Z</time>
      </trkpt>
      <trkpt lat="44.10629" lon="4.08956">
        <ele>124.15</ele>
        <time>2016-04-10T07:46:40Z</time>
      </trkpt>
      <trkpt lat="44.10629" lon="4.08964">
        <ele>123.67</ele>
        <time>2016-04-10T07:46:41Z</time>
      </trkpt>
      <trkpt lat="44.10627" lon="4.08974">
        <ele>124.15</ele>
        <time>2016-04-10T07:46:42Z</time>
      </trkpt>
      <trkpt lat="44.10626" lon="4.08997">
        <ele>124.63</ele>
        <time>2016-04-10T07:46:44Z</time>
      </trkpt>
      <trkpt lat="44.10628" lon="4.09007">
        <ele>124.63</ele>
        <time>2016-04-10T07:46:45Z</time>
      </trkpt>
      <trkpt lat="44.10633" lon="4.09015">
        <ele>124.15</ele>
        <time>2016-04-10T07:46:46Z</time>
      </trkpt>
      <trkpt lat="44.1064" lon="4.0902">
        <ele>123.67</ele>
        <time>2016-04-10T07:46:47Z</time>
      </trkpt>
      <trkpt lat="44.10649" lon="4.09029">
        <ele>123.67</ele>
        <time>2016-04-10T07:46:48Z</time>
      </trkpt>
      <trkpt lat="44.10656" lon="4.09044">
        <ele>123.67</ele>
        <time>2016-04-10T07:46:49Z</time>
      </trkpt>
      <trkpt lat="44.10663" lon="4.09064">
        <ele>123.67</ele>
        <time>2016-04-10T07:46:50Z</time>
      </trkpt>
      <trkpt lat="44.10669" lon="4.09087">
        <ele>123.67</ele>
        <time>2016-04-10T07:46:51Z</time>
      </trkpt>
      <trkpt lat="44.10704" lon="4.09304">
        <ele>124.63</ele>
        <time>2016-04-10T07:47:00Z</time>
      </trkpt>
      <trkpt lat="44.10734" lon="4.09574">
        <ele>128.95</ele>
        <time>2016-04-10T07:47:14Z</time>
      </trkpt>
      <trkpt lat="44.10763" lon="4.09793">
        <ele>126.55</ele>
        <time>2016-04-10T07:47:26Z</time>
      </trkpt>
      <trkpt lat="44.10761" lon="4.09849">
        <ele>127.51</ele>
        <time>2016-04-10T07:47:32Z</time>
      </trkpt>
      <trkpt lat="44.10758" lon="4.09859">
        <ele>127.51</ele>
        <time>2016-04-10T07:47:33Z</time>
      </trkpt>
      <trkpt lat="44.10754" lon="4.09869">
        <ele>127.51</ele>
        <time>2016-04-10T07:47:34Z</time>
      </trkpt>
      <trkpt lat="44.10752" lon="4.09881">
        <ele>127.99</ele>
        <time>2016-04-10T07:47:35Z</time>
      </trkpt>
      <trkpt lat="44.10753" lon="4.09892">
        <ele>127.99</ele>
        <time>2016-04-10T07:47:36Z</time>
      </trkpt>
      <trkpt lat="44.10757" lon="4.09902">
        <ele>127.99</ele>
        <time>2016-04-10T07:47:37Z</time>
      </trkpt>
      <trkpt lat="44.10763" lon="4.09912">
        <ele>128.47</ele>
        <time>2016-04-10T07:47:38Z</time>
      </trkpt>
      <trkpt lat="44.10771" lon="4.09921">
        <ele>128.47</ele>
        <time>2016-04-10T07:47:39Z</time>
      </trkpt>
      <trkpt lat="44.1078" lon="4.09931">
        <ele>128.95</ele>
        <time>2016-04-10T07:47:40Z</time>
      </trkpt>
      <trkpt lat="44.10787" lon="4.09946">
        <ele>129.43</ele>
        <time>2016-04-10T07:47:41Z</time>
      </trkpt>
      <trkpt lat="44.10794" lon="4.09963">
        <ele>129.92</ele>
        <time>2016-04-10T07:47:42Z</time>
      </trkpt>
      <trkpt lat="44.108" lon="4.09981">
        <ele>130.4</ele>
        <time>2016-04-10T07:47:43Z</time>
      </trkpt>
      <trkpt lat="44.10805" lon="4.1">
        <ele>130.88</ele>
        <time>2016-04-10T07:47:44Z</time>
      </trkpt>
      <trkpt lat="44.10868" lon="4.1016">
        <ele>133.28</ele>
        <time>2016-04-10T07:47:53Z</time>
      </trkpt>
      <trkpt lat="44.10965" lon="4.10302">
        <ele>131.36</ele>
        <time>2016-04-10T07:48:01Z</time>
      </trkpt>
      <trkpt lat="44.11125" lon="4.10466">
        <ele>134.72</ele>
        <time>2016-04-10T07:48:12Z</time>
      </trkpt>
      <trkpt lat="44.11259" lon="4.10607">
        <ele>142.41</ele>
        <time>2016-04-10T07:48:24Z</time>
      </trkpt>
      <trkpt lat="44.11274" lon="4.10628">
        <ele>142.89</ele>
        <time>2016-04-10T07:48:30Z</time>
      </trkpt>
      <trkpt lat="44.11276" lon="4.10637">
        <ele>143.37</ele>
        <time>2016-04-10T07:48:33Z</time>
      </trkpt>
      <trkpt lat="44.11281" lon="4.10659">
        <ele>143.85</ele>
        <time>2016-04-10T07:48:35Z</time>
      </trkpt>
      <trkpt lat="44.11286" lon="4.10667">
        <ele>144.34</ele>
        <time>2016-04-10T07:48:36Z</time>
      </trkpt>
      <trkpt lat="44.11293" lon="4.10672">
        <ele>144.34</ele>
        <time>2016-04-10T07:48:37Z</time>
      </trkpt>
      <trkpt lat="44.11302" lon="4.10674">
        <ele>144.34</ele>
        <time>2016-04-10T07:48:38Z</time>
      </trkpt>
      <trkpt lat="44.11313" lon="4.10676">
        <ele>144.82</ele>
        <time>2016-04-10T07:48:39Z</time>
      </trkpt>
      <trkpt lat="44.11324" lon="4.10681">
        <ele>144.82</ele>
        <time>2016-04-10T07:48:40Z</time>
      </trkpt>
      <trkpt lat="44.11334" lon="4.10688">
        <ele>145.3</ele>
        <time>2016-04-10T07:48:41Z</time>
      </trkpt>
      <trkpt lat="44.11416" lon="4.10751">
        <ele>148.66</ele>
        <time>2016-04-10T07:48:47Z</time>
      </trkpt>
      <trkpt lat="44.11529" lon="4.10798">
        <ele>148.18</ele>
        <time>2016-04-10T07:48:54Z</time>
      </trkpt>
      <trkpt lat="44.11631" lon="4.10821">
        <ele>149.14</ele>
        <time>2016-04-10T07:49:03Z</time>
      </trkpt>
      <trkpt lat="44.11642" lon="4.10825">
        <ele>150.1</ele>
        <time>2016-04-10T07:49:05Z</time>
      </trkpt>
      <trkpt lat="44.11648" lon="4.10829">
        <ele>150.1</ele>
        <time>2016-04-10T07:49:06Z</time>
      </trkpt>
      <trkpt lat="44.11654" lon="4.10836">
        <ele>150.58</ele>
        <time>2016-04-10T07:49:07Z</time>
      </trkpt>
      <trkpt lat="44.11661" lon="4.10845">
        <ele>151.06</ele>
        <time>2016-04-10T07:49:08Z</time>
      </trkpt>
      <trkpt lat="44.11668" lon="4.10855">
        <ele>151.54</ele>
        <time>2016-04-10T07:49:09Z</time>
      </trkpt>
      <trkpt lat="44.11676" lon="4.10862">
        <ele>151.54</ele>
        <time>2016-04-10T07:49:10Z</time>
      </trkpt>
      <trkpt lat="44.11686" lon="4.10867">
        <ele>152.03</ele>
        <time>2016-04-10T07:49:11Z</time>
      </trkpt>
      <trkpt lat="44.11694" lon="4.10867">
        <ele>152.03</ele>
        <time>2016-04-10T07:49:12Z</time>
      </trkpt>
      <trkpt lat="44.11703" lon="4.10863">
        <ele>152.99</ele>
        <time>2016-04-10T07:49:13Z</time>
      </trkpt>
      <trkpt lat="44.1171" lon="4.10857">
        <ele>152.99</ele>
        <time>2016-04-10T07:49:14Z</time>
      </trkpt>
      <trkpt lat="44.11719" lon="4.10851">
        <ele>153.47</ele>
        <time>2016-04-10T07:49:15Z</time>
      </trkpt>
      <trkpt lat="44.11731" lon="4.10847">
        <ele>153.95</ele>
        <time>2016-04-10T07:49:16Z</time>
      </trkpt>
      <trkpt lat="44.11746" lon="4.10846">
        <ele>154.43</ele>
        <time>2016-04-10T07:49:17Z</time>
      </trkpt>
      <trkpt lat="44.11764" lon="4.10849">
        <ele>154.43</ele>
        <time>2016-04-10T07:49:18Z</time>
      </trkpt>
      <trkpt lat="44.11783" lon="4.10853">
        <ele>154.43</ele>
        <time>2016-04-10T07:49:19Z</time>
      </trkpt>
      <trkpt lat="44.11802" lon="4.10858">
        <ele>153.47</ele>
        <time>2016-04-10T07:49:20Z</time>
      </trkpt>
      <trkpt lat="44.11973" lon="4.10896">
        <ele>151.06</ele>
        <time>2016-04-10T07:49:30Z</time>
      </trkpt>
      <trkpt lat="44.1211" lon="4.10906">
        <ele>151.54</ele>
        <time>2016-04-10T07:49:38Z</time>
      </trkpt>
      <trkpt lat="44.12276" lon="4.10865">
        <ele>152.51</ele>
        <time>2016-04-10T07:49:48Z</time>
      </trkpt>
      <trkpt lat="44.12456" lon="4.10776">
        <ele>156.35</ele>
        <time>2016-04-10T07:50:00Z</time>
      </trkpt>
      <trkpt lat="44.12547" lon="4.10738">
        <ele>161.16</ele>
        <time>2016-04-10T07:50:08Z</time>
      </trkpt>
      <trkpt lat="44.12557" lon="4.10741">
        <ele>161.64</ele>
        <time>2016-04-10T07:50:09Z</time>
      </trkpt>
      <trkpt lat="44.12567" lon="4.10742">
        <ele>162.12</ele>
        <time>2016-04-10T07:50:10Z</time>
      </trkpt>
      <trkpt lat="44.12575" lon="4.10736">
        <ele>162.12</ele>
        <time>2016-04-10T07:50:11Z</time>
      </trkpt>
      <trkpt lat="44.12583" lon="4.10727">
        <ele>162.12</ele>
        <time>2016-04-10T07:50:12Z</time>
      </trkpt>
      <trkpt lat="44.12593" lon="4.10718">
        <ele>162.6</ele>
        <time>2016-04-10T07:50:13Z</time>
      </trkpt>
      <trkpt lat="44.12605" lon="4.10713">
        <ele>162.6</ele>
        <time>2016-04-10T07:50:14Z</time>
      </trkpt>
      <trkpt lat="44.12621" lon="4.10707">
        <ele>163.08</ele>
        <time>2016-04-10T07:50:15Z</time>
      </trkpt>
      <trkpt lat="44.12637" lon="4.10702">
        <ele>163.56</ele>
        <time>2016-04-10T07:50:16Z</time>
      </trkpt>
      <trkpt lat="44.12816" lon="4.10666">
        <ele>166.45</ele>
        <time>2016-04-10T07:50:27Z</time>
      </trkpt>
      <trkpt lat="44.12901" lon="4.10651">
        <ele>172.21</ele>
        <time>2016-04-10T07:50:35Z</time>
      </trkpt>
      <trkpt lat="44.1292" lon="4.10651">
        <ele>172.69</ele>
        <time>2016-04-10T07:50:39Z</time>
      </trkpt>
      <trkpt lat="44.12925" lon="4.10653">
        <ele>172.69</ele>
        <time>2016-04-10T07:50:40Z</time>
      </trkpt>
      <trkpt lat="44.1293" lon="4.10658">
        <ele>172.69</ele>
        <time>2016-04-10T07:50:41Z</time>
      </trkpt>
      <trkpt lat="44.12935" lon="4.10664">
        <ele>173.17</ele>
        <time>2016-04-10T07:50:42Z</time>
      </trkpt>
      <trkpt lat="44.1294" lon="4.1067">
        <ele>173.17</ele>
        <time>2016-04-10T07:50:43Z</time>
      </trkpt>
      <trkpt lat="44.12947" lon="4.10676">
        <ele>173.17</ele>
        <time>2016-04-10T07:50:44Z</time>
      </trkpt>
      <trkpt lat="44.12955" lon="4.1068">
        <ele>173.66</ele>
        <time>2016-04-10T07:50:45Z</time>
      </trkpt>
      <trkpt lat="44.12963" lon="4.10681">
        <ele>173.66</ele>
        <time>2016-04-10T07:50:46Z</time>
      </trkpt>
      <trkpt lat="44.12971" lon="4.1068">
        <ele>173.66</ele>
        <time>2016-04-10T07:50:47Z</time>
      </trkpt>
      <trkpt lat="44.12979" lon="4.10673">
        <ele>173.66</ele>
        <time>2016-04-10T07:50:48Z</time>
      </trkpt>
      <trkpt lat="44.12986" lon="4.10664">
        <ele>173.66</ele>
        <time>2016-04-10T07:50:49Z</time>
      </trkpt>
      <trkpt lat="44.12993" lon="4.10651">
        <ele>173.66</ele>
        <time>2016-04-10T07:50:50Z</time>
      </trkpt>
      <trkpt lat="44.13002" lon="4.1064">
        <ele>173.66</ele>
        <time>2016-04-10T07:50:51Z</time>
      </trkpt>
      <trkpt lat="44.13012" lon="4.10631">
        <ele>173.66</ele>
        <time>2016-04-10T07:50:52Z</time>
      </trkpt>
      <trkpt lat="44.13026" lon="4.10627">
        <ele>174.14</ele>
        <time>2016-04-10T07:50:53Z</time>
      </trkpt>
      <trkpt lat="44.13041" lon="4.10624">
        <ele>173.66</ele>
        <time>2016-04-10T07:50:54Z</time>
      </trkpt>
      <trkpt lat="44.13056" lon="4.10621">
        <ele>173.66</ele>
        <time>2016-04-10T07:50:55Z</time>
      </trkpt>
      <trkpt lat="44.1323" lon="4.10591">
        <ele>166.93</ele>
        <time>2016-04-10T07:51:06Z</time>
      </trkpt>
      <trkpt lat="44.13484" lon="4.10542">
        <ele>161.64</ele>
        <time>2016-04-10T07:51:22Z</time>
      </trkpt>
      <trkpt lat="44.1354" lon="4.10525">
        <ele>160.2</ele>
        <time>2016-04-10T07:51:27Z</time>
      </trkpt>
      <trkpt lat="44.13551" lon="4.10525">
        <ele>160.2</ele>
        <time>2016-04-10T07:51:28Z</time>
      </trkpt>
      <trkpt lat="44.13562" lon="4.10525">
        <ele>159.72</ele>
        <time>2016-04-10T07:51:29Z</time>
      </trkpt>
      <trkpt lat="44.13575" lon="4.10523">
        <ele>159.72</ele>
        <time>2016-04-10T07:51:30Z</time>
      </trkpt>
      <trkpt lat="44.1359" lon="4.10519">
        <ele>159.24</ele>
        <time>2016-04-10T07:51:31Z</time>
      </trkpt>
      <trkpt lat="44.13605" lon="4.10516">
        <ele>159.24</ele>
        <time>2016-04-10T07:51:32Z</time>
      </trkpt>
      <trkpt lat="44.13622" lon="4.10515">
        <ele>158.75</ele>
        <time>2016-04-10T07:51:33Z</time>
      </trkpt>
      <trkpt lat="44.1364" lon="4.10513">
        <ele>158.75</ele>
        <time>2016-04-10T07:51:34Z</time>
      </trkpt>
      <trkpt lat="44.13758" lon="4.1049">
        <ele>161.16</ele>
        <time>2016-04-10T07:51:42Z</time>
      </trkpt>
      <trkpt lat="44.13903" lon="4.10455">
        <ele>162.6</ele>
        <time>2016-04-10T07:51:51Z</time>
      </trkpt>
      <trkpt lat="44.14012" lon="4.10437">
        <ele>161.16</ele>
        <time>2016-04-10T07:51:58Z</time>
      </trkpt>
      <trkpt lat="44.14028" lon="4.10439">
        <ele>160.68</ele>
        <time>2016-04-10T07:51:59Z</time>
      </trkpt>
      <trkpt lat="44.14043" lon="4.10446">
        <ele>159.72</ele>
        <time>2016-04-10T07:52:00Z</time>
      </trkpt>
      <trkpt lat="44.14058" lon="4.10455">
        <ele>159.24</ele>
        <time>2016-04-10T07:52:01Z</time>
      </trkpt>
      <trkpt lat="44.14073" lon="4.10466">
        <ele>158.27</ele>
        <time>2016-04-10T07:52:02Z</time>
      </trkpt>
      <trkpt lat="44.14086" lon="4.10478">
        <ele>157.31</ele>
        <time>2016-04-10T07:52:03Z</time>
      </trkpt>
      <trkpt lat="44.1412" lon="4.10505">
        <ele>155.39</ele>
        <time>2016-04-10T07:52:06Z</time>
      </trkpt>
      <trkpt lat="44.14132" lon="4.10509">
        <ele>154.91</ele>
        <time>2016-04-10T07:52:07Z</time>
      </trkpt>
      <trkpt lat="44.14142" lon="4.10509">
        <ele>154.43</ele>
        <time>2016-04-10T07:52:08Z</time>
      </trkpt>
      <trkpt lat="44.14153" lon="4.10507">
        <ele>153.47</ele>
        <time>2016-04-10T07:52:09Z</time>
      </trkpt>
      <trkpt lat="44.14163" lon="4.10502">
        <ele>152.99</ele>
        <time>2016-04-10T07:52:10Z</time>
      </trkpt>
      <trkpt lat="44.14173" lon="4.10491">
        <ele>152.51</ele>
        <time>2016-04-10T07:52:11Z</time>
      </trkpt>
      <trkpt lat="44.14185" lon="4.10479">
        <ele>152.03</ele>
        <time>2016-04-10T07:52:12Z</time>
      </trkpt>
      <trkpt lat="44.14297" lon="4.10382">
        <ele>152.51</ele>
        <time>2016-04-10T07:52:19Z</time>
      </trkpt>
      <trkpt lat="44.14472" lon="4.10221">
        <ele>155.87</ele>
        <time>2016-04-10T07:52:30Z</time>
      </trkpt>
      <trkpt lat="44.14548" lon="4.1015">
        <ele>157.79</ele>
        <time>2016-04-10T07:52:38Z</time>
      </trkpt>
      <trkpt lat="44.14579" lon="4.10123">
        <ele>158.27</ele>
        <time>2016-04-10T07:52:42Z</time>
      </trkpt>
      <trkpt lat="44.14588" lon="4.10117">
        <ele>158.27</ele>
        <time>2016-04-10T07:52:43Z</time>
      </trkpt>
      <trkpt lat="44.14596" lon="4.10108">
        <ele>158.75</ele>
        <time>2016-04-10T07:52:44Z</time>
      </trkpt>
      <trkpt lat="44.14604" lon="4.10098">
        <ele>159.24</ele>
        <time>2016-04-10T07:52:45Z</time>
      </trkpt>
      <trkpt lat="44.14614" lon="4.10087">
        <ele>159.72</ele>
        <time>2016-04-10T07:52:46Z</time>
      </trkpt>
      <trkpt lat="44.14625" lon="4.10078">
        <ele>160.2</ele>
        <time>2016-04-10T07:52:47Z</time>
      </trkpt>
      <trkpt lat="44.14716" lon="4.10005">
        <ele>163.56</ele>
        <time>2016-04-10T07:52:56Z</time>
      </trkpt>
      <trkpt lat="44.14821" lon="4.09951">
        <ele>168.37</ele>
        <time>2016-04-10T07:53:04Z</time>
      </trkpt>
      <trkpt lat="44.14841" lon="4.09948">
        <ele>169.33</ele>
        <time>2016-04-10T07:53:06Z</time>
      </trkpt>
      <trkpt lat="44.14853" lon="4.09949">
        <ele>170.29</ele>
        <time>2016-04-10T07:53:07Z</time>
      </trkpt>
      <trkpt lat="44.14865" lon="4.09949">
        <ele>170.77</ele>
        <time>2016-04-10T07:53:08Z</time>
      </trkpt>
      <trkpt lat="44.14876" lon="4.09944">
        <ele>171.25</ele>
        <time>2016-04-10T07:53:09Z</time>
      </trkpt>
      <trkpt lat="44.14886" lon="4.09933">
        <ele>171.25</ele>
        <time>2016-04-10T07:53:10Z</time>
      </trkpt>
      <trkpt lat="44.14894" lon="4.09916">
        <ele>171.73</ele>
        <time>2016-04-10T07:53:11Z</time>
      </trkpt>
      <trkpt lat="44.14902" lon="4.09899">
        <ele>172.21</ele>
        <time>2016-04-10T07:53:12Z</time>
      </trkpt>
      <trkpt lat="44.14913" lon="4.0988">
        <ele>172.69</ele>
        <time>2016-04-10T07:53:13Z</time>
      </trkpt>
      <trkpt lat="44.14926" lon="4.09863">
        <ele>173.66</ele>
        <time>2016-04-10T07:53:14Z</time>
      </trkpt>
      <trkpt lat="44.14943" lon="4.09844">
        <ele>175.58</ele>
        <time>2016-04-10T07:53:15Z</time>
      </trkpt>
      <trkpt lat="44.14958" lon="4.0982">
        <ele>177.02</ele>
        <time>2016-04-10T07:53:16Z</time>
      </trkpt>
      <trkpt lat="44.14971" lon="4.09793">
        <ele>177.98</ele>
        <time>2016-04-10T07:53:17Z</time>
      </trkpt>
      <trkpt lat="44.14982" lon="4.09764">
        <ele>179.42</ele>
        <time>2016-04-10T07:53:18Z</time>
      </trkpt>
      <trkpt lat="44.14991" lon="4.09734">
        <ele>180.87</ele>
        <time>2016-04-10T07:53:19Z</time>
      </trkpt>
      <trkpt lat="44.14999" lon="4.09704">
        <ele>182.79</ele>
        <time>2016-04-10T07:53:20Z</time>
      </trkpt>
      <trkpt lat="44.15051" lon="4.09531">
        <ele>192.4</ele>
        <time>2016-04-10T07:53:26Z</time>
      </trkpt>
      <trkpt lat="44.15066" lon="4.09507">
        <ele>193.84</ele>
        <time>2016-04-10T07:53:27Z</time>
      </trkpt>
      <trkpt lat="44.15084" lon="4.09485">
        <ele>195.77</ele>
        <time>2016-04-10T07:53:28Z</time>
      </trkpt>
      <trkpt lat="44.15105" lon="4.09471">
        <ele>197.21</ele>
        <time>2016-04-10T07:53:29Z</time>
      </trkpt>
      <trkpt lat="44.15127" lon="4.09458">
        <ele>199.13</ele>
        <time>2016-04-10T07:53:30Z</time>
      </trkpt>
      <trkpt lat="44.15153" lon="4.09455">
        <ele>201.05</ele>
        <time>2016-04-10T07:53:31Z</time>
      </trkpt>
      <trkpt lat="44.15181" lon="4.09458">
        <ele>202.98</ele>
        <time>2016-04-10T07:53:32Z</time>
      </trkpt>
      <trkpt lat="44.15206" lon="4.09464">
        <ele>204.9</ele>
        <time>2016-04-10T07:53:33Z</time>
      </trkpt>
      <trkpt lat="44.15231" lon="4.09472">
        <ele>205.86</ele>
        <time>2016-04-10T07:53:34Z</time>
      </trkpt>
      <trkpt lat="44.15256" lon="4.09479">
        <ele>206.34</ele>
        <time>2016-04-10T07:53:35Z</time>
      </trkpt>
      <trkpt lat="44.15283" lon="4.09482">
        <ele>205.86</ele>
        <time>2016-04-10T07:53:36Z</time>
      </trkpt>
      <trkpt lat="44.15311" lon="4.09481">
        <ele>204.9</ele>
        <time>2016-04-10T07:53:37Z</time>
      </trkpt>
      <trkpt lat="44.15338" lon="4.09472">
        <ele>203.94</ele>
        <time>2016-04-10T07:53:38Z</time>
      </trkpt>
      <trkpt lat="44.15365" lon="4.09459">
        <ele>203.46</ele>
        <time>2016-04-10T07:53:39Z</time>
      </trkpt>
      <trkpt lat="44.1539" lon="4.09442">
        <ele>202.98</ele>
        <time>2016-04-10T07:53:40Z</time>
      </trkpt>
      <trkpt lat="44.15414" lon="4.09426">
        <ele>201.53</ele>
        <time>2016-04-10T07:53:41Z</time>
      </trkpt>
      <trkpt lat="44.15486" lon="4.09389">
        <ele>199.13</ele>
        <time>2016-04-10T07:53:44Z</time>
      </trkpt>
      <trkpt lat="44.15511" lon="4.09388">
        <ele>197.69</ele>
        <time>2016-04-10T07:53:45Z</time>
      </trkpt>
      <trkpt lat="44.15536" lon="4.0939">
        <ele>196.25</ele>
        <time>2016-04-10T07:53:46Z</time>
      </trkpt>
      <trkpt lat="44.15558" lon="4.09391">
        <ele>195.28</ele>
        <time>2016-04-10T07:53:47Z</time>
      </trkpt>
      <trkpt lat="44.1558" lon="4.09396">
        <ele>194.32</ele>
        <time>2016-04-10T07:53:48Z</time>
      </trkpt>
      <trkpt lat="44.15602" lon="4.09403">
        <ele>190.96</ele>
        <time>2016-04-10T07:53:49Z</time>
      </trkpt>
      <trkpt lat="44.15643" lon="4.09408">
        <ele>187.59</ele>
        <time>2016-04-10T07:53:51Z</time>
      </trkpt>
      <trkpt lat="44.15664" lon="4.09403">
        <ele>185.67</ele>
        <time>2016-04-10T07:53:52Z</time>
      </trkpt>
      <trkpt lat="44.15684" lon="4.09393">
        <ele>183.27</ele>
        <time>2016-04-10T07:53:53Z</time>
      </trkpt>
      <trkpt lat="44.15704" lon="4.09377">
        <ele>180.87</ele>
        <time>2016-04-10T07:53:54Z</time>
      </trkpt>
      <trkpt lat="44.15722" lon="4.09357">
        <ele>178.46</ele>
        <time>2016-04-10T07:53:55Z</time>
      </trkpt>
      <trkpt lat="44.15738" lon="4.09331">
        <ele>175.58</ele>
        <time>2016-04-10T07:53:56Z</time>
      </trkpt>
      <trkpt lat="44.15752" lon="4.09302">
        <ele>173.17</ele>
        <time>2016-04-10T07:53:57Z</time>
      </trkpt>
      <trkpt lat="44.15762" lon="4.09266">
        <ele>171.73</ele>
        <time>2016-04-10T07:53:58Z</time>
      </trkpt>
      <trkpt lat="44.1577" lon="4.0923">
        <ele>169.81</ele>
        <time>2016-04-10T07:53:59Z</time>
      </trkpt>
      <trkpt lat="44.15777" lon="4.09193">
        <ele>167.89</ele>
        <time>2016-04-10T07:54:00Z</time>
      </trkpt>
      <trkpt lat="44.15827" lon="4.08889">
        <ele>158.75</ele>
        <time>2016-04-10T07:54:09Z</time>
      </trkpt>
      <trkpt lat="44.15833" lon="4.08803">
        <ele>158.27</ele>
        <time>2016-04-10T07:54:12Z</time>
      </trkpt>
      <trkpt lat="44.15831" lon="4.08774">
        <ele>158.27</ele>
        <time>2016-04-10T07:54:13Z</time>
      </trkpt>
      <trkpt lat="44.15828" lon="4.08746">
        <ele>158.27</ele>
        <time>2016-04-10T07:54:14Z</time>
      </trkpt>
      <trkpt lat="44.15822" lon="4.08719">
        <ele>158.27</ele>
        <time>2016-04-10T07:54:15Z</time>
      </trkpt>
      <trkpt lat="44.15815" lon="4.08692">
        <ele>158.27</ele>
        <time>2016-04-10T07:54:16Z</time>
      </trkpt>
      <trkpt lat="44.15806" lon="4.08665">
        <ele>158.75</ele>
        <time>2016-04-10T07:54:17Z</time>
      </trkpt>
      <trkpt lat="44.15796" lon="4.0864">
        <ele>158.75</ele>
        <time>2016-04-10T07:54:18Z</time>
      </trkpt>
      <trkpt lat="44.15783" lon="4.08615">
        <ele>158.75</ele>
        <time>2016-04-10T07:54:19Z</time>
      </trkpt>
      <trkpt lat="44.1577" lon="4.08593">
        <ele>159.24</ele>
        <time>2016-04-10T07:54:20Z</time>
      </trkpt>
      <trkpt lat="44.15711" lon="4.08489">
        <ele>159.72</ele>
        <time>2016-04-10T07:54:26Z</time>
      </trkpt>
      <trkpt lat="44.15707" lon="4.08475">
        <ele>159.72</ele>
        <time>2016-04-10T07:54:27Z</time>
      </trkpt>
      <trkpt lat="44.15704" lon="4.08462">
        <ele>160.2</ele>
        <time>2016-04-10T07:54:28Z</time>
      </trkpt>
      <trkpt lat="44.15704" lon="4.08449">
        <ele>160.68</ele>
        <time>2016-04-10T07:54:29Z</time>
      </trkpt>
      <trkpt lat="44.15707" lon="4.08441">
        <ele>161.16</ele>
        <time>2016-04-10T07:54:30Z</time>
      </trkpt>
      <trkpt lat="44.15711" lon="4.0844">
        <ele>161.16</ele>
        <time>2016-04-10T07:54:31Z</time>
      </trkpt>
      <trkpt lat="44.15712" lon="4.08438">
        <ele>161.16</ele>
        <time>2016-04-10T07:54:32Z</time>
      </trkpt>
      <trkpt lat="44.15719" lon="4.08431">
        <ele>161.64</ele>
        <time>2016-04-10T07:54:35Z</time>
      </trkpt>
      <trkpt lat="44.15725" lon="4.08424">
        <ele>162.12</ele>
        <time>2016-04-10T07:54:36Z</time>
      </trkpt>
      <trkpt lat="44.15731" lon="4.08413">
        <ele>162.12</ele>
        <time>2016-04-10T07:54:37Z</time>
      </trkpt>
      <trkpt lat="44.15735" lon="4.08402">
        <ele>162.6</ele>
        <time>2016-04-10T07:54:38Z</time>
      </trkpt>
      <trkpt lat="44.15739" lon="4.08391">
        <ele>162.6</ele>
        <time>2016-04-10T07:54:39Z</time>
      </trkpt>
      <trkpt lat="44.15744" lon="4.08383">
        <ele>162.6</ele>
        <time>2016-04-10T07:54:40Z</time>
      </trkpt>
      <trkpt lat="44.1575" lon="4.08376">
        <ele>163.08</ele>
        <time>2016-04-10T07:54:41Z</time>
      </trkpt>
      <trkpt lat="44.15758" lon="4.08372">
        <ele>163.56</ele>
        <time>2016-04-10T07:54:42Z</time>
      </trkpt>
      <trkpt lat="44.15767" lon="4.08367">
        <ele>164.04</ele>
        <time>2016-04-10T07:54:43Z</time>
      </trkpt>
      <trkpt lat="44.15855" lon="4.08323">
        <ele>167.89</ele>
        <time>2016-04-10T07:54:50Z</time>
      </trkpt>
      <trkpt lat="44.15946" lon="4.08283">
        <ele>169.33</ele>
        <time>2016-04-10T07:54:58Z</time>
      </trkpt>
      <trkpt lat="44.15957" lon="4.08282">
        <ele>169.81</ele>
        <time>2016-04-10T07:54:59Z</time>
      </trkpt>
      <trkpt lat="44.1597" lon="4.08283">
        <ele>170.77</ele>
        <time>2016-04-10T07:55:00Z</time>
      </trkpt>
      <trkpt lat="44.16074" lon="4.08313">
        <ele>174.14</ele>
        <time>2016-04-10T07:55:10Z</time>
      </trkpt>
      <trkpt lat="44.16152" lon="4.08331">
        <ele>175.1</ele>
        <time>2016-04-10T07:55:20Z</time>
      </trkpt>
      <trkpt lat="44.16186" lon="4.0834">
        <ele>176.06</ele>
        <time>2016-04-10T07:55:25Z</time>
      </trkpt>
      <trkpt lat="44.16191" lon="4.08343">
        <ele>176.54</ele>
        <time>2016-04-10T07:55:26Z</time>
      </trkpt>
      <trkpt lat="44.16203" lon="4.08349">
        <ele>176.54</ele>
        <time>2016-04-10T07:55:28Z</time>
      </trkpt>
      <trkpt lat="44.16219" lon="4.08352">
        <ele>176.54</ele>
        <time>2016-04-10T07:55:30Z</time>
      </trkpt>
      <trkpt lat="44.16278" lon="4.08374">
        <ele>181.35</ele>
        <time>2016-04-10T07:55:38Z</time>
      </trkpt>
      <trkpt lat="44.16327" lon="4.08392">
        <ele>181.35</ele>
        <time>2016-04-10T07:55:45Z</time>
      </trkpt>
      <trkpt lat="44.16335" lon="4.08396">
        <ele>180.38</ele>
        <time>2016-04-10T07:55:51Z</time>
      </trkpt>
      <trkpt lat="44.16341" lon="4.08395">
        <ele>180.38</ele>
        <time>2016-04-10T07:55:52Z</time>
      </trkpt>
      <trkpt lat="44.1636" lon="4.08393">
        <ele>180.38</ele>
        <time>2016-04-10T07:55:54Z</time>
      </trkpt>
      <trkpt lat="44.16372" lon="4.08393">
        <ele>180.87</ele>
        <time>2016-04-10T07:55:55Z</time>
      </trkpt>
      <trkpt lat="44.16474" lon="4.08395">
        <ele>182.31</ele>
        <time>2016-04-10T07:56:02Z</time>
      </trkpt>
      <trkpt lat="44.16669" lon="4.08395">
        <ele>190</ele>
        <time>2016-04-10T07:56:14Z</time>
      </trkpt>
      <trkpt lat="44.16815" lon="4.08386">
        <ele>194.32</ele>
        <time>2016-04-10T07:56:21Z</time>
      </trkpt>
      <trkpt lat="44.16838" lon="4.08375">
        <ele>195.28</ele>
        <time>2016-04-10T07:56:22Z</time>
      </trkpt>
      <trkpt lat="44.16909" lon="4.08347">
        <ele>197.69</ele>
        <time>2016-04-10T07:56:25Z</time>
      </trkpt>
      <trkpt lat="44.16936" lon="4.08348">
        <ele>198.17</ele>
        <time>2016-04-10T07:56:26Z</time>
      </trkpt>
      <trkpt lat="44.16963" lon="4.08351">
        <ele>199.13</ele>
        <time>2016-04-10T07:56:27Z</time>
      </trkpt>
      <trkpt lat="44.17138" lon="4.08359">
        <ele>206.82</ele>
        <time>2016-04-10T07:56:34Z</time>
      </trkpt>
      <trkpt lat="44.1721" lon="4.08353">
        <ele>208.74</ele>
        <time>2016-04-10T07:56:38Z</time>
      </trkpt>
      <trkpt lat="44.17225" lon="4.08341">
        <ele>208.74</ele>
        <time>2016-04-10T07:56:39Z</time>
      </trkpt>
      <trkpt lat="44.17238" lon="4.08323">
        <ele>208.74</ele>
        <time>2016-04-10T07:56:40Z</time>
      </trkpt>
      <trkpt lat="44.17247" lon="4.08296">
        <ele>210.19</ele>
        <time>2016-04-10T07:56:41Z</time>
      </trkpt>
      <trkpt lat="44.17257" lon="4.08272">
        <ele>211.63</ele>
        <time>2016-04-10T07:56:42Z</time>
      </trkpt>
      <trkpt lat="44.17267" lon="4.0825">
        <ele>212.59</ele>
        <time>2016-04-10T07:56:43Z</time>
      </trkpt>
      <trkpt lat="44.17281" lon="4.08232">
        <ele>213.07</ele>
        <time>2016-04-10T07:56:44Z</time>
      </trkpt>
      <trkpt lat="44.17299" lon="4.0822">
        <ele>213.55</ele>
        <time>2016-04-10T07:56:45Z</time>
      </trkpt>
      <trkpt lat="44.17319" lon="4.08212">
        <ele>214.03</ele>
        <time>2016-04-10T07:56:46Z</time>
      </trkpt>
      <trkpt lat="44.17342" lon="4.08204">
        <ele>215.47</ele>
        <time>2016-04-10T07:56:47Z</time>
      </trkpt>
      <trkpt lat="44.17367" lon="4.08199">
        <ele>216.43</ele>
        <time>2016-04-10T07:56:48Z</time>
      </trkpt>
      <trkpt lat="44.17392" lon="4.08193">
        <ele>217.4</ele>
        <time>2016-04-10T07:56:49Z</time>
      </trkpt>
      <trkpt lat="44.17641" lon="4.08151">
        <ele>225.09</ele>
        <time>2016-04-10T07:56:59Z</time>
      </trkpt>
      <trkpt lat="44.17784" lon="4.08162">
        <ele>228.45</ele>
        <time>2016-04-10T07:57:06Z</time>
      </trkpt>
      <trkpt lat="44.17866" lon="4.08165">
        <ele>232.3</ele>
        <time>2016-04-10T07:57:11Z</time>
      </trkpt>
      <trkpt lat="44.1788" lon="4.08159">
        <ele>232.3</ele>
        <time>2016-04-10T07:57:12Z</time>
      </trkpt>
      <trkpt lat="44.17894" lon="4.08148">
        <ele>232.78</ele>
        <time>2016-04-10T07:57:13Z</time>
      </trkpt>
      <trkpt lat="44.17908" lon="4.08137">
        <ele>233.26</ele>
        <time>2016-04-10T07:57:14Z</time>
      </trkpt>
      <trkpt lat="44.17923" lon="4.08127">
        <ele>233.74</ele>
        <time>2016-04-10T07:57:15Z</time>
      </trkpt>
      <trkpt lat="44.17938" lon="4.0812">
        <ele>234.7</ele>
        <time>2016-04-10T07:57:16Z</time>
      </trkpt>
      <trkpt lat="44.17955" lon="4.08116">
        <ele>235.66</ele>
        <time>2016-04-10T07:57:17Z</time>
      </trkpt>
      <trkpt lat="44.17972" lon="4.08114">
        <ele>236.62</ele>
        <time>2016-04-10T07:57:18Z</time>
      </trkpt>
      <trkpt lat="44.1799" lon="4.08112">
        <ele>236.62</ele>
        <time>2016-04-10T07:57:19Z</time>
      </trkpt>
      <trkpt lat="44.18027" lon="4.08101">
        <ele>238.06</ele>
        <time>2016-04-10T07:57:21Z</time>
      </trkpt>
      <trkpt lat="44.18081" lon="4.08077">
        <ele>239.51</ele>
        <time>2016-04-10T07:57:24Z</time>
      </trkpt>
      <trkpt lat="44.181" lon="4.08075">
        <ele>239.51</ele>
        <time>2016-04-10T07:57:25Z</time>
      </trkpt>
      <trkpt lat="44.18118" lon="4.08074">
        <ele>240.47</ele>
        <time>2016-04-10T07:57:26Z</time>
      </trkpt>
      <trkpt lat="44.18137" lon="4.08076">
        <ele>240.95</ele>
        <time>2016-04-10T07:57:27Z</time>
      </trkpt>
      <trkpt lat="44.18156" lon="4.08079">
        <ele>241.43</ele>
        <time>2016-04-10T07:57:28Z</time>
      </trkpt>
      <trkpt lat="44.18329" lon="4.08108">
        <ele>246.72</ele>
        <time>2016-04-10T07:57:38Z</time>
      </trkpt>
      <trkpt lat="44.18385" lon="4.08117">
        <ele>250.56</ele>
        <time>2016-04-10T07:57:44Z</time>
      </trkpt>
      <trkpt lat="44.18481" lon="4.08145">
        <ele>255.85</ele>
        <time>2016-04-10T07:57:51Z</time>
      </trkpt>
      <trkpt lat="44.18674" lon="4.0821">
        <ele>266.42</ele>
        <time>2016-04-10T07:58:03Z</time>
      </trkpt>
      <trkpt lat="44.1872" lon="4.08234">
        <ele>268.83</ele>
        <time>2016-04-10T07:58:06Z</time>
      </trkpt>
      <trkpt lat="44.18736" lon="4.08252">
        <ele>269.79</ele>
        <time>2016-04-10T07:58:07Z</time>
      </trkpt>
      <trkpt lat="44.18748" lon="4.08271">
        <ele>270.27</ele>
        <time>2016-04-10T07:58:08Z</time>
      </trkpt>
      <trkpt lat="44.18758" lon="4.08291">
        <ele>271.23</ele>
        <time>2016-04-10T07:58:09Z</time>
      </trkpt>
      <trkpt lat="44.18767" lon="4.0831">
        <ele>271.71</ele>
        <time>2016-04-10T07:58:10Z</time>
      </trkpt>
      <trkpt lat="44.18807" lon="4.08385">
        <ele>274.59</ele>
        <time>2016-04-10T07:58:15Z</time>
      </trkpt>
      <trkpt lat="44.18817" lon="4.08397">
        <ele>275.07</ele>
        <time>2016-04-10T07:58:16Z</time>
      </trkpt>
      <trkpt lat="44.18829" lon="4.08407">
        <ele>276.04</ele>
        <time>2016-04-10T07:58:17Z</time>
      </trkpt>
      <trkpt lat="44.18841" lon="4.08415">
        <ele>276.52</ele>
        <time>2016-04-10T07:58:18Z</time>
      </trkpt>
      <trkpt lat="44.18855" lon="4.08421">
        <ele>277</ele>
        <time>2016-04-10T07:58:19Z</time>
      </trkpt>
      <trkpt lat="44.18871" lon="4.08427">
        <ele>277.96</ele>
        <time>2016-04-10T07:58:20Z</time>
      </trkpt>
      <trkpt lat="44.18995" lon="4.08474">
        <ele>283.25</ele>
        <time>2016-04-10T07:58:27Z</time>
      </trkpt>
      <trkpt lat="44.19082" lon="4.08501">
        <ele>287.09</ele>
        <time>2016-04-10T07:58:33Z</time>
      </trkpt>
      <trkpt lat="44.19096" lon="4.085">
        <ele>288.05</ele>
        <time>2016-04-10T07:58:34Z</time>
      </trkpt>
      <trkpt lat="44.19111" lon="4.08496">
        <ele>288.53</ele>
        <time>2016-04-10T07:58:35Z</time>
      </trkpt>
      <trkpt lat="44.19125" lon="4.08489">
        <ele>289.01</ele>
        <time>2016-04-10T07:58:36Z</time>
      </trkpt>
      <trkpt lat="44.19138" lon="4.08479">
        <ele>289.49</ele>
        <time>2016-04-10T07:58:37Z</time>
      </trkpt>
      <trkpt lat="44.19151" lon="4.08467">
        <ele>289.49</ele>
        <time>2016-04-10T07:58:38Z</time>
      </trkpt>
      <trkpt lat="44.19166" lon="4.08452">
        <ele>290.46</ele>
        <time>2016-04-10T07:58:39Z</time>
      </trkpt>
      <trkpt lat="44.19235" lon="4.08379">
        <ele>293.82</ele>
        <time>2016-04-10T07:58:44Z</time>
      </trkpt>
      <trkpt lat="44.19249" lon="4.08369">
        <ele>294.78</ele>
        <time>2016-04-10T07:58:45Z</time>
      </trkpt>
      <trkpt lat="44.19265" lon="4.08361">
        <ele>295.74</ele>
        <time>2016-04-10T07:58:46Z</time>
      </trkpt>
      <trkpt lat="44.19283" lon="4.08357">
        <ele>296.22</ele>
        <time>2016-04-10T07:58:47Z</time>
      </trkpt>
      <trkpt lat="44.19303" lon="4.08355">
        <ele>296.7</ele>
        <time>2016-04-10T07:58:48Z</time>
      </trkpt>
      <trkpt lat="44.19326" lon="4.08353">
        <ele>297.67</ele>
        <time>2016-04-10T07:58:49Z</time>
      </trkpt>
      <trkpt lat="44.19403" lon="4.08355">
        <ele>301.03</ele>
        <time>2016-04-10T07:58:52Z</time>
      </trkpt>
      <trkpt lat="44.19429" lon="4.08361">
        <ele>301.99</ele>
        <time>2016-04-10T07:58:53Z</time>
      </trkpt>
      <trkpt lat="44.19582" lon="4.08426">
        <ele>307.76</ele>
        <time>2016-04-10T07:58:59Z</time>
      </trkpt>
      <trkpt lat="44.19606" lon="4.08446">
        <ele>308.72</ele>
        <time>2016-04-10T07:59:00Z</time>
      </trkpt>
      <trkpt lat="44.19698" lon="4.08525">
        <ele>310.64</ele>
        <time>2016-04-10T07:59:04Z</time>
      </trkpt>
      <trkpt lat="44.19725" lon="4.08535">
        <ele>311.12</ele>
        <time>2016-04-10T07:59:05Z</time>
      </trkpt>
      <trkpt lat="44.19754" lon="4.0854">
        <ele>311.6</ele>
        <time>2016-04-10T07:59:06Z</time>
      </trkpt>
      <trkpt lat="44.19783" lon="4.08542">
        <ele>312.57</ele>
        <time>2016-04-10T07:59:07Z</time>
      </trkpt>
      <trkpt lat="44.19812" lon="4.08543">
        <ele>313.53</ele>
        <time>2016-04-10T07:59:08Z</time>
      </trkpt>
      <trkpt lat="44.19893" lon="4.08559">
        <ele>317.37</ele>
        <time>2016-04-10T07:59:11Z</time>
      </trkpt>
      <trkpt lat="44.19919" lon="4.08572">
        <ele>318.81</ele>
        <time>2016-04-10T07:59:12Z</time>
      </trkpt>
      <trkpt lat="44.19944" lon="4.08588">
        <ele>320.74</ele>
        <time>2016-04-10T07:59:13Z</time>
      </trkpt>
      <trkpt lat="44.19968" lon="4.08609">
        <ele>322.66</ele>
        <time>2016-04-10T07:59:14Z</time>
      </trkpt>
      <trkpt lat="44.19991" lon="4.08631">
        <ele>325.06</ele>
        <time>2016-04-10T07:59:15Z</time>
      </trkpt>
      <trkpt lat="44.20013" lon="4.08655">
        <ele>327.47</ele>
        <time>2016-04-10T07:59:16Z</time>
      </trkpt>
      <trkpt lat="44.20033" lon="4.08679">
        <ele>330.35</ele>
        <time>2016-04-10T07:59:17Z</time>
      </trkpt>
      <trkpt lat="44.20175" lon="4.08853">
        <ele>347.17</ele>
        <time>2016-04-10T07:59:25Z</time>
      </trkpt>
      <trkpt lat="44.20187" lon="4.0888">
        <ele>348.62</ele>
        <time>2016-04-10T07:59:26Z</time>
      </trkpt>
      <trkpt lat="44.20196" lon="4.0891">
        <ele>350.54</ele>
        <time>2016-04-10T07:59:27Z</time>
      </trkpt>
      <trkpt lat="44.20202" lon="4.08943">
        <ele>352.46</ele>
        <time>2016-04-10T07:59:28Z</time>
      </trkpt>
      <trkpt lat="44.20203" lon="4.08977">
        <ele>354.38</ele>
        <time>2016-04-10T07:59:29Z</time>
      </trkpt>
      <trkpt lat="44.20202" lon="4.09012">
        <ele>355.83</ele>
        <time>2016-04-10T07:59:30Z</time>
      </trkpt>
      <trkpt lat="44.20204" lon="4.09045">
        <ele>357.75</ele>
        <time>2016-04-10T07:59:31Z</time>
      </trkpt>
      <trkpt lat="44.20208" lon="4.09077">
        <ele>359.19</ele>
        <time>2016-04-10T07:59:32Z</time>
      </trkpt>
      <trkpt lat="44.20214" lon="4.09107">
        <ele>361.11</ele>
        <time>2016-04-10T07:59:33Z</time>
      </trkpt>
      <trkpt lat="44.20223" lon="4.09135">
        <ele>363.04</ele>
        <time>2016-04-10T07:59:34Z</time>
      </trkpt>
      <trkpt lat="44.20236" lon="4.09161">
        <ele>364.48</ele>
        <time>2016-04-10T07:59:35Z</time>
      </trkpt>
      <trkpt lat="44.20258" lon="4.0918">
        <ele>365.92</ele>
        <time>2016-04-10T07:59:36Z</time>
      </trkpt>
      <trkpt lat="44.20281" lon="4.09198">
        <ele>367.84</ele>
        <time>2016-04-10T07:59:37Z</time>
      </trkpt>
      <trkpt lat="44.20304" lon="4.09213">
        <ele>369.28</ele>
        <time>2016-04-10T07:59:38Z</time>
      </trkpt>
      <trkpt lat="44.20329" lon="4.09226">
        <ele>371.69</ele>
        <time>2016-04-10T07:59:39Z</time>
      </trkpt>
      <trkpt lat="44.20353" lon="4.0924">
        <ele>373.61</ele>
        <time>2016-04-10T07:59:40Z</time>
      </trkpt>
      <trkpt lat="44.20464" lon="4.09344">
        <ele>384.66</ele>
        <time>2016-04-10T07:59:45Z</time>
      </trkpt>
      <trkpt lat="44.20558" lon="4.0941">
        <ele>393.8</ele>
        <time>2016-04-10T07:59:49Z</time>
      </trkpt>
      <trkpt lat="44.20583" lon="4.09418">
        <ele>395.72</ele>
        <time>2016-04-10T07:59:50Z</time>
      </trkpt>
      <trkpt lat="44.20611" lon="4.09423">
        <ele>397.64</ele>
        <time>2016-04-10T07:59:51Z</time>
      </trkpt>
      <trkpt lat="44.20639" lon="4.09425">
        <ele>399.57</ele>
        <time>2016-04-10T07:59:52Z</time>
      </trkpt>
      <trkpt lat="44.20668" lon="4.09424">
        <ele>401.49</ele>
        <time>2016-04-10T07:59:53Z</time>
      </trkpt>
      <trkpt lat="44.20878" lon="4.09434">
        <ele>415.91</ele>
        <time>2016-04-10T08:00:01Z</time>
      </trkpt>
      <trkpt lat="44.21064" lon="4.09472">
        <ele>431.77</ele>
        <time>2016-04-10T08:00:10Z</time>
      </trkpt>
      <trkpt lat="44.21086" lon="4.0947">
        <ele>433.21</ele>
        <time>2016-04-10T08:00:11Z</time>
      </trkpt>
      <trkpt lat="44.2111" lon="4.09462">
        <ele>435.13</ele>
        <time>2016-04-10T08:00:12Z</time>
      </trkpt>
      <trkpt lat="44.21135" lon="4.09452">
        <ele>437.06</ele>
        <time>2016-04-10T08:00:13Z</time>
      </trkpt>
      <trkpt lat="44.21161" lon="4.09437">
        <ele>438.5</ele>
        <time>2016-04-10T08:00:14Z</time>
      </trkpt>
      <trkpt lat="44.21188" lon="4.09418">
        <ele>439.94</ele>
        <time>2016-04-10T08:00:15Z</time>
      </trkpt>
      <trkpt lat="44.21213" lon="4.09395">
        <ele>441.86</ele>
        <time>2016-04-10T08:00:16Z</time>
      </trkpt>
      <trkpt lat="44.21237" lon="4.09367">
        <ele>443.79</ele>
        <time>2016-04-10T08:00:17Z</time>
      </trkpt>
      <trkpt lat="44.2126" lon="4.09334">
        <ele>445.71</ele>
        <time>2016-04-10T08:00:18Z</time>
      </trkpt>
      <trkpt lat="44.21281" lon="4.09296">
        <ele>447.63</ele>
        <time>2016-04-10T08:00:19Z</time>
      </trkpt>
      <trkpt lat="44.21299" lon="4.09254">
        <ele>450.52</ele>
        <time>2016-04-10T08:00:20Z</time>
      </trkpt>
      <trkpt lat="44.21316" lon="4.09208">
        <ele>453.4</ele>
        <time>2016-04-10T08:00:21Z</time>
      </trkpt>
      <trkpt lat="44.21332" lon="4.09161">
        <ele>456.28</ele>
        <time>2016-04-10T08:00:22Z</time>
      </trkpt>
      <trkpt lat="44.21412" lon="4.08924">
        <ele>475.99</ele>
        <time>2016-04-10T08:00:28Z</time>
      </trkpt>
      <trkpt lat="44.21439" lon="4.08885">
        <ele>483.2</ele>
        <time>2016-04-10T08:00:30Z</time>
      </trkpt>
      <trkpt lat="44.2146" lon="4.08878">
        <ele>483.68</ele>
        <time>2016-04-10T08:00:31Z</time>
      </trkpt>
      <trkpt lat="44.21484" lon="4.08873">
        <ele>483.68</ele>
        <time>2016-04-10T08:00:32Z</time>
      </trkpt>
      <trkpt lat="44.2151" lon="4.08871">
        <ele>482.24</ele>
        <time>2016-04-10T08:00:33Z</time>
      </trkpt>
      <trkpt lat="44.21535" lon="4.08869">
        <ele>479.35</ele>
        <time>2016-04-10T08:00:34Z</time>
      </trkpt>
      <trkpt lat="44.2156" lon="4.08866">
        <ele>476.47</ele>
        <time>2016-04-10T08:00:35Z</time>
      </trkpt>
      <trkpt lat="44.21585" lon="4.08862">
        <ele>473.59</ele>
        <time>2016-04-10T08:00:36Z</time>
      </trkpt>
      <trkpt lat="44.21605" lon="4.0885">
        <ele>471.18</ele>
        <time>2016-04-10T08:00:37Z</time>
      </trkpt>
      <trkpt lat="44.21623" lon="4.08834">
        <ele>468.3</ele>
        <time>2016-04-10T08:00:38Z</time>
      </trkpt>
      <trkpt lat="44.2164" lon="4.08814">
        <ele>464.93</ele>
        <time>2016-04-10T08:00:39Z</time>
      </trkpt>
      <trkpt lat="44.21653" lon="4.08787">
        <ele>461.57</ele>
        <time>2016-04-10T08:00:40Z</time>
      </trkpt>
      <trkpt lat="44.21663" lon="4.08757">
        <ele>458.69</ele>
        <time>2016-04-10T08:00:41Z</time>
      </trkpt>
      <trkpt lat="44.21669" lon="4.08725">
        <ele>455.32</ele>
        <time>2016-04-10T08:00:42Z</time>
      </trkpt>
      <trkpt lat="44.21674" lon="4.08694">
        <ele>450.03</ele>
        <time>2016-04-10T08:00:43Z</time>
      </trkpt>
      <trkpt lat="44.21673" lon="4.08659">
        <ele>446.19</ele>
        <time>2016-04-10T08:00:44Z</time>
      </trkpt>
      <trkpt lat="44.2167" lon="4.08624">
        <ele>441.86</ele>
        <time>2016-04-10T08:00:45Z</time>
      </trkpt>
      <trkpt lat="44.21661" lon="4.0859">
        <ele>437.06</ele>
        <time>2016-04-10T08:00:46Z</time>
      </trkpt>
      <trkpt lat="44.21655" lon="4.08555">
        <ele>433.21</ele>
        <time>2016-04-10T08:00:47Z</time>
      </trkpt>
      <trkpt lat="44.2165" lon="4.08494">
        <ele>425.04</ele>
        <time>2016-04-10T08:00:49Z</time>
      </trkpt>
      <trkpt lat="44.21655" lon="4.08464">
        <ele>421.68</ele>
        <time>2016-04-10T08:00:50Z</time>
      </trkpt>
      <trkpt lat="44.21665" lon="4.08437">
        <ele>418.79</ele>
        <time>2016-04-10T08:00:51Z</time>
      </trkpt>
      <trkpt lat="44.2168" lon="4.08414">
        <ele>414.95</ele>
        <time>2016-04-10T08:00:52Z</time>
      </trkpt>
      <trkpt lat="44.21699" lon="4.08394">
        <ele>412.06</ele>
        <time>2016-04-10T08:00:53Z</time>
      </trkpt>
      <trkpt lat="44.21723" lon="4.08385">
        <ele>408.7</ele>
        <time>2016-04-10T08:00:54Z</time>
      </trkpt>
      <trkpt lat="44.2175" lon="4.08382">
        <ele>404.85</ele>
        <time>2016-04-10T08:00:55Z</time>
      </trkpt>
      <trkpt lat="44.2178" lon="4.08381">
        <ele>402.93</ele>
        <time>2016-04-10T08:00:56Z</time>
      </trkpt>
      <trkpt lat="44.21807" lon="4.08381">
        <ele>400.53</ele>
        <time>2016-04-10T08:00:57Z</time>
      </trkpt>
      <trkpt lat="44.21834" lon="4.0838">
        <ele>397.64</ele>
        <time>2016-04-10T08:00:58Z</time>
      </trkpt>
      <trkpt lat="44.21861" lon="4.08375">
        <ele>394.76</ele>
        <time>2016-04-10T08:00:59Z</time>
      </trkpt>
      <trkpt lat="44.21889" lon="4.08365">
        <ele>391.87</ele>
        <time>2016-04-10T08:01:00Z</time>
      </trkpt>
      <trkpt lat="44.21915" lon="4.08353">
        <ele>389.47</ele>
        <time>2016-04-10T08:01:01Z</time>
      </trkpt>
      <trkpt lat="44.21966" lon="4.08332">
        <ele>384.18</ele>
        <time>2016-04-10T08:01:03Z</time>
      </trkpt>
      <trkpt lat="44.21991" lon="4.08329">
        <ele>381.3</ele>
        <time>2016-04-10T08:01:04Z</time>
      </trkpt>
      <trkpt lat="44.22017" lon="4.08333">
        <ele>378.9</ele>
        <time>2016-04-10T08:01:05Z</time>
      </trkpt>
      <trkpt lat="44.22041" lon="4.08342">
        <ele>375.53</ele>
        <time>2016-04-10T08:01:06Z</time>
      </trkpt>
      <trkpt lat="44.22065" lon="4.08359">
        <ele>373.13</ele>
        <time>2016-04-10T08:01:07Z</time>
      </trkpt>
      <trkpt lat="44.22089" lon="4.08377">
        <ele>370.73</ele>
        <time>2016-04-10T08:01:08Z</time>
      </trkpt>
      <trkpt lat="44.22111" lon="4.08395">
        <ele>368.32</ele>
        <time>2016-04-10T08:01:09Z</time>
      </trkpt>
      <trkpt lat="44.22157" lon="4.0842">
        <ele>363.52</ele>
        <time>2016-04-10T08:01:11Z</time>
      </trkpt>
      <trkpt lat="44.2218" lon="4.08425">
        <ele>361.11</ele>
        <time>2016-04-10T08:01:12Z</time>
      </trkpt>
      <trkpt lat="44.22203" lon="4.08424">
        <ele>358.71</ele>
        <time>2016-04-10T08:01:13Z</time>
      </trkpt>
      <trkpt lat="44.22225" lon="4.08418">
        <ele>355.34</ele>
        <time>2016-04-10T08:01:14Z</time>
      </trkpt>
      <trkpt lat="44.22248" lon="4.08405">
        <ele>352.46</ele>
        <time>2016-04-10T08:01:15Z</time>
      </trkpt>
      <trkpt lat="44.22269" lon="4.08387">
        <ele>350.06</ele>
        <time>2016-04-10T08:01:16Z</time>
      </trkpt>
      <trkpt lat="44.22288" lon="4.08363">
        <ele>347.65</ele>
        <time>2016-04-10T08:01:17Z</time>
      </trkpt>
      <trkpt lat="44.22307" lon="4.08334">
        <ele>345.25</ele>
        <time>2016-04-10T08:01:18Z</time>
      </trkpt>
      <trkpt lat="44.22324" lon="4.08303">
        <ele>342.37</ele>
        <time>2016-04-10T08:01:19Z</time>
      </trkpt>
      <trkpt lat="44.22341" lon="4.08269">
        <ele>340.44</ele>
        <time>2016-04-10T08:01:20Z</time>
      </trkpt>
      <trkpt lat="44.22356" lon="4.08235">
        <ele>338.04</ele>
        <time>2016-04-10T08:01:21Z</time>
      </trkpt>
      <trkpt lat="44.2237" lon="4.08199">
        <ele>335.64</ele>
        <time>2016-04-10T08:01:22Z</time>
      </trkpt>
      <trkpt lat="44.22422" lon="4.07979">
        <ele>332.27</ele>
        <time>2016-04-10T08:01:28Z</time>
      </trkpt>
      <trkpt lat="44.22477" lon="4.07782">
        <ele>345.73</ele>
        <time>2016-04-10T08:01:34Z</time>
      </trkpt>
      <trkpt lat="44.22492" lon="4.07756">
        <ele>347.17</ele>
        <time>2016-04-10T08:01:35Z</time>
      </trkpt>
      <trkpt lat="44.22509" lon="4.07734">
        <ele>348.62</ele>
        <time>2016-04-10T08:01:36Z</time>
      </trkpt>
      <trkpt lat="44.22571" lon="4.07632">
        <ele>359.19</ele>
        <time>2016-04-10T08:01:40Z</time>
      </trkpt>
      <trkpt lat="44.22574" lon="4.076">
        <ele>361.59</ele>
        <time>2016-04-10T08:01:41Z</time>
      </trkpt>
      <trkpt lat="44.22573" lon="4.07565">
        <ele>364.48</ele>
        <time>2016-04-10T08:01:42Z</time>
      </trkpt>
      <trkpt lat="44.22569" lon="4.07531">
        <ele>366.4</ele>
        <time>2016-04-10T08:01:43Z</time>
      </trkpt>
      <trkpt lat="44.22561" lon="4.07498">
        <ele>368.32</ele>
        <time>2016-04-10T08:01:44Z</time>
      </trkpt>
      <trkpt lat="44.22545" lon="4.07467">
        <ele>369.76</ele>
        <time>2016-04-10T08:01:45Z</time>
      </trkpt>
      <trkpt lat="44.22525" lon="4.07435">
        <ele>369.76</ele>
        <time>2016-04-10T08:01:46Z</time>
      </trkpt>
      <trkpt lat="44.22507" lon="4.07404">
        <ele>369.28</ele>
        <time>2016-04-10T08:01:47Z</time>
      </trkpt>
      <trkpt lat="44.22437" lon="4.07254">
        <ele>365.92</ele>
        <time>2016-04-10T08:01:52Z</time>
      </trkpt>
      <trkpt lat="44.22433" lon="4.07222">
        <ele>365.44</ele>
        <time>2016-04-10T08:01:53Z</time>
      </trkpt>
      <trkpt lat="44.22437" lon="4.07188">
        <ele>366.88</ele>
        <time>2016-04-10T08:01:54Z</time>
      </trkpt>
      <trkpt lat="44.22442" lon="4.07153">
        <ele>367.36</ele>
        <time>2016-04-10T08:01:55Z</time>
      </trkpt>
      <trkpt lat="44.22448" lon="4.07118">
        <ele>368.32</ele>
        <time>2016-04-10T08:01:56Z</time>
      </trkpt>
      <trkpt lat="44.22456" lon="4.07045">
        <ele>369.76</ele>
        <time>2016-04-10T08:01:58Z</time>
      </trkpt>
      <trkpt lat="44.22456" lon="4.07007">
        <ele>371.21</ele>
        <time>2016-04-10T08:01:59Z</time>
      </trkpt>
      <trkpt lat="44.22434" lon="4.06752">
        <ele>379.86</ele>
        <time>2016-04-10T08:02:06Z</time>
      </trkpt>
      <trkpt lat="44.22434" lon="4.0668">
        <ele>382.26</ele>
        <time>2016-04-10T08:02:08Z</time>
      </trkpt>
      <trkpt lat="44.22438" lon="4.06645">
        <ele>383.22</ele>
        <time>2016-04-10T08:02:09Z</time>
      </trkpt>
      <trkpt lat="44.22444" lon="4.06612">
        <ele>384.18</ele>
        <time>2016-04-10T08:02:10Z</time>
      </trkpt>
      <trkpt lat="44.22453" lon="4.06579">
        <ele>384.66</ele>
        <time>2016-04-10T08:02:11Z</time>
      </trkpt>
      <trkpt lat="44.22464" lon="4.06548">
        <ele>385.63</ele>
        <time>2016-04-10T08:02:12Z</time>
      </trkpt>
      <trkpt lat="44.2248" lon="4.06521">
        <ele>387.07</ele>
        <time>2016-04-10T08:02:13Z</time>
      </trkpt>
      <trkpt lat="44.22496" lon="4.06495">
        <ele>388.51</ele>
        <time>2016-04-10T08:02:14Z</time>
      </trkpt>
      <trkpt lat="44.22515" lon="4.06471">
        <ele>389.47</ele>
        <time>2016-04-10T08:02:15Z</time>
      </trkpt>
      <trkpt lat="44.22535" lon="4.06451">
        <ele>389.95</ele>
        <time>2016-04-10T08:02:16Z</time>
      </trkpt>
      <trkpt lat="44.22556" lon="4.06432">
        <ele>389.95</ele>
        <time>2016-04-10T08:02:17Z</time>
      </trkpt>
      <trkpt lat="44.22578" lon="4.06415">
        <ele>390.43</ele>
        <time>2016-04-10T08:02:18Z</time>
      </trkpt>
      <trkpt lat="44.22748" lon="4.06292">
        <ele>388.03</ele>
        <time>2016-04-10T08:02:26Z</time>
      </trkpt>
      <trkpt lat="44.22812" lon="4.06247">
        <ele>388.03</ele>
        <time>2016-04-10T08:02:32Z</time>
      </trkpt>
      <trkpt lat="44.22834" lon="4.06229">
        <ele>387.55</ele>
        <time>2016-04-10T08:02:39Z</time>
      </trkpt>
      <trkpt lat="44.22837" lon="4.06227">
        <ele>387.55</ele>
        <time>2016-04-10T08:02:51Z</time>
      </trkpt>
      <trkpt lat="44.22859" lon="4.06213">
        <ele>388.03</ele>
        <time>2016-04-10T08:05:45Z</time>
      </trkpt>
      <trkpt lat="44.22914" lon="4.06177">
        <ele>388.51</ele>
        <time>2016-04-10T08:05:53Z</time>
      </trkpt>
      <trkpt lat="44.22921" lon="4.0617">
        <ele>388.03</ele>
        <time>2016-04-10T08:05:54Z</time>
      </trkpt>
      <trkpt lat="44.22927" lon="4.06163">
        <ele>388.03</ele>
        <time>2016-04-10T08:05:55Z</time>
      </trkpt>
      <trkpt lat="44.22933" lon="4.06154">
        <ele>388.03</ele>
        <time>2016-04-10T08:05:56Z</time>
      </trkpt>
      <trkpt lat="44.22938" lon="4.06144">
        <ele>388.03</ele>
        <time>2016-04-10T08:05:57Z</time>
      </trkpt>
      <trkpt lat="44.22943" lon="4.06134">
        <ele>387.55</ele>
        <time>2016-04-10T08:05:58Z</time>
      </trkpt>
      <trkpt lat="44.22947" lon="4.06123">
        <ele>387.55</ele>
        <time>2016-04-10T08:05:59Z</time>
      </trkpt>
      <trkpt lat="44.22956" lon="4.06104">
        <ele>387.07</ele>
        <time>2016-04-10T08:06:01Z</time>
      </trkpt>
      <trkpt lat="44.22961" lon="4.06096">
        <ele>387.07</ele>
        <time>2016-04-10T08:06:02Z</time>
      </trkpt>
      <trkpt lat="44.2301" lon="4.06036">
        <ele>388.51</ele>
        <time>2016-04-10T08:06:12Z</time>
      </trkpt>
      <trkpt lat="44.23025" lon="4.06009">
        <ele>389.95</ele>
        <time>2016-04-10T08:06:15Z</time>
      </trkpt>
      <trkpt lat="44.2308" lon="4.0591">
        <ele>388.99</ele>
        <time>2016-04-10T08:06:27Z</time>
      </trkpt>
      <trkpt lat="44.23155" lon="4.05805">
        <ele>393.8</ele>
        <time>2016-04-10T08:06:40Z</time>
      </trkpt>
      <trkpt lat="44.23191" lon="4.05749">
        <ele>397.16</ele>
        <time>2016-04-10T08:06:45Z</time>
      </trkpt>
      <trkpt lat="44.232" lon="4.05739">
        <ele>397.64</ele>
        <time>2016-04-10T08:06:46Z</time>
      </trkpt>
      <trkpt lat="44.23222" lon="4.05719">
        <ele>396.2</ele>
        <time>2016-04-10T08:06:48Z</time>
      </trkpt>
      <trkpt lat="44.23234" lon="4.0571">
        <ele>395.72</ele>
        <time>2016-04-10T08:06:49Z</time>
      </trkpt>
      <trkpt lat="44.23358" lon="4.05645">
        <ele>394.76</ele>
        <time>2016-04-10T08:06:58Z</time>
      </trkpt>
      <trkpt lat="44.23421" lon="4.0562">
        <ele>395.72</ele>
        <time>2016-04-10T08:07:03Z</time>
      </trkpt>
      <trkpt lat="44.23435" lon="4.05618">
        <ele>395.72</ele>
        <time>2016-04-10T08:07:04Z</time>
      </trkpt>
      <trkpt lat="44.23466" lon="4.05612">
        <ele>395.72</ele>
        <time>2016-04-10T08:07:06Z</time>
      </trkpt>
      <trkpt lat="44.23483" lon="4.05603">
        <ele>395.72</ele>
        <time>2016-04-10T08:07:07Z</time>
      </trkpt>
      <trkpt lat="44.23499" lon="4.05591">
        <ele>395.24</ele>
        <time>2016-04-10T08:07:08Z</time>
      </trkpt>
      <trkpt lat="44.23553" lon="4.05566">
        <ele>395.24</ele>
        <time>2016-04-10T08:07:11Z</time>
      </trkpt>
      <trkpt lat="44.23574" lon="4.05562">
        <ele>394.28</ele>
        <time>2016-04-10T08:07:12Z</time>
      </trkpt>
      <trkpt lat="44.23695" lon="4.05555">
        <ele>391.39</ele>
        <time>2016-04-10T08:07:18Z</time>
      </trkpt>
      <trkpt lat="44.23714" lon="4.05566">
        <ele>390.43</ele>
        <time>2016-04-10T08:07:19Z</time>
      </trkpt>
      <trkpt lat="44.23732" lon="4.05578">
        <ele>389.47</ele>
        <time>2016-04-10T08:07:20Z</time>
      </trkpt>
      <trkpt lat="44.23769" lon="4.05596">
        <ele>387.07</ele>
        <time>2016-04-10T08:07:22Z</time>
      </trkpt>
      <trkpt lat="44.23789" lon="4.05598">
        <ele>386.11</ele>
        <time>2016-04-10T08:07:23Z</time>
      </trkpt>
      <trkpt lat="44.23808" lon="4.05593">
        <ele>384.66</ele>
        <time>2016-04-10T08:07:24Z</time>
      </trkpt>
      <trkpt lat="44.23827" lon="4.05584">
        <ele>383.7</ele>
        <time>2016-04-10T08:07:25Z</time>
      </trkpt>
      <trkpt lat="44.23844" lon="4.05575">
        <ele>382.74</ele>
        <time>2016-04-10T08:07:26Z</time>
      </trkpt>
      <trkpt lat="44.23861" lon="4.05569">
        <ele>381.78</ele>
        <time>2016-04-10T08:07:27Z</time>
      </trkpt>
      <trkpt lat="44.23877" lon="4.05569">
        <ele>380.82</ele>
        <time>2016-04-10T08:07:28Z</time>
      </trkpt>
      <trkpt lat="44.23892" lon="4.05575">
        <ele>379.86</ele>
        <time>2016-04-10T08:07:29Z</time>
      </trkpt>
      <trkpt lat="44.23905" lon="4.05586">
        <ele>378.9</ele>
        <time>2016-04-10T08:07:30Z</time>
      </trkpt>
      <trkpt lat="44.23916" lon="4.05597">
        <ele>377.45</ele>
        <time>2016-04-10T08:07:31Z</time>
      </trkpt>
      <trkpt lat="44.23929" lon="4.05606">
        <ele>376.01</ele>
        <time>2016-04-10T08:07:32Z</time>
      </trkpt>
      <trkpt lat="44.23944" lon="4.05607">
        <ele>375.53</ele>
        <time>2016-04-10T08:07:33Z</time>
      </trkpt>
      <trkpt lat="44.2396" lon="4.05606">
        <ele>375.53</ele>
        <time>2016-04-10T08:07:34Z</time>
      </trkpt>
      <trkpt lat="44.23977" lon="4.05602">
        <ele>375.53</ele>
        <time>2016-04-10T08:07:35Z</time>
      </trkpt>
      <trkpt lat="44.23994" lon="4.05597">
        <ele>375.05</ele>
        <time>2016-04-10T08:07:36Z</time>
      </trkpt>
      <trkpt lat="44.2401" lon="4.0559">
        <ele>374.57</ele>
        <time>2016-04-10T08:07:37Z</time>
      </trkpt>
      <trkpt lat="44.24025" lon="4.05577">
        <ele>374.09</ele>
        <time>2016-04-10T08:07:38Z</time>
      </trkpt>
      <trkpt lat="44.2404" lon="4.0556">
        <ele>373.13</ele>
        <time>2016-04-10T08:07:39Z</time>
      </trkpt>
      <trkpt lat="44.24052" lon="4.0554">
        <ele>373.13</ele>
        <time>2016-04-10T08:07:40Z</time>
      </trkpt>
      <trkpt lat="44.24063" lon="4.05518">
        <ele>371.69</ele>
        <time>2016-04-10T08:07:41Z</time>
      </trkpt>
      <trkpt lat="44.24072" lon="4.05494">
        <ele>371.69</ele>
        <time>2016-04-10T08:07:42Z</time>
      </trkpt>
      <trkpt lat="44.2408" lon="4.05472">
        <ele>370.73</ele>
        <time>2016-04-10T08:07:43Z</time>
      </trkpt>
      <trkpt lat="44.24148" lon="4.05375">
        <ele>365.44</ele>
        <time>2016-04-10T08:07:50Z</time>
      </trkpt>
      <trkpt lat="44.24161" lon="4.05374">
        <ele>364.48</ele>
        <time>2016-04-10T08:07:51Z</time>
      </trkpt>
      <trkpt lat="44.24179" lon="4.05376">
        <ele>363.52</ele>
        <time>2016-04-10T08:07:52Z</time>
      </trkpt>
      <trkpt lat="44.24216" lon="4.05361">
        <ele>362.07</ele>
        <time>2016-04-10T08:07:54Z</time>
      </trkpt>
      <trkpt lat="44.24232" lon="4.05347">
        <ele>361.11</ele>
        <time>2016-04-10T08:07:55Z</time>
      </trkpt>
      <trkpt lat="44.24249" lon="4.05332">
        <ele>360.63</ele>
        <time>2016-04-10T08:07:56Z</time>
      </trkpt>
      <trkpt lat="44.24264" lon="4.05319">
        <ele>359.67</ele>
        <time>2016-04-10T08:07:57Z</time>
      </trkpt>
      <trkpt lat="44.24279" lon="4.05307">
        <ele>359.19</ele>
        <time>2016-04-10T08:07:58Z</time>
      </trkpt>
      <trkpt lat="44.24295" lon="4.05298">
        <ele>358.23</ele>
        <time>2016-04-10T08:07:59Z</time>
      </trkpt>
      <trkpt lat="44.24311" lon="4.05291">
        <ele>357.27</ele>
        <time>2016-04-10T08:08:00Z</time>
      </trkpt>
      <trkpt lat="44.24327" lon="4.05287">
        <ele>356.31</ele>
        <time>2016-04-10T08:08:01Z</time>
      </trkpt>
      <trkpt lat="44.24342" lon="4.05285">
        <ele>355.83</ele>
        <time>2016-04-10T08:08:02Z</time>
      </trkpt>
      <trkpt lat="44.24357" lon="4.05284">
        <ele>355.34</ele>
        <time>2016-04-10T08:08:03Z</time>
      </trkpt>
      <trkpt lat="44.24418" lon="4.05279">
        <ele>353.42</ele>
        <time>2016-04-10T08:08:08Z</time>
      </trkpt>
      <trkpt lat="44.24428" lon="4.05275">
        <ele>353.42</ele>
        <time>2016-04-10T08:08:09Z</time>
      </trkpt>
      <trkpt lat="44.24436" lon="4.05269">
        <ele>352.94</ele>
        <time>2016-04-10T08:08:10Z</time>
      </trkpt>
      <trkpt lat="44.24441" lon="4.05257">
        <ele>352.46</ele>
        <time>2016-04-10T08:08:11Z</time>
      </trkpt>
      <trkpt lat="44.24442" lon="4.05246">
        <ele>351.5</ele>
        <time>2016-04-10T08:08:12Z</time>
      </trkpt>
      <trkpt lat="44.2444" lon="4.05234">
        <ele>350.54</ele>
        <time>2016-04-10T08:08:13Z</time>
      </trkpt>
      <trkpt lat="44.24438" lon="4.0522">
        <ele>349.58</ele>
        <time>2016-04-10T08:08:14Z</time>
      </trkpt>
      <trkpt lat="44.24436" lon="4.05206">
        <ele>348.13</ele>
        <time>2016-04-10T08:08:15Z</time>
      </trkpt>
      <trkpt lat="44.24436" lon="4.05192">
        <ele>347.17</ele>
        <time>2016-04-10T08:08:16Z</time>
      </trkpt>
      <trkpt lat="44.24437" lon="4.05177">
        <ele>347.17</ele>
        <time>2016-04-10T08:08:17Z</time>
      </trkpt>
      <trkpt lat="44.24442" lon="4.05165">
        <ele>345.73</ele>
        <time>2016-04-10T08:08:18Z</time>
      </trkpt>
      <trkpt lat="44.2445" lon="4.05155">
        <ele>344.77</ele>
        <time>2016-04-10T08:08:19Z</time>
      </trkpt>
      <trkpt lat="44.24461" lon="4.05149">
        <ele>343.33</ele>
        <time>2016-04-10T08:08:20Z</time>
      </trkpt>
      <trkpt lat="44.24474" lon="4.05149">
        <ele>342.85</ele>
        <time>2016-04-10T08:08:21Z</time>
      </trkpt>
      <trkpt lat="44.24488" lon="4.05156">
        <ele>341.89</ele>
        <time>2016-04-10T08:08:22Z</time>
      </trkpt>
      <trkpt lat="44.24501" lon="4.05164">
        <ele>341.41</ele>
        <time>2016-04-10T08:08:23Z</time>
      </trkpt>
      <trkpt lat="44.24513" lon="4.05176">
        <ele>340.44</ele>
        <time>2016-04-10T08:08:24Z</time>
      </trkpt>
      <trkpt lat="44.24524" lon="4.05188">
        <ele>339.48</ele>
        <time>2016-04-10T08:08:25Z</time>
      </trkpt>
      <trkpt lat="44.24533" lon="4.05208">
        <ele>338.52</ele>
        <time>2016-04-10T08:08:26Z</time>
      </trkpt>
      <trkpt lat="44.2454" lon="4.05226">
        <ele>337.56</ele>
        <time>2016-04-10T08:08:27Z</time>
      </trkpt>
      <trkpt lat="44.24548" lon="4.05244">
        <ele>337.08</ele>
        <time>2016-04-10T08:08:28Z</time>
      </trkpt>
      <trkpt lat="44.24557" lon="4.0526">
        <ele>336.12</ele>
        <time>2016-04-10T08:08:29Z</time>
      </trkpt>
      <trkpt lat="44.24568" lon="4.05276">
        <ele>335.16</ele>
        <time>2016-04-10T08:08:30Z</time>
      </trkpt>
      <trkpt lat="44.24581" lon="4.05291">
        <ele>334.68</ele>
        <time>2016-04-10T08:08:31Z</time>
      </trkpt>
      <trkpt lat="44.24595" lon="4.05309">
        <ele>334.2</ele>
        <time>2016-04-10T08:08:32Z</time>
      </trkpt>
      <trkpt lat="44.24607" lon="4.05329">
        <ele>333.23</ele>
        <time>2016-04-10T08:08:33Z</time>
      </trkpt>
      <trkpt lat="44.24619" lon="4.05352">
        <ele>332.27</ele>
        <time>2016-04-10T08:08:34Z</time>
      </trkpt>
      <trkpt lat="44.24629" lon="4.05375">
        <ele>331.79</ele>
        <time>2016-04-10T08:08:35Z</time>
      </trkpt>
      <trkpt lat="44.24675" lon="4.05557">
        <ele>322.66</ele>
        <time>2016-04-10T08:08:42Z</time>
      </trkpt>
      <trkpt lat="44.24681" lon="4.05651">
        <ele>319.3</ele>
        <time>2016-04-10T08:08:46Z</time>
      </trkpt>
      <trkpt lat="44.24678" lon="4.0567">
        <ele>317.85</ele>
        <time>2016-04-10T08:08:47Z</time>
      </trkpt>
      <trkpt lat="44.24669" lon="4.05775">
        <ele>314.01</ele>
        <time>2016-04-10T08:08:52Z</time>
      </trkpt>
      <trkpt lat="44.24672" lon="4.05797">
        <ele>313.53</ele>
        <time>2016-04-10T08:08:53Z</time>
      </trkpt>
      <trkpt lat="44.2468" lon="4.05818">
        <ele>313.05</ele>
        <time>2016-04-10T08:08:54Z</time>
      </trkpt>
      <trkpt lat="44.24691" lon="4.05837">
        <ele>313.05</ele>
        <time>2016-04-10T08:08:55Z</time>
      </trkpt>
      <trkpt lat="44.24705" lon="4.05855">
        <ele>313.05</ele>
        <time>2016-04-10T08:08:56Z</time>
      </trkpt>
      <trkpt lat="44.24721" lon="4.05871">
        <ele>313.05</ele>
        <time>2016-04-10T08:08:57Z</time>
      </trkpt>
      <trkpt lat="44.24737" lon="4.05887">
        <ele>313.53</ele>
        <time>2016-04-10T08:08:58Z</time>
      </trkpt>
      <trkpt lat="44.24852" lon="4.05997">
        <ele>312.57</ele>
        <time>2016-04-10T08:09:06Z</time>
      </trkpt>
      <trkpt lat="44.24928" lon="4.06066">
        <ele>311.6</ele>
        <time>2016-04-10T08:09:11Z</time>
      </trkpt>
      <trkpt lat="44.24944" lon="4.06068">
        <ele>311.6</ele>
        <time>2016-04-10T08:09:12Z</time>
      </trkpt>
      <trkpt lat="44.24961" lon="4.06072">
        <ele>311.12</ele>
        <time>2016-04-10T08:09:13Z</time>
      </trkpt>
      <trkpt lat="44.2501" lon="4.06102">
        <ele>311.12</ele>
        <time>2016-04-10T08:09:16Z</time>
      </trkpt>
      <trkpt lat="44.25025" lon="4.0612">
        <ele>310.64</ele>
        <time>2016-04-10T08:09:17Z</time>
      </trkpt>
      <trkpt lat="44.25039" lon="4.06141">
        <ele>310.64</ele>
        <time>2016-04-10T08:09:18Z</time>
      </trkpt>
      <trkpt lat="44.25053" lon="4.06163">
        <ele>310.16</ele>
        <time>2016-04-10T08:09:19Z</time>
      </trkpt>
      <trkpt lat="44.25067" lon="4.06186">
        <ele>309.68</ele>
        <time>2016-04-10T08:09:20Z</time>
      </trkpt>
      <trkpt lat="44.2508" lon="4.0621">
        <ele>310.16</ele>
        <time>2016-04-10T08:09:21Z</time>
      </trkpt>
      <trkpt lat="44.25128" lon="4.06341">
        <ele>310.64</ele>
        <time>2016-04-10T08:09:26Z</time>
      </trkpt>
      <trkpt lat="44.25132" lon="4.0637">
        <ele>311.6</ele>
        <time>2016-04-10T08:09:27Z</time>
      </trkpt>
      <trkpt lat="44.25135" lon="4.06396">
        <ele>312.09</ele>
        <time>2016-04-10T08:09:28Z</time>
      </trkpt>
      <trkpt lat="44.25135" lon="4.0642">
        <ele>312.09</ele>
        <time>2016-04-10T08:09:29Z</time>
      </trkpt>
      <trkpt lat="44.25133" lon="4.06442">
        <ele>311.6</ele>
        <time>2016-04-10T08:09:30Z</time>
      </trkpt>
      <trkpt lat="44.25131" lon="4.06464">
        <ele>311.6</ele>
        <time>2016-04-10T08:09:31Z</time>
      </trkpt>
      <trkpt lat="44.25133" lon="4.06485">
        <ele>311.12</ele>
        <time>2016-04-10T08:09:32Z</time>
      </trkpt>
      <trkpt lat="44.25136" lon="4.06506">
        <ele>310.64</ele>
        <time>2016-04-10T08:09:33Z</time>
      </trkpt>
      <trkpt lat="44.25142" lon="4.06519">
        <ele>310.16</ele>
        <time>2016-04-10T08:09:34Z</time>
      </trkpt>
      <trkpt lat="44.25153" lon="4.06527">
        <ele>309.2</ele>
        <time>2016-04-10T08:09:35Z</time>
      </trkpt>
      <trkpt lat="44.25167" lon="4.06528">
        <ele>308.24</ele>
        <time>2016-04-10T08:09:36Z</time>
      </trkpt>
      <trkpt lat="44.25185" lon="4.06525">
        <ele>307.28</ele>
        <time>2016-04-10T08:09:37Z</time>
      </trkpt>
      <trkpt lat="44.25208" lon="4.06517">
        <ele>306.8</ele>
        <time>2016-04-10T08:09:38Z</time>
      </trkpt>
      <trkpt lat="44.25229" lon="4.06503">
        <ele>305.84</ele>
        <time>2016-04-10T08:09:39Z</time>
      </trkpt>
      <trkpt lat="44.25252" lon="4.0649">
        <ele>305.36</ele>
        <time>2016-04-10T08:09:40Z</time>
      </trkpt>
      <trkpt lat="44.25318" lon="4.06471">
        <ele>303.43</ele>
        <time>2016-04-10T08:09:43Z</time>
      </trkpt>
      <trkpt lat="44.25339" lon="4.06475">
        <ele>303.43</ele>
        <time>2016-04-10T08:09:44Z</time>
      </trkpt>
      <trkpt lat="44.25358" lon="4.06482">
        <ele>302.95</ele>
        <time>2016-04-10T08:09:45Z</time>
      </trkpt>
      <trkpt lat="44.25377" lon="4.06491">
        <ele>301.99</ele>
        <time>2016-04-10T08:09:46Z</time>
      </trkpt>
      <trkpt lat="44.25398" lon="4.06499">
        <ele>301.03</ele>
        <time>2016-04-10T08:09:47Z</time>
      </trkpt>
      <trkpt lat="44.25511" lon="4.06541">
        <ele>296.22</ele>
        <time>2016-04-10T08:09:53Z</time>
      </trkpt>
      <trkpt lat="44.25522" lon="4.06561">
        <ele>295.74</ele>
        <time>2016-04-10T08:09:54Z</time>
      </trkpt>
      <trkpt lat="44.25532" lon="4.06581">
        <ele>295.74</ele>
        <time>2016-04-10T08:09:55Z</time>
      </trkpt>
      <trkpt lat="44.25541" lon="4.06605">
        <ele>294.78</ele>
        <time>2016-04-10T08:09:56Z</time>
      </trkpt>
      <trkpt lat="44.25549" lon="4.06627">
        <ele>294.78</ele>
        <time>2016-04-10T08:09:57Z</time>
      </trkpt>
      <trkpt lat="44.25558" lon="4.06648">
        <ele>294.78</ele>
        <time>2016-04-10T08:09:58Z</time>
      </trkpt>
      <trkpt lat="44.25567" lon="4.06664">
        <ele>294.3</ele>
        <time>2016-04-10T08:09:59Z</time>
      </trkpt>
      <trkpt lat="44.2558" lon="4.06676">
        <ele>294.3</ele>
        <time>2016-04-10T08:10:00Z</time>
      </trkpt>
      <trkpt lat="44.25594" lon="4.06684">
        <ele>294.3</ele>
        <time>2016-04-10T08:10:01Z</time>
      </trkpt>
      <trkpt lat="44.2561" lon="4.0669">
        <ele>293.82</ele>
        <time>2016-04-10T08:10:02Z</time>
      </trkpt>
      <trkpt lat="44.25629" lon="4.06694">
        <ele>292.38</ele>
        <time>2016-04-10T08:10:03Z</time>
      </trkpt>
      <trkpt lat="44.25648" lon="4.06699">
        <ele>291.9</ele>
        <time>2016-04-10T08:10:04Z</time>
      </trkpt>
      <trkpt lat="44.25667" lon="4.0671">
        <ele>291.9</ele>
        <time>2016-04-10T08:10:05Z</time>
      </trkpt>
      <trkpt lat="44.25687" lon="4.06726">
        <ele>291.42</ele>
        <time>2016-04-10T08:10:06Z</time>
      </trkpt>
      <trkpt lat="44.25706" lon="4.06741">
        <ele>289.49</ele>
        <time>2016-04-10T08:10:07Z</time>
      </trkpt>
      <trkpt lat="44.25726" lon="4.06754">
        <ele>288.53</ele>
        <time>2016-04-10T08:10:08Z</time>
      </trkpt>
      <trkpt lat="44.25745" lon="4.06761">
        <ele>289.01</ele>
        <time>2016-04-10T08:10:09Z</time>
      </trkpt>
      <trkpt lat="44.25764" lon="4.06771">
        <ele>288.53</ele>
        <time>2016-04-10T08:10:10Z</time>
      </trkpt>
      <trkpt lat="44.2578" lon="4.06785">
        <ele>286.61</ele>
        <time>2016-04-10T08:10:11Z</time>
      </trkpt>
      <trkpt lat="44.25796" lon="4.06803">
        <ele>286.13</ele>
        <time>2016-04-10T08:10:12Z</time>
      </trkpt>
      <trkpt lat="44.25808" lon="4.06829">
        <ele>282.77</ele>
        <time>2016-04-10T08:10:13Z</time>
      </trkpt>
      <trkpt lat="44.25819" lon="4.06858">
        <ele>281.8</ele>
        <time>2016-04-10T08:10:14Z</time>
      </trkpt>
      <trkpt lat="44.25828" lon="4.06887">
        <ele>281.32</ele>
        <time>2016-04-10T08:10:15Z</time>
      </trkpt>
      <trkpt lat="44.25835" lon="4.06916">
        <ele>281.32</ele>
        <time>2016-04-10T08:10:16Z</time>
      </trkpt>
      <trkpt lat="44.25841" lon="4.06946">
        <ele>281.32</ele>
        <time>2016-04-10T08:10:17Z</time>
      </trkpt>
      <trkpt lat="44.25846" lon="4.06974">
        <ele>280.84</ele>
        <time>2016-04-10T08:10:18Z</time>
      </trkpt>
      <trkpt lat="44.25864" lon="4.07117">
        <ele>277.48</ele>
        <time>2016-04-10T08:10:24Z</time>
      </trkpt>
      <trkpt lat="44.25857" lon="4.07212">
        <ele>275.07</ele>
        <time>2016-04-10T08:10:29Z</time>
      </trkpt>
      <trkpt lat="44.25853" lon="4.07229">
        <ele>274.11</ele>
        <time>2016-04-10T08:10:30Z</time>
      </trkpt>
      <trkpt lat="44.25849" lon="4.07247">
        <ele>274.59</ele>
        <time>2016-04-10T08:10:31Z</time>
      </trkpt>
      <trkpt lat="44.25843" lon="4.07263">
        <ele>273.63</ele>
        <time>2016-04-10T08:10:32Z</time>
      </trkpt>
      <trkpt lat="44.25837" lon="4.07279">
        <ele>273.15</ele>
        <time>2016-04-10T08:10:33Z</time>
      </trkpt>
      <trkpt lat="44.25829" lon="4.07295">
        <ele>272.19</ele>
        <time>2016-04-10T08:10:34Z</time>
      </trkpt>
      <trkpt lat="44.25817" lon="4.07309">
        <ele>271.71</ele>
        <time>2016-04-10T08:10:35Z</time>
      </trkpt>
      <trkpt lat="44.25806" lon="4.07325">
        <ele>272.19</ele>
        <time>2016-04-10T08:10:36Z</time>
      </trkpt>
      <trkpt lat="44.25707" lon="4.07447">
        <ele>271.23</ele>
        <time>2016-04-10T08:10:43Z</time>
      </trkpt>
      <trkpt lat="44.25688" lon="4.0746">
        <ele>271.23</ele>
        <time>2016-04-10T08:10:44Z</time>
      </trkpt>
      <trkpt lat="44.25614" lon="4.07532">
        <ele>270.75</ele>
        <time>2016-04-10T08:10:49Z</time>
      </trkpt>
      <trkpt lat="44.2561" lon="4.07555">
        <ele>271.23</ele>
        <time>2016-04-10T08:10:50Z</time>
      </trkpt>
      <trkpt lat="44.25608" lon="4.07579">
        <ele>270.75</ele>
        <time>2016-04-10T08:10:51Z</time>
      </trkpt>
      <trkpt lat="44.25607" lon="4.07603">
        <ele>269.79</ele>
        <time>2016-04-10T08:10:52Z</time>
      </trkpt>
      <trkpt lat="44.25608" lon="4.07631">
        <ele>269.79</ele>
        <time>2016-04-10T08:10:53Z</time>
      </trkpt>
      <trkpt lat="44.25609" lon="4.0766">
        <ele>269.31</ele>
        <time>2016-04-10T08:10:54Z</time>
      </trkpt>
      <trkpt lat="44.25615" lon="4.07856">
        <ele>268.83</ele>
        <time>2016-04-10T08:11:02Z</time>
      </trkpt>
      <trkpt lat="44.2562" lon="4.07985">
        <ele>267.86</ele>
        <time>2016-04-10T08:11:11Z</time>
      </trkpt>
      <trkpt lat="44.25611" lon="4.08118">
        <ele>266.42</ele>
        <time>2016-04-10T08:11:20Z</time>
      </trkpt>
      <trkpt lat="44.25564" lon="4.08232">
        <ele>263.54</ele>
        <time>2016-04-10T08:11:30Z</time>
      </trkpt>
      <trkpt lat="44.25522" lon="4.0829">
        <ele>265.46</ele>
        <time>2016-04-10T08:11:38Z</time>
      </trkpt>
      <trkpt lat="44.25519" lon="4.08295">
        <ele>265.94</ele>
        <time>2016-04-10T08:11:47Z</time>
      </trkpt>
      <trkpt lat="44.25508" lon="4.08319">
        <ele>269.79</ele>
        <time>2016-04-10T08:13:28Z</time>
      </trkpt>
      <trkpt lat="44.25436" lon="4.08378">
        <ele>270.27</ele>
        <time>2016-04-10T08:13:39Z</time>
      </trkpt>
      <trkpt lat="44.25373" lon="4.08426">
        <ele>275.07</ele>
        <time>2016-04-10T08:13:52Z</time>
      </trkpt>
      <trkpt lat="44.25306" lon="4.08458">
        <ele>274.11</ele>
        <time>2016-04-10T08:14:00Z</time>
      </trkpt>
      <trkpt lat="44.25295" lon="4.08466">
        <ele>272.19</ele>
        <time>2016-04-10T08:14:01Z</time>
      </trkpt>
      <trkpt lat="44.25287" lon="4.08481">
        <ele>271.23</ele>
        <time>2016-04-10T08:14:02Z</time>
      </trkpt>
      <trkpt lat="44.25279" lon="4.08493">
        <ele>270.27</ele>
        <time>2016-04-10T08:14:03Z</time>
      </trkpt>
      <trkpt lat="44.25274" lon="4.08506">
        <ele>269.79</ele>
        <time>2016-04-10T08:14:04Z</time>
      </trkpt>
      <trkpt lat="44.25268" lon="4.08519">
        <ele>269.79</ele>
        <time>2016-04-10T08:14:05Z</time>
      </trkpt>
      <trkpt lat="44.25262" lon="4.0853">
        <ele>270.75</ele>
        <time>2016-04-10T08:14:06Z</time>
      </trkpt>
      <trkpt lat="44.25254" lon="4.08541">
        <ele>270.27</ele>
        <time>2016-04-10T08:14:07Z</time>
      </trkpt>
      <trkpt lat="44.25246" lon="4.08551">
        <ele>269.79</ele>
        <time>2016-04-10T08:14:08Z</time>
      </trkpt>
      <trkpt lat="44.25166" lon="4.08646">
        <ele>266.9</ele>
        <time>2016-04-10T08:14:18Z</time>
      </trkpt>
      <trkpt lat="44.25088" lon="4.0876">
        <ele>263.06</ele>
        <time>2016-04-10T08:14:29Z</time>
      </trkpt>
      <trkpt lat="44.25069" lon="4.08783">
        <ele>262.1</ele>
        <time>2016-04-10T08:14:31Z</time>
      </trkpt>
      <trkpt lat="44.25057" lon="4.08793">
        <ele>261.14</ele>
        <time>2016-04-10T08:14:32Z</time>
      </trkpt>
      <trkpt lat="44.25043" lon="4.08799">
        <ele>259.69</ele>
        <time>2016-04-10T08:14:33Z</time>
      </trkpt>
      <trkpt lat="44.25027" lon="4.08803">
        <ele>259.21</ele>
        <time>2016-04-10T08:14:34Z</time>
      </trkpt>
      <trkpt lat="44.25009" lon="4.08807">
        <ele>259.21</ele>
        <time>2016-04-10T08:14:35Z</time>
      </trkpt>
      <trkpt lat="44.24992" lon="4.08815">
        <ele>260.17</ele>
        <time>2016-04-10T08:14:36Z</time>
      </trkpt>
      <trkpt lat="44.24975" lon="4.08826">
        <ele>260.17</ele>
        <time>2016-04-10T08:14:37Z</time>
      </trkpt>
      <trkpt lat="44.24961" lon="4.0884">
        <ele>260.17</ele>
        <time>2016-04-10T08:14:38Z</time>
      </trkpt>
      <trkpt lat="44.24948" lon="4.08855">
        <ele>260.65</ele>
        <time>2016-04-10T08:14:39Z</time>
      </trkpt>
      <trkpt lat="44.24936" lon="4.08871">
        <ele>260.65</ele>
        <time>2016-04-10T08:14:40Z</time>
      </trkpt>
      <trkpt lat="44.24836" lon="4.09022">
        <ele>258.73</ele>
        <time>2016-04-10T08:14:49Z</time>
      </trkpt>
      <trkpt lat="44.24804" lon="4.09096">
        <ele>256.81</ele>
        <time>2016-04-10T08:14:55Z</time>
      </trkpt>
      <trkpt lat="44.24801" lon="4.09106">
        <ele>256.81</ele>
        <time>2016-04-10T08:14:56Z</time>
      </trkpt>
      <trkpt lat="44.248" lon="4.09118">
        <ele>256.81</ele>
        <time>2016-04-10T08:14:57Z</time>
      </trkpt>
      <trkpt lat="44.24798" lon="4.09132">
        <ele>256.33</ele>
        <time>2016-04-10T08:14:58Z</time>
      </trkpt>
      <trkpt lat="44.24794" lon="4.09146">
        <ele>255.85</ele>
        <time>2016-04-10T08:14:59Z</time>
      </trkpt>
      <trkpt lat="44.24788" lon="4.0916">
        <ele>255.37</ele>
        <time>2016-04-10T08:15:00Z</time>
      </trkpt>
      <trkpt lat="44.2478" lon="4.09176">
        <ele>255.37</ele>
        <time>2016-04-10T08:15:01Z</time>
      </trkpt>
      <trkpt lat="44.24704" lon="4.09321">
        <ele>252.48</ele>
        <time>2016-04-10T08:15:08Z</time>
      </trkpt>
      <trkpt lat="44.24634" lon="4.09521">
        <ele>250.08</ele>
        <time>2016-04-10T08:15:15Z</time>
      </trkpt>
      <trkpt lat="44.2457" lon="4.0975">
        <ele>246.72</ele>
        <time>2016-04-10T08:15:24Z</time>
      </trkpt>
      <trkpt lat="44.24567" lon="4.09775">
        <ele>246.23</ele>
        <time>2016-04-10T08:15:25Z</time>
      </trkpt>
      <trkpt lat="44.24558" lon="4.0984">
        <ele>244.79</ele>
        <time>2016-04-10T08:15:28Z</time>
      </trkpt>
      <trkpt lat="44.24553" lon="4.09859">
        <ele>244.31</ele>
        <time>2016-04-10T08:15:29Z</time>
      </trkpt>
      <trkpt lat="44.24475" lon="4.10042">
        <ele>241.43</ele>
        <time>2016-04-10T08:15:40Z</time>
      </trkpt>
      <trkpt lat="44.24418" lon="4.10129">
        <ele>239.51</ele>
        <time>2016-04-10T08:15:48Z</time>
      </trkpt>
      <trkpt lat="44.24367" lon="4.10189">
        <ele>239.02</ele>
        <time>2016-04-10T08:15:54Z</time>
      </trkpt>
      <trkpt lat="44.24324" lon="4.10237">
        <ele>239.02</ele>
        <time>2016-04-10T08:15:58Z</time>
      </trkpt>
      <trkpt lat="44.24316" lon="4.10252">
        <ele>238.54</ele>
        <time>2016-04-10T08:15:59Z</time>
      </trkpt>
      <trkpt lat="44.24311" lon="4.1027">
        <ele>239.02</ele>
        <time>2016-04-10T08:16:00Z</time>
      </trkpt>
      <trkpt lat="44.24308" lon="4.1029">
        <ele>238.54</ele>
        <time>2016-04-10T08:16:01Z</time>
      </trkpt>
      <trkpt lat="44.24307" lon="4.10311">
        <ele>238.54</ele>
        <time>2016-04-10T08:16:02Z</time>
      </trkpt>
      <trkpt lat="44.24306" lon="4.10333">
        <ele>238.54</ele>
        <time>2016-04-10T08:16:03Z</time>
      </trkpt>
      <trkpt lat="44.24304" lon="4.10357">
        <ele>238.54</ele>
        <time>2016-04-10T08:16:04Z</time>
      </trkpt>
      <trkpt lat="44.24299" lon="4.10381">
        <ele>238.54</ele>
        <time>2016-04-10T08:16:05Z</time>
      </trkpt>
      <trkpt lat="44.24291" lon="4.10404">
        <ele>239.02</ele>
        <time>2016-04-10T08:16:06Z</time>
      </trkpt>
      <trkpt lat="44.24239" lon="4.10509">
        <ele>240.47</ele>
        <time>2016-04-10T08:16:12Z</time>
      </trkpt>
      <trkpt lat="44.2419" lon="4.10574">
        <ele>240.47</ele>
        <time>2016-04-10T08:16:19Z</time>
      </trkpt>
      <trkpt lat="44.24149" lon="4.10666">
        <ele>238.54</ele>
        <time>2016-04-10T08:16:26Z</time>
      </trkpt>
      <trkpt lat="44.24142" lon="4.10676">
        <ele>238.54</ele>
        <time>2016-04-10T08:16:27Z</time>
      </trkpt>
      <trkpt lat="44.24133" lon="4.10683">
        <ele>238.54</ele>
        <time>2016-04-10T08:16:28Z</time>
      </trkpt>
      <trkpt lat="44.24122" lon="4.10689">
        <ele>239.02</ele>
        <time>2016-04-10T08:16:29Z</time>
      </trkpt>
      <trkpt lat="44.24111" lon="4.10695">
        <ele>239.02</ele>
        <time>2016-04-10T08:16:30Z</time>
      </trkpt>
      <trkpt lat="44.24016" lon="4.10778">
        <ele>237.1</ele>
        <time>2016-04-10T08:16:39Z</time>
      </trkpt>
      <trkpt lat="44.24" lon="4.108">
        <ele>236.14</ele>
        <time>2016-04-10T08:16:41Z</time>
      </trkpt>
      <trkpt lat="44.23994" lon="4.10813">
        <ele>236.14</ele>
        <time>2016-04-10T08:16:42Z</time>
      </trkpt>
      <trkpt lat="44.23989" lon="4.10828">
        <ele>235.66</ele>
        <time>2016-04-10T08:16:43Z</time>
      </trkpt>
      <trkpt lat="44.23921" lon="4.11009">
        <ele>235.66</ele>
        <time>2016-04-10T08:16:55Z</time>
      </trkpt>
      <trkpt lat="44.23893" lon="4.11102">
        <ele>236.14</ele>
        <time>2016-04-10T08:17:04Z</time>
      </trkpt>
      <trkpt lat="44.23891" lon="4.11116">
        <ele>237.58</ele>
        <time>2016-04-10T08:17:06Z</time>
      </trkpt>
      <trkpt lat="44.23892" lon="4.11121">
        <ele>238.06</ele>
        <time>2016-04-10T08:17:07Z</time>
      </trkpt>
      <trkpt lat="44.23894" lon="4.11123">
        <ele>237.58</ele>
        <time>2016-04-10T08:17:08Z</time>
      </trkpt>
      <trkpt lat="44.23899" lon="4.11125">
        <ele>237.58</ele>
        <time>2016-04-10T08:17:09Z</time>
      </trkpt>
      <trkpt lat="44.23906" lon="4.11128">
        <ele>238.06</ele>
        <time>2016-04-10T08:17:10Z</time>
      </trkpt>
      <trkpt lat="44.23915" lon="4.11133">
        <ele>238.54</ele>
        <time>2016-04-10T08:17:11Z</time>
      </trkpt>
      <trkpt lat="44.23991" lon="4.11174">
        <ele>243.35</ele>
        <time>2016-04-10T08:17:18Z</time>
      </trkpt>
      <trkpt lat="44.24003" lon="4.11177">
        <ele>244.31</ele>
        <time>2016-04-10T08:17:19Z</time>
      </trkpt>
      <trkpt lat="44.24014" lon="4.11178">
        <ele>245.27</ele>
        <time>2016-04-10T08:17:20Z</time>
      </trkpt>
      <trkpt lat="44.24025" lon="4.11177">
        <ele>245.75</ele>
        <time>2016-04-10T08:17:21Z</time>
      </trkpt>
      <trkpt lat="44.2406" lon="4.1117">
        <ele>249.12</ele>
        <time>2016-04-10T08:17:25Z</time>
      </trkpt>
      <trkpt lat="44.24069" lon="4.11171">
        <ele>249.6</ele>
        <time>2016-04-10T08:17:26Z</time>
      </trkpt>
      <trkpt lat="44.24079" lon="4.11176">
        <ele>250.08</ele>
        <time>2016-04-10T08:17:27Z</time>
      </trkpt>
      <trkpt lat="44.24089" lon="4.11186">
        <ele>250.56</ele>
        <time>2016-04-10T08:17:28Z</time>
      </trkpt>
      <trkpt lat="44.24099" lon="4.11198">
        <ele>251.04</ele>
        <time>2016-04-10T08:17:29Z</time>
      </trkpt>
      <trkpt lat="44.24107" lon="4.1121">
        <ele>251.04</ele>
        <time>2016-04-10T08:17:30Z</time>
      </trkpt>
      <trkpt lat="44.24157" lon="4.1128">
        <ele>251.04</ele>
        <time>2016-04-10T08:17:37Z</time>
      </trkpt>
      <trkpt lat="44.24162" lon="4.11295">
        <ele>251.04</ele>
        <time>2016-04-10T08:17:38Z</time>
      </trkpt>
      <trkpt lat="44.24164" lon="4.11312">
        <ele>250.56</ele>
        <time>2016-04-10T08:17:39Z</time>
      </trkpt>
      <trkpt lat="44.24164" lon="4.1133">
        <ele>249.6</ele>
        <time>2016-04-10T08:17:40Z</time>
      </trkpt>
      <trkpt lat="44.2416" lon="4.11349">
        <ele>249.12</ele>
        <time>2016-04-10T08:17:41Z</time>
      </trkpt>
      <trkpt lat="44.24155" lon="4.1137">
        <ele>248.64</ele>
        <time>2016-04-10T08:17:42Z</time>
      </trkpt>
      <trkpt lat="44.2415" lon="4.11392">
        <ele>249.12</ele>
        <time>2016-04-10T08:17:43Z</time>
      </trkpt>
      <trkpt lat="44.24116" lon="4.11554">
        <ele>256.33</ele>
        <time>2016-04-10T08:17:51Z</time>
      </trkpt>
      <trkpt lat="44.24116" lon="4.11571">
        <ele>257.29</ele>
        <time>2016-04-10T08:17:52Z</time>
      </trkpt>
      <trkpt lat="44.24118" lon="4.1159">
        <ele>258.25</ele>
        <time>2016-04-10T08:17:53Z</time>
      </trkpt>
      <trkpt lat="44.24124" lon="4.11609">
        <ele>259.21</ele>
        <time>2016-04-10T08:17:54Z</time>
      </trkpt>
      <trkpt lat="44.24132" lon="4.11626">
        <ele>259.69</ele>
        <time>2016-04-10T08:17:55Z</time>
      </trkpt>
      <trkpt lat="44.2414" lon="4.11642">
        <ele>260.17</ele>
        <time>2016-04-10T08:17:56Z</time>
      </trkpt>
      <trkpt lat="44.24148" lon="4.11656">
        <ele>260.17</ele>
        <time>2016-04-10T08:17:57Z</time>
      </trkpt>
      <trkpt lat="44.24157" lon="4.11668">
        <ele>260.17</ele>
        <time>2016-04-10T08:17:58Z</time>
      </trkpt>
      <trkpt lat="44.24168" lon="4.11675">
        <ele>260.17</ele>
        <time>2016-04-10T08:17:59Z</time>
      </trkpt>
      <trkpt lat="44.24182" lon="4.11679">
        <ele>260.65</ele>
        <time>2016-04-10T08:18:00Z</time>
      </trkpt>
      <trkpt lat="44.24196" lon="4.11677">
        <ele>261.14</ele>
        <time>2016-04-10T08:18:01Z</time>
      </trkpt>
      <trkpt lat="44.2421" lon="4.11675">
        <ele>261.62</ele>
        <time>2016-04-10T08:18:02Z</time>
      </trkpt>
      <trkpt lat="44.24223" lon="4.11672">
        <ele>262.1</ele>
        <time>2016-04-10T08:18:03Z</time>
      </trkpt>
      <trkpt lat="44.24249" lon="4.11668">
        <ele>263.54</ele>
        <time>2016-04-10T08:18:05Z</time>
      </trkpt>
      <trkpt lat="44.24263" lon="4.11669">
        <ele>264.5</ele>
        <time>2016-04-10T08:18:06Z</time>
      </trkpt>
      <trkpt lat="44.24278" lon="4.11676">
        <ele>264.98</ele>
        <time>2016-04-10T08:18:07Z</time>
      </trkpt>
      <trkpt lat="44.24293" lon="4.11686">
        <ele>265.46</ele>
        <time>2016-04-10T08:18:08Z</time>
      </trkpt>
      <trkpt lat="44.24308" lon="4.11696">
        <ele>266.42</ele>
        <time>2016-04-10T08:18:09Z</time>
      </trkpt>
      <trkpt lat="44.24364" lon="4.11743">
        <ele>269.79</ele>
        <time>2016-04-10T08:18:13Z</time>
      </trkpt>
      <trkpt lat="44.24377" lon="4.11758">
        <ele>270.27</ele>
        <time>2016-04-10T08:18:14Z</time>
      </trkpt>
      <trkpt lat="44.24442" lon="4.11839">
        <ele>275.56</ele>
        <time>2016-04-10T08:18:20Z</time>
      </trkpt>
      <trkpt lat="44.24455" lon="4.11848">
        <ele>276.52</ele>
        <time>2016-04-10T08:18:21Z</time>
      </trkpt>
      <trkpt lat="44.24469" lon="4.11856">
        <ele>277.96</ele>
        <time>2016-04-10T08:18:22Z</time>
      </trkpt>
      <trkpt lat="44.24528" lon="4.11894">
        <ele>284.69</ele>
        <time>2016-04-10T08:18:27Z</time>
      </trkpt>
      <trkpt lat="44.24537" lon="4.11904">
        <ele>286.13</ele>
        <time>2016-04-10T08:18:28Z</time>
      </trkpt>
      <trkpt lat="44.24544" lon="4.11917">
        <ele>287.57</ele>
        <time>2016-04-10T08:18:29Z</time>
      </trkpt>
      <trkpt lat="44.2455" lon="4.11934">
        <ele>288.53</ele>
        <time>2016-04-10T08:18:30Z</time>
      </trkpt>
      <trkpt lat="44.24553" lon="4.11953">
        <ele>289.49</ele>
        <time>2016-04-10T08:18:31Z</time>
      </trkpt>
      <trkpt lat="44.24555" lon="4.11974">
        <ele>290.94</ele>
        <time>2016-04-10T08:18:32Z</time>
      </trkpt>
      <trkpt lat="44.24552" lon="4.11999">
        <ele>291.42</ele>
        <time>2016-04-10T08:18:33Z</time>
      </trkpt>
      <trkpt lat="44.24547" lon="4.12022">
        <ele>291.9</ele>
        <time>2016-04-10T08:18:34Z</time>
      </trkpt>
      <trkpt lat="44.24539" lon="4.12048">
        <ele>291.9</ele>
        <time>2016-04-10T08:18:35Z</time>
      </trkpt>
      <trkpt lat="44.2453" lon="4.12074">
        <ele>292.38</ele>
        <time>2016-04-10T08:18:36Z</time>
      </trkpt>
      <trkpt lat="44.24521" lon="4.121">
        <ele>292.86</ele>
        <time>2016-04-10T08:18:37Z</time>
      </trkpt>
      <trkpt lat="44.24481" lon="4.12234">
        <ele>297.67</ele>
        <time>2016-04-10T08:18:43Z</time>
      </trkpt>
      <trkpt lat="44.24478" lon="4.12253">
        <ele>298.63</ele>
        <time>2016-04-10T08:18:44Z</time>
      </trkpt>
      <trkpt lat="44.24479" lon="4.12271">
        <ele>299.11</ele>
        <time>2016-04-10T08:18:45Z</time>
      </trkpt>
      <trkpt lat="44.24484" lon="4.12291">
        <ele>300.07</ele>
        <time>2016-04-10T08:18:46Z</time>
      </trkpt>
      <trkpt lat="44.24492" lon="4.12311">
        <ele>300.55</ele>
        <time>2016-04-10T08:18:47Z</time>
      </trkpt>
      <trkpt lat="44.24503" lon="4.1233">
        <ele>301.51</ele>
        <time>2016-04-10T08:18:48Z</time>
      </trkpt>
      <trkpt lat="44.24515" lon="4.12347">
        <ele>302.47</ele>
        <time>2016-04-10T08:18:49Z</time>
      </trkpt>
      <trkpt lat="44.24525" lon="4.12364">
        <ele>303.43</ele>
        <time>2016-04-10T08:18:50Z</time>
      </trkpt>
      <trkpt lat="44.24532" lon="4.12386">
        <ele>304.88</ele>
        <time>2016-04-10T08:18:51Z</time>
      </trkpt>
      <trkpt lat="44.24535" lon="4.12409">
        <ele>306.32</ele>
        <time>2016-04-10T08:18:52Z</time>
      </trkpt>
      <trkpt lat="44.24535" lon="4.12432">
        <ele>306.8</ele>
        <time>2016-04-10T08:18:53Z</time>
      </trkpt>
      <trkpt lat="44.24534" lon="4.12455">
        <ele>308.24</ele>
        <time>2016-04-10T08:18:54Z</time>
      </trkpt>
      <trkpt lat="44.24533" lon="4.12477">
        <ele>309.68</ele>
        <time>2016-04-10T08:18:55Z</time>
      </trkpt>
      <trkpt lat="44.24534" lon="4.12498">
        <ele>311.12</ele>
        <time>2016-04-10T08:18:56Z</time>
      </trkpt>
      <trkpt lat="44.24538" lon="4.1252">
        <ele>313.05</ele>
        <time>2016-04-10T08:18:57Z</time>
      </trkpt>
      <trkpt lat="44.24543" lon="4.12541">
        <ele>314.01</ele>
        <time>2016-04-10T08:18:58Z</time>
      </trkpt>
      <trkpt lat="44.24551" lon="4.12563">
        <ele>314.97</ele>
        <time>2016-04-10T08:18:59Z</time>
      </trkpt>
      <trkpt lat="44.24558" lon="4.12584">
        <ele>315.93</ele>
        <time>2016-04-10T08:19:00Z</time>
      </trkpt>
      <trkpt lat="44.24633" lon="4.12712">
        <ele>325.06</ele>
        <time>2016-04-10T08:19:07Z</time>
      </trkpt>
      <trkpt lat="44.2465" lon="4.12751">
        <ele>327.95</ele>
        <time>2016-04-10T08:19:10Z</time>
      </trkpt>
      <trkpt lat="44.24645" lon="4.12765">
        <ele>328.91</ele>
        <time>2016-04-10T08:19:11Z</time>
      </trkpt>
      <trkpt lat="44.24638" lon="4.1278">
        <ele>329.39</ele>
        <time>2016-04-10T08:19:12Z</time>
      </trkpt>
      <trkpt lat="44.24626" lon="4.12791">
        <ele>329.87</ele>
        <time>2016-04-10T08:19:13Z</time>
      </trkpt>
      <trkpt lat="44.24613" lon="4.12803">
        <ele>330.83</ele>
        <time>2016-04-10T08:19:14Z</time>
      </trkpt>
      <trkpt lat="44.24602" lon="4.12815">
        <ele>331.79</ele>
        <time>2016-04-10T08:19:15Z</time>
      </trkpt>
      <trkpt lat="44.24593" lon="4.1283">
        <ele>332.27</ele>
        <time>2016-04-10T08:19:16Z</time>
      </trkpt>
      <trkpt lat="44.24588" lon="4.12848">
        <ele>332.27</ele>
        <time>2016-04-10T08:19:17Z</time>
      </trkpt>
      <trkpt lat="44.24588" lon="4.12867">
        <ele>332.75</ele>
        <time>2016-04-10T08:19:18Z</time>
      </trkpt>
      <trkpt lat="44.24593" lon="4.12885">
        <ele>333.71</ele>
        <time>2016-04-10T08:19:19Z</time>
      </trkpt>
      <trkpt lat="44.24603" lon="4.12904">
        <ele>334.2</ele>
        <time>2016-04-10T08:19:20Z</time>
      </trkpt>
      <trkpt lat="44.24614" lon="4.12921">
        <ele>335.64</ele>
        <time>2016-04-10T08:19:21Z</time>
      </trkpt>
      <trkpt lat="44.24628" lon="4.12937">
        <ele>337.08</ele>
        <time>2016-04-10T08:19:22Z</time>
      </trkpt>
      <trkpt lat="44.24643" lon="4.12955">
        <ele>338.52</ele>
        <time>2016-04-10T08:19:23Z</time>
      </trkpt>
      <trkpt lat="44.24655" lon="4.12978">
        <ele>340.44</ele>
        <time>2016-04-10T08:19:24Z</time>
      </trkpt>
      <trkpt lat="44.24665" lon="4.13001">
        <ele>341.41</ele>
        <time>2016-04-10T08:19:25Z</time>
      </trkpt>
      <trkpt lat="44.24672" lon="4.13025">
        <ele>342.85</ele>
        <time>2016-04-10T08:19:26Z</time>
      </trkpt>
      <trkpt lat="44.24675" lon="4.13048">
        <ele>343.33</ele>
        <time>2016-04-10T08:19:27Z</time>
      </trkpt>
      <trkpt lat="44.24678" lon="4.1307">
        <ele>343.81</ele>
        <time>2016-04-10T08:19:28Z</time>
      </trkpt>
      <trkpt lat="44.24684" lon="4.1309">
        <ele>344.77</ele>
        <time>2016-04-10T08:19:29Z</time>
      </trkpt>
      <trkpt lat="44.24692" lon="4.13108">
        <ele>345.25</ele>
        <time>2016-04-10T08:19:30Z</time>
      </trkpt>
      <trkpt lat="44.24704" lon="4.13125">
        <ele>346.21</ele>
        <time>2016-04-10T08:19:31Z</time>
      </trkpt>
      <trkpt lat="44.24719" lon="4.1314">
        <ele>347.17</ele>
        <time>2016-04-10T08:19:32Z</time>
      </trkpt>
      <trkpt lat="44.24732" lon="4.13154">
        <ele>348.62</ele>
        <time>2016-04-10T08:19:33Z</time>
      </trkpt>
      <trkpt lat="44.24743" lon="4.13168">
        <ele>349.1</ele>
        <time>2016-04-10T08:19:34Z</time>
      </trkpt>
      <trkpt lat="44.24753" lon="4.13186">
        <ele>350.06</ele>
        <time>2016-04-10T08:19:35Z</time>
      </trkpt>
      <trkpt lat="44.24758" lon="4.13207">
        <ele>351.02</ele>
        <time>2016-04-10T08:19:36Z</time>
      </trkpt>
      <trkpt lat="44.2476" lon="4.13229">
        <ele>352.46</ele>
        <time>2016-04-10T08:19:37Z</time>
      </trkpt>
      <trkpt lat="44.24761" lon="4.1325">
        <ele>353.42</ele>
        <time>2016-04-10T08:19:38Z</time>
      </trkpt>
      <trkpt lat="44.24763" lon="4.1327">
        <ele>354.38</ele>
        <time>2016-04-10T08:19:39Z</time>
      </trkpt>
      <trkpt lat="44.24766" lon="4.13287">
        <ele>355.83</ele>
        <time>2016-04-10T08:19:40Z</time>
      </trkpt>
      <trkpt lat="44.24773" lon="4.13298">
        <ele>356.79</ele>
        <time>2016-04-10T08:19:41Z</time>
      </trkpt>
      <trkpt lat="44.24783" lon="4.13308">
        <ele>356.79</ele>
        <time>2016-04-10T08:19:42Z</time>
      </trkpt>
      <trkpt lat="44.24796" lon="4.13314">
        <ele>356.31</ele>
        <time>2016-04-10T08:19:43Z</time>
      </trkpt>
      <trkpt lat="44.24814" lon="4.13308">
        <ele>356.79</ele>
        <time>2016-04-10T08:19:44Z</time>
      </trkpt>
      <trkpt lat="44.24835" lon="4.133">
        <ele>356.31</ele>
        <time>2016-04-10T08:19:45Z</time>
      </trkpt>
      <trkpt lat="44.24856" lon="4.13293">
        <ele>355.83</ele>
        <time>2016-04-10T08:19:46Z</time>
      </trkpt>
      <trkpt lat="44.24876" lon="4.13285">
        <ele>355.34</ele>
        <time>2016-04-10T08:19:47Z</time>
      </trkpt>
      <trkpt lat="44.24893" lon="4.13278">
        <ele>354.38</ele>
        <time>2016-04-10T08:19:48Z</time>
      </trkpt>
      <trkpt lat="44.24911" lon="4.13274">
        <ele>354.86</ele>
        <time>2016-04-10T08:19:49Z</time>
      </trkpt>
      <trkpt lat="44.24927" lon="4.13273">
        <ele>354.38</ele>
        <time>2016-04-10T08:19:50Z</time>
      </trkpt>
      <trkpt lat="44.24941" lon="4.13279">
        <ele>352.46</ele>
        <time>2016-04-10T08:19:51Z</time>
      </trkpt>
      <trkpt lat="44.24954" lon="4.13283">
        <ele>350.06</ele>
        <time>2016-04-10T08:19:52Z</time>
      </trkpt>
      <trkpt lat="44.24967" lon="4.13283">
        <ele>349.1</ele>
        <time>2016-04-10T08:19:53Z</time>
      </trkpt>
      <trkpt lat="44.24978" lon="4.13278">
        <ele>346.69</ele>
        <time>2016-04-10T08:19:54Z</time>
      </trkpt>
      <trkpt lat="44.24988" lon="4.13274">
        <ele>345.25</ele>
        <time>2016-04-10T08:19:55Z</time>
      </trkpt>
      <trkpt lat="44.24996" lon="4.13269">
        <ele>344.29</ele>
        <time>2016-04-10T08:19:56Z</time>
      </trkpt>
      <trkpt lat="44.25006" lon="4.13267">
        <ele>342.85</ele>
        <time>2016-04-10T08:19:57Z</time>
      </trkpt>
      <trkpt lat="44.25012" lon="4.13271">
        <ele>340.92</ele>
        <time>2016-04-10T08:19:58Z</time>
      </trkpt>
      <trkpt lat="44.25014" lon="4.13291">
        <ele>338.04</ele>
        <time>2016-04-10T08:20:00Z</time>
      </trkpt>
      <trkpt lat="44.25007" lon="4.13302">
        <ele>336.6</ele>
        <time>2016-04-10T08:20:01Z</time>
      </trkpt>
      <trkpt lat="44.24996" lon="4.13313">
        <ele>335.64</ele>
        <time>2016-04-10T08:20:02Z</time>
      </trkpt>
      <trkpt lat="44.24984" lon="4.13321">
        <ele>334.2</ele>
        <time>2016-04-10T08:20:03Z</time>
      </trkpt>
      <trkpt lat="44.24967" lon="4.13324">
        <ele>335.16</ele>
        <time>2016-04-10T08:20:04Z</time>
      </trkpt>
      <trkpt lat="44.24949" lon="4.13326">
        <ele>334.68</ele>
        <time>2016-04-10T08:20:05Z</time>
      </trkpt>
      <trkpt lat="44.24933" lon="4.13331">
        <ele>333.71</ele>
        <time>2016-04-10T08:20:06Z</time>
      </trkpt>
      <trkpt lat="44.24919" lon="4.13337">
        <ele>332.75</ele>
        <time>2016-04-10T08:20:07Z</time>
      </trkpt>
      <trkpt lat="44.24905" lon="4.13346">
        <ele>332.27</ele>
        <time>2016-04-10T08:20:08Z</time>
      </trkpt>
      <trkpt lat="44.24893" lon="4.13357">
        <ele>331.31</ele>
        <time>2016-04-10T08:20:09Z</time>
      </trkpt>
      <trkpt lat="44.24859" lon="4.13389">
        <ele>328.43</ele>
        <time>2016-04-10T08:20:12Z</time>
      </trkpt>
      <trkpt lat="44.24849" lon="4.13397">
        <ele>328.43</ele>
        <time>2016-04-10T08:20:13Z</time>
      </trkpt>
      <trkpt lat="44.24819" lon="4.13411">
        <ele>325.54</ele>
        <time>2016-04-10T08:20:16Z</time>
      </trkpt>
      <trkpt lat="44.24812" lon="4.13421">
        <ele>325.06</ele>
        <time>2016-04-10T08:20:17Z</time>
      </trkpt>
      <trkpt lat="44.24807" lon="4.13431">
        <ele>323.62</ele>
        <time>2016-04-10T08:20:18Z</time>
      </trkpt>
      <trkpt lat="44.24819" lon="4.13442">
        <ele>323.14</ele>
        <time>2016-04-10T08:20:19Z</time>
      </trkpt>
      <trkpt lat="44.24828" lon="4.13444">
        <ele>321.22</ele>
        <time>2016-04-10T08:20:20Z</time>
      </trkpt>
      <trkpt lat="44.24839" lon="4.13437">
        <ele>318.81</ele>
        <time>2016-04-10T08:20:21Z</time>
      </trkpt>
      <trkpt lat="44.24851" lon="4.13424">
        <ele>318.81</ele>
        <time>2016-04-10T08:20:22Z</time>
      </trkpt>
      <trkpt lat="44.24864" lon="4.13415">
        <ele>318.33</ele>
        <time>2016-04-10T08:20:23Z</time>
      </trkpt>
      <trkpt lat="44.2488" lon="4.13405">
        <ele>317.37</ele>
        <time>2016-04-10T08:20:24Z</time>
      </trkpt>
      <trkpt lat="44.24918" lon="4.13396">
        <ele>313.53</ele>
        <time>2016-04-10T08:20:26Z</time>
      </trkpt>
      <trkpt lat="44.24943" lon="4.13399">
        <ele>313.05</ele>
        <time>2016-04-10T08:20:27Z</time>
      </trkpt>
      <trkpt lat="44.24964" lon="4.13401">
        <ele>310.64</ele>
        <time>2016-04-10T08:20:28Z</time>
      </trkpt>
      <trkpt lat="44.24985" lon="4.13401">
        <ele>309.2</ele>
        <time>2016-04-10T08:20:29Z</time>
      </trkpt>
      <trkpt lat="44.25004" lon="4.13398">
        <ele>307.28</ele>
        <time>2016-04-10T08:20:30Z</time>
      </trkpt>
      <trkpt lat="44.25023" lon="4.13395">
        <ele>305.84</ele>
        <time>2016-04-10T08:20:31Z</time>
      </trkpt>
      <trkpt lat="44.25043" lon="4.13394">
        <ele>304.88</ele>
        <time>2016-04-10T08:20:32Z</time>
      </trkpt>
      <trkpt lat="44.25062" lon="4.13396">
        <ele>303.43</ele>
        <time>2016-04-10T08:20:33Z</time>
      </trkpt>
      <trkpt lat="44.2508" lon="4.13401">
        <ele>301.99</ele>
        <time>2016-04-10T08:20:34Z</time>
      </trkpt>
      <trkpt lat="44.25098" lon="4.1341">
        <ele>301.99</ele>
        <time>2016-04-10T08:20:35Z</time>
      </trkpt>
      <trkpt lat="44.25114" lon="4.13419">
        <ele>300.07</ele>
        <time>2016-04-10T08:20:36Z</time>
      </trkpt>
      <trkpt lat="44.25147" lon="4.13433">
        <ele>296.7</ele>
        <time>2016-04-10T08:20:38Z</time>
      </trkpt>
      <trkpt lat="44.25162" lon="4.13434">
        <ele>294.78</ele>
        <time>2016-04-10T08:20:39Z</time>
      </trkpt>
      <trkpt lat="44.25177" lon="4.13433">
        <ele>292.38</ele>
        <time>2016-04-10T08:20:40Z</time>
      </trkpt>
      <trkpt lat="44.25194" lon="4.13427">
        <ele>289.97</ele>
        <time>2016-04-10T08:20:41Z</time>
      </trkpt>
      <trkpt lat="44.2521" lon="4.13415">
        <ele>287.57</ele>
        <time>2016-04-10T08:20:42Z</time>
      </trkpt>
      <trkpt lat="44.25225" lon="4.13402">
        <ele>285.65</ele>
        <time>2016-04-10T08:20:43Z</time>
      </trkpt>
      <trkpt lat="44.25239" lon="4.13387">
        <ele>284.21</ele>
        <time>2016-04-10T08:20:44Z</time>
      </trkpt>
      <trkpt lat="44.25251" lon="4.13371">
        <ele>283.73</ele>
        <time>2016-04-10T08:20:45Z</time>
      </trkpt>
      <trkpt lat="44.25309" lon="4.13316">
        <ele>278.92</ele>
        <time>2016-04-10T08:20:51Z</time>
      </trkpt>
      <trkpt lat="44.25315" lon="4.13319">
        <ele>278.44</ele>
        <time>2016-04-10T08:20:52Z</time>
      </trkpt>
      <trkpt lat="44.25318" lon="4.13323">
        <ele>277.96</ele>
        <time>2016-04-10T08:20:53Z</time>
      </trkpt>
      <trkpt lat="44.25321" lon="4.1333">
        <ele>277.48</ele>
        <time>2016-04-10T08:20:54Z</time>
      </trkpt>
      <trkpt lat="44.25317" lon="4.13341">
        <ele>277.48</ele>
        <time>2016-04-10T08:20:55Z</time>
      </trkpt>
      <trkpt lat="44.25308" lon="4.13354">
        <ele>277</ele>
        <time>2016-04-10T08:20:56Z</time>
      </trkpt>
      <trkpt lat="44.25297" lon="4.13364">
        <ele>277</ele>
        <time>2016-04-10T08:20:57Z</time>
      </trkpt>
      <trkpt lat="44.25285" lon="4.13374">
        <ele>276.52</ele>
        <time>2016-04-10T08:20:58Z</time>
      </trkpt>
      <trkpt lat="44.25274" lon="4.13384">
        <ele>276.52</ele>
        <time>2016-04-10T08:20:59Z</time>
      </trkpt>
      <trkpt lat="44.25265" lon="4.13396">
        <ele>277</ele>
        <time>2016-04-10T08:21:00Z</time>
      </trkpt>
      <trkpt lat="44.25257" lon="4.1341">
        <ele>276.04</ele>
        <time>2016-04-10T08:21:01Z</time>
      </trkpt>
      <trkpt lat="44.25251" lon="4.13425">
        <ele>276.04</ele>
        <time>2016-04-10T08:21:02Z</time>
      </trkpt>
      <trkpt lat="44.25246" lon="4.13441">
        <ele>274.59</ele>
        <time>2016-04-10T08:21:03Z</time>
      </trkpt>
      <trkpt lat="44.2524" lon="4.13456">
        <ele>274.11</ele>
        <time>2016-04-10T08:21:04Z</time>
      </trkpt>
      <trkpt lat="44.25233" lon="4.1347">
        <ele>273.15</ele>
        <time>2016-04-10T08:21:05Z</time>
      </trkpt>
      <trkpt lat="44.25224" lon="4.13481">
        <ele>271.71</ele>
        <time>2016-04-10T08:21:06Z</time>
      </trkpt>
      <trkpt lat="44.25213" lon="4.13489">
        <ele>271.23</ele>
        <time>2016-04-10T08:21:07Z</time>
      </trkpt>
      <trkpt lat="44.25204" lon="4.13498">
        <ele>271.23</ele>
        <time>2016-04-10T08:21:08Z</time>
      </trkpt>
      <trkpt lat="44.25194" lon="4.13509">
        <ele>271.23</ele>
        <time>2016-04-10T08:21:09Z</time>
      </trkpt>
      <trkpt lat="44.25186" lon="4.13521">
        <ele>270.75</ele>
        <time>2016-04-10T08:21:10Z</time>
      </trkpt>
      <trkpt lat="44.25182" lon="4.13535">
        <ele>270.27</ele>
        <time>2016-04-10T08:21:11Z</time>
      </trkpt>
      <trkpt lat="44.25182" lon="4.13548">
        <ele>269.31</ele>
        <time>2016-04-10T08:21:12Z</time>
      </trkpt>
      <trkpt lat="44.25203" lon="4.13562">
        <ele>265.94</ele>
        <time>2016-04-10T08:21:14Z</time>
      </trkpt>
      <trkpt lat="44.25218" lon="4.13563">
        <ele>264.98</ele>
        <time>2016-04-10T08:21:15Z</time>
      </trkpt>
      <trkpt lat="44.2523" lon="4.13556">
        <ele>264.02</ele>
        <time>2016-04-10T08:21:16Z</time>
      </trkpt>
      <trkpt lat="44.25247" lon="4.13552">
        <ele>264.02</ele>
        <time>2016-04-10T08:21:17Z</time>
      </trkpt>
      <trkpt lat="44.25268" lon="4.13544">
        <ele>262.58</ele>
        <time>2016-04-10T08:21:18Z</time>
      </trkpt>
      <trkpt lat="44.25285" lon="4.13545">
        <ele>262.1</ele>
        <time>2016-04-10T08:21:19Z</time>
      </trkpt>
      <trkpt lat="44.25304" lon="4.13552">
        <ele>261.62</ele>
        <time>2016-04-10T08:21:20Z</time>
      </trkpt>
      <trkpt lat="44.25323" lon="4.13563">
        <ele>261.14</ele>
        <time>2016-04-10T08:21:21Z</time>
      </trkpt>
      <trkpt lat="44.25339" lon="4.13578">
        <ele>260.65</ele>
        <time>2016-04-10T08:21:22Z</time>
      </trkpt>
      <trkpt lat="44.25352" lon="4.13596">
        <ele>259.69</ele>
        <time>2016-04-10T08:21:23Z</time>
      </trkpt>
      <trkpt lat="44.25366" lon="4.13613">
        <ele>258.73</ele>
        <time>2016-04-10T08:21:24Z</time>
      </trkpt>
      <trkpt lat="44.25405" lon="4.13654">
        <ele>255.37</ele>
        <time>2016-04-10T08:21:27Z</time>
      </trkpt>
      <trkpt lat="44.25415" lon="4.13669">
        <ele>253.93</ele>
        <time>2016-04-10T08:21:28Z</time>
      </trkpt>
      <trkpt lat="44.25423" lon="4.1369">
        <ele>252</ele>
        <time>2016-04-10T08:21:29Z</time>
      </trkpt>
      <trkpt lat="44.25424" lon="4.13713">
        <ele>251.04</ele>
        <time>2016-04-10T08:21:30Z</time>
      </trkpt>
      <trkpt lat="44.25422" lon="4.13733">
        <ele>249.6</ele>
        <time>2016-04-10T08:21:31Z</time>
      </trkpt>
      <trkpt lat="44.2542" lon="4.13752">
        <ele>248.16</ele>
        <time>2016-04-10T08:21:32Z</time>
      </trkpt>
      <trkpt lat="44.25422" lon="4.13767">
        <ele>247.2</ele>
        <time>2016-04-10T08:21:33Z</time>
      </trkpt>
      <trkpt lat="44.25424" lon="4.13776">
        <ele>245.75</ele>
        <time>2016-04-10T08:21:34Z</time>
      </trkpt>
      <trkpt lat="44.25433" lon="4.13776">
        <ele>244.31</ele>
        <time>2016-04-10T08:21:35Z</time>
      </trkpt>
      <trkpt lat="44.25443" lon="4.13778">
        <ele>243.35</ele>
        <time>2016-04-10T08:21:36Z</time>
      </trkpt>
      <trkpt lat="44.25456" lon="4.13775">
        <ele>245.27</ele>
        <time>2016-04-10T08:21:37Z</time>
      </trkpt>
      <trkpt lat="44.25466" lon="4.13779">
        <ele>244.79</ele>
        <time>2016-04-10T08:21:38Z</time>
      </trkpt>
      <trkpt lat="44.25475" lon="4.13784">
        <ele>243.83</ele>
        <time>2016-04-10T08:21:39Z</time>
      </trkpt>
      <trkpt lat="44.25483" lon="4.13796">
        <ele>243.35</ele>
        <time>2016-04-10T08:21:40Z</time>
      </trkpt>
      <trkpt lat="44.25488" lon="4.13809">
        <ele>242.87</ele>
        <time>2016-04-10T08:21:41Z</time>
      </trkpt>
      <trkpt lat="44.25501" lon="4.13828">
        <ele>240.95</ele>
        <time>2016-04-10T08:21:43Z</time>
      </trkpt>
      <trkpt lat="44.25509" lon="4.13829">
        <ele>239.99</ele>
        <time>2016-04-10T08:21:44Z</time>
      </trkpt>
      <trkpt lat="44.25519" lon="4.13822">
        <ele>237.58</ele>
        <time>2016-04-10T08:21:45Z</time>
      </trkpt>
      <trkpt lat="44.25531" lon="4.13812">
        <ele>236.62</ele>
        <time>2016-04-10T08:21:46Z</time>
      </trkpt>
      <trkpt lat="44.25542" lon="4.13794">
        <ele>235.66</ele>
        <time>2016-04-10T08:21:47Z</time>
      </trkpt>
      <trkpt lat="44.25552" lon="4.13774">
        <ele>234.7</ele>
        <time>2016-04-10T08:21:48Z</time>
      </trkpt>
      <trkpt lat="44.25565" lon="4.13753">
        <ele>234.7</ele>
        <time>2016-04-10T08:21:49Z</time>
      </trkpt>
      <trkpt lat="44.25592" lon="4.13721">
        <ele>235.66</ele>
        <time>2016-04-10T08:21:51Z</time>
      </trkpt>
      <trkpt lat="44.25608" lon="4.1371">
        <ele>236.62</ele>
        <time>2016-04-10T08:21:52Z</time>
      </trkpt>
      <trkpt lat="44.25649" lon="4.13689">
        <ele>239.02</ele>
        <time>2016-04-10T08:21:55Z</time>
      </trkpt>
      <trkpt lat="44.25662" lon="4.1369">
        <ele>239.99</ele>
        <time>2016-04-10T08:21:56Z</time>
      </trkpt>
      <trkpt lat="44.25675" lon="4.13697">
        <ele>240.47</ele>
        <time>2016-04-10T08:21:57Z</time>
      </trkpt>
      <trkpt lat="44.25688" lon="4.13703">
        <ele>242.39</ele>
        <time>2016-04-10T08:21:58Z</time>
      </trkpt>
      <trkpt lat="44.25699" lon="4.13716">
        <ele>243.83</ele>
        <time>2016-04-10T08:21:59Z</time>
      </trkpt>
      <trkpt lat="44.2571" lon="4.13729">
        <ele>244.31</ele>
        <time>2016-04-10T08:22:00Z</time>
      </trkpt>
      <trkpt lat="44.25721" lon="4.13741">
        <ele>244.31</ele>
        <time>2016-04-10T08:22:01Z</time>
      </trkpt>
      <trkpt lat="44.25763" lon="4.13776">
        <ele>243.83</ele>
        <time>2016-04-10T08:22:05Z</time>
      </trkpt>
      <trkpt lat="44.25773" lon="4.13777">
        <ele>243.35</ele>
        <time>2016-04-10T08:22:06Z</time>
      </trkpt>
      <trkpt lat="44.25783" lon="4.13773">
        <ele>242.87</ele>
        <time>2016-04-10T08:22:07Z</time>
      </trkpt>
      <trkpt lat="44.25791" lon="4.13749">
        <ele>240.47</ele>
        <time>2016-04-10T08:22:09Z</time>
      </trkpt>
      <trkpt lat="44.25788" lon="4.13731">
        <ele>239.99</ele>
        <time>2016-04-10T08:22:10Z</time>
      </trkpt>
      <trkpt lat="44.25784" lon="4.13714">
        <ele>238.54</ele>
        <time>2016-04-10T08:22:11Z</time>
      </trkpt>
      <trkpt lat="44.25777" lon="4.13695">
        <ele>238.06</ele>
        <time>2016-04-10T08:22:12Z</time>
      </trkpt>
      <trkpt lat="44.25768" lon="4.13675">
        <ele>238.06</ele>
        <time>2016-04-10T08:22:13Z</time>
      </trkpt>
      <trkpt lat="44.25759" lon="4.13655">
        <ele>239.51</ele>
        <time>2016-04-10T08:22:14Z</time>
      </trkpt>
      <trkpt lat="44.25752" lon="4.13633">
        <ele>240.47</ele>
        <time>2016-04-10T08:22:15Z</time>
      </trkpt>
      <trkpt lat="44.25746" lon="4.1361">
        <ele>240.47</ele>
        <time>2016-04-10T08:22:16Z</time>
      </trkpt>
      <trkpt lat="44.25743" lon="4.13585">
        <ele>240.47</ele>
        <time>2016-04-10T08:22:17Z</time>
      </trkpt>
      <trkpt lat="44.25743" lon="4.1356">
        <ele>240.47</ele>
        <time>2016-04-10T08:22:18Z</time>
      </trkpt>
      <trkpt lat="44.25748" lon="4.13536">
        <ele>240.47</ele>
        <time>2016-04-10T08:22:19Z</time>
      </trkpt>
      <trkpt lat="44.25754" lon="4.13514">
        <ele>240.47</ele>
        <time>2016-04-10T08:22:20Z</time>
      </trkpt>
      <trkpt lat="44.25763" lon="4.13496">
        <ele>240.47</ele>
        <time>2016-04-10T08:22:21Z</time>
      </trkpt>
      <trkpt lat="44.25775" lon="4.1348">
        <ele>240.95</ele>
        <time>2016-04-10T08:22:22Z</time>
      </trkpt>
      <trkpt lat="44.25787" lon="4.13466">
        <ele>240.47</ele>
        <time>2016-04-10T08:22:23Z</time>
      </trkpt>
      <trkpt lat="44.258" lon="4.13454">
        <ele>239.99</ele>
        <time>2016-04-10T08:22:24Z</time>
      </trkpt>
      <trkpt lat="44.25812" lon="4.1344">
        <ele>239.51</ele>
        <time>2016-04-10T08:22:25Z</time>
      </trkpt>
      <trkpt lat="44.25824" lon="4.13427">
        <ele>239.02</ele>
        <time>2016-04-10T08:22:26Z</time>
      </trkpt>
      <trkpt lat="44.25837" lon="4.1342">
        <ele>239.02</ele>
        <time>2016-04-10T08:22:27Z</time>
      </trkpt>
      <trkpt lat="44.2585" lon="4.13415">
        <ele>239.02</ele>
        <time>2016-04-10T08:22:28Z</time>
      </trkpt>
      <trkpt lat="44.25862" lon="4.13408">
        <ele>239.02</ele>
        <time>2016-04-10T08:22:29Z</time>
      </trkpt>
      <trkpt lat="44.25873" lon="4.13396">
        <ele>238.54</ele>
        <time>2016-04-10T08:22:30Z</time>
      </trkpt>
      <trkpt lat="44.25881" lon="4.13379">
        <ele>237.58</ele>
        <time>2016-04-10T08:22:31Z</time>
      </trkpt>
      <trkpt lat="44.25886" lon="4.13361">
        <ele>237.1</ele>
        <time>2016-04-10T08:22:32Z</time>
      </trkpt>
      <trkpt lat="44.25892" lon="4.13342">
        <ele>237.1</ele>
        <time>2016-04-10T08:22:33Z</time>
      </trkpt>
      <trkpt lat="44.25895" lon="4.13323">
        <ele>237.1</ele>
        <time>2016-04-10T08:22:34Z</time>
      </trkpt>
      <trkpt lat="44.25901" lon="4.13307">
        <ele>237.1</ele>
        <time>2016-04-10T08:22:35Z</time>
      </trkpt>
      <trkpt lat="44.25909" lon="4.133">
        <ele>236.62</ele>
        <time>2016-04-10T08:22:36Z</time>
      </trkpt>
      <trkpt lat="44.2592" lon="4.133">
        <ele>235.66</ele>
        <time>2016-04-10T08:22:37Z</time>
      </trkpt>
      <trkpt lat="44.25935" lon="4.13306">
        <ele>234.7</ele>
        <time>2016-04-10T08:22:38Z</time>
      </trkpt>
      <trkpt lat="44.25955" lon="4.13312">
        <ele>233.26</ele>
        <time>2016-04-10T08:22:39Z</time>
      </trkpt>
      <trkpt lat="44.26008" lon="4.13315">
        <ele>230.37</ele>
        <time>2016-04-10T08:22:42Z</time>
      </trkpt>
      <trkpt lat="44.26024" lon="4.13305">
        <ele>229.41</ele>
        <time>2016-04-10T08:22:43Z</time>
      </trkpt>
      <trkpt lat="44.2604" lon="4.13293">
        <ele>228.45</ele>
        <time>2016-04-10T08:22:44Z</time>
      </trkpt>
      <trkpt lat="44.26055" lon="4.13277">
        <ele>227.97</ele>
        <time>2016-04-10T08:22:45Z</time>
      </trkpt>
      <trkpt lat="44.26069" lon="4.1326">
        <ele>227.49</ele>
        <time>2016-04-10T08:22:46Z</time>
      </trkpt>
      <trkpt lat="44.26083" lon="4.13243">
        <ele>226.53</ele>
        <time>2016-04-10T08:22:47Z</time>
      </trkpt>
      <trkpt lat="44.26098" lon="4.13227">
        <ele>226.05</ele>
        <time>2016-04-10T08:22:48Z</time>
      </trkpt>
      <trkpt lat="44.26115" lon="4.13213">
        <ele>225.09</ele>
        <time>2016-04-10T08:22:49Z</time>
      </trkpt>
      <trkpt lat="44.26133" lon="4.13201">
        <ele>223.64</ele>
        <time>2016-04-10T08:22:50Z</time>
      </trkpt>
      <trkpt lat="44.26153" lon="4.13191">
        <ele>223.16</ele>
        <time>2016-04-10T08:22:51Z</time>
      </trkpt>
      <trkpt lat="44.26175" lon="4.13188">
        <ele>222.2</ele>
        <time>2016-04-10T08:22:52Z</time>
      </trkpt>
      <trkpt lat="44.26199" lon="4.13191">
        <ele>221.72</ele>
        <time>2016-04-10T08:22:53Z</time>
      </trkpt>
      <trkpt lat="44.2622" lon="4.13192">
        <ele>221.24</ele>
        <time>2016-04-10T08:22:54Z</time>
      </trkpt>
      <trkpt lat="44.26238" lon="4.13197">
        <ele>220.76</ele>
        <time>2016-04-10T08:22:55Z</time>
      </trkpt>
      <trkpt lat="44.26256" lon="4.13204">
        <ele>220.28</ele>
        <time>2016-04-10T08:22:56Z</time>
      </trkpt>
      <trkpt lat="44.26272" lon="4.1321">
        <ele>219.32</ele>
        <time>2016-04-10T08:22:57Z</time>
      </trkpt>
      <trkpt lat="44.26288" lon="4.13217">
        <ele>218.84</ele>
        <time>2016-04-10T08:22:58Z</time>
      </trkpt>
      <trkpt lat="44.26343" lon="4.13256">
        <ele>214.51</ele>
        <time>2016-04-10T08:23:02Z</time>
      </trkpt>
      <trkpt lat="44.26354" lon="4.13276">
        <ele>214.03</ele>
        <time>2016-04-10T08:23:03Z</time>
      </trkpt>
      <trkpt lat="44.2636" lon="4.13298">
        <ele>213.55</ele>
        <time>2016-04-10T08:23:04Z</time>
      </trkpt>
      <trkpt lat="44.26369" lon="4.13321">
        <ele>213.07</ele>
        <time>2016-04-10T08:23:05Z</time>
      </trkpt>
      <trkpt lat="44.26378" lon="4.13342">
        <ele>211.63</ele>
        <time>2016-04-10T08:23:06Z</time>
      </trkpt>
      <trkpt lat="44.26407" lon="4.1341">
        <ele>206.82</ele>
        <time>2016-04-10T08:23:10Z</time>
      </trkpt>
      <trkpt lat="44.26414" lon="4.13416">
        <ele>205.38</ele>
        <time>2016-04-10T08:23:11Z</time>
      </trkpt>
      <trkpt lat="44.26422" lon="4.13416">
        <ele>203.46</ele>
        <time>2016-04-10T08:23:12Z</time>
      </trkpt>
      <trkpt lat="44.26433" lon="4.1341">
        <ele>202.49</ele>
        <time>2016-04-10T08:23:13Z</time>
      </trkpt>
      <trkpt lat="44.26444" lon="4.13402">
        <ele>201.05</ele>
        <time>2016-04-10T08:23:14Z</time>
      </trkpt>
      <trkpt lat="44.26458" lon="4.13392">
        <ele>201.05</ele>
        <time>2016-04-10T08:23:15Z</time>
      </trkpt>
      <trkpt lat="44.26472" lon="4.13392">
        <ele>200.57</ele>
        <time>2016-04-10T08:23:16Z</time>
      </trkpt>
      <trkpt lat="44.26487" lon="4.13398">
        <ele>200.09</ele>
        <time>2016-04-10T08:23:17Z</time>
      </trkpt>
      <trkpt lat="44.26502" lon="4.13407">
        <ele>199.61</ele>
        <time>2016-04-10T08:23:18Z</time>
      </trkpt>
      <trkpt lat="44.26517" lon="4.13418">
        <ele>198.65</ele>
        <time>2016-04-10T08:23:19Z</time>
      </trkpt>
      <trkpt lat="44.26531" lon="4.1343">
        <ele>198.17</ele>
        <time>2016-04-10T08:23:20Z</time>
      </trkpt>
      <trkpt lat="44.26545" lon="4.13442">
        <ele>197.21</ele>
        <time>2016-04-10T08:23:21Z</time>
      </trkpt>
      <trkpt lat="44.26558" lon="4.13457">
        <ele>194.8</ele>
        <time>2016-04-10T08:23:22Z</time>
      </trkpt>
      <trkpt lat="44.26569" lon="4.13475">
        <ele>193.36</ele>
        <time>2016-04-10T08:23:23Z</time>
      </trkpt>
      <trkpt lat="44.266" lon="4.13524">
        <ele>190.48</ele>
        <time>2016-04-10T08:23:26Z</time>
      </trkpt>
      <trkpt lat="44.26611" lon="4.13536">
        <ele>189.04</ele>
        <time>2016-04-10T08:23:27Z</time>
      </trkpt>
      <trkpt lat="44.26625" lon="4.13544">
        <ele>188.08</ele>
        <time>2016-04-10T08:23:28Z</time>
      </trkpt>
      <trkpt lat="44.2664" lon="4.13548">
        <ele>187.11</ele>
        <time>2016-04-10T08:23:29Z</time>
      </trkpt>
      <trkpt lat="44.26657" lon="4.1355">
        <ele>186.15</ele>
        <time>2016-04-10T08:23:30Z</time>
      </trkpt>
      <trkpt lat="44.26673" lon="4.13555">
        <ele>184.71</ele>
        <time>2016-04-10T08:23:31Z</time>
      </trkpt>
      <trkpt lat="44.26689" lon="4.13562">
        <ele>183.75</ele>
        <time>2016-04-10T08:23:32Z</time>
      </trkpt>
      <trkpt lat="44.26703" lon="4.13572">
        <ele>182.79</ele>
        <time>2016-04-10T08:23:33Z</time>
      </trkpt>
      <trkpt lat="44.26717" lon="4.13585">
        <ele>181.83</ele>
        <time>2016-04-10T08:23:34Z</time>
      </trkpt>
      <trkpt lat="44.26729" lon="4.136">
        <ele>180.38</ele>
        <time>2016-04-10T08:23:35Z</time>
      </trkpt>
      <trkpt lat="44.26739" lon="4.13617">
        <ele>179.9</ele>
        <time>2016-04-10T08:23:36Z</time>
      </trkpt>
      <trkpt lat="44.26749" lon="4.13637">
        <ele>178.94</ele>
        <time>2016-04-10T08:23:37Z</time>
      </trkpt>
      <trkpt lat="44.26759" lon="4.13655">
        <ele>178.46</ele>
        <time>2016-04-10T08:23:38Z</time>
      </trkpt>
      <trkpt lat="44.2677" lon="4.13673">
        <ele>177.98</ele>
        <time>2016-04-10T08:23:39Z</time>
      </trkpt>
      <trkpt lat="44.26782" lon="4.13688">
        <ele>177.5</ele>
        <time>2016-04-10T08:23:40Z</time>
      </trkpt>
      <trkpt lat="44.26798" lon="4.137">
        <ele>176.54</ele>
        <time>2016-04-10T08:23:41Z</time>
      </trkpt>
      <trkpt lat="44.26816" lon="4.1371">
        <ele>175.58</ele>
        <time>2016-04-10T08:23:42Z</time>
      </trkpt>
      <trkpt lat="44.26833" lon="4.13718">
        <ele>174.62</ele>
        <time>2016-04-10T08:23:43Z</time>
      </trkpt>
      <trkpt lat="44.26957" lon="4.138">
        <ele>172.21</ele>
        <time>2016-04-10T08:23:51Z</time>
      </trkpt>
      <trkpt lat="44.2697" lon="4.13816">
        <ele>172.21</ele>
        <time>2016-04-10T08:23:52Z</time>
      </trkpt>
      <trkpt lat="44.26982" lon="4.13833">
        <ele>171.73</ele>
        <time>2016-04-10T08:23:53Z</time>
      </trkpt>
      <trkpt lat="44.26994" lon="4.13852">
        <ele>171.25</ele>
        <time>2016-04-10T08:23:54Z</time>
      </trkpt>
      <trkpt lat="44.27003" lon="4.13873">
        <ele>170.77</ele>
        <time>2016-04-10T08:23:55Z</time>
      </trkpt>
      <trkpt lat="44.27012" lon="4.13894">
        <ele>171.25</ele>
        <time>2016-04-10T08:23:56Z</time>
      </trkpt>
      <trkpt lat="44.27018" lon="4.13916">
        <ele>171.73</ele>
        <time>2016-04-10T08:23:57Z</time>
      </trkpt>
      <trkpt lat="44.27025" lon="4.13937">
        <ele>172.69</ele>
        <time>2016-04-10T08:23:58Z</time>
      </trkpt>
      <trkpt lat="44.27089" lon="4.14095">
        <ele>174.14</ele>
        <time>2016-04-10T08:24:06Z</time>
      </trkpt>
      <trkpt lat="44.27095" lon="4.14117">
        <ele>174.14</ele>
        <time>2016-04-10T08:24:07Z</time>
      </trkpt>
      <trkpt lat="44.271" lon="4.14141">
        <ele>173.66</ele>
        <time>2016-04-10T08:24:08Z</time>
      </trkpt>
      <trkpt lat="44.27121" lon="4.14338">
        <ele>174.62</ele>
        <time>2016-04-10T08:24:16Z</time>
      </trkpt>
      <trkpt lat="44.2712" lon="4.14377">
        <ele>174.62</ele>
        <time>2016-04-10T08:24:18Z</time>
      </trkpt>
      <trkpt lat="44.27118" lon="4.14396">
        <ele>174.62</ele>
        <time>2016-04-10T08:24:19Z</time>
      </trkpt>
      <trkpt lat="44.27113" lon="4.14414">
        <ele>174.14</ele>
        <time>2016-04-10T08:24:20Z</time>
      </trkpt>
      <trkpt lat="44.27105" lon="4.14428">
        <ele>174.14</ele>
        <time>2016-04-10T08:24:21Z</time>
      </trkpt>
      <trkpt lat="44.27096" lon="4.14442">
        <ele>173.66</ele>
        <time>2016-04-10T08:24:22Z</time>
      </trkpt>
      <trkpt lat="44.27085" lon="4.14453">
        <ele>172.21</ele>
        <time>2016-04-10T08:24:23Z</time>
      </trkpt>
      <trkpt lat="44.27076" lon="4.14466">
        <ele>172.21</ele>
        <time>2016-04-10T08:24:24Z</time>
      </trkpt>
      <trkpt lat="44.2707" lon="4.1448">
        <ele>171.73</ele>
        <time>2016-04-10T08:24:25Z</time>
      </trkpt>
      <trkpt lat="44.27067" lon="4.14495">
        <ele>171.25</ele>
        <time>2016-04-10T08:24:26Z</time>
      </trkpt>
      <trkpt lat="44.27066" lon="4.1451">
        <ele>171.25</ele>
        <time>2016-04-10T08:24:27Z</time>
      </trkpt>
      <trkpt lat="44.27068" lon="4.14525">
        <ele>170.77</ele>
        <time>2016-04-10T08:24:28Z</time>
      </trkpt>
      <trkpt lat="44.27071" lon="4.1454">
        <ele>170.29</ele>
        <time>2016-04-10T08:24:29Z</time>
      </trkpt>
      <trkpt lat="44.27075" lon="4.14555">
        <ele>169.33</ele>
        <time>2016-04-10T08:24:30Z</time>
      </trkpt>
      <trkpt lat="44.27086" lon="4.14604">
        <ele>167.89</ele>
        <time>2016-04-10T08:24:33Z</time>
      </trkpt>
      <trkpt lat="44.27086" lon="4.1462">
        <ele>166.93</ele>
        <time>2016-04-10T08:24:34Z</time>
      </trkpt>
      <trkpt lat="44.27084" lon="4.14635">
        <ele>166.45</ele>
        <time>2016-04-10T08:24:35Z</time>
      </trkpt>
      <trkpt lat="44.27078" lon="4.14647">
        <ele>165.96</ele>
        <time>2016-04-10T08:24:36Z</time>
      </trkpt>
      <trkpt lat="44.27066" lon="4.14651">
        <ele>164.52</ele>
        <time>2016-04-10T08:24:37Z</time>
      </trkpt>
      <trkpt lat="44.27052" lon="4.14654">
        <ele>163.56</ele>
        <time>2016-04-10T08:24:38Z</time>
      </trkpt>
      <trkpt lat="44.27041" lon="4.14656">
        <ele>164.04</ele>
        <time>2016-04-10T08:24:39Z</time>
      </trkpt>
      <trkpt lat="44.27031" lon="4.14658">
        <ele>164.04</ele>
        <time>2016-04-10T08:24:40Z</time>
      </trkpt>
      <trkpt lat="44.27023" lon="4.14663">
        <ele>164.04</ele>
        <time>2016-04-10T08:24:41Z</time>
      </trkpt>
      <trkpt lat="44.2702" lon="4.14671">
        <ele>164.04</ele>
        <time>2016-04-10T08:24:42Z</time>
      </trkpt>
      <trkpt lat="44.27019" lon="4.1468">
        <ele>164.04</ele>
        <time>2016-04-10T08:24:43Z</time>
      </trkpt>
      <trkpt lat="44.27019" lon="4.1469">
        <ele>164.04</ele>
        <time>2016-04-10T08:24:44Z</time>
      </trkpt>
      <trkpt lat="44.27019" lon="4.147">
        <ele>163.08</ele>
        <time>2016-04-10T08:24:45Z</time>
      </trkpt>
      <trkpt lat="44.27011" lon="4.14803">
        <ele>160.68</ele>
        <time>2016-04-10T08:24:53Z</time>
      </trkpt>
      <trkpt lat="44.26999" lon="4.14913">
        <ele>159.72</ele>
        <time>2016-04-10T08:25:01Z</time>
      </trkpt>
      <trkpt lat="44.26996" lon="4.14924">
        <ele>159.72</ele>
        <time>2016-04-10T08:25:02Z</time>
      </trkpt>
      <trkpt lat="44.26989" lon="4.14933">
        <ele>159.24</ele>
        <time>2016-04-10T08:25:03Z</time>
      </trkpt>
      <trkpt lat="44.26981" lon="4.14938">
        <ele>158.75</ele>
        <time>2016-04-10T08:25:04Z</time>
      </trkpt>
      <trkpt lat="44.2697" lon="4.14937">
        <ele>158.75</ele>
        <time>2016-04-10T08:25:05Z</time>
      </trkpt>
      <trkpt lat="44.26957" lon="4.14934">
        <ele>158.27</ele>
        <time>2016-04-10T08:25:06Z</time>
      </trkpt>
      <trkpt lat="44.26944" lon="4.14931">
        <ele>158.27</ele>
        <time>2016-04-10T08:25:07Z</time>
      </trkpt>
      <trkpt lat="44.26932" lon="4.14929">
        <ele>157.79</ele>
        <time>2016-04-10T08:25:08Z</time>
      </trkpt>
      <trkpt lat="44.26825" lon="4.14906">
        <ele>155.39</ele>
        <time>2016-04-10T08:25:19Z</time>
      </trkpt>
      <trkpt lat="44.26758" lon="4.14887">
        <ele>156.35</ele>
        <time>2016-04-10T08:25:26Z</time>
      </trkpt>
      <trkpt lat="44.26746" lon="4.14889">
        <ele>155.87</ele>
        <time>2016-04-10T08:25:27Z</time>
      </trkpt>
      <trkpt lat="44.26734" lon="4.14895">
        <ele>156.35</ele>
        <time>2016-04-10T08:25:28Z</time>
      </trkpt>
      <trkpt lat="44.26667" lon="4.14956">
        <ele>157.79</ele>
        <time>2016-04-10T08:25:36Z</time>
      </trkpt>
      <trkpt lat="44.26617" lon="4.15024">
        <ele>157.31</ele>
        <time>2016-04-10T08:25:46Z</time>
      </trkpt>
      <trkpt lat="44.26611" lon="4.15038">
        <ele>156.35</ele>
        <time>2016-04-10T08:25:51Z</time>
      </trkpt>
      <trkpt lat="44.26612" lon="4.15042">
        <ele>156.35</ele>
        <time>2016-04-10T08:25:52Z</time>
      </trkpt>
      <trkpt lat="44.26615" lon="4.15047">
        <ele>156.35</ele>
        <time>2016-04-10T08:25:53Z</time>
      </trkpt>
      <trkpt lat="44.2662" lon="4.15053">
        <ele>156.35</ele>
        <time>2016-04-10T08:25:54Z</time>
      </trkpt>
      <trkpt lat="44.26627" lon="4.1506">
        <ele>156.35</ele>
        <time>2016-04-10T08:25:55Z</time>
      </trkpt>
      <trkpt lat="44.26636" lon="4.1507">
        <ele>156.35</ele>
        <time>2016-04-10T08:25:56Z</time>
      </trkpt>
      <trkpt lat="44.26644" lon="4.15081">
        <ele>156.83</ele>
        <time>2016-04-10T08:25:57Z</time>
      </trkpt>
      <trkpt lat="44.26651" lon="4.15094">
        <ele>156.83</ele>
        <time>2016-04-10T08:25:58Z</time>
      </trkpt>
      <trkpt lat="44.26659" lon="4.15108">
        <ele>156.83</ele>
        <time>2016-04-10T08:25:59Z</time>
      </trkpt>
      <trkpt lat="44.26665" lon="4.15125">
        <ele>157.31</ele>
        <time>2016-04-10T08:26:00Z</time>
      </trkpt>
      <trkpt lat="44.2667" lon="4.15145">
        <ele>157.31</ele>
        <time>2016-04-10T08:26:01Z</time>
      </trkpt>
      <trkpt lat="44.26672" lon="4.15166">
        <ele>157.79</ele>
        <time>2016-04-10T08:26:02Z</time>
      </trkpt>
      <trkpt lat="44.26674" lon="4.15187">
        <ele>158.75</ele>
        <time>2016-04-10T08:26:03Z</time>
      </trkpt>
      <trkpt lat="44.26674" lon="4.15207">
        <ele>159.24</ele>
        <time>2016-04-10T08:26:04Z</time>
      </trkpt>
      <trkpt lat="44.26676" lon="4.15308">
        <ele>162.6</ele>
        <time>2016-04-10T08:26:11Z</time>
      </trkpt>
      <trkpt lat="44.26677" lon="4.1534">
        <ele>163.56</ele>
        <time>2016-04-10T08:26:18Z</time>
      </trkpt>
      <trkpt lat="44.26679" lon="4.15348">
        <ele>164.04</ele>
        <time>2016-04-10T08:26:28Z</time>
      </trkpt>
      <trkpt lat="44.26681" lon="4.15356">
        <ele>164.52</ele>
        <time>2016-04-10T08:26:30Z</time>
      </trkpt>
      <trkpt lat="44.26684" lon="4.15363">
        <ele>165</ele>
        <time>2016-04-10T08:26:31Z</time>
      </trkpt>
      <trkpt lat="44.26691" lon="4.1537">
        <ele>165</ele>
        <time>2016-04-10T08:26:32Z</time>
      </trkpt>
      <trkpt lat="44.26702" lon="4.15377">
        <ele>165</ele>
        <time>2016-04-10T08:26:33Z</time>
      </trkpt>
      <trkpt lat="44.26715" lon="4.15387">
        <ele>165.48</ele>
        <time>2016-04-10T08:26:34Z</time>
      </trkpt>
      <trkpt lat="44.26732" lon="4.15404">
        <ele>165.48</ele>
        <time>2016-04-10T08:26:35Z</time>
      </trkpt>
      <trkpt lat="44.26749" lon="4.15422">
        <ele>165.96</ele>
        <time>2016-04-10T08:26:36Z</time>
      </trkpt>
      <trkpt lat="44.26764" lon="4.15443">
        <ele>165.96</ele>
        <time>2016-04-10T08:26:37Z</time>
      </trkpt>
      <trkpt lat="44.2678" lon="4.15463">
        <ele>165.96</ele>
        <time>2016-04-10T08:26:38Z</time>
      </trkpt>
      <trkpt lat="44.26798" lon="4.15481">
        <ele>165.96</ele>
        <time>2016-04-10T08:26:39Z</time>
      </trkpt>
      <trkpt lat="44.26816" lon="4.15494">
        <ele>166.93</ele>
        <time>2016-04-10T08:26:40Z</time>
      </trkpt>
      <trkpt lat="44.26836" lon="4.15505">
        <ele>167.89</ele>
        <time>2016-04-10T08:26:41Z</time>
      </trkpt>
      <trkpt lat="44.26857" lon="4.15512">
        <ele>168.37</ele>
        <time>2016-04-10T08:26:42Z</time>
      </trkpt>
      <trkpt lat="44.26878" lon="4.15511">
        <ele>168.37</ele>
        <time>2016-04-10T08:26:43Z</time>
      </trkpt>
      <trkpt lat="44.269" lon="4.15505">
        <ele>168.37</ele>
        <time>2016-04-10T08:26:44Z</time>
      </trkpt>
      <trkpt lat="44.26921" lon="4.15498">
        <ele>168.37</ele>
        <time>2016-04-10T08:26:45Z</time>
      </trkpt>
      <trkpt lat="44.26942" lon="4.15488">
        <ele>168.37</ele>
        <time>2016-04-10T08:26:46Z</time>
      </trkpt>
      <trkpt lat="44.26965" lon="4.15475">
        <ele>167.89</ele>
        <time>2016-04-10T08:26:47Z</time>
      </trkpt>
      <trkpt lat="44.27159" lon="4.15376">
        <ele>168.37</ele>
        <time>2016-04-10T08:26:55Z</time>
      </trkpt>
      <trkpt lat="44.27358" lon="4.15244">
        <ele>167.41</ele>
        <time>2016-04-10T08:27:04Z</time>
      </trkpt>
      <trkpt lat="44.27529" lon="4.15149">
        <ele>164.04</ele>
        <time>2016-04-10T08:27:12Z</time>
      </trkpt>
      <trkpt lat="44.27547" lon="4.1513">
        <ele>163.56</ele>
        <time>2016-04-10T08:27:13Z</time>
      </trkpt>
      <trkpt lat="44.27563" lon="4.15109">
        <ele>164.04</ele>
        <time>2016-04-10T08:27:14Z</time>
      </trkpt>
      <trkpt lat="44.27625" lon="4.15019">
        <ele>165</ele>
        <time>2016-04-10T08:27:19Z</time>
      </trkpt>
      <trkpt lat="44.27634" lon="4.15003">
        <ele>164.52</ele>
        <time>2016-04-10T08:27:20Z</time>
      </trkpt>
      <trkpt lat="44.2764" lon="4.14986">
        <ele>164.52</ele>
        <time>2016-04-10T08:27:21Z</time>
      </trkpt>
      <trkpt lat="44.27645" lon="4.14969">
        <ele>164.52</ele>
        <time>2016-04-10T08:27:22Z</time>
      </trkpt>
      <trkpt lat="44.27649" lon="4.14953">
        <ele>164.52</ele>
        <time>2016-04-10T08:27:23Z</time>
      </trkpt>
      <trkpt lat="44.27673" lon="4.14842">
        <ele>162.6</ele>
        <time>2016-04-10T08:27:31Z</time>
      </trkpt>
      <trkpt lat="44.27677" lon="4.14742">
        <ele>161.64</ele>
        <time>2016-04-10T08:27:38Z</time>
      </trkpt>
      <trkpt lat="44.27676" lon="4.14619">
        <ele>161.16</ele>
        <time>2016-04-10T08:27:48Z</time>
      </trkpt>
      <trkpt lat="44.27681" lon="4.14469">
        <ele>162.12</ele>
        <time>2016-04-10T08:27:58Z</time>
      </trkpt>
      <trkpt lat="44.27695" lon="4.14329">
        <ele>163.08</ele>
        <time>2016-04-10T08:28:08Z</time>
      </trkpt>
      <trkpt lat="44.27729" lon="4.14166">
        <ele>163.08</ele>
        <time>2016-04-10T08:28:17Z</time>
      </trkpt>
      <trkpt lat="44.27749" lon="4.14087">
        <ele>162.12</ele>
        <time>2016-04-10T08:28:24Z</time>
      </trkpt>
      <trkpt lat="44.2777" lon="4.13952">
        <ele>161.64</ele>
        <time>2016-04-10T08:28:34Z</time>
      </trkpt>
      <trkpt lat="44.27753" lon="4.13821">
        <ele>160.68</ele>
        <time>2016-04-10T08:28:40Z</time>
      </trkpt>
      <trkpt lat="44.27695" lon="4.13587">
        <ele>159.24</ele>
        <time>2016-04-10T08:28:51Z</time>
      </trkpt>
      <trkpt lat="44.27692" lon="4.13428">
        <ele>160.2</ele>
        <time>2016-04-10T08:28:59Z</time>
      </trkpt>
      <trkpt lat="44.27708" lon="4.13251">
        <ele>162.12</ele>
        <time>2016-04-10T08:29:10Z</time>
      </trkpt>
      <trkpt lat="44.27714" lon="4.13234">
        <ele>162.12</ele>
        <time>2016-04-10T08:29:11Z</time>
      </trkpt>
      <trkpt lat="44.27721" lon="4.13218">
        <ele>162.6</ele>
        <time>2016-04-10T08:29:12Z</time>
      </trkpt>
      <trkpt lat="44.27729" lon="4.13202">
        <ele>163.08</ele>
        <time>2016-04-10T08:29:13Z</time>
      </trkpt>
      <trkpt lat="44.27739" lon="4.13187">
        <ele>163.56</ele>
        <time>2016-04-10T08:29:14Z</time>
      </trkpt>
      <trkpt lat="44.27748" lon="4.13172">
        <ele>164.04</ele>
        <time>2016-04-10T08:29:15Z</time>
      </trkpt>
      <trkpt lat="44.27825" lon="4.13057">
        <ele>166.93</ele>
        <time>2016-04-10T08:29:24Z</time>
      </trkpt>
      <trkpt lat="44.27861" lon="4.12989">
        <ele>168.37</ele>
        <time>2016-04-10T08:29:30Z</time>
      </trkpt>
      <trkpt lat="44.27865" lon="4.12975">
        <ele>168.37</ele>
        <time>2016-04-10T08:29:31Z</time>
      </trkpt>
      <trkpt lat="44.27869" lon="4.12958">
        <ele>168.37</ele>
        <time>2016-04-10T08:29:32Z</time>
      </trkpt>
      <trkpt lat="44.27907" lon="4.12825">
        <ele>167.41</ele>
        <time>2016-04-10T08:29:39Z</time>
      </trkpt>
      <trkpt lat="44.27924" lon="4.12643">
        <ele>165.96</ele>
        <time>2016-04-10T08:29:48Z</time>
      </trkpt>
      <trkpt lat="44.27939" lon="4.12537">
        <ele>164.52</ele>
        <time>2016-04-10T08:29:54Z</time>
      </trkpt>
      <trkpt lat="44.27944" lon="4.12522">
        <ele>164.52</ele>
        <time>2016-04-10T08:29:55Z</time>
      </trkpt>
      <trkpt lat="44.27952" lon="4.12509">
        <ele>164.04</ele>
        <time>2016-04-10T08:29:56Z</time>
      </trkpt>
      <trkpt lat="44.27962" lon="4.12498">
        <ele>163.56</ele>
        <time>2016-04-10T08:29:57Z</time>
      </trkpt>
      <trkpt lat="44.27974" lon="4.12489">
        <ele>163.08</ele>
        <time>2016-04-10T08:29:58Z</time>
      </trkpt>
      <trkpt lat="44.27989" lon="4.12482">
        <ele>162.6</ele>
        <time>2016-04-10T08:29:59Z</time>
      </trkpt>
      <trkpt lat="44.28004" lon="4.12476">
        <ele>162.6</ele>
        <time>2016-04-10T08:30:00Z</time>
      </trkpt>
      <trkpt lat="44.28083" lon="4.12422">
        <ele>163.08</ele>
        <time>2016-04-10T08:30:06Z</time>
      </trkpt>
      <trkpt lat="44.28092" lon="4.12408">
        <ele>163.08</ele>
        <time>2016-04-10T08:30:07Z</time>
      </trkpt>
      <trkpt lat="44.28099" lon="4.1239">
        <ele>163.08</ele>
        <time>2016-04-10T08:30:08Z</time>
      </trkpt>
      <trkpt lat="44.28105" lon="4.12372">
        <ele>163.56</ele>
        <time>2016-04-10T08:30:09Z</time>
      </trkpt>
      <trkpt lat="44.2811" lon="4.12354">
        <ele>164.04</ele>
        <time>2016-04-10T08:30:10Z</time>
      </trkpt>
      <trkpt lat="44.28156" lon="4.12179">
        <ele>165</ele>
        <time>2016-04-10T08:30:19Z</time>
      </trkpt>
      <trkpt lat="44.28171" lon="4.12041">
        <ele>165.48</ele>
        <time>2016-04-10T08:30:29Z</time>
      </trkpt>
      <trkpt lat="44.28181" lon="4.11901">
        <ele>165.96</ele>
        <time>2016-04-10T08:30:41Z</time>
      </trkpt>
      <trkpt lat="44.28195" lon="4.11791">
        <ele>165</ele>
        <time>2016-04-10T08:30:51Z</time>
      </trkpt>
      <trkpt lat="44.28215" lon="4.11677">
        <ele>165.48</ele>
        <time>2016-04-10T08:30:59Z</time>
      </trkpt>
      <trkpt lat="44.28239" lon="4.11559">
        <ele>165.48</ele>
        <time>2016-04-10T08:31:06Z</time>
      </trkpt>
      <trkpt lat="44.28301" lon="4.11347">
        <ele>166.45</ele>
        <time>2016-04-10T08:31:15Z</time>
      </trkpt>
      <trkpt lat="44.28382" lon="4.11184">
        <ele>168.37</ele>
        <time>2016-04-10T08:31:21Z</time>
      </trkpt>
      <trkpt lat="44.28438" lon="4.10999">
        <ele>171.25</ele>
        <time>2016-04-10T08:31:27Z</time>
      </trkpt>
      <trkpt lat="44.28481" lon="4.10853">
        <ele>171.73</ele>
        <time>2016-04-10T08:31:34Z</time>
      </trkpt>
      <trkpt lat="44.28489" lon="4.10834">
        <ele>171.73</ele>
        <time>2016-04-10T08:31:35Z</time>
      </trkpt>
      <trkpt lat="44.28498" lon="4.10817">
        <ele>171.25</ele>
        <time>2016-04-10T08:31:36Z</time>
      </trkpt>
      <trkpt lat="44.28509" lon="4.10801">
        <ele>170.77</ele>
        <time>2016-04-10T08:31:37Z</time>
      </trkpt>
      <trkpt lat="44.28523" lon="4.10787">
        <ele>170.29</ele>
        <time>2016-04-10T08:31:38Z</time>
      </trkpt>
      <trkpt lat="44.28538" lon="4.10774">
        <ele>170.29</ele>
        <time>2016-04-10T08:31:39Z</time>
      </trkpt>
      <trkpt lat="44.28552" lon="4.10762">
        <ele>169.81</ele>
        <time>2016-04-10T08:31:40Z</time>
      </trkpt>
      <trkpt lat="44.28637" lon="4.10656">
        <ele>168.85</ele>
        <time>2016-04-10T08:31:47Z</time>
      </trkpt>
      <trkpt lat="44.28736" lon="4.10474">
        <ele>168.85</ele>
        <time>2016-04-10T08:31:58Z</time>
      </trkpt>
      <trkpt lat="44.28819" lon="4.10266">
        <ele>170.77</ele>
        <time>2016-04-10T08:32:09Z</time>
      </trkpt>
      <trkpt lat="44.28872" lon="4.10112">
        <ele>172.21</ele>
        <time>2016-04-10T08:32:18Z</time>
      </trkpt>
      <trkpt lat="44.28884" lon="4.10075">
        <ele>172.69</ele>
        <time>2016-04-10T08:32:22Z</time>
      </trkpt>
      <trkpt lat="44.28887" lon="4.1007">
        <ele>172.69</ele>
        <time>2016-04-10T08:32:23Z</time>
      </trkpt>
      <trkpt lat="44.28893" lon="4.10072">
        <ele>172.69</ele>
        <time>2016-04-10T08:32:24Z</time>
      </trkpt>
      <trkpt lat="44.28899" lon="4.10074">
        <ele>173.17</ele>
        <time>2016-04-10T08:32:25Z</time>
      </trkpt>
      <trkpt lat="44.28906" lon="4.1008">
        <ele>172.69</ele>
        <time>2016-04-10T08:32:26Z</time>
      </trkpt>
      <trkpt lat="44.28912" lon="4.10085">
        <ele>172.69</ele>
        <time>2016-04-10T08:32:27Z</time>
      </trkpt>
      <trkpt lat="44.28963" lon="4.10246">
        <ele>175.1</ele>
        <time>2016-04-10T09:09:52Z</time>
      </trkpt>
      <trkpt lat="44.28971" lon="4.10247">
        <ele>172.69</ele>
        <time>2016-04-10T09:11:24Z</time>
      </trkpt>
      <trkpt lat="44.28969" lon="4.10235">
        <ele>171.25</ele>
        <time>2016-04-10T09:11:33Z</time>
      </trkpt>
      <trkpt lat="44.28969" lon="4.10243">
        <ele>171.25</ele>
        <time>2016-04-10T09:11:36Z</time>
      </trkpt>
      <trkpt lat="44.28971" lon="4.10251">
        <ele>171.73</ele>
        <time>2016-04-10T09:11:53Z</time>
      </trkpt>
      <trkpt lat="44.28973" lon="4.10256">
        <ele>172.21</ele>
        <time>2016-04-10T09:12:11Z</time>
      </trkpt>
      <trkpt lat="44.28982" lon="4.10263">
        <ele>172.69</ele>
        <time>2016-04-10T09:12:14Z</time>
      </trkpt>
      <trkpt lat="44.29003" lon="4.10271">
        <ele>178.46</ele>
        <time>2016-04-10T09:12:22Z</time>
      </trkpt>
      <trkpt lat="44.29007" lon="4.10268">
        <ele>180.38</ele>
        <time>2016-04-10T09:12:27Z</time>
      </trkpt>
      <trkpt lat="44.2901" lon="4.10257">
        <ele>180.38</ele>
        <time>2016-04-10T09:12:29Z</time>
      </trkpt>
      <trkpt lat="44.29024" lon="4.10186">
        <ele>180.87</ele>
        <time>2016-04-10T09:12:37Z</time>
      </trkpt>
      <trkpt lat="44.29028" lon="4.10137">
        <ele>175.1</ele>
        <time>2016-04-10T09:12:43Z</time>
      </trkpt>
      <trkpt lat="44.29025" lon="4.10132">
        <ele>174.62</ele>
        <time>2016-04-10T09:12:44Z</time>
      </trkpt>
      <trkpt lat="44.29021" lon="4.10134">
        <ele>173.66</ele>
        <time>2016-04-10T09:12:45Z</time>
      </trkpt>
      <trkpt lat="44.29015" lon="4.10135">
        <ele>174.14</ele>
        <time>2016-04-10T09:12:46Z</time>
      </trkpt>
      <trkpt lat="44.2901" lon="4.10135">
        <ele>173.66</ele>
        <time>2016-04-10T09:12:47Z</time>
      </trkpt>
      <trkpt lat="44.28998" lon="4.10132">
        <ele>173.17</ele>
        <time>2016-04-10T09:12:49Z</time>
      </trkpt>
      <trkpt lat="44.28984" lon="4.10129">
        <ele>180.87</ele>
        <time>2016-04-10T09:12:57Z</time>
      </trkpt>
      <trkpt lat="44.28982" lon="4.1013">
        <ele>192.4</ele>
        <time>2016-04-10T09:13:19Z</time>
      </trkpt>
      <trkpt lat="44.28981" lon="4.10129">
        <ele>192.4</ele>
        <time>2016-04-10T09:13:20Z</time>
      </trkpt>
      <trkpt lat="44.28978" lon="4.10127">
        <ele>192.88</ele>
        <time>2016-04-10T09:13:21Z</time>
      </trkpt>
      <trkpt lat="44.28964" lon="4.1012">
        <ele>192.88</ele>
        <time>2016-04-10T09:13:23Z</time>
      </trkpt>
      <trkpt lat="44.28901" lon="4.10083">
        <ele>182.79</ele>
        <time>2016-04-10T09:13:32Z</time>
      </trkpt>
      <trkpt lat="44.28895" lon="4.10079">
        <ele>182.31</ele>
        <time>2016-04-10T09:13:33Z</time>
      </trkpt>
      <trkpt lat="44.2889" lon="4.10074">
        <ele>181.83</ele>
        <time>2016-04-10T09:13:34Z</time>
      </trkpt>
      <trkpt lat="44.28888" lon="4.10066">
        <ele>181.35</ele>
        <time>2016-04-10T09:13:35Z</time>
      </trkpt>
      <trkpt lat="44.28889" lon="4.10058">
        <ele>180.38</ele>
        <time>2016-04-10T09:13:36Z</time>
      </trkpt>
      <trkpt lat="44.28892" lon="4.10048">
        <ele>179.42</ele>
        <time>2016-04-10T09:13:37Z</time>
      </trkpt>
      <trkpt lat="44.28898" lon="4.10035">
        <ele>178.46</ele>
        <time>2016-04-10T09:13:38Z</time>
      </trkpt>
      <trkpt lat="44.28904" lon="4.1002">
        <ele>178.46</ele>
        <time>2016-04-10T09:13:39Z</time>
      </trkpt>
      <trkpt lat="44.28963" lon="4.09869">
        <ele>177.02</ele>
        <time>2016-04-10T09:13:49Z</time>
      </trkpt>
      <trkpt lat="44.28985" lon="4.09806">
        <ele>178.46</ele>
        <time>2016-04-10T09:13:53Z</time>
      </trkpt>
      <trkpt lat="44.28993" lon="4.09772">
        <ele>178.94</ele>
        <time>2016-04-10T09:13:55Z</time>
      </trkpt>
      <trkpt lat="44.28999" lon="4.09755">
        <ele>179.42</ele>
        <time>2016-04-10T09:13:56Z</time>
      </trkpt>
      <trkpt lat="44.29007" lon="4.0974">
        <ele>179.9</ele>
        <time>2016-04-10T09:13:57Z</time>
      </trkpt>
      <trkpt lat="44.29015" lon="4.09723">
        <ele>179.9</ele>
        <time>2016-04-10T09:13:58Z</time>
      </trkpt>
      <trkpt lat="44.29023" lon="4.09706">
        <ele>180.38</ele>
        <time>2016-04-10T09:13:59Z</time>
      </trkpt>
      <trkpt lat="44.29029" lon="4.09687">
        <ele>180.38</ele>
        <time>2016-04-10T09:14:00Z</time>
      </trkpt>
      <trkpt lat="44.29035" lon="4.09668">
        <ele>180.38</ele>
        <time>2016-04-10T09:14:01Z</time>
      </trkpt>
      <trkpt lat="44.29103" lon="4.0953">
        <ele>180.87</ele>
        <time>2016-04-10T09:14:09Z</time>
      </trkpt>
      <trkpt lat="44.29169" lon="4.09433">
        <ele>179.9</ele>
        <time>2016-04-10T09:14:18Z</time>
      </trkpt>
      <trkpt lat="44.29283" lon="4.09288">
        <ele>178.46</ele>
        <time>2016-04-10T09:14:31Z</time>
      </trkpt>
      <trkpt lat="44.29295" lon="4.09279">
        <ele>178.46</ele>
        <time>2016-04-10T09:14:32Z</time>
      </trkpt>
      <trkpt lat="44.29386" lon="4.09212">
        <ele>174.62</ele>
        <time>2016-04-10T09:14:42Z</time>
      </trkpt>
      <trkpt lat="44.29422" lon="4.0919">
        <ele>175.1</ele>
        <time>2016-04-10T09:14:47Z</time>
      </trkpt>
      <trkpt lat="44.29431" lon="4.09188">
        <ele>175.58</ele>
        <time>2016-04-10T09:14:48Z</time>
      </trkpt>
      <trkpt lat="44.29485" lon="4.09171">
        <ele>176.54</ele>
        <time>2016-04-10T09:14:54Z</time>
      </trkpt>
      <trkpt lat="44.29527" lon="4.09156">
        <ele>179.9</ele>
        <time>2016-04-10T09:14:59Z</time>
      </trkpt>
      <trkpt lat="44.29535" lon="4.09151">
        <ele>179.42</ele>
        <time>2016-04-10T09:15:00Z</time>
      </trkpt>
      <trkpt lat="44.29543" lon="4.09143">
        <ele>178.94</ele>
        <time>2016-04-10T09:15:01Z</time>
      </trkpt>
      <trkpt lat="44.29551" lon="4.09133">
        <ele>177.98</ele>
        <time>2016-04-10T09:15:02Z</time>
      </trkpt>
      <trkpt lat="44.2956" lon="4.09122">
        <ele>177.02</ele>
        <time>2016-04-10T09:15:03Z</time>
      </trkpt>
      <trkpt lat="44.29636" lon="4.0903">
        <ele>180.87</ele>
        <time>2016-04-10T09:15:12Z</time>
      </trkpt>
      <trkpt lat="44.29722" lon="4.08951">
        <ele>180.87</ele>
        <time>2016-04-10T09:15:22Z</time>
      </trkpt>
      <trkpt lat="44.29769" lon="4.08899">
        <ele>183.27</ele>
        <time>2016-04-10T09:15:28Z</time>
      </trkpt>
      <trkpt lat="44.29779" lon="4.08894">
        <ele>183.27</ele>
        <time>2016-04-10T09:15:29Z</time>
      </trkpt>
      <trkpt lat="44.298" lon="4.08886">
        <ele>184.71</ele>
        <time>2016-04-10T09:15:31Z</time>
      </trkpt>
      <trkpt lat="44.29809" lon="4.0888">
        <ele>183.75</ele>
        <time>2016-04-10T09:15:32Z</time>
      </trkpt>
      <trkpt lat="44.29818" lon="4.08872">
        <ele>183.75</ele>
        <time>2016-04-10T09:15:33Z</time>
      </trkpt>
      <trkpt lat="44.29825" lon="4.08862">
        <ele>183.27</ele>
        <time>2016-04-10T09:15:34Z</time>
      </trkpt>
      <trkpt lat="44.29834" lon="4.08851">
        <ele>183.27</ele>
        <time>2016-04-10T09:15:35Z</time>
      </trkpt>
      <trkpt lat="44.29901" lon="4.08762">
        <ele>179.9</ele>
        <time>2016-04-10T09:15:44Z</time>
      </trkpt>
      <trkpt lat="44.29937" lon="4.08689">
        <ele>179.9</ele>
        <time>2016-04-10T09:15:50Z</time>
      </trkpt>
      <trkpt lat="44.30007" lon="4.08499">
        <ele>184.23</ele>
        <time>2016-04-10T09:16:03Z</time>
      </trkpt>
      <trkpt lat="44.30025" lon="4.08456">
        <ele>184.71</ele>
        <time>2016-04-10T09:16:06Z</time>
      </trkpt>
      <trkpt lat="44.30029" lon="4.08441">
        <ele>184.71</ele>
        <time>2016-04-10T09:16:07Z</time>
      </trkpt>
      <trkpt lat="44.30032" lon="4.08427">
        <ele>184.71</ele>
        <time>2016-04-10T09:16:08Z</time>
      </trkpt>
      <trkpt lat="44.30033" lon="4.08413">
        <ele>184.23</ele>
        <time>2016-04-10T09:16:09Z</time>
      </trkpt>
      <trkpt lat="44.30034" lon="4.084">
        <ele>184.23</ele>
        <time>2016-04-10T09:16:10Z</time>
      </trkpt>
      <trkpt lat="44.30034" lon="4.08386">
        <ele>184.23</ele>
        <time>2016-04-10T09:16:11Z</time>
      </trkpt>
      <trkpt lat="44.30032" lon="4.08373">
        <ele>184.23</ele>
        <time>2016-04-10T09:16:12Z</time>
      </trkpt>
      <trkpt lat="44.3003" lon="4.0836">
        <ele>184.23</ele>
        <time>2016-04-10T09:16:13Z</time>
      </trkpt>
      <trkpt lat="44.30027" lon="4.08349">
        <ele>184.23</ele>
        <time>2016-04-10T09:16:14Z</time>
      </trkpt>
      <trkpt lat="44.30014" lon="4.08298">
        <ele>183.75</ele>
        <time>2016-04-10T09:16:18Z</time>
      </trkpt>
      <trkpt lat="44.30007" lon="4.08285">
        <ele>183.75</ele>
        <time>2016-04-10T09:16:19Z</time>
      </trkpt>
      <trkpt lat="44.29999" lon="4.08271">
        <ele>184.23</ele>
        <time>2016-04-10T09:16:20Z</time>
      </trkpt>
      <trkpt lat="44.2992" lon="4.08114">
        <ele>182.31</ele>
        <time>2016-04-10T09:16:30Z</time>
      </trkpt>
      <trkpt lat="44.29829" lon="4.0792">
        <ele>181.83</ele>
        <time>2016-04-10T09:16:42Z</time>
      </trkpt>
      <trkpt lat="44.29807" lon="4.07886">
        <ele>182.31</ele>
        <time>2016-04-10T09:16:44Z</time>
      </trkpt>
      <trkpt lat="44.29793" lon="4.07871">
        <ele>182.31</ele>
        <time>2016-04-10T09:16:45Z</time>
      </trkpt>
      <trkpt lat="44.297" lon="4.07785">
        <ele>183.75</ele>
        <time>2016-04-10T09:16:52Z</time>
      </trkpt>
      <trkpt lat="44.29691" lon="4.07767">
        <ele>183.75</ele>
        <time>2016-04-10T09:16:53Z</time>
      </trkpt>
      <trkpt lat="44.29683" lon="4.07747">
        <ele>184.23</ele>
        <time>2016-04-10T09:16:54Z</time>
      </trkpt>
      <trkpt lat="44.2968" lon="4.07726">
        <ele>185.19</ele>
        <time>2016-04-10T09:16:55Z</time>
      </trkpt>
      <trkpt lat="44.29676" lon="4.07705">
        <ele>185.19</ele>
        <time>2016-04-10T09:16:56Z</time>
      </trkpt>
      <trkpt lat="44.29661" lon="4.07652">
        <ele>186.15</ele>
        <time>2016-04-10T09:16:59Z</time>
      </trkpt>
      <trkpt lat="44.29654" lon="4.07637">
        <ele>186.63</ele>
        <time>2016-04-10T09:17:00Z</time>
      </trkpt>
      <trkpt lat="44.29645" lon="4.07624">
        <ele>186.63</ele>
        <time>2016-04-10T09:17:01Z</time>
      </trkpt>
      <trkpt lat="44.29633" lon="4.07612">
        <ele>187.11</ele>
        <time>2016-04-10T09:17:02Z</time>
      </trkpt>
      <trkpt lat="44.29617" lon="4.07601">
        <ele>187.11</ele>
        <time>2016-04-10T09:17:03Z</time>
      </trkpt>
      <trkpt lat="44.29601" lon="4.07589">
        <ele>187.11</ele>
        <time>2016-04-10T09:17:04Z</time>
      </trkpt>
      <trkpt lat="44.29451" lon="4.07452">
        <ele>187.59</ele>
        <time>2016-04-10T09:17:15Z</time>
      </trkpt>
      <trkpt lat="44.29295" lon="4.0735">
        <ele>188.56</ele>
        <time>2016-04-10T09:17:25Z</time>
      </trkpt>
      <trkpt lat="44.29203" lon="4.07312">
        <ele>192.4</ele>
        <time>2016-04-10T09:17:30Z</time>
      </trkpt>
      <trkpt lat="44.29039" lon="4.07216">
        <ele>189.52</ele>
        <time>2016-04-10T09:17:38Z</time>
      </trkpt>
      <trkpt lat="44.28902" lon="4.07149">
        <ele>189.04</ele>
        <time>2016-04-10T09:17:45Z</time>
      </trkpt>
      <trkpt lat="44.28887" lon="4.07136">
        <ele>188.56</ele>
        <time>2016-04-10T09:17:46Z</time>
      </trkpt>
      <trkpt lat="44.28873" lon="4.07121">
        <ele>188.08</ele>
        <time>2016-04-10T09:17:47Z</time>
      </trkpt>
      <trkpt lat="44.28862" lon="4.07104">
        <ele>189.52</ele>
        <time>2016-04-10T09:17:48Z</time>
      </trkpt>
      <trkpt lat="44.28853" lon="4.07086">
        <ele>194.32</ele>
        <time>2016-04-10T09:17:49Z</time>
      </trkpt>
      <trkpt lat="44.28843" lon="4.07067">
        <ele>195.77</ele>
        <time>2016-04-10T09:17:50Z</time>
      </trkpt>
      <trkpt lat="44.28834" lon="4.07047">
        <ele>197.69</ele>
        <time>2016-04-10T09:17:51Z</time>
      </trkpt>
      <trkpt lat="44.28828" lon="4.07021">
        <ele>198.65</ele>
        <time>2016-04-10T09:17:52Z</time>
      </trkpt>
      <trkpt lat="44.28823" lon="4.06996">
        <ele>199.13</ele>
        <time>2016-04-10T09:17:53Z</time>
      </trkpt>
      <trkpt lat="44.2882" lon="4.0697">
        <ele>199.13</ele>
        <time>2016-04-10T09:17:54Z</time>
      </trkpt>
      <trkpt lat="44.28818" lon="4.06945">
        <ele>199.61</ele>
        <time>2016-04-10T09:17:55Z</time>
      </trkpt>
      <trkpt lat="44.28817" lon="4.06921">
        <ele>200.09</ele>
        <time>2016-04-10T09:17:56Z</time>
      </trkpt>
      <trkpt lat="44.28821" lon="4.0682">
        <ele>200.09</ele>
        <time>2016-04-10T09:18:00Z</time>
      </trkpt>
      <trkpt lat="44.28826" lon="4.06794">
        <ele>199.61</ele>
        <time>2016-04-10T09:18:01Z</time>
      </trkpt>
      <trkpt lat="44.28834" lon="4.06768">
        <ele>199.61</ele>
        <time>2016-04-10T09:18:02Z</time>
      </trkpt>
      <trkpt lat="44.28843" lon="4.06742">
        <ele>200.09</ele>
        <time>2016-04-10T09:18:03Z</time>
      </trkpt>
      <trkpt lat="44.28852" lon="4.06718">
        <ele>200.09</ele>
        <time>2016-04-10T09:18:04Z</time>
      </trkpt>
      <trkpt lat="44.289" lon="4.0661">
        <ele>200.57</ele>
        <time>2016-04-10T09:18:09Z</time>
      </trkpt>
      <trkpt lat="44.28912" lon="4.06591">
        <ele>201.05</ele>
        <time>2016-04-10T09:18:10Z</time>
      </trkpt>
      <trkpt lat="44.28991" lon="4.0646">
        <ele>203.46</ele>
        <time>2016-04-10T09:18:17Z</time>
      </trkpt>
      <trkpt lat="44.29009" lon="4.06431">
        <ele>203.94</ele>
        <time>2016-04-10T09:18:19Z</time>
      </trkpt>
      <trkpt lat="44.2902" lon="4.06418">
        <ele>204.42</ele>
        <time>2016-04-10T09:18:20Z</time>
      </trkpt>
      <trkpt lat="44.29033" lon="4.06407">
        <ele>204.9</ele>
        <time>2016-04-10T09:18:21Z</time>
      </trkpt>
      <trkpt lat="44.29047" lon="4.06399">
        <ele>204.9</ele>
        <time>2016-04-10T09:18:22Z</time>
      </trkpt>
      <trkpt lat="44.29062" lon="4.06394">
        <ele>205.86</ele>
        <time>2016-04-10T09:18:23Z</time>
      </trkpt>
      <trkpt lat="44.2908" lon="4.06391">
        <ele>205.86</ele>
        <time>2016-04-10T09:18:24Z</time>
      </trkpt>
      <trkpt lat="44.29182" lon="4.06354">
        <ele>210.67</ele>
        <time>2016-04-10T09:18:30Z</time>
      </trkpt>
      <trkpt lat="44.29201" lon="4.0635">
        <ele>210.67</ele>
        <time>2016-04-10T09:18:31Z</time>
      </trkpt>
      <trkpt lat="44.29218" lon="4.0635">
        <ele>210.67</ele>
        <time>2016-04-10T09:18:32Z</time>
      </trkpt>
      <trkpt lat="44.29235" lon="4.06354">
        <ele>210.67</ele>
        <time>2016-04-10T09:18:33Z</time>
      </trkpt>
      <trkpt lat="44.2925" lon="4.06361">
        <ele>210.67</ele>
        <time>2016-04-10T09:18:34Z</time>
      </trkpt>
      <trkpt lat="44.29265" lon="4.06369">
        <ele>210.19</ele>
        <time>2016-04-10T09:18:35Z</time>
      </trkpt>
      <trkpt lat="44.2928" lon="4.06374">
        <ele>209.22</ele>
        <time>2016-04-10T09:18:36Z</time>
      </trkpt>
      <trkpt lat="44.29297" lon="4.06379">
        <ele>209.22</ele>
        <time>2016-04-10T09:18:37Z</time>
      </trkpt>
      <trkpt lat="44.2942" lon="4.06439">
        <ele>207.3</ele>
        <time>2016-04-10T09:18:44Z</time>
      </trkpt>
      <trkpt lat="44.29435" lon="4.06456">
        <ele>207.3</ele>
        <time>2016-04-10T09:18:45Z</time>
      </trkpt>
      <trkpt lat="44.2945" lon="4.06475">
        <ele>207.78</ele>
        <time>2016-04-10T09:18:46Z</time>
      </trkpt>
      <trkpt lat="44.29597" lon="4.06648">
        <ele>207.3</ele>
        <time>2016-04-10T09:18:55Z</time>
      </trkpt>
      <trkpt lat="44.29721" lon="4.06744">
        <ele>205.86</ele>
        <time>2016-04-10T09:19:02Z</time>
      </trkpt>
      <trkpt lat="44.29751" lon="4.06755">
        <ele>204.9</ele>
        <time>2016-04-10T09:19:04Z</time>
      </trkpt>
      <trkpt lat="44.29763" lon="4.06747">
        <ele>204.42</ele>
        <time>2016-04-10T09:19:05Z</time>
      </trkpt>
      <trkpt lat="44.29774" lon="4.06733">
        <ele>204.42</ele>
        <time>2016-04-10T09:19:06Z</time>
      </trkpt>
      <trkpt lat="44.29786" lon="4.06719">
        <ele>204.42</ele>
        <time>2016-04-10T09:19:07Z</time>
      </trkpt>
      <trkpt lat="44.29791" lon="4.06698">
        <ele>203.94</ele>
        <time>2016-04-10T09:19:08Z</time>
      </trkpt>
      <trkpt lat="44.29796" lon="4.06678">
        <ele>203.46</ele>
        <time>2016-04-10T09:19:09Z</time>
      </trkpt>
      <trkpt lat="44.29794" lon="4.06659">
        <ele>202.98</ele>
        <time>2016-04-10T09:19:10Z</time>
      </trkpt>
      <trkpt lat="44.29786" lon="4.06637">
        <ele>202.98</ele>
        <time>2016-04-10T09:19:11Z</time>
      </trkpt>
      <trkpt lat="44.29778" lon="4.06619">
        <ele>202.49</ele>
        <time>2016-04-10T09:19:12Z</time>
      </trkpt>
      <trkpt lat="44.29767" lon="4.06599">
        <ele>202.49</ele>
        <time>2016-04-10T09:19:13Z</time>
      </trkpt>
      <trkpt lat="44.29754" lon="4.06577">
        <ele>201.53</ele>
        <time>2016-04-10T09:19:14Z</time>
      </trkpt>
      <trkpt lat="44.29743" lon="4.06554">
        <ele>201.53</ele>
        <time>2016-04-10T09:19:15Z</time>
      </trkpt>
      <trkpt lat="44.29647" lon="4.06391">
        <ele>202.01</ele>
        <time>2016-04-10T09:19:24Z</time>
      </trkpt>
      <trkpt lat="44.29639" lon="4.0638">
        <ele>201.53</ele>
        <time>2016-04-10T09:19:25Z</time>
      </trkpt>
      <trkpt lat="44.29634" lon="4.06367">
        <ele>201.53</ele>
        <time>2016-04-10T09:19:26Z</time>
      </trkpt>
      <trkpt lat="44.29635" lon="4.06353">
        <ele>202.01</ele>
        <time>2016-04-10T09:19:27Z</time>
      </trkpt>
      <trkpt lat="44.2964" lon="4.06341">
        <ele>202.01</ele>
        <time>2016-04-10T09:19:28Z</time>
      </trkpt>
      <trkpt lat="44.29648" lon="4.06332">
        <ele>202.98</ele>
        <time>2016-04-10T09:19:29Z</time>
      </trkpt>
      <trkpt lat="44.29658" lon="4.06324">
        <ele>203.46</ele>
        <time>2016-04-10T09:19:30Z</time>
      </trkpt>
      <trkpt lat="44.29673" lon="4.06316">
        <ele>203.46</ele>
        <time>2016-04-10T09:19:31Z</time>
      </trkpt>
      <trkpt lat="44.29688" lon="4.06308">
        <ele>203.94</ele>
        <time>2016-04-10T09:19:32Z</time>
      </trkpt>
      <trkpt lat="44.29703" lon="4.06297">
        <ele>204.9</ele>
        <time>2016-04-10T09:19:33Z</time>
      </trkpt>
      <trkpt lat="44.29717" lon="4.06284">
        <ele>205.86</ele>
        <time>2016-04-10T09:19:34Z</time>
      </trkpt>
      <trkpt lat="44.2976" lon="4.06248">
        <ele>207.78</ele>
        <time>2016-04-10T09:19:37Z</time>
      </trkpt>
      <trkpt lat="44.29776" lon="4.0624">
        <ele>208.74</ele>
        <time>2016-04-10T09:19:38Z</time>
      </trkpt>
      <trkpt lat="44.29869" lon="4.06207">
        <ele>214.03</ele>
        <time>2016-04-10T09:19:44Z</time>
      </trkpt>
      <trkpt lat="44.29884" lon="4.06207">
        <ele>214.99</ele>
        <time>2016-04-10T09:19:45Z</time>
      </trkpt>
      <trkpt lat="44.29967" lon="4.06219">
        <ele>219.8</ele>
        <time>2016-04-10T09:19:51Z</time>
      </trkpt>
      <trkpt lat="44.29979" lon="4.06217">
        <ele>220.28</ele>
        <time>2016-04-10T09:19:52Z</time>
      </trkpt>
      <trkpt lat="44.29989" lon="4.06211">
        <ele>221.24</ele>
        <time>2016-04-10T09:19:53Z</time>
      </trkpt>
      <trkpt lat="44.29999" lon="4.06202">
        <ele>222.2</ele>
        <time>2016-04-10T09:19:54Z</time>
      </trkpt>
      <trkpt lat="44.30006" lon="4.06192">
        <ele>222.68</ele>
        <time>2016-04-10T09:19:55Z</time>
      </trkpt>
      <trkpt lat="44.30014" lon="4.06184">
        <ele>223.16</ele>
        <time>2016-04-10T09:19:56Z</time>
      </trkpt>
      <trkpt lat="44.30021" lon="4.06179">
        <ele>223.64</ele>
        <time>2016-04-10T09:19:57Z</time>
      </trkpt>
      <trkpt lat="44.30029" lon="4.06177">
        <ele>224.61</ele>
        <time>2016-04-10T09:19:58Z</time>
      </trkpt>
      <trkpt lat="44.30036" lon="4.06177">
        <ele>224.61</ele>
        <time>2016-04-10T09:19:59Z</time>
      </trkpt>
      <trkpt lat="44.30043" lon="4.06177">
        <ele>225.09</ele>
        <time>2016-04-10T09:20:00Z</time>
      </trkpt>
      <trkpt lat="44.3005" lon="4.06176">
        <ele>225.57</ele>
        <time>2016-04-10T09:20:01Z</time>
      </trkpt>
      <trkpt lat="44.30056" lon="4.0617">
        <ele>226.05</ele>
        <time>2016-04-10T09:20:02Z</time>
      </trkpt>
      <trkpt lat="44.30061" lon="4.06162">
        <ele>226.05</ele>
        <time>2016-04-10T09:20:03Z</time>
      </trkpt>
      <trkpt lat="44.30068" lon="4.06154">
        <ele>226.53</ele>
        <time>2016-04-10T09:20:04Z</time>
      </trkpt>
      <trkpt lat="44.30078" lon="4.06148">
        <ele>227.01</ele>
        <time>2016-04-10T09:20:05Z</time>
      </trkpt>
      <trkpt lat="44.30088" lon="4.06143">
        <ele>227.49</ele>
        <time>2016-04-10T09:20:06Z</time>
      </trkpt>
      <trkpt lat="44.30098" lon="4.06137">
        <ele>227.97</ele>
        <time>2016-04-10T09:20:07Z</time>
      </trkpt>
      <trkpt lat="44.30106" lon="4.0613">
        <ele>228.45</ele>
        <time>2016-04-10T09:20:08Z</time>
      </trkpt>
      <trkpt lat="44.30112" lon="4.0612">
        <ele>228.93</ele>
        <time>2016-04-10T09:20:09Z</time>
      </trkpt>
      <trkpt lat="44.30117" lon="4.06109">
        <ele>229.41</ele>
        <time>2016-04-10T09:20:10Z</time>
      </trkpt>
      <trkpt lat="44.30122" lon="4.06096">
        <ele>229.41</ele>
        <time>2016-04-10T09:20:11Z</time>
      </trkpt>
      <trkpt lat="44.30128" lon="4.06085">
        <ele>230.37</ele>
        <time>2016-04-10T09:20:12Z</time>
      </trkpt>
      <trkpt lat="44.30137" lon="4.06077">
        <ele>230.85</ele>
        <time>2016-04-10T09:20:13Z</time>
      </trkpt>
      <trkpt lat="44.30148" lon="4.06073">
        <ele>231.33</ele>
        <time>2016-04-10T09:20:14Z</time>
      </trkpt>
      <trkpt lat="44.30159" lon="4.06068">
        <ele>231.33</ele>
        <time>2016-04-10T09:20:15Z</time>
      </trkpt>
      <trkpt lat="44.3017" lon="4.06061">
        <ele>231.81</ele>
        <time>2016-04-10T09:20:16Z</time>
      </trkpt>
      <trkpt lat="44.3018" lon="4.06053">
        <ele>232.3</ele>
        <time>2016-04-10T09:20:17Z</time>
      </trkpt>
      <trkpt lat="44.30189" lon="4.06045">
        <ele>232.78</ele>
        <time>2016-04-10T09:20:18Z</time>
      </trkpt>
      <trkpt lat="44.30196" lon="4.06033">
        <ele>233.26</ele>
        <time>2016-04-10T09:20:19Z</time>
      </trkpt>
      <trkpt lat="44.30199" lon="4.06019">
        <ele>232.78</ele>
        <time>2016-04-10T09:20:20Z</time>
      </trkpt>
      <trkpt lat="44.30202" lon="4.06002">
        <ele>233.26</ele>
        <time>2016-04-10T09:20:21Z</time>
      </trkpt>
      <trkpt lat="44.30203" lon="4.05983">
        <ele>233.26</ele>
        <time>2016-04-10T09:20:22Z</time>
      </trkpt>
      <trkpt lat="44.30203" lon="4.05963">
        <ele>233.74</ele>
        <time>2016-04-10T09:20:23Z</time>
      </trkpt>
      <trkpt lat="44.30204" lon="4.05943">
        <ele>233.74</ele>
        <time>2016-04-10T09:20:24Z</time>
      </trkpt>
      <trkpt lat="44.30206" lon="4.05923">
        <ele>234.22</ele>
        <time>2016-04-10T09:20:25Z</time>
      </trkpt>
      <trkpt lat="44.30209" lon="4.05904">
        <ele>234.7</ele>
        <time>2016-04-10T09:20:26Z</time>
      </trkpt>
      <trkpt lat="44.30213" lon="4.05884">
        <ele>235.18</ele>
        <time>2016-04-10T09:20:27Z</time>
      </trkpt>
      <trkpt lat="44.30215" lon="4.05864">
        <ele>236.14</ele>
        <time>2016-04-10T09:20:28Z</time>
      </trkpt>
      <trkpt lat="44.30216" lon="4.05843">
        <ele>236.14</ele>
        <time>2016-04-10T09:20:29Z</time>
      </trkpt>
      <trkpt lat="44.30215" lon="4.05823">
        <ele>236.62</ele>
        <time>2016-04-10T09:20:30Z</time>
      </trkpt>
      <trkpt lat="44.30212" lon="4.05803">
        <ele>237.1</ele>
        <time>2016-04-10T09:20:31Z</time>
      </trkpt>
      <trkpt lat="44.30212" lon="4.05784">
        <ele>238.06</ele>
        <time>2016-04-10T09:20:32Z</time>
      </trkpt>
      <trkpt lat="44.30213" lon="4.05764">
        <ele>238.54</ele>
        <time>2016-04-10T09:20:33Z</time>
      </trkpt>
      <trkpt lat="44.30214" lon="4.05745">
        <ele>239.02</ele>
        <time>2016-04-10T09:20:34Z</time>
      </trkpt>
      <trkpt lat="44.30219" lon="4.05693">
        <ele>239.99</ele>
        <time>2016-04-10T09:20:37Z</time>
      </trkpt>
      <trkpt lat="44.30225" lon="4.05659">
        <ele>240.95</ele>
        <time>2016-04-10T09:20:39Z</time>
      </trkpt>
      <trkpt lat="44.30225" lon="4.05641">
        <ele>240.95</ele>
        <time>2016-04-10T09:20:40Z</time>
      </trkpt>
      <trkpt lat="44.30222" lon="4.05624">
        <ele>242.39</ele>
        <time>2016-04-10T09:20:41Z</time>
      </trkpt>
      <trkpt lat="44.30217" lon="4.05609">
        <ele>244.31</ele>
        <time>2016-04-10T09:20:42Z</time>
      </trkpt>
      <trkpt lat="44.30209" lon="4.05595">
        <ele>245.27</ele>
        <time>2016-04-10T09:20:43Z</time>
      </trkpt>
      <trkpt lat="44.30193" lon="4.05589">
        <ele>244.31</ele>
        <time>2016-04-10T09:20:44Z</time>
      </trkpt>
      <trkpt lat="44.30176" lon="4.05586">
        <ele>243.83</ele>
        <time>2016-04-10T09:20:45Z</time>
      </trkpt>
      <trkpt lat="44.30161" lon="4.05582">
        <ele>243.83</ele>
        <time>2016-04-10T09:20:46Z</time>
      </trkpt>
      <trkpt lat="44.30146" lon="4.05577">
        <ele>242.87</ele>
        <time>2016-04-10T09:20:47Z</time>
      </trkpt>
      <trkpt lat="44.30134" lon="4.05567">
        <ele>242.87</ele>
        <time>2016-04-10T09:20:48Z</time>
      </trkpt>
      <trkpt lat="44.30122" lon="4.0555">
        <ele>242.39</ele>
        <time>2016-04-10T09:20:49Z</time>
      </trkpt>
      <trkpt lat="44.30111" lon="4.05533">
        <ele>241.43</ele>
        <time>2016-04-10T09:20:50Z</time>
      </trkpt>
      <trkpt lat="44.30102" lon="4.05515">
        <ele>241.43</ele>
        <time>2016-04-10T09:20:51Z</time>
      </trkpt>
      <trkpt lat="44.30093" lon="4.05495">
        <ele>240.95</ele>
        <time>2016-04-10T09:20:52Z</time>
      </trkpt>
      <trkpt lat="44.30055" lon="4.05424">
        <ele>237.58</ele>
        <time>2016-04-10T09:20:56Z</time>
      </trkpt>
      <trkpt lat="44.30041" lon="4.05412">
        <ele>236.14</ele>
        <time>2016-04-10T09:20:57Z</time>
      </trkpt>
      <trkpt lat="44.29999" lon="4.05372">
        <ele>232.3</ele>
        <time>2016-04-10T09:21:00Z</time>
      </trkpt>
      <trkpt lat="44.29989" lon="4.05352">
        <ele>231.81</ele>
        <time>2016-04-10T09:21:01Z</time>
      </trkpt>
      <trkpt lat="44.29955" lon="4.05269">
        <ele>230.37</ele>
        <time>2016-04-10T09:21:05Z</time>
      </trkpt>
      <trkpt lat="44.29944" lon="4.05251">
        <ele>230.85</ele>
        <time>2016-04-10T09:21:06Z</time>
      </trkpt>
      <trkpt lat="44.29904" lon="4.052">
        <ele>231.81</ele>
        <time>2016-04-10T09:21:09Z</time>
      </trkpt>
      <trkpt lat="44.29818" lon="4.05102">
        <ele>231.33</ele>
        <time>2016-04-10T09:21:16Z</time>
      </trkpt>
      <trkpt lat="44.29808" lon="4.05085">
        <ele>230.85</ele>
        <time>2016-04-10T09:21:17Z</time>
      </trkpt>
      <trkpt lat="44.2979" lon="4.05051">
        <ele>229.41</ele>
        <time>2016-04-10T09:21:19Z</time>
      </trkpt>
      <trkpt lat="44.29784" lon="4.05033">
        <ele>227.97</ele>
        <time>2016-04-10T09:21:20Z</time>
      </trkpt>
      <trkpt lat="44.2978" lon="4.05013">
        <ele>227.49</ele>
        <time>2016-04-10T09:21:21Z</time>
      </trkpt>
      <trkpt lat="44.29778" lon="4.04994">
        <ele>227.49</ele>
        <time>2016-04-10T09:21:22Z</time>
      </trkpt>
      <trkpt lat="44.29775" lon="4.04975">
        <ele>227.01</ele>
        <time>2016-04-10T09:21:23Z</time>
      </trkpt>
      <trkpt lat="44.29774" lon="4.04955">
        <ele>226.05</ele>
        <time>2016-04-10T09:21:24Z</time>
      </trkpt>
      <trkpt lat="44.29776" lon="4.04935">
        <ele>227.01</ele>
        <time>2016-04-10T09:21:25Z</time>
      </trkpt>
      <trkpt lat="44.29781" lon="4.04915">
        <ele>230.85</ele>
        <time>2016-04-10T09:21:26Z</time>
      </trkpt>
      <trkpt lat="44.29785" lon="4.04894">
        <ele>231.81</ele>
        <time>2016-04-10T09:21:27Z</time>
      </trkpt>
      <trkpt lat="44.2979" lon="4.04875">
        <ele>231.33</ele>
        <time>2016-04-10T09:21:28Z</time>
      </trkpt>
      <trkpt lat="44.29796" lon="4.04856">
        <ele>230.85</ele>
        <time>2016-04-10T09:21:29Z</time>
      </trkpt>
      <trkpt lat="44.29802" lon="4.04838">
        <ele>230.85</ele>
        <time>2016-04-10T09:21:30Z</time>
      </trkpt>
      <trkpt lat="44.29809" lon="4.04821">
        <ele>229.89</ele>
        <time>2016-04-10T09:21:31Z</time>
      </trkpt>
      <trkpt lat="44.29829" lon="4.04781">
        <ele>229.41</ele>
        <time>2016-04-10T09:21:34Z</time>
      </trkpt>
      <trkpt lat="44.29838" lon="4.04773">
        <ele>229.41</ele>
        <time>2016-04-10T09:21:35Z</time>
      </trkpt>
      <trkpt lat="44.29859" lon="4.04757">
        <ele>229.89</ele>
        <time>2016-04-10T09:21:37Z</time>
      </trkpt>
      <trkpt lat="44.29871" lon="4.04746">
        <ele>229.89</ele>
        <time>2016-04-10T09:21:38Z</time>
      </trkpt>
      <trkpt lat="44.29895" lon="4.04725">
        <ele>230.37</ele>
        <time>2016-04-10T09:21:40Z</time>
      </trkpt>
      <trkpt lat="44.29908" lon="4.04717">
        <ele>230.85</ele>
        <time>2016-04-10T09:21:41Z</time>
      </trkpt>
      <trkpt lat="44.29957" lon="4.04688">
        <ele>232.3</ele>
        <time>2016-04-10T09:21:45Z</time>
      </trkpt>
      <trkpt lat="44.2997" lon="4.04685">
        <ele>232.78</ele>
        <time>2016-04-10T09:21:46Z</time>
      </trkpt>
      <trkpt lat="44.29985" lon="4.04684">
        <ele>232.78</ele>
        <time>2016-04-10T09:21:47Z</time>
      </trkpt>
      <trkpt lat="44.30059" lon="4.0469">
        <ele>232.78</ele>
        <time>2016-04-10T09:21:52Z</time>
      </trkpt>
      <trkpt lat="44.30072" lon="4.04696">
        <ele>231.81</ele>
        <time>2016-04-10T09:21:53Z</time>
      </trkpt>
      <trkpt lat="44.30085" lon="4.04704">
        <ele>231.81</ele>
        <time>2016-04-10T09:21:54Z</time>
      </trkpt>
      <trkpt lat="44.30097" lon="4.04715">
        <ele>233.26</ele>
        <time>2016-04-10T09:21:55Z</time>
      </trkpt>
      <trkpt lat="44.30109" lon="4.04727">
        <ele>234.22</ele>
        <time>2016-04-10T09:21:56Z</time>
      </trkpt>
      <trkpt lat="44.3012" lon="4.04739">
        <ele>234.22</ele>
        <time>2016-04-10T09:21:57Z</time>
      </trkpt>
      <trkpt lat="44.3014" lon="4.04757">
        <ele>234.7</ele>
        <time>2016-04-10T09:21:59Z</time>
      </trkpt>
      <trkpt lat="44.3015" lon="4.0476">
        <ele>235.18</ele>
        <time>2016-04-10T09:22:00Z</time>
      </trkpt>
      <trkpt lat="44.30158" lon="4.04758">
        <ele>234.22</ele>
        <time>2016-04-10T09:22:01Z</time>
      </trkpt>
      <trkpt lat="44.30168" lon="4.04749">
        <ele>234.22</ele>
        <time>2016-04-10T09:22:02Z</time>
      </trkpt>
      <trkpt lat="44.30172" lon="4.04735">
        <ele>233.74</ele>
        <time>2016-04-10T09:22:03Z</time>
      </trkpt>
      <trkpt lat="44.30176" lon="4.0472">
        <ele>233.74</ele>
        <time>2016-04-10T09:22:04Z</time>
      </trkpt>
      <trkpt lat="44.30177" lon="4.04702">
        <ele>234.22</ele>
        <time>2016-04-10T09:22:05Z</time>
      </trkpt>
      <trkpt lat="44.30178" lon="4.04682">
        <ele>234.7</ele>
        <time>2016-04-10T09:22:06Z</time>
      </trkpt>
      <trkpt lat="44.30177" lon="4.04663">
        <ele>234.7</ele>
        <time>2016-04-10T09:22:07Z</time>
      </trkpt>
      <trkpt lat="44.30175" lon="4.04645">
        <ele>235.18</ele>
        <time>2016-04-10T09:22:08Z</time>
      </trkpt>
      <trkpt lat="44.30174" lon="4.04628">
        <ele>236.14</ele>
        <time>2016-04-10T09:22:09Z</time>
      </trkpt>
      <trkpt lat="44.30174" lon="4.0461">
        <ele>236.14</ele>
        <time>2016-04-10T09:22:10Z</time>
      </trkpt>
      <trkpt lat="44.30177" lon="4.04591">
        <ele>236.62</ele>
        <time>2016-04-10T09:22:11Z</time>
      </trkpt>
      <trkpt lat="44.30181" lon="4.04571">
        <ele>237.58</ele>
        <time>2016-04-10T09:22:12Z</time>
      </trkpt>
      <trkpt lat="44.30187" lon="4.0455">
        <ele>238.06</ele>
        <time>2016-04-10T09:22:13Z</time>
      </trkpt>
      <trkpt lat="44.3024" lon="4.0438">
        <ele>241.43</ele>
        <time>2016-04-10T09:22:22Z</time>
      </trkpt>
      <trkpt lat="44.30248" lon="4.04368">
        <ele>241.91</ele>
        <time>2016-04-10T09:22:23Z</time>
      </trkpt>
      <trkpt lat="44.30255" lon="4.04358">
        <ele>241.43</ele>
        <time>2016-04-10T09:22:24Z</time>
      </trkpt>
      <trkpt lat="44.30268" lon="4.04338">
        <ele>241.43</ele>
        <time>2016-04-10T09:22:26Z</time>
      </trkpt>
      <trkpt lat="44.30272" lon="4.04327">
        <ele>241.91</ele>
        <time>2016-04-10T09:22:27Z</time>
      </trkpt>
      <trkpt lat="44.30271" lon="4.04316">
        <ele>240.95</ele>
        <time>2016-04-10T09:22:28Z</time>
      </trkpt>
      <trkpt lat="44.30268" lon="4.04305">
        <ele>240.95</ele>
        <time>2016-04-10T09:22:29Z</time>
      </trkpt>
      <trkpt lat="44.30262" lon="4.04295">
        <ele>241.43</ele>
        <time>2016-04-10T09:22:30Z</time>
      </trkpt>
      <trkpt lat="44.30253" lon="4.04285">
        <ele>241.91</ele>
        <time>2016-04-10T09:22:31Z</time>
      </trkpt>
      <trkpt lat="44.30239" lon="4.04276">
        <ele>242.39</ele>
        <time>2016-04-10T09:22:32Z</time>
      </trkpt>
      <trkpt lat="44.30227" lon="4.04268">
        <ele>242.87</ele>
        <time>2016-04-10T09:22:33Z</time>
      </trkpt>
      <trkpt lat="44.30216" lon="4.0426">
        <ele>242.39</ele>
        <time>2016-04-10T09:22:34Z</time>
      </trkpt>
      <trkpt lat="44.30207" lon="4.0425">
        <ele>242.39</ele>
        <time>2016-04-10T09:22:35Z</time>
      </trkpt>
      <trkpt lat="44.30199" lon="4.04238">
        <ele>242.39</ele>
        <time>2016-04-10T09:22:36Z</time>
      </trkpt>
      <trkpt lat="44.30193" lon="4.04224">
        <ele>242.39</ele>
        <time>2016-04-10T09:22:37Z</time>
      </trkpt>
      <trkpt lat="44.3019" lon="4.04207">
        <ele>242.87</ele>
        <time>2016-04-10T09:22:38Z</time>
      </trkpt>
      <trkpt lat="44.30185" lon="4.0419">
        <ele>242.87</ele>
        <time>2016-04-10T09:22:39Z</time>
      </trkpt>
      <trkpt lat="44.3018" lon="4.04172">
        <ele>243.83</ele>
        <time>2016-04-10T09:22:40Z</time>
      </trkpt>
      <trkpt lat="44.3015" lon="4.0409">
        <ele>247.68</ele>
        <time>2016-04-10T09:22:46Z</time>
      </trkpt>
      <trkpt lat="44.30143" lon="4.04081">
        <ele>247.68</ele>
        <time>2016-04-10T09:22:47Z</time>
      </trkpt>
      <trkpt lat="44.30136" lon="4.04073">
        <ele>247.68</ele>
        <time>2016-04-10T09:22:48Z</time>
      </trkpt>
      <trkpt lat="44.30126" lon="4.04074">
        <ele>248.16</ele>
        <time>2016-04-10T09:22:49Z</time>
      </trkpt>
      <trkpt lat="44.30116" lon="4.04076">
        <ele>248.64</ele>
        <time>2016-04-10T09:22:50Z</time>
      </trkpt>
      <trkpt lat="44.30106" lon="4.04081">
        <ele>248.64</ele>
        <time>2016-04-10T09:22:51Z</time>
      </trkpt>
      <trkpt lat="44.30096" lon="4.04088">
        <ele>248.64</ele>
        <time>2016-04-10T09:22:52Z</time>
      </trkpt>
      <trkpt lat="44.30087" lon="4.04097">
        <ele>249.12</ele>
        <time>2016-04-10T09:22:53Z</time>
      </trkpt>
      <trkpt lat="44.30079" lon="4.04109">
        <ele>249.12</ele>
        <time>2016-04-10T09:22:54Z</time>
      </trkpt>
      <trkpt lat="44.30072" lon="4.04123">
        <ele>250.08</ele>
        <time>2016-04-10T09:22:55Z</time>
      </trkpt>
      <trkpt lat="44.30066" lon="4.04138">
        <ele>250.08</ele>
        <time>2016-04-10T09:22:56Z</time>
      </trkpt>
      <trkpt lat="44.30043" lon="4.04176">
        <ele>252.48</ele>
        <time>2016-04-10T09:22:59Z</time>
      </trkpt>
      <trkpt lat="44.30034" lon="4.04185">
        <ele>252.48</ele>
        <time>2016-04-10T09:23:00Z</time>
      </trkpt>
      <trkpt lat="44.30023" lon="4.04188">
        <ele>253.93</ele>
        <time>2016-04-10T09:23:01Z</time>
      </trkpt>
      <trkpt lat="44.30012" lon="4.04187">
        <ele>254.89</ele>
        <time>2016-04-10T09:23:02Z</time>
      </trkpt>
      <trkpt lat="44.3" lon="4.04176">
        <ele>255.85</ele>
        <time>2016-04-10T09:23:03Z</time>
      </trkpt>
      <trkpt lat="44.29989" lon="4.04165">
        <ele>255.37</ele>
        <time>2016-04-10T09:23:04Z</time>
      </trkpt>
      <trkpt lat="44.29978" lon="4.04154">
        <ele>256.33</ele>
        <time>2016-04-10T09:23:05Z</time>
      </trkpt>
      <trkpt lat="44.29973" lon="4.04138">
        <ele>257.29</ele>
        <time>2016-04-10T09:23:06Z</time>
      </trkpt>
      <trkpt lat="44.29968" lon="4.04118">
        <ele>258.73</ele>
        <time>2016-04-10T09:23:07Z</time>
      </trkpt>
      <trkpt lat="44.29963" lon="4.04101">
        <ele>259.21</ele>
        <time>2016-04-10T09:23:08Z</time>
      </trkpt>
      <trkpt lat="44.29947" lon="4.04051">
        <ele>262.1</ele>
        <time>2016-04-10T09:23:11Z</time>
      </trkpt>
      <trkpt lat="44.29944" lon="4.04034">
        <ele>263.54</ele>
        <time>2016-04-10T09:23:12Z</time>
      </trkpt>
      <trkpt lat="44.29944" lon="4.04014">
        <ele>264.02</ele>
        <time>2016-04-10T09:23:13Z</time>
      </trkpt>
      <trkpt lat="44.29949" lon="4.03995">
        <ele>264.02</ele>
        <time>2016-04-10T09:23:14Z</time>
      </trkpt>
      <trkpt lat="44.29955" lon="4.03976">
        <ele>264.98</ele>
        <time>2016-04-10T09:23:15Z</time>
      </trkpt>
      <trkpt lat="44.29962" lon="4.03957">
        <ele>265.46</ele>
        <time>2016-04-10T09:23:16Z</time>
      </trkpt>
      <trkpt lat="44.29971" lon="4.03936">
        <ele>266.42</ele>
        <time>2016-04-10T09:23:17Z</time>
      </trkpt>
      <trkpt lat="44.2998" lon="4.03917">
        <ele>266.9</ele>
        <time>2016-04-10T09:23:18Z</time>
      </trkpt>
      <trkpt lat="44.29989" lon="4.03898">
        <ele>267.86</ele>
        <time>2016-04-10T09:23:19Z</time>
      </trkpt>
      <trkpt lat="44.29999" lon="4.03879">
        <ele>268.35</ele>
        <time>2016-04-10T09:23:20Z</time>
      </trkpt>
      <trkpt lat="44.30022" lon="4.03843">
        <ele>269.31</ele>
        <time>2016-04-10T09:23:22Z</time>
      </trkpt>
      <trkpt lat="44.30035" lon="4.03827">
        <ele>269.31</ele>
        <time>2016-04-10T09:23:23Z</time>
      </trkpt>
      <trkpt lat="44.30105" lon="4.03748">
        <ele>271.71</ele>
        <time>2016-04-10T09:23:29Z</time>
      </trkpt>
      <trkpt lat="44.30115" lon="4.0374">
        <ele>271.71</ele>
        <time>2016-04-10T09:23:30Z</time>
      </trkpt>
      <trkpt lat="44.30128" lon="4.03728">
        <ele>272.67</ele>
        <time>2016-04-10T09:23:32Z</time>
      </trkpt>
      <trkpt lat="44.30132" lon="4.03719">
        <ele>272.67</ele>
        <time>2016-04-10T09:23:33Z</time>
      </trkpt>
      <trkpt lat="44.30134" lon="4.03708">
        <ele>272.19</ele>
        <time>2016-04-10T09:23:34Z</time>
      </trkpt>
      <trkpt lat="44.30133" lon="4.03695">
        <ele>271.71</ele>
        <time>2016-04-10T09:23:35Z</time>
      </trkpt>
      <trkpt lat="44.30129" lon="4.03683">
        <ele>271.23</ele>
        <time>2016-04-10T09:23:36Z</time>
      </trkpt>
      <trkpt lat="44.30123" lon="4.03671">
        <ele>270.75</ele>
        <time>2016-04-10T09:23:37Z</time>
      </trkpt>
      <trkpt lat="44.30116" lon="4.03658">
        <ele>271.23</ele>
        <time>2016-04-10T09:23:38Z</time>
      </trkpt>
      <trkpt lat="44.30109" lon="4.03645">
        <ele>271.23</ele>
        <time>2016-04-10T09:23:39Z</time>
      </trkpt>
      <trkpt lat="44.30092" lon="4.03618">
        <ele>271.23</ele>
        <time>2016-04-10T09:23:41Z</time>
      </trkpt>
      <trkpt lat="44.30082" lon="4.03607">
        <ele>271.23</ele>
        <time>2016-04-10T09:23:42Z</time>
      </trkpt>
      <trkpt lat="44.3007" lon="4.03598">
        <ele>269.79</ele>
        <time>2016-04-10T09:23:43Z</time>
      </trkpt>
      <trkpt lat="44.30058" lon="4.03593">
        <ele>268.83</ele>
        <time>2016-04-10T09:23:44Z</time>
      </trkpt>
      <trkpt lat="44.30044" lon="4.03593">
        <ele>268.35</ele>
        <time>2016-04-10T09:23:45Z</time>
      </trkpt>
      <trkpt lat="44.3003" lon="4.03595">
        <ele>267.38</ele>
        <time>2016-04-10T09:23:46Z</time>
      </trkpt>
      <trkpt lat="44.30016" lon="4.036">
        <ele>266.9</ele>
        <time>2016-04-10T09:23:47Z</time>
      </trkpt>
      <trkpt lat="44.30002" lon="4.03605">
        <ele>266.42</ele>
        <time>2016-04-10T09:23:48Z</time>
      </trkpt>
      <trkpt lat="44.29938" lon="4.03624">
        <ele>266.42</ele>
        <time>2016-04-10T09:23:53Z</time>
      </trkpt>
      <trkpt lat="44.29927" lon="4.0363">
        <ele>266.42</ele>
        <time>2016-04-10T09:23:54Z</time>
      </trkpt>
      <trkpt lat="44.29918" lon="4.03637">
        <ele>266.9</ele>
        <time>2016-04-10T09:23:55Z</time>
      </trkpt>
      <trkpt lat="44.29901" lon="4.03649">
        <ele>267.38</ele>
        <time>2016-04-10T09:23:57Z</time>
      </trkpt>
      <trkpt lat="44.29893" lon="4.03651">
        <ele>267.86</ele>
        <time>2016-04-10T09:23:58Z</time>
      </trkpt>
      <trkpt lat="44.29886" lon="4.03648">
        <ele>268.35</ele>
        <time>2016-04-10T09:23:59Z</time>
      </trkpt>
      <trkpt lat="44.29881" lon="4.03639">
        <ele>268.35</ele>
        <time>2016-04-10T09:24:00Z</time>
      </trkpt>
      <trkpt lat="44.29875" lon="4.03629">
        <ele>268.83</ele>
        <time>2016-04-10T09:24:01Z</time>
      </trkpt>
      <trkpt lat="44.2987" lon="4.03617">
        <ele>269.31</ele>
        <time>2016-04-10T09:24:02Z</time>
      </trkpt>
      <trkpt lat="44.29865" lon="4.03606">
        <ele>269.31</ele>
        <time>2016-04-10T09:24:03Z</time>
      </trkpt>
      <trkpt lat="44.29858" lon="4.03597">
        <ele>268.35</ele>
        <time>2016-04-10T09:24:04Z</time>
      </trkpt>
      <trkpt lat="44.29852" lon="4.0359">
        <ele>268.35</ele>
        <time>2016-04-10T09:24:05Z</time>
      </trkpt>
      <trkpt lat="44.29843" lon="4.03588">
        <ele>269.31</ele>
        <time>2016-04-10T09:24:06Z</time>
      </trkpt>
      <trkpt lat="44.29833" lon="4.03588">
        <ele>269.79</ele>
        <time>2016-04-10T09:24:07Z</time>
      </trkpt>
      <trkpt lat="44.29823" lon="4.03587">
        <ele>269.31</ele>
        <time>2016-04-10T09:24:08Z</time>
      </trkpt>
      <trkpt lat="44.29814" lon="4.03582">
        <ele>269.31</ele>
        <time>2016-04-10T09:24:09Z</time>
      </trkpt>
      <trkpt lat="44.29806" lon="4.03574">
        <ele>269.31</ele>
        <time>2016-04-10T09:24:10Z</time>
      </trkpt>
      <trkpt lat="44.29799" lon="4.03565">
        <ele>269.79</ele>
        <time>2016-04-10T09:24:11Z</time>
      </trkpt>
      <trkpt lat="44.29793" lon="4.03553">
        <ele>269.79</ele>
        <time>2016-04-10T09:24:12Z</time>
      </trkpt>
      <trkpt lat="44.29789" lon="4.03538">
        <ele>270.27</ele>
        <time>2016-04-10T09:24:13Z</time>
      </trkpt>
      <trkpt lat="44.29787" lon="4.03522">
        <ele>270.75</ele>
        <time>2016-04-10T09:24:14Z</time>
      </trkpt>
      <trkpt lat="44.29788" lon="4.03505">
        <ele>273.15</ele>
        <time>2016-04-10T09:24:15Z</time>
      </trkpt>
      <trkpt lat="44.29787" lon="4.03489">
        <ele>273.63</ele>
        <time>2016-04-10T09:24:16Z</time>
      </trkpt>
      <trkpt lat="44.29774" lon="4.03454">
        <ele>274.59</ele>
        <time>2016-04-10T09:24:19Z</time>
      </trkpt>
      <trkpt lat="44.29769" lon="4.03445">
        <ele>275.07</ele>
        <time>2016-04-10T09:24:20Z</time>
      </trkpt>
      <trkpt lat="44.29765" lon="4.03434">
        <ele>275.07</ele>
        <time>2016-04-10T09:24:21Z</time>
      </trkpt>
      <trkpt lat="44.29763" lon="4.03423">
        <ele>275.07</ele>
        <time>2016-04-10T09:24:22Z</time>
      </trkpt>
      <trkpt lat="44.29765" lon="4.03413">
        <ele>275.07</ele>
        <time>2016-04-10T09:24:23Z</time>
      </trkpt>
      <trkpt lat="44.29772" lon="4.03404">
        <ele>275.07</ele>
        <time>2016-04-10T09:24:24Z</time>
      </trkpt>
      <trkpt lat="44.29782" lon="4.03397">
        <ele>275.07</ele>
        <time>2016-04-10T09:24:25Z</time>
      </trkpt>
      <trkpt lat="44.29792" lon="4.0339">
        <ele>275.07</ele>
        <time>2016-04-10T09:24:26Z</time>
      </trkpt>
      <trkpt lat="44.29801" lon="4.03382">
        <ele>275.56</ele>
        <time>2016-04-10T09:24:27Z</time>
      </trkpt>
      <trkpt lat="44.29808" lon="4.0337">
        <ele>275.56</ele>
        <time>2016-04-10T09:24:28Z</time>
      </trkpt>
      <trkpt lat="44.29812" lon="4.03357">
        <ele>275.56</ele>
        <time>2016-04-10T09:24:29Z</time>
      </trkpt>
      <trkpt lat="44.29815" lon="4.03343">
        <ele>276.04</ele>
        <time>2016-04-10T09:24:30Z</time>
      </trkpt>
      <trkpt lat="44.29819" lon="4.03331">
        <ele>276.04</ele>
        <time>2016-04-10T09:24:31Z</time>
      </trkpt>
      <trkpt lat="44.29826" lon="4.03322">
        <ele>276.52</ele>
        <time>2016-04-10T09:24:32Z</time>
      </trkpt>
      <trkpt lat="44.29836" lon="4.03315">
        <ele>276.52</ele>
        <time>2016-04-10T09:24:33Z</time>
      </trkpt>
      <trkpt lat="44.29845" lon="4.03309">
        <ele>276.52</ele>
        <time>2016-04-10T09:24:34Z</time>
      </trkpt>
      <trkpt lat="44.29853" lon="4.033">
        <ele>277</ele>
        <time>2016-04-10T09:24:35Z</time>
      </trkpt>
      <trkpt lat="44.29859" lon="4.03288">
        <ele>277</ele>
        <time>2016-04-10T09:24:36Z</time>
      </trkpt>
      <trkpt lat="44.2986" lon="4.03272">
        <ele>276.52</ele>
        <time>2016-04-10T09:24:37Z</time>
      </trkpt>
      <trkpt lat="44.29859" lon="4.03256">
        <ele>276.04</ele>
        <time>2016-04-10T09:24:38Z</time>
      </trkpt>
      <trkpt lat="44.29857" lon="4.03237">
        <ele>276.04</ele>
        <time>2016-04-10T09:24:39Z</time>
      </trkpt>
      <trkpt lat="44.29858" lon="4.031">
        <ele>275.56</ele>
        <time>2016-04-10T09:24:46Z</time>
      </trkpt>
      <trkpt lat="44.29861" lon="4.0308">
        <ele>275.56</ele>
        <time>2016-04-10T09:24:47Z</time>
      </trkpt>
      <trkpt lat="44.29893" lon="4.02916">
        <ele>273.63</ele>
        <time>2016-04-10T09:24:55Z</time>
      </trkpt>
      <trkpt lat="44.29911" lon="4.02877">
        <ele>273.15</ele>
        <time>2016-04-10T09:24:59Z</time>
      </trkpt>
      <trkpt lat="44.29917" lon="4.02869">
        <ele>272.67</ele>
        <time>2016-04-10T09:25:00Z</time>
      </trkpt>
      <trkpt lat="44.29944" lon="4.02831">
        <ele>271.23</ele>
        <time>2016-04-10T09:25:05Z</time>
      </trkpt>
      <trkpt lat="44.29947" lon="4.0282">
        <ele>270.75</ele>
        <time>2016-04-10T09:25:06Z</time>
      </trkpt>
      <trkpt lat="44.29948" lon="4.02807">
        <ele>270.27</ele>
        <time>2016-04-10T09:25:07Z</time>
      </trkpt>
      <trkpt lat="44.29946" lon="4.02794">
        <ele>269.31</ele>
        <time>2016-04-10T09:25:08Z</time>
      </trkpt>
      <trkpt lat="44.29941" lon="4.0278">
        <ele>269.31</ele>
        <time>2016-04-10T09:25:09Z</time>
      </trkpt>
      <trkpt lat="44.29933" lon="4.02767">
        <ele>268.83</ele>
        <time>2016-04-10T09:25:10Z</time>
      </trkpt>
      <trkpt lat="44.29923" lon="4.02755">
        <ele>268.83</ele>
        <time>2016-04-10T09:25:11Z</time>
      </trkpt>
      <trkpt lat="44.29913" lon="4.02744">
        <ele>268.35</ele>
        <time>2016-04-10T09:25:12Z</time>
      </trkpt>
      <trkpt lat="44.29902" lon="4.02735">
        <ele>268.83</ele>
        <time>2016-04-10T09:25:13Z</time>
      </trkpt>
      <trkpt lat="44.29865" lon="4.027">
        <ele>267.38</ele>
        <time>2016-04-10T09:25:17Z</time>
      </trkpt>
      <trkpt lat="44.2986" lon="4.02687">
        <ele>267.38</ele>
        <time>2016-04-10T09:25:18Z</time>
      </trkpt>
      <trkpt lat="44.29858" lon="4.02675">
        <ele>267.38</ele>
        <time>2016-04-10T09:25:19Z</time>
      </trkpt>
      <trkpt lat="44.2986" lon="4.02664">
        <ele>266.42</ele>
        <time>2016-04-10T09:25:20Z</time>
      </trkpt>
      <trkpt lat="44.29867" lon="4.02656">
        <ele>266.42</ele>
        <time>2016-04-10T09:25:21Z</time>
      </trkpt>
      <trkpt lat="44.29876" lon="4.02652">
        <ele>265.94</ele>
        <time>2016-04-10T09:25:22Z</time>
      </trkpt>
      <trkpt lat="44.29886" lon="4.02654">
        <ele>265.94</ele>
        <time>2016-04-10T09:25:23Z</time>
      </trkpt>
      <trkpt lat="44.29897" lon="4.02657">
        <ele>265.94</ele>
        <time>2016-04-10T09:25:24Z</time>
      </trkpt>
      <trkpt lat="44.29908" lon="4.02663">
        <ele>265.46</ele>
        <time>2016-04-10T09:25:25Z</time>
      </trkpt>
      <trkpt lat="44.29918" lon="4.0267">
        <ele>266.42</ele>
        <time>2016-04-10T09:25:26Z</time>
      </trkpt>
      <trkpt lat="44.29953" lon="4.02683">
        <ele>267.38</ele>
        <time>2016-04-10T09:25:30Z</time>
      </trkpt>
      <trkpt lat="44.29961" lon="4.02681">
        <ele>267.38</ele>
        <time>2016-04-10T09:25:31Z</time>
      </trkpt>
      <trkpt lat="44.29969" lon="4.02678">
        <ele>267.38</ele>
        <time>2016-04-10T09:25:32Z</time>
      </trkpt>
      <trkpt lat="44.29975" lon="4.0267">
        <ele>266.42</ele>
        <time>2016-04-10T09:25:33Z</time>
      </trkpt>
      <trkpt lat="44.2998" lon="4.0266">
        <ele>266.42</ele>
        <time>2016-04-10T09:25:34Z</time>
      </trkpt>
      <trkpt lat="44.29981" lon="4.02647">
        <ele>266.9</ele>
        <time>2016-04-10T09:25:35Z</time>
      </trkpt>
      <trkpt lat="44.29981" lon="4.02633">
        <ele>266.42</ele>
        <time>2016-04-10T09:25:36Z</time>
      </trkpt>
      <trkpt lat="44.2998" lon="4.02619">
        <ele>266.9</ele>
        <time>2016-04-10T09:25:37Z</time>
      </trkpt>
      <trkpt lat="44.29981" lon="4.0259">
        <ele>268.35</ele>
        <time>2016-04-10T09:25:39Z</time>
      </trkpt>
      <trkpt lat="44.30006" lon="4.02488">
        <ele>272.19</ele>
        <time>2016-04-10T09:25:46Z</time>
      </trkpt>
      <trkpt lat="44.30014" lon="4.02472">
        <ele>272.19</ele>
        <time>2016-04-10T09:25:47Z</time>
      </trkpt>
      <trkpt lat="44.30063" lon="4.02392">
        <ele>273.15</ele>
        <time>2016-04-10T09:25:53Z</time>
      </trkpt>
      <trkpt lat="44.30074" lon="4.0238">
        <ele>274.11</ele>
        <time>2016-04-10T09:25:54Z</time>
      </trkpt>
      <trkpt lat="44.30145" lon="4.02299">
        <ele>273.15</ele>
        <time>2016-04-10T09:26:01Z</time>
      </trkpt>
      <trkpt lat="44.30153" lon="4.02286">
        <ele>273.15</ele>
        <time>2016-04-10T09:26:02Z</time>
      </trkpt>
      <trkpt lat="44.3016" lon="4.02272">
        <ele>273.63</ele>
        <time>2016-04-10T09:26:03Z</time>
      </trkpt>
      <trkpt lat="44.30166" lon="4.02258">
        <ele>273.63</ele>
        <time>2016-04-10T09:26:04Z</time>
      </trkpt>
      <trkpt lat="44.3017" lon="4.02243">
        <ele>274.11</ele>
        <time>2016-04-10T09:26:05Z</time>
      </trkpt>
      <trkpt lat="44.30171" lon="4.02227">
        <ele>273.63</ele>
        <time>2016-04-10T09:26:06Z</time>
      </trkpt>
      <trkpt lat="44.3017" lon="4.02211">
        <ele>273.63</ele>
        <time>2016-04-10T09:26:07Z</time>
      </trkpt>
      <trkpt lat="44.30167" lon="4.02195">
        <ele>273.63</ele>
        <time>2016-04-10T09:26:08Z</time>
      </trkpt>
      <trkpt lat="44.30161" lon="4.0218">
        <ele>273.15</ele>
        <time>2016-04-10T09:26:09Z</time>
      </trkpt>
      <trkpt lat="44.30154" lon="4.02163">
        <ele>273.63</ele>
        <time>2016-04-10T09:26:10Z</time>
      </trkpt>
      <trkpt lat="44.30146" lon="4.02147">
        <ele>273.63</ele>
        <time>2016-04-10T09:26:11Z</time>
      </trkpt>
      <trkpt lat="44.30138" lon="4.02131">
        <ele>274.11</ele>
        <time>2016-04-10T09:26:12Z</time>
      </trkpt>
      <trkpt lat="44.30094" lon="4.02039">
        <ele>276.04</ele>
        <time>2016-04-10T09:26:18Z</time>
      </trkpt>
      <trkpt lat="44.3009" lon="4.02023">
        <ele>276.04</ele>
        <time>2016-04-10T09:26:19Z</time>
      </trkpt>
      <trkpt lat="44.30059" lon="4.01873">
        <ele>268.83</ele>
        <time>2016-04-10T09:26:29Z</time>
      </trkpt>
      <trkpt lat="44.30051" lon="4.01836">
        <ele>267.86</ele>
        <time>2016-04-10T09:26:32Z</time>
      </trkpt>
      <trkpt lat="44.30051" lon="4.01825">
        <ele>266.9</ele>
        <time>2016-04-10T09:26:33Z</time>
      </trkpt>
      <trkpt lat="44.30054" lon="4.01814">
        <ele>265.94</ele>
        <time>2016-04-10T09:26:34Z</time>
      </trkpt>
      <trkpt lat="44.30059" lon="4.01806">
        <ele>265.46</ele>
        <time>2016-04-10T09:26:35Z</time>
      </trkpt>
      <trkpt lat="44.30067" lon="4.01801">
        <ele>265.46</ele>
        <time>2016-04-10T09:26:36Z</time>
      </trkpt>
      <trkpt lat="44.30077" lon="4.01799">
        <ele>265.46</ele>
        <time>2016-04-10T09:26:37Z</time>
      </trkpt>
      <trkpt lat="44.30087" lon="4.01798">
        <ele>265.46</ele>
        <time>2016-04-10T09:26:38Z</time>
      </trkpt>
      <trkpt lat="44.30099" lon="4.01797">
        <ele>265.46</ele>
        <time>2016-04-10T09:26:39Z</time>
      </trkpt>
      <trkpt lat="44.3011" lon="4.01792">
        <ele>264.98</ele>
        <time>2016-04-10T09:26:40Z</time>
      </trkpt>
      <trkpt lat="44.30119" lon="4.01784">
        <ele>264.5</ele>
        <time>2016-04-10T09:26:41Z</time>
      </trkpt>
      <trkpt lat="44.30127" lon="4.01773">
        <ele>264.98</ele>
        <time>2016-04-10T09:26:42Z</time>
      </trkpt>
      <trkpt lat="44.30134" lon="4.01761">
        <ele>265.46</ele>
        <time>2016-04-10T09:26:43Z</time>
      </trkpt>
      <trkpt lat="44.30164" lon="4.01704">
        <ele>265.94</ele>
        <time>2016-04-10T09:26:47Z</time>
      </trkpt>
      <trkpt lat="44.30169" lon="4.01687">
        <ele>265.94</ele>
        <time>2016-04-10T09:26:48Z</time>
      </trkpt>
      <trkpt lat="44.30178" lon="4.01649">
        <ele>265.94</ele>
        <time>2016-04-10T09:26:50Z</time>
      </trkpt>
      <trkpt lat="44.30184" lon="4.01631">
        <ele>265.94</ele>
        <time>2016-04-10T09:26:51Z</time>
      </trkpt>
      <trkpt lat="44.3019" lon="4.01615">
        <ele>265.94</ele>
        <time>2016-04-10T09:26:52Z</time>
      </trkpt>
      <trkpt lat="44.30197" lon="4.016">
        <ele>265.94</ele>
        <time>2016-04-10T09:26:53Z</time>
      </trkpt>
      <trkpt lat="44.30204" lon="4.01586">
        <ele>265.94</ele>
        <time>2016-04-10T09:26:54Z</time>
      </trkpt>
      <trkpt lat="44.30212" lon="4.01573">
        <ele>265.94</ele>
        <time>2016-04-10T09:26:55Z</time>
      </trkpt>
      <trkpt lat="44.30274" lon="4.01439">
        <ele>265.46</ele>
        <time>2016-04-10T09:27:04Z</time>
      </trkpt>
      <trkpt lat="44.30294" lon="4.01416">
        <ele>265.46</ele>
        <time>2016-04-10T09:27:06Z</time>
      </trkpt>
      <trkpt lat="44.30306" lon="4.01407">
        <ele>265.46</ele>
        <time>2016-04-10T09:27:07Z</time>
      </trkpt>
      <trkpt lat="44.30353" lon="4.01368">
        <ele>264.98</ele>
        <time>2016-04-10T09:27:11Z</time>
      </trkpt>
      <trkpt lat="44.30362" lon="4.01352">
        <ele>264.5</ele>
        <time>2016-04-10T09:27:12Z</time>
      </trkpt>
      <trkpt lat="44.3037" lon="4.01335">
        <ele>264.02</ele>
        <time>2016-04-10T09:27:13Z</time>
      </trkpt>
      <trkpt lat="44.30376" lon="4.01319">
        <ele>264.02</ele>
        <time>2016-04-10T09:27:14Z</time>
      </trkpt>
      <trkpt lat="44.30381" lon="4.01302">
        <ele>263.54</ele>
        <time>2016-04-10T09:27:15Z</time>
      </trkpt>
      <trkpt lat="44.30444" lon="4.01157">
        <ele>266.42</ele>
        <time>2016-04-10T09:27:25Z</time>
      </trkpt>
      <trkpt lat="44.30497" lon="4.00995">
        <ele>269.79</ele>
        <time>2016-04-10T09:27:34Z</time>
      </trkpt>
      <trkpt lat="44.30508" lon="4.00923">
        <ele>269.79</ele>
        <time>2016-04-10T09:27:38Z</time>
      </trkpt>
      <trkpt lat="44.30515" lon="4.00909">
        <ele>270.27</ele>
        <time>2016-04-10T09:27:39Z</time>
      </trkpt>
      <trkpt lat="44.30524" lon="4.00899">
        <ele>269.79</ele>
        <time>2016-04-10T09:27:40Z</time>
      </trkpt>
      <trkpt lat="44.30535" lon="4.00892">
        <ele>269.79</ele>
        <time>2016-04-10T09:27:41Z</time>
      </trkpt>
      <trkpt lat="44.30545" lon="4.00885">
        <ele>269.79</ele>
        <time>2016-04-10T09:27:42Z</time>
      </trkpt>
      <trkpt lat="44.30581" lon="4.00853">
        <ele>269.79</ele>
        <time>2016-04-10T09:27:47Z</time>
      </trkpt>
      <trkpt lat="44.30586" lon="4.00842">
        <ele>269.31</ele>
        <time>2016-04-10T09:27:48Z</time>
      </trkpt>
      <trkpt lat="44.30588" lon="4.00828">
        <ele>268.83</ele>
        <time>2016-04-10T09:27:49Z</time>
      </trkpt>
      <trkpt lat="44.30587" lon="4.00812">
        <ele>268.83</ele>
        <time>2016-04-10T09:27:50Z</time>
      </trkpt>
      <trkpt lat="44.30583" lon="4.00795">
        <ele>268.35</ele>
        <time>2016-04-10T09:27:51Z</time>
      </trkpt>
      <trkpt lat="44.30576" lon="4.00779">
        <ele>267.86</ele>
        <time>2016-04-10T09:27:52Z</time>
      </trkpt>
      <trkpt lat="44.30569" lon="4.0076">
        <ele>268.35</ele>
        <time>2016-04-10T09:27:53Z</time>
      </trkpt>
      <trkpt lat="44.30563" lon="4.00743">
        <ele>268.35</ele>
        <time>2016-04-10T09:27:54Z</time>
      </trkpt>
      <trkpt lat="44.30529" lon="4.00612">
        <ele>271.71</ele>
        <time>2016-04-10T09:28:03Z</time>
      </trkpt>
      <trkpt lat="44.30523" lon="4.00472">
        <ele>272.67</ele>
        <time>2016-04-10T09:28:11Z</time>
      </trkpt>
      <trkpt lat="44.30527" lon="4.00417">
        <ele>273.15</ele>
        <time>2016-04-10T09:28:14Z</time>
      </trkpt>
      <trkpt lat="44.30532" lon="4.00402">
        <ele>273.15</ele>
        <time>2016-04-10T09:28:15Z</time>
      </trkpt>
      <trkpt lat="44.3054" lon="4.00389">
        <ele>272.67</ele>
        <time>2016-04-10T09:28:16Z</time>
      </trkpt>
      <trkpt lat="44.3055" lon="4.00377">
        <ele>272.67</ele>
        <time>2016-04-10T09:28:17Z</time>
      </trkpt>
      <trkpt lat="44.30559" lon="4.00366">
        <ele>272.67</ele>
        <time>2016-04-10T09:28:18Z</time>
      </trkpt>
      <trkpt lat="44.30566" lon="4.0035">
        <ele>272.19</ele>
        <time>2016-04-10T09:28:19Z</time>
      </trkpt>
      <trkpt lat="44.3057" lon="4.00332">
        <ele>271.71</ele>
        <time>2016-04-10T09:28:20Z</time>
      </trkpt>
      <trkpt lat="44.3057" lon="4.00313">
        <ele>272.19</ele>
        <time>2016-04-10T09:28:21Z</time>
      </trkpt>
      <trkpt lat="44.30572" lon="4.00296">
        <ele>272.67</ele>
        <time>2016-04-10T09:28:22Z</time>
      </trkpt>
      <trkpt lat="44.30576" lon="4.00279">
        <ele>272.67</ele>
        <time>2016-04-10T09:28:23Z</time>
      </trkpt>
      <trkpt lat="44.30581" lon="4.00262">
        <ele>273.15</ele>
        <time>2016-04-10T09:28:24Z</time>
      </trkpt>
      <trkpt lat="44.3059" lon="4.00244">
        <ele>273.15</ele>
        <time>2016-04-10T09:28:25Z</time>
      </trkpt>
      <trkpt lat="44.306" lon="4.00225">
        <ele>273.63</ele>
        <time>2016-04-10T09:28:26Z</time>
      </trkpt>
      <trkpt lat="44.3061" lon="4.00207">
        <ele>273.63</ele>
        <time>2016-04-10T09:28:27Z</time>
      </trkpt>
      <trkpt lat="44.30622" lon="4.0019">
        <ele>274.11</ele>
        <time>2016-04-10T09:28:28Z</time>
      </trkpt>
      <trkpt lat="44.30635" lon="4.00175">
        <ele>274.11</ele>
        <time>2016-04-10T09:28:29Z</time>
      </trkpt>
      <trkpt lat="44.30648" lon="4.0016">
        <ele>274.59</ele>
        <time>2016-04-10T09:28:30Z</time>
      </trkpt>
      <trkpt lat="44.30736" lon="4.00024">
        <ele>279.4</ele>
        <time>2016-04-10T09:28:39Z</time>
      </trkpt>
      <trkpt lat="44.3074" lon="4.00007">
        <ele>279.4</ele>
        <time>2016-04-10T09:28:40Z</time>
      </trkpt>
      <trkpt lat="44.30741" lon="3.9999">
        <ele>279.4</ele>
        <time>2016-04-10T09:28:41Z</time>
      </trkpt>
      <trkpt lat="44.30739" lon="3.99972">
        <ele>279.4</ele>
        <time>2016-04-10T09:28:42Z</time>
      </trkpt>
      <trkpt lat="44.30733" lon="3.99954">
        <ele>279.4</ele>
        <time>2016-04-10T09:28:43Z</time>
      </trkpt>
      <trkpt lat="44.30725" lon="3.99937">
        <ele>279.4</ele>
        <time>2016-04-10T09:28:44Z</time>
      </trkpt>
      <trkpt lat="44.30716" lon="3.99917">
        <ele>280.36</ele>
        <time>2016-04-10T09:28:45Z</time>
      </trkpt>
      <trkpt lat="44.30678" lon="3.99837">
        <ele>283.73</ele>
        <time>2016-04-10T09:28:50Z</time>
      </trkpt>
      <trkpt lat="44.30668" lon="3.99828">
        <ele>283.73</ele>
        <time>2016-04-10T09:28:51Z</time>
      </trkpt>
      <trkpt lat="44.30656" lon="3.99824">
        <ele>284.21</ele>
        <time>2016-04-10T09:28:52Z</time>
      </trkpt>
      <trkpt lat="44.30643" lon="3.99818">
        <ele>285.17</ele>
        <time>2016-04-10T09:28:53Z</time>
      </trkpt>
      <trkpt lat="44.3063" lon="3.9981">
        <ele>285.65</ele>
        <time>2016-04-10T09:28:54Z</time>
      </trkpt>
      <trkpt lat="44.30619" lon="3.99801">
        <ele>286.13</ele>
        <time>2016-04-10T09:28:55Z</time>
      </trkpt>
      <trkpt lat="44.30597" lon="3.99787">
        <ele>287.57</ele>
        <time>2016-04-10T09:28:57Z</time>
      </trkpt>
      <trkpt lat="44.30587" lon="3.99784">
        <ele>288.05</ele>
        <time>2016-04-10T09:28:58Z</time>
      </trkpt>
      <trkpt lat="44.30577" lon="3.99784">
        <ele>288.53</ele>
        <time>2016-04-10T09:28:59Z</time>
      </trkpt>
      <trkpt lat="44.3056" lon="3.99783">
        <ele>290.46</ele>
        <time>2016-04-10T09:29:01Z</time>
      </trkpt>
      <trkpt lat="44.30539" lon="3.99771">
        <ele>292.38</ele>
        <time>2016-04-10T09:29:04Z</time>
      </trkpt>
      <trkpt lat="44.30541" lon="3.99755">
        <ele>292.38</ele>
        <time>2016-04-10T09:29:05Z</time>
      </trkpt>
      <trkpt lat="44.30542" lon="3.99742">
        <ele>292.86</ele>
        <time>2016-04-10T09:29:06Z</time>
      </trkpt>
      <trkpt lat="44.30548" lon="3.99626">
        <ele>294.3</ele>
        <time>2016-04-10T09:29:13Z</time>
      </trkpt>
      <trkpt lat="44.30547" lon="3.99608">
        <ele>294.3</ele>
        <time>2016-04-10T09:29:14Z</time>
      </trkpt>
      <trkpt lat="44.30544" lon="3.99589">
        <ele>294.3</ele>
        <time>2016-04-10T09:29:15Z</time>
      </trkpt>
      <trkpt lat="44.30513" lon="3.99375">
        <ele>292.86</ele>
        <time>2016-04-10T09:29:25Z</time>
      </trkpt>
      <trkpt lat="44.30462" lon="3.99227">
        <ele>290.46</ele>
        <time>2016-04-10T09:29:33Z</time>
      </trkpt>
      <trkpt lat="44.30452" lon="3.99214">
        <ele>293.34</ele>
        <time>2016-04-10T09:29:34Z</time>
      </trkpt>
      <trkpt lat="44.30441" lon="3.992">
        <ele>293.34</ele>
        <time>2016-04-10T09:29:35Z</time>
      </trkpt>
      <trkpt lat="44.30429" lon="3.99186">
        <ele>293.34</ele>
        <time>2016-04-10T09:29:36Z</time>
      </trkpt>
      <trkpt lat="44.30419" lon="3.99171">
        <ele>293.82</ele>
        <time>2016-04-10T09:29:37Z</time>
      </trkpt>
      <trkpt lat="44.30409" lon="3.99157">
        <ele>294.78</ele>
        <time>2016-04-10T09:29:38Z</time>
      </trkpt>
      <trkpt lat="44.30384" lon="3.99123">
        <ele>297.67</ele>
        <time>2016-04-10T09:29:41Z</time>
      </trkpt>
      <trkpt lat="44.30379" lon="3.99111">
        <ele>297.18</ele>
        <time>2016-04-10T09:29:42Z</time>
      </trkpt>
      <trkpt lat="44.30376" lon="3.99099">
        <ele>299.11</ele>
        <time>2016-04-10T09:29:43Z</time>
      </trkpt>
      <trkpt lat="44.30378" lon="3.99085">
        <ele>297.67</ele>
        <time>2016-04-10T09:29:44Z</time>
      </trkpt>
      <trkpt lat="44.30384" lon="3.99073">
        <ele>298.15</ele>
        <time>2016-04-10T09:29:45Z</time>
      </trkpt>
      <trkpt lat="44.30393" lon="3.99066">
        <ele>297.67</ele>
        <time>2016-04-10T09:29:46Z</time>
      </trkpt>
      <trkpt lat="44.30403" lon="3.99064">
        <ele>298.15</ele>
        <time>2016-04-10T09:29:47Z</time>
      </trkpt>
      <trkpt lat="44.30414" lon="3.99067">
        <ele>297.67</ele>
        <time>2016-04-10T09:29:48Z</time>
      </trkpt>
      <trkpt lat="44.30426" lon="3.99071">
        <ele>298.15</ele>
        <time>2016-04-10T09:29:49Z</time>
      </trkpt>
      <trkpt lat="44.30436" lon="3.99074">
        <ele>297.67</ele>
        <time>2016-04-10T09:29:50Z</time>
      </trkpt>
      <trkpt lat="44.30463" lon="3.99075">
        <ele>294.3</ele>
        <time>2016-04-10T09:29:53Z</time>
      </trkpt>
      <trkpt lat="44.30468" lon="3.99066">
        <ele>293.82</ele>
        <time>2016-04-10T09:29:54Z</time>
      </trkpt>
      <trkpt lat="44.30471" lon="3.99057">
        <ele>294.3</ele>
        <time>2016-04-10T09:29:55Z</time>
      </trkpt>
      <trkpt lat="44.30472" lon="3.99047">
        <ele>294.3</ele>
        <time>2016-04-10T09:29:56Z</time>
      </trkpt>
      <trkpt lat="44.30473" lon="3.99038">
        <ele>294.3</ele>
        <time>2016-04-10T09:29:57Z</time>
      </trkpt>
      <trkpt lat="44.30474" lon="3.99029">
        <ele>294.3</ele>
        <time>2016-04-10T09:29:58Z</time>
      </trkpt>
      <trkpt lat="44.30488" lon="3.98914">
        <ele>293.82</ele>
        <time>2016-04-10T09:30:09Z</time>
      </trkpt>
      <trkpt lat="44.30502" lon="3.98754">
        <ele>294.78</ele>
        <time>2016-04-10T09:30:20Z</time>
      </trkpt>
      <trkpt lat="44.30502" lon="3.9874">
        <ele>294.78</ele>
        <time>2016-04-10T09:30:21Z</time>
      </trkpt>
      <trkpt lat="44.30501" lon="3.98727">
        <ele>295.26</ele>
        <time>2016-04-10T09:30:22Z</time>
      </trkpt>
      <trkpt lat="44.30498" lon="3.98715">
        <ele>295.74</ele>
        <time>2016-04-10T09:30:23Z</time>
      </trkpt>
      <trkpt lat="44.30491" lon="3.98706">
        <ele>296.22</ele>
        <time>2016-04-10T09:30:24Z</time>
      </trkpt>
      <trkpt lat="44.30482" lon="3.98696">
        <ele>297.18</ele>
        <time>2016-04-10T09:30:25Z</time>
      </trkpt>
      <trkpt lat="44.30472" lon="3.9869">
        <ele>297.18</ele>
        <time>2016-04-10T09:30:26Z</time>
      </trkpt>
      <trkpt lat="44.30459" lon="3.98685">
        <ele>297.67</ele>
        <time>2016-04-10T09:30:27Z</time>
      </trkpt>
      <trkpt lat="44.30447" lon="3.9868">
        <ele>297.18</ele>
        <time>2016-04-10T09:30:28Z</time>
      </trkpt>
      <trkpt lat="44.30435" lon="3.98674">
        <ele>297.67</ele>
        <time>2016-04-10T09:30:29Z</time>
      </trkpt>
      <trkpt lat="44.30425" lon="3.98667">
        <ele>297.67</ele>
        <time>2016-04-10T09:30:30Z</time>
      </trkpt>
      <trkpt lat="44.30416" lon="3.98658">
        <ele>297.67</ele>
        <time>2016-04-10T09:30:31Z</time>
      </trkpt>
      <trkpt lat="44.30408" lon="3.9865">
        <ele>296.7</ele>
        <time>2016-04-10T09:30:32Z</time>
      </trkpt>
      <trkpt lat="44.30393" lon="3.98618">
        <ele>295.74</ele>
        <time>2016-04-10T09:30:34Z</time>
      </trkpt>
      <trkpt lat="44.3039" lon="3.98599">
        <ele>296.7</ele>
        <time>2016-04-10T09:30:35Z</time>
      </trkpt>
      <trkpt lat="44.30388" lon="3.98579">
        <ele>297.18</ele>
        <time>2016-04-10T09:30:36Z</time>
      </trkpt>
      <trkpt lat="44.30388" lon="3.98559">
        <ele>296.7</ele>
        <time>2016-04-10T09:30:37Z</time>
      </trkpt>
      <trkpt lat="44.30387" lon="3.98538">
        <ele>296.7</ele>
        <time>2016-04-10T09:30:38Z</time>
      </trkpt>
      <trkpt lat="44.30387" lon="3.98516">
        <ele>296.7</ele>
        <time>2016-04-10T09:30:39Z</time>
      </trkpt>
      <trkpt lat="44.30381" lon="3.98345">
        <ele>297.67</ele>
        <time>2016-04-10T09:30:48Z</time>
      </trkpt>
      <trkpt lat="44.30402" lon="3.98217">
        <ele>299.11</ele>
        <time>2016-04-10T09:30:56Z</time>
      </trkpt>
      <trkpt lat="44.3041" lon="3.98163">
        <ele>300.55</ele>
        <time>2016-04-10T09:30:59Z</time>
      </trkpt>
      <trkpt lat="44.30411" lon="3.98144">
        <ele>301.03</ele>
        <time>2016-04-10T09:31:00Z</time>
      </trkpt>
      <trkpt lat="44.30411" lon="3.98124">
        <ele>301.51</ele>
        <time>2016-04-10T09:31:01Z</time>
      </trkpt>
      <trkpt lat="44.30408" lon="3.98103">
        <ele>301.51</ele>
        <time>2016-04-10T09:31:02Z</time>
      </trkpt>
      <trkpt lat="44.30403" lon="3.98082">
        <ele>301.99</ele>
        <time>2016-04-10T09:31:03Z</time>
      </trkpt>
      <trkpt lat="44.30397" lon="3.98064">
        <ele>302.47</ele>
        <time>2016-04-10T09:31:04Z</time>
      </trkpt>
      <trkpt lat="44.30391" lon="3.98045">
        <ele>302.95</ele>
        <time>2016-04-10T09:31:05Z</time>
      </trkpt>
      <trkpt lat="44.30357" lon="3.9793">
        <ele>305.84</ele>
        <time>2016-04-10T09:31:12Z</time>
      </trkpt>
      <trkpt lat="44.30352" lon="3.97922">
        <ele>305.36</ele>
        <time>2016-04-10T09:31:13Z</time>
      </trkpt>
      <trkpt lat="44.30343" lon="3.9792">
        <ele>305.36</ele>
        <time>2016-04-10T09:31:14Z</time>
      </trkpt>
      <trkpt lat="44.30335" lon="3.9792">
        <ele>304.88</ele>
        <time>2016-04-10T09:31:15Z</time>
      </trkpt>
      <trkpt lat="44.30328" lon="3.9792">
        <ele>304.88</ele>
        <time>2016-04-10T09:31:16Z</time>
      </trkpt>
      <trkpt lat="44.30299" lon="3.97927">
        <ele>306.8</ele>
        <time>2016-04-10T09:31:23Z</time>
      </trkpt>
      <trkpt lat="44.30299" lon="3.97931">
        <ele>306.8</ele>
        <time>2016-04-10T09:31:24Z</time>
      </trkpt>
      <trkpt lat="44.303" lon="3.97934">
        <ele>307.28</ele>
        <time>2016-04-10T09:31:25Z</time>
      </trkpt>
      <trkpt lat="44.30303" lon="3.97935">
        <ele>307.76</ele>
        <time>2016-04-10T09:31:26Z</time>
      </trkpt>
      <trkpt lat="44.30307" lon="3.97937">
        <ele>308.24</ele>
        <time>2016-04-10T09:31:27Z</time>
      </trkpt>
      <trkpt lat="44.30314" lon="3.97937">
        <ele>309.2</ele>
        <time>2016-04-10T09:31:28Z</time>
      </trkpt>
      <trkpt lat="44.30321" lon="3.97938">
        <ele>309.68</ele>
        <time>2016-04-10T09:31:29Z</time>
      </trkpt>
      <trkpt lat="44.30336" lon="3.9794">
        <ele>310.16</ele>
        <time>2016-04-10T09:31:31Z</time>
      </trkpt>
      <trkpt lat="44.30342" lon="3.97944">
        <ele>310.16</ele>
        <time>2016-04-10T09:31:32Z</time>
      </trkpt>
      <trkpt lat="44.30348" lon="3.9795">
        <ele>310.64</ele>
        <time>2016-04-10T09:31:33Z</time>
      </trkpt>
      <trkpt lat="44.30352" lon="3.9796">
        <ele>310.64</ele>
        <time>2016-04-10T09:31:34Z</time>
      </trkpt>
      <trkpt lat="44.30357" lon="3.97973">
        <ele>310.64</ele>
        <time>2016-04-10T09:31:35Z</time>
      </trkpt>
      <trkpt lat="44.30361" lon="3.97989">
        <ele>310.64</ele>
        <time>2016-04-10T09:31:36Z</time>
      </trkpt>
      <trkpt lat="44.30382" lon="3.98107">
        <ele>310.64</ele>
        <time>2016-04-10T09:31:42Z</time>
      </trkpt>
      <trkpt lat="44.30395" lon="3.98158">
        <ele>311.12</ele>
        <time>2016-04-10T09:31:45Z</time>
      </trkpt>
      <trkpt lat="44.30396" lon="3.98174">
        <ele>311.12</ele>
        <time>2016-04-10T09:31:46Z</time>
      </trkpt>
      <trkpt lat="44.30394" lon="3.98189">
        <ele>310.64</ele>
        <time>2016-04-10T09:31:47Z</time>
      </trkpt>
      <trkpt lat="44.30389" lon="3.98204">
        <ele>310.64</ele>
        <time>2016-04-10T09:31:48Z</time>
      </trkpt>
      <trkpt lat="44.30383" lon="3.98219">
        <ele>309.68</ele>
        <time>2016-04-10T09:31:49Z</time>
      </trkpt>
      <trkpt lat="44.30352" lon="3.9835">
        <ele>307.76</ele>
        <time>2016-04-10T09:31:55Z</time>
      </trkpt>
      <trkpt lat="44.3035" lon="3.9837">
        <ele>308.24</ele>
        <time>2016-04-10T09:31:56Z</time>
      </trkpt>
      <trkpt lat="44.30351" lon="3.98391">
        <ele>307.76</ele>
        <time>2016-04-10T09:31:57Z</time>
      </trkpt>
      <trkpt lat="44.30353" lon="3.98411">
        <ele>307.76</ele>
        <time>2016-04-10T09:31:58Z</time>
      </trkpt>
      <trkpt lat="44.30357" lon="3.9843">
        <ele>306.8</ele>
        <time>2016-04-10T09:31:59Z</time>
      </trkpt>
      <trkpt lat="44.30362" lon="3.98447">
        <ele>307.28</ele>
        <time>2016-04-10T09:32:00Z</time>
      </trkpt>
      <trkpt lat="44.30365" lon="3.98465">
        <ele>307.28</ele>
        <time>2016-04-10T09:32:01Z</time>
      </trkpt>
      <trkpt lat="44.30366" lon="3.98483">
        <ele>307.76</ele>
        <time>2016-04-10T09:32:02Z</time>
      </trkpt>
      <trkpt lat="44.30364" lon="3.98503">
        <ele>308.24</ele>
        <time>2016-04-10T09:32:03Z</time>
      </trkpt>
      <trkpt lat="44.30363" lon="3.98579">
        <ele>311.6</ele>
        <time>2016-04-10T09:32:07Z</time>
      </trkpt>
      <trkpt lat="44.30364" lon="3.98596">
        <ele>312.09</ele>
        <time>2016-04-10T09:32:08Z</time>
      </trkpt>
      <trkpt lat="44.30365" lon="3.98624">
        <ele>313.05</ele>
        <time>2016-04-10T09:32:10Z</time>
      </trkpt>
      <trkpt lat="44.30365" lon="3.98635">
        <ele>314.01</ele>
        <time>2016-04-10T09:32:11Z</time>
      </trkpt>
      <trkpt lat="44.30362" lon="3.98643">
        <ele>314.97</ele>
        <time>2016-04-10T09:32:12Z</time>
      </trkpt>
      <trkpt lat="44.30357" lon="3.98648">
        <ele>314.97</ele>
        <time>2016-04-10T09:32:13Z</time>
      </trkpt>
      <trkpt lat="44.30347" lon="3.98641">
        <ele>315.93</ele>
        <time>2016-04-10T09:32:14Z</time>
      </trkpt>
      <trkpt lat="44.30337" lon="3.98635">
        <ele>317.37</ele>
        <time>2016-04-10T09:32:15Z</time>
      </trkpt>
      <trkpt lat="44.3033" lon="3.98628">
        <ele>318.81</ele>
        <time>2016-04-10T09:32:16Z</time>
      </trkpt>
      <trkpt lat="44.30324" lon="3.98617">
        <ele>319.78</ele>
        <time>2016-04-10T09:32:17Z</time>
      </trkpt>
      <trkpt lat="44.30315" lon="3.98605">
        <ele>320.74</ele>
        <time>2016-04-10T09:32:18Z</time>
      </trkpt>
      <trkpt lat="44.30306" lon="3.986">
        <ele>321.22</ele>
        <time>2016-04-10T09:32:19Z</time>
      </trkpt>
      <trkpt lat="44.30294" lon="3.98597">
        <ele>321.22</ele>
        <time>2016-04-10T09:32:20Z</time>
      </trkpt>
      <trkpt lat="44.30282" lon="3.98596">
        <ele>321.7</ele>
        <time>2016-04-10T09:32:21Z</time>
      </trkpt>
      <trkpt lat="44.30266" lon="3.98598">
        <ele>322.66</ele>
        <time>2016-04-10T09:32:22Z</time>
      </trkpt>
      <trkpt lat="44.30249" lon="3.986">
        <ele>323.14</ele>
        <time>2016-04-10T09:32:23Z</time>
      </trkpt>
      <trkpt lat="44.30115" lon="3.98573">
        <ele>332.27</ele>
        <time>2016-04-10T09:32:31Z</time>
      </trkpt>
      <trkpt lat="44.30021" lon="3.98576">
        <ele>337.08</ele>
        <time>2016-04-10T09:32:37Z</time>
      </trkpt>
      <trkpt lat="44.29991" lon="3.98589">
        <ele>339.48</ele>
        <time>2016-04-10T09:32:40Z</time>
      </trkpt>
      <trkpt lat="44.29987" lon="3.98601">
        <ele>339.96</ele>
        <time>2016-04-10T09:32:41Z</time>
      </trkpt>
      <trkpt lat="44.29987" lon="3.98615">
        <ele>340.44</ele>
        <time>2016-04-10T09:32:42Z</time>
      </trkpt>
      <trkpt lat="44.2999" lon="3.98627">
        <ele>340.44</ele>
        <time>2016-04-10T09:32:43Z</time>
      </trkpt>
      <trkpt lat="44.29996" lon="3.98636">
        <ele>340.92</ele>
        <time>2016-04-10T09:32:44Z</time>
      </trkpt>
      <trkpt lat="44.30003" lon="3.9864">
        <ele>341.41</ele>
        <time>2016-04-10T09:32:45Z</time>
      </trkpt>
      <trkpt lat="44.30012" lon="3.98643">
        <ele>341.89</ele>
        <time>2016-04-10T09:32:46Z</time>
      </trkpt>
      <trkpt lat="44.30019" lon="3.98644">
        <ele>342.37</ele>
        <time>2016-04-10T09:32:47Z</time>
      </trkpt>
      <trkpt lat="44.30025" lon="3.98644">
        <ele>342.85</ele>
        <time>2016-04-10T09:32:48Z</time>
      </trkpt>
      <trkpt lat="44.30044" lon="3.9865">
        <ele>346.21</ele>
        <time>2016-04-10T09:32:55Z</time>
      </trkpt>
      <trkpt lat="44.30053" lon="3.98661">
        <ele>351.5</ele>
        <time>2016-04-10T09:33:05Z</time>
      </trkpt>
      <trkpt lat="44.30047" lon="3.98659">
        <ele>345.73</ele>
        <time>2016-04-10T09:34:31Z</time>
      </trkpt>
      <trkpt lat="44.30047" lon="3.98659">
        <ele>345.25</ele>
        <time>2016-04-10T09:34:39Z</time>
      </trkpt>
      <trkpt lat="44.30047" lon="3.98662">
        <ele>347.17</ele>
        <time>2016-04-10T09:39:50Z</time>
      </trkpt>
      <trkpt lat="44.30043" lon="3.98665">
        <ele>342.37</ele>
        <time>2016-04-10T09:40:41Z</time>
      </trkpt>
      <trkpt lat="44.30047" lon="3.98661">
        <ele>348.13</ele>
        <time>2016-04-10T09:41:15Z</time>
      </trkpt>
      <trkpt lat="44.30033" lon="3.98647">
        <ele>348.13</ele>
        <time>2016-04-10T09:41:22Z</time>
      </trkpt>
      <trkpt lat="44.30029" lon="3.98644">
        <ele>348.13</ele>
        <time>2016-04-10T09:41:23Z</time>
      </trkpt>
      <trkpt lat="44.30023" lon="3.98643">
        <ele>347.65</ele>
        <time>2016-04-10T09:41:24Z</time>
      </trkpt>
      <trkpt lat="44.30017" lon="3.98641">
        <ele>347.65</ele>
        <time>2016-04-10T09:41:25Z</time>
      </trkpt>
      <trkpt lat="44.30004" lon="3.98635">
        <ele>347.17</ele>
        <time>2016-04-10T09:41:27Z</time>
      </trkpt>
      <trkpt lat="44.29997" lon="3.9863">
        <ele>347.17</ele>
        <time>2016-04-10T09:41:28Z</time>
      </trkpt>
      <trkpt lat="44.29992" lon="3.98622">
        <ele>346.69</ele>
        <time>2016-04-10T09:41:29Z</time>
      </trkpt>
      <trkpt lat="44.2999" lon="3.98612">
        <ele>346.21</ele>
        <time>2016-04-10T09:41:30Z</time>
      </trkpt>
      <trkpt lat="44.2999" lon="3.986">
        <ele>345.73</ele>
        <time>2016-04-10T09:41:31Z</time>
      </trkpt>
      <trkpt lat="44.29993" lon="3.98589">
        <ele>345.25</ele>
        <time>2016-04-10T09:41:32Z</time>
      </trkpt>
      <trkpt lat="44.29998" lon="3.9858">
        <ele>346.21</ele>
        <time>2016-04-10T09:41:33Z</time>
      </trkpt>
      <trkpt lat="44.30006" lon="3.98574">
        <ele>346.69</ele>
        <time>2016-04-10T09:41:34Z</time>
      </trkpt>
      <trkpt lat="44.30019" lon="3.98572">
        <ele>347.17</ele>
        <time>2016-04-10T09:41:35Z</time>
      </trkpt>
      <trkpt lat="44.30033" lon="3.98573">
        <ele>345.25</ele>
        <time>2016-04-10T09:41:36Z</time>
      </trkpt>
      <trkpt lat="44.30049" lon="3.98573">
        <ele>342.85</ele>
        <time>2016-04-10T09:41:37Z</time>
      </trkpt>
      <trkpt lat="44.30113" lon="3.9857">
        <ele>338.04</ele>
        <time>2016-04-10T09:41:41Z</time>
      </trkpt>
      <trkpt lat="44.30127" lon="3.98575">
        <ele>336.12</ele>
        <time>2016-04-10T09:41:42Z</time>
      </trkpt>
      <trkpt lat="44.3014" lon="3.98582">
        <ele>334.2</ele>
        <time>2016-04-10T09:41:43Z</time>
      </trkpt>
      <trkpt lat="44.30256" lon="3.98602">
        <ele>322.18</ele>
        <time>2016-04-10T09:41:51Z</time>
      </trkpt>
      <trkpt lat="44.30326" lon="3.98605">
        <ele>318.81</ele>
        <time>2016-04-10T09:41:56Z</time>
      </trkpt>
      <trkpt lat="44.30337" lon="3.98611">
        <ele>317.37</ele>
        <time>2016-04-10T09:41:57Z</time>
      </trkpt>
      <trkpt lat="44.30342" lon="3.98622">
        <ele>318.33</ele>
        <time>2016-04-10T09:41:58Z</time>
      </trkpt>
      <trkpt lat="44.30346" lon="3.98631">
        <ele>317.37</ele>
        <time>2016-04-10T09:41:59Z</time>
      </trkpt>
      <trkpt lat="44.30349" lon="3.98636">
        <ele>316.41</ele>
        <time>2016-04-10T09:42:00Z</time>
      </trkpt>
      <trkpt lat="44.30355" lon="3.98639">
        <ele>313.53</ele>
        <time>2016-04-10T09:42:02Z</time>
      </trkpt>
      <trkpt lat="44.30358" lon="3.98635">
        <ele>313.05</ele>
        <time>2016-04-10T09:42:03Z</time>
      </trkpt>
      <trkpt lat="44.30363" lon="3.98627">
        <ele>311.6</ele>
        <time>2016-04-10T09:42:04Z</time>
      </trkpt>
      <trkpt lat="44.30366" lon="3.98617">
        <ele>312.57</ele>
        <time>2016-04-10T09:42:05Z</time>
      </trkpt>
      <trkpt lat="44.30366" lon="3.98606">
        <ele>311.12</ele>
        <time>2016-04-10T09:42:06Z</time>
      </trkpt>
      <trkpt lat="44.30367" lon="3.98592">
        <ele>311.12</ele>
        <time>2016-04-10T09:42:07Z</time>
      </trkpt>
      <trkpt lat="44.30365" lon="3.98577">
        <ele>310.64</ele>
        <time>2016-04-10T09:42:08Z</time>
      </trkpt>
      <trkpt lat="44.30367" lon="3.98454">
        <ele>306.8</ele>
        <time>2016-04-10T09:42:14Z</time>
      </trkpt>
      <trkpt lat="44.30366" lon="3.98435">
        <ele>305.84</ele>
        <time>2016-04-10T09:42:15Z</time>
      </trkpt>
      <trkpt lat="44.30363" lon="3.98417">
        <ele>305.36</ele>
        <time>2016-04-10T09:42:16Z</time>
      </trkpt>
      <trkpt lat="44.30353" lon="3.98363">
        <ele>303.91</ele>
        <time>2016-04-10T09:42:19Z</time>
      </trkpt>
      <trkpt lat="44.30353" lon="3.98345">
        <ele>303.91</ele>
        <time>2016-04-10T09:42:20Z</time>
      </trkpt>
      <trkpt lat="44.30355" lon="3.98327">
        <ele>304.39</ele>
        <time>2016-04-10T09:42:21Z</time>
      </trkpt>
      <trkpt lat="44.30377" lon="3.98218">
        <ele>308.24</ele>
        <time>2016-04-10T09:42:27Z</time>
      </trkpt>
      <trkpt lat="44.30382" lon="3.98203">
        <ele>308.24</ele>
        <time>2016-04-10T09:42:28Z</time>
      </trkpt>
      <trkpt lat="44.30393" lon="3.98173">
        <ele>308.72</ele>
        <time>2016-04-10T09:42:30Z</time>
      </trkpt>
      <trkpt lat="44.30397" lon="3.98158">
        <ele>309.2</ele>
        <time>2016-04-10T09:42:31Z</time>
      </trkpt>
      <trkpt lat="44.30397" lon="3.98142">
        <ele>309.2</ele>
        <time>2016-04-10T09:42:32Z</time>
      </trkpt>
      <trkpt lat="44.30396" lon="3.98128">
        <ele>309.2</ele>
        <time>2016-04-10T09:42:33Z</time>
      </trkpt>
      <trkpt lat="44.3039" lon="3.98115">
        <ele>309.2</ele>
        <time>2016-04-10T09:42:34Z</time>
      </trkpt>
      <trkpt lat="44.30385" lon="3.98101">
        <ele>308.72</ele>
        <time>2016-04-10T09:42:35Z</time>
      </trkpt>
      <trkpt lat="44.3038" lon="3.98085">
        <ele>308.72</ele>
        <time>2016-04-10T09:42:36Z</time>
      </trkpt>
      <trkpt lat="44.30378" lon="3.98067">
        <ele>308.72</ele>
        <time>2016-04-10T09:42:37Z</time>
      </trkpt>
      <trkpt lat="44.30355" lon="3.97957">
        <ele>309.2</ele>
        <time>2016-04-10T09:42:44Z</time>
      </trkpt>
      <trkpt lat="44.30352" lon="3.97947">
        <ele>309.2</ele>
        <time>2016-04-10T09:42:45Z</time>
      </trkpt>
      <trkpt lat="44.30347" lon="3.9794">
        <ele>309.2</ele>
        <time>2016-04-10T09:42:46Z</time>
      </trkpt>
      <trkpt lat="44.30342" lon="3.97936">
        <ele>308.24</ele>
        <time>2016-04-10T09:42:47Z</time>
      </trkpt>
      <trkpt lat="44.30336" lon="3.97933">
        <ele>307.28</ele>
        <time>2016-04-10T09:42:48Z</time>
      </trkpt>
      <trkpt lat="44.30329" lon="3.97932">
        <ele>306.32</ele>
        <time>2016-04-10T09:42:49Z</time>
      </trkpt>
      <trkpt lat="44.30322" lon="3.97932">
        <ele>306.32</ele>
        <time>2016-04-10T09:42:50Z</time>
      </trkpt>
      <trkpt lat="44.30271" lon="3.97931">
        <ele>306.32</ele>
        <time>2016-04-10T09:42:56Z</time>
      </trkpt>
      <trkpt lat="44.3026" lon="3.97929">
        <ele>306.32</ele>
        <time>2016-04-10T09:42:57Z</time>
      </trkpt>
      <trkpt lat="44.30249" lon="3.97924">
        <ele>306.8</ele>
        <time>2016-04-10T09:42:58Z</time>
      </trkpt>
      <trkpt lat="44.30157" lon="3.97891">
        <ele>310.64</ele>
        <time>2016-04-10T09:43:07Z</time>
      </trkpt>
      <trkpt lat="44.30098" lon="3.97867">
        <ele>313.05</ele>
        <time>2016-04-10T09:43:13Z</time>
      </trkpt>
      <trkpt lat="44.30088" lon="3.97866">
        <ele>313.53</ele>
        <time>2016-04-10T09:43:14Z</time>
      </trkpt>
      <trkpt lat="44.30073" lon="3.97863">
        <ele>314.01</ele>
        <time>2016-04-10T09:43:16Z</time>
      </trkpt>
      <trkpt lat="44.30067" lon="3.97861">
        <ele>314.97</ele>
        <time>2016-04-10T09:43:17Z</time>
      </trkpt>
      <trkpt lat="44.30062" lon="3.97858">
        <ele>314.49</ele>
        <time>2016-04-10T09:43:18Z</time>
      </trkpt>
      <trkpt lat="44.30059" lon="3.97855">
        <ele>314.01</ele>
        <time>2016-04-10T09:43:19Z</time>
      </trkpt>
      <trkpt lat="44.30057" lon="3.97851">
        <ele>314.49</ele>
        <time>2016-04-10T09:43:20Z</time>
      </trkpt>
      <trkpt lat="44.30056" lon="3.97848">
        <ele>314.49</ele>
        <time>2016-04-10T09:43:21Z</time>
      </trkpt>
      <trkpt lat="44.30059" lon="3.97844">
        <ele>317.85</ele>
        <time>2016-04-10T09:43:34Z</time>
      </trkpt>
      <trkpt lat="44.30061" lon="3.97842">
        <ele>321.7</ele>
        <time>2016-04-10T09:43:52Z</time>
      </trkpt>
      <trkpt lat="44.30061" lon="3.97839">
        <ele>321.7</ele>
        <time>2016-04-10T09:43:53Z</time>
      </trkpt>
      <trkpt lat="44.30063" lon="3.97834">
        <ele>321.7</ele>
        <time>2016-04-10T09:43:54Z</time>
      </trkpt>
      <trkpt lat="44.30066" lon="3.97827">
        <ele>321.7</ele>
        <time>2016-04-10T09:43:55Z</time>
      </trkpt>
      <trkpt lat="44.30072" lon="3.9782">
        <ele>320.74</ele>
        <time>2016-04-10T09:43:56Z</time>
      </trkpt>
      <trkpt lat="44.30078" lon="3.9781">
        <ele>319.78</ele>
        <time>2016-04-10T09:43:57Z</time>
      </trkpt>
      <trkpt lat="44.30084" lon="3.97796">
        <ele>318.81</ele>
        <time>2016-04-10T09:43:58Z</time>
      </trkpt>
      <trkpt lat="44.30089" lon="3.97781">
        <ele>317.85</ele>
        <time>2016-04-10T09:43:59Z</time>
      </trkpt>
      <trkpt lat="44.30094" lon="3.97764">
        <ele>316.89</ele>
        <time>2016-04-10T09:44:00Z</time>
      </trkpt>
      <trkpt lat="44.30124" lon="3.97663">
        <ele>314.49</ele>
        <time>2016-04-10T09:44:08Z</time>
      </trkpt>
      <trkpt lat="44.30131" lon="3.97645">
        <ele>314.01</ele>
        <time>2016-04-10T09:44:10Z</time>
      </trkpt>
      <trkpt lat="44.30136" lon="3.97637">
        <ele>314.01</ele>
        <time>2016-04-10T09:44:11Z</time>
      </trkpt>
      <trkpt lat="44.30144" lon="3.97633">
        <ele>313.53</ele>
        <time>2016-04-10T09:44:12Z</time>
      </trkpt>
      <trkpt lat="44.30153" lon="3.97634">
        <ele>313.53</ele>
        <time>2016-04-10T09:44:13Z</time>
      </trkpt>
      <trkpt lat="44.30164" lon="3.97637">
        <ele>313.05</ele>
        <time>2016-04-10T09:44:14Z</time>
      </trkpt>
      <trkpt lat="44.30175" lon="3.97641">
        <ele>312.57</ele>
        <time>2016-04-10T09:44:15Z</time>
      </trkpt>
      <trkpt lat="44.30253" lon="3.97675">
        <ele>309.2</ele>
        <time>2016-04-10T09:44:22Z</time>
      </trkpt>
      <trkpt lat="44.30291" lon="3.97701">
        <ele>308.24</ele>
        <time>2016-04-10T09:44:25Z</time>
      </trkpt>
      <trkpt lat="44.30304" lon="3.97705">
        <ele>307.28</ele>
        <time>2016-04-10T09:44:26Z</time>
      </trkpt>
      <trkpt lat="44.30316" lon="3.97702">
        <ele>306.8</ele>
        <time>2016-04-10T09:44:27Z</time>
      </trkpt>
      <trkpt lat="44.30325" lon="3.97696">
        <ele>305.36</ele>
        <time>2016-04-10T09:44:28Z</time>
      </trkpt>
      <trkpt lat="44.30333" lon="3.97687">
        <ele>304.39</ele>
        <time>2016-04-10T09:44:29Z</time>
      </trkpt>
      <trkpt lat="44.30335" lon="3.97672">
        <ele>304.88</ele>
        <time>2016-04-10T09:44:30Z</time>
      </trkpt>
      <trkpt lat="44.30336" lon="3.97656">
        <ele>305.36</ele>
        <time>2016-04-10T09:44:31Z</time>
      </trkpt>
      <trkpt lat="44.30338" lon="3.97639">
        <ele>305.36</ele>
        <time>2016-04-10T09:44:32Z</time>
      </trkpt>
      <trkpt lat="44.3035" lon="3.97543">
        <ele>304.39</ele>
        <time>2016-04-10T09:44:38Z</time>
      </trkpt>
      <trkpt lat="44.30354" lon="3.97531">
        <ele>304.39</ele>
        <time>2016-04-10T09:44:39Z</time>
      </trkpt>
      <trkpt lat="44.30358" lon="3.97519">
        <ele>303.91</ele>
        <time>2016-04-10T09:44:40Z</time>
      </trkpt>
      <trkpt lat="44.30426" lon="3.97352">
        <ele>303.43</ele>
        <time>2016-04-10T09:44:53Z</time>
      </trkpt>
      <trkpt lat="44.30472" lon="3.9724">
        <ele>303.91</ele>
        <time>2016-04-10T09:45:02Z</time>
      </trkpt>
      <trkpt lat="44.30534" lon="3.97085">
        <ele>303.91</ele>
        <time>2016-04-10T09:45:13Z</time>
      </trkpt>
      <trkpt lat="44.30559" lon="3.97029">
        <ele>303.91</ele>
        <time>2016-04-10T09:45:18Z</time>
      </trkpt>
      <trkpt lat="44.30566" lon="3.97021">
        <ele>304.39</ele>
        <time>2016-04-10T09:45:19Z</time>
      </trkpt>
      <trkpt lat="44.30576" lon="3.97015">
        <ele>304.39</ele>
        <time>2016-04-10T09:45:20Z</time>
      </trkpt>
      <trkpt lat="44.30586" lon="3.97016">
        <ele>304.39</ele>
        <time>2016-04-10T09:45:21Z</time>
      </trkpt>
      <trkpt lat="44.30598" lon="3.97023">
        <ele>304.39</ele>
        <time>2016-04-10T09:45:22Z</time>
      </trkpt>
      <trkpt lat="44.30611" lon="3.97035">
        <ele>304.39</ele>
        <time>2016-04-10T09:45:23Z</time>
      </trkpt>
      <trkpt lat="44.30623" lon="3.97047">
        <ele>303.91</ele>
        <time>2016-04-10T09:45:24Z</time>
      </trkpt>
      <trkpt lat="44.30635" lon="3.97056">
        <ele>303.43</ele>
        <time>2016-04-10T09:45:25Z</time>
      </trkpt>
      <trkpt lat="44.3077" lon="3.97166">
        <ele>304.88</ele>
        <time>2016-04-10T09:45:37Z</time>
      </trkpt>
      <trkpt lat="44.3079" lon="3.97181">
        <ele>304.88</ele>
        <time>2016-04-10T09:45:39Z</time>
      </trkpt>
      <trkpt lat="44.308" lon="3.97181">
        <ele>305.36</ele>
        <time>2016-04-10T09:45:40Z</time>
      </trkpt>
      <trkpt lat="44.30809" lon="3.97174">
        <ele>305.36</ele>
        <time>2016-04-10T09:45:41Z</time>
      </trkpt>
      <trkpt lat="44.30818" lon="3.97162">
        <ele>305.36</ele>
        <time>2016-04-10T09:45:42Z</time>
      </trkpt>
      <trkpt lat="44.30826" lon="3.97148">
        <ele>304.88</ele>
        <time>2016-04-10T09:45:43Z</time>
      </trkpt>
      <trkpt lat="44.30834" lon="3.97128">
        <ele>304.88</ele>
        <time>2016-04-10T09:45:44Z</time>
      </trkpt>
      <trkpt lat="44.30844" lon="3.97107">
        <ele>305.84</ele>
        <time>2016-04-10T09:45:45Z</time>
      </trkpt>
      <trkpt lat="44.30856" lon="3.97085">
        <ele>306.8</ele>
        <time>2016-04-10T09:45:46Z</time>
      </trkpt>
      <trkpt lat="44.30922" lon="3.96903">
        <ele>317.85</ele>
        <time>2016-04-10T09:45:53Z</time>
      </trkpt>
      <trkpt lat="44.3093" lon="3.9688">
        <ele>318.81</ele>
        <time>2016-04-10T09:45:54Z</time>
      </trkpt>
      <trkpt lat="44.30939" lon="3.96859">
        <ele>320.26</ele>
        <time>2016-04-10T09:45:55Z</time>
      </trkpt>
      <trkpt lat="44.30972" lon="3.9682">
        <ele>324.58</ele>
        <time>2016-04-10T09:45:58Z</time>
      </trkpt>
      <trkpt lat="44.30993" lon="3.96842">
        <ele>325.54</ele>
        <time>2016-04-10T09:45:59Z</time>
      </trkpt>
      <trkpt lat="44.3101" lon="3.96853">
        <ele>327.47</ele>
        <time>2016-04-10T09:46:00Z</time>
      </trkpt>
      <trkpt lat="44.3107" lon="3.96848">
        <ele>330.83</ele>
        <time>2016-04-10T09:46:03Z</time>
      </trkpt>
      <trkpt lat="44.31092" lon="3.96843">
        <ele>331.31</ele>
        <time>2016-04-10T09:46:04Z</time>
      </trkpt>
      <trkpt lat="44.31244" lon="3.96808">
        <ele>337.08</ele>
        <time>2016-04-10T09:46:11Z</time>
      </trkpt>
      <trkpt lat="44.31272" lon="3.96814">
        <ele>338.52</ele>
        <time>2016-04-10T09:46:13Z</time>
      </trkpt>
      <trkpt lat="44.31282" lon="3.96828">
        <ele>339</ele>
        <time>2016-04-10T09:46:14Z</time>
      </trkpt>
      <trkpt lat="44.31293" lon="3.96843">
        <ele>339.48</ele>
        <time>2016-04-10T09:46:15Z</time>
      </trkpt>
      <trkpt lat="44.31303" lon="3.96861">
        <ele>339</ele>
        <time>2016-04-10T09:46:16Z</time>
      </trkpt>
      <trkpt lat="44.31316" lon="3.96876">
        <ele>339</ele>
        <time>2016-04-10T09:46:17Z</time>
      </trkpt>
      <trkpt lat="44.31332" lon="3.96885">
        <ele>338.52</ele>
        <time>2016-04-10T09:46:18Z</time>
      </trkpt>
      <trkpt lat="44.3135" lon="3.96894">
        <ele>338.04</ele>
        <time>2016-04-10T09:46:19Z</time>
      </trkpt>
      <trkpt lat="44.31369" lon="3.96901">
        <ele>337.56</ele>
        <time>2016-04-10T09:46:20Z</time>
      </trkpt>
      <trkpt lat="44.31389" lon="3.96906">
        <ele>338.04</ele>
        <time>2016-04-10T09:46:21Z</time>
      </trkpt>
      <trkpt lat="44.31429" lon="3.96902">
        <ele>338.52</ele>
        <time>2016-04-10T09:46:23Z</time>
      </trkpt>
      <trkpt lat="44.31448" lon="3.96894">
        <ele>337.08</ele>
        <time>2016-04-10T09:46:24Z</time>
      </trkpt>
      <trkpt lat="44.3147" lon="3.96887">
        <ele>337.08</ele>
        <time>2016-04-10T09:46:25Z</time>
      </trkpt>
      <trkpt lat="44.31594" lon="3.96851">
        <ele>339.48</ele>
        <time>2016-04-10T09:46:31Z</time>
      </trkpt>
      <trkpt lat="44.31612" lon="3.96835">
        <ele>339.96</ele>
        <time>2016-04-10T09:46:32Z</time>
      </trkpt>
      <trkpt lat="44.3163" lon="3.96814">
        <ele>339.96</ele>
        <time>2016-04-10T09:46:33Z</time>
      </trkpt>
      <trkpt lat="44.31648" lon="3.96793">
        <ele>339.96</ele>
        <time>2016-04-10T09:46:34Z</time>
      </trkpt>
      <trkpt lat="44.31666" lon="3.96768">
        <ele>340.44</ele>
        <time>2016-04-10T09:46:35Z</time>
      </trkpt>
      <trkpt lat="44.31683" lon="3.96745">
        <ele>340.92</ele>
        <time>2016-04-10T09:46:36Z</time>
      </trkpt>
      <trkpt lat="44.31756" lon="3.96636">
        <ele>343.33</ele>
        <time>2016-04-10T09:46:42Z</time>
      </trkpt>
      <trkpt lat="44.31764" lon="3.96631">
        <ele>343.81</ele>
        <time>2016-04-10T09:46:43Z</time>
      </trkpt>
      <trkpt lat="44.31775" lon="3.96636">
        <ele>342.85</ele>
        <time>2016-04-10T09:46:44Z</time>
      </trkpt>
      <trkpt lat="44.31785" lon="3.96648">
        <ele>342.85</ele>
        <time>2016-04-10T09:46:45Z</time>
      </trkpt>
      <trkpt lat="44.31795" lon="3.96663">
        <ele>342.85</ele>
        <time>2016-04-10T09:46:46Z</time>
      </trkpt>
      <trkpt lat="44.31804" lon="3.96679">
        <ele>342.37</ele>
        <time>2016-04-10T09:46:47Z</time>
      </trkpt>
      <trkpt lat="44.31813" lon="3.96694">
        <ele>342.37</ele>
        <time>2016-04-10T09:46:48Z</time>
      </trkpt>
      <trkpt lat="44.3183" lon="3.96719">
        <ele>341.89</ele>
        <time>2016-04-10T09:46:50Z</time>
      </trkpt>
      <trkpt lat="44.31837" lon="3.96723">
        <ele>341.89</ele>
        <time>2016-04-10T09:46:51Z</time>
      </trkpt>
      <trkpt lat="44.31847" lon="3.9672">
        <ele>342.37</ele>
        <time>2016-04-10T09:46:52Z</time>
      </trkpt>
      <trkpt lat="44.31854" lon="3.96711">
        <ele>341.89</ele>
        <time>2016-04-10T09:46:53Z</time>
      </trkpt>
      <trkpt lat="44.3186" lon="3.96695">
        <ele>342.37</ele>
        <time>2016-04-10T09:46:54Z</time>
      </trkpt>
      <trkpt lat="44.31862" lon="3.96675">
        <ele>342.85</ele>
        <time>2016-04-10T09:46:55Z</time>
      </trkpt>
      <trkpt lat="44.3186" lon="3.96651">
        <ele>342.85</ele>
        <time>2016-04-10T09:46:56Z</time>
      </trkpt>
      <trkpt lat="44.31856" lon="3.96626">
        <ele>343.33</ele>
        <time>2016-04-10T09:46:57Z</time>
      </trkpt>
      <trkpt lat="44.31849" lon="3.96599">
        <ele>345.25</ele>
        <time>2016-04-10T09:46:58Z</time>
      </trkpt>
      <trkpt lat="44.31841" lon="3.96569">
        <ele>346.21</ele>
        <time>2016-04-10T09:46:59Z</time>
      </trkpt>
      <trkpt lat="44.31836" lon="3.96542">
        <ele>346.69</ele>
        <time>2016-04-10T09:47:00Z</time>
      </trkpt>
      <trkpt lat="44.31827" lon="3.96452">
        <ele>349.58</ele>
        <time>2016-04-10T09:47:04Z</time>
      </trkpt>
      <trkpt lat="44.31831" lon="3.96436">
        <ele>350.06</ele>
        <time>2016-04-10T09:47:05Z</time>
      </trkpt>
      <trkpt lat="44.31838" lon="3.96422">
        <ele>351.02</ele>
        <time>2016-04-10T09:47:06Z</time>
      </trkpt>
      <trkpt lat="44.3185" lon="3.9641">
        <ele>351.02</ele>
        <time>2016-04-10T09:47:07Z</time>
      </trkpt>
      <trkpt lat="44.31864" lon="3.964">
        <ele>351.5</ele>
        <time>2016-04-10T09:47:08Z</time>
      </trkpt>
      <trkpt lat="44.31883" lon="3.96391">
        <ele>351.5</ele>
        <time>2016-04-10T09:47:09Z</time>
      </trkpt>
      <trkpt lat="44.31904" lon="3.96381">
        <ele>353.9</ele>
        <time>2016-04-10T09:47:10Z</time>
      </trkpt>
      <trkpt lat="44.31926" lon="3.9637">
        <ele>356.79</ele>
        <time>2016-04-10T09:47:11Z</time>
      </trkpt>
      <trkpt lat="44.32053" lon="3.96339">
        <ele>362.55</ele>
        <time>2016-04-10T09:47:17Z</time>
      </trkpt>
      <trkpt lat="44.32098" lon="3.96351">
        <ele>366.4</ele>
        <time>2016-04-10T09:47:20Z</time>
      </trkpt>
      <trkpt lat="44.32109" lon="3.96363">
        <ele>365.92</ele>
        <time>2016-04-10T09:47:21Z</time>
      </trkpt>
      <trkpt lat="44.32118" lon="3.9638">
        <ele>365.92</ele>
        <time>2016-04-10T09:47:22Z</time>
      </trkpt>
      <trkpt lat="44.32127" lon="3.96398">
        <ele>367.36</ele>
        <time>2016-04-10T09:47:23Z</time>
      </trkpt>
      <trkpt lat="44.32136" lon="3.96418">
        <ele>368.32</ele>
        <time>2016-04-10T09:47:24Z</time>
      </trkpt>
      <trkpt lat="44.32145" lon="3.96438">
        <ele>369.28</ele>
        <time>2016-04-10T09:47:25Z</time>
      </trkpt>
      <trkpt lat="44.3221" lon="3.96577">
        <ele>375.05</ele>
        <time>2016-04-10T09:47:33Z</time>
      </trkpt>
      <trkpt lat="44.32219" lon="3.96586">
        <ele>376.01</ele>
        <time>2016-04-10T09:47:34Z</time>
      </trkpt>
      <trkpt lat="44.32229" lon="3.96588">
        <ele>376.49</ele>
        <time>2016-04-10T09:47:35Z</time>
      </trkpt>
      <trkpt lat="44.32241" lon="3.96586">
        <ele>377.94</ele>
        <time>2016-04-10T09:47:36Z</time>
      </trkpt>
      <trkpt lat="44.32251" lon="3.96579">
        <ele>378.42</ele>
        <time>2016-04-10T09:47:37Z</time>
      </trkpt>
      <trkpt lat="44.32261" lon="3.96564">
        <ele>379.38</ele>
        <time>2016-04-10T09:47:38Z</time>
      </trkpt>
      <trkpt lat="44.32265" lon="3.96544">
        <ele>379.86</ele>
        <time>2016-04-10T09:47:39Z</time>
      </trkpt>
      <trkpt lat="44.32269" lon="3.96523">
        <ele>381.3</ele>
        <time>2016-04-10T09:47:40Z</time>
      </trkpt>
      <trkpt lat="44.32271" lon="3.96497">
        <ele>382.26</ele>
        <time>2016-04-10T09:47:41Z</time>
      </trkpt>
      <trkpt lat="44.32271" lon="3.96473">
        <ele>382.26</ele>
        <time>2016-04-10T09:47:42Z</time>
      </trkpt>
      <trkpt lat="44.32271" lon="3.9645">
        <ele>382.74</ele>
        <time>2016-04-10T09:47:43Z</time>
      </trkpt>
      <trkpt lat="44.32274" lon="3.96397">
        <ele>385.15</ele>
        <time>2016-04-10T09:47:46Z</time>
      </trkpt>
      <trkpt lat="44.32277" lon="3.96382">
        <ele>386.11</ele>
        <time>2016-04-10T09:47:47Z</time>
      </trkpt>
      <trkpt lat="44.32283" lon="3.9637">
        <ele>386.59</ele>
        <time>2016-04-10T09:47:48Z</time>
      </trkpt>
      <trkpt lat="44.32291" lon="3.96365">
        <ele>387.07</ele>
        <time>2016-04-10T09:47:49Z</time>
      </trkpt>
      <trkpt lat="44.32303" lon="3.96365">
        <ele>387.55</ele>
        <time>2016-04-10T09:47:50Z</time>
      </trkpt>
      <trkpt lat="44.32317" lon="3.96366">
        <ele>388.03</ele>
        <time>2016-04-10T09:47:51Z</time>
      </trkpt>
      <trkpt lat="44.32332" lon="3.9637">
        <ele>388.99</ele>
        <time>2016-04-10T09:47:52Z</time>
      </trkpt>
      <trkpt lat="44.32346" lon="3.96377">
        <ele>389.47</ele>
        <time>2016-04-10T09:47:53Z</time>
      </trkpt>
      <trkpt lat="44.3236" lon="3.96385">
        <ele>390.43</ele>
        <time>2016-04-10T09:47:54Z</time>
      </trkpt>
      <trkpt lat="44.32373" lon="3.96394">
        <ele>391.39</ele>
        <time>2016-04-10T09:47:55Z</time>
      </trkpt>
      <trkpt lat="44.32385" lon="3.96407">
        <ele>390.91</ele>
        <time>2016-04-10T09:47:56Z</time>
      </trkpt>
      <trkpt lat="44.32397" lon="3.96422">
        <ele>390.43</ele>
        <time>2016-04-10T09:47:57Z</time>
      </trkpt>
      <trkpt lat="44.32406" lon="3.96443">
        <ele>390.91</ele>
        <time>2016-04-10T09:47:58Z</time>
      </trkpt>
      <trkpt lat="44.32414" lon="3.96465">
        <ele>392.36</ele>
        <time>2016-04-10T09:47:59Z</time>
      </trkpt>
      <trkpt lat="44.32424" lon="3.96487">
        <ele>393.32</ele>
        <time>2016-04-10T09:48:00Z</time>
      </trkpt>
      <trkpt lat="44.3249" lon="3.96629">
        <ele>400.05</ele>
        <time>2016-04-10T09:48:07Z</time>
      </trkpt>
      <trkpt lat="44.32536" lon="3.96725">
        <ele>405.33</ele>
        <time>2016-04-10T09:48:13Z</time>
      </trkpt>
      <trkpt lat="44.32546" lon="3.96737">
        <ele>405.81</ele>
        <time>2016-04-10T09:48:14Z</time>
      </trkpt>
      <trkpt lat="44.32557" lon="3.96747">
        <ele>406.77</ele>
        <time>2016-04-10T09:48:15Z</time>
      </trkpt>
      <trkpt lat="44.32571" lon="3.9675">
        <ele>407.74</ele>
        <time>2016-04-10T09:48:16Z</time>
      </trkpt>
      <trkpt lat="44.3259" lon="3.96747">
        <ele>409.18</ele>
        <time>2016-04-10T09:48:17Z</time>
      </trkpt>
      <trkpt lat="44.32609" lon="3.96743">
        <ele>410.62</ele>
        <time>2016-04-10T09:48:18Z</time>
      </trkpt>
      <trkpt lat="44.32627" lon="3.96739">
        <ele>411.58</ele>
        <time>2016-04-10T09:48:19Z</time>
      </trkpt>
      <trkpt lat="44.32698" lon="3.96728">
        <ele>417.35</ele>
        <time>2016-04-10T09:48:23Z</time>
      </trkpt>
      <trkpt lat="44.32716" lon="3.9673">
        <ele>418.79</ele>
        <time>2016-04-10T09:48:24Z</time>
      </trkpt>
      <trkpt lat="44.32734" lon="3.96734">
        <ele>420.71</ele>
        <time>2016-04-10T09:48:25Z</time>
      </trkpt>
      <trkpt lat="44.32779" lon="3.96754">
        <ele>425.04</ele>
        <time>2016-04-10T09:48:28Z</time>
      </trkpt>
      <trkpt lat="44.32791" lon="3.96764">
        <ele>426.48</ele>
        <time>2016-04-10T09:48:29Z</time>
      </trkpt>
      <trkpt lat="44.32802" lon="3.96776">
        <ele>427.92</ele>
        <time>2016-04-10T09:48:30Z</time>
      </trkpt>
      <trkpt lat="44.32823" lon="3.96797">
        <ele>430.33</ele>
        <time>2016-04-10T09:48:32Z</time>
      </trkpt>
      <trkpt lat="44.32834" lon="3.96799">
        <ele>431.29</ele>
        <time>2016-04-10T09:48:33Z</time>
      </trkpt>
      <trkpt lat="44.32847" lon="3.96798">
        <ele>432.25</ele>
        <time>2016-04-10T09:48:34Z</time>
      </trkpt>
      <trkpt lat="44.32859" lon="3.96791">
        <ele>432.73</ele>
        <time>2016-04-10T09:48:35Z</time>
      </trkpt>
      <trkpt lat="44.32873" lon="3.96782">
        <ele>433.69</ele>
        <time>2016-04-10T09:48:36Z</time>
      </trkpt>
      <trkpt lat="44.32885" lon="3.96768">
        <ele>433.69</ele>
        <time>2016-04-10T09:48:37Z</time>
      </trkpt>
      <trkpt lat="44.32897" lon="3.96748">
        <ele>433.69</ele>
        <time>2016-04-10T09:48:38Z</time>
      </trkpt>
      <trkpt lat="44.3291" lon="3.96722">
        <ele>434.65</ele>
        <time>2016-04-10T09:48:39Z</time>
      </trkpt>
      <trkpt lat="44.32925" lon="3.96695">
        <ele>436.58</ele>
        <time>2016-04-10T09:48:40Z</time>
      </trkpt>
      <trkpt lat="44.32998" lon="3.96592">
        <ele>441.86</ele>
        <time>2016-04-10T09:48:45Z</time>
      </trkpt>
      <trkpt lat="44.33043" lon="3.9653">
        <ele>445.23</ele>
        <time>2016-04-10T09:48:51Z</time>
      </trkpt>
      <trkpt lat="44.3305" lon="3.96521">
        <ele>445.71</ele>
        <time>2016-04-10T09:48:53Z</time>
      </trkpt>
      <trkpt lat="44.33054" lon="3.96519">
        <ele>446.19</ele>
        <time>2016-04-10T09:48:54Z</time>
      </trkpt>
      <trkpt lat="44.33057" lon="3.9652">
        <ele>446.67</ele>
        <time>2016-04-10T09:48:55Z</time>
      </trkpt>
      <trkpt lat="44.33058" lon="3.96525">
        <ele>446.67</ele>
        <time>2016-04-10T09:48:56Z</time>
      </trkpt>
      <trkpt lat="44.33058" lon="3.96531">
        <ele>446.19</ele>
        <time>2016-04-10T09:48:57Z</time>
      </trkpt>
      <trkpt lat="44.33055" lon="3.96538">
        <ele>445.71</ele>
        <time>2016-04-10T09:48:58Z</time>
      </trkpt>
      <trkpt lat="44.33053" lon="3.96544">
        <ele>445.23</ele>
        <time>2016-04-10T09:48:59Z</time>
      </trkpt>
      <trkpt lat="44.3305" lon="3.96549">
        <ele>445.23</ele>
        <time>2016-04-10T09:49:00Z</time>
      </trkpt>
      <trkpt lat="44.33046" lon="3.96557">
        <ele>444.27</ele>
        <time>2016-04-10T09:49:09Z</time>
      </trkpt>
      <trkpt lat="44.33036" lon="3.96597">
        <ele>447.63</ele>
        <time>2016-04-10T09:51:24Z</time>
      </trkpt>
      <trkpt lat="44.33025" lon="3.96635">
        <ele>449.55</ele>
        <time>2016-04-10T09:51:27Z</time>
      </trkpt>
      <trkpt lat="44.33019" lon="3.96647">
        <ele>450.03</ele>
        <time>2016-04-10T09:51:28Z</time>
      </trkpt>
      <trkpt lat="44.33011" lon="3.96659">
        <ele>450.52</ele>
        <time>2016-04-10T09:51:29Z</time>
      </trkpt>
      <trkpt lat="44.33001" lon="3.9667">
        <ele>451</ele>
        <time>2016-04-10T09:51:30Z</time>
      </trkpt>
      <trkpt lat="44.3299" lon="3.96681">
        <ele>451.48</ele>
        <time>2016-04-10T09:51:31Z</time>
      </trkpt>
      <trkpt lat="44.32917" lon="3.968">
        <ele>459.17</ele>
        <time>2016-04-10T09:51:39Z</time>
      </trkpt>
      <trkpt lat="44.32884" lon="3.96865">
        <ele>461.57</ele>
        <time>2016-04-10T09:51:43Z</time>
      </trkpt>
      <trkpt lat="44.32873" lon="3.96878">
        <ele>462.53</ele>
        <time>2016-04-10T09:51:44Z</time>
      </trkpt>
      <trkpt lat="44.3286" lon="3.96889">
        <ele>462.53</ele>
        <time>2016-04-10T09:51:45Z</time>
      </trkpt>
      <trkpt lat="44.32846" lon="3.96898">
        <ele>463.49</ele>
        <time>2016-04-10T09:51:46Z</time>
      </trkpt>
      <trkpt lat="44.32831" lon="3.96903">
        <ele>464.45</ele>
        <time>2016-04-10T09:51:47Z</time>
      </trkpt>
      <trkpt lat="44.32815" lon="3.96904">
        <ele>464.93</ele>
        <time>2016-04-10T09:51:48Z</time>
      </trkpt>
      <trkpt lat="44.328" lon="3.96903">
        <ele>465.42</ele>
        <time>2016-04-10T09:51:49Z</time>
      </trkpt>
      <trkpt lat="44.32784" lon="3.96897">
        <ele>466.38</ele>
        <time>2016-04-10T09:51:50Z</time>
      </trkpt>
      <trkpt lat="44.3277" lon="3.9689">
        <ele>467.82</ele>
        <time>2016-04-10T09:51:51Z</time>
      </trkpt>
      <trkpt lat="44.32756" lon="3.96886">
        <ele>468.78</ele>
        <time>2016-04-10T09:51:52Z</time>
      </trkpt>
      <trkpt lat="44.32741" lon="3.96883">
        <ele>469.74</ele>
        <time>2016-04-10T09:51:53Z</time>
      </trkpt>
      <trkpt lat="44.32727" lon="3.96883">
        <ele>470.7</ele>
        <time>2016-04-10T09:51:54Z</time>
      </trkpt>
      <trkpt lat="44.32714" lon="3.96885">
        <ele>470.22</ele>
        <time>2016-04-10T09:51:55Z</time>
      </trkpt>
      <trkpt lat="44.32701" lon="3.96891">
        <ele>470.22</ele>
        <time>2016-04-10T09:51:56Z</time>
      </trkpt>
      <trkpt lat="44.3269" lon="3.96903">
        <ele>470.22</ele>
        <time>2016-04-10T09:51:57Z</time>
      </trkpt>
      <trkpt lat="44.32682" lon="3.96917">
        <ele>470.22</ele>
        <time>2016-04-10T09:51:58Z</time>
      </trkpt>
      <trkpt lat="44.32678" lon="3.96933">
        <ele>469.74</ele>
        <time>2016-04-10T09:51:59Z</time>
      </trkpt>
      <trkpt lat="44.32678" lon="3.9695">
        <ele>469.74</ele>
        <time>2016-04-10T09:52:00Z</time>
      </trkpt>
      <trkpt lat="44.32677" lon="3.96966">
        <ele>470.22</ele>
        <time>2016-04-10T09:52:01Z</time>
      </trkpt>
      <trkpt lat="44.32675" lon="3.9698">
        <ele>470.22</ele>
        <time>2016-04-10T09:52:02Z</time>
      </trkpt>
      <trkpt lat="44.32671" lon="3.96993">
        <ele>470.7</ele>
        <time>2016-04-10T09:52:03Z</time>
      </trkpt>
      <trkpt lat="44.32665" lon="3.97003">
        <ele>472.14</ele>
        <time>2016-04-10T09:52:04Z</time>
      </trkpt>
      <trkpt lat="44.32654" lon="3.9701">
        <ele>472.63</ele>
        <time>2016-04-10T09:52:05Z</time>
      </trkpt>
      <trkpt lat="44.3264" lon="3.97011">
        <ele>473.59</ele>
        <time>2016-04-10T09:52:06Z</time>
      </trkpt>
      <trkpt lat="44.32624" lon="3.97009">
        <ele>474.55</ele>
        <time>2016-04-10T09:52:07Z</time>
      </trkpt>
      <trkpt lat="44.32609" lon="3.97008">
        <ele>475.51</ele>
        <time>2016-04-10T09:52:08Z</time>
      </trkpt>
      <trkpt lat="44.32595" lon="3.97003">
        <ele>476.47</ele>
        <time>2016-04-10T09:52:09Z</time>
      </trkpt>
      <trkpt lat="44.3258" lon="3.96997">
        <ele>478.39</ele>
        <time>2016-04-10T09:52:10Z</time>
      </trkpt>
      <trkpt lat="44.32566" lon="3.96992">
        <ele>479.84</ele>
        <time>2016-04-10T09:52:11Z</time>
      </trkpt>
      <trkpt lat="44.32553" lon="3.9699">
        <ele>480.32</ele>
        <time>2016-04-10T09:52:12Z</time>
      </trkpt>
      <trkpt lat="44.3254" lon="3.96991">
        <ele>481.28</ele>
        <time>2016-04-10T09:52:13Z</time>
      </trkpt>
      <trkpt lat="44.32528" lon="3.96994">
        <ele>481.76</ele>
        <time>2016-04-10T09:52:14Z</time>
      </trkpt>
      <trkpt lat="44.32517" lon="3.97002">
        <ele>481.76</ele>
        <time>2016-04-10T09:52:15Z</time>
      </trkpt>
      <trkpt lat="44.32506" lon="3.97012">
        <ele>481.76</ele>
        <time>2016-04-10T09:52:16Z</time>
      </trkpt>
      <trkpt lat="44.32494" lon="3.97024">
        <ele>482.24</ele>
        <time>2016-04-10T09:52:17Z</time>
      </trkpt>
      <trkpt lat="44.32461" lon="3.97063">
        <ele>482.24</ele>
        <time>2016-04-10T09:52:20Z</time>
      </trkpt>
      <trkpt lat="44.32453" lon="3.97078">
        <ele>482.72</ele>
        <time>2016-04-10T09:52:21Z</time>
      </trkpt>
      <trkpt lat="44.32447" lon="3.97094">
        <ele>482.24</ele>
        <time>2016-04-10T09:52:22Z</time>
      </trkpt>
      <trkpt lat="44.32444" lon="3.97112">
        <ele>482.24</ele>
        <time>2016-04-10T09:52:23Z</time>
      </trkpt>
      <trkpt lat="44.32443" lon="3.97132">
        <ele>483.2</ele>
        <time>2016-04-10T09:52:24Z</time>
      </trkpt>
      <trkpt lat="44.32441" lon="3.97155">
        <ele>483.2</ele>
        <time>2016-04-10T09:52:25Z</time>
      </trkpt>
      <trkpt lat="44.32431" lon="3.9726">
        <ele>485.6</ele>
        <time>2016-04-10T09:52:30Z</time>
      </trkpt>
      <trkpt lat="44.32425" lon="3.97277">
        <ele>486.08</ele>
        <time>2016-04-10T09:52:31Z</time>
      </trkpt>
      <trkpt lat="44.32418" lon="3.97293">
        <ele>486.56</ele>
        <time>2016-04-10T09:52:32Z</time>
      </trkpt>
      <trkpt lat="44.32408" lon="3.97306">
        <ele>487.05</ele>
        <time>2016-04-10T09:52:33Z</time>
      </trkpt>
      <trkpt lat="44.32395" lon="3.97317">
        <ele>488.01</ele>
        <time>2016-04-10T09:52:34Z</time>
      </trkpt>
      <trkpt lat="44.3238" lon="3.97327">
        <ele>488.01</ele>
        <time>2016-04-10T09:52:35Z</time>
      </trkpt>
      <trkpt lat="44.32366" lon="3.97338">
        <ele>488.97</ele>
        <time>2016-04-10T09:52:36Z</time>
      </trkpt>
      <trkpt lat="44.32252" lon="3.97471">
        <ele>493.77</ele>
        <time>2016-04-10T09:52:45Z</time>
      </trkpt>
      <trkpt lat="44.32201" lon="3.97549">
        <ele>497.62</ele>
        <time>2016-04-10T09:52:51Z</time>
      </trkpt>
      <trkpt lat="44.32202" lon="3.97565">
        <ele>497.14</ele>
        <time>2016-04-10T09:52:52Z</time>
      </trkpt>
      <trkpt lat="44.32205" lon="3.97583">
        <ele>496.66</ele>
        <time>2016-04-10T09:52:53Z</time>
      </trkpt>
      <trkpt lat="44.32216" lon="3.97731">
        <ele>499.06</ele>
        <time>2016-04-10T09:53:00Z</time>
      </trkpt>
      <trkpt lat="44.32213" lon="3.97751">
        <ele>498.58</ele>
        <time>2016-04-10T09:53:01Z</time>
      </trkpt>
      <trkpt lat="44.32207" lon="3.97769">
        <ele>499.06</ele>
        <time>2016-04-10T09:53:02Z</time>
      </trkpt>
      <trkpt lat="44.322" lon="3.97787">
        <ele>499.54</ele>
        <time>2016-04-10T09:53:03Z</time>
      </trkpt>
      <trkpt lat="44.32192" lon="3.97802">
        <ele>500.02</ele>
        <time>2016-04-10T09:53:04Z</time>
      </trkpt>
      <trkpt lat="44.32182" lon="3.97817">
        <ele>500.98</ele>
        <time>2016-04-10T09:53:05Z</time>
      </trkpt>
      <trkpt lat="44.3215" lon="3.97889">
        <ele>503.87</ele>
        <time>2016-04-10T09:53:09Z</time>
      </trkpt>
      <trkpt lat="44.32148" lon="3.97912">
        <ele>504.35</ele>
        <time>2016-04-10T09:53:10Z</time>
      </trkpt>
      <trkpt lat="44.32147" lon="3.97935">
        <ele>504.83</ele>
        <time>2016-04-10T09:53:11Z</time>
      </trkpt>
      <trkpt lat="44.32143" lon="3.98005">
        <ele>504.83</ele>
        <time>2016-04-10T09:53:14Z</time>
      </trkpt>
      <trkpt lat="44.32139" lon="3.98028">
        <ele>505.31</ele>
        <time>2016-04-10T09:53:15Z</time>
      </trkpt>
      <trkpt lat="44.32133" lon="3.9805">
        <ele>505.31</ele>
        <time>2016-04-10T09:53:16Z</time>
      </trkpt>
      <trkpt lat="44.32126" lon="3.98071">
        <ele>505.79</ele>
        <time>2016-04-10T09:53:17Z</time>
      </trkpt>
      <trkpt lat="44.3212" lon="3.9809">
        <ele>506.27</ele>
        <time>2016-04-10T09:53:18Z</time>
      </trkpt>
      <trkpt lat="44.32115" lon="3.98108">
        <ele>506.75</ele>
        <time>2016-04-10T09:53:19Z</time>
      </trkpt>
      <trkpt lat="44.32112" lon="3.98126">
        <ele>507.23</ele>
        <time>2016-04-10T09:53:20Z</time>
      </trkpt>
      <trkpt lat="44.32112" lon="3.98144">
        <ele>507.71</ele>
        <time>2016-04-10T09:53:21Z</time>
      </trkpt>
      <trkpt lat="44.32114" lon="3.98162">
        <ele>508.19</ele>
        <time>2016-04-10T09:53:22Z</time>
      </trkpt>
      <trkpt lat="44.32119" lon="3.98181">
        <ele>508.67</ele>
        <time>2016-04-10T09:53:23Z</time>
      </trkpt>
      <trkpt lat="44.32125" lon="3.98201">
        <ele>509.64</ele>
        <time>2016-04-10T09:53:24Z</time>
      </trkpt>
      <trkpt lat="44.32155" lon="3.98363">
        <ele>515.88</ele>
        <time>2016-04-10T09:53:31Z</time>
      </trkpt>
      <trkpt lat="44.32186" lon="3.98459">
        <ele>519.73</ele>
        <time>2016-04-10T09:53:36Z</time>
      </trkpt>
      <trkpt lat="44.32189" lon="3.98477">
        <ele>520.21</ele>
        <time>2016-04-10T09:53:37Z</time>
      </trkpt>
      <trkpt lat="44.3219" lon="3.98497">
        <ele>520.69</ele>
        <time>2016-04-10T09:53:38Z</time>
      </trkpt>
      <trkpt lat="44.32185" lon="3.98517">
        <ele>520.69</ele>
        <time>2016-04-10T09:53:39Z</time>
      </trkpt>
      <trkpt lat="44.32178" lon="3.98538">
        <ele>521.17</ele>
        <time>2016-04-10T09:53:40Z</time>
      </trkpt>
      <trkpt lat="44.3217" lon="3.98558">
        <ele>521.17</ele>
        <time>2016-04-10T09:53:41Z</time>
      </trkpt>
      <trkpt lat="44.3216" lon="3.98578">
        <ele>521.65</ele>
        <time>2016-04-10T09:53:42Z</time>
      </trkpt>
      <trkpt lat="44.32149" lon="3.98597">
        <ele>521.65</ele>
        <time>2016-04-10T09:53:43Z</time>
      </trkpt>
      <trkpt lat="44.32138" lon="3.98616">
        <ele>522.13</ele>
        <time>2016-04-10T09:53:44Z</time>
      </trkpt>
      <trkpt lat="44.32126" lon="3.98632">
        <ele>522.13</ele>
        <time>2016-04-10T09:53:45Z</time>
      </trkpt>
      <trkpt lat="44.32112" lon="3.98645">
        <ele>522.61</ele>
        <time>2016-04-10T09:53:46Z</time>
      </trkpt>
      <trkpt lat="44.321" lon="3.98656">
        <ele>523.58</ele>
        <time>2016-04-10T09:53:47Z</time>
      </trkpt>
      <trkpt lat="44.32061" lon="3.98675">
        <ele>524.06</ele>
        <time>2016-04-10T09:53:50Z</time>
      </trkpt>
      <trkpt lat="44.32047" lon="3.98678">
        <ele>524.54</ele>
        <time>2016-04-10T09:53:51Z</time>
      </trkpt>
      <trkpt lat="44.31935" lon="3.98735">
        <ele>525.98</ele>
        <time>2016-04-10T09:54:00Z</time>
      </trkpt>
      <trkpt lat="44.31922" lon="3.98742">
        <ele>525.98</ele>
        <time>2016-04-10T09:54:01Z</time>
      </trkpt>
      <trkpt lat="44.31907" lon="3.98746">
        <ele>526.46</ele>
        <time>2016-04-10T09:54:02Z</time>
      </trkpt>
      <trkpt lat="44.31797" lon="3.98799">
        <ele>526.46</ele>
        <time>2016-04-10T09:54:10Z</time>
      </trkpt>
      <trkpt lat="44.31787" lon="3.98811">
        <ele>525.98</ele>
        <time>2016-04-10T09:54:11Z</time>
      </trkpt>
      <trkpt lat="44.31779" lon="3.98825">
        <ele>525.5</ele>
        <time>2016-04-10T09:54:12Z</time>
      </trkpt>
      <trkpt lat="44.31755" lon="3.98868">
        <ele>524.54</ele>
        <time>2016-04-10T09:54:15Z</time>
      </trkpt>
      <trkpt lat="44.31748" lon="3.98883">
        <ele>524.06</ele>
        <time>2016-04-10T09:54:16Z</time>
      </trkpt>
      <trkpt lat="44.31713" lon="3.98962">
        <ele>520.21</ele>
        <time>2016-04-10T09:54:21Z</time>
      </trkpt>
      <trkpt lat="44.31684" lon="3.98998">
        <ele>519.25</ele>
        <time>2016-04-10T09:54:24Z</time>
      </trkpt>
      <trkpt lat="44.31674" lon="3.99005">
        <ele>519.73</ele>
        <time>2016-04-10T09:54:25Z</time>
      </trkpt>
      <trkpt lat="44.31664" lon="3.99011">
        <ele>519.73</ele>
        <time>2016-04-10T09:54:26Z</time>
      </trkpt>
      <trkpt lat="44.316" lon="3.99055">
        <ele>519.25</ele>
        <time>2016-04-10T09:54:35Z</time>
      </trkpt>
      <trkpt lat="44.31593" lon="3.99062">
        <ele>519.25</ele>
        <time>2016-04-10T09:54:36Z</time>
      </trkpt>
      <trkpt lat="44.31586" lon="3.99073">
        <ele>518.77</ele>
        <time>2016-04-10T09:54:37Z</time>
      </trkpt>
      <trkpt lat="44.31518" lon="3.99167">
        <ele>518.29</ele>
        <time>2016-04-10T09:54:44Z</time>
      </trkpt>
      <trkpt lat="44.31407" lon="3.99267">
        <ele>528.38</ele>
        <time>2016-04-10T09:54:54Z</time>
      </trkpt>
      <trkpt lat="44.31397" lon="3.99283">
        <ele>528.86</ele>
        <time>2016-04-10T09:54:55Z</time>
      </trkpt>
      <trkpt lat="44.31388" lon="3.993">
        <ele>529.34</ele>
        <time>2016-04-10T09:54:56Z</time>
      </trkpt>
      <trkpt lat="44.31381" lon="3.99319">
        <ele>529.82</ele>
        <time>2016-04-10T09:54:57Z</time>
      </trkpt>
      <trkpt lat="44.31375" lon="3.9934">
        <ele>530.3</ele>
        <time>2016-04-10T09:54:58Z</time>
      </trkpt>
      <trkpt lat="44.3137" lon="3.99361">
        <ele>531.75</ele>
        <time>2016-04-10T09:54:59Z</time>
      </trkpt>
      <trkpt lat="44.31326" lon="3.99471">
        <ele>537.51</ele>
        <time>2016-04-10T09:55:05Z</time>
      </trkpt>
      <trkpt lat="44.31301" lon="3.99512">
        <ele>539.92</ele>
        <time>2016-04-10T09:55:08Z</time>
      </trkpt>
      <trkpt lat="44.31298" lon="3.99529">
        <ele>540.88</ele>
        <time>2016-04-10T09:55:09Z</time>
      </trkpt>
      <trkpt lat="44.31299" lon="3.99547">
        <ele>541.84</ele>
        <time>2016-04-10T09:55:10Z</time>
      </trkpt>
      <trkpt lat="44.31301" lon="3.99562">
        <ele>542.32</ele>
        <time>2016-04-10T09:55:11Z</time>
      </trkpt>
      <trkpt lat="44.31304" lon="3.99578">
        <ele>542.8</ele>
        <time>2016-04-10T09:55:12Z</time>
      </trkpt>
      <trkpt lat="44.31308" lon="3.99592">
        <ele>543.76</ele>
        <time>2016-04-10T09:55:13Z</time>
      </trkpt>
      <trkpt lat="44.3131" lon="3.99606">
        <ele>543.76</ele>
        <time>2016-04-10T09:55:14Z</time>
      </trkpt>
      <trkpt lat="44.31311" lon="3.99621">
        <ele>544.24</ele>
        <time>2016-04-10T09:55:15Z</time>
      </trkpt>
      <trkpt lat="44.31308" lon="3.99637">
        <ele>544.72</ele>
        <time>2016-04-10T09:55:16Z</time>
      </trkpt>
      <trkpt lat="44.31303" lon="3.99654">
        <ele>545.2</ele>
        <time>2016-04-10T09:55:17Z</time>
      </trkpt>
      <trkpt lat="44.31295" lon="3.99668">
        <ele>545.69</ele>
        <time>2016-04-10T09:55:18Z</time>
      </trkpt>
      <trkpt lat="44.31281" lon="3.9968">
        <ele>546.17</ele>
        <time>2016-04-10T09:55:19Z</time>
      </trkpt>
      <trkpt lat="44.31268" lon="3.99692">
        <ele>546.65</ele>
        <time>2016-04-10T09:55:20Z</time>
      </trkpt>
      <trkpt lat="44.31255" lon="3.99705">
        <ele>547.61</ele>
        <time>2016-04-10T09:55:21Z</time>
      </trkpt>
      <trkpt lat="44.31206" lon="3.99769">
        <ele>549.53</ele>
        <time>2016-04-10T09:55:26Z</time>
      </trkpt>
      <trkpt lat="44.312" lon="3.99782">
        <ele>549.53</ele>
        <time>2016-04-10T09:55:27Z</time>
      </trkpt>
      <trkpt lat="44.31199" lon="3.99796">
        <ele>550.01</ele>
        <time>2016-04-10T09:55:28Z</time>
      </trkpt>
      <trkpt lat="44.31201" lon="3.99809">
        <ele>549.53</ele>
        <time>2016-04-10T09:55:29Z</time>
      </trkpt>
      <trkpt lat="44.31209" lon="3.99819">
        <ele>550.01</ele>
        <time>2016-04-10T09:55:30Z</time>
      </trkpt>
      <trkpt lat="44.31218" lon="3.99828">
        <ele>548.57</ele>
        <time>2016-04-10T09:55:31Z</time>
      </trkpt>
      <trkpt lat="44.3123" lon="3.99834">
        <ele>548.09</ele>
        <time>2016-04-10T09:55:32Z</time>
      </trkpt>
      <trkpt lat="44.31244" lon="3.99841">
        <ele>547.61</ele>
        <time>2016-04-10T09:55:33Z</time>
      </trkpt>
      <trkpt lat="44.31259" lon="3.99848">
        <ele>549.05</ele>
        <time>2016-04-10T09:55:34Z</time>
      </trkpt>
      <trkpt lat="44.31335" lon="3.99886">
        <ele>547.13</ele>
        <time>2016-04-10T09:55:40Z</time>
      </trkpt>
      <trkpt lat="44.31343" lon="3.99893">
        <ele>547.13</ele>
        <time>2016-04-10T09:55:41Z</time>
      </trkpt>
      <trkpt lat="44.31348" lon="3.99901">
        <ele>547.61</ele>
        <time>2016-04-10T09:55:42Z</time>
      </trkpt>
      <trkpt lat="44.31351" lon="3.99912">
        <ele>547.61</ele>
        <time>2016-04-10T09:55:43Z</time>
      </trkpt>
      <trkpt lat="44.3135" lon="3.99924">
        <ele>547.61</ele>
        <time>2016-04-10T09:55:44Z</time>
      </trkpt>
      <trkpt lat="44.31347" lon="3.99936">
        <ele>547.61</ele>
        <time>2016-04-10T09:55:45Z</time>
      </trkpt>
      <trkpt lat="44.3134" lon="3.99946">
        <ele>547.13</ele>
        <time>2016-04-10T09:55:46Z</time>
      </trkpt>
      <trkpt lat="44.31324" lon="3.99947">
        <ele>547.13</ele>
        <time>2016-04-10T09:55:47Z</time>
      </trkpt>
      <trkpt lat="44.31314" lon="3.99957">
        <ele>547.13</ele>
        <time>2016-04-10T09:55:48Z</time>
      </trkpt>
      <trkpt lat="44.31249" lon="4.00041">
        <ele>542.8</ele>
        <time>2016-04-10T09:55:55Z</time>
      </trkpt>
      <trkpt lat="44.31165" lon="4.00195">
        <ele>535.59</ele>
        <time>2016-04-10T09:56:07Z</time>
      </trkpt>
      <trkpt lat="44.31157" lon="4.00212">
        <ele>534.15</ele>
        <time>2016-04-10T09:56:09Z</time>
      </trkpt>
      <trkpt lat="44.31154" lon="4.00221">
        <ele>533.19</ele>
        <time>2016-04-10T09:56:10Z</time>
      </trkpt>
      <trkpt lat="44.31154" lon="4.0023">
        <ele>532.23</ele>
        <time>2016-04-10T09:56:11Z</time>
      </trkpt>
      <trkpt lat="44.31157" lon="4.00238">
        <ele>532.71</ele>
        <time>2016-04-10T09:56:12Z</time>
      </trkpt>
      <trkpt lat="44.3116" lon="4.00246">
        <ele>533.19</ele>
        <time>2016-04-10T09:56:13Z</time>
      </trkpt>
      <trkpt lat="44.31164" lon="4.00256">
        <ele>534.15</ele>
        <time>2016-04-10T09:56:14Z</time>
      </trkpt>
      <trkpt lat="44.31217" lon="4.00355">
        <ele>532.23</ele>
        <time>2016-04-10T09:56:23Z</time>
      </trkpt>
      <trkpt lat="44.31222" lon="4.0037">
        <ele>531.75</ele>
        <time>2016-04-10T09:56:24Z</time>
      </trkpt>
      <trkpt lat="44.31226" lon="4.00388">
        <ele>530.79</ele>
        <time>2016-04-10T09:56:25Z</time>
      </trkpt>
      <trkpt lat="44.31227" lon="4.00406">
        <ele>530.3</ele>
        <time>2016-04-10T09:56:26Z</time>
      </trkpt>
      <trkpt lat="44.31228" lon="4.00424">
        <ele>529.34</ele>
        <time>2016-04-10T09:56:27Z</time>
      </trkpt>
      <trkpt lat="44.31237" lon="4.00512">
        <ele>526.46</ele>
        <time>2016-04-10T09:56:32Z</time>
      </trkpt>
      <trkpt lat="44.31238" lon="4.00531">
        <ele>525.5</ele>
        <time>2016-04-10T09:56:33Z</time>
      </trkpt>
      <trkpt lat="44.31237" lon="4.00549">
        <ele>524.54</ele>
        <time>2016-04-10T09:56:34Z</time>
      </trkpt>
      <trkpt lat="44.31235" lon="4.00567">
        <ele>523.58</ele>
        <time>2016-04-10T09:56:35Z</time>
      </trkpt>
      <trkpt lat="44.31231" lon="4.00582">
        <ele>522.61</ele>
        <time>2016-04-10T09:56:36Z</time>
      </trkpt>
      <trkpt lat="44.31226" lon="4.00595">
        <ele>521.65</ele>
        <time>2016-04-10T09:56:37Z</time>
      </trkpt>
      <trkpt lat="44.31217" lon="4.00606">
        <ele>520.69</ele>
        <time>2016-04-10T09:56:38Z</time>
      </trkpt>
      <trkpt lat="44.31205" lon="4.00614">
        <ele>520.69</ele>
        <time>2016-04-10T09:56:39Z</time>
      </trkpt>
      <trkpt lat="44.31192" lon="4.00622">
        <ele>520.21</ele>
        <time>2016-04-10T09:56:40Z</time>
      </trkpt>
      <trkpt lat="44.31177" lon="4.00631">
        <ele>520.21</ele>
        <time>2016-04-10T09:56:41Z</time>
      </trkpt>
      <trkpt lat="44.3105" lon="4.00712">
        <ele>516.85</ele>
        <time>2016-04-10T09:56:51Z</time>
      </trkpt>
      <trkpt lat="44.31046" lon="4.0072">
        <ele>515.88</ele>
        <time>2016-04-10T09:56:52Z</time>
      </trkpt>
      <trkpt lat="44.31045" lon="4.00731">
        <ele>515.4</ele>
        <time>2016-04-10T09:56:53Z</time>
      </trkpt>
      <trkpt lat="44.31061" lon="4.00737">
        <ele>513.96</ele>
        <time>2016-04-10T09:56:55Z</time>
      </trkpt>
      <trkpt lat="44.31077" lon="4.00738">
        <ele>513.48</ele>
        <time>2016-04-10T09:56:56Z</time>
      </trkpt>
      <trkpt lat="44.31092" lon="4.00738">
        <ele>513.48</ele>
        <time>2016-04-10T09:56:57Z</time>
      </trkpt>
      <trkpt lat="44.31204" lon="4.00749">
        <ele>508.19</ele>
        <time>2016-04-10T09:57:04Z</time>
      </trkpt>
      <trkpt lat="44.31262" lon="4.0077">
        <ele>505.79</ele>
        <time>2016-04-10T09:57:08Z</time>
      </trkpt>
      <trkpt lat="44.31276" lon="4.0078">
        <ele>504.83</ele>
        <time>2016-04-10T09:57:09Z</time>
      </trkpt>
      <trkpt lat="44.31289" lon="4.00795">
        <ele>505.31</ele>
        <time>2016-04-10T09:57:10Z</time>
      </trkpt>
      <trkpt lat="44.31301" lon="4.00814">
        <ele>505.31</ele>
        <time>2016-04-10T09:57:11Z</time>
      </trkpt>
      <trkpt lat="44.31313" lon="4.00833">
        <ele>504.83</ele>
        <time>2016-04-10T09:57:12Z</time>
      </trkpt>
      <trkpt lat="44.31341" lon="4.00888">
        <ele>503.39</ele>
        <time>2016-04-10T09:57:15Z</time>
      </trkpt>
      <trkpt lat="44.31347" lon="4.0091">
        <ele>502.91</ele>
        <time>2016-04-10T09:57:16Z</time>
      </trkpt>
      <trkpt lat="44.31352" lon="4.00933">
        <ele>502.43</ele>
        <time>2016-04-10T09:57:17Z</time>
      </trkpt>
      <trkpt lat="44.31372" lon="4.01117">
        <ele>496.66</ele>
        <time>2016-04-10T09:57:25Z</time>
      </trkpt>
      <trkpt lat="44.31374" lon="4.01139">
        <ele>496.18</ele>
        <time>2016-04-10T09:57:26Z</time>
      </trkpt>
      <trkpt lat="44.31373" lon="4.01161">
        <ele>496.18</ele>
        <time>2016-04-10T09:57:27Z</time>
      </trkpt>
      <trkpt lat="44.31371" lon="4.01184">
        <ele>495.7</ele>
        <time>2016-04-10T09:57:28Z</time>
      </trkpt>
      <trkpt lat="44.31358" lon="4.01407">
        <ele>491.37</ele>
        <time>2016-04-10T09:57:37Z</time>
      </trkpt>
      <trkpt lat="44.31356" lon="4.017">
        <ele>493.29</ele>
        <time>2016-04-10T09:57:49Z</time>
      </trkpt>
      <trkpt lat="44.31339" lon="4.01824">
        <ele>495.22</ele>
        <time>2016-04-10T09:57:55Z</time>
      </trkpt>
      <trkpt lat="44.31333" lon="4.01841">
        <ele>494.74</ele>
        <time>2016-04-10T09:57:56Z</time>
      </trkpt>
      <trkpt lat="44.31325" lon="4.01857">
        <ele>494.74</ele>
        <time>2016-04-10T09:57:57Z</time>
      </trkpt>
      <trkpt lat="44.31314" lon="4.01872">
        <ele>494.74</ele>
        <time>2016-04-10T09:57:58Z</time>
      </trkpt>
      <trkpt lat="44.313" lon="4.01884">
        <ele>495.22</ele>
        <time>2016-04-10T09:57:59Z</time>
      </trkpt>
      <trkpt lat="44.31284" lon="4.01895">
        <ele>495.7</ele>
        <time>2016-04-10T09:58:00Z</time>
      </trkpt>
      <trkpt lat="44.31266" lon="4.01905">
        <ele>495.22</ele>
        <time>2016-04-10T09:58:01Z</time>
      </trkpt>
      <trkpt lat="44.31175" lon="4.01974">
        <ele>497.14</ele>
        <time>2016-04-10T09:58:07Z</time>
      </trkpt>
      <trkpt lat="44.31162" lon="4.01987">
        <ele>497.14</ele>
        <time>2016-04-10T09:58:08Z</time>
      </trkpt>
      <trkpt lat="44.31048" lon="4.02151">
        <ele>490.89</ele>
        <time>2016-04-10T09:58:18Z</time>
      </trkpt>
      <trkpt lat="44.30955" lon="4.02301">
        <ele>486.08</ele>
        <time>2016-04-10T09:58:28Z</time>
      </trkpt>
      <trkpt lat="44.30938" lon="4.0233">
        <ele>484.64</ele>
        <time>2016-04-10T09:58:30Z</time>
      </trkpt>
      <trkpt lat="44.30931" lon="4.02348">
        <ele>484.64</ele>
        <time>2016-04-10T09:58:31Z</time>
      </trkpt>
      <trkpt lat="44.30888" lon="4.02481">
        <ele>485.12</ele>
        <time>2016-04-10T09:58:39Z</time>
      </trkpt>
      <trkpt lat="44.3088" lon="4.02494">
        <ele>485.6</ele>
        <time>2016-04-10T09:58:40Z</time>
      </trkpt>
      <trkpt lat="44.30869" lon="4.02506">
        <ele>486.08</ele>
        <time>2016-04-10T09:58:41Z</time>
      </trkpt>
      <trkpt lat="44.30834" lon="4.02553">
        <ele>486.08</ele>
        <time>2016-04-10T09:58:45Z</time>
      </trkpt>
      <trkpt lat="44.30829" lon="4.02566">
        <ele>485.6</ele>
        <time>2016-04-10T09:58:46Z</time>
      </trkpt>
      <trkpt lat="44.30826" lon="4.0258">
        <ele>484.64</ele>
        <time>2016-04-10T09:58:47Z</time>
      </trkpt>
      <trkpt lat="44.30807" lon="4.02658">
        <ele>481.76</ele>
        <time>2016-04-10T09:58:53Z</time>
      </trkpt>
      <trkpt lat="44.30802" lon="4.02669">
        <ele>481.28</ele>
        <time>2016-04-10T09:58:54Z</time>
      </trkpt>
      <trkpt lat="44.30779" lon="4.02713">
        <ele>479.84</ele>
        <time>2016-04-10T09:58:59Z</time>
      </trkpt>
      <trkpt lat="44.30773" lon="4.02719">
        <ele>479.84</ele>
        <time>2016-04-10T09:59:00Z</time>
      </trkpt>
      <trkpt lat="44.30766" lon="4.02723">
        <ele>479.84</ele>
        <time>2016-04-10T09:59:01Z</time>
      </trkpt>
      <trkpt lat="44.30714" lon="4.02764">
        <ele>474.55</ele>
        <time>2016-04-10T09:59:08Z</time>
      </trkpt>
      <trkpt lat="44.30711" lon="4.02771">
        <ele>474.07</ele>
        <time>2016-04-10T09:59:09Z</time>
      </trkpt>
      <trkpt lat="44.30709" lon="4.02779">
        <ele>474.07</ele>
        <time>2016-04-10T09:59:10Z</time>
      </trkpt>
      <trkpt lat="44.3071" lon="4.02787">
        <ele>473.59</ele>
        <time>2016-04-10T09:59:11Z</time>
      </trkpt>
      <trkpt lat="44.30712" lon="4.02795">
        <ele>473.11</ele>
        <time>2016-04-10T09:59:12Z</time>
      </trkpt>
      <trkpt lat="44.30716" lon="4.02803">
        <ele>472.14</ele>
        <time>2016-04-10T09:59:13Z</time>
      </trkpt>
      <trkpt lat="44.30722" lon="4.02812">
        <ele>471.66</ele>
        <time>2016-04-10T09:59:14Z</time>
      </trkpt>
      <trkpt lat="44.30729" lon="4.0282">
        <ele>471.18</ele>
        <time>2016-04-10T09:59:15Z</time>
      </trkpt>
      <trkpt lat="44.30737" lon="4.02828">
        <ele>470.22</ele>
        <time>2016-04-10T09:59:16Z</time>
      </trkpt>
      <trkpt lat="44.30745" lon="4.02837">
        <ele>469.74</ele>
        <time>2016-04-10T09:59:17Z</time>
      </trkpt>
      <trkpt lat="44.30814" lon="4.02908">
        <ele>464.45</ele>
        <time>2016-04-10T09:59:24Z</time>
      </trkpt>
      <trkpt lat="44.30826" lon="4.02916">
        <ele>463.49</ele>
        <time>2016-04-10T09:59:25Z</time>
      </trkpt>
      <trkpt lat="44.30839" lon="4.02922">
        <ele>462.53</ele>
        <time>2016-04-10T09:59:26Z</time>
      </trkpt>
      <trkpt lat="44.30852" lon="4.02926">
        <ele>461.57</ele>
        <time>2016-04-10T09:59:27Z</time>
      </trkpt>
      <trkpt lat="44.30866" lon="4.02928">
        <ele>461.09</ele>
        <time>2016-04-10T09:59:28Z</time>
      </trkpt>
      <trkpt lat="44.30879" lon="4.0293">
        <ele>460.13</ele>
        <time>2016-04-10T09:59:29Z</time>
      </trkpt>
      <trkpt lat="44.3089" lon="4.02935">
        <ele>459.65</ele>
        <time>2016-04-10T09:59:30Z</time>
      </trkpt>
      <trkpt lat="44.30901" lon="4.02944">
        <ele>459.17</ele>
        <time>2016-04-10T09:59:31Z</time>
      </trkpt>
      <trkpt lat="44.30911" lon="4.02957">
        <ele>458.21</ele>
        <time>2016-04-10T09:59:32Z</time>
      </trkpt>
      <trkpt lat="44.30919" lon="4.02972">
        <ele>457.24</ele>
        <time>2016-04-10T09:59:33Z</time>
      </trkpt>
      <trkpt lat="44.30929" lon="4.02986">
        <ele>456.76</ele>
        <time>2016-04-10T09:59:34Z</time>
      </trkpt>
      <trkpt lat="44.30938" lon="4.02997">
        <ele>455.8</ele>
        <time>2016-04-10T09:59:35Z</time>
      </trkpt>
      <trkpt lat="44.30948" lon="4.03009">
        <ele>454.36</ele>
        <time>2016-04-10T09:59:36Z</time>
      </trkpt>
      <trkpt lat="44.30956" lon="4.03022">
        <ele>453.4</ele>
        <time>2016-04-10T09:59:37Z</time>
      </trkpt>
      <trkpt lat="44.30961" lon="4.03036">
        <ele>452.92</ele>
        <time>2016-04-10T09:59:38Z</time>
      </trkpt>
      <trkpt lat="44.30965" lon="4.03052">
        <ele>451.96</ele>
        <time>2016-04-10T09:59:39Z</time>
      </trkpt>
      <trkpt lat="44.30968" lon="4.03066">
        <ele>451</ele>
        <time>2016-04-10T09:59:40Z</time>
      </trkpt>
      <trkpt lat="44.30974" lon="4.03079">
        <ele>450.52</ele>
        <time>2016-04-10T09:59:41Z</time>
      </trkpt>
      <trkpt lat="44.30982" lon="4.03089">
        <ele>449.55</ele>
        <time>2016-04-10T09:59:42Z</time>
      </trkpt>
      <trkpt lat="44.30993" lon="4.03097">
        <ele>448.59</ele>
        <time>2016-04-10T09:59:43Z</time>
      </trkpt>
      <trkpt lat="44.31003" lon="4.03105">
        <ele>447.63</ele>
        <time>2016-04-10T09:59:44Z</time>
      </trkpt>
      <trkpt lat="44.31014" lon="4.03116">
        <ele>446.67</ele>
        <time>2016-04-10T09:59:45Z</time>
      </trkpt>
      <trkpt lat="44.31023" lon="4.03128">
        <ele>445.71</ele>
        <time>2016-04-10T09:59:46Z</time>
      </trkpt>
      <trkpt lat="44.31032" lon="4.03143">
        <ele>444.27</ele>
        <time>2016-04-10T09:59:47Z</time>
      </trkpt>
      <trkpt lat="44.31038" lon="4.0316">
        <ele>443.31</ele>
        <time>2016-04-10T09:59:48Z</time>
      </trkpt>
      <trkpt lat="44.31042" lon="4.03179">
        <ele>442.34</ele>
        <time>2016-04-10T09:59:49Z</time>
      </trkpt>
      <trkpt lat="44.31042" lon="4.03199">
        <ele>441.38</ele>
        <time>2016-04-10T09:59:50Z</time>
      </trkpt>
      <trkpt lat="44.3104" lon="4.0322">
        <ele>440.9</ele>
        <time>2016-04-10T09:59:51Z</time>
      </trkpt>
      <trkpt lat="44.31037" lon="4.03242">
        <ele>439.94</ele>
        <time>2016-04-10T09:59:52Z</time>
      </trkpt>
      <trkpt lat="44.31033" lon="4.03264">
        <ele>439.46</ele>
        <time>2016-04-10T09:59:53Z</time>
      </trkpt>
      <trkpt lat="44.31029" lon="4.03284">
        <ele>438.5</ele>
        <time>2016-04-10T09:59:54Z</time>
      </trkpt>
      <trkpt lat="44.31022" lon="4.03322">
        <ele>436.58</ele>
        <time>2016-04-10T09:59:56Z</time>
      </trkpt>
      <trkpt lat="44.31022" lon="4.03341">
        <ele>435.61</ele>
        <time>2016-04-10T09:59:57Z</time>
      </trkpt>
      <trkpt lat="44.31023" lon="4.0336">
        <ele>434.17</ele>
        <time>2016-04-10T09:59:58Z</time>
      </trkpt>
      <trkpt lat="44.3103" lon="4.03418">
        <ele>430.81</ele>
        <time>2016-04-10T10:00:01Z</time>
      </trkpt>
      <trkpt lat="44.31028" lon="4.03438">
        <ele>429.85</ele>
        <time>2016-04-10T10:00:02Z</time>
      </trkpt>
      <trkpt lat="44.31024" lon="4.03458">
        <ele>428.4</ele>
        <time>2016-04-10T10:00:03Z</time>
      </trkpt>
      <trkpt lat="44.31017" lon="4.03478">
        <ele>427.44</ele>
        <time>2016-04-10T10:00:04Z</time>
      </trkpt>
      <trkpt lat="44.3101" lon="4.03497">
        <ele>426.48</ele>
        <time>2016-04-10T10:00:05Z</time>
      </trkpt>
      <trkpt lat="44.31001" lon="4.03516">
        <ele>425.52</ele>
        <time>2016-04-10T10:00:06Z</time>
      </trkpt>
      <trkpt lat="44.30946" lon="4.03613">
        <ele>419.75</ele>
        <time>2016-04-10T10:00:12Z</time>
      </trkpt>
      <trkpt lat="44.30941" lon="4.03632">
        <ele>419.27</ele>
        <time>2016-04-10T10:00:13Z</time>
      </trkpt>
      <trkpt lat="44.30937" lon="4.03653">
        <ele>418.31</ele>
        <time>2016-04-10T10:00:14Z</time>
      </trkpt>
      <trkpt lat="44.30922" lon="4.03717">
        <ele>413.98</ele>
        <time>2016-04-10T10:00:17Z</time>
      </trkpt>
      <trkpt lat="44.30914" lon="4.03736">
        <ele>413.02</ele>
        <time>2016-04-10T10:00:18Z</time>
      </trkpt>
      <trkpt lat="44.30905" lon="4.03753">
        <ele>412.54</ele>
        <time>2016-04-10T10:00:19Z</time>
      </trkpt>
      <trkpt lat="44.30882" lon="4.03802">
        <ele>409.18</ele>
        <time>2016-04-10T10:00:22Z</time>
      </trkpt>
      <trkpt lat="44.30878" lon="4.03819">
        <ele>408.7</ele>
        <time>2016-04-10T10:00:23Z</time>
      </trkpt>
      <trkpt lat="44.30876" lon="4.03838">
        <ele>407.74</ele>
        <time>2016-04-10T10:00:24Z</time>
      </trkpt>
      <trkpt lat="44.30875" lon="4.03856">
        <ele>406.77</ele>
        <time>2016-04-10T10:00:25Z</time>
      </trkpt>
      <trkpt lat="44.30876" lon="4.03875">
        <ele>405.33</ele>
        <time>2016-04-10T10:00:26Z</time>
      </trkpt>
      <trkpt lat="44.30878" lon="4.03893">
        <ele>403.89</ele>
        <time>2016-04-10T10:00:27Z</time>
      </trkpt>
      <trkpt lat="44.30882" lon="4.0391">
        <ele>402.93</ele>
        <time>2016-04-10T10:00:28Z</time>
      </trkpt>
      <trkpt lat="44.30888" lon="4.03926">
        <ele>401.49</ele>
        <time>2016-04-10T10:00:29Z</time>
      </trkpt>
      <trkpt lat="44.30893" lon="4.03942">
        <ele>400.53</ele>
        <time>2016-04-10T10:00:30Z</time>
      </trkpt>
      <trkpt lat="44.30932" lon="4.04045">
        <ele>393.8</ele>
        <time>2016-04-10T10:00:37Z</time>
      </trkpt>
      <trkpt lat="44.30935" lon="4.04062">
        <ele>392.84</ele>
        <time>2016-04-10T10:00:38Z</time>
      </trkpt>
      <trkpt lat="44.30936" lon="4.04079">
        <ele>391.39</ele>
        <time>2016-04-10T10:00:39Z</time>
      </trkpt>
      <trkpt lat="44.30934" lon="4.04097">
        <ele>390.43</ele>
        <time>2016-04-10T10:00:40Z</time>
      </trkpt>
      <trkpt lat="44.3093" lon="4.04115">
        <ele>388.99</ele>
        <time>2016-04-10T10:00:41Z</time>
      </trkpt>
      <trkpt lat="44.30927" lon="4.04132">
        <ele>388.03</ele>
        <time>2016-04-10T10:00:42Z</time>
      </trkpt>
      <trkpt lat="44.30925" lon="4.04149">
        <ele>386.59</ele>
        <time>2016-04-10T10:00:43Z</time>
      </trkpt>
      <trkpt lat="44.30925" lon="4.04166">
        <ele>385.63</ele>
        <time>2016-04-10T10:00:44Z</time>
      </trkpt>
      <trkpt lat="44.30927" lon="4.04184">
        <ele>384.18</ele>
        <time>2016-04-10T10:00:45Z</time>
      </trkpt>
      <trkpt lat="44.30931" lon="4.04202">
        <ele>383.7</ele>
        <time>2016-04-10T10:00:46Z</time>
      </trkpt>
      <trkpt lat="44.30936" lon="4.0422">
        <ele>382.74</ele>
        <time>2016-04-10T10:00:47Z</time>
      </trkpt>
      <trkpt lat="44.30944" lon="4.04257">
        <ele>380.34</ele>
        <time>2016-04-10T10:00:49Z</time>
      </trkpt>
      <trkpt lat="44.30945" lon="4.04277">
        <ele>379.38</ele>
        <time>2016-04-10T10:00:50Z</time>
      </trkpt>
      <trkpt lat="44.30945" lon="4.04296">
        <ele>378.42</ele>
        <time>2016-04-10T10:00:51Z</time>
      </trkpt>
      <trkpt lat="44.30945" lon="4.04317">
        <ele>377.94</ele>
        <time>2016-04-10T10:00:52Z</time>
      </trkpt>
      <trkpt lat="44.30948" lon="4.04337">
        <ele>376.97</ele>
        <time>2016-04-10T10:00:53Z</time>
      </trkpt>
      <trkpt lat="44.30951" lon="4.04358">
        <ele>376.01</ele>
        <time>2016-04-10T10:00:54Z</time>
      </trkpt>
      <trkpt lat="44.30973" lon="4.04551">
        <ele>364.96</ele>
        <time>2016-04-10T10:01:03Z</time>
      </trkpt>
      <trkpt lat="44.30973" lon="4.04573">
        <ele>364</ele>
        <time>2016-04-10T10:01:04Z</time>
      </trkpt>
      <trkpt lat="44.30971" lon="4.04594">
        <ele>362.07</ele>
        <time>2016-04-10T10:01:05Z</time>
      </trkpt>
      <trkpt lat="44.30968" lon="4.04615">
        <ele>360.15</ele>
        <time>2016-04-10T10:01:06Z</time>
      </trkpt>
      <trkpt lat="44.30964" lon="4.04634">
        <ele>358.71</ele>
        <time>2016-04-10T10:01:07Z</time>
      </trkpt>
      <trkpt lat="44.30957" lon="4.04652">
        <ele>356.79</ele>
        <time>2016-04-10T10:01:08Z</time>
      </trkpt>
      <trkpt lat="44.30949" lon="4.04669">
        <ele>355.83</ele>
        <time>2016-04-10T10:01:09Z</time>
      </trkpt>
      <trkpt lat="44.30942" lon="4.04688">
        <ele>353.9</ele>
        <time>2016-04-10T10:01:10Z</time>
      </trkpt>
      <trkpt lat="44.30936" lon="4.04707">
        <ele>351.98</ele>
        <time>2016-04-10T10:01:11Z</time>
      </trkpt>
      <trkpt lat="44.30931" lon="4.04728">
        <ele>350.54</ele>
        <time>2016-04-10T10:01:12Z</time>
      </trkpt>
      <trkpt lat="44.30926" lon="4.04749">
        <ele>348.62</ele>
        <time>2016-04-10T10:01:13Z</time>
      </trkpt>
      <trkpt lat="44.3092" lon="4.0477">
        <ele>347.65</ele>
        <time>2016-04-10T10:01:14Z</time>
      </trkpt>
      <trkpt lat="44.30913" lon="4.04789">
        <ele>345.73</ele>
        <time>2016-04-10T10:01:15Z</time>
      </trkpt>
      <trkpt lat="44.30906" lon="4.04808">
        <ele>344.29</ele>
        <time>2016-04-10T10:01:16Z</time>
      </trkpt>
      <trkpt lat="44.30881" lon="4.0486">
        <ele>339</ele>
        <time>2016-04-10T10:01:19Z</time>
      </trkpt>
      <trkpt lat="44.3087" lon="4.04874">
        <ele>337.56</ele>
        <time>2016-04-10T10:01:20Z</time>
      </trkpt>
      <trkpt lat="44.30859" lon="4.04886">
        <ele>336.6</ele>
        <time>2016-04-10T10:01:21Z</time>
      </trkpt>
      <trkpt lat="44.30847" lon="4.04896">
        <ele>335.64</ele>
        <time>2016-04-10T10:01:22Z</time>
      </trkpt>
      <trkpt lat="44.30834" lon="4.04903">
        <ele>334.68</ele>
        <time>2016-04-10T10:01:23Z</time>
      </trkpt>
      <trkpt lat="44.30821" lon="4.04909">
        <ele>333.71</ele>
        <time>2016-04-10T10:01:24Z</time>
      </trkpt>
      <trkpt lat="44.30809" lon="4.04915">
        <ele>332.75</ele>
        <time>2016-04-10T10:01:25Z</time>
      </trkpt>
      <trkpt lat="44.30779" lon="4.04931">
        <ele>329.87</ele>
        <time>2016-04-10T10:01:28Z</time>
      </trkpt>
      <trkpt lat="44.30772" lon="4.04938">
        <ele>327.95</ele>
        <time>2016-04-10T10:01:29Z</time>
      </trkpt>
      <trkpt lat="44.30768" lon="4.04947">
        <ele>326.02</ele>
        <time>2016-04-10T10:01:30Z</time>
      </trkpt>
      <trkpt lat="44.30768" lon="4.0496">
        <ele>324.58</ele>
        <time>2016-04-10T10:01:31Z</time>
      </trkpt>
      <trkpt lat="44.3077" lon="4.04973">
        <ele>321.22</ele>
        <time>2016-04-10T10:01:32Z</time>
      </trkpt>
      <trkpt lat="44.30778" lon="4.04984">
        <ele>320.26</ele>
        <time>2016-04-10T10:01:33Z</time>
      </trkpt>
      <trkpt lat="44.30789" lon="4.04988">
        <ele>319.78</ele>
        <time>2016-04-10T10:01:34Z</time>
      </trkpt>
      <trkpt lat="44.30807" lon="4.04987">
        <ele>319.3</ele>
        <time>2016-04-10T10:01:35Z</time>
      </trkpt>
      <trkpt lat="44.30822" lon="4.04988">
        <ele>318.81</ele>
        <time>2016-04-10T10:01:36Z</time>
      </trkpt>
      <trkpt lat="44.30953" lon="4.04999">
        <ele>315.93</ele>
        <time>2016-04-10T10:01:45Z</time>
      </trkpt>
      <trkpt lat="44.31007" lon="4.04991">
        <ele>314.01</ele>
        <time>2016-04-10T10:01:52Z</time>
      </trkpt>
      <trkpt lat="44.31019" lon="4.04995">
        <ele>313.53</ele>
        <time>2016-04-10T10:01:57Z</time>
      </trkpt>
      <trkpt lat="44.31025" lon="4.04995">
        <ele>313.53</ele>
        <time>2016-04-10T10:01:58Z</time>
      </trkpt>
      <trkpt lat="44.31033" lon="4.04996">
        <ele>313.53</ele>
        <time>2016-04-10T10:01:59Z</time>
      </trkpt>
      <trkpt lat="44.31043" lon="4.05001">
        <ele>313.53</ele>
        <time>2016-04-10T10:02:00Z</time>
      </trkpt>
      <trkpt lat="44.31052" lon="4.05014">
        <ele>314.01</ele>
        <time>2016-04-10T10:02:01Z</time>
      </trkpt>
      <trkpt lat="44.31061" lon="4.05027">
        <ele>314.49</ele>
        <time>2016-04-10T10:02:02Z</time>
      </trkpt>
      <trkpt lat="44.3107" lon="4.05043">
        <ele>317.37</ele>
        <time>2016-04-10T10:02:03Z</time>
      </trkpt>
      <trkpt lat="44.31079" lon="4.05057">
        <ele>317.85</ele>
        <time>2016-04-10T10:02:04Z</time>
      </trkpt>
      <trkpt lat="44.31087" lon="4.05073">
        <ele>319.78</ele>
        <time>2016-04-10T10:02:05Z</time>
      </trkpt>
      <trkpt lat="44.31125" lon="4.05108">
        <ele>324.58</ele>
        <time>2016-04-10T10:02:09Z</time>
      </trkpt>
      <trkpt lat="44.31138" lon="4.05105">
        <ele>326.02</ele>
        <time>2016-04-10T10:02:10Z</time>
      </trkpt>
      <trkpt lat="44.31153" lon="4.05095">
        <ele>328.43</ele>
        <time>2016-04-10T10:02:11Z</time>
      </trkpt>
      <trkpt lat="44.31164" lon="4.05078">
        <ele>328.43</ele>
        <time>2016-04-10T10:02:12Z</time>
      </trkpt>
      <trkpt lat="44.31172" lon="4.05061">
        <ele>329.87</ele>
        <time>2016-04-10T10:02:13Z</time>
      </trkpt>
      <trkpt lat="44.31179" lon="4.05043">
        <ele>331.79</ele>
        <time>2016-04-10T10:02:14Z</time>
      </trkpt>
      <trkpt lat="44.31187" lon="4.05024">
        <ele>333.71</ele>
        <time>2016-04-10T10:02:15Z</time>
      </trkpt>
      <trkpt lat="44.31196" lon="4.05007">
        <ele>334.68</ele>
        <time>2016-04-10T10:02:16Z</time>
      </trkpt>
      <trkpt lat="44.31207" lon="4.04992">
        <ele>335.64</ele>
        <time>2016-04-10T10:02:17Z</time>
      </trkpt>
      <trkpt lat="44.31281" lon="4.04925">
        <ele>339.48</ele>
        <time>2016-04-10T10:02:22Z</time>
      </trkpt>
      <trkpt lat="44.31297" lon="4.04916">
        <ele>340.44</ele>
        <time>2016-04-10T10:02:23Z</time>
      </trkpt>
      <trkpt lat="44.31312" lon="4.0491">
        <ele>340.44</ele>
        <time>2016-04-10T10:02:24Z</time>
      </trkpt>
      <trkpt lat="44.31366" lon="4.0489">
        <ele>342.85</ele>
        <time>2016-04-10T10:02:28Z</time>
      </trkpt>
      <trkpt lat="44.31379" lon="4.0488">
        <ele>343.33</ele>
        <time>2016-04-10T10:02:29Z</time>
      </trkpt>
      <trkpt lat="44.31389" lon="4.04865">
        <ele>343.81</ele>
        <time>2016-04-10T10:02:30Z</time>
      </trkpt>
      <trkpt lat="44.31398" lon="4.04847">
        <ele>345.25</ele>
        <time>2016-04-10T10:02:31Z</time>
      </trkpt>
      <trkpt lat="44.31408" lon="4.04828">
        <ele>346.21</ele>
        <time>2016-04-10T10:02:32Z</time>
      </trkpt>
      <trkpt lat="44.31416" lon="4.04806">
        <ele>347.17</ele>
        <time>2016-04-10T10:02:33Z</time>
      </trkpt>
      <trkpt lat="44.31423" lon="4.04784">
        <ele>348.13</ele>
        <time>2016-04-10T10:02:34Z</time>
      </trkpt>
      <trkpt lat="44.31429" lon="4.04761">
        <ele>348.13</ele>
        <time>2016-04-10T10:02:35Z</time>
      </trkpt>
      <trkpt lat="44.31434" lon="4.04737">
        <ele>349.1</ele>
        <time>2016-04-10T10:02:36Z</time>
      </trkpt>
      <trkpt lat="44.31437" lon="4.04714">
        <ele>350.06</ele>
        <time>2016-04-10T10:02:37Z</time>
      </trkpt>
      <trkpt lat="44.3144" lon="4.04691">
        <ele>350.54</ele>
        <time>2016-04-10T10:02:38Z</time>
      </trkpt>
      <trkpt lat="44.31459" lon="4.04609">
        <ele>353.42</ele>
        <time>2016-04-10T10:02:42Z</time>
      </trkpt>
      <trkpt lat="44.31471" lon="4.04597">
        <ele>354.38</ele>
        <time>2016-04-10T10:02:43Z</time>
      </trkpt>
      <trkpt lat="44.31483" lon="4.04584">
        <ele>353.9</ele>
        <time>2016-04-10T10:02:44Z</time>
      </trkpt>
      <trkpt lat="44.31503" lon="4.04555">
        <ele>354.38</ele>
        <time>2016-04-10T10:02:46Z</time>
      </trkpt>
      <trkpt lat="44.31512" lon="4.04537">
        <ele>354.38</ele>
        <time>2016-04-10T10:02:47Z</time>
      </trkpt>
      <trkpt lat="44.31517" lon="4.04517">
        <ele>353.9</ele>
        <time>2016-04-10T10:02:48Z</time>
      </trkpt>
      <trkpt lat="44.31522" lon="4.04495">
        <ele>353.9</ele>
        <time>2016-04-10T10:02:49Z</time>
      </trkpt>
      <trkpt lat="44.31526" lon="4.04472">
        <ele>353.9</ele>
        <time>2016-04-10T10:02:50Z</time>
      </trkpt>
      <trkpt lat="44.3153" lon="4.04447">
        <ele>352.94</ele>
        <time>2016-04-10T10:02:51Z</time>
      </trkpt>
      <trkpt lat="44.31551" lon="4.0433">
        <ele>345.73</ele>
        <time>2016-04-10T10:02:56Z</time>
      </trkpt>
      <trkpt lat="44.31561" lon="4.04312">
        <ele>343.33</ele>
        <time>2016-04-10T10:02:57Z</time>
      </trkpt>
      <trkpt lat="44.31574" lon="4.04298">
        <ele>340.92</ele>
        <time>2016-04-10T10:02:58Z</time>
      </trkpt>
      <trkpt lat="44.31589" lon="4.04283">
        <ele>338.52</ele>
        <time>2016-04-10T10:02:59Z</time>
      </trkpt>
      <trkpt lat="44.31603" lon="4.0427">
        <ele>336.12</ele>
        <time>2016-04-10T10:03:00Z</time>
      </trkpt>
      <trkpt lat="44.31659" lon="4.04219">
        <ele>329.87</ele>
        <time>2016-04-10T10:03:04Z</time>
      </trkpt>
      <trkpt lat="44.31671" lon="4.04204">
        <ele>327.95</ele>
        <time>2016-04-10T10:03:05Z</time>
      </trkpt>
      <trkpt lat="44.31684" lon="4.04185">
        <ele>326.02</ele>
        <time>2016-04-10T10:03:06Z</time>
      </trkpt>
      <trkpt lat="44.31693" lon="4.04164">
        <ele>323.62</ele>
        <time>2016-04-10T10:03:07Z</time>
      </trkpt>
      <trkpt lat="44.31704" lon="4.04143">
        <ele>321.22</ele>
        <time>2016-04-10T10:03:08Z</time>
      </trkpt>
      <trkpt lat="44.31747" lon="4.04038">
        <ele>309.68</ele>
        <time>2016-04-10T10:03:13Z</time>
      </trkpt>
      <trkpt lat="44.31752" lon="4.04015">
        <ele>307.28</ele>
        <time>2016-04-10T10:03:14Z</time>
      </trkpt>
      <trkpt lat="44.31756" lon="4.0399">
        <ele>304.88</ele>
        <time>2016-04-10T10:03:15Z</time>
      </trkpt>
      <trkpt lat="44.31758" lon="4.03964">
        <ele>302.47</ele>
        <time>2016-04-10T10:03:16Z</time>
      </trkpt>
      <trkpt lat="44.31761" lon="4.03939">
        <ele>300.07</ele>
        <time>2016-04-10T10:03:17Z</time>
      </trkpt>
      <trkpt lat="44.31778" lon="4.03843">
        <ele>290.94</ele>
        <time>2016-04-10T10:03:21Z</time>
      </trkpt>
      <trkpt lat="44.31789" lon="4.03827">
        <ele>288.53</ele>
        <time>2016-04-10T10:03:22Z</time>
      </trkpt>
      <trkpt lat="44.31804" lon="4.03813">
        <ele>287.09</ele>
        <time>2016-04-10T10:03:23Z</time>
      </trkpt>
      <trkpt lat="44.31819" lon="4.03803">
        <ele>284.69</ele>
        <time>2016-04-10T10:03:24Z</time>
      </trkpt>
      <trkpt lat="44.31835" lon="4.03795">
        <ele>282.28</ele>
        <time>2016-04-10T10:03:25Z</time>
      </trkpt>
      <trkpt lat="44.3185" lon="4.0379">
        <ele>280.36</ele>
        <time>2016-04-10T10:03:26Z</time>
      </trkpt>
      <trkpt lat="44.31866" lon="4.03785">
        <ele>278.92</ele>
        <time>2016-04-10T10:03:27Z</time>
      </trkpt>
      <trkpt lat="44.31952" lon="4.03757">
        <ele>272.19</ele>
        <time>2016-04-10T10:03:34Z</time>
      </trkpt>
      <trkpt lat="44.31988" lon="4.03742">
        <ele>268.83</ele>
        <time>2016-04-10T10:03:39Z</time>
      </trkpt>
      <trkpt lat="44.31993" lon="4.03738">
        <ele>267.86</ele>
        <time>2016-04-10T10:03:40Z</time>
      </trkpt>
      <trkpt lat="44.31996" lon="4.03732">
        <ele>267.38</ele>
        <time>2016-04-10T10:03:41Z</time>
      </trkpt>
      <trkpt lat="44.31996" lon="4.03724">
        <ele>266.42</ele>
        <time>2016-04-10T10:03:42Z</time>
      </trkpt>
      <trkpt lat="44.31994" lon="4.03715">
        <ele>265.46</ele>
        <time>2016-04-10T10:03:43Z</time>
      </trkpt>
      <trkpt lat="44.31988" lon="4.03703">
        <ele>264.98</ele>
        <time>2016-04-10T10:03:44Z</time>
      </trkpt>
      <trkpt lat="44.31979" lon="4.0369">
        <ele>264.5</ele>
        <time>2016-04-10T10:03:45Z</time>
      </trkpt>
      <trkpt lat="44.31966" lon="4.03677">
        <ele>263.54</ele>
        <time>2016-04-10T10:03:46Z</time>
      </trkpt>
      <trkpt lat="44.31953" lon="4.03665">
        <ele>262.58</ele>
        <time>2016-04-10T10:03:47Z</time>
      </trkpt>
      <trkpt lat="44.31938" lon="4.03655">
        <ele>261.14</ele>
        <time>2016-04-10T10:03:48Z</time>
      </trkpt>
      <trkpt lat="44.31923" lon="4.03648">
        <ele>260.17</ele>
        <time>2016-04-10T10:03:49Z</time>
      </trkpt>
      <trkpt lat="44.31908" lon="4.03644">
        <ele>259.21</ele>
        <time>2016-04-10T10:03:50Z</time>
      </trkpt>
      <trkpt lat="44.31894" lon="4.03639">
        <ele>258.25</ele>
        <time>2016-04-10T10:03:51Z</time>
      </trkpt>
      <trkpt lat="44.3178" lon="4.03607">
        <ele>266.42</ele>
        <time>2016-04-10T10:04:00Z</time>
      </trkpt>
      <trkpt lat="44.31771" lon="4.036">
        <ele>266.9</ele>
        <time>2016-04-10T10:04:01Z</time>
      </trkpt>
      <trkpt lat="44.31765" lon="4.0359">
        <ele>267.38</ele>
        <time>2016-04-10T10:04:02Z</time>
      </trkpt>
      <trkpt lat="44.31762" lon="4.03574">
        <ele>267.38</ele>
        <time>2016-04-10T10:04:03Z</time>
      </trkpt>
      <trkpt lat="44.31763" lon="4.03554">
        <ele>267.38</ele>
        <time>2016-04-10T10:04:04Z</time>
      </trkpt>
      <trkpt lat="44.31766" lon="4.03532">
        <ele>268.35</ele>
        <time>2016-04-10T10:04:05Z</time>
      </trkpt>
      <trkpt lat="44.31769" lon="4.03509">
        <ele>269.31</ele>
        <time>2016-04-10T10:04:06Z</time>
      </trkpt>
      <trkpt lat="44.31772" lon="4.03486">
        <ele>270.27</ele>
        <time>2016-04-10T10:04:07Z</time>
      </trkpt>
      <trkpt lat="44.31787" lon="4.03394">
        <ele>274.11</ele>
        <time>2016-04-10T10:04:11Z</time>
      </trkpt>
      <trkpt lat="44.31795" lon="4.03373">
        <ele>275.07</ele>
        <time>2016-04-10T10:04:12Z</time>
      </trkpt>
      <trkpt lat="44.31804" lon="4.03353">
        <ele>275.56</ele>
        <time>2016-04-10T10:04:13Z</time>
      </trkpt>
      <trkpt lat="44.31874" lon="4.03238">
        <ele>279.88</ele>
        <time>2016-04-10T10:04:19Z</time>
      </trkpt>
      <trkpt lat="44.31889" lon="4.03222">
        <ele>280.84</ele>
        <time>2016-04-10T10:04:20Z</time>
      </trkpt>
      <trkpt lat="44.31954" lon="4.03134">
        <ele>285.17</ele>
        <time>2016-04-10T10:04:25Z</time>
      </trkpt>
      <trkpt lat="44.31962" lon="4.03112">
        <ele>286.13</ele>
        <time>2016-04-10T10:04:26Z</time>
      </trkpt>
      <trkpt lat="44.3197" lon="4.03089">
        <ele>286.61</ele>
        <time>2016-04-10T10:04:27Z</time>
      </trkpt>
      <trkpt lat="44.31995" lon="4.03003">
        <ele>289.01</ele>
        <time>2016-04-10T10:04:31Z</time>
      </trkpt>
      <trkpt lat="44.32002" lon="4.0299">
        <ele>289.97</ele>
        <time>2016-04-10T10:04:32Z</time>
      </trkpt>
      <trkpt lat="44.32011" lon="4.02982">
        <ele>290.46</ele>
        <time>2016-04-10T10:04:33Z</time>
      </trkpt>
      <trkpt lat="44.3202" lon="4.02976">
        <ele>291.9</ele>
        <time>2016-04-10T10:04:34Z</time>
      </trkpt>
      <trkpt lat="44.3203" lon="4.0297">
        <ele>293.34</ele>
        <time>2016-04-10T10:04:35Z</time>
      </trkpt>
      <trkpt lat="44.32043" lon="4.02971">
        <ele>294.3</ele>
        <time>2016-04-10T10:04:36Z</time>
      </trkpt>
      <trkpt lat="44.32057" lon="4.02967">
        <ele>294.78</ele>
        <time>2016-04-10T10:04:37Z</time>
      </trkpt>
      <trkpt lat="44.3209" lon="4.02962">
        <ele>295.26</ele>
        <time>2016-04-10T10:04:39Z</time>
      </trkpt>
      <trkpt lat="44.32106" lon="4.02953">
        <ele>295.26</ele>
        <time>2016-04-10T10:04:40Z</time>
      </trkpt>
      <trkpt lat="44.32121" lon="4.02941">
        <ele>295.26</ele>
        <time>2016-04-10T10:04:41Z</time>
      </trkpt>
      <trkpt lat="44.32134" lon="4.02927">
        <ele>295.26</ele>
        <time>2016-04-10T10:04:42Z</time>
      </trkpt>
      <trkpt lat="44.32147" lon="4.02911">
        <ele>295.26</ele>
        <time>2016-04-10T10:04:43Z</time>
      </trkpt>
      <trkpt lat="44.32157" lon="4.02891">
        <ele>295.26</ele>
        <time>2016-04-10T10:04:44Z</time>
      </trkpt>
      <trkpt lat="44.32165" lon="4.02871">
        <ele>295.26</ele>
        <time>2016-04-10T10:04:45Z</time>
      </trkpt>
      <trkpt lat="44.3217" lon="4.02847">
        <ele>294.78</ele>
        <time>2016-04-10T10:04:46Z</time>
      </trkpt>
      <trkpt lat="44.32174" lon="4.02822">
        <ele>294.78</ele>
        <time>2016-04-10T10:04:47Z</time>
      </trkpt>
      <trkpt lat="44.32176" lon="4.02795">
        <ele>295.26</ele>
        <time>2016-04-10T10:04:48Z</time>
      </trkpt>
      <trkpt lat="44.32215" lon="4.02613">
        <ele>296.22</ele>
        <time>2016-04-10T10:04:55Z</time>
      </trkpt>
      <trkpt lat="44.32237" lon="4.02539">
        <ele>295.74</ele>
        <time>2016-04-10T10:04:58Z</time>
      </trkpt>
      <trkpt lat="44.32241" lon="4.02513">
        <ele>296.22</ele>
        <time>2016-04-10T10:04:59Z</time>
      </trkpt>
      <trkpt lat="44.32248" lon="4.02444">
        <ele>297.18</ele>
        <time>2016-04-10T10:05:02Z</time>
      </trkpt>
      <trkpt lat="44.32254" lon="4.02403">
        <ele>297.18</ele>
        <time>2016-04-10T10:05:04Z</time>
      </trkpt>
      <trkpt lat="44.32252" lon="4.02383">
        <ele>297.18</ele>
        <time>2016-04-10T10:05:05Z</time>
      </trkpt>
      <trkpt lat="44.32245" lon="4.02325">
        <ele>296.22</ele>
        <time>2016-04-10T10:05:08Z</time>
      </trkpt>
      <trkpt lat="44.32247" lon="4.02308">
        <ele>295.74</ele>
        <time>2016-04-10T10:05:09Z</time>
      </trkpt>
      <trkpt lat="44.32251" lon="4.02294">
        <ele>296.22</ele>
        <time>2016-04-10T10:05:10Z</time>
      </trkpt>
      <trkpt lat="44.32258" lon="4.02283">
        <ele>296.7</ele>
        <time>2016-04-10T10:05:11Z</time>
      </trkpt>
      <trkpt lat="44.32269" lon="4.02274">
        <ele>297.18</ele>
        <time>2016-04-10T10:05:12Z</time>
      </trkpt>
      <trkpt lat="44.32284" lon="4.02264">
        <ele>297.67</ele>
        <time>2016-04-10T10:05:13Z</time>
      </trkpt>
      <trkpt lat="44.32301" lon="4.02253">
        <ele>298.15</ele>
        <time>2016-04-10T10:05:14Z</time>
      </trkpt>
      <trkpt lat="44.32368" lon="4.0219">
        <ele>298.15</ele>
        <time>2016-04-10T10:05:19Z</time>
      </trkpt>
      <trkpt lat="44.32376" lon="4.02176">
        <ele>297.67</ele>
        <time>2016-04-10T10:05:20Z</time>
      </trkpt>
      <trkpt lat="44.32381" lon="4.0216">
        <ele>296.7</ele>
        <time>2016-04-10T10:05:21Z</time>
      </trkpt>
      <trkpt lat="44.32385" lon="4.02142">
        <ele>296.7</ele>
        <time>2016-04-10T10:05:22Z</time>
      </trkpt>
      <trkpt lat="44.32385" lon="4.02122">
        <ele>296.22</ele>
        <time>2016-04-10T10:05:23Z</time>
      </trkpt>
      <trkpt lat="44.32383" lon="4.02103">
        <ele>295.74</ele>
        <time>2016-04-10T10:05:24Z</time>
      </trkpt>
      <trkpt lat="44.32375" lon="4.02088">
        <ele>295.26</ele>
        <time>2016-04-10T10:05:25Z</time>
      </trkpt>
      <trkpt lat="44.32364" lon="4.02073">
        <ele>294.78</ele>
        <time>2016-04-10T10:05:26Z</time>
      </trkpt>
      <trkpt lat="44.32353" lon="4.0206">
        <ele>293.82</ele>
        <time>2016-04-10T10:05:27Z</time>
      </trkpt>
      <trkpt lat="44.32338" lon="4.0205">
        <ele>294.3</ele>
        <time>2016-04-10T10:05:28Z</time>
      </trkpt>
      <trkpt lat="44.32323" lon="4.02042">
        <ele>293.82</ele>
        <time>2016-04-10T10:05:29Z</time>
      </trkpt>
      <trkpt lat="44.32307" lon="4.02038">
        <ele>294.3</ele>
        <time>2016-04-10T10:05:30Z</time>
      </trkpt>
      <trkpt lat="44.32292" lon="4.02037">
        <ele>295.26</ele>
        <time>2016-04-10T10:05:31Z</time>
      </trkpt>
      <trkpt lat="44.3228" lon="4.02037">
        <ele>295.74</ele>
        <time>2016-04-10T10:05:32Z</time>
      </trkpt>
      <trkpt lat="44.3227" lon="4.02035">
        <ele>295.74</ele>
        <time>2016-04-10T10:05:33Z</time>
      </trkpt>
      <trkpt lat="44.32262" lon="4.02029">
        <ele>296.22</ele>
        <time>2016-04-10T10:05:34Z</time>
      </trkpt>
      <trkpt lat="44.32258" lon="4.02019">
        <ele>295.74</ele>
        <time>2016-04-10T10:05:35Z</time>
      </trkpt>
      <trkpt lat="44.32255" lon="4.02008">
        <ele>294.78</ele>
        <time>2016-04-10T10:05:36Z</time>
      </trkpt>
      <trkpt lat="44.3226" lon="4.01996">
        <ele>294.3</ele>
        <time>2016-04-10T10:05:37Z</time>
      </trkpt>
      <trkpt lat="44.32271" lon="4.01983">
        <ele>297.67</ele>
        <time>2016-04-10T10:05:38Z</time>
      </trkpt>
      <trkpt lat="44.32282" lon="4.01967">
        <ele>298.63</ele>
        <time>2016-04-10T10:05:39Z</time>
      </trkpt>
      <trkpt lat="44.3233" lon="4.01864">
        <ele>303.91</ele>
        <time>2016-04-10T10:05:44Z</time>
      </trkpt>
      <trkpt lat="44.32335" lon="4.01841">
        <ele>305.36</ele>
        <time>2016-04-10T10:05:45Z</time>
      </trkpt>
      <trkpt lat="44.32339" lon="4.01819">
        <ele>305.84</ele>
        <time>2016-04-10T10:05:46Z</time>
      </trkpt>
      <trkpt lat="44.3234" lon="4.018">
        <ele>306.8</ele>
        <time>2016-04-10T10:05:47Z</time>
      </trkpt>
      <trkpt lat="44.32341" lon="4.01781">
        <ele>307.28</ele>
        <time>2016-04-10T10:05:48Z</time>
      </trkpt>
      <trkpt lat="44.32339" lon="4.01763">
        <ele>308.24</ele>
        <time>2016-04-10T10:05:49Z</time>
      </trkpt>
      <trkpt lat="44.32335" lon="4.01743">
        <ele>309.2</ele>
        <time>2016-04-10T10:05:50Z</time>
      </trkpt>
      <trkpt lat="44.32327" lon="4.01724">
        <ele>309.68</ele>
        <time>2016-04-10T10:05:51Z</time>
      </trkpt>
      <trkpt lat="44.32317" lon="4.01706">
        <ele>310.16</ele>
        <time>2016-04-10T10:05:52Z</time>
      </trkpt>
      <trkpt lat="44.32304" lon="4.01693">
        <ele>309.68</ele>
        <time>2016-04-10T10:05:53Z</time>
      </trkpt>
      <trkpt lat="44.32291" lon="4.01682">
        <ele>309.2</ele>
        <time>2016-04-10T10:05:54Z</time>
      </trkpt>
      <trkpt lat="44.32277" lon="4.01675">
        <ele>308.72</ele>
        <time>2016-04-10T10:05:55Z</time>
      </trkpt>
      <trkpt lat="44.32261" lon="4.01672">
        <ele>308.72</ele>
        <time>2016-04-10T10:05:56Z</time>
      </trkpt>
      <trkpt lat="44.32246" lon="4.01669">
        <ele>308.72</ele>
        <time>2016-04-10T10:05:57Z</time>
      </trkpt>
      <trkpt lat="44.32232" lon="4.01667">
        <ele>309.2</ele>
        <time>2016-04-10T10:05:58Z</time>
      </trkpt>
      <trkpt lat="44.32219" lon="4.01666">
        <ele>309.68</ele>
        <time>2016-04-10T10:05:59Z</time>
      </trkpt>
      <trkpt lat="44.32206" lon="4.01665">
        <ele>310.64</ele>
        <time>2016-04-10T10:06:00Z</time>
      </trkpt>
      <trkpt lat="44.32185" lon="4.01663">
        <ele>313.53</ele>
        <time>2016-04-10T10:06:02Z</time>
      </trkpt>
      <trkpt lat="44.32178" lon="4.01657">
        <ele>314.01</ele>
        <time>2016-04-10T10:06:03Z</time>
      </trkpt>
      <trkpt lat="44.32175" lon="4.01646">
        <ele>314.01</ele>
        <time>2016-04-10T10:06:04Z</time>
      </trkpt>
      <trkpt lat="44.32177" lon="4.01631">
        <ele>314.49</ele>
        <time>2016-04-10T10:06:05Z</time>
      </trkpt>
      <trkpt lat="44.32182" lon="4.01615">
        <ele>315.93</ele>
        <time>2016-04-10T10:06:06Z</time>
      </trkpt>
      <trkpt lat="44.3219" lon="4.01599">
        <ele>317.37</ele>
        <time>2016-04-10T10:06:07Z</time>
      </trkpt>
      <trkpt lat="44.32197" lon="4.01579">
        <ele>317.85</ele>
        <time>2016-04-10T10:06:08Z</time>
      </trkpt>
      <trkpt lat="44.32284" lon="4.01393">
        <ele>323.62</ele>
        <time>2016-04-10T10:06:18Z</time>
      </trkpt>
      <trkpt lat="44.32293" lon="4.01378">
        <ele>324.1</ele>
        <time>2016-04-10T10:06:19Z</time>
      </trkpt>
      <trkpt lat="44.3231" lon="4.01352">
        <ele>325.06</ele>
        <time>2016-04-10T10:06:21Z</time>
      </trkpt>
      <trkpt lat="44.32315" lon="4.01338">
        <ele>325.06</ele>
        <time>2016-04-10T10:06:22Z</time>
      </trkpt>
      <trkpt lat="44.32317" lon="4.01324">
        <ele>325.54</ele>
        <time>2016-04-10T10:06:23Z</time>
      </trkpt>
      <trkpt lat="44.32315" lon="4.0131">
        <ele>325.06</ele>
        <time>2016-04-10T10:06:24Z</time>
      </trkpt>
      <trkpt lat="44.32311" lon="4.01294">
        <ele>324.58</ele>
        <time>2016-04-10T10:06:25Z</time>
      </trkpt>
      <trkpt lat="44.3231" lon="4.01277">
        <ele>324.58</ele>
        <time>2016-04-10T10:06:26Z</time>
      </trkpt>
      <trkpt lat="44.3231" lon="4.01259">
        <ele>324.58</ele>
        <time>2016-04-10T10:06:27Z</time>
      </trkpt>
      <trkpt lat="44.32309" lon="4.0124">
        <ele>325.06</ele>
        <time>2016-04-10T10:06:28Z</time>
      </trkpt>
      <trkpt lat="44.32308" lon="4.01223">
        <ele>325.54</ele>
        <time>2016-04-10T10:06:29Z</time>
      </trkpt>
      <trkpt lat="44.32306" lon="4.01208">
        <ele>325.54</ele>
        <time>2016-04-10T10:06:30Z</time>
      </trkpt>
      <trkpt lat="44.32306" lon="4.01192">
        <ele>325.54</ele>
        <time>2016-04-10T10:06:31Z</time>
      </trkpt>
      <trkpt lat="44.32309" lon="4.01177">
        <ele>326.02</ele>
        <time>2016-04-10T10:06:32Z</time>
      </trkpt>
      <trkpt lat="44.32314" lon="4.01161">
        <ele>326.5</ele>
        <time>2016-04-10T10:06:33Z</time>
      </trkpt>
      <trkpt lat="44.32346" lon="4.01072">
        <ele>328.91</ele>
        <time>2016-04-10T10:06:40Z</time>
      </trkpt>
      <trkpt lat="44.32352" lon="4.01062">
        <ele>329.39</ele>
        <time>2016-04-10T10:06:41Z</time>
      </trkpt>
      <trkpt lat="44.32362" lon="4.01055">
        <ele>329.39</ele>
        <time>2016-04-10T10:06:42Z</time>
      </trkpt>
      <trkpt lat="44.32374" lon="4.01051">
        <ele>329.87</ele>
        <time>2016-04-10T10:06:43Z</time>
      </trkpt>
      <trkpt lat="44.32387" lon="4.01049">
        <ele>330.83</ele>
        <time>2016-04-10T10:06:44Z</time>
      </trkpt>
      <trkpt lat="44.32402" lon="4.01049">
        <ele>330.83</ele>
        <time>2016-04-10T10:06:45Z</time>
      </trkpt>
      <trkpt lat="44.32417" lon="4.01049">
        <ele>331.31</ele>
        <time>2016-04-10T10:06:46Z</time>
      </trkpt>
      <trkpt lat="44.32541" lon="4.01032">
        <ele>336.6</ele>
        <time>2016-04-10T10:06:54Z</time>
      </trkpt>
      <trkpt lat="44.32554" lon="4.01033">
        <ele>336.6</ele>
        <time>2016-04-10T10:06:55Z</time>
      </trkpt>
      <trkpt lat="44.32566" lon="4.01031">
        <ele>336.6</ele>
        <time>2016-04-10T10:06:56Z</time>
      </trkpt>
      <trkpt lat="44.32577" lon="4.01025">
        <ele>336.6</ele>
        <time>2016-04-10T10:06:57Z</time>
      </trkpt>
      <trkpt lat="44.32587" lon="4.01017">
        <ele>337.08</ele>
        <time>2016-04-10T10:06:58Z</time>
      </trkpt>
      <trkpt lat="44.32594" lon="4.01006">
        <ele>337.56</ele>
        <time>2016-04-10T10:06:59Z</time>
      </trkpt>
      <trkpt lat="44.326" lon="4.00993">
        <ele>337.56</ele>
        <time>2016-04-10T10:07:00Z</time>
      </trkpt>
      <trkpt lat="44.32597" lon="4.00972">
        <ele>339</ele>
        <time>2016-04-10T10:07:01Z</time>
      </trkpt>
      <trkpt lat="44.32598" lon="4.00954">
        <ele>340.44</ele>
        <time>2016-04-10T10:07:02Z</time>
      </trkpt>
      <trkpt lat="44.32596" lon="4.00934">
        <ele>340.92</ele>
        <time>2016-04-10T10:07:03Z</time>
      </trkpt>
      <trkpt lat="44.32594" lon="4.00915">
        <ele>340.92</ele>
        <time>2016-04-10T10:07:04Z</time>
      </trkpt>
      <trkpt lat="44.3259" lon="4.00896">
        <ele>340.92</ele>
        <time>2016-04-10T10:07:05Z</time>
      </trkpt>
      <trkpt lat="44.32581" lon="4.00878">
        <ele>340.92</ele>
        <time>2016-04-10T10:07:06Z</time>
      </trkpt>
      <trkpt lat="44.32574" lon="4.0086">
        <ele>340.92</ele>
        <time>2016-04-10T10:07:07Z</time>
      </trkpt>
      <trkpt lat="44.32568" lon="4.00842">
        <ele>340.44</ele>
        <time>2016-04-10T10:07:08Z</time>
      </trkpt>
      <trkpt lat="44.32565" lon="4.00823">
        <ele>341.41</ele>
        <time>2016-04-10T10:07:09Z</time>
      </trkpt>
      <trkpt lat="44.32563" lon="4.00805">
        <ele>341.89</ele>
        <time>2016-04-10T10:07:10Z</time>
      </trkpt>
      <trkpt lat="44.32563" lon="4.00789">
        <ele>342.85</ele>
        <time>2016-04-10T10:07:11Z</time>
      </trkpt>
      <trkpt lat="44.32563" lon="4.00775">
        <ele>341.89</ele>
        <time>2016-04-10T10:07:12Z</time>
      </trkpt>
      <trkpt lat="44.32562" lon="4.00763">
        <ele>340.92</ele>
        <time>2016-04-10T10:07:13Z</time>
      </trkpt>
      <trkpt lat="44.32558" lon="4.00752">
        <ele>339.48</ele>
        <time>2016-04-10T10:07:14Z</time>
      </trkpt>
      <trkpt lat="44.32552" lon="4.00744">
        <ele>337.56</ele>
        <time>2016-04-10T10:07:15Z</time>
      </trkpt>
      <trkpt lat="44.32547" lon="4.00734">
        <ele>336.6</ele>
        <time>2016-04-10T10:07:16Z</time>
      </trkpt>
      <trkpt lat="44.32544" lon="4.00723">
        <ele>337.56</ele>
        <time>2016-04-10T10:07:17Z</time>
      </trkpt>
      <trkpt lat="44.32543" lon="4.0071">
        <ele>339.48</ele>
        <time>2016-04-10T10:07:18Z</time>
      </trkpt>
      <trkpt lat="44.32546" lon="4.00697">
        <ele>341.41</ele>
        <time>2016-04-10T10:07:19Z</time>
      </trkpt>
      <trkpt lat="44.32548" lon="4.00684">
        <ele>342.37</ele>
        <time>2016-04-10T10:07:20Z</time>
      </trkpt>
      <trkpt lat="44.32549" lon="4.00672">
        <ele>342.37</ele>
        <time>2016-04-10T10:07:21Z</time>
      </trkpt>
      <trkpt lat="44.32547" lon="4.00664">
        <ele>342.85</ele>
        <time>2016-04-10T10:07:22Z</time>
      </trkpt>
      <trkpt lat="44.32542" lon="4.00657">
        <ele>341.89</ele>
        <time>2016-04-10T10:07:23Z</time>
      </trkpt>
      <trkpt lat="44.32535" lon="4.00657">
        <ele>341.41</ele>
        <time>2016-04-10T10:07:24Z</time>
      </trkpt>
      <trkpt lat="44.32526" lon="4.00658">
        <ele>340.92</ele>
        <time>2016-04-10T10:07:25Z</time>
      </trkpt>
      <trkpt lat="44.32513" lon="4.00658">
        <ele>340.92</ele>
        <time>2016-04-10T10:07:26Z</time>
      </trkpt>
      <trkpt lat="44.32502" lon="4.00653">
        <ele>340.92</ele>
        <time>2016-04-10T10:07:27Z</time>
      </trkpt>
      <trkpt lat="44.32493" lon="4.00642">
        <ele>340.92</ele>
        <time>2016-04-10T10:07:28Z</time>
      </trkpt>
      <trkpt lat="44.32484" lon="4.00632">
        <ele>344.29</ele>
        <time>2016-04-10T10:07:29Z</time>
      </trkpt>
      <trkpt lat="44.32477" lon="4.00617">
        <ele>345.73</ele>
        <time>2016-04-10T10:07:30Z</time>
      </trkpt>
      <trkpt lat="44.32473" lon="4.00598">
        <ele>348.13</ele>
        <time>2016-04-10T10:07:31Z</time>
      </trkpt>
      <trkpt lat="44.32471" lon="4.00578">
        <ele>349.1</ele>
        <time>2016-04-10T10:07:32Z</time>
      </trkpt>
      <trkpt lat="44.32472" lon="4.00561">
        <ele>349.58</ele>
        <time>2016-04-10T10:07:33Z</time>
      </trkpt>
      <trkpt lat="44.32476" lon="4.00546">
        <ele>350.06</ele>
        <time>2016-04-10T10:07:34Z</time>
      </trkpt>
      <trkpt lat="44.32487" lon="4.00537">
        <ele>348.62</ele>
        <time>2016-04-10T10:07:35Z</time>
      </trkpt>
      <trkpt lat="44.32501" lon="4.00527">
        <ele>348.13</ele>
        <time>2016-04-10T10:07:36Z</time>
      </trkpt>
      <trkpt lat="44.32515" lon="4.00514">
        <ele>349.58</ele>
        <time>2016-04-10T10:07:37Z</time>
      </trkpt>
      <trkpt lat="44.3253" lon="4.00499">
        <ele>350.06</ele>
        <time>2016-04-10T10:07:38Z</time>
      </trkpt>
      <trkpt lat="44.326" lon="4.00376">
        <ele>355.83</ele>
        <time>2016-04-10T10:07:45Z</time>
      </trkpt>
      <trkpt lat="44.32609" lon="4.00346">
        <ele>354.86</ele>
        <time>2016-04-10T10:07:47Z</time>
      </trkpt>
      <trkpt lat="44.32609" lon="4.00331">
        <ele>354.86</ele>
        <time>2016-04-10T10:07:48Z</time>
      </trkpt>
      <trkpt lat="44.32604" lon="4.00316">
        <ele>354.38</ele>
        <time>2016-04-10T10:07:49Z</time>
      </trkpt>
      <trkpt lat="44.32596" lon="4.00301">
        <ele>355.34</ele>
        <time>2016-04-10T10:07:50Z</time>
      </trkpt>
      <trkpt lat="44.32586" lon="4.00283">
        <ele>355.83</ele>
        <time>2016-04-10T10:07:51Z</time>
      </trkpt>
      <trkpt lat="44.32578" lon="4.00266">
        <ele>356.31</ele>
        <time>2016-04-10T10:07:52Z</time>
      </trkpt>
      <trkpt lat="44.32572" lon="4.0025">
        <ele>356.79</ele>
        <time>2016-04-10T10:07:53Z</time>
      </trkpt>
      <trkpt lat="44.32569" lon="4.00233">
        <ele>357.75</ele>
        <time>2016-04-10T10:07:54Z</time>
      </trkpt>
      <trkpt lat="44.32569" lon="4.00218">
        <ele>359.19</ele>
        <time>2016-04-10T10:07:55Z</time>
      </trkpt>
      <trkpt lat="44.32572" lon="4.00204">
        <ele>359.19</ele>
        <time>2016-04-10T10:07:56Z</time>
      </trkpt>
      <trkpt lat="44.32581" lon="4.00191">
        <ele>358.71</ele>
        <time>2016-04-10T10:07:57Z</time>
      </trkpt>
      <trkpt lat="44.32593" lon="4.00176">
        <ele>358.71</ele>
        <time>2016-04-10T10:07:58Z</time>
      </trkpt>
      <trkpt lat="44.32608" lon="4.00156">
        <ele>358.71</ele>
        <time>2016-04-10T10:07:59Z</time>
      </trkpt>
      <trkpt lat="44.32621" lon="4.00135">
        <ele>357.27</ele>
        <time>2016-04-10T10:08:00Z</time>
      </trkpt>
      <trkpt lat="44.32714" lon="3.99916">
        <ele>350.06</ele>
        <time>2016-04-10T10:08:09Z</time>
      </trkpt>
      <trkpt lat="44.32738" lon="3.99852">
        <ele>348.13</ele>
        <time>2016-04-10T10:08:12Z</time>
      </trkpt>
      <trkpt lat="44.32749" lon="3.99835">
        <ele>346.21</ele>
        <time>2016-04-10T10:08:13Z</time>
      </trkpt>
      <trkpt lat="44.32846" lon="3.99682">
        <ele>341.41</ele>
        <time>2016-04-10T10:08:21Z</time>
      </trkpt>
      <trkpt lat="44.32857" lon="3.99667">
        <ele>340.44</ele>
        <time>2016-04-10T10:08:22Z</time>
      </trkpt>
      <trkpt lat="44.32868" lon="3.99658">
        <ele>339.96</ele>
        <time>2016-04-10T10:08:23Z</time>
      </trkpt>
      <trkpt lat="44.32881" lon="3.99652">
        <ele>339.48</ele>
        <time>2016-04-10T10:08:24Z</time>
      </trkpt>
      <trkpt lat="44.32895" lon="3.99645">
        <ele>339</ele>
        <time>2016-04-10T10:08:25Z</time>
      </trkpt>
      <trkpt lat="44.32911" lon="3.99636">
        <ele>338.52</ele>
        <time>2016-04-10T10:08:26Z</time>
      </trkpt>
      <trkpt lat="44.33042" lon="3.99514">
        <ele>338.04</ele>
        <time>2016-04-10T10:08:35Z</time>
      </trkpt>
      <trkpt lat="44.33051" lon="3.99494">
        <ele>338.04</ele>
        <time>2016-04-10T10:08:36Z</time>
      </trkpt>
      <trkpt lat="44.33059" lon="3.99473">
        <ele>338.04</ele>
        <time>2016-04-10T10:08:37Z</time>
      </trkpt>
      <trkpt lat="44.33101" lon="3.99343">
        <ele>337.56</ele>
        <time>2016-04-10T10:08:43Z</time>
      </trkpt>
      <trkpt lat="44.33103" lon="3.9932">
        <ele>337.08</ele>
        <time>2016-04-10T10:08:44Z</time>
      </trkpt>
      <trkpt lat="44.33102" lon="3.99296">
        <ele>337.08</ele>
        <time>2016-04-10T10:08:45Z</time>
      </trkpt>
      <trkpt lat="44.33102" lon="3.99193">
        <ele>337.56</ele>
        <time>2016-04-10T10:08:50Z</time>
      </trkpt>
      <trkpt lat="44.33105" lon="3.99178">
        <ele>338.04</ele>
        <time>2016-04-10T10:08:51Z</time>
      </trkpt>
      <trkpt lat="44.33113" lon="3.9917">
        <ele>338.04</ele>
        <time>2016-04-10T10:08:52Z</time>
      </trkpt>
      <trkpt lat="44.33121" lon="3.99161">
        <ele>338.52</ele>
        <time>2016-04-10T10:08:53Z</time>
      </trkpt>
      <trkpt lat="44.33129" lon="3.99153">
        <ele>339</ele>
        <time>2016-04-10T10:08:54Z</time>
      </trkpt>
      <trkpt lat="44.33136" lon="3.99145">
        <ele>339.48</ele>
        <time>2016-04-10T10:08:55Z</time>
      </trkpt>
      <trkpt lat="44.33142" lon="3.99138">
        <ele>339.96</ele>
        <time>2016-04-10T10:08:56Z</time>
      </trkpt>
      <trkpt lat="44.33185" lon="3.9906">
        <ele>341.41</ele>
        <time>2016-04-10T10:09:03Z</time>
      </trkpt>
      <trkpt lat="44.33192" lon="3.99043">
        <ele>341.41</ele>
        <time>2016-04-10T10:09:04Z</time>
      </trkpt>
      <trkpt lat="44.33199" lon="3.99022">
        <ele>341.89</ele>
        <time>2016-04-10T10:09:05Z</time>
      </trkpt>
      <trkpt lat="44.33205" lon="3.98997">
        <ele>341.89</ele>
        <time>2016-04-10T10:09:06Z</time>
      </trkpt>
      <trkpt lat="44.33226" lon="3.98911">
        <ele>343.33</ele>
        <time>2016-04-10T10:09:10Z</time>
      </trkpt>
      <trkpt lat="44.33234" lon="3.98895">
        <ele>343.81</ele>
        <time>2016-04-10T10:09:11Z</time>
      </trkpt>
      <trkpt lat="44.33242" lon="3.98881">
        <ele>344.29</ele>
        <time>2016-04-10T10:09:12Z</time>
      </trkpt>
      <trkpt lat="44.33321" lon="3.98723">
        <ele>344.77</ele>
        <time>2016-04-10T10:09:21Z</time>
      </trkpt>
      <trkpt lat="44.33389" lon="3.98569">
        <ele>344.29</ele>
        <time>2016-04-10T10:09:30Z</time>
      </trkpt>
      <trkpt lat="44.33411" lon="3.98519">
        <ele>343.33</ele>
        <time>2016-04-10T10:09:36Z</time>
      </trkpt>
      <trkpt lat="44.33421" lon="3.9849">
        <ele>342.37</ele>
        <time>2016-04-10T10:09:46Z</time>
      </trkpt>
      <trkpt lat="44.33422" lon="3.98453">
        <ele>342.37</ele>
        <time>2016-04-10T10:11:01Z</time>
      </trkpt>
      <trkpt lat="44.33415" lon="3.98329">
        <ele>344.29</ele>
        <time>2016-04-10T10:11:09Z</time>
      </trkpt>
      <trkpt lat="44.33409" lon="3.98249">
        <ele>346.69</ele>
        <time>2016-04-10T10:11:16Z</time>
      </trkpt>
      <trkpt lat="44.33406" lon="3.98239">
        <ele>347.17</ele>
        <time>2016-04-10T10:11:17Z</time>
      </trkpt>
      <trkpt lat="44.33404" lon="3.98229">
        <ele>347.17</ele>
        <time>2016-04-10T10:11:18Z</time>
      </trkpt>
      <trkpt lat="44.33402" lon="3.98218">
        <ele>347.65</ele>
        <time>2016-04-10T10:11:19Z</time>
      </trkpt>
      <trkpt lat="44.334" lon="3.98205">
        <ele>347.65</ele>
        <time>2016-04-10T10:11:20Z</time>
      </trkpt>
      <trkpt lat="44.33389" lon="3.9808">
        <ele>350.54</ele>
        <time>2016-04-10T10:11:28Z</time>
      </trkpt>
      <trkpt lat="44.33378" lon="3.97902">
        <ele>353.9</ele>
        <time>2016-04-10T10:11:37Z</time>
      </trkpt>
      <trkpt lat="44.33362" lon="3.9769">
        <ele>356.31</ele>
        <time>2016-04-10T10:11:46Z</time>
      </trkpt>
      <trkpt lat="44.33358" lon="3.97666">
        <ele>356.79</ele>
        <time>2016-04-10T10:11:47Z</time>
      </trkpt>
      <trkpt lat="44.33353" lon="3.97643">
        <ele>356.79</ele>
        <time>2016-04-10T10:11:48Z</time>
      </trkpt>
      <trkpt lat="44.33344" lon="3.97602">
        <ele>356.79</ele>
        <time>2016-04-10T10:11:50Z</time>
      </trkpt>
      <trkpt lat="44.33342" lon="3.9758">
        <ele>357.27</ele>
        <time>2016-04-10T10:11:51Z</time>
      </trkpt>
      <trkpt lat="44.33342" lon="3.97556">
        <ele>357.27</ele>
        <time>2016-04-10T10:11:52Z</time>
      </trkpt>
      <trkpt lat="44.33344" lon="3.97531">
        <ele>358.23</ele>
        <time>2016-04-10T10:11:53Z</time>
      </trkpt>
      <trkpt lat="44.33347" lon="3.97505">
        <ele>358.71</ele>
        <time>2016-04-10T10:11:54Z</time>
      </trkpt>
      <trkpt lat="44.33367" lon="3.97362">
        <ele>360.15</ele>
        <time>2016-04-10T10:12:00Z</time>
      </trkpt>
      <trkpt lat="44.33375" lon="3.9734">
        <ele>360.15</ele>
        <time>2016-04-10T10:12:01Z</time>
      </trkpt>
      <trkpt lat="44.33409" lon="3.97256">
        <ele>361.11</ele>
        <time>2016-04-10T10:12:05Z</time>
      </trkpt>
      <trkpt lat="44.33421" lon="3.97238">
        <ele>361.11</ele>
        <time>2016-04-10T10:12:06Z</time>
      </trkpt>
      <trkpt lat="44.33495" lon="3.97135">
        <ele>364.48</ele>
        <time>2016-04-10T10:12:12Z</time>
      </trkpt>
      <trkpt lat="44.33503" lon="3.97115">
        <ele>365.92</ele>
        <time>2016-04-10T10:12:13Z</time>
      </trkpt>
      <trkpt lat="44.33508" lon="3.97093">
        <ele>365.92</ele>
        <time>2016-04-10T10:12:14Z</time>
      </trkpt>
      <trkpt lat="44.3351" lon="3.97068">
        <ele>366.88</ele>
        <time>2016-04-10T10:12:15Z</time>
      </trkpt>
      <trkpt lat="44.33512" lon="3.97041">
        <ele>367.36</ele>
        <time>2016-04-10T10:12:16Z</time>
      </trkpt>
      <trkpt lat="44.33512" lon="3.97013">
        <ele>368.32</ele>
        <time>2016-04-10T10:12:17Z</time>
      </trkpt>
      <trkpt lat="44.33514" lon="3.96882">
        <ele>372.65</ele>
        <time>2016-04-10T10:12:22Z</time>
      </trkpt>
      <trkpt lat="44.33511" lon="3.9684">
        <ele>373.61</ele>
        <time>2016-04-10T10:12:24Z</time>
      </trkpt>
      <trkpt lat="44.33512" lon="3.96821">
        <ele>374.09</ele>
        <time>2016-04-10T10:12:25Z</time>
      </trkpt>
      <trkpt lat="44.33516" lon="3.96802">
        <ele>374.57</ele>
        <time>2016-04-10T10:12:26Z</time>
      </trkpt>
      <trkpt lat="44.33524" lon="3.96783">
        <ele>375.05</ele>
        <time>2016-04-10T10:12:27Z</time>
      </trkpt>
      <trkpt lat="44.33532" lon="3.96763">
        <ele>375.53</ele>
        <time>2016-04-10T10:12:28Z</time>
      </trkpt>
      <trkpt lat="44.33603" lon="3.96599">
        <ele>380.82</ele>
        <time>2016-04-10T10:12:36Z</time>
      </trkpt>
      <trkpt lat="44.33606" lon="3.96579">
        <ele>381.3</ele>
        <time>2016-04-10T10:12:37Z</time>
      </trkpt>
      <trkpt lat="44.33608" lon="3.96559">
        <ele>382.26</ele>
        <time>2016-04-10T10:12:38Z</time>
      </trkpt>
      <trkpt lat="44.33607" lon="3.96539">
        <ele>383.22</ele>
        <time>2016-04-10T10:12:39Z</time>
      </trkpt>
      <trkpt lat="44.33602" lon="3.96517">
        <ele>384.18</ele>
        <time>2016-04-10T10:12:40Z</time>
      </trkpt>
      <trkpt lat="44.33595" lon="3.96497">
        <ele>384.18</ele>
        <time>2016-04-10T10:12:41Z</time>
      </trkpt>
      <trkpt lat="44.33588" lon="3.96478">
        <ele>384.66</ele>
        <time>2016-04-10T10:12:42Z</time>
      </trkpt>
      <trkpt lat="44.33583" lon="3.96458">
        <ele>385.63</ele>
        <time>2016-04-10T10:12:43Z</time>
      </trkpt>
      <trkpt lat="44.3358" lon="3.96437">
        <ele>385.63</ele>
        <time>2016-04-10T10:12:44Z</time>
      </trkpt>
      <trkpt lat="44.33577" lon="3.96414">
        <ele>386.11</ele>
        <time>2016-04-10T10:12:45Z</time>
      </trkpt>
      <trkpt lat="44.33576" lon="3.96391">
        <ele>386.59</ele>
        <time>2016-04-10T10:12:46Z</time>
      </trkpt>
      <trkpt lat="44.33576" lon="3.96367">
        <ele>387.07</ele>
        <time>2016-04-10T10:12:47Z</time>
      </trkpt>
      <trkpt lat="44.33576" lon="3.96343">
        <ele>387.55</ele>
        <time>2016-04-10T10:12:48Z</time>
      </trkpt>
      <trkpt lat="44.33583" lon="3.96261">
        <ele>389.47</ele>
        <time>2016-04-10T10:12:52Z</time>
      </trkpt>
      <trkpt lat="44.33587" lon="3.96245">
        <ele>389.47</ele>
        <time>2016-04-10T10:12:53Z</time>
      </trkpt>
      <trkpt lat="44.33592" lon="3.9623">
        <ele>390.43</ele>
        <time>2016-04-10T10:12:54Z</time>
      </trkpt>
      <trkpt lat="44.336" lon="3.96216">
        <ele>391.39</ele>
        <time>2016-04-10T10:12:55Z</time>
      </trkpt>
      <trkpt lat="44.33612" lon="3.96204">
        <ele>391.39</ele>
        <time>2016-04-10T10:12:56Z</time>
      </trkpt>
      <trkpt lat="44.33625" lon="3.96192">
        <ele>391.39</ele>
        <time>2016-04-10T10:12:57Z</time>
      </trkpt>
      <trkpt lat="44.33648" lon="3.96167">
        <ele>391.39</ele>
        <time>2016-04-10T10:12:59Z</time>
      </trkpt>
      <trkpt lat="44.33657" lon="3.96153">
        <ele>391.87</ele>
        <time>2016-04-10T10:13:00Z</time>
      </trkpt>
      <trkpt lat="44.33663" lon="3.96136">
        <ele>392.36</ele>
        <time>2016-04-10T10:13:01Z</time>
      </trkpt>
      <trkpt lat="44.33667" lon="3.96118">
        <ele>392.84</ele>
        <time>2016-04-10T10:13:02Z</time>
      </trkpt>
      <trkpt lat="44.33669" lon="3.96098">
        <ele>392.84</ele>
        <time>2016-04-10T10:13:03Z</time>
      </trkpt>
      <trkpt lat="44.33668" lon="3.96077">
        <ele>392.36</ele>
        <time>2016-04-10T10:13:04Z</time>
      </trkpt>
      <trkpt lat="44.33665" lon="3.96054">
        <ele>392.84</ele>
        <time>2016-04-10T10:13:05Z</time>
      </trkpt>
      <trkpt lat="44.33661" lon="3.96032">
        <ele>393.8</ele>
        <time>2016-04-10T10:13:06Z</time>
      </trkpt>
      <trkpt lat="44.33656" lon="3.96012">
        <ele>393.8</ele>
        <time>2016-04-10T10:13:07Z</time>
      </trkpt>
      <trkpt lat="44.3365" lon="3.95993">
        <ele>394.28</ele>
        <time>2016-04-10T10:13:08Z</time>
      </trkpt>
      <trkpt lat="44.33644" lon="3.95975">
        <ele>394.76</ele>
        <time>2016-04-10T10:13:09Z</time>
      </trkpt>
      <trkpt lat="44.33639" lon="3.95957">
        <ele>394.76</ele>
        <time>2016-04-10T10:13:10Z</time>
      </trkpt>
      <trkpt lat="44.33635" lon="3.95937">
        <ele>395.72</ele>
        <time>2016-04-10T10:13:11Z</time>
      </trkpt>
      <trkpt lat="44.33634" lon="3.95917">
        <ele>396.2</ele>
        <time>2016-04-10T10:13:12Z</time>
      </trkpt>
      <trkpt lat="44.33634" lon="3.95897">
        <ele>397.16</ele>
        <time>2016-04-10T10:13:13Z</time>
      </trkpt>
      <trkpt lat="44.33635" lon="3.95879">
        <ele>398.12</ele>
        <time>2016-04-10T10:13:14Z</time>
      </trkpt>
      <trkpt lat="44.33633" lon="3.95824">
        <ele>401.49</ele>
        <time>2016-04-10T10:13:18Z</time>
      </trkpt>
      <trkpt lat="44.33631" lon="3.95817">
        <ele>401.97</ele>
        <time>2016-04-10T10:13:19Z</time>
      </trkpt>
      <trkpt lat="44.33627" lon="3.95812">
        <ele>402.93</ele>
        <time>2016-04-10T10:13:20Z</time>
      </trkpt>
      <trkpt lat="44.33623" lon="3.95809">
        <ele>402.93</ele>
        <time>2016-04-10T10:13:21Z</time>
      </trkpt>
      <trkpt lat="44.33617" lon="3.95809">
        <ele>401.97</ele>
        <time>2016-04-10T10:13:22Z</time>
      </trkpt>
      <trkpt lat="44.33609" lon="3.95809">
        <ele>401.97</ele>
        <time>2016-04-10T10:13:23Z</time>
      </trkpt>
      <trkpt lat="44.336" lon="3.95808">
        <ele>401.97</ele>
        <time>2016-04-10T10:13:24Z</time>
      </trkpt>
      <trkpt lat="44.33591" lon="3.95806">
        <ele>401.97</ele>
        <time>2016-04-10T10:13:25Z</time>
      </trkpt>
      <trkpt lat="44.33537" lon="3.95786">
        <ele>402.45</ele>
        <time>2016-04-10T10:13:33Z</time>
      </trkpt>
      <trkpt lat="44.33533" lon="3.95787">
        <ele>402.45</ele>
        <time>2016-04-10T10:13:34Z</time>
      </trkpt>
      <trkpt lat="44.33531" lon="3.95789">
        <ele>402.93</ele>
        <time>2016-04-10T10:13:35Z</time>
      </trkpt>
      <trkpt lat="44.33528" lon="3.95792">
        <ele>403.41</ele>
        <time>2016-04-10T10:13:36Z</time>
      </trkpt>
      <trkpt lat="44.33526" lon="3.95795">
        <ele>403.41</ele>
        <time>2016-04-10T10:13:37Z</time>
      </trkpt>
      <trkpt lat="44.33525" lon="3.95833">
        <ele>398.12</ele>
        <time>2016-04-10T10:13:46Z</time>
      </trkpt>
      <trkpt lat="44.33528" lon="3.95854">
        <ele>397.16</ele>
        <time>2016-04-10T10:13:53Z</time>
      </trkpt>
      <trkpt lat="44.33531" lon="3.95855">
        <ele>399.08</ele>
        <time>2016-04-10T10:13:57Z</time>
      </trkpt>
      <trkpt lat="44.33534" lon="3.95858">
        <ele>399.08</ele>
        <time>2016-04-10T10:14:13Z</time>
      </trkpt>
      <trkpt lat="44.3353" lon="3.95856">
        <ele>390.43</ele>
        <time>2016-04-10T10:14:37Z</time>
      </trkpt>
      <trkpt lat="44.33548" lon="3.95841">
        <ele>393.32</ele>
        <time>2016-04-10T10:57:09Z</time>
      </trkpt>
      <trkpt lat="44.33547" lon="3.95848">
        <ele>396.2</ele>
        <time>2016-04-10T10:57:36Z</time>
      </trkpt>
      <trkpt lat="44.33544" lon="3.9585">
        <ele>401.49</ele>
        <time>2016-04-10T10:58:29Z</time>
      </trkpt>
      <trkpt lat="44.33536" lon="3.9585">
        <ele>399.57</ele>
        <time>2016-04-10T10:58:44Z</time>
      </trkpt>
      <trkpt lat="44.33531" lon="3.9584">
        <ele>402.45</ele>
        <time>2016-04-10T10:58:55Z</time>
      </trkpt>
      <trkpt lat="44.33527" lon="3.95841">
        <ele>400.53</ele>
        <time>2016-04-10T11:00:20Z</time>
      </trkpt>
      <trkpt lat="44.33518" lon="3.95815">
        <ele>403.89</ele>
        <time>2016-04-10T11:00:27Z</time>
      </trkpt>
      <trkpt lat="44.33518" lon="3.95809">
        <ele>403.89</ele>
        <time>2016-04-10T11:00:28Z</time>
      </trkpt>
      <trkpt lat="44.33519" lon="3.95803">
        <ele>404.37</ele>
        <time>2016-04-10T11:00:29Z</time>
      </trkpt>
      <trkpt lat="44.33523" lon="3.95798">
        <ele>405.33</ele>
        <time>2016-04-10T11:00:30Z</time>
      </trkpt>
      <trkpt lat="44.33526" lon="3.95794">
        <ele>405.33</ele>
        <time>2016-04-10T11:00:31Z</time>
      </trkpt>
      <trkpt lat="44.33529" lon="3.95792">
        <ele>405.81</ele>
        <time>2016-04-10T11:00:32Z</time>
      </trkpt>
      <trkpt lat="44.33531" lon="3.9579">
        <ele>405.81</ele>
        <time>2016-04-10T11:00:33Z</time>
      </trkpt>
      <trkpt lat="44.33534" lon="3.9579">
        <ele>406.29</ele>
        <time>2016-04-10T11:00:34Z</time>
      </trkpt>
      <trkpt lat="44.33537" lon="3.9579">
        <ele>407.26</ele>
        <time>2016-04-10T11:00:35Z</time>
      </trkpt>
      <trkpt lat="44.3354" lon="3.95791">
        <ele>407.26</ele>
        <time>2016-04-10T11:00:36Z</time>
      </trkpt>
      <trkpt lat="44.33542" lon="3.95792">
        <ele>406.77</ele>
        <time>2016-04-10T11:00:37Z</time>
      </trkpt>
      <trkpt lat="44.33544" lon="3.95794">
        <ele>406.77</ele>
        <time>2016-04-10T11:00:38Z</time>
      </trkpt>
      <trkpt lat="44.33545" lon="3.95795">
        <ele>407.74</ele>
        <time>2016-04-10T11:00:39Z</time>
      </trkpt>
      <trkpt lat="44.33558" lon="3.95799">
        <ele>407.26</ele>
        <time>2016-04-10T11:00:52Z</time>
      </trkpt>
      <trkpt lat="44.33604" lon="3.95814">
        <ele>404.85</ele>
        <time>2016-04-10T11:01:00Z</time>
      </trkpt>
      <trkpt lat="44.3361" lon="3.95814">
        <ele>404.85</ele>
        <time>2016-04-10T11:01:01Z</time>
      </trkpt>
      <trkpt lat="44.33614" lon="3.95812">
        <ele>405.33</ele>
        <time>2016-04-10T11:01:02Z</time>
      </trkpt>
      <trkpt lat="44.33618" lon="3.95809">
        <ele>405.81</ele>
        <time>2016-04-10T11:01:03Z</time>
      </trkpt>
      <trkpt lat="44.33621" lon="3.95803">
        <ele>406.29</ele>
        <time>2016-04-10T11:01:04Z</time>
      </trkpt>
      <trkpt lat="44.33623" lon="3.95794">
        <ele>406.29</ele>
        <time>2016-04-10T11:01:05Z</time>
      </trkpt>
      <trkpt lat="44.33626" lon="3.95784">
        <ele>406.77</ele>
        <time>2016-04-10T11:01:06Z</time>
      </trkpt>
      <trkpt lat="44.33629" lon="3.95773">
        <ele>407.26</ele>
        <time>2016-04-10T11:01:07Z</time>
      </trkpt>
      <trkpt lat="44.33633" lon="3.95761">
        <ele>407.74</ele>
        <time>2016-04-10T11:01:08Z</time>
      </trkpt>
      <trkpt lat="44.33639" lon="3.95751">
        <ele>408.7</ele>
        <time>2016-04-10T11:01:09Z</time>
      </trkpt>
      <trkpt lat="44.33646" lon="3.9574">
        <ele>409.18</ele>
        <time>2016-04-10T11:01:10Z</time>
      </trkpt>
      <trkpt lat="44.33655" lon="3.9573">
        <ele>409.66</ele>
        <time>2016-04-10T11:01:11Z</time>
      </trkpt>
      <trkpt lat="44.33735" lon="3.95646">
        <ele>414.47</ele>
        <time>2016-04-10T11:01:20Z</time>
      </trkpt>
      <trkpt lat="44.33769" lon="3.95619">
        <ele>415.91</ele>
        <time>2016-04-10T11:01:23Z</time>
      </trkpt>
      <trkpt lat="44.33778" lon="3.95608">
        <ele>416.39</ele>
        <time>2016-04-10T11:01:24Z</time>
      </trkpt>
      <trkpt lat="44.33807" lon="3.95574">
        <ele>418.31</ele>
        <time>2016-04-10T11:01:27Z</time>
      </trkpt>
      <trkpt lat="44.33817" lon="3.95565">
        <ele>418.79</ele>
        <time>2016-04-10T11:01:28Z</time>
      </trkpt>
      <trkpt lat="44.33829" lon="3.95559">
        <ele>419.27</ele>
        <time>2016-04-10T11:01:29Z</time>
      </trkpt>
      <trkpt lat="44.33842" lon="3.95555">
        <ele>419.75</ele>
        <time>2016-04-10T11:01:30Z</time>
      </trkpt>
      <trkpt lat="44.33856" lon="3.95552">
        <ele>419.75</ele>
        <time>2016-04-10T11:01:31Z</time>
      </trkpt>
      <trkpt lat="44.33869" lon="3.95547">
        <ele>420.23</ele>
        <time>2016-04-10T11:01:32Z</time>
      </trkpt>
      <trkpt lat="44.33882" lon="3.9554">
        <ele>420.71</ele>
        <time>2016-04-10T11:01:33Z</time>
      </trkpt>
      <trkpt lat="44.33893" lon="3.95531">
        <ele>421.19</ele>
        <time>2016-04-10T11:01:34Z</time>
      </trkpt>
      <trkpt lat="44.33975" lon="3.95469">
        <ele>425.04</ele>
        <time>2016-04-10T11:01:41Z</time>
      </trkpt>
      <trkpt lat="44.33988" lon="3.95467">
        <ele>426</ele>
        <time>2016-04-10T11:01:42Z</time>
      </trkpt>
      <trkpt lat="44.34001" lon="3.95467">
        <ele>426.96</ele>
        <time>2016-04-10T11:01:43Z</time>
      </trkpt>
      <trkpt lat="44.34043" lon="3.95461">
        <ele>429.85</ele>
        <time>2016-04-10T11:01:46Z</time>
      </trkpt>
      <trkpt lat="44.34056" lon="3.95455">
        <ele>430.81</ele>
        <time>2016-04-10T11:01:47Z</time>
      </trkpt>
      <trkpt lat="44.34103" lon="3.95432">
        <ele>434.17</ele>
        <time>2016-04-10T11:01:51Z</time>
      </trkpt>
      <trkpt lat="44.34114" lon="3.95429">
        <ele>434.65</ele>
        <time>2016-04-10T11:01:52Z</time>
      </trkpt>
      <trkpt lat="44.34168" lon="3.9542">
        <ele>437.54</ele>
        <time>2016-04-10T11:01:57Z</time>
      </trkpt>
      <trkpt lat="44.34177" lon="3.95415">
        <ele>438.02</ele>
        <time>2016-04-10T11:01:58Z</time>
      </trkpt>
      <trkpt lat="44.34185" lon="3.95407">
        <ele>438.5</ele>
        <time>2016-04-10T11:01:59Z</time>
      </trkpt>
      <trkpt lat="44.34192" lon="3.95397">
        <ele>439.46</ele>
        <time>2016-04-10T11:02:00Z</time>
      </trkpt>
      <trkpt lat="44.34199" lon="3.95385">
        <ele>441.86</ele>
        <time>2016-04-10T11:02:01Z</time>
      </trkpt>
      <trkpt lat="44.34206" lon="3.95375">
        <ele>441.86</ele>
        <time>2016-04-10T11:02:02Z</time>
      </trkpt>
      <trkpt lat="44.34213" lon="3.95367">
        <ele>442.34</ele>
        <time>2016-04-10T11:02:03Z</time>
      </trkpt>
      <trkpt lat="44.34222" lon="3.95358">
        <ele>443.79</ele>
        <time>2016-04-10T11:02:04Z</time>
      </trkpt>
      <trkpt lat="44.34233" lon="3.95353">
        <ele>444.75</ele>
        <time>2016-04-10T11:02:05Z</time>
      </trkpt>
      <trkpt lat="44.34346" lon="3.95303">
        <ele>450.52</ele>
        <time>2016-04-10T11:02:15Z</time>
      </trkpt>
      <trkpt lat="44.34395" lon="3.95303">
        <ele>454.36</ele>
        <time>2016-04-10T11:02:19Z</time>
      </trkpt>
      <trkpt lat="44.34408" lon="3.95306">
        <ele>454.84</ele>
        <time>2016-04-10T11:02:20Z</time>
      </trkpt>
      <trkpt lat="44.34516" lon="3.95364">
        <ele>456.76</ele>
        <time>2016-04-10T11:02:30Z</time>
      </trkpt>
      <trkpt lat="44.34555" lon="3.95379">
        <ele>458.21</ele>
        <time>2016-04-10T11:02:34Z</time>
      </trkpt>
      <trkpt lat="44.34565" lon="3.95374">
        <ele>458.21</ele>
        <time>2016-04-10T11:02:35Z</time>
      </trkpt>
      <trkpt lat="44.34574" lon="3.95367">
        <ele>458.21</ele>
        <time>2016-04-10T11:02:36Z</time>
      </trkpt>
      <trkpt lat="44.34582" lon="3.95359">
        <ele>458.69</ele>
        <time>2016-04-10T11:02:37Z</time>
      </trkpt>
      <trkpt lat="44.34591" lon="3.95351">
        <ele>459.17</ele>
        <time>2016-04-10T11:02:38Z</time>
      </trkpt>
      <trkpt lat="44.34673" lon="3.95274">
        <ele>465.9</ele>
        <time>2016-04-10T11:02:48Z</time>
      </trkpt>
      <trkpt lat="44.34738" lon="3.95212">
        <ele>472.63</ele>
        <time>2016-04-10T11:02:56Z</time>
      </trkpt>
      <trkpt lat="44.34746" lon="3.95208">
        <ele>474.07</ele>
        <time>2016-04-10T11:02:57Z</time>
      </trkpt>
      <trkpt lat="44.34754" lon="3.95209">
        <ele>475.51</ele>
        <time>2016-04-10T11:02:58Z</time>
      </trkpt>
      <trkpt lat="44.34763" lon="3.95212">
        <ele>475.99</ele>
        <time>2016-04-10T11:02:59Z</time>
      </trkpt>
      <trkpt lat="44.34772" lon="3.95217">
        <ele>476.47</ele>
        <time>2016-04-10T11:03:00Z</time>
      </trkpt>
      <trkpt lat="44.34781" lon="3.9522">
        <ele>476.95</ele>
        <time>2016-04-10T11:03:01Z</time>
      </trkpt>
      <trkpt lat="44.34788" lon="3.9522">
        <ele>477.91</ele>
        <time>2016-04-10T11:03:02Z</time>
      </trkpt>
      <trkpt lat="44.34793" lon="3.95216">
        <ele>478.39</ele>
        <time>2016-04-10T11:03:03Z</time>
      </trkpt>
      <trkpt lat="44.34797" lon="3.95207">
        <ele>478.39</ele>
        <time>2016-04-10T11:03:04Z</time>
      </trkpt>
      <trkpt lat="44.34799" lon="3.95198">
        <ele>478.87</ele>
        <time>2016-04-10T11:03:05Z</time>
      </trkpt>
      <trkpt lat="44.34801" lon="3.95189">
        <ele>478.87</ele>
        <time>2016-04-10T11:03:06Z</time>
      </trkpt>
      <trkpt lat="44.34803" lon="3.9518">
        <ele>479.35</ele>
        <time>2016-04-10T11:03:07Z</time>
      </trkpt>
      <trkpt lat="44.34811" lon="3.9514">
        <ele>480.8</ele>
        <time>2016-04-10T11:03:14Z</time>
      </trkpt>
      <trkpt lat="44.34815" lon="3.95134">
        <ele>481.28</ele>
        <time>2016-04-10T11:03:15Z</time>
      </trkpt>
      <trkpt lat="44.34819" lon="3.95128">
        <ele>482.24</ele>
        <time>2016-04-10T11:03:16Z</time>
      </trkpt>
      <trkpt lat="44.34826" lon="3.95121">
        <ele>482.24</ele>
        <time>2016-04-10T11:03:17Z</time>
      </trkpt>
      <trkpt lat="44.34832" lon="3.95115">
        <ele>482.72</ele>
        <time>2016-04-10T11:03:18Z</time>
      </trkpt>
      <trkpt lat="44.34883" lon="3.95072">
        <ele>492.33</ele>
        <time>2016-04-10T11:03:27Z</time>
      </trkpt>
      <trkpt lat="44.34886" lon="3.95067">
        <ele>491.85</ele>
        <time>2016-04-10T11:03:28Z</time>
      </trkpt>
      <trkpt lat="44.34882" lon="3.95053">
        <ele>494.74</ele>
        <time>2016-04-10T11:03:29Z</time>
      </trkpt>
      <trkpt lat="44.34881" lon="3.95046">
        <ele>495.7</ele>
        <time>2016-04-10T11:03:30Z</time>
      </trkpt>
      <trkpt lat="44.34877" lon="3.95039">
        <ele>495.22</ele>
        <time>2016-04-10T11:03:31Z</time>
      </trkpt>
      <trkpt lat="44.34873" lon="3.95034">
        <ele>495.22</ele>
        <time>2016-04-10T11:03:32Z</time>
      </trkpt>
      <trkpt lat="44.34868" lon="3.95027">
        <ele>494.74</ele>
        <time>2016-04-10T11:03:33Z</time>
      </trkpt>
      <trkpt lat="44.34865" lon="3.95022">
        <ele>493.77</ele>
        <time>2016-04-10T11:03:34Z</time>
      </trkpt>
      <trkpt lat="44.34857" lon="3.94997">
        <ele>491.85</ele>
        <time>2016-04-10T11:03:41Z</time>
      </trkpt>
      <trkpt lat="44.34858" lon="3.94994">
        <ele>492.33</ele>
        <time>2016-04-10T11:03:42Z</time>
      </trkpt>
      <trkpt lat="44.3486" lon="3.94992">
        <ele>492.81</ele>
        <time>2016-04-10T11:03:43Z</time>
      </trkpt>
      <trkpt lat="44.34863" lon="3.9499">
        <ele>492.81</ele>
        <time>2016-04-10T11:03:44Z</time>
      </trkpt>
      <trkpt lat="44.34867" lon="3.94989">
        <ele>493.29</ele>
        <time>2016-04-10T11:03:45Z</time>
      </trkpt>
      <trkpt lat="44.34871" lon="3.94988">
        <ele>494.74</ele>
        <time>2016-04-10T11:03:46Z</time>
      </trkpt>
      <trkpt lat="44.34894" lon="3.94987">
        <ele>499.54</ele>
        <time>2016-04-10T11:03:55Z</time>
      </trkpt>
      <trkpt lat="44.34894" lon="3.94988">
        <ele>503.39</ele>
        <time>2016-04-10T11:04:06Z</time>
      </trkpt>
      <trkpt lat="44.34895" lon="3.9499">
        <ele>488.01</ele>
        <time>2016-04-10T11:04:38Z</time>
      </trkpt>
      <trkpt lat="44.34895" lon="3.9499">
        <ele>482.24</ele>
        <time>2016-04-10T11:04:50Z</time>
      </trkpt>
      <trkpt lat="44.34878" lon="3.94986">
        <ele>534.15</ele>
        <time>2016-04-10T11:40:58Z</time>
      </trkpt>
      <trkpt lat="44.34879" lon="3.94974">
        <ele>527.42</ele>
        <time>2016-04-10T11:41:27Z</time>
      </trkpt>
      <trkpt lat="44.34894" lon="3.94977">
        <ele>497.62</ele>
        <time>2016-04-10T11:41:56Z</time>
      </trkpt>
      <trkpt lat="44.34892" lon="3.94976">
        <ele>503.87</ele>
        <time>2016-04-10T11:42:43Z</time>
      </trkpt>
      <trkpt lat="44.34894" lon="3.94977">
        <ele>502.43</ele>
        <time>2016-04-10T11:42:51Z</time>
      </trkpt>
      <trkpt lat="44.3489" lon="3.94975">
        <ele>496.66</ele>
        <time>2016-04-10T11:43:00Z</time>
      </trkpt>
      <trkpt lat="44.34875" lon="3.94983">
        <ele>491.37</ele>
        <time>2016-04-10T11:43:10Z</time>
      </trkpt>
      <trkpt lat="44.34859" lon="3.94987">
        <ele>493.77</ele>
        <time>2016-04-10T11:43:23Z</time>
      </trkpt>
      <trkpt lat="44.34849" lon="3.94982">
        <ele>487.53</ele>
        <time>2016-04-10T11:43:56Z</time>
      </trkpt>
      <trkpt lat="44.34846" lon="3.94974">
        <ele>487.05</ele>
        <time>2016-04-10T11:43:57Z</time>
      </trkpt>
      <trkpt lat="44.34843" lon="3.94966">
        <ele>487.05</ele>
        <time>2016-04-10T11:43:58Z</time>
      </trkpt>
      <trkpt lat="44.348" lon="3.94872">
        <ele>492.33</ele>
        <time>2016-04-10T11:44:10Z</time>
      </trkpt>
      <trkpt lat="44.34788" lon="3.94846">
        <ele>498.58</ele>
        <time>2016-04-10T11:44:19Z</time>
      </trkpt>
      <trkpt lat="44.34782" lon="3.94841">
        <ele>508.19</ele>
        <time>2016-04-10T11:44:46Z</time>
      </trkpt>
      <trkpt lat="44.34783" lon="3.94839">
        <ele>508.19</ele>
        <time>2016-04-10T11:44:47Z</time>
      </trkpt>
      <trkpt lat="44.34784" lon="3.94837">
        <ele>508.67</ele>
        <time>2016-04-10T11:44:48Z</time>
      </trkpt>
      <trkpt lat="44.34787" lon="3.94835">
        <ele>508.67</ele>
        <time>2016-04-10T11:44:49Z</time>
      </trkpt>
      <trkpt lat="44.34792" lon="3.94834">
        <ele>508.67</ele>
        <time>2016-04-10T11:44:50Z</time>
      </trkpt>
      <trkpt lat="44.348" lon="3.94832">
        <ele>508.19</ele>
        <time>2016-04-10T11:44:51Z</time>
      </trkpt>
      <trkpt lat="44.34811" lon="3.94832">
        <ele>508.19</ele>
        <time>2016-04-10T11:44:52Z</time>
      </trkpt>
      <trkpt lat="44.3482" lon="3.9483">
        <ele>507.23</ele>
        <time>2016-04-10T11:44:53Z</time>
      </trkpt>
      <trkpt lat="44.34917" lon="3.94812">
        <ele>508.67</ele>
        <time>2016-04-10T11:45:02Z</time>
      </trkpt>
      <trkpt lat="44.35018" lon="3.94791">
        <ele>513</ele>
        <time>2016-04-10T11:45:12Z</time>
      </trkpt>
      <trkpt lat="44.35062" lon="3.94778">
        <ele>513.96</ele>
        <time>2016-04-10T11:45:17Z</time>
      </trkpt>
      <trkpt lat="44.35071" lon="3.94773">
        <ele>513.96</ele>
        <time>2016-04-10T11:45:18Z</time>
      </trkpt>
      <trkpt lat="44.35081" lon="3.94767">
        <ele>514.44</ele>
        <time>2016-04-10T11:45:19Z</time>
      </trkpt>
      <trkpt lat="44.35092" lon="3.94761">
        <ele>514.92</ele>
        <time>2016-04-10T11:45:20Z</time>
      </trkpt>
      <trkpt lat="44.35102" lon="3.94753">
        <ele>515.4</ele>
        <time>2016-04-10T11:45:21Z</time>
      </trkpt>
      <trkpt lat="44.35111" lon="3.94745">
        <ele>515.88</ele>
        <time>2016-04-10T11:45:22Z</time>
      </trkpt>
      <trkpt lat="44.35199" lon="3.94662">
        <ele>520.69</ele>
        <time>2016-04-10T11:45:31Z</time>
      </trkpt>
      <trkpt lat="44.35243" lon="3.94633">
        <ele>523.09</ele>
        <time>2016-04-10T11:45:35Z</time>
      </trkpt>
      <trkpt lat="44.35256" lon="3.9463">
        <ele>523.58</ele>
        <time>2016-04-10T11:45:36Z</time>
      </trkpt>
      <trkpt lat="44.3527" lon="3.94628">
        <ele>524.54</ele>
        <time>2016-04-10T11:45:37Z</time>
      </trkpt>
      <trkpt lat="44.35313" lon="3.94634">
        <ele>526.94</ele>
        <time>2016-04-10T11:45:41Z</time>
      </trkpt>
      <trkpt lat="44.35323" lon="3.94644">
        <ele>525.98</ele>
        <time>2016-04-10T11:45:42Z</time>
      </trkpt>
      <trkpt lat="44.35329" lon="3.94663">
        <ele>525.5</ele>
        <time>2016-04-10T11:45:43Z</time>
      </trkpt>
      <trkpt lat="44.35335" lon="3.94679">
        <ele>525.98</ele>
        <time>2016-04-10T11:45:44Z</time>
      </trkpt>
      <trkpt lat="44.35339" lon="3.94698">
        <ele>525.98</ele>
        <time>2016-04-10T11:45:45Z</time>
      </trkpt>
      <trkpt lat="44.35344" lon="3.94716">
        <ele>525.98</ele>
        <time>2016-04-10T11:45:46Z</time>
      </trkpt>
      <trkpt lat="44.35364" lon="3.94786">
        <ele>525.5</ele>
        <time>2016-04-10T11:45:50Z</time>
      </trkpt>
      <trkpt lat="44.35363" lon="3.94804">
        <ele>525.5</ele>
        <time>2016-04-10T11:45:51Z</time>
      </trkpt>
      <trkpt lat="44.35359" lon="3.94824">
        <ele>525.02</ele>
        <time>2016-04-10T11:45:52Z</time>
      </trkpt>
      <trkpt lat="44.35353" lon="3.94843">
        <ele>525.5</ele>
        <time>2016-04-10T11:45:53Z</time>
      </trkpt>
      <trkpt lat="44.35344" lon="3.94861">
        <ele>525.98</ele>
        <time>2016-04-10T11:45:54Z</time>
      </trkpt>
      <trkpt lat="44.35336" lon="3.94878">
        <ele>526.94</ele>
        <time>2016-04-10T11:45:55Z</time>
      </trkpt>
      <trkpt lat="44.35327" lon="3.94895">
        <ele>527.9</ele>
        <time>2016-04-10T11:45:56Z</time>
      </trkpt>
      <trkpt lat="44.35297" lon="3.94959">
        <ele>531.75</ele>
        <time>2016-04-10T11:46:00Z</time>
      </trkpt>
      <trkpt lat="44.35291" lon="3.94992">
        <ele>532.23</ele>
        <time>2016-04-10T11:46:02Z</time>
      </trkpt>
      <trkpt lat="44.35305" lon="3.95019">
        <ele>531.75</ele>
        <time>2016-04-10T11:46:04Z</time>
      </trkpt>
      <trkpt lat="44.35312" lon="3.95031">
        <ele>532.23</ele>
        <time>2016-04-10T11:46:05Z</time>
      </trkpt>
      <trkpt lat="44.35322" lon="3.9504">
        <ele>533.19</ele>
        <time>2016-04-10T11:46:06Z</time>
      </trkpt>
      <trkpt lat="44.35337" lon="3.95046">
        <ele>534.63</ele>
        <time>2016-04-10T11:46:07Z</time>
      </trkpt>
      <trkpt lat="44.35346" lon="3.95055">
        <ele>536.07</ele>
        <time>2016-04-10T11:46:08Z</time>
      </trkpt>
      <trkpt lat="44.35353" lon="3.95067">
        <ele>537.03</ele>
        <time>2016-04-10T11:46:09Z</time>
      </trkpt>
      <trkpt lat="44.35356" lon="3.95083">
        <ele>537.03</ele>
        <time>2016-04-10T11:46:10Z</time>
      </trkpt>
      <trkpt lat="44.35354" lon="3.95098">
        <ele>536.55</ele>
        <time>2016-04-10T11:46:11Z</time>
      </trkpt>
      <trkpt lat="44.35348" lon="3.95111">
        <ele>535.59</ele>
        <time>2016-04-10T11:46:12Z</time>
      </trkpt>
      <trkpt lat="44.3533" lon="3.95122">
        <ele>537.99</ele>
        <time>2016-04-10T11:46:13Z</time>
      </trkpt>
      <trkpt lat="44.35318" lon="3.95136">
        <ele>539.44</ele>
        <time>2016-04-10T11:46:14Z</time>
      </trkpt>
      <trkpt lat="44.35268" lon="3.95221">
        <ele>543.76</ele>
        <time>2016-04-10T11:46:21Z</time>
      </trkpt>
      <trkpt lat="44.35231" lon="3.95292">
        <ele>547.61</ele>
        <time>2016-04-10T11:46:28Z</time>
      </trkpt>
      <trkpt lat="44.35229" lon="3.953">
        <ele>548.09</ele>
        <time>2016-04-10T11:46:29Z</time>
      </trkpt>
      <trkpt lat="44.35228" lon="3.95307">
        <ele>548.57</ele>
        <time>2016-04-10T11:46:30Z</time>
      </trkpt>
      <trkpt lat="44.35228" lon="3.95314">
        <ele>548.57</ele>
        <time>2016-04-10T11:46:31Z</time>
      </trkpt>
      <trkpt lat="44.35232" lon="3.95322">
        <ele>549.05</ele>
        <time>2016-04-10T11:46:32Z</time>
      </trkpt>
      <trkpt lat="44.35236" lon="3.95331">
        <ele>549.53</ele>
        <time>2016-04-10T11:46:33Z</time>
      </trkpt>
      <trkpt lat="44.35246" lon="3.9534">
        <ele>549.53</ele>
        <time>2016-04-10T11:46:34Z</time>
      </trkpt>
      <trkpt lat="44.35258" lon="3.95348">
        <ele>549.53</ele>
        <time>2016-04-10T11:46:35Z</time>
      </trkpt>
      <trkpt lat="44.35271" lon="3.95351">
        <ele>550.01</ele>
        <time>2016-04-10T11:46:36Z</time>
      </trkpt>
      <trkpt lat="44.35284" lon="3.95354">
        <ele>550.01</ele>
        <time>2016-04-10T11:46:37Z</time>
      </trkpt>
      <trkpt lat="44.35298" lon="3.95353">
        <ele>550.49</ele>
        <time>2016-04-10T11:46:38Z</time>
      </trkpt>
      <trkpt lat="44.35313" lon="3.95349">
        <ele>551.45</ele>
        <time>2016-04-10T11:46:39Z</time>
      </trkpt>
      <trkpt lat="44.35328" lon="3.95344">
        <ele>552.9</ele>
        <time>2016-04-10T11:46:40Z</time>
      </trkpt>
      <trkpt lat="44.35473" lon="3.95313">
        <ele>557.7</ele>
        <time>2016-04-10T11:46:49Z</time>
      </trkpt>
      <trkpt lat="44.35486" lon="3.95321">
        <ele>557.7</ele>
        <time>2016-04-10T11:46:50Z</time>
      </trkpt>
      <trkpt lat="44.355" lon="3.95337">
        <ele>558.18</ele>
        <time>2016-04-10T11:46:51Z</time>
      </trkpt>
      <trkpt lat="44.35513" lon="3.95355">
        <ele>558.66</ele>
        <time>2016-04-10T11:46:52Z</time>
      </trkpt>
      <trkpt lat="44.35525" lon="3.95374">
        <ele>559.14</ele>
        <time>2016-04-10T11:46:53Z</time>
      </trkpt>
      <trkpt lat="44.35536" lon="3.95394">
        <ele>559.62</ele>
        <time>2016-04-10T11:46:54Z</time>
      </trkpt>
      <trkpt lat="44.35546" lon="3.95416">
        <ele>560.11</ele>
        <time>2016-04-10T11:46:55Z</time>
      </trkpt>
      <trkpt lat="44.35549" lon="3.95438">
        <ele>560.59</ele>
        <time>2016-04-10T11:46:56Z</time>
      </trkpt>
      <trkpt lat="44.35547" lon="3.95464">
        <ele>560.59</ele>
        <time>2016-04-10T11:46:57Z</time>
      </trkpt>
      <trkpt lat="44.35545" lon="3.95487">
        <ele>560.11</ele>
        <time>2016-04-10T11:46:58Z</time>
      </trkpt>
      <trkpt lat="44.35545" lon="3.95507">
        <ele>559.62</ele>
        <time>2016-04-10T11:46:59Z</time>
      </trkpt>
      <trkpt lat="44.35547" lon="3.95526">
        <ele>559.14</ele>
        <time>2016-04-10T11:47:00Z</time>
      </trkpt>
      <trkpt lat="44.35554" lon="3.95541">
        <ele>558.18</ele>
        <time>2016-04-10T11:47:01Z</time>
      </trkpt>
      <trkpt lat="44.35567" lon="3.95553">
        <ele>558.66</ele>
        <time>2016-04-10T11:47:02Z</time>
      </trkpt>
      <trkpt lat="44.35581" lon="3.95568">
        <ele>558.18</ele>
        <time>2016-04-10T11:47:03Z</time>
      </trkpt>
      <trkpt lat="44.35599" lon="3.95576">
        <ele>558.18</ele>
        <time>2016-04-10T11:47:04Z</time>
      </trkpt>
      <trkpt lat="44.35619" lon="3.9558">
        <ele>558.18</ele>
        <time>2016-04-10T11:47:05Z</time>
      </trkpt>
      <trkpt lat="44.35638" lon="3.95582">
        <ele>558.66</ele>
        <time>2016-04-10T11:47:06Z</time>
      </trkpt>
      <trkpt lat="44.35659" lon="3.9558">
        <ele>559.14</ele>
        <time>2016-04-10T11:47:07Z</time>
      </trkpt>
      <trkpt lat="44.35678" lon="3.95574">
        <ele>559.62</ele>
        <time>2016-04-10T11:47:08Z</time>
      </trkpt>
      <trkpt lat="44.35698" lon="3.95569">
        <ele>560.59</ele>
        <time>2016-04-10T11:47:09Z</time>
      </trkpt>
      <trkpt lat="44.35719" lon="3.9556">
        <ele>561.55</ele>
        <time>2016-04-10T11:47:10Z</time>
      </trkpt>
      <trkpt lat="44.35735" lon="3.95548">
        <ele>562.99</ele>
        <time>2016-04-10T11:47:11Z</time>
      </trkpt>
      <trkpt lat="44.35753" lon="3.9554">
        <ele>564.43</ele>
        <time>2016-04-10T11:47:12Z</time>
      </trkpt>
      <trkpt lat="44.35784" lon="3.95515">
        <ele>566.35</ele>
        <time>2016-04-10T11:47:14Z</time>
      </trkpt>
      <trkpt lat="44.35797" lon="3.95497">
        <ele>567.32</ele>
        <time>2016-04-10T11:47:15Z</time>
      </trkpt>
      <trkpt lat="44.35803" lon="3.95474">
        <ele>567.8</ele>
        <time>2016-04-10T11:47:16Z</time>
      </trkpt>
      <trkpt lat="44.35803" lon="3.9545">
        <ele>566.35</ele>
        <time>2016-04-10T11:47:17Z</time>
      </trkpt>
      <trkpt lat="44.35795" lon="3.95423">
        <ele>566.35</ele>
        <time>2016-04-10T11:47:18Z</time>
      </trkpt>
      <trkpt lat="44.3579" lon="3.95393">
        <ele>565.87</ele>
        <time>2016-04-10T11:47:19Z</time>
      </trkpt>
      <trkpt lat="44.35786" lon="3.95364">
        <ele>565.87</ele>
        <time>2016-04-10T11:47:20Z</time>
      </trkpt>
      <trkpt lat="44.35791" lon="3.9528">
        <ele>568.28</ele>
        <time>2016-04-10T11:47:23Z</time>
      </trkpt>
      <trkpt lat="44.35802" lon="3.95256">
        <ele>567.8</ele>
        <time>2016-04-10T11:47:24Z</time>
      </trkpt>
      <trkpt lat="44.35814" lon="3.95231">
        <ele>570.2</ele>
        <time>2016-04-10T11:47:25Z</time>
      </trkpt>
      <trkpt lat="44.35819" lon="3.95202">
        <ele>570.68</ele>
        <time>2016-04-10T11:47:26Z</time>
      </trkpt>
      <trkpt lat="44.35823" lon="3.95175">
        <ele>571.64</ele>
        <time>2016-04-10T11:47:27Z</time>
      </trkpt>
      <trkpt lat="44.35856" lon="3.95109">
        <ele>572.12</ele>
        <time>2016-04-10T11:47:31Z</time>
      </trkpt>
      <trkpt lat="44.35873" lon="3.9511">
        <ele>571.64</ele>
        <time>2016-04-10T11:47:32Z</time>
      </trkpt>
      <trkpt lat="44.35898" lon="3.95118">
        <ele>574.53</ele>
        <time>2016-04-10T11:47:33Z</time>
      </trkpt>
      <trkpt lat="44.35918" lon="3.95123">
        <ele>575.49</ele>
        <time>2016-04-10T11:47:34Z</time>
      </trkpt>
      <trkpt lat="44.35939" lon="3.95129">
        <ele>575.49</ele>
        <time>2016-04-10T11:47:35Z</time>
      </trkpt>
      <trkpt lat="44.35957" lon="3.9513">
        <ele>575.97</ele>
        <time>2016-04-10T11:47:36Z</time>
      </trkpt>
      <trkpt lat="44.35974" lon="3.95125">
        <ele>576.45</ele>
        <time>2016-04-10T11:47:37Z</time>
      </trkpt>
      <trkpt lat="44.3599" lon="3.95113">
        <ele>576.45</ele>
        <time>2016-04-10T11:47:38Z</time>
      </trkpt>
      <trkpt lat="44.36003" lon="3.95095">
        <ele>576.93</ele>
        <time>2016-04-10T11:47:39Z</time>
      </trkpt>
      <trkpt lat="44.36011" lon="3.95071">
        <ele>576.45</ele>
        <time>2016-04-10T11:47:40Z</time>
      </trkpt>
      <trkpt lat="44.36017" lon="3.95041">
        <ele>575.97</ele>
        <time>2016-04-10T11:47:41Z</time>
      </trkpt>
      <trkpt lat="44.36024" lon="3.95011">
        <ele>576.93</ele>
        <time>2016-04-10T11:47:42Z</time>
      </trkpt>
      <trkpt lat="44.36031" lon="3.94982">
        <ele>577.41</ele>
        <time>2016-04-10T11:47:43Z</time>
      </trkpt>
      <trkpt lat="44.36052" lon="3.9484">
        <ele>578.85</ele>
        <time>2016-04-10T11:47:48Z</time>
      </trkpt>
      <trkpt lat="44.36052" lon="3.94809">
        <ele>579.81</ele>
        <time>2016-04-10T11:47:49Z</time>
      </trkpt>
      <trkpt lat="44.36056" lon="3.94777">
        <ele>580.29</ele>
        <time>2016-04-10T11:47:50Z</time>
      </trkpt>
      <trkpt lat="44.36063" lon="3.94746">
        <ele>580.77</ele>
        <time>2016-04-10T11:47:51Z</time>
      </trkpt>
      <trkpt lat="44.36072" lon="3.94715">
        <ele>581.25</ele>
        <time>2016-04-10T11:47:52Z</time>
      </trkpt>
      <trkpt lat="44.36082" lon="3.94684">
        <ele>581.73</ele>
        <time>2016-04-10T11:47:53Z</time>
      </trkpt>
      <trkpt lat="44.36115" lon="3.94576">
        <ele>583.18</ele>
        <time>2016-04-10T11:47:57Z</time>
      </trkpt>
      <trkpt lat="44.36117" lon="3.94552">
        <ele>583.66</ele>
        <time>2016-04-10T11:47:58Z</time>
      </trkpt>
      <trkpt lat="44.36115" lon="3.94528">
        <ele>584.62</ele>
        <time>2016-04-10T11:47:59Z</time>
      </trkpt>
      <trkpt lat="44.36109" lon="3.94508">
        <ele>584.62</ele>
        <time>2016-04-10T11:48:00Z</time>
      </trkpt>
      <trkpt lat="44.36103" lon="3.94484">
        <ele>585.1</ele>
        <time>2016-04-10T11:48:01Z</time>
      </trkpt>
      <trkpt lat="44.361" lon="3.94458">
        <ele>585.58</ele>
        <time>2016-04-10T11:48:02Z</time>
      </trkpt>
      <trkpt lat="44.36103" lon="3.94432">
        <ele>586.54</ele>
        <time>2016-04-10T11:48:03Z</time>
      </trkpt>
      <trkpt lat="44.36105" lon="3.94405">
        <ele>586.54</ele>
        <time>2016-04-10T11:48:04Z</time>
      </trkpt>
      <trkpt lat="44.36107" lon="3.94378">
        <ele>587.02</ele>
        <time>2016-04-10T11:48:05Z</time>
      </trkpt>
      <trkpt lat="44.36106" lon="3.94352">
        <ele>587.02</ele>
        <time>2016-04-10T11:48:06Z</time>
      </trkpt>
      <trkpt lat="44.36103" lon="3.94329">
        <ele>587.02</ele>
        <time>2016-04-10T11:48:07Z</time>
      </trkpt>
      <trkpt lat="44.36095" lon="3.94308">
        <ele>587.98</ele>
        <time>2016-04-10T11:48:08Z</time>
      </trkpt>
      <trkpt lat="44.36091" lon="3.94288">
        <ele>588.95</ele>
        <time>2016-04-10T11:48:09Z</time>
      </trkpt>
      <trkpt lat="44.36091" lon="3.94271">
        <ele>588.46</ele>
        <time>2016-04-10T11:48:10Z</time>
      </trkpt>
      <trkpt lat="44.36096" lon="3.94252">
        <ele>588.46</ele>
        <time>2016-04-10T11:48:11Z</time>
      </trkpt>
      <trkpt lat="44.36105" lon="3.94236">
        <ele>587.98</ele>
        <time>2016-04-10T11:48:12Z</time>
      </trkpt>
      <trkpt lat="44.36118" lon="3.94221">
        <ele>587.02</ele>
        <time>2016-04-10T11:48:13Z</time>
      </trkpt>
      <trkpt lat="44.36129" lon="3.94203">
        <ele>587.02</ele>
        <time>2016-04-10T11:48:14Z</time>
      </trkpt>
      <trkpt lat="44.36136" lon="3.94182">
        <ele>587.5</ele>
        <time>2016-04-10T11:48:15Z</time>
      </trkpt>
      <trkpt lat="44.36142" lon="3.94162">
        <ele>588.46</ele>
        <time>2016-04-10T11:48:16Z</time>
      </trkpt>
      <trkpt lat="44.3615" lon="3.9415">
        <ele>589.43</ele>
        <time>2016-04-10T11:48:17Z</time>
      </trkpt>
      <trkpt lat="44.36174" lon="3.9413">
        <ele>590.39</ele>
        <time>2016-04-10T11:48:19Z</time>
      </trkpt>
      <trkpt lat="44.3619" lon="3.94123">
        <ele>589.91</ele>
        <time>2016-04-10T11:48:20Z</time>
      </trkpt>
      <trkpt lat="44.36209" lon="3.94119">
        <ele>589.91</ele>
        <time>2016-04-10T11:48:21Z</time>
      </trkpt>
      <trkpt lat="44.36233" lon="3.94113">
        <ele>590.39</ele>
        <time>2016-04-10T11:48:22Z</time>
      </trkpt>
      <trkpt lat="44.36256" lon="3.94108">
        <ele>591.35</ele>
        <time>2016-04-10T11:48:23Z</time>
      </trkpt>
      <trkpt lat="44.36313" lon="3.94065">
        <ele>593.75</ele>
        <time>2016-04-10T11:48:26Z</time>
      </trkpt>
      <trkpt lat="44.36341" lon="3.94041">
        <ele>593.75</ele>
        <time>2016-04-10T11:48:28Z</time>
      </trkpt>
      <trkpt lat="44.36357" lon="3.94041">
        <ele>594.23</ele>
        <time>2016-04-10T11:48:29Z</time>
      </trkpt>
      <trkpt lat="44.36371" lon="3.94044">
        <ele>593.75</ele>
        <time>2016-04-10T11:48:30Z</time>
      </trkpt>
      <trkpt lat="44.36385" lon="3.94062">
        <ele>595.19</ele>
        <time>2016-04-10T11:48:31Z</time>
      </trkpt>
      <trkpt lat="44.364" lon="3.94077">
        <ele>595.67</ele>
        <time>2016-04-10T11:48:32Z</time>
      </trkpt>
      <trkpt lat="44.36416" lon="3.94093">
        <ele>597.12</ele>
        <time>2016-04-10T11:48:33Z</time>
      </trkpt>
      <trkpt lat="44.36433" lon="3.94107">
        <ele>597.6</ele>
        <time>2016-04-10T11:48:34Z</time>
      </trkpt>
      <trkpt lat="44.36453" lon="3.94114">
        <ele>597.6</ele>
        <time>2016-04-10T11:48:35Z</time>
      </trkpt>
      <trkpt lat="44.36472" lon="3.94113">
        <ele>599.52</ele>
        <time>2016-04-10T11:48:36Z</time>
      </trkpt>
      <trkpt lat="44.3649" lon="3.94109">
        <ele>600.48</ele>
        <time>2016-04-10T11:48:37Z</time>
      </trkpt>
      <trkpt lat="44.36509" lon="3.9409">
        <ele>600.48</ele>
        <time>2016-04-10T11:48:38Z</time>
      </trkpt>
      <trkpt lat="44.36524" lon="3.94077">
        <ele>600.48</ele>
        <time>2016-04-10T11:48:39Z</time>
      </trkpt>
      <trkpt lat="44.36538" lon="3.94062">
        <ele>600.96</ele>
        <time>2016-04-10T11:48:40Z</time>
      </trkpt>
      <trkpt lat="44.36554" lon="3.94053">
        <ele>601.44</ele>
        <time>2016-04-10T11:48:41Z</time>
      </trkpt>
      <trkpt lat="44.36603" lon="3.94058">
        <ele>602.88</ele>
        <time>2016-04-10T11:48:44Z</time>
      </trkpt>
      <trkpt lat="44.3662" lon="3.94077">
        <ele>605.29</ele>
        <time>2016-04-10T11:48:45Z</time>
      </trkpt>
      <trkpt lat="44.36619" lon="3.94108">
        <ele>604.33</ele>
        <time>2016-04-10T11:48:46Z</time>
      </trkpt>
      <trkpt lat="44.36618" lon="3.94135">
        <ele>604.33</ele>
        <time>2016-04-10T11:48:47Z</time>
      </trkpt>
      <trkpt lat="44.36614" lon="3.94166">
        <ele>605.77</ele>
        <time>2016-04-10T11:48:48Z</time>
      </trkpt>
      <trkpt lat="44.36602" lon="3.94191">
        <ele>605.29</ele>
        <time>2016-04-10T11:48:49Z</time>
      </trkpt>
      <trkpt lat="44.36589" lon="3.94214">
        <ele>604.81</ele>
        <time>2016-04-10T11:48:50Z</time>
      </trkpt>
      <trkpt lat="44.36573" lon="3.9424">
        <ele>605.29</ele>
        <time>2016-04-10T11:48:51Z</time>
      </trkpt>
      <trkpt lat="44.36556" lon="3.94268">
        <ele>607.21</ele>
        <time>2016-04-10T11:48:52Z</time>
      </trkpt>
      <trkpt lat="44.36541" lon="3.94291">
        <ele>608.17</ele>
        <time>2016-04-10T11:48:53Z</time>
      </trkpt>
      <trkpt lat="44.3647" lon="3.944">
        <ele>612.02</ele>
        <time>2016-04-10T11:48:59Z</time>
      </trkpt>
      <trkpt lat="44.36436" lon="3.94452">
        <ele>613.94</ele>
        <time>2016-04-10T11:49:02Z</time>
      </trkpt>
      <trkpt lat="44.36429" lon="3.94473">
        <ele>614.42</ele>
        <time>2016-04-10T11:49:03Z</time>
      </trkpt>
      <trkpt lat="44.36426" lon="3.94496">
        <ele>614.9</ele>
        <time>2016-04-10T11:49:04Z</time>
      </trkpt>
      <trkpt lat="44.36431" lon="3.94523">
        <ele>614.9</ele>
        <time>2016-04-10T11:49:05Z</time>
      </trkpt>
      <trkpt lat="44.36438" lon="3.94551">
        <ele>614.42</ele>
        <time>2016-04-10T11:49:06Z</time>
      </trkpt>
      <trkpt lat="44.36446" lon="3.94585">
        <ele>615.38</ele>
        <time>2016-04-10T11:49:07Z</time>
      </trkpt>
      <trkpt lat="44.36458" lon="3.94755">
        <ele>618.75</ele>
        <time>2016-04-10T11:49:12Z</time>
      </trkpt>
      <trkpt lat="44.36465" lon="3.94802">
        <ele>621.15</ele>
        <time>2016-04-10T11:49:14Z</time>
      </trkpt>
      <trkpt lat="44.36475" lon="3.94816">
        <ele>621.63</ele>
        <time>2016-04-10T11:49:15Z</time>
      </trkpt>
      <trkpt lat="44.36486" lon="3.94828">
        <ele>621.15</ele>
        <time>2016-04-10T11:49:16Z</time>
      </trkpt>
      <trkpt lat="44.36502" lon="3.94835">
        <ele>621.63</ele>
        <time>2016-04-10T11:49:17Z</time>
      </trkpt>
      <trkpt lat="44.36524" lon="3.94835">
        <ele>621.15</ele>
        <time>2016-04-10T11:49:18Z</time>
      </trkpt>
      <trkpt lat="44.36547" lon="3.94829">
        <ele>622.59</ele>
        <time>2016-04-10T11:49:19Z</time>
      </trkpt>
      <trkpt lat="44.3657" lon="3.94826">
        <ele>623.55</ele>
        <time>2016-04-10T11:49:20Z</time>
      </trkpt>
      <trkpt lat="44.36615" lon="3.94826">
        <ele>624.99</ele>
        <time>2016-04-10T11:49:22Z</time>
      </trkpt>
      <trkpt lat="44.36636" lon="3.94833">
        <ele>625.47</ele>
        <time>2016-04-10T11:49:23Z</time>
      </trkpt>
      <trkpt lat="44.36656" lon="3.94845">
        <ele>626.44</ele>
        <time>2016-04-10T11:49:24Z</time>
      </trkpt>
      <trkpt lat="44.36672" lon="3.9486">
        <ele>627.4</ele>
        <time>2016-04-10T11:49:25Z</time>
      </trkpt>
      <trkpt lat="44.36687" lon="3.94873">
        <ele>627.88</ele>
        <time>2016-04-10T11:49:26Z</time>
      </trkpt>
      <trkpt lat="44.36701" lon="3.94885">
        <ele>628.84</ele>
        <time>2016-04-10T11:49:27Z</time>
      </trkpt>
      <trkpt lat="44.36714" lon="3.94891">
        <ele>629.32</ele>
        <time>2016-04-10T11:49:28Z</time>
      </trkpt>
      <trkpt lat="44.36729" lon="3.94888">
        <ele>630.28</ele>
        <time>2016-04-10T11:49:29Z</time>
      </trkpt>
      <trkpt lat="44.36744" lon="3.94882">
        <ele>630.28</ele>
        <time>2016-04-10T11:49:30Z</time>
      </trkpt>
      <trkpt lat="44.36758" lon="3.94867">
        <ele>629.8</ele>
        <time>2016-04-10T11:49:31Z</time>
      </trkpt>
      <trkpt lat="44.36772" lon="3.94845">
        <ele>630.28</ele>
        <time>2016-04-10T11:49:32Z</time>
      </trkpt>
      <trkpt lat="44.36787" lon="3.94822">
        <ele>630.76</ele>
        <time>2016-04-10T11:49:33Z</time>
      </trkpt>
      <trkpt lat="44.36803" lon="3.94797">
        <ele>630.28</ele>
        <time>2016-04-10T11:49:34Z</time>
      </trkpt>
      <trkpt lat="44.36877" lon="3.94724">
        <ele>629.8</ele>
        <time>2016-04-10T11:49:38Z</time>
      </trkpt>
      <trkpt lat="44.369" lon="3.9472">
        <ele>629.8</ele>
        <time>2016-04-10T11:49:39Z</time>
      </trkpt>
      <trkpt lat="44.36941" lon="3.9471">
        <ele>629.32</ele>
        <time>2016-04-10T11:49:41Z</time>
      </trkpt>
      <trkpt lat="44.36959" lon="3.94698">
        <ele>629.8</ele>
        <time>2016-04-10T11:49:42Z</time>
      </trkpt>
      <trkpt lat="44.36976" lon="3.9468">
        <ele>629.8</ele>
        <time>2016-04-10T11:49:43Z</time>
      </trkpt>
      <trkpt lat="44.36992" lon="3.94656">
        <ele>630.28</ele>
        <time>2016-04-10T11:49:44Z</time>
      </trkpt>
      <trkpt lat="44.37007" lon="3.94629">
        <ele>630.76</ele>
        <time>2016-04-10T11:49:45Z</time>
      </trkpt>
      <trkpt lat="44.37021" lon="3.946">
        <ele>630.76</ele>
        <time>2016-04-10T11:49:46Z</time>
      </trkpt>
      <trkpt lat="44.37167" lon="3.94328">
        <ele>631.72</ele>
        <time>2016-04-10T11:49:56Z</time>
      </trkpt>
      <trkpt lat="44.37197" lon="3.94254">
        <ele>632.2</ele>
        <time>2016-04-10T11:49:59Z</time>
      </trkpt>
      <trkpt lat="44.37201" lon="3.9423">
        <ele>632.2</ele>
        <time>2016-04-10T11:50:00Z</time>
      </trkpt>
      <trkpt lat="44.37207" lon="3.94208">
        <ele>632.68</ele>
        <time>2016-04-10T11:50:01Z</time>
      </trkpt>
      <trkpt lat="44.37212" lon="3.94191">
        <ele>633.17</ele>
        <time>2016-04-10T11:50:02Z</time>
      </trkpt>
      <trkpt lat="44.37219" lon="3.9418">
        <ele>632.68</ele>
        <time>2016-04-10T11:50:03Z</time>
      </trkpt>
      <trkpt lat="44.37229" lon="3.94174">
        <ele>632.2</ele>
        <time>2016-04-10T11:50:04Z</time>
      </trkpt>
      <trkpt lat="44.37243" lon="3.94175">
        <ele>631.72</ele>
        <time>2016-04-10T11:50:05Z</time>
      </trkpt>
      <trkpt lat="44.37262" lon="3.94186">
        <ele>632.2</ele>
        <time>2016-04-10T11:50:06Z</time>
      </trkpt>
      <trkpt lat="44.3728" lon="3.94203">
        <ele>632.68</ele>
        <time>2016-04-10T11:50:07Z</time>
      </trkpt>
      <trkpt lat="44.37291" lon="3.94226">
        <ele>631.72</ele>
        <time>2016-04-10T11:50:08Z</time>
      </trkpt>
      <trkpt lat="44.37305" lon="3.94247">
        <ele>631.24</ele>
        <time>2016-04-10T11:50:09Z</time>
      </trkpt>
      <trkpt lat="44.37319" lon="3.94266">
        <ele>631.24</ele>
        <time>2016-04-10T11:50:10Z</time>
      </trkpt>
      <trkpt lat="44.37335" lon="3.94278">
        <ele>630.76</ele>
        <time>2016-04-10T11:50:11Z</time>
      </trkpt>
      <trkpt lat="44.37351" lon="3.94286">
        <ele>630.76</ele>
        <time>2016-04-10T11:50:12Z</time>
      </trkpt>
      <trkpt lat="44.37369" lon="3.94283">
        <ele>630.76</ele>
        <time>2016-04-10T11:50:13Z</time>
      </trkpt>
      <trkpt lat="44.37389" lon="3.94271">
        <ele>630.28</ele>
        <time>2016-04-10T11:50:14Z</time>
      </trkpt>
      <trkpt lat="44.37405" lon="3.94255">
        <ele>630.28</ele>
        <time>2016-04-10T11:50:15Z</time>
      </trkpt>
      <trkpt lat="44.37418" lon="3.94234">
        <ele>630.28</ele>
        <time>2016-04-10T11:50:16Z</time>
      </trkpt>
      <trkpt lat="44.37426" lon="3.9421">
        <ele>629.8</ele>
        <time>2016-04-10T11:50:17Z</time>
      </trkpt>
      <trkpt lat="44.37431" lon="3.94186">
        <ele>629.8</ele>
        <time>2016-04-10T11:50:18Z</time>
      </trkpt>
      <trkpt lat="44.37433" lon="3.94159">
        <ele>629.8</ele>
        <time>2016-04-10T11:50:19Z</time>
      </trkpt>
      <trkpt lat="44.37436" lon="3.94134">
        <ele>628.84</ele>
        <time>2016-04-10T11:50:20Z</time>
      </trkpt>
      <trkpt lat="44.37462" lon="3.9409">
        <ele>627.4</ele>
        <time>2016-04-10T11:50:23Z</time>
      </trkpt>
      <trkpt lat="44.37488" lon="3.94091">
        <ele>629.8</ele>
        <time>2016-04-10T11:50:24Z</time>
      </trkpt>
      <trkpt lat="44.37641" lon="3.94075">
        <ele>630.28</ele>
        <time>2016-04-10T11:50:31Z</time>
      </trkpt>
      <trkpt lat="44.37661" lon="3.94085">
        <ele>630.28</ele>
        <time>2016-04-10T11:50:32Z</time>
      </trkpt>
      <trkpt lat="44.37679" lon="3.94098">
        <ele>630.76</ele>
        <time>2016-04-10T11:50:33Z</time>
      </trkpt>
      <trkpt lat="44.37695" lon="3.94117">
        <ele>630.76</ele>
        <time>2016-04-10T11:50:34Z</time>
      </trkpt>
      <trkpt lat="44.37707" lon="3.94143">
        <ele>630.76</ele>
        <time>2016-04-10T11:50:35Z</time>
      </trkpt>
      <trkpt lat="44.37717" lon="3.94167">
        <ele>630.76</ele>
        <time>2016-04-10T11:50:36Z</time>
      </trkpt>
      <trkpt lat="44.37729" lon="3.9419">
        <ele>630.76</ele>
        <time>2016-04-10T11:50:37Z</time>
      </trkpt>
      <trkpt lat="44.37743" lon="3.94209">
        <ele>630.76</ele>
        <time>2016-04-10T11:50:38Z</time>
      </trkpt>
      <trkpt lat="44.37758" lon="3.94226">
        <ele>630.76</ele>
        <time>2016-04-10T11:50:39Z</time>
      </trkpt>
      <trkpt lat="44.37775" lon="3.94236">
        <ele>630.76</ele>
        <time>2016-04-10T11:50:40Z</time>
      </trkpt>
      <trkpt lat="44.37795" lon="3.94237">
        <ele>630.28</ele>
        <time>2016-04-10T11:50:41Z</time>
      </trkpt>
      <trkpt lat="44.37815" lon="3.94237">
        <ele>630.28</ele>
        <time>2016-04-10T11:50:42Z</time>
      </trkpt>
      <trkpt lat="44.37835" lon="3.94231">
        <ele>630.76</ele>
        <time>2016-04-10T11:50:43Z</time>
      </trkpt>
      <trkpt lat="44.37854" lon="3.94219">
        <ele>630.76</ele>
        <time>2016-04-10T11:50:44Z</time>
      </trkpt>
      <trkpt lat="44.37871" lon="3.94207">
        <ele>630.76</ele>
        <time>2016-04-10T11:50:45Z</time>
      </trkpt>
      <trkpt lat="44.37887" lon="3.94194">
        <ele>630.76</ele>
        <time>2016-04-10T11:50:46Z</time>
      </trkpt>
      <trkpt lat="44.37932" lon="3.94134">
        <ele>630.76</ele>
        <time>2016-04-10T11:50:50Z</time>
      </trkpt>
      <trkpt lat="44.37934" lon="3.94115">
        <ele>630.76</ele>
        <time>2016-04-10T11:50:51Z</time>
      </trkpt>
      <trkpt lat="44.37934" lon="3.94093">
        <ele>630.76</ele>
        <time>2016-04-10T11:50:52Z</time>
      </trkpt>
      <trkpt lat="44.37938" lon="3.94073">
        <ele>631.24</ele>
        <time>2016-04-10T11:50:53Z</time>
      </trkpt>
      <trkpt lat="44.37944" lon="3.94054">
        <ele>630.76</ele>
        <time>2016-04-10T11:50:54Z</time>
      </trkpt>
      <trkpt lat="44.37953" lon="3.94039">
        <ele>631.24</ele>
        <time>2016-04-10T11:50:55Z</time>
      </trkpt>
      <trkpt lat="44.37965" lon="3.94025">
        <ele>631.24</ele>
        <time>2016-04-10T11:50:56Z</time>
      </trkpt>
      <trkpt lat="44.37978" lon="3.94012">
        <ele>631.72</ele>
        <time>2016-04-10T11:50:57Z</time>
      </trkpt>
      <trkpt lat="44.38029" lon="3.93959">
        <ele>631.24</ele>
        <time>2016-04-10T11:51:01Z</time>
      </trkpt>
      <trkpt lat="44.38045" lon="3.93955">
        <ele>631.24</ele>
        <time>2016-04-10T11:51:02Z</time>
      </trkpt>
      <trkpt lat="44.38059" lon="3.93952">
        <ele>631.24</ele>
        <time>2016-04-10T11:51:03Z</time>
      </trkpt>
      <trkpt lat="44.38074" lon="3.9395">
        <ele>631.24</ele>
        <time>2016-04-10T11:51:04Z</time>
      </trkpt>
      <trkpt lat="44.38088" lon="3.93949">
        <ele>631.24</ele>
        <time>2016-04-10T11:51:05Z</time>
      </trkpt>
      <trkpt lat="44.381" lon="3.93951">
        <ele>630.76</ele>
        <time>2016-04-10T11:51:06Z</time>
      </trkpt>
      <trkpt lat="44.38109" lon="3.93959">
        <ele>630.28</ele>
        <time>2016-04-10T11:51:07Z</time>
      </trkpt>
      <trkpt lat="44.38116" lon="3.93971">
        <ele>630.28</ele>
        <time>2016-04-10T11:51:08Z</time>
      </trkpt>
      <trkpt lat="44.3812" lon="3.93985">
        <ele>630.28</ele>
        <time>2016-04-10T11:51:09Z</time>
      </trkpt>
      <trkpt lat="44.38126" lon="3.94">
        <ele>630.28</ele>
        <time>2016-04-10T11:51:10Z</time>
      </trkpt>
      <trkpt lat="44.38132" lon="3.94013">
        <ele>630.28</ele>
        <time>2016-04-10T11:51:11Z</time>
      </trkpt>
      <trkpt lat="44.38143" lon="3.9402">
        <ele>629.8</ele>
        <time>2016-04-10T11:51:12Z</time>
      </trkpt>
      <trkpt lat="44.38158" lon="3.94023">
        <ele>629.8</ele>
        <time>2016-04-10T11:51:13Z</time>
      </trkpt>
      <trkpt lat="44.38175" lon="3.94021">
        <ele>629.8</ele>
        <time>2016-04-10T11:51:14Z</time>
      </trkpt>
      <trkpt lat="44.38193" lon="3.94017">
        <ele>629.32</ele>
        <time>2016-04-10T11:51:15Z</time>
      </trkpt>
      <trkpt lat="44.38212" lon="3.94013">
        <ele>629.32</ele>
        <time>2016-04-10T11:51:16Z</time>
      </trkpt>
      <trkpt lat="44.3823" lon="3.94013">
        <ele>629.32</ele>
        <time>2016-04-10T11:51:17Z</time>
      </trkpt>
      <trkpt lat="44.38249" lon="3.94015">
        <ele>629.32</ele>
        <time>2016-04-10T11:51:18Z</time>
      </trkpt>
      <trkpt lat="44.38288" lon="3.94017">
        <ele>630.28</ele>
        <time>2016-04-10T11:51:20Z</time>
      </trkpt>
      <trkpt lat="44.38308" lon="3.94012">
        <ele>630.76</ele>
        <time>2016-04-10T11:51:21Z</time>
      </trkpt>
      <trkpt lat="44.38327" lon="3.94002">
        <ele>631.24</ele>
        <time>2016-04-10T11:51:22Z</time>
      </trkpt>
      <trkpt lat="44.38343" lon="3.93989">
        <ele>631.24</ele>
        <time>2016-04-10T11:51:23Z</time>
      </trkpt>
      <trkpt lat="44.38358" lon="3.93976">
        <ele>631.72</ele>
        <time>2016-04-10T11:51:24Z</time>
      </trkpt>
      <trkpt lat="44.38373" lon="3.93965">
        <ele>631.72</ele>
        <time>2016-04-10T11:51:25Z</time>
      </trkpt>
      <trkpt lat="44.38387" lon="3.93959">
        <ele>631.72</ele>
        <time>2016-04-10T11:51:26Z</time>
      </trkpt>
      <trkpt lat="44.38404" lon="3.93956">
        <ele>632.2</ele>
        <time>2016-04-10T11:51:27Z</time>
      </trkpt>
      <trkpt lat="44.3842" lon="3.93955">
        <ele>632.2</ele>
        <time>2016-04-10T11:51:28Z</time>
      </trkpt>
      <trkpt lat="44.38437" lon="3.93953">
        <ele>632.2</ele>
        <time>2016-04-10T11:51:29Z</time>
      </trkpt>
      <trkpt lat="44.38522" lon="3.93951">
        <ele>633.65</ele>
        <time>2016-04-10T11:51:34Z</time>
      </trkpt>
      <trkpt lat="44.38538" lon="3.93957">
        <ele>633.65</ele>
        <time>2016-04-10T11:51:35Z</time>
      </trkpt>
      <trkpt lat="44.38553" lon="3.93968">
        <ele>634.13</ele>
        <time>2016-04-10T11:51:36Z</time>
      </trkpt>
      <trkpt lat="44.38568" lon="3.93982">
        <ele>634.13</ele>
        <time>2016-04-10T11:51:37Z</time>
      </trkpt>
      <trkpt lat="44.3858" lon="3.93997">
        <ele>634.61</ele>
        <time>2016-04-10T11:51:38Z</time>
      </trkpt>
      <trkpt lat="44.38593" lon="3.94011">
        <ele>634.61</ele>
        <time>2016-04-10T11:51:39Z</time>
      </trkpt>
      <trkpt lat="44.38604" lon="3.94021">
        <ele>634.61</ele>
        <time>2016-04-10T11:51:40Z</time>
      </trkpt>
      <trkpt lat="44.38615" lon="3.94025">
        <ele>634.61</ele>
        <time>2016-04-10T11:51:41Z</time>
      </trkpt>
      <trkpt lat="44.38628" lon="3.94022">
        <ele>634.13</ele>
        <time>2016-04-10T11:51:42Z</time>
      </trkpt>
      <trkpt lat="44.38643" lon="3.9401">
        <ele>634.61</ele>
        <time>2016-04-10T11:51:43Z</time>
      </trkpt>
      <trkpt lat="44.38654" lon="3.93995">
        <ele>634.13</ele>
        <time>2016-04-10T11:51:44Z</time>
      </trkpt>
      <trkpt lat="44.38667" lon="3.93978">
        <ele>635.09</ele>
        <time>2016-04-10T11:51:45Z</time>
      </trkpt>
      <trkpt lat="44.38683" lon="3.93961">
        <ele>634.61</ele>
        <time>2016-04-10T11:51:46Z</time>
      </trkpt>
      <trkpt lat="44.38763" lon="3.93837">
        <ele>633.17</ele>
        <time>2016-04-10T11:51:51Z</time>
      </trkpt>
      <trkpt lat="44.38849" lon="3.93641">
        <ele>634.61</ele>
        <time>2016-04-10T11:51:58Z</time>
      </trkpt>
      <trkpt lat="44.38861" lon="3.93624">
        <ele>634.61</ele>
        <time>2016-04-10T11:51:59Z</time>
      </trkpt>
      <trkpt lat="44.38875" lon="3.93614">
        <ele>634.13</ele>
        <time>2016-04-10T11:52:00Z</time>
      </trkpt>
      <trkpt lat="44.38892" lon="3.93608">
        <ele>633.65</ele>
        <time>2016-04-10T11:52:01Z</time>
      </trkpt>
      <trkpt lat="44.38911" lon="3.93603">
        <ele>633.65</ele>
        <time>2016-04-10T11:52:02Z</time>
      </trkpt>
      <trkpt lat="44.38933" lon="3.93599">
        <ele>633.17</ele>
        <time>2016-04-10T11:52:03Z</time>
      </trkpt>
      <trkpt lat="44.38954" lon="3.93593">
        <ele>633.17</ele>
        <time>2016-04-10T11:52:04Z</time>
      </trkpt>
      <trkpt lat="44.38974" lon="3.93582">
        <ele>632.68</ele>
        <time>2016-04-10T11:52:05Z</time>
      </trkpt>
      <trkpt lat="44.38993" lon="3.93576">
        <ele>632.2</ele>
        <time>2016-04-10T11:52:06Z</time>
      </trkpt>
      <trkpt lat="44.39013" lon="3.93576">
        <ele>632.2</ele>
        <time>2016-04-10T11:52:07Z</time>
      </trkpt>
      <trkpt lat="44.39034" lon="3.93583">
        <ele>632.2</ele>
        <time>2016-04-10T11:52:08Z</time>
      </trkpt>
      <trkpt lat="44.39056" lon="3.93592">
        <ele>632.2</ele>
        <time>2016-04-10T11:52:09Z</time>
      </trkpt>
      <trkpt lat="44.39077" lon="3.936">
        <ele>632.68</ele>
        <time>2016-04-10T11:52:10Z</time>
      </trkpt>
      <trkpt lat="44.39096" lon="3.93606">
        <ele>633.17</ele>
        <time>2016-04-10T11:52:11Z</time>
      </trkpt>
      <trkpt lat="44.39116" lon="3.93605">
        <ele>633.17</ele>
        <time>2016-04-10T11:52:12Z</time>
      </trkpt>
      <trkpt lat="44.39134" lon="3.93598">
        <ele>633.65</ele>
        <time>2016-04-10T11:52:13Z</time>
      </trkpt>
      <trkpt lat="44.39155" lon="3.93584">
        <ele>633.65</ele>
        <time>2016-04-10T11:52:14Z</time>
      </trkpt>
      <trkpt lat="44.39173" lon="3.93566">
        <ele>633.65</ele>
        <time>2016-04-10T11:52:15Z</time>
      </trkpt>
      <trkpt lat="44.39189" lon="3.93542">
        <ele>633.65</ele>
        <time>2016-04-10T11:52:16Z</time>
      </trkpt>
      <trkpt lat="44.39202" lon="3.93515">
        <ele>635.57</ele>
        <time>2016-04-10T11:52:17Z</time>
      </trkpt>
      <trkpt lat="44.39215" lon="3.93492">
        <ele>635.57</ele>
        <time>2016-04-10T11:52:18Z</time>
      </trkpt>
      <trkpt lat="44.39229" lon="3.93471">
        <ele>636.05</ele>
        <time>2016-04-10T11:52:19Z</time>
      </trkpt>
      <trkpt lat="44.39246" lon="3.93457">
        <ele>635.57</ele>
        <time>2016-04-10T11:52:20Z</time>
      </trkpt>
      <trkpt lat="44.39263" lon="3.93446">
        <ele>635.09</ele>
        <time>2016-04-10T11:52:21Z</time>
      </trkpt>
      <trkpt lat="44.39285" lon="3.93439">
        <ele>636.05</ele>
        <time>2016-04-10T11:52:22Z</time>
      </trkpt>
      <trkpt lat="44.39302" lon="3.93434">
        <ele>635.57</ele>
        <time>2016-04-10T11:52:23Z</time>
      </trkpt>
      <trkpt lat="44.39322" lon="3.93432">
        <ele>636.53</ele>
        <time>2016-04-10T11:52:24Z</time>
      </trkpt>
      <trkpt lat="44.39341" lon="3.93427">
        <ele>635.09</ele>
        <time>2016-04-10T11:52:25Z</time>
      </trkpt>
      <trkpt lat="44.39357" lon="3.93412">
        <ele>634.61</ele>
        <time>2016-04-10T11:52:26Z</time>
      </trkpt>
      <trkpt lat="44.39373" lon="3.93391">
        <ele>634.61</ele>
        <time>2016-04-10T11:52:27Z</time>
      </trkpt>
      <trkpt lat="44.39387" lon="3.93366">
        <ele>634.61</ele>
        <time>2016-04-10T11:52:28Z</time>
      </trkpt>
      <trkpt lat="44.394" lon="3.93341">
        <ele>635.09</ele>
        <time>2016-04-10T11:52:29Z</time>
      </trkpt>
      <trkpt lat="44.39413" lon="3.93319">
        <ele>635.09</ele>
        <time>2016-04-10T11:52:30Z</time>
      </trkpt>
      <trkpt lat="44.39455" lon="3.93286">
        <ele>633.65</ele>
        <time>2016-04-10T11:52:33Z</time>
      </trkpt>
      <trkpt lat="44.3947" lon="3.9329">
        <ele>633.65</ele>
        <time>2016-04-10T11:52:34Z</time>
      </trkpt>
      <trkpt lat="44.39488" lon="3.93299">
        <ele>633.17</ele>
        <time>2016-04-10T11:52:35Z</time>
      </trkpt>
      <trkpt lat="44.39501" lon="3.93316">
        <ele>634.61</ele>
        <time>2016-04-10T11:52:36Z</time>
      </trkpt>
      <trkpt lat="44.39511" lon="3.93336">
        <ele>634.13</ele>
        <time>2016-04-10T11:52:37Z</time>
      </trkpt>
      <trkpt lat="44.39515" lon="3.93357">
        <ele>634.61</ele>
        <time>2016-04-10T11:52:38Z</time>
      </trkpt>
      <trkpt lat="44.39515" lon="3.9338">
        <ele>634.61</ele>
        <time>2016-04-10T11:52:39Z</time>
      </trkpt>
      <trkpt lat="44.39512" lon="3.93403">
        <ele>634.13</ele>
        <time>2016-04-10T11:52:40Z</time>
      </trkpt>
      <trkpt lat="44.39509" lon="3.93427">
        <ele>634.61</ele>
        <time>2016-04-10T11:52:41Z</time>
      </trkpt>
      <trkpt lat="44.3951" lon="3.93452">
        <ele>634.61</ele>
        <time>2016-04-10T11:52:42Z</time>
      </trkpt>
      <trkpt lat="44.39516" lon="3.93476">
        <ele>634.61</ele>
        <time>2016-04-10T11:52:43Z</time>
      </trkpt>
      <trkpt lat="44.39528" lon="3.93495">
        <ele>634.61</ele>
        <time>2016-04-10T11:52:44Z</time>
      </trkpt>
      <trkpt lat="44.39542" lon="3.93509">
        <ele>634.61</ele>
        <time>2016-04-10T11:52:45Z</time>
      </trkpt>
      <trkpt lat="44.3956" lon="3.93516">
        <ele>634.13</ele>
        <time>2016-04-10T11:52:46Z</time>
      </trkpt>
      <trkpt lat="44.39579" lon="3.93517">
        <ele>634.13</ele>
        <time>2016-04-10T11:52:47Z</time>
      </trkpt>
      <trkpt lat="44.39599" lon="3.93507">
        <ele>634.13</ele>
        <time>2016-04-10T11:52:48Z</time>
      </trkpt>
      <trkpt lat="44.3962" lon="3.93494">
        <ele>634.13</ele>
        <time>2016-04-10T11:52:49Z</time>
      </trkpt>
      <trkpt lat="44.3964" lon="3.93477">
        <ele>634.13</ele>
        <time>2016-04-10T11:52:50Z</time>
      </trkpt>
      <trkpt lat="44.39661" lon="3.93457">
        <ele>635.09</ele>
        <time>2016-04-10T11:52:51Z</time>
      </trkpt>
      <trkpt lat="44.3971" lon="3.93424">
        <ele>635.09</ele>
        <time>2016-04-10T11:52:53Z</time>
      </trkpt>
      <trkpt lat="44.39866" lon="3.93329">
        <ele>635.57</ele>
        <time>2016-04-10T11:52:59Z</time>
      </trkpt>
      <trkpt lat="44.39888" lon="3.93318">
        <ele>635.57</ele>
        <time>2016-04-10T11:53:00Z</time>
      </trkpt>
      <trkpt lat="44.39911" lon="3.93313">
        <ele>635.57</ele>
        <time>2016-04-10T11:53:01Z</time>
      </trkpt>
      <trkpt lat="44.39933" lon="3.93316">
        <ele>635.09</ele>
        <time>2016-04-10T11:53:02Z</time>
      </trkpt>
      <trkpt lat="44.39955" lon="3.93325">
        <ele>634.13</ele>
        <time>2016-04-10T11:53:03Z</time>
      </trkpt>
      <trkpt lat="44.3998" lon="3.93338">
        <ele>635.09</ele>
        <time>2016-04-10T11:53:04Z</time>
      </trkpt>
      <trkpt lat="44.40004" lon="3.93352">
        <ele>634.61</ele>
        <time>2016-04-10T11:53:05Z</time>
      </trkpt>
      <trkpt lat="44.40117" lon="3.93431">
        <ele>634.13</ele>
        <time>2016-04-10T11:53:11Z</time>
      </trkpt>
      <trkpt lat="44.40131" lon="3.93435">
        <ele>634.13</ele>
        <time>2016-04-10T11:53:12Z</time>
      </trkpt>
      <trkpt lat="44.40145" lon="3.93431">
        <ele>633.65</ele>
        <time>2016-04-10T11:53:13Z</time>
      </trkpt>
      <trkpt lat="44.4016" lon="3.93422">
        <ele>633.17</ele>
        <time>2016-04-10T11:53:14Z</time>
      </trkpt>
      <trkpt lat="44.40176" lon="3.93407">
        <ele>632.68</ele>
        <time>2016-04-10T11:53:15Z</time>
      </trkpt>
      <trkpt lat="44.40188" lon="3.93384">
        <ele>633.65</ele>
        <time>2016-04-10T11:53:16Z</time>
      </trkpt>
      <trkpt lat="44.402" lon="3.93361">
        <ele>633.65</ele>
        <time>2016-04-10T11:53:17Z</time>
      </trkpt>
      <trkpt lat="44.40208" lon="3.93338">
        <ele>633.17</ele>
        <time>2016-04-10T11:53:18Z</time>
      </trkpt>
      <trkpt lat="44.40213" lon="3.93313">
        <ele>632.68</ele>
        <time>2016-04-10T11:53:19Z</time>
      </trkpt>
      <trkpt lat="44.40214" lon="3.93285">
        <ele>632.68</ele>
        <time>2016-04-10T11:53:20Z</time>
      </trkpt>
      <trkpt lat="44.40217" lon="3.93259">
        <ele>632.68</ele>
        <time>2016-04-10T11:53:21Z</time>
      </trkpt>
      <trkpt lat="44.40224" lon="3.93236">
        <ele>631.72</ele>
        <time>2016-04-10T11:53:22Z</time>
      </trkpt>
      <trkpt lat="44.40235" lon="3.93216">
        <ele>631.24</ele>
        <time>2016-04-10T11:53:23Z</time>
      </trkpt>
      <trkpt lat="44.4025" lon="3.93202">
        <ele>631.24</ele>
        <time>2016-04-10T11:53:24Z</time>
      </trkpt>
      <trkpt lat="44.40266" lon="3.93191">
        <ele>631.24</ele>
        <time>2016-04-10T11:53:25Z</time>
      </trkpt>
      <trkpt lat="44.40283" lon="3.93184">
        <ele>630.76</ele>
        <time>2016-04-10T11:53:26Z</time>
      </trkpt>
      <trkpt lat="44.40302" lon="3.93183">
        <ele>630.76</ele>
        <time>2016-04-10T11:53:27Z</time>
      </trkpt>
      <trkpt lat="44.40325" lon="3.9319">
        <ele>631.72</ele>
        <time>2016-04-10T11:53:28Z</time>
      </trkpt>
      <trkpt lat="44.40345" lon="3.93195">
        <ele>631.24</ele>
        <time>2016-04-10T11:53:29Z</time>
      </trkpt>
      <trkpt lat="44.40362" lon="3.93205">
        <ele>631.72</ele>
        <time>2016-04-10T11:53:30Z</time>
      </trkpt>
      <trkpt lat="44.40377" lon="3.93223">
        <ele>631.72</ele>
        <time>2016-04-10T11:53:31Z</time>
      </trkpt>
      <trkpt lat="44.40387" lon="3.93244">
        <ele>631.72</ele>
        <time>2016-04-10T11:53:32Z</time>
      </trkpt>
      <trkpt lat="44.40395" lon="3.93268">
        <ele>632.2</ele>
        <time>2016-04-10T11:53:33Z</time>
      </trkpt>
      <trkpt lat="44.40396" lon="3.93297">
        <ele>632.68</ele>
        <time>2016-04-10T11:53:34Z</time>
      </trkpt>
      <trkpt lat="44.40397" lon="3.93323">
        <ele>632.2</ele>
        <time>2016-04-10T11:53:35Z</time>
      </trkpt>
      <trkpt lat="44.404" lon="3.93348">
        <ele>632.68</ele>
        <time>2016-04-10T11:53:36Z</time>
      </trkpt>
      <trkpt lat="44.40406" lon="3.93371">
        <ele>632.2</ele>
        <time>2016-04-10T11:53:37Z</time>
      </trkpt>
      <trkpt lat="44.40416" lon="3.9339">
        <ele>632.2</ele>
        <time>2016-04-10T11:53:38Z</time>
      </trkpt>
      <trkpt lat="44.40429" lon="3.93405">
        <ele>631.72</ele>
        <time>2016-04-10T11:53:39Z</time>
      </trkpt>
      <trkpt lat="44.40451" lon="3.93416">
        <ele>631.24</ele>
        <time>2016-04-10T11:53:40Z</time>
      </trkpt>
      <trkpt lat="44.40474" lon="3.93425">
        <ele>632.2</ele>
        <time>2016-04-10T11:53:41Z</time>
      </trkpt>
      <trkpt lat="44.40497" lon="3.93434">
        <ele>632.2</ele>
        <time>2016-04-10T11:53:42Z</time>
      </trkpt>
      <trkpt lat="44.40566" lon="3.93459">
        <ele>632.68</ele>
        <time>2016-04-10T11:53:45Z</time>
      </trkpt>
      <trkpt lat="44.4059" lon="3.9346">
        <ele>633.17</ele>
        <time>2016-04-10T11:53:46Z</time>
      </trkpt>
      <trkpt lat="44.40616" lon="3.93454">
        <ele>633.17</ele>
        <time>2016-04-10T11:53:47Z</time>
      </trkpt>
      <trkpt lat="44.40642" lon="3.93446">
        <ele>633.17</ele>
        <time>2016-04-10T11:53:48Z</time>
      </trkpt>
      <trkpt lat="44.40668" lon="3.93434">
        <ele>633.65</ele>
        <time>2016-04-10T11:53:49Z</time>
      </trkpt>
      <trkpt lat="44.40694" lon="3.93423">
        <ele>633.65</ele>
        <time>2016-04-10T11:53:50Z</time>
      </trkpt>
      <trkpt lat="44.40824" lon="3.93401">
        <ele>634.13</ele>
        <time>2016-04-10T11:53:55Z</time>
      </trkpt>
      <trkpt lat="44.40863" lon="3.93404">
        <ele>633.65</ele>
        <time>2016-04-10T11:53:57Z</time>
      </trkpt>
      <trkpt lat="44.40878" lon="3.93414">
        <ele>633.65</ele>
        <time>2016-04-10T11:53:58Z</time>
      </trkpt>
      <trkpt lat="44.40891" lon="3.9343">
        <ele>633.65</ele>
        <time>2016-04-10T11:53:59Z</time>
      </trkpt>
      <trkpt lat="44.40902" lon="3.93452">
        <ele>633.65</ele>
        <time>2016-04-10T11:54:00Z</time>
      </trkpt>
      <trkpt lat="44.40911" lon="3.93478">
        <ele>633.65</ele>
        <time>2016-04-10T11:54:01Z</time>
      </trkpt>
      <trkpt lat="44.40918" lon="3.93506">
        <ele>633.65</ele>
        <time>2016-04-10T11:54:02Z</time>
      </trkpt>
      <trkpt lat="44.40923" lon="3.93535">
        <ele>633.65</ele>
        <time>2016-04-10T11:54:03Z</time>
      </trkpt>
      <trkpt lat="44.40922" lon="3.93563">
        <ele>633.17</ele>
        <time>2016-04-10T11:54:04Z</time>
      </trkpt>
      <trkpt lat="44.40914" lon="3.9359">
        <ele>633.17</ele>
        <time>2016-04-10T11:54:05Z</time>
      </trkpt>
      <trkpt lat="44.40906" lon="3.93616">
        <ele>632.2</ele>
        <time>2016-04-10T11:54:06Z</time>
      </trkpt>
      <trkpt lat="44.40892" lon="3.93641">
        <ele>632.2</ele>
        <time>2016-04-10T11:54:07Z</time>
      </trkpt>
      <trkpt lat="44.40879" lon="3.93665">
        <ele>631.72</ele>
        <time>2016-04-10T11:54:08Z</time>
      </trkpt>
      <trkpt lat="44.40868" lon="3.93689">
        <ele>631.72</ele>
        <time>2016-04-10T11:54:09Z</time>
      </trkpt>
      <trkpt lat="44.40859" lon="3.93716">
        <ele>631.72</ele>
        <time>2016-04-10T11:54:10Z</time>
      </trkpt>
      <trkpt lat="44.40856" lon="3.93744">
        <ele>631.72</ele>
        <time>2016-04-10T11:54:11Z</time>
      </trkpt>
      <trkpt lat="44.40857" lon="3.9377">
        <ele>630.76</ele>
        <time>2016-04-10T11:54:12Z</time>
      </trkpt>
      <trkpt lat="44.40862" lon="3.93794">
        <ele>629.8</ele>
        <time>2016-04-10T11:54:13Z</time>
      </trkpt>
      <trkpt lat="44.40874" lon="3.93816">
        <ele>629.32</ele>
        <time>2016-04-10T11:54:14Z</time>
      </trkpt>
      <trkpt lat="44.4089" lon="3.93835">
        <ele>629.32</ele>
        <time>2016-04-10T11:54:15Z</time>
      </trkpt>
      <trkpt lat="44.40915" lon="3.93855">
        <ele>631.24</ele>
        <time>2016-04-10T11:54:16Z</time>
      </trkpt>
      <trkpt lat="44.40939" lon="3.93871">
        <ele>631.72</ele>
        <time>2016-04-10T11:54:17Z</time>
      </trkpt>
      <trkpt lat="44.40961" lon="3.93886">
        <ele>632.2</ele>
        <time>2016-04-10T11:54:18Z</time>
      </trkpt>
      <trkpt lat="44.41002" lon="3.93904">
        <ele>632.2</ele>
        <time>2016-04-10T11:54:20Z</time>
      </trkpt>
      <trkpt lat="44.4102" lon="3.939">
        <ele>632.68</ele>
        <time>2016-04-10T11:54:21Z</time>
      </trkpt>
      <trkpt lat="44.4104" lon="3.93889">
        <ele>634.13</ele>
        <time>2016-04-10T11:54:22Z</time>
      </trkpt>
      <trkpt lat="44.41059" lon="3.93873">
        <ele>634.61</ele>
        <time>2016-04-10T11:54:23Z</time>
      </trkpt>
      <trkpt lat="44.41079" lon="3.93852">
        <ele>635.09</ele>
        <time>2016-04-10T11:54:24Z</time>
      </trkpt>
      <trkpt lat="44.41101" lon="3.9383">
        <ele>635.09</ele>
        <time>2016-04-10T11:54:25Z</time>
      </trkpt>
      <trkpt lat="44.41121" lon="3.93805">
        <ele>634.61</ele>
        <time>2016-04-10T11:54:26Z</time>
      </trkpt>
      <trkpt lat="44.41254" lon="3.93601">
        <ele>633.17</ele>
        <time>2016-04-10T11:54:33Z</time>
      </trkpt>
      <trkpt lat="44.41286" lon="3.93556">
        <ele>632.68</ele>
        <time>2016-04-10T11:54:35Z</time>
      </trkpt>
      <trkpt lat="44.41301" lon="3.93546">
        <ele>632.68</ele>
        <time>2016-04-10T11:54:36Z</time>
      </trkpt>
      <trkpt lat="44.41315" lon="3.93543">
        <ele>632.2</ele>
        <time>2016-04-10T11:54:37Z</time>
      </trkpt>
      <trkpt lat="44.4133" lon="3.93541">
        <ele>631.72</ele>
        <time>2016-04-10T11:54:38Z</time>
      </trkpt>
      <trkpt lat="44.41346" lon="3.93538">
        <ele>631.72</ele>
        <time>2016-04-10T11:54:39Z</time>
      </trkpt>
      <trkpt lat="44.41361" lon="3.93531">
        <ele>629.32</ele>
        <time>2016-04-10T11:54:40Z</time>
      </trkpt>
      <trkpt lat="44.41375" lon="3.93518">
        <ele>629.32</ele>
        <time>2016-04-10T11:54:41Z</time>
      </trkpt>
      <trkpt lat="44.41386" lon="3.93499">
        <ele>628.84</ele>
        <time>2016-04-10T11:54:42Z</time>
      </trkpt>
      <trkpt lat="44.41395" lon="3.93475">
        <ele>628.84</ele>
        <time>2016-04-10T11:54:43Z</time>
      </trkpt>
      <trkpt lat="44.414" lon="3.9345">
        <ele>628.36</ele>
        <time>2016-04-10T11:54:44Z</time>
      </trkpt>
      <trkpt lat="44.41404" lon="3.9342">
        <ele>628.84</ele>
        <time>2016-04-10T11:54:45Z</time>
      </trkpt>
      <trkpt lat="44.41406" lon="3.93387">
        <ele>629.32</ele>
        <time>2016-04-10T11:54:46Z</time>
      </trkpt>
      <trkpt lat="44.41413" lon="3.93355">
        <ele>629.32</ele>
        <time>2016-04-10T11:54:47Z</time>
      </trkpt>
      <trkpt lat="44.41423" lon="3.93326">
        <ele>630.28</ele>
        <time>2016-04-10T11:54:48Z</time>
      </trkpt>
      <trkpt lat="44.41433" lon="3.93298">
        <ele>630.28</ele>
        <time>2016-04-10T11:54:49Z</time>
      </trkpt>
      <trkpt lat="44.4145" lon="3.93212">
        <ele>630.76</ele>
        <time>2016-04-10T11:54:52Z</time>
      </trkpt>
      <trkpt lat="44.41448" lon="3.93184">
        <ele>630.76</ele>
        <time>2016-04-10T11:54:53Z</time>
      </trkpt>
      <trkpt lat="44.41448" lon="3.93137">
        <ele>631.24</ele>
        <time>2016-04-10T11:54:55Z</time>
      </trkpt>
      <trkpt lat="44.4145" lon="3.93119">
        <ele>631.24</ele>
        <time>2016-04-10T11:54:56Z</time>
      </trkpt>
      <trkpt lat="44.41456" lon="3.93105">
        <ele>630.76</ele>
        <time>2016-04-10T11:54:57Z</time>
      </trkpt>
      <trkpt lat="44.41466" lon="3.93098">
        <ele>630.76</ele>
        <time>2016-04-10T11:54:58Z</time>
      </trkpt>
      <trkpt lat="44.41479" lon="3.93099">
        <ele>631.24</ele>
        <time>2016-04-10T11:54:59Z</time>
      </trkpt>
      <trkpt lat="44.41502" lon="3.93113">
        <ele>632.2</ele>
        <time>2016-04-10T11:55:00Z</time>
      </trkpt>
      <trkpt lat="44.41518" lon="3.93128">
        <ele>632.2</ele>
        <time>2016-04-10T11:55:01Z</time>
      </trkpt>
      <trkpt lat="44.41532" lon="3.9314">
        <ele>632.2</ele>
        <time>2016-04-10T11:55:02Z</time>
      </trkpt>
      <trkpt lat="44.41548" lon="3.9315">
        <ele>632.2</ele>
        <time>2016-04-10T11:55:03Z</time>
      </trkpt>
      <trkpt lat="44.41565" lon="3.9315">
        <ele>632.68</ele>
        <time>2016-04-10T11:55:04Z</time>
      </trkpt>
      <trkpt lat="44.41581" lon="3.93144">
        <ele>631.72</ele>
        <time>2016-04-10T11:55:05Z</time>
      </trkpt>
      <trkpt lat="44.41598" lon="3.93125">
        <ele>629.32</ele>
        <time>2016-04-10T11:55:06Z</time>
      </trkpt>
      <trkpt lat="44.41614" lon="3.93104">
        <ele>629.8</ele>
        <time>2016-04-10T11:55:07Z</time>
      </trkpt>
      <trkpt lat="44.41628" lon="3.9308">
        <ele>630.28</ele>
        <time>2016-04-10T11:55:08Z</time>
      </trkpt>
      <trkpt lat="44.41638" lon="3.93053">
        <ele>629.32</ele>
        <time>2016-04-10T11:55:09Z</time>
      </trkpt>
      <trkpt lat="44.4165" lon="3.93025">
        <ele>629.32</ele>
        <time>2016-04-10T11:55:10Z</time>
      </trkpt>
      <trkpt lat="44.41659" lon="3.92998">
        <ele>629.32</ele>
        <time>2016-04-10T11:55:11Z</time>
      </trkpt>
      <trkpt lat="44.41666" lon="3.9297">
        <ele>628.84</ele>
        <time>2016-04-10T11:55:12Z</time>
      </trkpt>
      <trkpt lat="44.41696" lon="3.92886">
        <ele>628.84</ele>
        <time>2016-04-10T11:55:16Z</time>
      </trkpt>
      <trkpt lat="44.4171" lon="3.92881">
        <ele>628.84</ele>
        <time>2016-04-10T11:55:17Z</time>
      </trkpt>
      <trkpt lat="44.41727" lon="3.92882">
        <ele>628.84</ele>
        <time>2016-04-10T11:55:18Z</time>
      </trkpt>
      <trkpt lat="44.4175" lon="3.92895">
        <ele>630.28</ele>
        <time>2016-04-10T11:55:19Z</time>
      </trkpt>
      <trkpt lat="44.41768" lon="3.92913">
        <ele>631.24</ele>
        <time>2016-04-10T11:55:20Z</time>
      </trkpt>
      <trkpt lat="44.4178" lon="3.92929">
        <ele>630.28</ele>
        <time>2016-04-10T11:55:21Z</time>
      </trkpt>
      <trkpt lat="44.41792" lon="3.9295">
        <ele>630.28</ele>
        <time>2016-04-10T11:55:22Z</time>
      </trkpt>
      <trkpt lat="44.41807" lon="3.92964">
        <ele>629.8</ele>
        <time>2016-04-10T11:55:23Z</time>
      </trkpt>
      <trkpt lat="44.41824" lon="3.9297">
        <ele>629.8</ele>
        <time>2016-04-10T11:55:24Z</time>
      </trkpt>
      <trkpt lat="44.41844" lon="3.92968">
        <ele>629.32</ele>
        <time>2016-04-10T11:55:25Z</time>
      </trkpt>
      <trkpt lat="44.41862" lon="3.92965">
        <ele>630.28</ele>
        <time>2016-04-10T11:55:26Z</time>
      </trkpt>
      <trkpt lat="44.41879" lon="3.92964">
        <ele>630.28</ele>
        <time>2016-04-10T11:55:27Z</time>
      </trkpt>
      <trkpt lat="44.41893" lon="3.92969">
        <ele>629.8</ele>
        <time>2016-04-10T11:55:28Z</time>
      </trkpt>
      <trkpt lat="44.41904" lon="3.92982">
        <ele>629.8</ele>
        <time>2016-04-10T11:55:29Z</time>
      </trkpt>
      <trkpt lat="44.41912" lon="3.93001">
        <ele>630.28</ele>
        <time>2016-04-10T11:55:30Z</time>
      </trkpt>
      <trkpt lat="44.41915" lon="3.93025">
        <ele>630.28</ele>
        <time>2016-04-10T11:55:31Z</time>
      </trkpt>
      <trkpt lat="44.41919" lon="3.93046">
        <ele>629.8</ele>
        <time>2016-04-10T11:55:32Z</time>
      </trkpt>
      <trkpt lat="44.41921" lon="3.93072">
        <ele>629.8</ele>
        <time>2016-04-10T11:55:33Z</time>
      </trkpt>
      <trkpt lat="44.41929" lon="3.93094">
        <ele>630.28</ele>
        <time>2016-04-10T11:55:34Z</time>
      </trkpt>
      <trkpt lat="44.4194" lon="3.93111">
        <ele>629.8</ele>
        <time>2016-04-10T11:55:35Z</time>
      </trkpt>
      <trkpt lat="44.41959" lon="3.93124">
        <ele>629.8</ele>
        <time>2016-04-10T11:55:36Z</time>
      </trkpt>
      <trkpt lat="44.41978" lon="3.93136">
        <ele>630.28</ele>
        <time>2016-04-10T11:55:37Z</time>
      </trkpt>
      <trkpt lat="44.41996" lon="3.9315">
        <ele>630.76</ele>
        <time>2016-04-10T11:55:38Z</time>
      </trkpt>
      <trkpt lat="44.42008" lon="3.93169">
        <ele>631.24</ele>
        <time>2016-04-10T11:55:39Z</time>
      </trkpt>
      <trkpt lat="44.42015" lon="3.93189">
        <ele>631.72</ele>
        <time>2016-04-10T11:55:40Z</time>
      </trkpt>
      <trkpt lat="44.42015" lon="3.93211">
        <ele>631.24</ele>
        <time>2016-04-10T11:55:41Z</time>
      </trkpt>
      <trkpt lat="44.42014" lon="3.93234">
        <ele>630.28</ele>
        <time>2016-04-10T11:55:42Z</time>
      </trkpt>
      <trkpt lat="44.42005" lon="3.93256">
        <ele>629.32</ele>
        <time>2016-04-10T11:55:43Z</time>
      </trkpt>
      <trkpt lat="44.41994" lon="3.93277">
        <ele>628.84</ele>
        <time>2016-04-10T11:55:44Z</time>
      </trkpt>
      <trkpt lat="44.41975" lon="3.93299">
        <ele>630.28</ele>
        <time>2016-04-10T11:55:45Z</time>
      </trkpt>
      <trkpt lat="44.41959" lon="3.93326">
        <ele>630.76</ele>
        <time>2016-04-10T11:55:46Z</time>
      </trkpt>
      <trkpt lat="44.4192" lon="3.93439">
        <ele>631.24</ele>
        <time>2016-04-10T11:55:50Z</time>
      </trkpt>
      <trkpt lat="44.41918" lon="3.93466">
        <ele>630.76</ele>
        <time>2016-04-10T11:55:51Z</time>
      </trkpt>
      <trkpt lat="44.41921" lon="3.93492">
        <ele>630.28</ele>
        <time>2016-04-10T11:55:52Z</time>
      </trkpt>
      <trkpt lat="44.41926" lon="3.93517">
        <ele>629.8</ele>
        <time>2016-04-10T11:55:53Z</time>
      </trkpt>
      <trkpt lat="44.41929" lon="3.93542">
        <ele>629.8</ele>
        <time>2016-04-10T11:55:54Z</time>
      </trkpt>
      <trkpt lat="44.41929" lon="3.93566">
        <ele>629.8</ele>
        <time>2016-04-10T11:55:55Z</time>
      </trkpt>
      <trkpt lat="44.41926" lon="3.93591">
        <ele>629.32</ele>
        <time>2016-04-10T11:55:56Z</time>
      </trkpt>
      <trkpt lat="44.41917" lon="3.93611">
        <ele>628.36</ele>
        <time>2016-04-10T11:55:57Z</time>
      </trkpt>
      <trkpt lat="44.41906" lon="3.93633">
        <ele>627.4</ele>
        <time>2016-04-10T11:55:58Z</time>
      </trkpt>
      <trkpt lat="44.41892" lon="3.93654">
        <ele>627.88</ele>
        <time>2016-04-10T11:55:59Z</time>
      </trkpt>
      <trkpt lat="44.41875" lon="3.93678">
        <ele>627.88</ele>
        <time>2016-04-10T11:56:00Z</time>
      </trkpt>
      <trkpt lat="44.4186" lon="3.93703">
        <ele>628.84</ele>
        <time>2016-04-10T11:56:01Z</time>
      </trkpt>
      <trkpt lat="44.41852" lon="3.9373">
        <ele>628.84</ele>
        <time>2016-04-10T11:56:02Z</time>
      </trkpt>
      <trkpt lat="44.41851" lon="3.93784">
        <ele>628.84</ele>
        <time>2016-04-10T11:56:04Z</time>
      </trkpt>
      <trkpt lat="44.41858" lon="3.93808">
        <ele>628.84</ele>
        <time>2016-04-10T11:56:05Z</time>
      </trkpt>
      <trkpt lat="44.41868" lon="3.93831">
        <ele>628.36</ele>
        <time>2016-04-10T11:56:06Z</time>
      </trkpt>
      <trkpt lat="44.41883" lon="3.93851">
        <ele>628.36</ele>
        <time>2016-04-10T11:56:07Z</time>
      </trkpt>
      <trkpt lat="44.41902" lon="3.93868">
        <ele>629.32</ele>
        <time>2016-04-10T11:56:08Z</time>
      </trkpt>
      <trkpt lat="44.41924" lon="3.93883">
        <ele>630.76</ele>
        <time>2016-04-10T11:56:09Z</time>
      </trkpt>
      <trkpt lat="44.41948" lon="3.93893">
        <ele>632.2</ele>
        <time>2016-04-10T11:56:10Z</time>
      </trkpt>
      <trkpt lat="44.41973" lon="3.939">
        <ele>633.65</ele>
        <time>2016-04-10T11:56:11Z</time>
      </trkpt>
      <trkpt lat="44.41999" lon="3.93903">
        <ele>634.61</ele>
        <time>2016-04-10T11:56:12Z</time>
      </trkpt>
      <trkpt lat="44.42025" lon="3.93901">
        <ele>635.57</ele>
        <time>2016-04-10T11:56:13Z</time>
      </trkpt>
      <trkpt lat="44.42052" lon="3.93896">
        <ele>636.05</ele>
        <time>2016-04-10T11:56:14Z</time>
      </trkpt>
      <trkpt lat="44.42079" lon="3.93888">
        <ele>636.53</ele>
        <time>2016-04-10T11:56:15Z</time>
      </trkpt>
      <trkpt lat="44.42106" lon="3.9388">
        <ele>636.53</ele>
        <time>2016-04-10T11:56:16Z</time>
      </trkpt>
      <trkpt lat="44.42252" lon="3.93818">
        <ele>637.97</ele>
        <time>2016-04-10T11:56:22Z</time>
      </trkpt>
      <trkpt lat="44.42267" lon="3.93794">
        <ele>638.45</ele>
        <time>2016-04-10T11:56:23Z</time>
      </trkpt>
      <trkpt lat="44.42281" lon="3.93768">
        <ele>639.41</ele>
        <time>2016-04-10T11:56:24Z</time>
      </trkpt>
      <trkpt lat="44.42289" lon="3.9374">
        <ele>638.93</ele>
        <time>2016-04-10T11:56:25Z</time>
      </trkpt>
      <trkpt lat="44.42293" lon="3.93707">
        <ele>639.41</ele>
        <time>2016-04-10T11:56:26Z</time>
      </trkpt>
      <trkpt lat="44.42299" lon="3.93674">
        <ele>639.89</ele>
        <time>2016-04-10T11:56:27Z</time>
      </trkpt>
      <trkpt lat="44.42307" lon="3.93644">
        <ele>640.38</ele>
        <time>2016-04-10T11:56:28Z</time>
      </trkpt>
      <trkpt lat="44.42317" lon="3.93621">
        <ele>639.89</ele>
        <time>2016-04-10T11:56:29Z</time>
      </trkpt>
      <trkpt lat="44.4233" lon="3.93608">
        <ele>639.89</ele>
        <time>2016-04-10T11:56:30Z</time>
      </trkpt>
      <trkpt lat="44.42345" lon="3.93602">
        <ele>639.89</ele>
        <time>2016-04-10T11:56:31Z</time>
      </trkpt>
      <trkpt lat="44.42361" lon="3.93605">
        <ele>640.38</ele>
        <time>2016-04-10T11:56:32Z</time>
      </trkpt>
      <trkpt lat="44.42379" lon="3.93609">
        <ele>640.86</ele>
        <time>2016-04-10T11:56:33Z</time>
      </trkpt>
      <trkpt lat="44.42397" lon="3.93614">
        <ele>640.38</ele>
        <time>2016-04-10T11:56:34Z</time>
      </trkpt>
      <trkpt lat="44.42416" lon="3.93614">
        <ele>640.86</ele>
        <time>2016-04-10T11:56:35Z</time>
      </trkpt>
      <trkpt lat="44.42436" lon="3.93605">
        <ele>640.86</ele>
        <time>2016-04-10T11:56:36Z</time>
      </trkpt>
      <trkpt lat="44.42454" lon="3.93589">
        <ele>641.82</ele>
        <time>2016-04-10T11:56:37Z</time>
      </trkpt>
      <trkpt lat="44.42469" lon="3.93566">
        <ele>642.3</ele>
        <time>2016-04-10T11:56:38Z</time>
      </trkpt>
      <trkpt lat="44.42481" lon="3.93538">
        <ele>642.3</ele>
        <time>2016-04-10T11:56:39Z</time>
      </trkpt>
      <trkpt lat="44.42492" lon="3.93509">
        <ele>643.26</ele>
        <time>2016-04-10T11:56:40Z</time>
      </trkpt>
      <trkpt lat="44.42502" lon="3.93479">
        <ele>644.22</ele>
        <time>2016-04-10T11:56:41Z</time>
      </trkpt>
      <trkpt lat="44.42514" lon="3.93452">
        <ele>645.18</ele>
        <time>2016-04-10T11:56:42Z</time>
      </trkpt>
      <trkpt lat="44.42529" lon="3.9343">
        <ele>645.66</ele>
        <time>2016-04-10T11:56:43Z</time>
      </trkpt>
      <trkpt lat="44.42547" lon="3.93415">
        <ele>645.66</ele>
        <time>2016-04-10T11:56:44Z</time>
      </trkpt>
      <trkpt lat="44.42568" lon="3.93407">
        <ele>646.14</ele>
        <time>2016-04-10T11:56:45Z</time>
      </trkpt>
      <trkpt lat="44.42598" lon="3.93409">
        <ele>648.55</ele>
        <time>2016-04-10T11:56:46Z</time>
      </trkpt>
      <trkpt lat="44.42622" lon="3.93408">
        <ele>649.03</ele>
        <time>2016-04-10T11:56:47Z</time>
      </trkpt>
      <trkpt lat="44.42665" lon="3.93398">
        <ele>650.95</ele>
        <time>2016-04-10T11:56:49Z</time>
      </trkpt>
      <trkpt lat="44.42684" lon="3.93385">
        <ele>651.43</ele>
        <time>2016-04-10T11:56:50Z</time>
      </trkpt>
      <trkpt lat="44.42701" lon="3.93371">
        <ele>652.39</ele>
        <time>2016-04-10T11:56:51Z</time>
      </trkpt>
      <trkpt lat="44.42716" lon="3.93356">
        <ele>652.87</ele>
        <time>2016-04-10T11:56:52Z</time>
      </trkpt>
      <trkpt lat="44.4273" lon="3.93345">
        <ele>653.35</ele>
        <time>2016-04-10T11:56:53Z</time>
      </trkpt>
      <trkpt lat="44.42747" lon="3.93343">
        <ele>653.35</ele>
        <time>2016-04-10T11:56:54Z</time>
      </trkpt>
      <trkpt lat="44.42759" lon="3.93351">
        <ele>653.35</ele>
        <time>2016-04-10T11:56:55Z</time>
      </trkpt>
      <trkpt lat="44.42772" lon="3.93365">
        <ele>653.35</ele>
        <time>2016-04-10T11:56:56Z</time>
      </trkpt>
      <trkpt lat="44.42783" lon="3.93388">
        <ele>653.83</ele>
        <time>2016-04-10T11:56:57Z</time>
      </trkpt>
      <trkpt lat="44.42788" lon="3.93414">
        <ele>653.83</ele>
        <time>2016-04-10T11:56:58Z</time>
      </trkpt>
      <trkpt lat="44.42792" lon="3.9344">
        <ele>653.83</ele>
        <time>2016-04-10T11:56:59Z</time>
      </trkpt>
      <trkpt lat="44.42797" lon="3.93465">
        <ele>653.83</ele>
        <time>2016-04-10T11:57:00Z</time>
      </trkpt>
      <trkpt lat="44.42804" lon="3.9349">
        <ele>653.83</ele>
        <time>2016-04-10T11:57:01Z</time>
      </trkpt>
      <trkpt lat="44.42815" lon="3.9351">
        <ele>653.83</ele>
        <time>2016-04-10T11:57:02Z</time>
      </trkpt>
      <trkpt lat="44.42828" lon="3.93526">
        <ele>652.87</ele>
        <time>2016-04-10T11:57:03Z</time>
      </trkpt>
      <trkpt lat="44.42847" lon="3.93538">
        <ele>652.87</ele>
        <time>2016-04-10T11:57:04Z</time>
      </trkpt>
      <trkpt lat="44.42872" lon="3.93543">
        <ele>654.31</ele>
        <time>2016-04-10T11:57:05Z</time>
      </trkpt>
      <trkpt lat="44.42895" lon="3.93551">
        <ele>654.31</ele>
        <time>2016-04-10T11:57:06Z</time>
      </trkpt>
      <trkpt lat="44.42918" lon="3.93557">
        <ele>655.28</ele>
        <time>2016-04-10T11:57:07Z</time>
      </trkpt>
      <trkpt lat="44.42939" lon="3.93563">
        <ele>656.24</ele>
        <time>2016-04-10T11:57:08Z</time>
      </trkpt>
      <trkpt lat="44.42959" lon="3.93567">
        <ele>656.72</ele>
        <time>2016-04-10T11:57:09Z</time>
      </trkpt>
      <trkpt lat="44.42978" lon="3.93565">
        <ele>657.2</ele>
        <time>2016-04-10T11:57:10Z</time>
      </trkpt>
      <trkpt lat="44.42995" lon="3.93558">
        <ele>657.68</ele>
        <time>2016-04-10T11:57:11Z</time>
      </trkpt>
      <trkpt lat="44.4301" lon="3.9355">
        <ele>658.64</ele>
        <time>2016-04-10T11:57:12Z</time>
      </trkpt>
      <trkpt lat="44.43023" lon="3.93542">
        <ele>659.12</ele>
        <time>2016-04-10T11:57:13Z</time>
      </trkpt>
      <trkpt lat="44.43043" lon="3.93535">
        <ele>659.6</ele>
        <time>2016-04-10T11:57:15Z</time>
      </trkpt>
      <trkpt lat="44.43048" lon="3.93537">
        <ele>659.6</ele>
        <time>2016-04-10T11:57:16Z</time>
      </trkpt>
      <trkpt lat="44.43053" lon="3.93542">
        <ele>660.08</ele>
        <time>2016-04-10T11:57:17Z</time>
      </trkpt>
      <trkpt lat="44.43057" lon="3.93548">
        <ele>660.08</ele>
        <time>2016-04-10T11:57:18Z</time>
      </trkpt>
      <trkpt lat="44.43062" lon="3.93553">
        <ele>660.56</ele>
        <time>2016-04-10T11:57:19Z</time>
      </trkpt>
      <trkpt lat="44.43068" lon="3.93555">
        <ele>660.56</ele>
        <time>2016-04-10T11:57:20Z</time>
      </trkpt>
      <trkpt lat="44.43075" lon="3.93552">
        <ele>660.56</ele>
        <time>2016-04-10T11:57:21Z</time>
      </trkpt>
      <trkpt lat="44.4308" lon="3.93546">
        <ele>660.56</ele>
        <time>2016-04-10T11:57:22Z</time>
      </trkpt>
      <trkpt lat="44.43082" lon="3.93538">
        <ele>660.56</ele>
        <time>2016-04-10T11:57:23Z</time>
      </trkpt>
      <trkpt lat="44.43082" lon="3.93529">
        <ele>660.56</ele>
        <time>2016-04-10T11:57:24Z</time>
      </trkpt>
      <trkpt lat="44.43079" lon="3.93522">
        <ele>660.08</ele>
        <time>2016-04-10T11:57:25Z</time>
      </trkpt>
      <trkpt lat="44.43073" lon="3.93518">
        <ele>659.6</ele>
        <time>2016-04-10T11:57:26Z</time>
      </trkpt>
      <trkpt lat="44.43065" lon="3.93519">
        <ele>659.6</ele>
        <time>2016-04-10T11:57:27Z</time>
      </trkpt>
      <trkpt lat="44.4306" lon="3.93524">
        <ele>659.12</ele>
        <time>2016-04-10T11:57:28Z</time>
      </trkpt>
      <trkpt lat="44.43056" lon="3.9353">
        <ele>659.12</ele>
        <time>2016-04-10T11:57:29Z</time>
      </trkpt>
      <trkpt lat="44.43055" lon="3.93539">
        <ele>659.6</ele>
        <time>2016-04-10T11:57:30Z</time>
      </trkpt>
      <trkpt lat="44.43056" lon="3.93547">
        <ele>659.6</ele>
        <time>2016-04-10T11:57:31Z</time>
      </trkpt>
      <trkpt lat="44.4306" lon="3.93554">
        <ele>659.6</ele>
        <time>2016-04-10T11:57:32Z</time>
      </trkpt>
      <trkpt lat="44.43067" lon="3.93555">
        <ele>659.12</ele>
        <time>2016-04-10T11:57:33Z</time>
      </trkpt>
      <trkpt lat="44.43075" lon="3.93551">
        <ele>659.12</ele>
        <time>2016-04-10T11:57:34Z</time>
      </trkpt>
      <trkpt lat="44.43082" lon="3.93541">
        <ele>659.12</ele>
        <time>2016-04-10T11:57:35Z</time>
      </trkpt>
      <trkpt lat="44.43089" lon="3.93529">
        <ele>659.6</ele>
        <time>2016-04-10T11:57:36Z</time>
      </trkpt>
      <trkpt lat="44.43097" lon="3.93518">
        <ele>659.6</ele>
        <time>2016-04-10T11:57:37Z</time>
      </trkpt>
      <trkpt lat="44.43108" lon="3.93509">
        <ele>659.6</ele>
        <time>2016-04-10T11:57:38Z</time>
      </trkpt>
      <trkpt lat="44.43119" lon="3.935">
        <ele>659.6</ele>
        <time>2016-04-10T11:57:39Z</time>
      </trkpt>
      <trkpt lat="44.43131" lon="3.93493">
        <ele>659.6</ele>
        <time>2016-04-10T11:57:40Z</time>
      </trkpt>
      <trkpt lat="44.43194" lon="3.93454">
        <ele>654.8</ele>
        <time>2016-04-10T11:57:46Z</time>
      </trkpt>
      <trkpt lat="44.43204" lon="3.93444">
        <ele>653.35</ele>
        <time>2016-04-10T11:57:47Z</time>
      </trkpt>
      <trkpt lat="44.43213" lon="3.93433">
        <ele>652.39</ele>
        <time>2016-04-10T11:57:48Z</time>
      </trkpt>
      <trkpt lat="44.4322" lon="3.9342">
        <ele>650.95</ele>
        <time>2016-04-10T11:57:49Z</time>
      </trkpt>
      <trkpt lat="44.43224" lon="3.93404">
        <ele>649.51</ele>
        <time>2016-04-10T11:57:50Z</time>
      </trkpt>
      <trkpt lat="44.43226" lon="3.93387">
        <ele>648.55</ele>
        <time>2016-04-10T11:57:51Z</time>
      </trkpt>
      <trkpt lat="44.43227" lon="3.9337">
        <ele>647.59</ele>
        <time>2016-04-10T11:57:52Z</time>
      </trkpt>
      <trkpt lat="44.43229" lon="3.93353">
        <ele>646.14</ele>
        <time>2016-04-10T11:57:53Z</time>
      </trkpt>
      <trkpt lat="44.43234" lon="3.93336">
        <ele>644.7</ele>
        <time>2016-04-10T11:57:54Z</time>
      </trkpt>
      <trkpt lat="44.43243" lon="3.93321">
        <ele>643.26</ele>
        <time>2016-04-10T11:57:55Z</time>
      </trkpt>
      <trkpt lat="44.43254" lon="3.93312">
        <ele>640.86</ele>
        <time>2016-04-10T11:57:56Z</time>
      </trkpt>
      <trkpt lat="44.43267" lon="3.93309">
        <ele>638.93</ele>
        <time>2016-04-10T11:57:57Z</time>
      </trkpt>
      <trkpt lat="44.43281" lon="3.93311">
        <ele>637.01</ele>
        <time>2016-04-10T11:57:58Z</time>
      </trkpt>
      <trkpt lat="44.43299" lon="3.93319">
        <ele>636.05</ele>
        <time>2016-04-10T11:57:59Z</time>
      </trkpt>
      <trkpt lat="44.43316" lon="3.93326">
        <ele>634.61</ele>
        <time>2016-04-10T11:58:00Z</time>
      </trkpt>
      <trkpt lat="44.43336" lon="3.93333">
        <ele>632.68</ele>
        <time>2016-04-10T11:58:01Z</time>
      </trkpt>
      <trkpt lat="44.43398" lon="3.93342">
        <ele>625.96</ele>
        <time>2016-04-10T11:58:04Z</time>
      </trkpt>
      <trkpt lat="44.43417" lon="3.93341">
        <ele>624.03</ele>
        <time>2016-04-10T11:58:05Z</time>
      </trkpt>
      <trkpt lat="44.43549" lon="3.93319">
        <ele>612.5</ele>
        <time>2016-04-10T11:58:13Z</time>
      </trkpt>
      <trkpt lat="44.43611" lon="3.93318">
        <ele>606.73</ele>
        <time>2016-04-10T11:58:20Z</time>
      </trkpt>
      <trkpt lat="44.43723" lon="3.93322">
        <ele>601.92</ele>
        <time>2016-04-10T11:58:33Z</time>
      </trkpt>
      <trkpt lat="44.43775" lon="3.93315">
        <ele>600.48</ele>
        <time>2016-04-10T11:58:40Z</time>
      </trkpt>
      <trkpt lat="44.43782" lon="3.93306">
        <ele>599.52</ele>
        <time>2016-04-10T11:58:41Z</time>
      </trkpt>
      <trkpt lat="44.4379" lon="3.93294">
        <ele>598.56</ele>
        <time>2016-04-10T11:58:42Z</time>
      </trkpt>
      <trkpt lat="44.43794" lon="3.93277">
        <ele>599.52</ele>
        <time>2016-04-10T11:58:43Z</time>
      </trkpt>
      <trkpt lat="44.43799" lon="3.93267">
        <ele>599.04</ele>
        <time>2016-04-10T11:58:44Z</time>
      </trkpt>
      <trkpt lat="44.43811" lon="3.93239">
        <ele>596.64</ele>
        <time>2016-04-10T11:58:47Z</time>
      </trkpt>
      <trkpt lat="44.43819" lon="3.93234">
        <ele>599.04</ele>
        <time>2016-04-10T11:58:48Z</time>
      </trkpt>
      <trkpt lat="44.43828" lon="3.9323">
        <ele>601.44</ele>
        <time>2016-04-10T11:58:49Z</time>
      </trkpt>
      <trkpt lat="44.43868" lon="3.9321">
        <ele>603.36</ele>
        <time>2016-04-10T11:58:55Z</time>
      </trkpt>
      <trkpt lat="44.43876" lon="3.9321">
        <ele>603.85</ele>
        <time>2016-04-10T11:58:56Z</time>
      </trkpt>
      <trkpt lat="44.43974" lon="3.93206">
        <ele>600</ele>
        <time>2016-04-10T11:59:07Z</time>
      </trkpt>
      <trkpt lat="44.44082" lon="3.93194">
        <ele>593.75</ele>
        <time>2016-04-10T11:59:20Z</time>
      </trkpt>
      <trkpt lat="44.44124" lon="3.93188">
        <ele>590.39</ele>
        <time>2016-04-10T11:59:27Z</time>
      </trkpt>
      <trkpt lat="44.44128" lon="3.93186">
        <ele>590.39</ele>
        <time>2016-04-10T11:59:28Z</time>
      </trkpt>
      <trkpt lat="44.4413" lon="3.93182">
        <ele>589.91</ele>
        <time>2016-04-10T11:59:29Z</time>
      </trkpt>
      <trkpt lat="44.44131" lon="3.93176">
        <ele>590.39</ele>
        <time>2016-04-10T11:59:30Z</time>
      </trkpt>
      <trkpt lat="44.44129" lon="3.93168">
        <ele>591.35</ele>
        <time>2016-04-10T11:59:31Z</time>
      </trkpt>
      <trkpt lat="44.44126" lon="3.93159">
        <ele>591.83</ele>
        <time>2016-04-10T11:59:32Z</time>
      </trkpt>
      <trkpt lat="44.44124" lon="3.9315">
        <ele>591.35</ele>
        <time>2016-04-10T11:59:33Z</time>
      </trkpt>
      <trkpt lat="44.44122" lon="3.9314">
        <ele>590.87</ele>
        <time>2016-04-10T11:59:34Z</time>
      </trkpt>
      <trkpt lat="44.44108" lon="3.9303">
        <ele>592.79</ele>
        <time>2016-04-10T11:59:43Z</time>
      </trkpt>
      <trkpt lat="44.44084" lon="3.92902">
        <ele>595.67</ele>
        <time>2016-04-10T11:59:51Z</time>
      </trkpt>
      <trkpt lat="44.4403" lon="3.92705">
        <ele>603.85</ele>
        <time>2016-04-10T12:00:03Z</time>
      </trkpt>
      <trkpt lat="44.4401" lon="3.92606">
        <ele>607.69</ele>
        <time>2016-04-10T12:00:08Z</time>
      </trkpt>
      <trkpt lat="44.44009" lon="3.92586">
        <ele>608.65</ele>
        <time>2016-04-10T12:00:09Z</time>
      </trkpt>
      <trkpt lat="44.43989" lon="3.92407">
        <ele>610.57</ele>
        <time>2016-04-10T12:00:18Z</time>
      </trkpt>
      <trkpt lat="44.43949" lon="3.92248">
        <ele>610.57</ele>
        <time>2016-04-10T12:00:27Z</time>
      </trkpt>
      <trkpt lat="44.43939" lon="3.92172">
        <ele>614.9</ele>
        <time>2016-04-10T12:00:32Z</time>
      </trkpt>
      <trkpt lat="44.43936" lon="3.92163">
        <ele>615.86</ele>
        <time>2016-04-10T12:00:33Z</time>
      </trkpt>
      <trkpt lat="44.43929" lon="3.9216">
        <ele>616.34</ele>
        <time>2016-04-10T12:00:34Z</time>
      </trkpt>
      <trkpt lat="44.43921" lon="3.9216">
        <ele>616.82</ele>
        <time>2016-04-10T12:00:35Z</time>
      </trkpt>
      <trkpt lat="44.43913" lon="3.9216">
        <ele>616.82</ele>
        <time>2016-04-10T12:00:36Z</time>
      </trkpt>
      <trkpt lat="44.43906" lon="3.92159">
        <ele>617.3</ele>
        <time>2016-04-10T12:00:37Z</time>
      </trkpt>
      <trkpt lat="44.43899" lon="3.92152">
        <ele>618.26</ele>
        <time>2016-04-10T12:00:38Z</time>
      </trkpt>
      <trkpt lat="44.43895" lon="3.92142">
        <ele>618.26</ele>
        <time>2016-04-10T12:00:39Z</time>
      </trkpt>
      <trkpt lat="44.43894" lon="3.9213">
        <ele>618.75</ele>
        <time>2016-04-10T12:00:40Z</time>
      </trkpt>
      <trkpt lat="44.43894" lon="3.92115">
        <ele>618.75</ele>
        <time>2016-04-10T12:00:41Z</time>
      </trkpt>
      <trkpt lat="44.43893" lon="3.921">
        <ele>619.23</ele>
        <time>2016-04-10T12:00:42Z</time>
      </trkpt>
      <trkpt lat="44.43891" lon="3.92085">
        <ele>619.71</ele>
        <time>2016-04-10T12:00:43Z</time>
      </trkpt>
      <trkpt lat="44.43888" lon="3.92069">
        <ele>620.19</ele>
        <time>2016-04-10T12:00:44Z</time>
      </trkpt>
      <trkpt lat="44.43883" lon="3.92054">
        <ele>620.67</ele>
        <time>2016-04-10T12:00:45Z</time>
      </trkpt>
      <trkpt lat="44.43874" lon="3.9204">
        <ele>621.15</ele>
        <time>2016-04-10T12:00:46Z</time>
      </trkpt>
      <trkpt lat="44.43863" lon="3.92026">
        <ele>621.63</ele>
        <time>2016-04-10T12:00:47Z</time>
      </trkpt>
      <trkpt lat="44.43851" lon="3.92013">
        <ele>622.11</ele>
        <time>2016-04-10T12:00:48Z</time>
      </trkpt>
      <trkpt lat="44.43838" lon="3.92002">
        <ele>622.59</ele>
        <time>2016-04-10T12:00:49Z</time>
      </trkpt>
      <trkpt lat="44.43824" lon="3.91992">
        <ele>623.55</ele>
        <time>2016-04-10T12:00:50Z</time>
      </trkpt>
      <trkpt lat="44.43806" lon="3.91986">
        <ele>624.51</ele>
        <time>2016-04-10T12:00:51Z</time>
      </trkpt>
      <trkpt lat="44.43791" lon="3.91985">
        <ele>625.47</ele>
        <time>2016-04-10T12:00:52Z</time>
      </trkpt>
      <trkpt lat="44.43778" lon="3.91985">
        <ele>625.96</ele>
        <time>2016-04-10T12:00:53Z</time>
      </trkpt>
      <trkpt lat="44.43766" lon="3.91983">
        <ele>626.44</ele>
        <time>2016-04-10T12:00:54Z</time>
      </trkpt>
      <trkpt lat="44.43755" lon="3.91976">
        <ele>627.4</ele>
        <time>2016-04-10T12:00:55Z</time>
      </trkpt>
      <trkpt lat="44.43745" lon="3.91966">
        <ele>628.36</ele>
        <time>2016-04-10T12:00:56Z</time>
      </trkpt>
      <trkpt lat="44.43736" lon="3.91951">
        <ele>629.32</ele>
        <time>2016-04-10T12:00:57Z</time>
      </trkpt>
      <trkpt lat="44.43726" lon="3.91937">
        <ele>630.28</ele>
        <time>2016-04-10T12:00:58Z</time>
      </trkpt>
      <trkpt lat="44.4365" lon="3.9181">
        <ele>637.97</ele>
        <time>2016-04-10T12:01:06Z</time>
      </trkpt>
      <trkpt lat="44.43632" lon="3.9177">
        <ele>640.86</ele>
        <time>2016-04-10T12:01:09Z</time>
      </trkpt>
      <trkpt lat="44.43624" lon="3.91764">
        <ele>641.82</ele>
        <time>2016-04-10T12:01:10Z</time>
      </trkpt>
      <trkpt lat="44.43616" lon="3.91763">
        <ele>642.78</ele>
        <time>2016-04-10T12:01:11Z</time>
      </trkpt>
      <trkpt lat="44.43604" lon="3.91765">
        <ele>643.74</ele>
        <time>2016-04-10T12:01:12Z</time>
      </trkpt>
      <trkpt lat="44.4359" lon="3.91766">
        <ele>645.18</ele>
        <time>2016-04-10T12:01:13Z</time>
      </trkpt>
      <trkpt lat="44.43574" lon="3.91771">
        <ele>645.66</ele>
        <time>2016-04-10T12:01:14Z</time>
      </trkpt>
      <trkpt lat="44.43556" lon="3.91774">
        <ele>646.14</ele>
        <time>2016-04-10T12:01:15Z</time>
      </trkpt>
      <trkpt lat="44.43539" lon="3.91776">
        <ele>646.62</ele>
        <time>2016-04-10T12:01:16Z</time>
      </trkpt>
      <trkpt lat="44.43455" lon="3.91767">
        <ele>652.87</ele>
        <time>2016-04-10T12:01:21Z</time>
      </trkpt>
      <trkpt lat="44.4344" lon="3.91759">
        <ele>654.31</ele>
        <time>2016-04-10T12:01:22Z</time>
      </trkpt>
      <trkpt lat="44.43426" lon="3.91749">
        <ele>655.28</ele>
        <time>2016-04-10T12:01:23Z</time>
      </trkpt>
      <trkpt lat="44.43413" lon="3.91736">
        <ele>656.24</ele>
        <time>2016-04-10T12:01:24Z</time>
      </trkpt>
      <trkpt lat="44.43401" lon="3.91723">
        <ele>657.2</ele>
        <time>2016-04-10T12:01:25Z</time>
      </trkpt>
      <trkpt lat="44.43389" lon="3.91709">
        <ele>658.64</ele>
        <time>2016-04-10T12:01:26Z</time>
      </trkpt>
      <trkpt lat="44.43365" lon="3.91684">
        <ele>660.56</ele>
        <time>2016-04-10T12:01:28Z</time>
      </trkpt>
      <trkpt lat="44.43324" lon="3.91658">
        <ele>664.41</ele>
        <time>2016-04-10T12:01:31Z</time>
      </trkpt>
      <trkpt lat="44.4331" lon="3.91656">
        <ele>665.37</ele>
        <time>2016-04-10T12:01:32Z</time>
      </trkpt>
      <trkpt lat="44.43295" lon="3.91657">
        <ele>666.81</ele>
        <time>2016-04-10T12:01:33Z</time>
      </trkpt>
      <trkpt lat="44.4328" lon="3.91664">
        <ele>668.25</ele>
        <time>2016-04-10T12:01:34Z</time>
      </trkpt>
      <trkpt lat="44.43267" lon="3.91675">
        <ele>669.22</ele>
        <time>2016-04-10T12:01:35Z</time>
      </trkpt>
      <trkpt lat="44.43255" lon="3.91689">
        <ele>670.18</ele>
        <time>2016-04-10T12:01:36Z</time>
      </trkpt>
      <trkpt lat="44.43244" lon="3.91705">
        <ele>671.62</ele>
        <time>2016-04-10T12:01:37Z</time>
      </trkpt>
      <trkpt lat="44.43231" lon="3.91721">
        <ele>672.58</ele>
        <time>2016-04-10T12:01:38Z</time>
      </trkpt>
      <trkpt lat="44.43119" lon="3.91817">
        <ele>683.63</ele>
        <time>2016-04-10T12:01:46Z</time>
      </trkpt>
      <trkpt lat="44.43107" lon="3.91816">
        <ele>684.12</ele>
        <time>2016-04-10T12:01:47Z</time>
      </trkpt>
      <trkpt lat="44.43094" lon="3.91804">
        <ele>686.04</ele>
        <time>2016-04-10T12:01:48Z</time>
      </trkpt>
      <trkpt lat="44.43083" lon="3.91791">
        <ele>686.04</ele>
        <time>2016-04-10T12:01:49Z</time>
      </trkpt>
      <trkpt lat="44.43071" lon="3.91775">
        <ele>687.48</ele>
        <time>2016-04-10T12:01:50Z</time>
      </trkpt>
      <trkpt lat="44.43057" lon="3.91764">
        <ele>688.44</ele>
        <time>2016-04-10T12:01:51Z</time>
      </trkpt>
      <trkpt lat="44.43039" lon="3.91754">
        <ele>689.4</ele>
        <time>2016-04-10T12:01:52Z</time>
      </trkpt>
      <trkpt lat="44.4302" lon="3.91749">
        <ele>690.36</ele>
        <time>2016-04-10T12:01:53Z</time>
      </trkpt>
      <trkpt lat="44.43" lon="3.91746">
        <ele>691.33</ele>
        <time>2016-04-10T12:01:54Z</time>
      </trkpt>
      <trkpt lat="44.42979" lon="3.91743">
        <ele>692.29</ele>
        <time>2016-04-10T12:01:55Z</time>
      </trkpt>
      <trkpt lat="44.4296" lon="3.91737">
        <ele>693.73</ele>
        <time>2016-04-10T12:01:56Z</time>
      </trkpt>
      <trkpt lat="44.42941" lon="3.9173">
        <ele>694.69</ele>
        <time>2016-04-10T12:01:57Z</time>
      </trkpt>
      <trkpt lat="44.4289" lon="3.91712">
        <ele>697.09</ele>
        <time>2016-04-10T12:02:00Z</time>
      </trkpt>
      <trkpt lat="44.42873" lon="3.91711">
        <ele>697.57</ele>
        <time>2016-04-10T12:02:01Z</time>
      </trkpt>
      <trkpt lat="44.42856" lon="3.91712">
        <ele>698.53</ele>
        <time>2016-04-10T12:02:02Z</time>
      </trkpt>
      <trkpt lat="44.42822" lon="3.91704">
        <ele>702.86</ele>
        <time>2016-04-10T12:02:05Z</time>
      </trkpt>
      <trkpt lat="44.42812" lon="3.91696">
        <ele>702.86</ele>
        <time>2016-04-10T12:02:06Z</time>
      </trkpt>
      <trkpt lat="44.42801" lon="3.91688">
        <ele>703.34</ele>
        <time>2016-04-10T12:02:07Z</time>
      </trkpt>
      <trkpt lat="44.42787" lon="3.91687">
        <ele>704.3</ele>
        <time>2016-04-10T12:02:08Z</time>
      </trkpt>
      <trkpt lat="44.42774" lon="3.91689">
        <ele>705.75</ele>
        <time>2016-04-10T12:02:09Z</time>
      </trkpt>
      <trkpt lat="44.42761" lon="3.91693">
        <ele>706.23</ele>
        <time>2016-04-10T12:02:10Z</time>
      </trkpt>
      <trkpt lat="44.42749" lon="3.91695">
        <ele>707.19</ele>
        <time>2016-04-10T12:02:11Z</time>
      </trkpt>
      <trkpt lat="44.42738" lon="3.91694">
        <ele>707.67</ele>
        <time>2016-04-10T12:02:12Z</time>
      </trkpt>
      <trkpt lat="44.42729" lon="3.91686">
        <ele>708.15</ele>
        <time>2016-04-10T12:02:13Z</time>
      </trkpt>
      <trkpt lat="44.4272" lon="3.91676">
        <ele>708.63</ele>
        <time>2016-04-10T12:02:14Z</time>
      </trkpt>
      <trkpt lat="44.42709" lon="3.91665">
        <ele>710.07</ele>
        <time>2016-04-10T12:02:15Z</time>
      </trkpt>
      <trkpt lat="44.42697" lon="3.91657">
        <ele>710.07</ele>
        <time>2016-04-10T12:02:16Z</time>
      </trkpt>
      <trkpt lat="44.42686" lon="3.91644">
        <ele>711.03</ele>
        <time>2016-04-10T12:02:17Z</time>
      </trkpt>
      <trkpt lat="44.42678" lon="3.91628">
        <ele>711.03</ele>
        <time>2016-04-10T12:02:18Z</time>
      </trkpt>
      <trkpt lat="44.42674" lon="3.91609">
        <ele>711.03</ele>
        <time>2016-04-10T12:02:19Z</time>
      </trkpt>
      <trkpt lat="44.42673" lon="3.9159">
        <ele>711.51</ele>
        <time>2016-04-10T12:02:20Z</time>
      </trkpt>
      <trkpt lat="44.42676" lon="3.91572">
        <ele>711.51</ele>
        <time>2016-04-10T12:02:21Z</time>
      </trkpt>
      <trkpt lat="44.42675" lon="3.91554">
        <ele>712.47</ele>
        <time>2016-04-10T12:02:22Z</time>
      </trkpt>
      <trkpt lat="44.42673" lon="3.91537">
        <ele>713.44</ele>
        <time>2016-04-10T12:02:23Z</time>
      </trkpt>
      <trkpt lat="44.42667" lon="3.91524">
        <ele>714.4</ele>
        <time>2016-04-10T12:02:24Z</time>
      </trkpt>
      <trkpt lat="44.42661" lon="3.91507">
        <ele>713.92</ele>
        <time>2016-04-10T12:02:25Z</time>
      </trkpt>
      <trkpt lat="44.42659" lon="3.91486">
        <ele>715.36</ele>
        <time>2016-04-10T12:02:26Z</time>
      </trkpt>
      <trkpt lat="44.42656" lon="3.91464">
        <ele>715.84</ele>
        <time>2016-04-10T12:02:27Z</time>
      </trkpt>
      <trkpt lat="44.42654" lon="3.91443">
        <ele>716.32</ele>
        <time>2016-04-10T12:02:28Z</time>
      </trkpt>
      <trkpt lat="44.4265" lon="3.91425">
        <ele>716.8</ele>
        <time>2016-04-10T12:02:29Z</time>
      </trkpt>
      <trkpt lat="44.42643" lon="3.91414">
        <ele>716.8</ele>
        <time>2016-04-10T12:02:30Z</time>
      </trkpt>
      <trkpt lat="44.42634" lon="3.91408">
        <ele>717.28</ele>
        <time>2016-04-10T12:02:31Z</time>
      </trkpt>
      <trkpt lat="44.42624" lon="3.9141">
        <ele>716.8</ele>
        <time>2016-04-10T12:02:32Z</time>
      </trkpt>
      <trkpt lat="44.42613" lon="3.91419">
        <ele>716.32</ele>
        <time>2016-04-10T12:02:33Z</time>
      </trkpt>
      <trkpt lat="44.42601" lon="3.91434">
        <ele>716.32</ele>
        <time>2016-04-10T12:02:34Z</time>
      </trkpt>
      <trkpt lat="44.4259" lon="3.91453">
        <ele>716.32</ele>
        <time>2016-04-10T12:02:35Z</time>
      </trkpt>
      <trkpt lat="44.42578" lon="3.91473">
        <ele>716.8</ele>
        <time>2016-04-10T12:02:36Z</time>
      </trkpt>
      <trkpt lat="44.4248" lon="3.91568">
        <ele>717.28</ele>
        <time>2016-04-10T12:02:44Z</time>
      </trkpt>
      <trkpt lat="44.42464" lon="3.91556">
        <ele>716.32</ele>
        <time>2016-04-10T12:02:45Z</time>
      </trkpt>
      <trkpt lat="44.42447" lon="3.91532">
        <ele>718.72</ele>
        <time>2016-04-10T12:02:46Z</time>
      </trkpt>
      <trkpt lat="44.42431" lon="3.9151">
        <ele>718.72</ele>
        <time>2016-04-10T12:02:47Z</time>
      </trkpt>
      <trkpt lat="44.42419" lon="3.91491">
        <ele>718.72</ele>
        <time>2016-04-10T12:02:48Z</time>
      </trkpt>
      <trkpt lat="44.42398" lon="3.91448">
        <ele>718.72</ele>
        <time>2016-04-10T12:02:50Z</time>
      </trkpt>
      <trkpt lat="44.42395" lon="3.91423">
        <ele>718.24</ele>
        <time>2016-04-10T12:02:51Z</time>
      </trkpt>
      <trkpt lat="44.42393" lon="3.91397">
        <ele>717.76</ele>
        <time>2016-04-10T12:02:52Z</time>
      </trkpt>
      <trkpt lat="44.42394" lon="3.91373">
        <ele>717.76</ele>
        <time>2016-04-10T12:02:53Z</time>
      </trkpt>
      <trkpt lat="44.42395" lon="3.91351">
        <ele>717.76</ele>
        <time>2016-04-10T12:02:54Z</time>
      </trkpt>
      <trkpt lat="44.42395" lon="3.91331">
        <ele>719.2</ele>
        <time>2016-04-10T12:02:55Z</time>
      </trkpt>
      <trkpt lat="44.42392" lon="3.91312">
        <ele>720.16</ele>
        <time>2016-04-10T12:02:56Z</time>
      </trkpt>
      <trkpt lat="44.42383" lon="3.91298">
        <ele>719.68</ele>
        <time>2016-04-10T12:02:57Z</time>
      </trkpt>
      <trkpt lat="44.4237" lon="3.91287">
        <ele>720.16</ele>
        <time>2016-04-10T12:02:58Z</time>
      </trkpt>
      <trkpt lat="44.42353" lon="3.91284">
        <ele>720.65</ele>
        <time>2016-04-10T12:02:59Z</time>
      </trkpt>
      <trkpt lat="44.42335" lon="3.9128">
        <ele>721.13</ele>
        <time>2016-04-10T12:03:00Z</time>
      </trkpt>
      <trkpt lat="44.42316" lon="3.91275">
        <ele>721.61</ele>
        <time>2016-04-10T12:03:01Z</time>
      </trkpt>
      <trkpt lat="44.42298" lon="3.91267">
        <ele>722.09</ele>
        <time>2016-04-10T12:03:02Z</time>
      </trkpt>
      <trkpt lat="44.4228" lon="3.91254">
        <ele>723.53</ele>
        <time>2016-04-10T12:03:03Z</time>
      </trkpt>
      <trkpt lat="44.42265" lon="3.91237">
        <ele>724.49</ele>
        <time>2016-04-10T12:03:04Z</time>
      </trkpt>
      <trkpt lat="44.42251" lon="3.91219">
        <ele>725.45</ele>
        <time>2016-04-10T12:03:05Z</time>
      </trkpt>
      <trkpt lat="44.42239" lon="3.91201">
        <ele>725.93</ele>
        <time>2016-04-10T12:03:06Z</time>
      </trkpt>
      <trkpt lat="44.42213" lon="3.91139">
        <ele>727.86</ele>
        <time>2016-04-10T12:03:09Z</time>
      </trkpt>
      <trkpt lat="44.4221" lon="3.91116">
        <ele>727.86</ele>
        <time>2016-04-10T12:03:10Z</time>
      </trkpt>
      <trkpt lat="44.42211" lon="3.91095">
        <ele>728.34</ele>
        <time>2016-04-10T12:03:11Z</time>
      </trkpt>
      <trkpt lat="44.42217" lon="3.91076">
        <ele>729.78</ele>
        <time>2016-04-10T12:03:12Z</time>
      </trkpt>
      <trkpt lat="44.42223" lon="3.91058">
        <ele>731.22</ele>
        <time>2016-04-10T12:03:13Z</time>
      </trkpt>
      <trkpt lat="44.42227" lon="3.9104">
        <ele>731.7</ele>
        <time>2016-04-10T12:03:14Z</time>
      </trkpt>
      <trkpt lat="44.4223" lon="3.91021">
        <ele>732.66</ele>
        <time>2016-04-10T12:03:15Z</time>
      </trkpt>
      <trkpt lat="44.42229" lon="3.91003">
        <ele>732.66</ele>
        <time>2016-04-10T12:03:16Z</time>
      </trkpt>
      <trkpt lat="44.42222" lon="3.90989">
        <ele>732.18</ele>
        <time>2016-04-10T12:03:17Z</time>
      </trkpt>
      <trkpt lat="44.42209" lon="3.90979">
        <ele>733.14</ele>
        <time>2016-04-10T12:03:18Z</time>
      </trkpt>
      <trkpt lat="44.42194" lon="3.90974">
        <ele>733.62</ele>
        <time>2016-04-10T12:03:19Z</time>
      </trkpt>
      <trkpt lat="44.42177" lon="3.90975">
        <ele>734.58</ele>
        <time>2016-04-10T12:03:20Z</time>
      </trkpt>
      <trkpt lat="44.4216" lon="3.90979">
        <ele>735.07</ele>
        <time>2016-04-10T12:03:21Z</time>
      </trkpt>
      <trkpt lat="44.42142" lon="3.90991">
        <ele>736.99</ele>
        <time>2016-04-10T12:03:22Z</time>
      </trkpt>
      <trkpt lat="44.42125" lon="3.91004">
        <ele>736.99</ele>
        <time>2016-04-10T12:03:23Z</time>
      </trkpt>
      <trkpt lat="44.42107" lon="3.91018">
        <ele>739.39</ele>
        <time>2016-04-10T12:03:24Z</time>
      </trkpt>
      <trkpt lat="44.42008" lon="3.91084">
        <ele>746.6</ele>
        <time>2016-04-10T12:03:30Z</time>
      </trkpt>
      <trkpt lat="44.41989" lon="3.91079">
        <ele>748.04</ele>
        <time>2016-04-10T12:03:31Z</time>
      </trkpt>
      <trkpt lat="44.41974" lon="3.91074">
        <ele>749</ele>
        <time>2016-04-10T12:03:32Z</time>
      </trkpt>
      <trkpt lat="44.4196" lon="3.91065">
        <ele>749.97</ele>
        <time>2016-04-10T12:03:33Z</time>
      </trkpt>
      <trkpt lat="44.41948" lon="3.91054">
        <ele>750.93</ele>
        <time>2016-04-10T12:03:34Z</time>
      </trkpt>
      <trkpt lat="44.41938" lon="3.91042">
        <ele>750.93</ele>
        <time>2016-04-10T12:03:35Z</time>
      </trkpt>
      <trkpt lat="44.41928" lon="3.91031">
        <ele>751.41</ele>
        <time>2016-04-10T12:03:36Z</time>
      </trkpt>
      <trkpt lat="44.41905" lon="3.91002">
        <ele>752.37</ele>
        <time>2016-04-10T12:03:39Z</time>
      </trkpt>
      <trkpt lat="44.41899" lon="3.9099">
        <ele>752.85</ele>
        <time>2016-04-10T12:03:40Z</time>
      </trkpt>
      <trkpt lat="44.41899" lon="3.90976">
        <ele>753.33</ele>
        <time>2016-04-10T12:03:41Z</time>
      </trkpt>
      <trkpt lat="44.41903" lon="3.90961">
        <ele>753.33</ele>
        <time>2016-04-10T12:03:42Z</time>
      </trkpt>
      <trkpt lat="44.4191" lon="3.90955">
        <ele>752.85</ele>
        <time>2016-04-10T12:03:43Z</time>
      </trkpt>
      <trkpt lat="44.41922" lon="3.90953">
        <ele>753.33</ele>
        <time>2016-04-10T12:03:44Z</time>
      </trkpt>
      <trkpt lat="44.41936" lon="3.90954">
        <ele>755.73</ele>
        <time>2016-04-10T12:03:45Z</time>
      </trkpt>
      <trkpt lat="44.4195" lon="3.90954">
        <ele>757.18</ele>
        <time>2016-04-10T12:03:46Z</time>
      </trkpt>
      <trkpt lat="44.41964" lon="3.9095">
        <ele>757.66</ele>
        <time>2016-04-10T12:03:47Z</time>
      </trkpt>
      <trkpt lat="44.41977" lon="3.90941">
        <ele>758.62</ele>
        <time>2016-04-10T12:03:48Z</time>
      </trkpt>
      <trkpt lat="44.41988" lon="3.90928">
        <ele>759.58</ele>
        <time>2016-04-10T12:03:49Z</time>
      </trkpt>
      <trkpt lat="44.42" lon="3.90914">
        <ele>761.02</ele>
        <time>2016-04-10T12:03:50Z</time>
      </trkpt>
      <trkpt lat="44.4201" lon="3.90899">
        <ele>761.98</ele>
        <time>2016-04-10T12:03:51Z</time>
      </trkpt>
      <trkpt lat="44.42021" lon="3.90887">
        <ele>762.94</ele>
        <time>2016-04-10T12:03:52Z</time>
      </trkpt>
      <trkpt lat="44.42031" lon="3.90882">
        <ele>763.42</ele>
        <time>2016-04-10T12:03:53Z</time>
      </trkpt>
      <trkpt lat="44.42042" lon="3.90876">
        <ele>763.42</ele>
        <time>2016-04-10T12:03:54Z</time>
      </trkpt>
      <trkpt lat="44.42053" lon="3.90868">
        <ele>763.9</ele>
        <time>2016-04-10T12:03:55Z</time>
      </trkpt>
      <trkpt lat="44.42067" lon="3.9086">
        <ele>765.35</ele>
        <time>2016-04-10T12:03:56Z</time>
      </trkpt>
      <trkpt lat="44.42078" lon="3.90851">
        <ele>766.31</ele>
        <time>2016-04-10T12:03:57Z</time>
      </trkpt>
      <trkpt lat="44.42092" lon="3.90847">
        <ele>766.79</ele>
        <time>2016-04-10T12:03:58Z</time>
      </trkpt>
      <trkpt lat="44.42105" lon="3.90847">
        <ele>767.75</ele>
        <time>2016-04-10T12:03:59Z</time>
      </trkpt>
      <trkpt lat="44.42115" lon="3.9085">
        <ele>768.23</ele>
        <time>2016-04-10T12:04:00Z</time>
      </trkpt>
      <trkpt lat="44.42126" lon="3.90852">
        <ele>769.67</ele>
        <time>2016-04-10T12:04:01Z</time>
      </trkpt>
      <trkpt lat="44.42134" lon="3.9085">
        <ele>770.15</ele>
        <time>2016-04-10T12:04:02Z</time>
      </trkpt>
      <trkpt lat="44.42139" lon="3.90844">
        <ele>770.63</ele>
        <time>2016-04-10T12:04:03Z</time>
      </trkpt>
      <trkpt lat="44.42143" lon="3.90836">
        <ele>771.6</ele>
        <time>2016-04-10T12:04:04Z</time>
      </trkpt>
      <trkpt lat="44.42143" lon="3.90829">
        <ele>772.56</ele>
        <time>2016-04-10T12:04:05Z</time>
      </trkpt>
      <trkpt lat="44.42139" lon="3.90825">
        <ele>772.56</ele>
        <time>2016-04-10T12:04:06Z</time>
      </trkpt>
      <trkpt lat="44.42115" lon="3.90827">
        <ele>773.52</ele>
        <time>2016-04-10T12:04:08Z</time>
      </trkpt>
      <trkpt lat="44.421" lon="3.90827">
        <ele>774</ele>
        <time>2016-04-10T12:04:09Z</time>
      </trkpt>
      <trkpt lat="44.42078" lon="3.90829">
        <ele>774.48</ele>
        <time>2016-04-10T12:04:10Z</time>
      </trkpt>
      <trkpt lat="44.41971" lon="3.90858">
        <ele>783.61</ele>
        <time>2016-04-10T12:04:16Z</time>
      </trkpt>
      <trkpt lat="44.41957" lon="3.90863">
        <ele>785.05</ele>
        <time>2016-04-10T12:04:17Z</time>
      </trkpt>
      <trkpt lat="44.41941" lon="3.90863">
        <ele>786.5</ele>
        <time>2016-04-10T12:04:18Z</time>
      </trkpt>
      <trkpt lat="44.41926" lon="3.9086">
        <ele>787.46</ele>
        <time>2016-04-10T12:04:19Z</time>
      </trkpt>
      <trkpt lat="44.4191" lon="3.90854">
        <ele>788.9</ele>
        <time>2016-04-10T12:04:20Z</time>
      </trkpt>
      <trkpt lat="44.41895" lon="3.90849">
        <ele>790.34</ele>
        <time>2016-04-10T12:04:21Z</time>
      </trkpt>
      <trkpt lat="44.41866" lon="3.90837">
        <ele>792.74</ele>
        <time>2016-04-10T12:04:23Z</time>
      </trkpt>
      <trkpt lat="44.41854" lon="3.9083">
        <ele>794.67</ele>
        <time>2016-04-10T12:04:24Z</time>
      </trkpt>
      <trkpt lat="44.41831" lon="3.90814">
        <ele>797.07</ele>
        <time>2016-04-10T12:04:26Z</time>
      </trkpt>
      <trkpt lat="44.4182" lon="3.90812">
        <ele>798.51</ele>
        <time>2016-04-10T12:04:27Z</time>
      </trkpt>
      <trkpt lat="44.4181" lon="3.90817">
        <ele>798.99</ele>
        <time>2016-04-10T12:04:28Z</time>
      </trkpt>
      <trkpt lat="44.41801" lon="3.90828">
        <ele>799.95</ele>
        <time>2016-04-10T12:04:29Z</time>
      </trkpt>
      <trkpt lat="44.41793" lon="3.90841">
        <ele>800.44</ele>
        <time>2016-04-10T12:04:30Z</time>
      </trkpt>
      <trkpt lat="44.41784" lon="3.90853">
        <ele>801.4</ele>
        <time>2016-04-10T12:04:31Z</time>
      </trkpt>
      <trkpt lat="44.41774" lon="3.90862">
        <ele>802.36</ele>
        <time>2016-04-10T12:04:32Z</time>
      </trkpt>
      <trkpt lat="44.41764" lon="3.90868">
        <ele>803.32</ele>
        <time>2016-04-10T12:04:33Z</time>
      </trkpt>
      <trkpt lat="44.41752" lon="3.90873">
        <ele>804.76</ele>
        <time>2016-04-10T12:04:34Z</time>
      </trkpt>
      <trkpt lat="44.41663" lon="3.90915">
        <ele>811.49</ele>
        <time>2016-04-10T12:04:43Z</time>
      </trkpt>
      <trkpt lat="44.41655" lon="3.90916">
        <ele>812.45</ele>
        <time>2016-04-10T12:04:44Z</time>
      </trkpt>
      <trkpt lat="44.41648" lon="3.90915">
        <ele>813.41</ele>
        <time>2016-04-10T12:04:45Z</time>
      </trkpt>
      <trkpt lat="44.41643" lon="3.90912">
        <ele>813.89</ele>
        <time>2016-04-10T12:04:46Z</time>
      </trkpt>
      <trkpt lat="44.41638" lon="3.90907">
        <ele>814.37</ele>
        <time>2016-04-10T12:04:47Z</time>
      </trkpt>
      <trkpt lat="44.41634" lon="3.909">
        <ele>815.34</ele>
        <time>2016-04-10T12:04:48Z</time>
      </trkpt>
      <trkpt lat="44.4163" lon="3.90892">
        <ele>815.82</ele>
        <time>2016-04-10T12:04:49Z</time>
      </trkpt>
      <trkpt lat="44.41615" lon="3.90862">
        <ele>816.3</ele>
        <time>2016-04-10T12:04:52Z</time>
      </trkpt>
      <trkpt lat="44.41609" lon="3.90854">
        <ele>816.78</ele>
        <time>2016-04-10T12:04:53Z</time>
      </trkpt>
      <trkpt lat="44.41602" lon="3.90853">
        <ele>816.78</ele>
        <time>2016-04-10T12:04:54Z</time>
      </trkpt>
      <trkpt lat="44.41593" lon="3.90855">
        <ele>816.78</ele>
        <time>2016-04-10T12:04:55Z</time>
      </trkpt>
      <trkpt lat="44.41583" lon="3.90861">
        <ele>816.78</ele>
        <time>2016-04-10T12:04:56Z</time>
      </trkpt>
      <trkpt lat="44.41573" lon="3.90869">
        <ele>817.26</ele>
        <time>2016-04-10T12:04:57Z</time>
      </trkpt>
      <trkpt lat="44.4146" lon="3.90925">
        <ele>826.39</ele>
        <time>2016-04-10T12:05:05Z</time>
      </trkpt>
      <trkpt lat="44.41354" lon="3.9093">
        <ele>835.04</ele>
        <time>2016-04-10T12:05:11Z</time>
      </trkpt>
      <trkpt lat="44.41339" lon="3.90934">
        <ele>836.48</ele>
        <time>2016-04-10T12:05:12Z</time>
      </trkpt>
      <trkpt lat="44.41311" lon="3.90944">
        <ele>839.37</ele>
        <time>2016-04-10T12:05:14Z</time>
      </trkpt>
      <trkpt lat="44.413" lon="3.90943">
        <ele>841.29</ele>
        <time>2016-04-10T12:05:15Z</time>
      </trkpt>
      <trkpt lat="44.41288" lon="3.90939">
        <ele>842.73</ele>
        <time>2016-04-10T12:05:16Z</time>
      </trkpt>
      <trkpt lat="44.41275" lon="3.9093">
        <ele>844.18</ele>
        <time>2016-04-10T12:05:17Z</time>
      </trkpt>
      <trkpt lat="44.41267" lon="3.90912">
        <ele>845.62</ele>
        <time>2016-04-10T12:05:18Z</time>
      </trkpt>
      <trkpt lat="44.4126" lon="3.90893">
        <ele>846.58</ele>
        <time>2016-04-10T12:05:19Z</time>
      </trkpt>
      <trkpt lat="44.41251" lon="3.90873">
        <ele>848.02</ele>
        <time>2016-04-10T12:05:20Z</time>
      </trkpt>
      <trkpt lat="44.41241" lon="3.90854">
        <ele>849.46</ele>
        <time>2016-04-10T12:05:21Z</time>
      </trkpt>
      <trkpt lat="44.41229" lon="3.90836">
        <ele>850.9</ele>
        <time>2016-04-10T12:05:22Z</time>
      </trkpt>
      <trkpt lat="44.41216" lon="3.90821">
        <ele>851.87</ele>
        <time>2016-04-10T12:05:23Z</time>
      </trkpt>
      <trkpt lat="44.41201" lon="3.90811">
        <ele>853.31</ele>
        <time>2016-04-10T12:05:24Z</time>
      </trkpt>
      <trkpt lat="44.41184" lon="3.90805">
        <ele>854.75</ele>
        <time>2016-04-10T12:05:25Z</time>
      </trkpt>
      <trkpt lat="44.41169" lon="3.90801">
        <ele>855.71</ele>
        <time>2016-04-10T12:05:26Z</time>
      </trkpt>
      <trkpt lat="44.41155" lon="3.90793">
        <ele>857.15</ele>
        <time>2016-04-10T12:05:27Z</time>
      </trkpt>
      <trkpt lat="44.41143" lon="3.9078">
        <ele>858.59</ele>
        <time>2016-04-10T12:05:28Z</time>
      </trkpt>
      <trkpt lat="44.41134" lon="3.90761">
        <ele>860.04</ele>
        <time>2016-04-10T12:05:29Z</time>
      </trkpt>
      <trkpt lat="44.41127" lon="3.9074">
        <ele>861.48</ele>
        <time>2016-04-10T12:05:30Z</time>
      </trkpt>
      <trkpt lat="44.41122" lon="3.90717">
        <ele>862.44</ele>
        <time>2016-04-10T12:05:31Z</time>
      </trkpt>
      <trkpt lat="44.4112" lon="3.90693">
        <ele>863.88</ele>
        <time>2016-04-10T12:05:32Z</time>
      </trkpt>
      <trkpt lat="44.41121" lon="3.90668">
        <ele>865.32</ele>
        <time>2016-04-10T12:05:33Z</time>
      </trkpt>
      <trkpt lat="44.41121" lon="3.90645">
        <ele>866.77</ele>
        <time>2016-04-10T12:05:34Z</time>
      </trkpt>
      <trkpt lat="44.41118" lon="3.90623">
        <ele>868.21</ele>
        <time>2016-04-10T12:05:35Z</time>
      </trkpt>
      <trkpt lat="44.41114" lon="3.90599">
        <ele>869.17</ele>
        <time>2016-04-10T12:05:36Z</time>
      </trkpt>
      <trkpt lat="44.41111" lon="3.90572">
        <ele>871.09</ele>
        <time>2016-04-10T12:05:37Z</time>
      </trkpt>
      <trkpt lat="44.41111" lon="3.90544">
        <ele>873.01</ele>
        <time>2016-04-10T12:05:38Z</time>
      </trkpt>
      <trkpt lat="44.41113" lon="3.90515">
        <ele>874.46</ele>
        <time>2016-04-10T12:05:39Z</time>
      </trkpt>
      <trkpt lat="44.4112" lon="3.90435">
        <ele>879.74</ele>
        <time>2016-04-10T12:05:42Z</time>
      </trkpt>
      <trkpt lat="44.41118" lon="3.9041">
        <ele>881.19</ele>
        <time>2016-04-10T12:05:43Z</time>
      </trkpt>
      <trkpt lat="44.41114" lon="3.90388">
        <ele>882.15</ele>
        <time>2016-04-10T12:05:44Z</time>
      </trkpt>
      <trkpt lat="44.41105" lon="3.90335">
        <ele>885.51</ele>
        <time>2016-04-10T12:05:48Z</time>
      </trkpt>
      <trkpt lat="44.41107" lon="3.90331">
        <ele>885.99</ele>
        <time>2016-04-10T12:05:49Z</time>
      </trkpt>
      <trkpt lat="44.41111" lon="3.90332">
        <ele>886.47</ele>
        <time>2016-04-10T12:05:50Z</time>
      </trkpt>
      <trkpt lat="44.41117" lon="3.90338">
        <ele>887.43</ele>
        <time>2016-04-10T12:05:51Z</time>
      </trkpt>
      <trkpt lat="44.4112" lon="3.90349">
        <ele>887.91</ele>
        <time>2016-04-10T12:05:52Z</time>
      </trkpt>
      <trkpt lat="44.41122" lon="3.90365">
        <ele>888.4</ele>
        <time>2016-04-10T12:05:53Z</time>
      </trkpt>
      <trkpt lat="44.41124" lon="3.90385">
        <ele>889.36</ele>
        <time>2016-04-10T12:05:54Z</time>
      </trkpt>
      <trkpt lat="44.41129" lon="3.90408">
        <ele>890.32</ele>
        <time>2016-04-10T12:05:55Z</time>
      </trkpt>
      <trkpt lat="44.41135" lon="3.90431">
        <ele>891.76</ele>
        <time>2016-04-10T12:05:56Z</time>
      </trkpt>
      <trkpt lat="44.41142" lon="3.90456">
        <ele>893.2</ele>
        <time>2016-04-10T12:05:57Z</time>
      </trkpt>
      <trkpt lat="44.41174" lon="3.90637">
        <ele>903.3</ele>
        <time>2016-04-10T12:06:04Z</time>
      </trkpt>
      <trkpt lat="44.41178" lon="3.90659">
        <ele>904.74</ele>
        <time>2016-04-10T12:06:05Z</time>
      </trkpt>
      <trkpt lat="44.41184" lon="3.90678">
        <ele>905.7</ele>
        <time>2016-04-10T12:06:06Z</time>
      </trkpt>
      <trkpt lat="44.41193" lon="3.90692">
        <ele>907.14</ele>
        <time>2016-04-10T12:06:07Z</time>
      </trkpt>
      <trkpt lat="44.41204" lon="3.90702">
        <ele>908.58</ele>
        <time>2016-04-10T12:06:08Z</time>
      </trkpt>
      <trkpt lat="44.41219" lon="3.90709">
        <ele>909.54</ele>
        <time>2016-04-10T12:06:09Z</time>
      </trkpt>
      <trkpt lat="44.41234" lon="3.90714">
        <ele>910.51</ele>
        <time>2016-04-10T12:06:10Z</time>
      </trkpt>
      <trkpt lat="44.41247" lon="3.90719">
        <ele>911.47</ele>
        <time>2016-04-10T12:06:11Z</time>
      </trkpt>
      <trkpt lat="44.41264" lon="3.9072">
        <ele>912.91</ele>
        <time>2016-04-10T12:06:13Z</time>
      </trkpt>
      <trkpt lat="44.41269" lon="3.90704">
        <ele>913.39</ele>
        <time>2016-04-10T12:06:15Z</time>
      </trkpt>
      <trkpt lat="44.41266" lon="3.90698">
        <ele>913.39</ele>
        <time>2016-04-10T12:06:16Z</time>
      </trkpt>
      <trkpt lat="44.41259" lon="3.90694">
        <ele>913.39</ele>
        <time>2016-04-10T12:06:17Z</time>
      </trkpt>
      <trkpt lat="44.41248" lon="3.90692">
        <ele>913.87</ele>
        <time>2016-04-10T12:06:18Z</time>
      </trkpt>
      <trkpt lat="44.41236" lon="3.90688">
        <ele>914.35</ele>
        <time>2016-04-10T12:06:19Z</time>
      </trkpt>
      <trkpt lat="44.41222" lon="3.90682">
        <ele>915.31</ele>
        <time>2016-04-10T12:06:20Z</time>
      </trkpt>
      <trkpt lat="44.4121" lon="3.9067">
        <ele>915.79</ele>
        <time>2016-04-10T12:06:21Z</time>
      </trkpt>
      <trkpt lat="44.41202" lon="3.90653">
        <ele>916.75</ele>
        <time>2016-04-10T12:06:22Z</time>
      </trkpt>
      <trkpt lat="44.412" lon="3.90634">
        <ele>917.24</ele>
        <time>2016-04-10T12:06:23Z</time>
      </trkpt>
      <trkpt lat="44.412" lon="3.9061">
        <ele>918.2</ele>
        <time>2016-04-10T12:06:24Z</time>
      </trkpt>
      <trkpt lat="44.41203" lon="3.90585">
        <ele>919.64</ele>
        <time>2016-04-10T12:06:25Z</time>
      </trkpt>
      <trkpt lat="44.41205" lon="3.90558">
        <ele>921.56</ele>
        <time>2016-04-10T12:06:26Z</time>
      </trkpt>
      <trkpt lat="44.41204" lon="3.9053">
        <ele>923.48</ele>
        <time>2016-04-10T12:06:27Z</time>
      </trkpt>
      <trkpt lat="44.41204" lon="3.90503">
        <ele>924.93</ele>
        <time>2016-04-10T12:06:28Z</time>
      </trkpt>
      <trkpt lat="44.41206" lon="3.90475">
        <ele>926.37</ele>
        <time>2016-04-10T12:06:29Z</time>
      </trkpt>
      <trkpt lat="44.4121" lon="3.90424">
        <ele>930.21</ele>
        <time>2016-04-10T12:06:31Z</time>
      </trkpt>
      <trkpt lat="44.41208" lon="3.90397">
        <ele>931.65</ele>
        <time>2016-04-10T12:06:32Z</time>
      </trkpt>
      <trkpt lat="44.41204" lon="3.90368">
        <ele>933.58</ele>
        <time>2016-04-10T12:06:33Z</time>
      </trkpt>
      <trkpt lat="44.41173" lon="3.90189">
        <ele>945.11</ele>
        <time>2016-04-10T12:06:39Z</time>
      </trkpt>
      <trkpt lat="44.41162" lon="3.90136">
        <ele>948.96</ele>
        <time>2016-04-10T12:06:41Z</time>
      </trkpt>
      <trkpt lat="44.4116" lon="3.9011">
        <ele>950.4</ele>
        <time>2016-04-10T12:06:42Z</time>
      </trkpt>
      <trkpt lat="44.41162" lon="3.90083">
        <ele>952.32</ele>
        <time>2016-04-10T12:06:43Z</time>
      </trkpt>
      <trkpt lat="44.41164" lon="3.9003">
        <ele>956.17</ele>
        <time>2016-04-10T12:06:45Z</time>
      </trkpt>
      <trkpt lat="44.4116" lon="3.90004">
        <ele>957.61</ele>
        <time>2016-04-10T12:06:46Z</time>
      </trkpt>
      <trkpt lat="44.41154" lon="3.8998">
        <ele>959.53</ele>
        <time>2016-04-10T12:06:47Z</time>
      </trkpt>
      <trkpt lat="44.41144" lon="3.89954">
        <ele>960.98</ele>
        <time>2016-04-10T12:06:48Z</time>
      </trkpt>
      <trkpt lat="44.41135" lon="3.89928">
        <ele>962.42</ele>
        <time>2016-04-10T12:06:49Z</time>
      </trkpt>
      <trkpt lat="44.41128" lon="3.89901">
        <ele>964.34</ele>
        <time>2016-04-10T12:06:50Z</time>
      </trkpt>
      <trkpt lat="44.41124" lon="3.89874">
        <ele>965.78</ele>
        <time>2016-04-10T12:06:51Z</time>
      </trkpt>
      <trkpt lat="44.41124" lon="3.89846">
        <ele>967.7</ele>
        <time>2016-04-10T12:06:52Z</time>
      </trkpt>
      <trkpt lat="44.41129" lon="3.89821">
        <ele>969.15</ele>
        <time>2016-04-10T12:06:53Z</time>
      </trkpt>
      <trkpt lat="44.41138" lon="3.89797">
        <ele>970.59</ele>
        <time>2016-04-10T12:06:54Z</time>
      </trkpt>
      <trkpt lat="44.41151" lon="3.89779">
        <ele>972.99</ele>
        <time>2016-04-10T12:06:55Z</time>
      </trkpt>
      <trkpt lat="44.41164" lon="3.89762">
        <ele>974.91</ele>
        <time>2016-04-10T12:06:56Z</time>
      </trkpt>
      <trkpt lat="44.41175" lon="3.89747">
        <ele>976.36</ele>
        <time>2016-04-10T12:06:57Z</time>
      </trkpt>
      <trkpt lat="44.41184" lon="3.89734">
        <ele>977.8</ele>
        <time>2016-04-10T12:06:58Z</time>
      </trkpt>
      <trkpt lat="44.41189" lon="3.89718">
        <ele>979.24</ele>
        <time>2016-04-10T12:06:59Z</time>
      </trkpt>
      <trkpt lat="44.41187" lon="3.89702">
        <ele>978.76</ele>
        <time>2016-04-10T12:07:00Z</time>
      </trkpt>
      <trkpt lat="44.41182" lon="3.89683">
        <ele>979.24</ele>
        <time>2016-04-10T12:07:01Z</time>
      </trkpt>
      <trkpt lat="44.41174" lon="3.89667">
        <ele>979.72</ele>
        <time>2016-04-10T12:07:02Z</time>
      </trkpt>
      <trkpt lat="44.41159" lon="3.89653">
        <ele>980.68</ele>
        <time>2016-04-10T12:07:03Z</time>
      </trkpt>
      <trkpt lat="44.41144" lon="3.89638">
        <ele>981.64</ele>
        <time>2016-04-10T12:07:04Z</time>
      </trkpt>
      <trkpt lat="44.41048" lon="3.89554">
        <ele>991.74</ele>
        <time>2016-04-10T12:07:10Z</time>
      </trkpt>
      <trkpt lat="44.41031" lon="3.89554">
        <ele>993.18</ele>
        <time>2016-04-10T12:07:11Z</time>
      </trkpt>
      <trkpt lat="44.41015" lon="3.89558">
        <ele>995.1</ele>
        <time>2016-04-10T12:07:12Z</time>
      </trkpt>
      <trkpt lat="44.40989" lon="3.89559">
        <ele>997.02</ele>
        <time>2016-04-10T12:07:14Z</time>
      </trkpt>
      <trkpt lat="44.4098" lon="3.8955">
        <ele>997.99</ele>
        <time>2016-04-10T12:07:15Z</time>
      </trkpt>
      <trkpt lat="44.40974" lon="3.89518">
        <ele>1000.39</ele>
        <time>2016-04-10T12:07:17Z</time>
      </trkpt>
      <trkpt lat="44.4098" lon="3.895">
        <ele>1001.35</ele>
        <time>2016-04-10T12:07:18Z</time>
      </trkpt>
      <trkpt lat="44.40988" lon="3.89481">
        <ele>1002.79</ele>
        <time>2016-04-10T12:07:19Z</time>
      </trkpt>
      <trkpt lat="44.40998" lon="3.8946">
        <ele>1003.75</ele>
        <time>2016-04-10T12:07:20Z</time>
      </trkpt>
      <trkpt lat="44.41008" lon="3.89438">
        <ele>1005.2</ele>
        <time>2016-04-10T12:07:21Z</time>
      </trkpt>
      <trkpt lat="44.41015" lon="3.89417">
        <ele>1006.16</ele>
        <time>2016-04-10T12:07:22Z</time>
      </trkpt>
      <trkpt lat="44.41019" lon="3.89393">
        <ele>1007.6</ele>
        <time>2016-04-10T12:07:23Z</time>
      </trkpt>
      <trkpt lat="44.41018" lon="3.89369">
        <ele>1008.56</ele>
        <time>2016-04-10T12:07:24Z</time>
      </trkpt>
      <trkpt lat="44.41014" lon="3.89344">
        <ele>1009.52</ele>
        <time>2016-04-10T12:07:25Z</time>
      </trkpt>
      <trkpt lat="44.41008" lon="3.8932">
        <ele>1010.48</ele>
        <time>2016-04-10T12:07:26Z</time>
      </trkpt>
      <trkpt lat="44.41004" lon="3.89294">
        <ele>1011.93</ele>
        <time>2016-04-10T12:07:27Z</time>
      </trkpt>
      <trkpt lat="44.41004" lon="3.89268">
        <ele>1013.37</ele>
        <time>2016-04-10T12:07:28Z</time>
      </trkpt>
      <trkpt lat="44.41008" lon="3.89242">
        <ele>1015.29</ele>
        <time>2016-04-10T12:07:29Z</time>
      </trkpt>
      <trkpt lat="44.41014" lon="3.89218">
        <ele>1017.21</ele>
        <time>2016-04-10T12:07:30Z</time>
      </trkpt>
      <trkpt lat="44.4102" lon="3.89195">
        <ele>1019.13</ele>
        <time>2016-04-10T12:07:31Z</time>
      </trkpt>
      <trkpt lat="44.41026" lon="3.89149">
        <ele>1022.02</ele>
        <time>2016-04-10T12:07:33Z</time>
      </trkpt>
      <trkpt lat="44.41024" lon="3.89126">
        <ele>1022.98</ele>
        <time>2016-04-10T12:07:34Z</time>
      </trkpt>
      <trkpt lat="44.41019" lon="3.89102">
        <ele>1023.94</ele>
        <time>2016-04-10T12:07:35Z</time>
      </trkpt>
      <trkpt lat="44.41009" lon="3.89077">
        <ele>1024.9</ele>
        <time>2016-04-10T12:07:36Z</time>
      </trkpt>
      <trkpt lat="44.40999" lon="3.89052">
        <ele>1025.86</ele>
        <time>2016-04-10T12:07:37Z</time>
      </trkpt>
      <trkpt lat="44.40989" lon="3.89026">
        <ele>1028.75</ele>
        <time>2016-04-10T12:07:38Z</time>
      </trkpt>
      <trkpt lat="44.40982" lon="3.89">
        <ele>1030.67</ele>
        <time>2016-04-10T12:07:39Z</time>
      </trkpt>
      <trkpt lat="44.40977" lon="3.88976">
        <ele>1032.11</ele>
        <time>2016-04-10T12:07:40Z</time>
      </trkpt>
      <trkpt lat="44.40974" lon="3.8895">
        <ele>1033.55</ele>
        <time>2016-04-10T12:07:41Z</time>
      </trkpt>
      <trkpt lat="44.40973" lon="3.88923">
        <ele>1035.48</ele>
        <time>2016-04-10T12:07:42Z</time>
      </trkpt>
      <trkpt lat="44.40973" lon="3.88895">
        <ele>1036.92</ele>
        <time>2016-04-10T12:07:43Z</time>
      </trkpt>
      <trkpt lat="44.40975" lon="3.88868">
        <ele>1038.84</ele>
        <time>2016-04-10T12:07:44Z</time>
      </trkpt>
      <trkpt lat="44.40986" lon="3.88808">
        <ele>1043.65</ele>
        <time>2016-04-10T12:07:47Z</time>
      </trkpt>
      <trkpt lat="44.40998" lon="3.88794">
        <ele>1045.57</ele>
        <time>2016-04-10T12:07:48Z</time>
      </trkpt>
      <trkpt lat="44.41009" lon="3.88782">
        <ele>1047.49</ele>
        <time>2016-04-10T12:07:49Z</time>
      </trkpt>
      <trkpt lat="44.41025" lon="3.88776">
        <ele>1048.94</ele>
        <time>2016-04-10T12:07:50Z</time>
      </trkpt>
      <trkpt lat="44.41045" lon="3.88779">
        <ele>1048.45</ele>
        <time>2016-04-10T12:07:51Z</time>
      </trkpt>
      <trkpt lat="44.4106" lon="3.88774">
        <ele>1049.42</ele>
        <time>2016-04-10T12:07:52Z</time>
      </trkpt>
      <trkpt lat="44.41072" lon="3.88768">
        <ele>1050.38</ele>
        <time>2016-04-10T12:07:53Z</time>
      </trkpt>
      <trkpt lat="44.4108" lon="3.88757">
        <ele>1051.34</ele>
        <time>2016-04-10T12:07:54Z</time>
      </trkpt>
      <trkpt lat="44.41079" lon="3.88739">
        <ele>1052.3</ele>
        <time>2016-04-10T12:07:55Z</time>
      </trkpt>
      <trkpt lat="44.41076" lon="3.88722">
        <ele>1053.26</ele>
        <time>2016-04-10T12:07:56Z</time>
      </trkpt>
      <trkpt lat="44.41072" lon="3.88706">
        <ele>1053.74</ele>
        <time>2016-04-10T12:07:57Z</time>
      </trkpt>
      <trkpt lat="44.41069" lon="3.8869">
        <ele>1054.7</ele>
        <time>2016-04-10T12:07:58Z</time>
      </trkpt>
      <trkpt lat="44.41071" lon="3.88675">
        <ele>1055.67</ele>
        <time>2016-04-10T12:07:59Z</time>
      </trkpt>
      <trkpt lat="44.41078" lon="3.88658">
        <ele>1057.59</ele>
        <time>2016-04-10T12:08:00Z</time>
      </trkpt>
      <trkpt lat="44.41086" lon="3.88642">
        <ele>1059.03</ele>
        <time>2016-04-10T12:08:01Z</time>
      </trkpt>
      <trkpt lat="44.41097" lon="3.88629">
        <ele>1059.99</ele>
        <time>2016-04-10T12:08:02Z</time>
      </trkpt>
      <trkpt lat="44.41106" lon="3.88615">
        <ele>1060.95</ele>
        <time>2016-04-10T12:08:03Z</time>
      </trkpt>
      <trkpt lat="44.41111" lon="3.886">
        <ele>1061.43</ele>
        <time>2016-04-10T12:08:04Z</time>
      </trkpt>
      <trkpt lat="44.41111" lon="3.88583">
        <ele>1061.91</ele>
        <time>2016-04-10T12:08:05Z</time>
      </trkpt>
      <trkpt lat="44.41106" lon="3.88567">
        <ele>1062.87</ele>
        <time>2016-04-10T12:08:06Z</time>
      </trkpt>
      <trkpt lat="44.41092" lon="3.88553">
        <ele>1065.76</ele>
        <time>2016-04-10T12:08:07Z</time>
      </trkpt>
      <trkpt lat="44.41077" lon="3.88541">
        <ele>1065.76</ele>
        <time>2016-04-10T12:08:08Z</time>
      </trkpt>
      <trkpt lat="44.41062" lon="3.88532">
        <ele>1066.24</ele>
        <time>2016-04-10T12:08:09Z</time>
      </trkpt>
      <trkpt lat="44.41047" lon="3.88525">
        <ele>1067.2</ele>
        <time>2016-04-10T12:08:10Z</time>
      </trkpt>
      <trkpt lat="44.41033" lon="3.88518">
        <ele>1068.16</ele>
        <time>2016-04-10T12:08:11Z</time>
      </trkpt>
      <trkpt lat="44.41021" lon="3.88507">
        <ele>1068.64</ele>
        <time>2016-04-10T12:08:12Z</time>
      </trkpt>
      <trkpt lat="44.41011" lon="3.88491">
        <ele>1069.6</ele>
        <time>2016-04-10T12:08:13Z</time>
      </trkpt>
      <trkpt lat="44.41003" lon="3.88471">
        <ele>1070.57</ele>
        <time>2016-04-10T12:08:14Z</time>
      </trkpt>
      <trkpt lat="44.40998" lon="3.88446">
        <ele>1071.53</ele>
        <time>2016-04-10T12:08:15Z</time>
      </trkpt>
      <trkpt lat="44.40992" lon="3.88419">
        <ele>1072.49</ele>
        <time>2016-04-10T12:08:16Z</time>
      </trkpt>
      <trkpt lat="44.40989" lon="3.8839">
        <ele>1072.97</ele>
        <time>2016-04-10T12:08:17Z</time>
      </trkpt>
      <trkpt lat="44.40986" lon="3.8836">
        <ele>1073.93</ele>
        <time>2016-04-10T12:08:18Z</time>
      </trkpt>
      <trkpt lat="44.40984" lon="3.88331">
        <ele>1074.41</ele>
        <time>2016-04-10T12:08:19Z</time>
      </trkpt>
      <trkpt lat="44.40984" lon="3.88303">
        <ele>1075.37</ele>
        <time>2016-04-10T12:08:20Z</time>
      </trkpt>
      <trkpt lat="44.40987" lon="3.88274">
        <ele>1076.33</ele>
        <time>2016-04-10T12:08:21Z</time>
      </trkpt>
      <trkpt lat="44.40991" lon="3.88248">
        <ele>1077.29</ele>
        <time>2016-04-10T12:08:22Z</time>
      </trkpt>
      <trkpt lat="44.40996" lon="3.88223">
        <ele>1078.26</ele>
        <time>2016-04-10T12:08:23Z</time>
      </trkpt>
      <trkpt lat="44.41014" lon="3.88148">
        <ele>1081.62</ele>
        <time>2016-04-10T12:08:27Z</time>
      </trkpt>
      <trkpt lat="44.41019" lon="3.88137">
        <ele>1082.58</ele>
        <time>2016-04-10T12:08:28Z</time>
      </trkpt>
      <trkpt lat="44.41025" lon="3.88127">
        <ele>1083.54</ele>
        <time>2016-04-10T12:08:29Z</time>
      </trkpt>
      <trkpt lat="44.41042" lon="3.88086">
        <ele>1085.95</ele>
        <time>2016-04-10T12:08:34Z</time>
      </trkpt>
      <trkpt lat="44.41041" lon="3.88074">
        <ele>1085.95</ele>
        <time>2016-04-10T12:08:35Z</time>
      </trkpt>
      <trkpt lat="44.41037" lon="3.8806">
        <ele>1085.47</ele>
        <time>2016-04-10T12:08:36Z</time>
      </trkpt>
      <trkpt lat="44.4103" lon="3.88044">
        <ele>1085.47</ele>
        <time>2016-04-10T12:08:37Z</time>
      </trkpt>
      <trkpt lat="44.41024" lon="3.88027">
        <ele>1085.47</ele>
        <time>2016-04-10T12:08:38Z</time>
      </trkpt>
      <trkpt lat="44.41004" lon="3.87976">
        <ele>1085.47</ele>
        <time>2016-04-10T12:08:41Z</time>
      </trkpt>
      <trkpt lat="44.40993" lon="3.87959">
        <ele>1085.95</ele>
        <time>2016-04-10T12:08:42Z</time>
      </trkpt>
      <trkpt lat="44.40979" lon="3.87943">
        <ele>1086.91</ele>
        <time>2016-04-10T12:08:43Z</time>
      </trkpt>
      <trkpt lat="44.40872" lon="3.87785">
        <ele>1099.89</ele>
        <time>2016-04-10T12:08:51Z</time>
      </trkpt>
      <trkpt lat="44.40803" lon="3.87691">
        <ele>1108.06</ele>
        <time>2016-04-10T12:08:56Z</time>
      </trkpt>
      <trkpt lat="44.40789" lon="3.8768">
        <ele>1109.98</ele>
        <time>2016-04-10T12:08:57Z</time>
      </trkpt>
      <trkpt lat="44.40759" lon="3.87654">
        <ele>1113.34</ele>
        <time>2016-04-10T12:08:59Z</time>
      </trkpt>
      <trkpt lat="44.40745" lon="3.87635">
        <ele>1115.27</ele>
        <time>2016-04-10T12:09:00Z</time>
      </trkpt>
      <trkpt lat="44.40733" lon="3.87613">
        <ele>1116.71</ele>
        <time>2016-04-10T12:09:01Z</time>
      </trkpt>
      <trkpt lat="44.40723" lon="3.87588">
        <ele>1118.63</ele>
        <time>2016-04-10T12:09:02Z</time>
      </trkpt>
      <trkpt lat="44.40712" lon="3.87561">
        <ele>1120.55</ele>
        <time>2016-04-10T12:09:03Z</time>
      </trkpt>
      <trkpt lat="44.40703" lon="3.87532">
        <ele>1122.48</ele>
        <time>2016-04-10T12:09:04Z</time>
      </trkpt>
      <trkpt lat="44.40668" lon="3.87379">
        <ele>1134.01</ele>
        <time>2016-04-10T12:09:10Z</time>
      </trkpt>
      <trkpt lat="44.40667" lon="3.87351">
        <ele>1136.9</ele>
        <time>2016-04-10T12:09:13Z</time>
      </trkpt>
      <trkpt lat="44.4067" lon="3.87349">
        <ele>1137.38</ele>
        <time>2016-04-10T12:09:14Z</time>
      </trkpt>
      <trkpt lat="44.40675" lon="3.87351">
        <ele>1137.86</ele>
        <time>2016-04-10T12:09:15Z</time>
      </trkpt>
      <trkpt lat="44.4068" lon="3.87359">
        <ele>1139.3</ele>
        <time>2016-04-10T12:09:16Z</time>
      </trkpt>
      <trkpt lat="44.40681" lon="3.87371">
        <ele>1139.78</ele>
        <time>2016-04-10T12:09:17Z</time>
      </trkpt>
      <trkpt lat="44.40683" lon="3.87387">
        <ele>1140.74</ele>
        <time>2016-04-10T12:09:18Z</time>
      </trkpt>
      <trkpt lat="44.40686" lon="3.87406">
        <ele>1141.7</ele>
        <time>2016-04-10T12:09:19Z</time>
      </trkpt>
      <trkpt lat="44.40693" lon="3.87427">
        <ele>1142.66</ele>
        <time>2016-04-10T12:09:20Z</time>
      </trkpt>
      <trkpt lat="44.40701" lon="3.87448">
        <ele>1143.63</ele>
        <time>2016-04-10T12:09:21Z</time>
      </trkpt>
      <trkpt lat="44.40711" lon="3.87468">
        <ele>1144.59</ele>
        <time>2016-04-10T12:09:22Z</time>
      </trkpt>
      <trkpt lat="44.40743" lon="3.8753">
        <ele>1148.91</ele>
        <time>2016-04-10T12:09:26Z</time>
      </trkpt>
      <trkpt lat="44.40749" lon="3.87536">
        <ele>1150.84</ele>
        <time>2016-04-10T12:09:28Z</time>
      </trkpt>
      <trkpt lat="44.40756" lon="3.87526">
        <ele>1151.8</ele>
        <time>2016-04-10T12:09:30Z</time>
      </trkpt>
      <trkpt lat="44.40756" lon="3.87517">
        <ele>1151.32</ele>
        <time>2016-04-10T12:09:31Z</time>
      </trkpt>
      <trkpt lat="44.40753" lon="3.87506">
        <ele>1151.32</ele>
        <time>2016-04-10T12:09:32Z</time>
      </trkpt>
      <trkpt lat="44.40744" lon="3.8749">
        <ele>1151.32</ele>
        <time>2016-04-10T12:09:33Z</time>
      </trkpt>
      <trkpt lat="44.40736" lon="3.87471">
        <ele>1151.8</ele>
        <time>2016-04-10T12:09:34Z</time>
      </trkpt>
      <trkpt lat="44.40723" lon="3.87427">
        <ele>1154.2</ele>
        <time>2016-04-10T12:09:36Z</time>
      </trkpt>
      <trkpt lat="44.40719" lon="3.87402">
        <ele>1155.64</ele>
        <time>2016-04-10T12:09:37Z</time>
      </trkpt>
      <trkpt lat="44.40718" lon="3.87377">
        <ele>1157.08</ele>
        <time>2016-04-10T12:09:38Z</time>
      </trkpt>
      <trkpt lat="44.4072" lon="3.87353">
        <ele>1158.53</ele>
        <time>2016-04-10T12:09:39Z</time>
      </trkpt>
      <trkpt lat="44.40726" lon="3.87335">
        <ele>1159.97</ele>
        <time>2016-04-10T12:09:40Z</time>
      </trkpt>
      <trkpt lat="44.40731" lon="3.87318">
        <ele>1161.41</ele>
        <time>2016-04-10T12:09:41Z</time>
      </trkpt>
      <trkpt lat="44.40733" lon="3.87304">
        <ele>1162.37</ele>
        <time>2016-04-10T12:09:42Z</time>
      </trkpt>
      <trkpt lat="44.4073" lon="3.87291">
        <ele>1162.85</ele>
        <time>2016-04-10T12:09:43Z</time>
      </trkpt>
      <trkpt lat="44.40725" lon="3.87274">
        <ele>1162.85</ele>
        <time>2016-04-10T12:09:44Z</time>
      </trkpt>
      <trkpt lat="44.40716" lon="3.87255">
        <ele>1163.81</ele>
        <time>2016-04-10T12:09:45Z</time>
      </trkpt>
      <trkpt lat="44.40706" lon="3.87235">
        <ele>1164.77</ele>
        <time>2016-04-10T12:09:46Z</time>
      </trkpt>
      <trkpt lat="44.40694" lon="3.87215">
        <ele>1165.74</ele>
        <time>2016-04-10T12:09:47Z</time>
      </trkpt>
      <trkpt lat="44.40637" lon="3.87123">
        <ele>1172.47</ele>
        <time>2016-04-10T12:09:52Z</time>
      </trkpt>
      <trkpt lat="44.40628" lon="3.87102">
        <ele>1173.91</ele>
        <time>2016-04-10T12:09:53Z</time>
      </trkpt>
      <trkpt lat="44.40622" lon="3.87079">
        <ele>1175.35</ele>
        <time>2016-04-10T12:09:54Z</time>
      </trkpt>
      <trkpt lat="44.40582" lon="3.86911">
        <ele>1186.88</ele>
        <time>2016-04-10T12:10:01Z</time>
      </trkpt>
      <trkpt lat="44.40582" lon="3.86887">
        <ele>1188.81</ele>
        <time>2016-04-10T12:10:02Z</time>
      </trkpt>
      <trkpt lat="44.40582" lon="3.86863">
        <ele>1190.25</ele>
        <time>2016-04-10T12:10:03Z</time>
      </trkpt>
      <trkpt lat="44.40583" lon="3.86818">
        <ele>1193.61</ele>
        <time>2016-04-10T12:10:05Z</time>
      </trkpt>
      <trkpt lat="44.40581" lon="3.86797">
        <ele>1195.54</ele>
        <time>2016-04-10T12:10:06Z</time>
      </trkpt>
      <trkpt lat="44.40576" lon="3.86777">
        <ele>1196.98</ele>
        <time>2016-04-10T12:10:07Z</time>
      </trkpt>
      <trkpt lat="44.40569" lon="3.86758">
        <ele>1197.94</ele>
        <time>2016-04-10T12:10:08Z</time>
      </trkpt>
      <trkpt lat="44.40561" lon="3.86741">
        <ele>1199.38</ele>
        <time>2016-04-10T12:10:09Z</time>
      </trkpt>
      <trkpt lat="44.40553" lon="3.86725">
        <ele>1200.82</ele>
        <time>2016-04-10T12:10:10Z</time>
      </trkpt>
      <trkpt lat="44.40547" lon="3.8671">
        <ele>1201.79</ele>
        <time>2016-04-10T12:10:11Z</time>
      </trkpt>
      <trkpt lat="44.40543" lon="3.86696">
        <ele>1202.75</ele>
        <time>2016-04-10T12:10:12Z</time>
      </trkpt>
      <trkpt lat="44.40539" lon="3.86689">
        <ele>1204.19</ele>
        <time>2016-04-10T12:10:13Z</time>
      </trkpt>
      <trkpt lat="44.40529" lon="3.86688">
        <ele>1205.15</ele>
        <time>2016-04-10T12:10:14Z</time>
      </trkpt>
      <trkpt lat="44.4052" lon="3.86682">
        <ele>1207.07</ele>
        <time>2016-04-10T12:10:15Z</time>
      </trkpt>
      <trkpt lat="44.4051" lon="3.86677">
        <ele>1208.51</ele>
        <time>2016-04-10T12:10:16Z</time>
      </trkpt>
      <trkpt lat="44.40499" lon="3.86675">
        <ele>1211.4</ele>
        <time>2016-04-10T12:10:17Z</time>
      </trkpt>
      <trkpt lat="44.40473" lon="3.86668">
        <ele>1214.28</ele>
        <time>2016-04-10T12:10:19Z</time>
      </trkpt>
      <trkpt lat="44.40461" lon="3.86668">
        <ele>1214.76</ele>
        <time>2016-04-10T12:10:20Z</time>
      </trkpt>
      <trkpt lat="44.40447" lon="3.86676">
        <ele>1215.24</ele>
        <time>2016-04-10T12:10:21Z</time>
      </trkpt>
      <trkpt lat="44.40435" lon="3.8669">
        <ele>1216.21</ele>
        <time>2016-04-10T12:10:22Z</time>
      </trkpt>
      <trkpt lat="44.40425" lon="3.86704">
        <ele>1216.69</ele>
        <time>2016-04-10T12:10:23Z</time>
      </trkpt>
      <trkpt lat="44.40415" lon="3.86724">
        <ele>1216.69</ele>
        <time>2016-04-10T12:10:24Z</time>
      </trkpt>
      <trkpt lat="44.40408" lon="3.86741">
        <ele>1217.65</ele>
        <time>2016-04-10T12:10:25Z</time>
      </trkpt>
      <trkpt lat="44.40398" lon="3.86756">
        <ele>1218.13</ele>
        <time>2016-04-10T12:10:26Z</time>
      </trkpt>
      <trkpt lat="44.40389" lon="3.8677">
        <ele>1218.61</ele>
        <time>2016-04-10T12:10:27Z</time>
      </trkpt>
      <trkpt lat="44.40379" lon="3.86783">
        <ele>1219.57</ele>
        <time>2016-04-10T12:10:28Z</time>
      </trkpt>
      <trkpt lat="44.40362" lon="3.86813">
        <ele>1221.49</ele>
        <time>2016-04-10T12:10:30Z</time>
      </trkpt>
      <trkpt lat="44.40356" lon="3.86832">
        <ele>1222.93</ele>
        <time>2016-04-10T12:10:31Z</time>
      </trkpt>
      <trkpt lat="44.4035" lon="3.86853">
        <ele>1223.42</ele>
        <time>2016-04-10T12:10:32Z</time>
      </trkpt>
      <trkpt lat="44.40312" lon="3.87078">
        <ele>1238.8</ele>
        <time>2016-04-10T12:10:41Z</time>
      </trkpt>
      <trkpt lat="44.40309" lon="3.87254">
        <ele>1249.85</ele>
        <time>2016-04-10T12:10:48Z</time>
      </trkpt>
      <trkpt lat="44.40306" lon="3.87277">
        <ele>1250.81</ele>
        <time>2016-04-10T12:10:49Z</time>
      </trkpt>
      <trkpt lat="44.40278" lon="3.87495">
        <ele>1264.27</ele>
        <time>2016-04-10T12:10:57Z</time>
      </trkpt>
      <trkpt lat="44.40264" lon="3.87659">
        <ele>1273.4</ele>
        <time>2016-04-10T12:11:04Z</time>
      </trkpt>
      <trkpt lat="44.40263" lon="3.87767">
        <ele>1280.13</ele>
        <time>2016-04-10T12:11:11Z</time>
      </trkpt>
      <trkpt lat="44.40255" lon="3.8777">
        <ele>1280.61</ele>
        <time>2016-04-10T12:11:12Z</time>
      </trkpt>
      <trkpt lat="44.40247" lon="3.8777">
        <ele>1281.09</ele>
        <time>2016-04-10T12:11:13Z</time>
      </trkpt>
      <trkpt lat="44.40236" lon="3.87766">
        <ele>1282.06</ele>
        <time>2016-04-10T12:11:14Z</time>
      </trkpt>
      <trkpt lat="44.40224" lon="3.87762">
        <ele>1283.5</ele>
        <time>2016-04-10T12:11:15Z</time>
      </trkpt>
      <trkpt lat="44.40211" lon="3.87757">
        <ele>1283.98</ele>
        <time>2016-04-10T12:11:16Z</time>
      </trkpt>
      <trkpt lat="44.40113" lon="3.87746">
        <ele>1292.63</ele>
        <time>2016-04-10T12:11:23Z</time>
      </trkpt>
      <trkpt lat="44.40101" lon="3.87747">
        <ele>1294.07</ele>
        <time>2016-04-10T12:11:24Z</time>
      </trkpt>
      <trkpt lat="44.40091" lon="3.8775">
        <ele>1294.55</ele>
        <time>2016-04-10T12:11:25Z</time>
      </trkpt>
      <trkpt lat="44.40081" lon="3.87755">
        <ele>1295.03</ele>
        <time>2016-04-10T12:11:26Z</time>
      </trkpt>
      <trkpt lat="44.40071" lon="3.87762">
        <ele>1295.51</ele>
        <time>2016-04-10T12:11:27Z</time>
      </trkpt>
      <trkpt lat="44.40064" lon="3.87776">
        <ele>1295.99</ele>
        <time>2016-04-10T12:11:28Z</time>
      </trkpt>
      <trkpt lat="44.40062" lon="3.87793">
        <ele>1297.44</ele>
        <time>2016-04-10T12:11:29Z</time>
      </trkpt>
      <trkpt lat="44.40059" lon="3.87813">
        <ele>1298.88</ele>
        <time>2016-04-10T12:11:30Z</time>
      </trkpt>
      <trkpt lat="44.40056" lon="3.87834">
        <ele>1300.8</ele>
        <time>2016-04-10T12:11:31Z</time>
      </trkpt>
      <trkpt lat="44.40054" lon="3.87852">
        <ele>1301.76</ele>
        <time>2016-04-10T12:11:32Z</time>
      </trkpt>
      <trkpt lat="44.40053" lon="3.8787">
        <ele>1302.72</ele>
        <time>2016-04-10T12:11:33Z</time>
      </trkpt>
      <trkpt lat="44.40051" lon="3.87887">
        <ele>1303.69</ele>
        <time>2016-04-10T12:11:34Z</time>
      </trkpt>
      <trkpt lat="44.40047" lon="3.87903">
        <ele>1304.65</ele>
        <time>2016-04-10T12:11:35Z</time>
      </trkpt>
      <trkpt lat="44.4004" lon="3.87919">
        <ele>1306.09</ele>
        <time>2016-04-10T12:11:36Z</time>
      </trkpt>
      <trkpt lat="44.4003" lon="3.87932">
        <ele>1306.57</ele>
        <time>2016-04-10T12:11:37Z</time>
      </trkpt>
      <trkpt lat="44.40015" lon="3.87945">
        <ele>1307.05</ele>
        <time>2016-04-10T12:11:38Z</time>
      </trkpt>
      <trkpt lat="44.40004" lon="3.87962">
        <ele>1308.49</ele>
        <time>2016-04-10T12:11:39Z</time>
      </trkpt>
      <trkpt lat="44.39973" lon="3.88013">
        <ele>1312.34</ele>
        <time>2016-04-10T12:11:42Z</time>
      </trkpt>
      <trkpt lat="44.39959" lon="3.88027">
        <ele>1313.3</ele>
        <time>2016-04-10T12:11:43Z</time>
      </trkpt>
      <trkpt lat="44.39944" lon="3.88041">
        <ele>1314.74</ele>
        <time>2016-04-10T12:11:44Z</time>
      </trkpt>
      <trkpt lat="44.39828" lon="3.88139">
        <ele>1324.35</ele>
        <time>2016-04-10T12:11:51Z</time>
      </trkpt>
      <trkpt lat="44.39817" lon="3.88155">
        <ele>1326.28</ele>
        <time>2016-04-10T12:11:52Z</time>
      </trkpt>
      <trkpt lat="44.398" lon="3.88185">
        <ele>1329.16</ele>
        <time>2016-04-10T12:11:54Z</time>
      </trkpt>
      <trkpt lat="44.39797" lon="3.88206">
        <ele>1331.56</ele>
        <time>2016-04-10T12:11:55Z</time>
      </trkpt>
      <trkpt lat="44.39793" lon="3.88226">
        <ele>1332.52</ele>
        <time>2016-04-10T12:11:56Z</time>
      </trkpt>
      <trkpt lat="44.39791" lon="3.88246">
        <ele>1333.49</ele>
        <time>2016-04-10T12:11:57Z</time>
      </trkpt>
      <trkpt lat="44.39787" lon="3.88264">
        <ele>1334.93</ele>
        <time>2016-04-10T12:11:58Z</time>
      </trkpt>
      <trkpt lat="44.39782" lon="3.88279">
        <ele>1334.93</ele>
        <time>2016-04-10T12:11:59Z</time>
      </trkpt>
      <trkpt lat="44.39777" lon="3.88291">
        <ele>1336.85</ele>
        <time>2016-04-10T12:12:00Z</time>
      </trkpt>
      <trkpt lat="44.39772" lon="3.88302">
        <ele>1337.33</ele>
        <time>2016-04-10T12:12:01Z</time>
      </trkpt>
      <trkpt lat="44.3977" lon="3.88313">
        <ele>1337.33</ele>
        <time>2016-04-10T12:12:02Z</time>
      </trkpt>
      <trkpt lat="44.39771" lon="3.88324">
        <ele>1337.33</ele>
        <time>2016-04-10T12:12:03Z</time>
      </trkpt>
      <trkpt lat="44.39776" lon="3.88334">
        <ele>1337.81</ele>
        <time>2016-04-10T12:12:04Z</time>
      </trkpt>
      <trkpt lat="44.39784" lon="3.88344">
        <ele>1338.29</ele>
        <time>2016-04-10T12:12:05Z</time>
      </trkpt>
      <trkpt lat="44.39797" lon="3.88354">
        <ele>1339.73</ele>
        <time>2016-04-10T12:12:06Z</time>
      </trkpt>
      <trkpt lat="44.39809" lon="3.88365">
        <ele>1341.66</ele>
        <time>2016-04-10T12:12:07Z</time>
      </trkpt>
      <trkpt lat="44.39836" lon="3.88398">
        <ele>1345.5</ele>
        <time>2016-04-10T12:12:10Z</time>
      </trkpt>
      <trkpt lat="44.3984" lon="3.8841">
        <ele>1346.46</ele>
        <time>2016-04-10T12:12:11Z</time>
      </trkpt>
      <trkpt lat="44.3984" lon="3.88424">
        <ele>1347.43</ele>
        <time>2016-04-10T12:12:12Z</time>
      </trkpt>
      <trkpt lat="44.39835" lon="3.88437">
        <ele>1348.87</ele>
        <time>2016-04-10T12:12:13Z</time>
      </trkpt>
      <trkpt lat="44.39827" lon="3.8845">
        <ele>1349.83</ele>
        <time>2016-04-10T12:12:14Z</time>
      </trkpt>
      <trkpt lat="44.39817" lon="3.88463">
        <ele>1350.31</ele>
        <time>2016-04-10T12:12:15Z</time>
      </trkpt>
      <trkpt lat="44.39802" lon="3.88474">
        <ele>1351.27</ele>
        <time>2016-04-10T12:12:16Z</time>
      </trkpt>
      <trkpt lat="44.39786" lon="3.88483">
        <ele>1352.71</ele>
        <time>2016-04-10T12:12:17Z</time>
      </trkpt>
      <trkpt lat="44.3977" lon="3.88493">
        <ele>1353.67</ele>
        <time>2016-04-10T12:12:18Z</time>
      </trkpt>
      <trkpt lat="44.39755" lon="3.88504">
        <ele>1355.12</ele>
        <time>2016-04-10T12:12:19Z</time>
      </trkpt>
      <trkpt lat="44.39742" lon="3.88517">
        <ele>1356.56</ele>
        <time>2016-04-10T12:12:20Z</time>
      </trkpt>
      <trkpt lat="44.39699" lon="3.88571">
        <ele>1362.33</ele>
        <time>2016-04-10T12:12:24Z</time>
      </trkpt>
      <trkpt lat="44.39691" lon="3.88586">
        <ele>1363.77</ele>
        <time>2016-04-10T12:12:25Z</time>
      </trkpt>
      <trkpt lat="44.39686" lon="3.88606">
        <ele>1365.21</ele>
        <time>2016-04-10T12:12:26Z</time>
      </trkpt>
      <trkpt lat="44.39683" lon="3.88629">
        <ele>1366.65</ele>
        <time>2016-04-10T12:12:27Z</time>
      </trkpt>
      <trkpt lat="44.39683" lon="3.88652">
        <ele>1368.09</ele>
        <time>2016-04-10T12:12:28Z</time>
      </trkpt>
      <trkpt lat="44.39682" lon="3.88678">
        <ele>1369.05</ele>
        <time>2016-04-10T12:12:29Z</time>
      </trkpt>
      <trkpt lat="44.39664" lon="3.8881">
        <ele>1379.15</ele>
        <time>2016-04-10T12:12:35Z</time>
      </trkpt>
      <trkpt lat="44.39653" lon="3.88869">
        <ele>1383.47</ele>
        <time>2016-04-10T12:12:38Z</time>
      </trkpt>
      <trkpt lat="44.39646" lon="3.8889">
        <ele>1385.4</ele>
        <time>2016-04-10T12:12:39Z</time>
      </trkpt>
      <trkpt lat="44.39628" lon="3.88931">
        <ele>1387.8</ele>
        <time>2016-04-10T12:12:41Z</time>
      </trkpt>
      <trkpt lat="44.39603" lon="3.88987">
        <ele>1392.13</ele>
        <time>2016-04-10T12:12:44Z</time>
      </trkpt>
      <trkpt lat="44.39598" lon="3.89004">
        <ele>1393.57</ele>
        <time>2016-04-10T12:12:45Z</time>
      </trkpt>
      <trkpt lat="44.39594" lon="3.8902">
        <ele>1395.01</ele>
        <time>2016-04-10T12:12:46Z</time>
      </trkpt>
      <trkpt lat="44.39587" lon="3.89035">
        <ele>1395.97</ele>
        <time>2016-04-10T12:12:47Z</time>
      </trkpt>
      <trkpt lat="44.39577" lon="3.89048">
        <ele>1397.41</ele>
        <time>2016-04-10T12:12:48Z</time>
      </trkpt>
      <trkpt lat="44.39565" lon="3.8906">
        <ele>1398.86</ele>
        <time>2016-04-10T12:12:49Z</time>
      </trkpt>
      <trkpt lat="44.39552" lon="3.89074">
        <ele>1400.3</ele>
        <time>2016-04-10T12:12:50Z</time>
      </trkpt>
      <trkpt lat="44.3954" lon="3.89089">
        <ele>1401.74</ele>
        <time>2016-04-10T12:12:51Z</time>
      </trkpt>
      <trkpt lat="44.39528" lon="3.89108">
        <ele>1403.18</ele>
        <time>2016-04-10T12:12:52Z</time>
      </trkpt>
      <trkpt lat="44.39519" lon="3.89127">
        <ele>1404.62</ele>
        <time>2016-04-10T12:12:53Z</time>
      </trkpt>
      <trkpt lat="44.39481" lon="3.89196">
        <ele>1409.91</ele>
        <time>2016-04-10T12:12:57Z</time>
      </trkpt>
      <trkpt lat="44.39469" lon="3.89209">
        <ele>1411.35</ele>
        <time>2016-04-10T12:12:58Z</time>
      </trkpt>
      <trkpt lat="44.39455" lon="3.89221">
        <ele>1412.79</ele>
        <time>2016-04-10T12:12:59Z</time>
      </trkpt>
      <trkpt lat="44.39437" lon="3.8923">
        <ele>1414.24</ele>
        <time>2016-04-10T12:13:00Z</time>
      </trkpt>
      <trkpt lat="44.39419" lon="3.89241">
        <ele>1415.2</ele>
        <time>2016-04-10T12:13:01Z</time>
      </trkpt>
      <trkpt lat="44.39248" lon="3.89369">
        <ele>1430.1</ele>
        <time>2016-04-10T12:13:11Z</time>
      </trkpt>
      <trkpt lat="44.39154" lon="3.89455">
        <ele>1439.71</ele>
        <time>2016-04-10T12:13:19Z</time>
      </trkpt>
      <trkpt lat="44.39149" lon="3.89461">
        <ele>1440.67</ele>
        <time>2016-04-10T12:13:20Z</time>
      </trkpt>
      <trkpt lat="44.39146" lon="3.89461">
        <ele>1440.67</ele>
        <time>2016-04-10T12:13:21Z</time>
      </trkpt>
      <trkpt lat="44.39143" lon="3.89456">
        <ele>1441.15</ele>
        <time>2016-04-10T12:13:22Z</time>
      </trkpt>
      <trkpt lat="44.39141" lon="3.89447">
        <ele>1441.63</ele>
        <time>2016-04-10T12:13:23Z</time>
      </trkpt>
      <trkpt lat="44.39143" lon="3.89438">
        <ele>1442.11</ele>
        <time>2016-04-10T12:13:24Z</time>
      </trkpt>
      <trkpt lat="44.39148" lon="3.89429">
        <ele>1442.11</ele>
        <time>2016-04-10T12:13:25Z</time>
      </trkpt>
      <trkpt lat="44.39157" lon="3.89417">
        <ele>1443.56</ele>
        <time>2016-04-10T12:13:26Z</time>
      </trkpt>
      <trkpt lat="44.39168" lon="3.89403">
        <ele>1444.04</ele>
        <time>2016-04-10T12:13:27Z</time>
      </trkpt>
      <trkpt lat="44.39213" lon="3.893">
        <ele>1450.77</ele>
        <time>2016-04-10T12:13:33Z</time>
      </trkpt>
      <trkpt lat="44.39216" lon="3.89291">
        <ele>1451.25</ele>
        <time>2016-04-10T12:13:34Z</time>
      </trkpt>
      <trkpt lat="44.39217" lon="3.89285">
        <ele>1451.73</ele>
        <time>2016-04-10T12:13:35Z</time>
      </trkpt>
      <trkpt lat="44.39218" lon="3.89279">
        <ele>1451.73</ele>
        <time>2016-04-10T12:13:36Z</time>
      </trkpt>
      <trkpt lat="44.39218" lon="3.89273">
        <ele>1452.21</ele>
        <time>2016-04-10T12:13:37Z</time>
      </trkpt>
      <trkpt lat="44.39217" lon="3.89266">
        <ele>1452.21</ele>
        <time>2016-04-10T12:13:38Z</time>
      </trkpt>
      <trkpt lat="44.39216" lon="3.89261">
        <ele>1452.69</ele>
        <time>2016-04-10T12:13:39Z</time>
      </trkpt>
      <trkpt lat="44.39213" lon="3.89257">
        <ele>1452.69</ele>
        <time>2016-04-10T12:13:40Z</time>
      </trkpt>
      <trkpt lat="44.39208" lon="3.89255">
        <ele>1453.17</ele>
        <time>2016-04-10T12:13:41Z</time>
      </trkpt>
      <trkpt lat="44.39202" lon="3.89257">
        <ele>1453.17</ele>
        <time>2016-04-10T12:13:42Z</time>
      </trkpt>
      <trkpt lat="44.39193" lon="3.89267">
        <ele>1453.17</ele>
        <time>2016-04-10T12:13:43Z</time>
      </trkpt>
      <trkpt lat="44.39183" lon="3.89276">
        <ele>1453.65</ele>
        <time>2016-04-10T12:13:44Z</time>
      </trkpt>
      <trkpt lat="44.39088" lon="3.89365">
        <ele>1456.05</ele>
        <time>2016-04-10T12:13:52Z</time>
      </trkpt>
      <trkpt lat="44.38986" lon="3.89513">
        <ele>1459.9</ele>
        <time>2016-04-10T12:14:00Z</time>
      </trkpt>
      <trkpt lat="44.3887" lon="3.89715">
        <ele>1467.59</ele>
        <time>2016-04-10T12:14:10Z</time>
      </trkpt>
      <trkpt lat="44.3875" lon="3.89913">
        <ele>1474.32</ele>
        <time>2016-04-10T12:14:19Z</time>
      </trkpt>
      <trkpt lat="44.38614" lon="3.9008">
        <ele>1480.09</ele>
        <time>2016-04-10T12:14:28Z</time>
      </trkpt>
      <trkpt lat="44.38602" lon="3.901">
        <ele>1480.57</ele>
        <time>2016-04-10T12:14:29Z</time>
      </trkpt>
      <trkpt lat="44.38592" lon="3.90121">
        <ele>1481.05</ele>
        <time>2016-04-10T12:14:30Z</time>
      </trkpt>
      <trkpt lat="44.38584" lon="3.90143">
        <ele>1481.53</ele>
        <time>2016-04-10T12:14:31Z</time>
      </trkpt>
      <trkpt lat="44.38581" lon="3.90168">
        <ele>1482.01</ele>
        <time>2016-04-10T12:14:32Z</time>
      </trkpt>
      <trkpt lat="44.38579" lon="3.90195">
        <ele>1482.49</ele>
        <time>2016-04-10T12:14:33Z</time>
      </trkpt>
      <trkpt lat="44.38578" lon="3.90223">
        <ele>1482.97</ele>
        <time>2016-04-10T12:14:34Z</time>
      </trkpt>
      <trkpt lat="44.38588" lon="3.90473">
        <ele>1479.13</ele>
        <time>2016-04-10T12:14:43Z</time>
      </trkpt>
      <trkpt lat="44.38605" lon="3.90578">
        <ele>1475.28</ele>
        <time>2016-04-10T12:14:49Z</time>
      </trkpt>
      <trkpt lat="44.38611" lon="3.90595">
        <ele>1474.32</ele>
        <time>2016-04-10T12:14:51Z</time>
      </trkpt>
      <trkpt lat="44.38613" lon="3.90602">
        <ele>1473.84</ele>
        <time>2016-04-10T12:14:52Z</time>
      </trkpt>
      <trkpt lat="44.38614" lon="3.90607">
        <ele>1473.84</ele>
        <time>2016-04-10T12:14:53Z</time>
      </trkpt>
      <trkpt lat="44.38614" lon="3.90629">
        <ele>1472.88</ele>
        <time>2016-04-10T12:15:03Z</time>
      </trkpt>
      <trkpt lat="44.38614" lon="3.90625">
        <ele>1472.4</ele>
        <time>2016-04-10T12:15:23Z</time>
      </trkpt>
      <trkpt lat="44.38612" lon="3.90631">
        <ele>1474.32</ele>
        <time>2016-04-10T12:34:05Z</time>
      </trkpt>
      <trkpt lat="44.38611" lon="3.90638">
        <ele>1474.32</ele>
        <time>2016-04-10T12:34:06Z</time>
      </trkpt>
      <trkpt lat="44.38589" lon="3.90737">
        <ele>1470.47</ele>
        <time>2016-04-10T12:34:14Z</time>
      </trkpt>
      <trkpt lat="44.38548" lon="3.90807">
        <ele>1465.67</ele>
        <time>2016-04-10T12:34:20Z</time>
      </trkpt>
      <trkpt lat="44.38539" lon="3.90816">
        <ele>1465.19</ele>
        <time>2016-04-10T12:34:21Z</time>
      </trkpt>
      <trkpt lat="44.38525" lon="3.90825">
        <ele>1464.23</ele>
        <time>2016-04-10T12:34:22Z</time>
      </trkpt>
      <trkpt lat="44.38398" lon="3.90912">
        <ele>1458.46</ele>
        <time>2016-04-10T12:34:31Z</time>
      </trkpt>
      <trkpt lat="44.38308" lon="3.90983">
        <ele>1453.65</ele>
        <time>2016-04-10T12:34:38Z</time>
      </trkpt>
      <trkpt lat="44.38299" lon="3.90998">
        <ele>1452.69</ele>
        <time>2016-04-10T12:34:39Z</time>
      </trkpt>
      <trkpt lat="44.3822" lon="3.91087">
        <ele>1445.48</ele>
        <time>2016-04-10T12:34:46Z</time>
      </trkpt>
      <trkpt lat="44.38088" lon="3.91148">
        <ele>1431.06</ele>
        <time>2016-04-10T12:34:55Z</time>
      </trkpt>
      <trkpt lat="44.37953" lon="3.91194">
        <ele>1421.93</ele>
        <time>2016-04-10T12:35:04Z</time>
      </trkpt>
      <trkpt lat="44.37892" lon="3.91239">
        <ele>1417.12</ele>
        <time>2016-04-10T12:35:09Z</time>
      </trkpt>
      <trkpt lat="44.37882" lon="3.91251">
        <ele>1415.68</ele>
        <time>2016-04-10T12:35:10Z</time>
      </trkpt>
      <trkpt lat="44.37874" lon="3.91264">
        <ele>1414.24</ele>
        <time>2016-04-10T12:35:11Z</time>
      </trkpt>
      <trkpt lat="44.37857" lon="3.91289">
        <ele>1411.83</ele>
        <time>2016-04-10T12:35:13Z</time>
      </trkpt>
      <trkpt lat="44.37848" lon="3.91298">
        <ele>1410.87</ele>
        <time>2016-04-10T12:35:14Z</time>
      </trkpt>
      <trkpt lat="44.37837" lon="3.91302">
        <ele>1409.43</ele>
        <time>2016-04-10T12:35:15Z</time>
      </trkpt>
      <trkpt lat="44.37823" lon="3.913">
        <ele>1405.1</ele>
        <time>2016-04-10T12:35:16Z</time>
      </trkpt>
      <trkpt lat="44.37809" lon="3.91298">
        <ele>1403.66</ele>
        <time>2016-04-10T12:35:17Z</time>
      </trkpt>
      <trkpt lat="44.37796" lon="3.91295">
        <ele>1401.26</ele>
        <time>2016-04-10T12:35:18Z</time>
      </trkpt>
      <trkpt lat="44.37783" lon="3.91289">
        <ele>1399.34</ele>
        <time>2016-04-10T12:35:19Z</time>
      </trkpt>
      <trkpt lat="44.37771" lon="3.91281">
        <ele>1397.41</ele>
        <time>2016-04-10T12:35:20Z</time>
      </trkpt>
      <trkpt lat="44.3776" lon="3.91269">
        <ele>1395.97</ele>
        <time>2016-04-10T12:35:21Z</time>
      </trkpt>
      <trkpt lat="44.37751" lon="3.91253">
        <ele>1394.53</ele>
        <time>2016-04-10T12:35:22Z</time>
      </trkpt>
      <trkpt lat="44.37742" lon="3.91236">
        <ele>1393.09</ele>
        <time>2016-04-10T12:35:23Z</time>
      </trkpt>
      <trkpt lat="44.37689" lon="3.91166">
        <ele>1387.8</ele>
        <time>2016-04-10T12:35:28Z</time>
      </trkpt>
      <trkpt lat="44.37677" lon="3.91163">
        <ele>1386.36</ele>
        <time>2016-04-10T12:35:29Z</time>
      </trkpt>
      <trkpt lat="44.37663" lon="3.91163">
        <ele>1385.4</ele>
        <time>2016-04-10T12:35:30Z</time>
      </trkpt>
      <trkpt lat="44.37651" lon="3.91168">
        <ele>1384.92</ele>
        <time>2016-04-10T12:35:31Z</time>
      </trkpt>
      <trkpt lat="44.37637" lon="3.91172">
        <ele>1384.44</ele>
        <time>2016-04-10T12:35:32Z</time>
      </trkpt>
      <trkpt lat="44.37596" lon="3.91185">
        <ele>1382.51</ele>
        <time>2016-04-10T12:35:35Z</time>
      </trkpt>
      <trkpt lat="44.37582" lon="3.91193">
        <ele>1381.07</ele>
        <time>2016-04-10T12:35:36Z</time>
      </trkpt>
      <trkpt lat="44.37568" lon="3.91203">
        <ele>1379.63</ele>
        <time>2016-04-10T12:35:37Z</time>
      </trkpt>
      <trkpt lat="44.37484" lon="3.91258">
        <ele>1372.9</ele>
        <time>2016-04-10T12:35:43Z</time>
      </trkpt>
      <trkpt lat="44.37468" lon="3.9126">
        <ele>1370.98</ele>
        <time>2016-04-10T12:35:44Z</time>
      </trkpt>
      <trkpt lat="44.37451" lon="3.91259">
        <ele>1369.54</ele>
        <time>2016-04-10T12:35:45Z</time>
      </trkpt>
      <trkpt lat="44.37318" lon="3.91244">
        <ele>1359.44</ele>
        <time>2016-04-10T12:35:53Z</time>
      </trkpt>
      <trkpt lat="44.37283" lon="3.91259">
        <ele>1355.12</ele>
        <time>2016-04-10T12:35:56Z</time>
      </trkpt>
      <trkpt lat="44.37278" lon="3.91272">
        <ele>1354.15</ele>
        <time>2016-04-10T12:35:57Z</time>
      </trkpt>
      <trkpt lat="44.37275" lon="3.91287">
        <ele>1353.19</ele>
        <time>2016-04-10T12:35:58Z</time>
      </trkpt>
      <trkpt lat="44.37278" lon="3.91308">
        <ele>1354.15</ele>
        <time>2016-04-10T12:35:59Z</time>
      </trkpt>
      <trkpt lat="44.37275" lon="3.91325">
        <ele>1353.19</ele>
        <time>2016-04-10T12:36:00Z</time>
      </trkpt>
      <trkpt lat="44.37268" lon="3.91342">
        <ele>1351.75</ele>
        <time>2016-04-10T12:36:01Z</time>
      </trkpt>
      <trkpt lat="44.37258" lon="3.91359">
        <ele>1350.79</ele>
        <time>2016-04-10T12:36:02Z</time>
      </trkpt>
      <trkpt lat="44.37246" lon="3.91376">
        <ele>1349.83</ele>
        <time>2016-04-10T12:36:03Z</time>
      </trkpt>
      <trkpt lat="44.37232" lon="3.91391">
        <ele>1348.39</ele>
        <time>2016-04-10T12:36:04Z</time>
      </trkpt>
      <trkpt lat="44.37217" lon="3.91403">
        <ele>1346.94</ele>
        <time>2016-04-10T12:36:05Z</time>
      </trkpt>
      <trkpt lat="44.37201" lon="3.91411">
        <ele>1345.5</ele>
        <time>2016-04-10T12:36:06Z</time>
      </trkpt>
      <trkpt lat="44.37183" lon="3.91415">
        <ele>1344.54</ele>
        <time>2016-04-10T12:36:07Z</time>
      </trkpt>
      <trkpt lat="44.37165" lon="3.91418">
        <ele>1344.06</ele>
        <time>2016-04-10T12:36:08Z</time>
      </trkpt>
      <trkpt lat="44.3704" lon="3.91478">
        <ele>1338.29</ele>
        <time>2016-04-10T12:36:15Z</time>
      </trkpt>
      <trkpt lat="44.36886" lon="3.91558">
        <ele>1329.64</ele>
        <time>2016-04-10T12:36:24Z</time>
      </trkpt>
      <trkpt lat="44.3687" lon="3.91559">
        <ele>1328.68</ele>
        <time>2016-04-10T12:36:25Z</time>
      </trkpt>
      <trkpt lat="44.36854" lon="3.9156">
        <ele>1327.72</ele>
        <time>2016-04-10T12:36:26Z</time>
      </trkpt>
      <trkpt lat="44.36713" lon="3.9158">
        <ele>1318.59</ele>
        <time>2016-04-10T12:36:35Z</time>
      </trkpt>
      <trkpt lat="44.367" lon="3.91579">
        <ele>1319.07</ele>
        <time>2016-04-10T12:36:36Z</time>
      </trkpt>
      <trkpt lat="44.36686" lon="3.91576">
        <ele>1319.07</ele>
        <time>2016-04-10T12:36:37Z</time>
      </trkpt>
      <trkpt lat="44.36673" lon="3.91568">
        <ele>1317.14</ele>
        <time>2016-04-10T12:36:38Z</time>
      </trkpt>
      <trkpt lat="44.36663" lon="3.91556">
        <ele>1315.7</ele>
        <time>2016-04-10T12:36:39Z</time>
      </trkpt>
      <trkpt lat="44.36654" lon="3.91541">
        <ele>1313.78</ele>
        <time>2016-04-10T12:36:40Z</time>
      </trkpt>
      <trkpt lat="44.36645" lon="3.91528">
        <ele>1312.82</ele>
        <time>2016-04-10T12:36:41Z</time>
      </trkpt>
      <trkpt lat="44.36634" lon="3.91517">
        <ele>1311.86</ele>
        <time>2016-04-10T12:36:42Z</time>
      </trkpt>
      <trkpt lat="44.36622" lon="3.9151">
        <ele>1310.9</ele>
        <time>2016-04-10T12:36:43Z</time>
      </trkpt>
      <trkpt lat="44.36609" lon="3.91506">
        <ele>1310.41</ele>
        <time>2016-04-10T12:36:44Z</time>
      </trkpt>
      <trkpt lat="44.36595" lon="3.91507">
        <ele>1308.97</ele>
        <time>2016-04-10T12:36:45Z</time>
      </trkpt>
      <trkpt lat="44.36581" lon="3.9151">
        <ele>1308.01</ele>
        <time>2016-04-10T12:36:46Z</time>
      </trkpt>
      <trkpt lat="44.36568" lon="3.91515">
        <ele>1307.05</ele>
        <time>2016-04-10T12:36:47Z</time>
      </trkpt>
      <trkpt lat="44.36517" lon="3.9153">
        <ele>1303.2</ele>
        <time>2016-04-10T12:36:51Z</time>
      </trkpt>
      <trkpt lat="44.36507" lon="3.91537">
        <ele>1302.72</ele>
        <time>2016-04-10T12:36:52Z</time>
      </trkpt>
      <trkpt lat="44.36499" lon="3.91547">
        <ele>1301.76</ele>
        <time>2016-04-10T12:36:53Z</time>
      </trkpt>
      <trkpt lat="44.36492" lon="3.91558">
        <ele>1300.8</ele>
        <time>2016-04-10T12:36:54Z</time>
      </trkpt>
      <trkpt lat="44.36484" lon="3.91569">
        <ele>1300.32</ele>
        <time>2016-04-10T12:36:55Z</time>
      </trkpt>
      <trkpt lat="44.36427" lon="3.91646">
        <ele>1292.63</ele>
        <time>2016-04-10T12:37:02Z</time>
      </trkpt>
      <trkpt lat="44.36419" lon="3.91653">
        <ele>1291.67</ele>
        <time>2016-04-10T12:37:03Z</time>
      </trkpt>
      <trkpt lat="44.36408" lon="3.91658">
        <ele>1290.71</ele>
        <time>2016-04-10T12:37:04Z</time>
      </trkpt>
      <trkpt lat="44.36393" lon="3.91661">
        <ele>1289.75</ele>
        <time>2016-04-10T12:37:05Z</time>
      </trkpt>
      <trkpt lat="44.36375" lon="3.91663">
        <ele>1288.3</ele>
        <time>2016-04-10T12:37:06Z</time>
      </trkpt>
      <trkpt lat="44.36356" lon="3.91667">
        <ele>1287.34</ele>
        <time>2016-04-10T12:37:07Z</time>
      </trkpt>
      <trkpt lat="44.36206" lon="3.91726">
        <ele>1274.36</ele>
        <time>2016-04-10T12:37:15Z</time>
      </trkpt>
      <trkpt lat="44.36164" lon="3.91766">
        <ele>1270.04</ele>
        <time>2016-04-10T12:37:18Z</time>
      </trkpt>
      <trkpt lat="44.36141" lon="3.91792">
        <ele>1266.19</ele>
        <time>2016-04-10T12:37:20Z</time>
      </trkpt>
      <trkpt lat="44.36128" lon="3.91801">
        <ele>1264.75</ele>
        <time>2016-04-10T12:37:21Z</time>
      </trkpt>
      <trkpt lat="44.36115" lon="3.91806">
        <ele>1263.31</ele>
        <time>2016-04-10T12:37:22Z</time>
      </trkpt>
      <trkpt lat="44.361" lon="3.91809">
        <ele>1261.39</ele>
        <time>2016-04-10T12:37:23Z</time>
      </trkpt>
      <trkpt lat="44.36085" lon="3.91812">
        <ele>1260.43</ele>
        <time>2016-04-10T12:37:24Z</time>
      </trkpt>
      <trkpt lat="44.3597" lon="3.91857">
        <ele>1250.33</ele>
        <time>2016-04-10T12:37:32Z</time>
      </trkpt>
      <trkpt lat="44.35957" lon="3.91858">
        <ele>1246.01</ele>
        <time>2016-04-10T12:37:33Z</time>
      </trkpt>
      <trkpt lat="44.35946" lon="3.91856">
        <ele>1243.6</ele>
        <time>2016-04-10T12:37:34Z</time>
      </trkpt>
      <trkpt lat="44.35935" lon="3.91851">
        <ele>1242.16</ele>
        <time>2016-04-10T12:37:35Z</time>
      </trkpt>
      <trkpt lat="44.35926" lon="3.91844">
        <ele>1241.2</ele>
        <time>2016-04-10T12:37:36Z</time>
      </trkpt>
      <trkpt lat="44.35919" lon="3.91836">
        <ele>1240.24</ele>
        <time>2016-04-10T12:37:37Z</time>
      </trkpt>
      <trkpt lat="44.35914" lon="3.91829">
        <ele>1239.76</ele>
        <time>2016-04-10T12:37:38Z</time>
      </trkpt>
      <trkpt lat="44.35909" lon="3.91824">
        <ele>1239.28</ele>
        <time>2016-04-10T12:37:39Z</time>
      </trkpt>
      <trkpt lat="44.35904" lon="3.91823">
        <ele>1238.8</ele>
        <time>2016-04-10T12:37:40Z</time>
      </trkpt>
      <trkpt lat="44.35901" lon="3.91825">
        <ele>1238.32</ele>
        <time>2016-04-10T12:37:41Z</time>
      </trkpt>
      <trkpt lat="44.359" lon="3.91836">
        <ele>1237.35</ele>
        <time>2016-04-10T12:37:43Z</time>
      </trkpt>
      <trkpt lat="44.35904" lon="3.91841">
        <ele>1236.39</ele>
        <time>2016-04-10T12:37:44Z</time>
      </trkpt>
      <trkpt lat="44.3591" lon="3.91846">
        <ele>1236.39</ele>
        <time>2016-04-10T12:37:45Z</time>
      </trkpt>
      <trkpt lat="44.35918" lon="3.91851">
        <ele>1235.91</ele>
        <time>2016-04-10T12:37:46Z</time>
      </trkpt>
      <trkpt lat="44.35926" lon="3.91859">
        <ele>1235.91</ele>
        <time>2016-04-10T12:37:47Z</time>
      </trkpt>
      <trkpt lat="44.35935" lon="3.91866">
        <ele>1234.95</ele>
        <time>2016-04-10T12:37:48Z</time>
      </trkpt>
      <trkpt lat="44.35945" lon="3.91874">
        <ele>1233.99</ele>
        <time>2016-04-10T12:37:49Z</time>
      </trkpt>
      <trkpt lat="44.35956" lon="3.91879">
        <ele>1233.03</ele>
        <time>2016-04-10T12:37:50Z</time>
      </trkpt>
      <trkpt lat="44.35968" lon="3.9188">
        <ele>1232.07</ele>
        <time>2016-04-10T12:37:51Z</time>
      </trkpt>
      <trkpt lat="44.35982" lon="3.9188">
        <ele>1231.11</ele>
        <time>2016-04-10T12:37:52Z</time>
      </trkpt>
      <trkpt lat="44.35997" lon="3.91878">
        <ele>1229.66</ele>
        <time>2016-04-10T12:37:53Z</time>
      </trkpt>
      <trkpt lat="44.36135" lon="3.9187">
        <ele>1221.01</ele>
        <time>2016-04-10T12:38:02Z</time>
      </trkpt>
      <trkpt lat="44.36164" lon="3.9187">
        <ele>1219.09</ele>
        <time>2016-04-10T12:38:04Z</time>
      </trkpt>
      <trkpt lat="44.36178" lon="3.91868">
        <ele>1218.61</ele>
        <time>2016-04-10T12:38:05Z</time>
      </trkpt>
      <trkpt lat="44.36217" lon="3.91848">
        <ele>1215.72</ele>
        <time>2016-04-10T12:38:08Z</time>
      </trkpt>
      <trkpt lat="44.36229" lon="3.91837">
        <ele>1215.24</ele>
        <time>2016-04-10T12:38:09Z</time>
      </trkpt>
      <trkpt lat="44.36282" lon="3.91809">
        <ele>1210.92</ele>
        <time>2016-04-10T12:38:13Z</time>
      </trkpt>
      <trkpt lat="44.36305" lon="3.91809">
        <ele>1207.55</ele>
        <time>2016-04-10T12:38:15Z</time>
      </trkpt>
      <trkpt lat="44.3632" lon="3.91811">
        <ele>1205.15</ele>
        <time>2016-04-10T12:38:16Z</time>
      </trkpt>
      <trkpt lat="44.36401" lon="3.91826">
        <ele>1195.54</ele>
        <time>2016-04-10T12:38:21Z</time>
      </trkpt>
      <trkpt lat="44.36416" lon="3.91833">
        <ele>1193.61</ele>
        <time>2016-04-10T12:38:22Z</time>
      </trkpt>
      <trkpt lat="44.3643" lon="3.91839">
        <ele>1192.65</ele>
        <time>2016-04-10T12:38:23Z</time>
      </trkpt>
      <trkpt lat="44.36443" lon="3.91842">
        <ele>1190.73</ele>
        <time>2016-04-10T12:38:24Z</time>
      </trkpt>
      <trkpt lat="44.36457" lon="3.91841">
        <ele>1189.77</ele>
        <time>2016-04-10T12:38:25Z</time>
      </trkpt>
      <trkpt lat="44.36472" lon="3.91833">
        <ele>1189.29</ele>
        <time>2016-04-10T12:38:26Z</time>
      </trkpt>
      <trkpt lat="44.36487" lon="3.91824">
        <ele>1189.29</ele>
        <time>2016-04-10T12:38:27Z</time>
      </trkpt>
      <trkpt lat="44.365" lon="3.91811">
        <ele>1188.81</ele>
        <time>2016-04-10T12:38:28Z</time>
      </trkpt>
      <trkpt lat="44.36513" lon="3.918">
        <ele>1187.85</ele>
        <time>2016-04-10T12:38:29Z</time>
      </trkpt>
      <trkpt lat="44.36574" lon="3.91768">
        <ele>1185.44</ele>
        <time>2016-04-10T12:38:34Z</time>
      </trkpt>
      <trkpt lat="44.36587" lon="3.91777">
        <ele>1184.96</ele>
        <time>2016-04-10T12:38:35Z</time>
      </trkpt>
      <trkpt lat="44.36599" lon="3.91786">
        <ele>1183.52</ele>
        <time>2016-04-10T12:38:36Z</time>
      </trkpt>
      <trkpt lat="44.36612" lon="3.918">
        <ele>1182.08</ele>
        <time>2016-04-10T12:38:37Z</time>
      </trkpt>
      <trkpt lat="44.36621" lon="3.91818">
        <ele>1179.19</ele>
        <time>2016-04-10T12:38:38Z</time>
      </trkpt>
      <trkpt lat="44.3663" lon="3.91837">
        <ele>1178.23</ele>
        <time>2016-04-10T12:38:39Z</time>
      </trkpt>
      <trkpt lat="44.36637" lon="3.91857">
        <ele>1177.75</ele>
        <time>2016-04-10T12:38:40Z</time>
      </trkpt>
      <trkpt lat="44.36643" lon="3.91875">
        <ele>1175.83</ele>
        <time>2016-04-10T12:38:41Z</time>
      </trkpt>
      <trkpt lat="44.36651" lon="3.91891">
        <ele>1174.39</ele>
        <time>2016-04-10T12:38:42Z</time>
      </trkpt>
      <trkpt lat="44.3666" lon="3.91904">
        <ele>1172.95</ele>
        <time>2016-04-10T12:38:43Z</time>
      </trkpt>
      <trkpt lat="44.36672" lon="3.91914">
        <ele>1172.47</ele>
        <time>2016-04-10T12:38:44Z</time>
      </trkpt>
      <trkpt lat="44.36686" lon="3.91919">
        <ele>1171.02</ele>
        <time>2016-04-10T12:38:45Z</time>
      </trkpt>
      <trkpt lat="44.367" lon="3.91923">
        <ele>1170.54</ele>
        <time>2016-04-10T12:38:46Z</time>
      </trkpt>
      <trkpt lat="44.36715" lon="3.91927">
        <ele>1169.58</ele>
        <time>2016-04-10T12:38:47Z</time>
      </trkpt>
      <trkpt lat="44.36729" lon="3.91928">
        <ele>1168.62</ele>
        <time>2016-04-10T12:38:48Z</time>
      </trkpt>
      <trkpt lat="44.36745" lon="3.91926">
        <ele>1168.14</ele>
        <time>2016-04-10T12:38:49Z</time>
      </trkpt>
      <trkpt lat="44.36761" lon="3.91921">
        <ele>1167.66</ele>
        <time>2016-04-10T12:38:50Z</time>
      </trkpt>
      <trkpt lat="44.36778" lon="3.91915">
        <ele>1167.18</ele>
        <time>2016-04-10T12:38:51Z</time>
      </trkpt>
      <trkpt lat="44.36794" lon="3.91909">
        <ele>1166.7</ele>
        <time>2016-04-10T12:38:52Z</time>
      </trkpt>
      <trkpt lat="44.3681" lon="3.91904">
        <ele>1165.26</ele>
        <time>2016-04-10T12:38:53Z</time>
      </trkpt>
      <trkpt lat="44.36826" lon="3.91902">
        <ele>1164.29</ele>
        <time>2016-04-10T12:38:54Z</time>
      </trkpt>
      <trkpt lat="44.36842" lon="3.91903">
        <ele>1163.33</ele>
        <time>2016-04-10T12:38:55Z</time>
      </trkpt>
      <trkpt lat="44.3688" lon="3.91922">
        <ele>1159.97</ele>
        <time>2016-04-10T12:38:58Z</time>
      </trkpt>
      <trkpt lat="44.36887" lon="3.91938">
        <ele>1157.56</ele>
        <time>2016-04-10T12:38:59Z</time>
      </trkpt>
      <trkpt lat="44.36894" lon="3.91956">
        <ele>1155.64</ele>
        <time>2016-04-10T12:39:00Z</time>
      </trkpt>
      <trkpt lat="44.36905" lon="3.91971">
        <ele>1154.68</ele>
        <time>2016-04-10T12:39:01Z</time>
      </trkpt>
      <trkpt lat="44.36918" lon="3.91985">
        <ele>1153.24</ele>
        <time>2016-04-10T12:39:02Z</time>
      </trkpt>
      <trkpt lat="44.3693" lon="3.92001">
        <ele>1152.28</ele>
        <time>2016-04-10T12:39:03Z</time>
      </trkpt>
      <trkpt lat="44.36942" lon="3.92019">
        <ele>1151.32</ele>
        <time>2016-04-10T12:39:04Z</time>
      </trkpt>
      <trkpt lat="44.36952" lon="3.92038">
        <ele>1150.35</ele>
        <time>2016-04-10T12:39:05Z</time>
      </trkpt>
      <trkpt lat="44.36961" lon="3.92057">
        <ele>1149.87</ele>
        <time>2016-04-10T12:39:06Z</time>
      </trkpt>
      <trkpt lat="44.36968" lon="3.92074">
        <ele>1147.95</ele>
        <time>2016-04-10T12:39:07Z</time>
      </trkpt>
      <trkpt lat="44.36995" lon="3.92106">
        <ele>1144.59</ele>
        <time>2016-04-10T12:39:10Z</time>
      </trkpt>
      <trkpt lat="44.37004" lon="3.92126">
        <ele>1144.11</ele>
        <time>2016-04-10T12:39:12Z</time>
      </trkpt>
      <trkpt lat="44.37002" lon="3.9214">
        <ele>1143.14</ele>
        <time>2016-04-10T12:39:13Z</time>
      </trkpt>
      <trkpt lat="44.36998" lon="3.92156">
        <ele>1141.7</ele>
        <time>2016-04-10T12:39:14Z</time>
      </trkpt>
      <trkpt lat="44.36991" lon="3.92175">
        <ele>1141.7</ele>
        <time>2016-04-10T12:39:15Z</time>
      </trkpt>
      <trkpt lat="44.36985" lon="3.92194">
        <ele>1142.18</ele>
        <time>2016-04-10T12:39:16Z</time>
      </trkpt>
      <trkpt lat="44.36978" lon="3.92213">
        <ele>1141.7</ele>
        <time>2016-04-10T12:39:17Z</time>
      </trkpt>
      <trkpt lat="44.36961" lon="3.92262">
        <ele>1141.7</ele>
        <time>2016-04-10T12:39:20Z</time>
      </trkpt>
      <trkpt lat="44.36946" lon="3.92332">
        <ele>1140.26</ele>
        <time>2016-04-10T12:39:25Z</time>
      </trkpt>
      <trkpt lat="44.36946" lon="3.92341">
        <ele>1139.78</ele>
        <time>2016-04-10T12:39:26Z</time>
      </trkpt>
      <trkpt lat="44.36946" lon="3.92349">
        <ele>1139.3</ele>
        <time>2016-04-10T12:39:27Z</time>
      </trkpt>
      <trkpt lat="44.36947" lon="3.92355">
        <ele>1139.3</ele>
        <time>2016-04-10T12:39:28Z</time>
      </trkpt>
      <trkpt lat="44.36948" lon="3.92361">
        <ele>1139.3</ele>
        <time>2016-04-10T12:39:29Z</time>
      </trkpt>
      <trkpt lat="44.36948" lon="3.92375">
        <ele>1139.78</ele>
        <time>2016-04-10T12:39:32Z</time>
      </trkpt>
      <trkpt lat="44.36945" lon="3.92378">
        <ele>1139.78</ele>
        <time>2016-04-10T12:39:33Z</time>
      </trkpt>
      <trkpt lat="44.36942" lon="3.92374">
        <ele>1139.3</ele>
        <time>2016-04-10T12:39:34Z</time>
      </trkpt>
      <trkpt lat="44.36939" lon="3.92356">
        <ele>1139.3</ele>
        <time>2016-04-10T12:39:36Z</time>
      </trkpt>
      <trkpt lat="44.36939" lon="3.92343">
        <ele>1138.82</ele>
        <time>2016-04-10T12:39:37Z</time>
      </trkpt>
      <trkpt lat="44.3694" lon="3.92328">
        <ele>1138.82</ele>
        <time>2016-04-10T12:39:38Z</time>
      </trkpt>
      <trkpt lat="44.36941" lon="3.92312">
        <ele>1138.34</ele>
        <time>2016-04-10T12:39:39Z</time>
      </trkpt>
      <trkpt lat="44.36969" lon="3.92153">
        <ele>1131.13</ele>
        <time>2016-04-10T12:39:50Z</time>
      </trkpt>
      <trkpt lat="44.3697" lon="3.92141">
        <ele>1130.17</ele>
        <time>2016-04-10T12:39:51Z</time>
      </trkpt>
      <trkpt lat="44.36965" lon="3.9213">
        <ele>1129.21</ele>
        <time>2016-04-10T12:39:52Z</time>
      </trkpt>
      <trkpt lat="44.36957" lon="3.92122">
        <ele>1128.24</ele>
        <time>2016-04-10T12:39:53Z</time>
      </trkpt>
      <trkpt lat="44.36948" lon="3.92114">
        <ele>1126.8</ele>
        <time>2016-04-10T12:39:54Z</time>
      </trkpt>
      <trkpt lat="44.36938" lon="3.92105">
        <ele>1126.32</ele>
        <time>2016-04-10T12:39:55Z</time>
      </trkpt>
      <trkpt lat="44.36928" lon="3.92091">
        <ele>1125.36</ele>
        <time>2016-04-10T12:39:56Z</time>
      </trkpt>
      <trkpt lat="44.36919" lon="3.92076">
        <ele>1123.44</ele>
        <time>2016-04-10T12:39:57Z</time>
      </trkpt>
      <trkpt lat="44.36908" lon="3.9206">
        <ele>1122</ele>
        <time>2016-04-10T12:39:58Z</time>
      </trkpt>
      <trkpt lat="44.36895" lon="3.92046">
        <ele>1121.03</ele>
        <time>2016-04-10T12:39:59Z</time>
      </trkpt>
      <trkpt lat="44.36882" lon="3.92035">
        <ele>1119.59</ele>
        <time>2016-04-10T12:40:00Z</time>
      </trkpt>
      <trkpt lat="44.36868" lon="3.92026">
        <ele>1118.15</ele>
        <time>2016-04-10T12:40:01Z</time>
      </trkpt>
      <trkpt lat="44.36855" lon="3.92017">
        <ele>1116.71</ele>
        <time>2016-04-10T12:40:02Z</time>
      </trkpt>
      <trkpt lat="44.36823" lon="3.91997">
        <ele>1113.34</ele>
        <time>2016-04-10T12:40:05Z</time>
      </trkpt>
      <trkpt lat="44.36813" lon="3.91994">
        <ele>1111.9</ele>
        <time>2016-04-10T12:40:06Z</time>
      </trkpt>
      <trkpt lat="44.36801" lon="3.91996">
        <ele>1110.46</ele>
        <time>2016-04-10T12:40:07Z</time>
      </trkpt>
      <trkpt lat="44.36789" lon="3.92001">
        <ele>1109.02</ele>
        <time>2016-04-10T12:40:08Z</time>
      </trkpt>
      <trkpt lat="44.36777" lon="3.9201">
        <ele>1107.1</ele>
        <time>2016-04-10T12:40:09Z</time>
      </trkpt>
      <trkpt lat="44.36764" lon="3.92023">
        <ele>1105.65</ele>
        <time>2016-04-10T12:40:10Z</time>
      </trkpt>
      <trkpt lat="44.36749" lon="3.92035">
        <ele>1104.69</ele>
        <time>2016-04-10T12:40:11Z</time>
      </trkpt>
      <trkpt lat="44.36735" lon="3.92044">
        <ele>1104.21</ele>
        <time>2016-04-10T12:40:12Z</time>
      </trkpt>
      <trkpt lat="44.36719" lon="3.92051">
        <ele>1103.25</ele>
        <time>2016-04-10T12:40:13Z</time>
      </trkpt>
      <trkpt lat="44.36704" lon="3.92055">
        <ele>1102.29</ele>
        <time>2016-04-10T12:40:14Z</time>
      </trkpt>
      <trkpt lat="44.36688" lon="3.92056">
        <ele>1100.85</ele>
        <time>2016-04-10T12:40:15Z</time>
      </trkpt>
      <trkpt lat="44.36671" lon="3.92055">
        <ele>1098.44</ele>
        <time>2016-04-10T12:40:16Z</time>
      </trkpt>
      <trkpt lat="44.36655" lon="3.92048">
        <ele>1096.52</ele>
        <time>2016-04-10T12:40:17Z</time>
      </trkpt>
      <trkpt lat="44.3664" lon="3.92039">
        <ele>1095.08</ele>
        <time>2016-04-10T12:40:18Z</time>
      </trkpt>
      <trkpt lat="44.36625" lon="3.92031">
        <ele>1094.12</ele>
        <time>2016-04-10T12:40:19Z</time>
      </trkpt>
      <trkpt lat="44.36542" lon="3.91982">
        <ele>1089.31</ele>
        <time>2016-04-10T12:40:26Z</time>
      </trkpt>
      <trkpt lat="44.36533" lon="3.91992">
        <ele>1088.35</ele>
        <time>2016-04-10T12:40:27Z</time>
      </trkpt>
      <trkpt lat="44.36528" lon="3.92009">
        <ele>1087.39</ele>
        <time>2016-04-10T12:40:28Z</time>
      </trkpt>
      <trkpt lat="44.36519" lon="3.92027">
        <ele>1086.91</ele>
        <time>2016-04-10T12:40:29Z</time>
      </trkpt>
      <trkpt lat="44.3651" lon="3.92046">
        <ele>1085.95</ele>
        <time>2016-04-10T12:40:30Z</time>
      </trkpt>
      <trkpt lat="44.36479" lon="3.92093">
        <ele>1084.5</ele>
        <time>2016-04-10T12:40:33Z</time>
      </trkpt>
      <trkpt lat="44.36466" lon="3.92104">
        <ele>1084.02</ele>
        <time>2016-04-10T12:40:34Z</time>
      </trkpt>
      <trkpt lat="44.36452" lon="3.92111">
        <ele>1084.02</ele>
        <time>2016-04-10T12:40:35Z</time>
      </trkpt>
      <trkpt lat="44.36437" lon="3.92109">
        <ele>1084.02</ele>
        <time>2016-04-10T12:40:36Z</time>
      </trkpt>
      <trkpt lat="44.36423" lon="3.92107">
        <ele>1083.54</ele>
        <time>2016-04-10T12:40:37Z</time>
      </trkpt>
      <trkpt lat="44.36407" lon="3.92101">
        <ele>1081.14</ele>
        <time>2016-04-10T12:40:38Z</time>
      </trkpt>
      <trkpt lat="44.36392" lon="3.92095">
        <ele>1078.74</ele>
        <time>2016-04-10T12:40:39Z</time>
      </trkpt>
      <trkpt lat="44.36377" lon="3.92089">
        <ele>1076.81</ele>
        <time>2016-04-10T12:40:40Z</time>
      </trkpt>
      <trkpt lat="44.36363" lon="3.92087">
        <ele>1075.85</ele>
        <time>2016-04-10T12:40:41Z</time>
      </trkpt>
      <trkpt lat="44.36348" lon="3.9209">
        <ele>1074.41</ele>
        <time>2016-04-10T12:40:42Z</time>
      </trkpt>
      <trkpt lat="44.36334" lon="3.92099">
        <ele>1072.97</ele>
        <time>2016-04-10T12:40:43Z</time>
      </trkpt>
      <trkpt lat="44.36321" lon="3.92112">
        <ele>1072.01</ele>
        <time>2016-04-10T12:40:44Z</time>
      </trkpt>
      <trkpt lat="44.3631" lon="3.92126">
        <ele>1071.05</ele>
        <time>2016-04-10T12:40:45Z</time>
      </trkpt>
      <trkpt lat="44.36299" lon="3.92143">
        <ele>1070.08</ele>
        <time>2016-04-10T12:40:46Z</time>
      </trkpt>
      <trkpt lat="44.36287" lon="3.92158">
        <ele>1069.6</ele>
        <time>2016-04-10T12:40:47Z</time>
      </trkpt>
      <trkpt lat="44.36274" lon="3.92172">
        <ele>1068.64</ele>
        <time>2016-04-10T12:40:48Z</time>
      </trkpt>
      <trkpt lat="44.36261" lon="3.92183">
        <ele>1067.68</ele>
        <time>2016-04-10T12:40:49Z</time>
      </trkpt>
      <trkpt lat="44.36247" lon="3.9219">
        <ele>1067.68</ele>
        <time>2016-04-10T12:40:50Z</time>
      </trkpt>
      <trkpt lat="44.36233" lon="3.92194">
        <ele>1066.24</ele>
        <time>2016-04-10T12:40:51Z</time>
      </trkpt>
      <trkpt lat="44.3622" lon="3.92194">
        <ele>1065.28</ele>
        <time>2016-04-10T12:40:52Z</time>
      </trkpt>
      <trkpt lat="44.362" lon="3.92196">
        <ele>1063.84</ele>
        <time>2016-04-10T12:40:55Z</time>
      </trkpt>
      <trkpt lat="44.36201" lon="3.92202">
        <ele>1062.87</ele>
        <time>2016-04-10T12:40:56Z</time>
      </trkpt>
      <trkpt lat="44.36207" lon="3.92204">
        <ele>1060.95</ele>
        <time>2016-04-10T12:40:57Z</time>
      </trkpt>
      <trkpt lat="44.36214" lon="3.92208">
        <ele>1063.36</ele>
        <time>2016-04-10T12:40:58Z</time>
      </trkpt>
      <trkpt lat="44.36223" lon="3.92211">
        <ele>1065.76</ele>
        <time>2016-04-10T12:40:59Z</time>
      </trkpt>
      <trkpt lat="44.36236" lon="3.92212">
        <ele>1064.32</ele>
        <time>2016-04-10T12:41:00Z</time>
      </trkpt>
      <trkpt lat="44.36252" lon="3.92208">
        <ele>1063.36</ele>
        <time>2016-04-10T12:41:01Z</time>
      </trkpt>
      <trkpt lat="44.36269" lon="3.92202">
        <ele>1061.91</ele>
        <time>2016-04-10T12:41:02Z</time>
      </trkpt>
      <trkpt lat="44.36287" lon="3.92196">
        <ele>1059.99</ele>
        <time>2016-04-10T12:41:03Z</time>
      </trkpt>
      <trkpt lat="44.36305" lon="3.92187">
        <ele>1059.03</ele>
        <time>2016-04-10T12:41:04Z</time>
      </trkpt>
      <trkpt lat="44.36322" lon="3.92177">
        <ele>1057.59</ele>
        <time>2016-04-10T12:41:05Z</time>
      </trkpt>
      <trkpt lat="44.36337" lon="3.92164">
        <ele>1056.63</ele>
        <time>2016-04-10T12:41:06Z</time>
      </trkpt>
      <trkpt lat="44.36351" lon="3.92152">
        <ele>1056.15</ele>
        <time>2016-04-10T12:41:07Z</time>
      </trkpt>
      <trkpt lat="44.36374" lon="3.92139">
        <ele>1054.7</ele>
        <time>2016-04-10T12:41:09Z</time>
      </trkpt>
      <trkpt lat="44.36385" lon="3.92143">
        <ele>1052.78</ele>
        <time>2016-04-10T12:41:10Z</time>
      </trkpt>
      <trkpt lat="44.36399" lon="3.92152">
        <ele>1051.82</ele>
        <time>2016-04-10T12:41:11Z</time>
      </trkpt>
      <trkpt lat="44.36413" lon="3.92163">
        <ele>1051.82</ele>
        <time>2016-04-10T12:41:12Z</time>
      </trkpt>
      <trkpt lat="44.36427" lon="3.92175">
        <ele>1050.38</ele>
        <time>2016-04-10T12:41:13Z</time>
      </trkpt>
      <trkpt lat="44.3644" lon="3.92189">
        <ele>1047.97</ele>
        <time>2016-04-10T12:41:14Z</time>
      </trkpt>
      <trkpt lat="44.36452" lon="3.922">
        <ele>1046.53</ele>
        <time>2016-04-10T12:41:15Z</time>
      </trkpt>
      <trkpt lat="44.36463" lon="3.92206">
        <ele>1045.57</ele>
        <time>2016-04-10T12:41:16Z</time>
      </trkpt>
      <trkpt lat="44.36477" lon="3.92207">
        <ele>1044.61</ele>
        <time>2016-04-10T12:41:17Z</time>
      </trkpt>
      <trkpt lat="44.36491" lon="3.92203">
        <ele>1044.13</ele>
        <time>2016-04-10T12:41:18Z</time>
      </trkpt>
      <trkpt lat="44.36508" lon="3.92195">
        <ele>1044.13</ele>
        <time>2016-04-10T12:41:19Z</time>
      </trkpt>
      <trkpt lat="44.36522" lon="3.92183">
        <ele>1043.17</ele>
        <time>2016-04-10T12:41:20Z</time>
      </trkpt>
      <trkpt lat="44.36533" lon="3.9217">
        <ele>1042.21</ele>
        <time>2016-04-10T12:41:21Z</time>
      </trkpt>
      <trkpt lat="44.36543" lon="3.92158">
        <ele>1041.73</ele>
        <time>2016-04-10T12:41:22Z</time>
      </trkpt>
      <trkpt lat="44.36553" lon="3.92149">
        <ele>1040.76</ele>
        <time>2016-04-10T12:41:23Z</time>
      </trkpt>
      <trkpt lat="44.36562" lon="3.92146">
        <ele>1039.32</ele>
        <time>2016-04-10T12:41:24Z</time>
      </trkpt>
      <trkpt lat="44.36572" lon="3.92151">
        <ele>1037.88</ele>
        <time>2016-04-10T12:41:25Z</time>
      </trkpt>
      <trkpt lat="44.36584" lon="3.92158">
        <ele>1036.92</ele>
        <time>2016-04-10T12:41:26Z</time>
      </trkpt>
      <trkpt lat="44.36597" lon="3.92167">
        <ele>1035.48</ele>
        <time>2016-04-10T12:41:27Z</time>
      </trkpt>
      <trkpt lat="44.36613" lon="3.92181">
        <ele>1035.48</ele>
        <time>2016-04-10T12:41:28Z</time>
      </trkpt>
      <trkpt lat="44.36627" lon="3.92195">
        <ele>1034.04</ele>
        <time>2016-04-10T12:41:29Z</time>
      </trkpt>
      <trkpt lat="44.3664" lon="3.92207">
        <ele>1032.59</ele>
        <time>2016-04-10T12:41:30Z</time>
      </trkpt>
      <trkpt lat="44.36675" lon="3.92231">
        <ele>1028.75</ele>
        <time>2016-04-10T12:41:33Z</time>
      </trkpt>
      <trkpt lat="44.36682" lon="3.9223">
        <ele>1026.83</ele>
        <time>2016-04-10T12:41:34Z</time>
      </trkpt>
      <trkpt lat="44.36689" lon="3.92232">
        <ele>1024.9</ele>
        <time>2016-04-10T12:41:35Z</time>
      </trkpt>
      <trkpt lat="44.36694" lon="3.92237">
        <ele>1023.46</ele>
        <time>2016-04-10T12:41:36Z</time>
      </trkpt>
      <trkpt lat="44.36692" lon="3.92244">
        <ele>1022.5</ele>
        <time>2016-04-10T12:41:37Z</time>
      </trkpt>
      <trkpt lat="44.36685" lon="3.92246">
        <ele>1021.54</ele>
        <time>2016-04-10T12:41:38Z</time>
      </trkpt>
      <trkpt lat="44.36676" lon="3.92244">
        <ele>1020.1</ele>
        <time>2016-04-10T12:41:39Z</time>
      </trkpt>
      <trkpt lat="44.36664" lon="3.92239">
        <ele>1018.65</ele>
        <time>2016-04-10T12:41:40Z</time>
      </trkpt>
      <trkpt lat="44.36651" lon="3.92233">
        <ele>1017.21</ele>
        <time>2016-04-10T12:41:41Z</time>
      </trkpt>
      <trkpt lat="44.36635" lon="3.92224">
        <ele>1015.77</ele>
        <time>2016-04-10T12:41:42Z</time>
      </trkpt>
      <trkpt lat="44.36619" lon="3.92216">
        <ele>1014.81</ele>
        <time>2016-04-10T12:41:43Z</time>
      </trkpt>
      <trkpt lat="44.36552" lon="3.92192">
        <ele>1009.04</ele>
        <time>2016-04-10T12:41:48Z</time>
      </trkpt>
      <trkpt lat="44.36542" lon="3.92199">
        <ele>1007.6</ele>
        <time>2016-04-10T12:41:49Z</time>
      </trkpt>
      <trkpt lat="44.36534" lon="3.92215">
        <ele>1007.6</ele>
        <time>2016-04-10T12:41:50Z</time>
      </trkpt>
      <trkpt lat="44.36484" lon="3.92278">
        <ele>1003.75</ele>
        <time>2016-04-10T12:41:55Z</time>
      </trkpt>
      <trkpt lat="44.36472" lon="3.92281">
        <ele>1003.27</ele>
        <time>2016-04-10T12:41:56Z</time>
      </trkpt>
      <trkpt lat="44.36459" lon="3.92284">
        <ele>1003.27</ele>
        <time>2016-04-10T12:41:57Z</time>
      </trkpt>
      <trkpt lat="44.36444" lon="3.92282">
        <ele>1002.79</ele>
        <time>2016-04-10T12:41:58Z</time>
      </trkpt>
      <trkpt lat="44.36428" lon="3.92278">
        <ele>1002.31</ele>
        <time>2016-04-10T12:41:59Z</time>
      </trkpt>
      <trkpt lat="44.36413" lon="3.92271">
        <ele>1001.35</ele>
        <time>2016-04-10T12:42:00Z</time>
      </trkpt>
      <trkpt lat="44.36403" lon="3.92262">
        <ele>1001.35</ele>
        <time>2016-04-10T12:42:01Z</time>
      </trkpt>
      <trkpt lat="44.36392" lon="3.92257">
        <ele>1000.39</ele>
        <time>2016-04-10T12:42:02Z</time>
      </trkpt>
      <trkpt lat="44.36384" lon="3.92258">
        <ele>998.95</ele>
        <time>2016-04-10T12:42:03Z</time>
      </trkpt>
      <trkpt lat="44.36376" lon="3.92267">
        <ele>997.99</ele>
        <time>2016-04-10T12:42:04Z</time>
      </trkpt>
      <trkpt lat="44.36368" lon="3.9228">
        <ele>997.51</ele>
        <time>2016-04-10T12:42:05Z</time>
      </trkpt>
      <trkpt lat="44.3636" lon="3.92298">
        <ele>997.02</ele>
        <time>2016-04-10T12:42:06Z</time>
      </trkpt>
      <trkpt lat="44.36352" lon="3.92321">
        <ele>997.02</ele>
        <time>2016-04-10T12:42:07Z</time>
      </trkpt>
      <trkpt lat="44.36345" lon="3.92344">
        <ele>996.06</ele>
        <time>2016-04-10T12:42:08Z</time>
      </trkpt>
      <trkpt lat="44.36338" lon="3.92365">
        <ele>995.58</ele>
        <time>2016-04-10T12:42:09Z</time>
      </trkpt>
      <trkpt lat="44.36328" lon="3.92384">
        <ele>995.58</ele>
        <time>2016-04-10T12:42:10Z</time>
      </trkpt>
      <trkpt lat="44.36318" lon="3.92397">
        <ele>996.06</ele>
        <time>2016-04-10T12:42:11Z</time>
      </trkpt>
      <trkpt lat="44.36305" lon="3.92408">
        <ele>996.54</ele>
        <time>2016-04-10T12:42:12Z</time>
      </trkpt>
      <trkpt lat="44.36289" lon="3.92414">
        <ele>997.99</ele>
        <time>2016-04-10T12:42:13Z</time>
      </trkpt>
      <trkpt lat="44.36272" lon="3.92417">
        <ele>995.1</ele>
        <time>2016-04-10T12:42:14Z</time>
      </trkpt>
      <trkpt lat="44.36252" lon="3.92413">
        <ele>992.7</ele>
        <time>2016-04-10T12:42:15Z</time>
      </trkpt>
      <trkpt lat="44.36233" lon="3.92409">
        <ele>989.81</ele>
        <time>2016-04-10T12:42:16Z</time>
      </trkpt>
      <trkpt lat="44.36216" lon="3.92406">
        <ele>987.41</ele>
        <time>2016-04-10T12:42:17Z</time>
      </trkpt>
      <trkpt lat="44.362" lon="3.92401">
        <ele>985.01</ele>
        <time>2016-04-10T12:42:18Z</time>
      </trkpt>
      <trkpt lat="44.36175" lon="3.92389">
        <ele>982.12</ele>
        <time>2016-04-10T12:42:20Z</time>
      </trkpt>
      <trkpt lat="44.36166" lon="3.9238">
        <ele>981.16</ele>
        <time>2016-04-10T12:42:21Z</time>
      </trkpt>
      <trkpt lat="44.36152" lon="3.92368">
        <ele>978.28</ele>
        <time>2016-04-10T12:42:23Z</time>
      </trkpt>
      <trkpt lat="44.36143" lon="3.92369">
        <ele>977.8</ele>
        <time>2016-04-10T12:42:24Z</time>
      </trkpt>
      <trkpt lat="44.36134" lon="3.92373">
        <ele>976.84</ele>
        <time>2016-04-10T12:42:25Z</time>
      </trkpt>
      <trkpt lat="44.36126" lon="3.92377">
        <ele>976.36</ele>
        <time>2016-04-10T12:42:26Z</time>
      </trkpt>
      <trkpt lat="44.3612" lon="3.92383">
        <ele>975.88</ele>
        <time>2016-04-10T12:42:27Z</time>
      </trkpt>
      <trkpt lat="44.36117" lon="3.92389">
        <ele>974.43</ele>
        <time>2016-04-10T12:42:28Z</time>
      </trkpt>
      <trkpt lat="44.36132" lon="3.924">
        <ele>972.99</ele>
        <time>2016-04-10T12:42:31Z</time>
      </trkpt>
      <trkpt lat="44.36139" lon="3.92398">
        <ele>972.03</ele>
        <time>2016-04-10T12:42:32Z</time>
      </trkpt>
      <trkpt lat="44.36151" lon="3.92393">
        <ele>972.51</ele>
        <time>2016-04-10T12:42:33Z</time>
      </trkpt>
      <trkpt lat="44.36164" lon="3.92392">
        <ele>972.51</ele>
        <time>2016-04-10T12:42:34Z</time>
      </trkpt>
      <trkpt lat="44.36175" lon="3.92397">
        <ele>971.07</ele>
        <time>2016-04-10T12:42:35Z</time>
      </trkpt>
      <trkpt lat="44.36186" lon="3.92406">
        <ele>970.59</ele>
        <time>2016-04-10T12:42:36Z</time>
      </trkpt>
      <trkpt lat="44.36197" lon="3.92418">
        <ele>970.11</ele>
        <time>2016-04-10T12:42:37Z</time>
      </trkpt>
      <trkpt lat="44.3621" lon="3.9243">
        <ele>968.67</ele>
        <time>2016-04-10T12:42:38Z</time>
      </trkpt>
      <trkpt lat="44.36249" lon="3.92461">
        <ele>965.3</ele>
        <time>2016-04-10T12:42:41Z</time>
      </trkpt>
      <trkpt lat="44.36263" lon="3.92468">
        <ele>964.34</ele>
        <time>2016-04-10T12:42:42Z</time>
      </trkpt>
      <trkpt lat="44.36276" lon="3.92471">
        <ele>963.86</ele>
        <time>2016-04-10T12:42:43Z</time>
      </trkpt>
      <trkpt lat="44.36286" lon="3.92469">
        <ele>963.38</ele>
        <time>2016-04-10T12:42:44Z</time>
      </trkpt>
      <trkpt lat="44.36294" lon="3.92465">
        <ele>962.9</ele>
        <time>2016-04-10T12:42:45Z</time>
      </trkpt>
      <trkpt lat="44.36301" lon="3.92463">
        <ele>962.42</ele>
        <time>2016-04-10T12:42:46Z</time>
      </trkpt>
      <trkpt lat="44.36306" lon="3.92464">
        <ele>961.46</ele>
        <time>2016-04-10T12:42:47Z</time>
      </trkpt>
      <trkpt lat="44.36287" lon="3.92479">
        <ele>954.25</ele>
        <time>2016-04-10T12:42:51Z</time>
      </trkpt>
      <trkpt lat="44.36276" lon="3.92482">
        <ele>953.77</ele>
        <time>2016-04-10T12:42:52Z</time>
      </trkpt>
      <trkpt lat="44.36262" lon="3.92485">
        <ele>955.21</ele>
        <time>2016-04-10T12:42:53Z</time>
      </trkpt>
      <trkpt lat="44.36244" lon="3.92486">
        <ele>955.69</ele>
        <time>2016-04-10T12:42:54Z</time>
      </trkpt>
      <trkpt lat="44.36212" lon="3.92479">
        <ele>953.28</ele>
        <time>2016-04-10T12:42:56Z</time>
      </trkpt>
      <trkpt lat="44.36198" lon="3.92471">
        <ele>952.32</ele>
        <time>2016-04-10T12:42:57Z</time>
      </trkpt>
      <trkpt lat="44.36186" lon="3.92462">
        <ele>951.36</ele>
        <time>2016-04-10T12:42:58Z</time>
      </trkpt>
      <trkpt lat="44.36174" lon="3.92454">
        <ele>949.92</ele>
        <time>2016-04-10T12:42:59Z</time>
      </trkpt>
      <trkpt lat="44.36163" lon="3.92449">
        <ele>948.48</ele>
        <time>2016-04-10T12:43:00Z</time>
      </trkpt>
      <trkpt lat="44.36152" lon="3.92449">
        <ele>947.04</ele>
        <time>2016-04-10T12:43:01Z</time>
      </trkpt>
      <trkpt lat="44.36144" lon="3.92457">
        <ele>945.11</ele>
        <time>2016-04-10T12:43:02Z</time>
      </trkpt>
      <trkpt lat="44.36136" lon="3.92472">
        <ele>944.15</ele>
        <time>2016-04-10T12:43:03Z</time>
      </trkpt>
      <trkpt lat="44.36126" lon="3.92489">
        <ele>943.19</ele>
        <time>2016-04-10T12:43:04Z</time>
      </trkpt>
      <trkpt lat="44.36114" lon="3.92508">
        <ele>942.23</ele>
        <time>2016-04-10T12:43:05Z</time>
      </trkpt>
      <trkpt lat="44.36043" lon="3.92578">
        <ele>933.1</ele>
        <time>2016-04-10T12:43:10Z</time>
      </trkpt>
      <trkpt lat="44.36025" lon="3.92582">
        <ele>931.17</ele>
        <time>2016-04-10T12:43:11Z</time>
      </trkpt>
      <trkpt lat="44.36006" lon="3.92583">
        <ele>930.69</ele>
        <time>2016-04-10T12:43:12Z</time>
      </trkpt>
      <trkpt lat="44.35987" lon="3.92583">
        <ele>929.73</ele>
        <time>2016-04-10T12:43:13Z</time>
      </trkpt>
      <trkpt lat="44.3597" lon="3.92582">
        <ele>930.21</ele>
        <time>2016-04-10T12:43:14Z</time>
      </trkpt>
      <trkpt lat="44.35922" lon="3.92567">
        <ele>922.04</ele>
        <time>2016-04-10T12:43:17Z</time>
      </trkpt>
      <trkpt lat="44.3591" lon="3.92556">
        <ele>921.08</ele>
        <time>2016-04-10T12:43:18Z</time>
      </trkpt>
      <trkpt lat="44.35885" lon="3.92537">
        <ele>918.68</ele>
        <time>2016-04-10T12:43:20Z</time>
      </trkpt>
      <trkpt lat="44.35873" lon="3.9253">
        <ele>917.72</ele>
        <time>2016-04-10T12:43:21Z</time>
      </trkpt>
      <trkpt lat="44.35862" lon="3.92522">
        <ele>916.75</ele>
        <time>2016-04-10T12:43:22Z</time>
      </trkpt>
      <trkpt lat="44.35853" lon="3.92515">
        <ele>915.31</ele>
        <time>2016-04-10T12:43:23Z</time>
      </trkpt>
      <trkpt lat="44.35845" lon="3.92514">
        <ele>913.87</ele>
        <time>2016-04-10T12:43:24Z</time>
      </trkpt>
      <trkpt lat="44.35838" lon="3.92519">
        <ele>912.43</ele>
        <time>2016-04-10T12:43:25Z</time>
      </trkpt>
      <trkpt lat="44.35833" lon="3.9253">
        <ele>910.99</ele>
        <time>2016-04-10T12:43:26Z</time>
      </trkpt>
      <trkpt lat="44.35827" lon="3.92543">
        <ele>910.03</ele>
        <time>2016-04-10T12:43:27Z</time>
      </trkpt>
      <trkpt lat="44.35819" lon="3.92558">
        <ele>909.06</ele>
        <time>2016-04-10T12:43:28Z</time>
      </trkpt>
      <trkpt lat="44.35807" lon="3.92575">
        <ele>907.62</ele>
        <time>2016-04-10T12:43:29Z</time>
      </trkpt>
      <trkpt lat="44.35794" lon="3.9259">
        <ele>906.66</ele>
        <time>2016-04-10T12:43:30Z</time>
      </trkpt>
      <trkpt lat="44.35779" lon="3.92603">
        <ele>905.22</ele>
        <time>2016-04-10T12:43:31Z</time>
      </trkpt>
      <trkpt lat="44.35763" lon="3.92613">
        <ele>904.26</ele>
        <time>2016-04-10T12:43:32Z</time>
      </trkpt>
      <trkpt lat="44.35747" lon="3.92622">
        <ele>903.3</ele>
        <time>2016-04-10T12:43:33Z</time>
      </trkpt>
      <trkpt lat="44.35731" lon="3.92632">
        <ele>902.33</ele>
        <time>2016-04-10T12:43:34Z</time>
      </trkpt>
      <trkpt lat="44.35716" lon="3.92643">
        <ele>900.89</ele>
        <time>2016-04-10T12:43:35Z</time>
      </trkpt>
      <trkpt lat="44.35701" lon="3.92656">
        <ele>899.45</ele>
        <time>2016-04-10T12:43:36Z</time>
      </trkpt>
      <trkpt lat="44.35688" lon="3.92671">
        <ele>898.01</ele>
        <time>2016-04-10T12:43:37Z</time>
      </trkpt>
      <trkpt lat="44.35675" lon="3.92685">
        <ele>897.05</ele>
        <time>2016-04-10T12:43:38Z</time>
      </trkpt>
      <trkpt lat="44.35662" lon="3.92698">
        <ele>895.61</ele>
        <time>2016-04-10T12:43:39Z</time>
      </trkpt>
      <trkpt lat="44.35647" lon="3.92708">
        <ele>894.64</ele>
        <time>2016-04-10T12:43:40Z</time>
      </trkpt>
      <trkpt lat="44.35632" lon="3.92716">
        <ele>893.2</ele>
        <time>2016-04-10T12:43:41Z</time>
      </trkpt>
      <trkpt lat="44.35616" lon="3.9272">
        <ele>890.8</ele>
        <time>2016-04-10T12:43:42Z</time>
      </trkpt>
      <trkpt lat="44.356" lon="3.92714">
        <ele>887.91</ele>
        <time>2016-04-10T12:43:43Z</time>
      </trkpt>
      <trkpt lat="44.35584" lon="3.92711">
        <ele>887.43</ele>
        <time>2016-04-10T12:43:44Z</time>
      </trkpt>
      <trkpt lat="44.35567" lon="3.92709">
        <ele>887.43</ele>
        <time>2016-04-10T12:43:45Z</time>
      </trkpt>
      <trkpt lat="44.35449" lon="3.92696">
        <ele>877.34</ele>
        <time>2016-04-10T12:43:52Z</time>
      </trkpt>
      <trkpt lat="44.35435" lon="3.92688">
        <ele>876.86</ele>
        <time>2016-04-10T12:43:53Z</time>
      </trkpt>
      <trkpt lat="44.35421" lon="3.9268">
        <ele>875.9</ele>
        <time>2016-04-10T12:43:54Z</time>
      </trkpt>
      <trkpt lat="44.35407" lon="3.92676">
        <ele>874.46</ele>
        <time>2016-04-10T12:43:55Z</time>
      </trkpt>
      <trkpt lat="44.35392" lon="3.92675">
        <ele>873.5</ele>
        <time>2016-04-10T12:43:56Z</time>
      </trkpt>
      <trkpt lat="44.35378" lon="3.92675">
        <ele>873.01</ele>
        <time>2016-04-10T12:43:57Z</time>
      </trkpt>
      <trkpt lat="44.35364" lon="3.9267">
        <ele>872.05</ele>
        <time>2016-04-10T12:43:58Z</time>
      </trkpt>
      <trkpt lat="44.35352" lon="3.92662">
        <ele>872.05</ele>
        <time>2016-04-10T12:43:59Z</time>
      </trkpt>
      <trkpt lat="44.35341" lon="3.92653">
        <ele>872.05</ele>
        <time>2016-04-10T12:44:00Z</time>
      </trkpt>
      <trkpt lat="44.35331" lon="3.92645">
        <ele>872.05</ele>
        <time>2016-04-10T12:44:01Z</time>
      </trkpt>
      <trkpt lat="44.35322" lon="3.9264">
        <ele>871.57</ele>
        <time>2016-04-10T12:44:02Z</time>
      </trkpt>
      <trkpt lat="44.35312" lon="3.9264">
        <ele>870.61</ele>
        <time>2016-04-10T12:44:03Z</time>
      </trkpt>
      <trkpt lat="44.35303" lon="3.92647">
        <ele>870.13</ele>
        <time>2016-04-10T12:44:04Z</time>
      </trkpt>
      <trkpt lat="44.35297" lon="3.92656">
        <ele>869.17</ele>
        <time>2016-04-10T12:44:05Z</time>
      </trkpt>
      <trkpt lat="44.35297" lon="3.92673">
        <ele>868.69</ele>
        <time>2016-04-10T12:44:06Z</time>
      </trkpt>
      <trkpt lat="44.35296" lon="3.92689">
        <ele>868.21</ele>
        <time>2016-04-10T12:44:07Z</time>
      </trkpt>
      <trkpt lat="44.35293" lon="3.92706">
        <ele>867.73</ele>
        <time>2016-04-10T12:44:08Z</time>
      </trkpt>
      <trkpt lat="44.35285" lon="3.92724">
        <ele>867.25</ele>
        <time>2016-04-10T12:44:09Z</time>
      </trkpt>
      <trkpt lat="44.35275" lon="3.92739">
        <ele>866.29</ele>
        <time>2016-04-10T12:44:10Z</time>
      </trkpt>
      <trkpt lat="44.35262" lon="3.92754">
        <ele>865.8</ele>
        <time>2016-04-10T12:44:11Z</time>
      </trkpt>
      <trkpt lat="44.35248" lon="3.92767">
        <ele>864.84</ele>
        <time>2016-04-10T12:44:12Z</time>
      </trkpt>
      <trkpt lat="44.35234" lon="3.92778">
        <ele>864.36</ele>
        <time>2016-04-10T12:44:13Z</time>
      </trkpt>
      <trkpt lat="44.35219" lon="3.92788">
        <ele>862.92</ele>
        <time>2016-04-10T12:44:14Z</time>
      </trkpt>
      <trkpt lat="44.35191" lon="3.92802">
        <ele>859.08</ele>
        <time>2016-04-10T12:44:16Z</time>
      </trkpt>
      <trkpt lat="44.35177" lon="3.92805">
        <ele>858.11</ele>
        <time>2016-04-10T12:44:17Z</time>
      </trkpt>
      <trkpt lat="44.35154" lon="3.92812">
        <ele>856.19</ele>
        <time>2016-04-10T12:44:19Z</time>
      </trkpt>
      <trkpt lat="44.35147" lon="3.92826">
        <ele>856.19</ele>
        <time>2016-04-10T12:44:20Z</time>
      </trkpt>
      <trkpt lat="44.35142" lon="3.92845">
        <ele>854.75</ele>
        <time>2016-04-10T12:44:21Z</time>
      </trkpt>
      <trkpt lat="44.35102" lon="3.92945">
        <ele>847.06</ele>
        <time>2016-04-10T12:44:26Z</time>
      </trkpt>
      <trkpt lat="44.35092" lon="3.92959">
        <ele>845.14</ele>
        <time>2016-04-10T12:44:27Z</time>
      </trkpt>
      <trkpt lat="44.35077" lon="3.92969">
        <ele>843.69</ele>
        <time>2016-04-10T12:44:28Z</time>
      </trkpt>
      <trkpt lat="44.35061" lon="3.92979">
        <ele>845.14</ele>
        <time>2016-04-10T12:44:29Z</time>
      </trkpt>
      <trkpt lat="44.35045" lon="3.92984">
        <ele>845.14</ele>
        <time>2016-04-10T12:44:30Z</time>
      </trkpt>
      <trkpt lat="44.35028" lon="3.92986">
        <ele>842.73</ele>
        <time>2016-04-10T12:44:31Z</time>
      </trkpt>
      <trkpt lat="44.35011" lon="3.92985">
        <ele>840.81</ele>
        <time>2016-04-10T12:44:32Z</time>
      </trkpt>
      <trkpt lat="44.34995" lon="3.92977">
        <ele>838.89</ele>
        <time>2016-04-10T12:44:33Z</time>
      </trkpt>
      <trkpt lat="44.34979" lon="3.92968">
        <ele>837.45</ele>
        <time>2016-04-10T12:44:34Z</time>
      </trkpt>
      <trkpt lat="44.34962" lon="3.92959">
        <ele>836</ele>
        <time>2016-04-10T12:44:35Z</time>
      </trkpt>
      <trkpt lat="44.34945" lon="3.92952">
        <ele>834.56</ele>
        <time>2016-04-10T12:44:36Z</time>
      </trkpt>
      <trkpt lat="44.34927" lon="3.92949">
        <ele>833.6</ele>
        <time>2016-04-10T12:44:37Z</time>
      </trkpt>
      <trkpt lat="44.34881" lon="3.92936">
        <ele>829.27</ele>
        <time>2016-04-10T12:44:40Z</time>
      </trkpt>
      <trkpt lat="44.3487" lon="3.9292">
        <ele>828.31</ele>
        <time>2016-04-10T12:44:41Z</time>
      </trkpt>
      <trkpt lat="44.3486" lon="3.92903">
        <ele>827.83</ele>
        <time>2016-04-10T12:44:42Z</time>
      </trkpt>
      <trkpt lat="44.34853" lon="3.92884">
        <ele>826.87</ele>
        <time>2016-04-10T12:44:43Z</time>
      </trkpt>
      <trkpt lat="44.34847" lon="3.92867">
        <ele>825.91</ele>
        <time>2016-04-10T12:44:44Z</time>
      </trkpt>
      <trkpt lat="44.34841" lon="3.92852">
        <ele>825.43</ele>
        <time>2016-04-10T12:44:45Z</time>
      </trkpt>
      <trkpt lat="44.34832" lon="3.92834">
        <ele>824.47</ele>
        <time>2016-04-10T12:44:47Z</time>
      </trkpt>
      <trkpt lat="44.34827" lon="3.92834">
        <ele>823.51</ele>
        <time>2016-04-10T12:44:48Z</time>
      </trkpt>
      <trkpt lat="44.34825" lon="3.92841">
        <ele>823.03</ele>
        <time>2016-04-10T12:44:49Z</time>
      </trkpt>
      <trkpt lat="44.34825" lon="3.92851">
        <ele>822.55</ele>
        <time>2016-04-10T12:44:50Z</time>
      </trkpt>
      <trkpt lat="44.34829" lon="3.92862">
        <ele>821.1</ele>
        <time>2016-04-10T12:44:51Z</time>
      </trkpt>
      <trkpt lat="44.34837" lon="3.92873">
        <ele>820.62</ele>
        <time>2016-04-10T12:44:52Z</time>
      </trkpt>
      <trkpt lat="44.34845" lon="3.92887">
        <ele>820.14</ele>
        <time>2016-04-10T12:44:53Z</time>
      </trkpt>
      <trkpt lat="44.34852" lon="3.92905">
        <ele>819.18</ele>
        <time>2016-04-10T12:44:54Z</time>
      </trkpt>
      <trkpt lat="44.34858" lon="3.92926">
        <ele>818.7</ele>
        <time>2016-04-10T12:44:55Z</time>
      </trkpt>
      <trkpt lat="44.34868" lon="3.92962">
        <ele>816.3</ele>
        <time>2016-04-10T12:44:57Z</time>
      </trkpt>
      <trkpt lat="44.34877" lon="3.92977">
        <ele>814.85</ele>
        <time>2016-04-10T12:44:58Z</time>
      </trkpt>
      <trkpt lat="44.3489" lon="3.92991">
        <ele>813.89</ele>
        <time>2016-04-10T12:44:59Z</time>
      </trkpt>
      <trkpt lat="44.34957" lon="3.93074">
        <ele>808.61</ele>
        <time>2016-04-10T12:45:04Z</time>
      </trkpt>
      <trkpt lat="44.34971" lon="3.93087">
        <ele>807.64</ele>
        <time>2016-04-10T12:45:05Z</time>
      </trkpt>
      <trkpt lat="44.34985" lon="3.93099">
        <ele>807.16</ele>
        <time>2016-04-10T12:45:06Z</time>
      </trkpt>
      <trkpt lat="44.35046" lon="3.9317">
        <ele>801.88</ele>
        <time>2016-04-10T12:45:11Z</time>
      </trkpt>
      <trkpt lat="44.35092" lon="3.93217">
        <ele>798.51</ele>
        <time>2016-04-10T12:45:15Z</time>
      </trkpt>
      <trkpt lat="44.35107" lon="3.93221">
        <ele>797.55</ele>
        <time>2016-04-10T12:45:16Z</time>
      </trkpt>
      <trkpt lat="44.35166" lon="3.93244">
        <ele>793.22</ele>
        <time>2016-04-10T12:45:21Z</time>
      </trkpt>
      <trkpt lat="44.35169" lon="3.93256">
        <ele>791.78</ele>
        <time>2016-04-10T12:45:22Z</time>
      </trkpt>
      <trkpt lat="44.35166" lon="3.93271">
        <ele>790.82</ele>
        <time>2016-04-10T12:45:23Z</time>
      </trkpt>
      <trkpt lat="44.35159" lon="3.93285">
        <ele>790.34</ele>
        <time>2016-04-10T12:45:24Z</time>
      </trkpt>
      <trkpt lat="44.35148" lon="3.933">
        <ele>789.38</ele>
        <time>2016-04-10T12:45:25Z</time>
      </trkpt>
      <trkpt lat="44.35135" lon="3.93313">
        <ele>787.94</ele>
        <time>2016-04-10T12:45:26Z</time>
      </trkpt>
      <trkpt lat="44.3512" lon="3.93325">
        <ele>786.5</ele>
        <time>2016-04-10T12:45:27Z</time>
      </trkpt>
      <trkpt lat="44.35102" lon="3.9333">
        <ele>785.05</ele>
        <time>2016-04-10T12:45:28Z</time>
      </trkpt>
      <trkpt lat="44.35086" lon="3.93336">
        <ele>784.09</ele>
        <time>2016-04-10T12:45:29Z</time>
      </trkpt>
      <trkpt lat="44.35068" lon="3.93339">
        <ele>783.61</ele>
        <time>2016-04-10T12:45:30Z</time>
      </trkpt>
      <trkpt lat="44.35051" lon="3.9334">
        <ele>782.17</ele>
        <time>2016-04-10T12:45:31Z</time>
      </trkpt>
      <trkpt lat="44.35032" lon="3.93336">
        <ele>780.73</ele>
        <time>2016-04-10T12:45:32Z</time>
      </trkpt>
      <trkpt lat="44.35013" lon="3.93331">
        <ele>779.77</ele>
        <time>2016-04-10T12:45:33Z</time>
      </trkpt>
      <trkpt lat="44.34875" lon="3.93285">
        <ele>769.67</ele>
        <time>2016-04-10T12:45:40Z</time>
      </trkpt>
      <trkpt lat="44.34842" lon="3.93268">
        <ele>766.79</ele>
        <time>2016-04-10T12:45:42Z</time>
      </trkpt>
      <trkpt lat="44.34828" lon="3.93255">
        <ele>765.35</ele>
        <time>2016-04-10T12:45:43Z</time>
      </trkpt>
      <trkpt lat="44.34815" lon="3.9324">
        <ele>763.9</ele>
        <time>2016-04-10T12:45:44Z</time>
      </trkpt>
      <trkpt lat="44.34805" lon="3.93222">
        <ele>762.46</ele>
        <time>2016-04-10T12:45:45Z</time>
      </trkpt>
      <trkpt lat="44.34795" lon="3.93202">
        <ele>760.54</ele>
        <time>2016-04-10T12:45:46Z</time>
      </trkpt>
      <trkpt lat="44.34784" lon="3.93182">
        <ele>759.58</ele>
        <time>2016-04-10T12:45:47Z</time>
      </trkpt>
      <trkpt lat="44.3477" lon="3.93165">
        <ele>758.14</ele>
        <time>2016-04-10T12:45:48Z</time>
      </trkpt>
      <trkpt lat="44.34755" lon="3.93151">
        <ele>756.69</ele>
        <time>2016-04-10T12:45:49Z</time>
      </trkpt>
      <trkpt lat="44.34742" lon="3.93141">
        <ele>755.73</ele>
        <time>2016-04-10T12:45:50Z</time>
      </trkpt>
      <trkpt lat="44.3473" lon="3.93132">
        <ele>754.29</ele>
        <time>2016-04-10T12:45:51Z</time>
      </trkpt>
      <trkpt lat="44.34723" lon="3.93119">
        <ele>753.33</ele>
        <time>2016-04-10T12:45:52Z</time>
      </trkpt>
      <trkpt lat="44.34719" lon="3.93101">
        <ele>752.37</ele>
        <time>2016-04-10T12:45:53Z</time>
      </trkpt>
      <trkpt lat="44.34715" lon="3.93081">
        <ele>751.41</ele>
        <time>2016-04-10T12:45:54Z</time>
      </trkpt>
      <trkpt lat="44.34715" lon="3.93062">
        <ele>750.93</ele>
        <time>2016-04-10T12:45:55Z</time>
      </trkpt>
      <trkpt lat="44.34715" lon="3.93045">
        <ele>750.45</ele>
        <time>2016-04-10T12:45:56Z</time>
      </trkpt>
      <trkpt lat="44.34714" lon="3.93034">
        <ele>750.45</ele>
        <time>2016-04-10T12:45:57Z</time>
      </trkpt>
      <trkpt lat="44.34712" lon="3.93027">
        <ele>749.49</ele>
        <time>2016-04-10T12:45:58Z</time>
      </trkpt>
      <trkpt lat="44.34707" lon="3.93027">
        <ele>748.04</ele>
        <time>2016-04-10T12:45:59Z</time>
      </trkpt>
      <trkpt lat="44.34703" lon="3.93051">
        <ele>745.64</ele>
        <time>2016-04-10T12:46:01Z</time>
      </trkpt>
      <trkpt lat="44.34704" lon="3.93071">
        <ele>744.68</ele>
        <time>2016-04-10T12:46:02Z</time>
      </trkpt>
      <trkpt lat="44.34705" lon="3.93092">
        <ele>744.2</ele>
        <time>2016-04-10T12:46:03Z</time>
      </trkpt>
      <trkpt lat="44.34705" lon="3.93114">
        <ele>743.24</ele>
        <time>2016-04-10T12:46:04Z</time>
      </trkpt>
      <trkpt lat="44.34706" lon="3.93135">
        <ele>741.79</ele>
        <time>2016-04-10T12:46:05Z</time>
      </trkpt>
      <trkpt lat="44.34709" lon="3.93155">
        <ele>740.83</ele>
        <time>2016-04-10T12:46:06Z</time>
      </trkpt>
      <trkpt lat="44.34715" lon="3.93174">
        <ele>739.39</ele>
        <time>2016-04-10T12:46:07Z</time>
      </trkpt>
      <trkpt lat="44.34725" lon="3.93192">
        <ele>739.39</ele>
        <time>2016-04-10T12:46:08Z</time>
      </trkpt>
      <trkpt lat="44.34736" lon="3.93209">
        <ele>738.43</ele>
        <time>2016-04-10T12:46:09Z</time>
      </trkpt>
      <trkpt lat="44.34748" lon="3.93226">
        <ele>737.47</ele>
        <time>2016-04-10T12:46:10Z</time>
      </trkpt>
      <trkpt lat="44.34759" lon="3.93244">
        <ele>736.99</ele>
        <time>2016-04-10T12:46:11Z</time>
      </trkpt>
      <trkpt lat="44.34791" lon="3.93302">
        <ele>734.58</ele>
        <time>2016-04-10T12:46:14Z</time>
      </trkpt>
      <trkpt lat="44.34804" lon="3.93319">
        <ele>733.62</ele>
        <time>2016-04-10T12:46:15Z</time>
      </trkpt>
      <trkpt lat="44.34875" lon="3.93392">
        <ele>728.82</ele>
        <time>2016-04-10T12:46:20Z</time>
      </trkpt>
      <trkpt lat="44.34907" lon="3.93415">
        <ele>726.89</ele>
        <time>2016-04-10T12:46:22Z</time>
      </trkpt>
      <trkpt lat="44.34922" lon="3.9343">
        <ele>725.93</ele>
        <time>2016-04-10T12:46:23Z</time>
      </trkpt>
      <trkpt lat="44.34935" lon="3.93447">
        <ele>724.01</ele>
        <time>2016-04-10T12:46:24Z</time>
      </trkpt>
      <trkpt lat="44.34989" lon="3.93511">
        <ele>719.2</ele>
        <time>2016-04-10T12:46:28Z</time>
      </trkpt>
      <trkpt lat="44.35003" lon="3.93516">
        <ele>717.76</ele>
        <time>2016-04-10T12:46:29Z</time>
      </trkpt>
      <trkpt lat="44.35018" lon="3.93519">
        <ele>716.8</ele>
        <time>2016-04-10T12:46:30Z</time>
      </trkpt>
      <trkpt lat="44.35033" lon="3.93524">
        <ele>715.36</ele>
        <time>2016-04-10T12:46:31Z</time>
      </trkpt>
      <trkpt lat="44.35046" lon="3.93536">
        <ele>714.4</ele>
        <time>2016-04-10T12:46:32Z</time>
      </trkpt>
      <trkpt lat="44.35056" lon="3.93553">
        <ele>713.44</ele>
        <time>2016-04-10T12:46:33Z</time>
      </trkpt>
      <trkpt lat="44.35066" lon="3.9357">
        <ele>711.99</ele>
        <time>2016-04-10T12:46:34Z</time>
      </trkpt>
      <trkpt lat="44.35077" lon="3.93586">
        <ele>711.51</ele>
        <time>2016-04-10T12:46:35Z</time>
      </trkpt>
      <trkpt lat="44.3509" lon="3.936">
        <ele>710.55</ele>
        <time>2016-04-10T12:46:36Z</time>
      </trkpt>
      <trkpt lat="44.35106" lon="3.93613">
        <ele>710.07</ele>
        <time>2016-04-10T12:46:37Z</time>
      </trkpt>
      <trkpt lat="44.35123" lon="3.93625">
        <ele>709.59</ele>
        <time>2016-04-10T12:46:38Z</time>
      </trkpt>
      <trkpt lat="44.3514" lon="3.93637">
        <ele>708.15</ele>
        <time>2016-04-10T12:46:39Z</time>
      </trkpt>
      <trkpt lat="44.3521" lon="3.93676">
        <ele>703.34</ele>
        <time>2016-04-10T12:46:43Z</time>
      </trkpt>
      <trkpt lat="44.35229" lon="3.93679">
        <ele>702.38</ele>
        <time>2016-04-10T12:46:44Z</time>
      </trkpt>
      <trkpt lat="44.35249" lon="3.93681">
        <ele>701.42</ele>
        <time>2016-04-10T12:46:45Z</time>
      </trkpt>
      <trkpt lat="44.35269" lon="3.93681">
        <ele>699.98</ele>
        <time>2016-04-10T12:46:46Z</time>
      </trkpt>
      <trkpt lat="44.35288" lon="3.9368">
        <ele>698.53</ele>
        <time>2016-04-10T12:46:47Z</time>
      </trkpt>
      <trkpt lat="44.35307" lon="3.93677">
        <ele>697.09</ele>
        <time>2016-04-10T12:46:48Z</time>
      </trkpt>
      <trkpt lat="44.35324" lon="3.93671">
        <ele>695.65</ele>
        <time>2016-04-10T12:46:49Z</time>
      </trkpt>
      <trkpt lat="44.35341" lon="3.93662">
        <ele>694.21</ele>
        <time>2016-04-10T12:46:50Z</time>
      </trkpt>
      <trkpt lat="44.35356" lon="3.93651">
        <ele>692.77</ele>
        <time>2016-04-10T12:46:51Z</time>
      </trkpt>
      <trkpt lat="44.35369" lon="3.93642">
        <ele>691.33</ele>
        <time>2016-04-10T12:46:52Z</time>
      </trkpt>
      <trkpt lat="44.35382" lon="3.93608">
        <ele>688.92</ele>
        <time>2016-04-10T12:46:54Z</time>
      </trkpt>
      <trkpt lat="44.35385" lon="3.9359">
        <ele>687.48</ele>
        <time>2016-04-10T12:46:55Z</time>
      </trkpt>
      <trkpt lat="44.35385" lon="3.93571">
        <ele>686.04</ele>
        <time>2016-04-10T12:46:56Z</time>
      </trkpt>
      <trkpt lat="44.35379" lon="3.93548">
        <ele>684.12</ele>
        <time>2016-04-10T12:46:57Z</time>
      </trkpt>
      <trkpt lat="44.35374" lon="3.93522">
        <ele>682.67</ele>
        <time>2016-04-10T12:46:58Z</time>
      </trkpt>
      <trkpt lat="44.35372" lon="3.93495">
        <ele>682.19</ele>
        <time>2016-04-10T12:46:59Z</time>
      </trkpt>
      <trkpt lat="44.35371" lon="3.93468">
        <ele>681.23</ele>
        <time>2016-04-10T12:47:00Z</time>
      </trkpt>
      <trkpt lat="44.35366" lon="3.93357">
        <ele>675.94</ele>
        <time>2016-04-10T12:47:06Z</time>
      </trkpt>
      <trkpt lat="44.35376" lon="3.93352">
        <ele>674.5</ele>
        <time>2016-04-10T12:47:08Z</time>
      </trkpt>
      <trkpt lat="44.35384" lon="3.93376">
        <ele>673.06</ele>
        <time>2016-04-10T12:47:10Z</time>
      </trkpt>
      <trkpt lat="44.35385" lon="3.93392">
        <ele>671.62</ele>
        <time>2016-04-10T12:47:11Z</time>
      </trkpt>
      <trkpt lat="44.35382" lon="3.93413">
        <ele>670.18</ele>
        <time>2016-04-10T12:47:12Z</time>
      </trkpt>
      <trkpt lat="44.35381" lon="3.93434">
        <ele>669.22</ele>
        <time>2016-04-10T12:47:13Z</time>
      </trkpt>
      <trkpt lat="44.35399" lon="3.93552">
        <ele>666.81</ele>
        <time>2016-04-10T12:47:18Z</time>
      </trkpt>
      <trkpt lat="44.35419" lon="3.93615">
        <ele>664.89</ele>
        <time>2016-04-10T12:47:21Z</time>
      </trkpt>
      <trkpt lat="44.35422" lon="3.93634">
        <ele>664.41</ele>
        <time>2016-04-10T12:47:22Z</time>
      </trkpt>
      <trkpt lat="44.3542" lon="3.93651">
        <ele>663.93</ele>
        <time>2016-04-10T12:47:23Z</time>
      </trkpt>
      <trkpt lat="44.3541" lon="3.93667">
        <ele>662.97</ele>
        <time>2016-04-10T12:47:24Z</time>
      </trkpt>
      <trkpt lat="44.35399" lon="3.93684">
        <ele>662.49</ele>
        <time>2016-04-10T12:47:25Z</time>
      </trkpt>
      <trkpt lat="44.35388" lon="3.93701">
        <ele>661.52</ele>
        <time>2016-04-10T12:47:26Z</time>
      </trkpt>
      <trkpt lat="44.35375" lon="3.93717">
        <ele>660.56</ele>
        <time>2016-04-10T12:47:27Z</time>
      </trkpt>
      <trkpt lat="44.35362" lon="3.93732">
        <ele>660.08</ele>
        <time>2016-04-10T12:47:28Z</time>
      </trkpt>
      <trkpt lat="44.35346" lon="3.93743">
        <ele>659.6</ele>
        <time>2016-04-10T12:47:29Z</time>
      </trkpt>
      <trkpt lat="44.35227" lon="3.93801">
        <ele>653.35</ele>
        <time>2016-04-10T12:47:36Z</time>
      </trkpt>
      <trkpt lat="44.35148" lon="3.93806">
        <ele>643.74</ele>
        <time>2016-04-10T12:47:41Z</time>
      </trkpt>
      <trkpt lat="44.35133" lon="3.93797">
        <ele>641.82</ele>
        <time>2016-04-10T12:47:42Z</time>
      </trkpt>
      <trkpt lat="44.35118" lon="3.93789">
        <ele>641.34</ele>
        <time>2016-04-10T12:47:43Z</time>
      </trkpt>
      <trkpt lat="44.35054" lon="3.93762">
        <ele>637.97</ele>
        <time>2016-04-10T12:47:48Z</time>
      </trkpt>
      <trkpt lat="44.35047" lon="3.93767">
        <ele>636.05</ele>
        <time>2016-04-10T12:47:49Z</time>
      </trkpt>
      <trkpt lat="44.3505" lon="3.93794">
        <ele>636.05</ele>
        <time>2016-04-10T12:47:51Z</time>
      </trkpt>
      <trkpt lat="44.35061" lon="3.93805">
        <ele>634.61</ele>
        <time>2016-04-10T12:47:52Z</time>
      </trkpt>
      <trkpt lat="44.35069" lon="3.93819">
        <ele>634.13</ele>
        <time>2016-04-10T12:47:53Z</time>
      </trkpt>
      <trkpt lat="44.35075" lon="3.93836">
        <ele>633.17</ele>
        <time>2016-04-10T12:47:54Z</time>
      </trkpt>
      <trkpt lat="44.35079" lon="3.93855">
        <ele>634.13</ele>
        <time>2016-04-10T12:47:55Z</time>
      </trkpt>
      <trkpt lat="44.3508" lon="3.93868">
        <ele>632.68</ele>
        <time>2016-04-10T12:47:56Z</time>
      </trkpt>
      <trkpt lat="44.35077" lon="3.93881">
        <ele>631.72</ele>
        <time>2016-04-10T12:47:57Z</time>
      </trkpt>
      <trkpt lat="44.35069" lon="3.9389">
        <ele>631.72</ele>
        <time>2016-04-10T12:47:58Z</time>
      </trkpt>
      <trkpt lat="44.3506" lon="3.93899">
        <ele>631.24</ele>
        <time>2016-04-10T12:47:59Z</time>
      </trkpt>
      <trkpt lat="44.3505" lon="3.93906">
        <ele>631.24</ele>
        <time>2016-04-10T12:48:00Z</time>
      </trkpt>
      <trkpt lat="44.35042" lon="3.93912">
        <ele>630.76</ele>
        <time>2016-04-10T12:48:01Z</time>
      </trkpt>
      <trkpt lat="44.35042" lon="3.93927">
        <ele>629.32</ele>
        <time>2016-04-10T12:48:03Z</time>
      </trkpt>
      <trkpt lat="44.35049" lon="3.9393">
        <ele>628.84</ele>
        <time>2016-04-10T12:48:04Z</time>
      </trkpt>
      <trkpt lat="44.3506" lon="3.93933">
        <ele>628.36</ele>
        <time>2016-04-10T12:48:05Z</time>
      </trkpt>
      <trkpt lat="44.35073" lon="3.93933">
        <ele>627.88</ele>
        <time>2016-04-10T12:48:06Z</time>
      </trkpt>
      <trkpt lat="44.35086" lon="3.93929">
        <ele>627.4</ele>
        <time>2016-04-10T12:48:07Z</time>
      </trkpt>
      <trkpt lat="44.35098" lon="3.93923">
        <ele>626.92</ele>
        <time>2016-04-10T12:48:08Z</time>
      </trkpt>
      <trkpt lat="44.35106" lon="3.93907">
        <ele>625.47</ele>
        <time>2016-04-10T12:48:09Z</time>
      </trkpt>
      <trkpt lat="44.35111" lon="3.93895">
        <ele>624.03</ele>
        <time>2016-04-10T12:48:10Z</time>
      </trkpt>
      <trkpt lat="44.35114" lon="3.93884">
        <ele>622.59</ele>
        <time>2016-04-10T12:48:11Z</time>
      </trkpt>
      <trkpt lat="44.35113" lon="3.93871">
        <ele>621.63</ele>
        <time>2016-04-10T12:48:12Z</time>
      </trkpt>
      <trkpt lat="44.3511" lon="3.93858">
        <ele>619.23</ele>
        <time>2016-04-10T12:48:13Z</time>
      </trkpt>
      <trkpt lat="44.35105" lon="3.93839">
        <ele>617.78</ele>
        <time>2016-04-10T12:48:15Z</time>
      </trkpt>
      <trkpt lat="44.35107" lon="3.93834">
        <ele>617.3</ele>
        <time>2016-04-10T12:48:16Z</time>
      </trkpt>
      <trkpt lat="44.35114" lon="3.93835">
        <ele>616.82</ele>
        <time>2016-04-10T12:48:17Z</time>
      </trkpt>
      <trkpt lat="44.35122" lon="3.93838">
        <ele>614.42</ele>
        <time>2016-04-10T12:48:18Z</time>
      </trkpt>
      <trkpt lat="44.35132" lon="3.93845">
        <ele>614.9</ele>
        <time>2016-04-10T12:48:19Z</time>
      </trkpt>
      <trkpt lat="44.35143" lon="3.93854">
        <ele>614.9</ele>
        <time>2016-04-10T12:48:20Z</time>
      </trkpt>
      <trkpt lat="44.35157" lon="3.93866">
        <ele>613.94</ele>
        <time>2016-04-10T12:48:21Z</time>
      </trkpt>
      <trkpt lat="44.35169" lon="3.93876">
        <ele>612.98</ele>
        <time>2016-04-10T12:48:22Z</time>
      </trkpt>
      <trkpt lat="44.3518" lon="3.93883">
        <ele>612.5</ele>
        <time>2016-04-10T12:48:23Z</time>
      </trkpt>
      <trkpt lat="44.35193" lon="3.93887">
        <ele>611.06</ele>
        <time>2016-04-10T12:48:24Z</time>
      </trkpt>
      <trkpt lat="44.35218" lon="3.93898">
        <ele>610.09</ele>
        <time>2016-04-10T12:48:26Z</time>
      </trkpt>
      <trkpt lat="44.35253" lon="3.93913">
        <ele>606.25</ele>
        <time>2016-04-10T12:48:29Z</time>
      </trkpt>
      <trkpt lat="44.35267" lon="3.93912">
        <ele>605.77</ele>
        <time>2016-04-10T12:48:30Z</time>
      </trkpt>
      <trkpt lat="44.35312" lon="3.93908">
        <ele>604.33</ele>
        <time>2016-04-10T12:48:33Z</time>
      </trkpt>
      <trkpt lat="44.35356" lon="3.93891">
        <ele>602.88</ele>
        <time>2016-04-10T12:48:36Z</time>
      </trkpt>
      <trkpt lat="44.35368" lon="3.93882">
        <ele>601.92</ele>
        <time>2016-04-10T12:48:37Z</time>
      </trkpt>
      <trkpt lat="44.3538" lon="3.93874">
        <ele>602.4</ele>
        <time>2016-04-10T12:48:38Z</time>
      </trkpt>
      <trkpt lat="44.35391" lon="3.93864">
        <ele>601.44</ele>
        <time>2016-04-10T12:48:39Z</time>
      </trkpt>
      <trkpt lat="44.35401" lon="3.93854">
        <ele>601.92</ele>
        <time>2016-04-10T12:48:40Z</time>
      </trkpt>
      <trkpt lat="44.35415" lon="3.93841">
        <ele>600.96</ele>
        <time>2016-04-10T12:48:42Z</time>
      </trkpt>
      <trkpt lat="44.35419" lon="3.93851">
        <ele>598.56</ele>
        <time>2016-04-10T12:48:44Z</time>
      </trkpt>
      <trkpt lat="44.35415" lon="3.93863">
        <ele>597.6</ele>
        <time>2016-04-10T12:48:45Z</time>
      </trkpt>
      <trkpt lat="44.35407" lon="3.93876">
        <ele>596.64</ele>
        <time>2016-04-10T12:48:46Z</time>
      </trkpt>
      <trkpt lat="44.354" lon="3.93888">
        <ele>596.15</ele>
        <time>2016-04-10T12:48:47Z</time>
      </trkpt>
      <trkpt lat="44.35392" lon="3.93905">
        <ele>594.71</ele>
        <time>2016-04-10T12:48:48Z</time>
      </trkpt>
      <trkpt lat="44.35329" lon="3.93991">
        <ele>586.06</ele>
        <time>2016-04-10T12:48:53Z</time>
      </trkpt>
      <trkpt lat="44.35301" lon="3.94021">
        <ele>581.73</ele>
        <time>2016-04-10T12:48:55Z</time>
      </trkpt>
      <trkpt lat="44.35289" lon="3.94041">
        <ele>579.33</ele>
        <time>2016-04-10T12:48:56Z</time>
      </trkpt>
      <trkpt lat="44.35281" lon="3.94066">
        <ele>577.89</ele>
        <time>2016-04-10T12:48:57Z</time>
      </trkpt>
      <trkpt lat="44.35274" lon="3.9409">
        <ele>575.49</ele>
        <time>2016-04-10T12:48:58Z</time>
      </trkpt>
      <trkpt lat="44.35268" lon="3.94115">
        <ele>573.56</ele>
        <time>2016-04-10T12:48:59Z</time>
      </trkpt>
      <trkpt lat="44.35252" lon="3.94186">
        <ele>568.28</ele>
        <time>2016-04-10T12:49:02Z</time>
      </trkpt>
      <trkpt lat="44.35251" lon="3.94209">
        <ele>566.83</ele>
        <time>2016-04-10T12:49:03Z</time>
      </trkpt>
      <trkpt lat="44.35253" lon="3.94234">
        <ele>564.91</ele>
        <time>2016-04-10T12:49:04Z</time>
      </trkpt>
      <trkpt lat="44.35259" lon="3.94257">
        <ele>562.99</ele>
        <time>2016-04-10T12:49:05Z</time>
      </trkpt>
      <trkpt lat="44.35269" lon="3.94283">
        <ele>561.55</ele>
        <time>2016-04-10T12:49:06Z</time>
      </trkpt>
      <trkpt lat="44.35279" lon="3.94305">
        <ele>559.62</ele>
        <time>2016-04-10T12:49:07Z</time>
      </trkpt>
      <trkpt lat="44.35291" lon="3.94327">
        <ele>557.7</ele>
        <time>2016-04-10T12:49:08Z</time>
      </trkpt>
      <trkpt lat="44.35302" lon="3.94349">
        <ele>555.78</ele>
        <time>2016-04-10T12:49:09Z</time>
      </trkpt>
      <trkpt lat="44.3534" lon="3.94433">
        <ele>548.57</ele>
        <time>2016-04-10T12:49:13Z</time>
      </trkpt>
      <trkpt lat="44.35345" lon="3.94452">
        <ele>546.17</ele>
        <time>2016-04-10T12:49:14Z</time>
      </trkpt>
      <trkpt lat="44.35346" lon="3.94476">
        <ele>544.24</ele>
        <time>2016-04-10T12:49:15Z</time>
      </trkpt>
      <trkpt lat="44.35346" lon="3.94499">
        <ele>541.84</ele>
        <time>2016-04-10T12:49:16Z</time>
      </trkpt>
      <trkpt lat="44.35344" lon="3.94521">
        <ele>539.92</ele>
        <time>2016-04-10T12:49:17Z</time>
      </trkpt>
      <trkpt lat="44.35338" lon="3.94537">
        <ele>537.51</ele>
        <time>2016-04-10T12:49:18Z</time>
      </trkpt>
      <trkpt lat="44.35329" lon="3.9455">
        <ele>535.59</ele>
        <time>2016-04-10T12:49:19Z</time>
      </trkpt>
      <trkpt lat="44.35317" lon="3.9456">
        <ele>533.19</ele>
        <time>2016-04-10T12:49:20Z</time>
      </trkpt>
      <trkpt lat="44.35301" lon="3.94569">
        <ele>531.75</ele>
        <time>2016-04-10T12:49:21Z</time>
      </trkpt>
      <trkpt lat="44.35284" lon="3.9458">
        <ele>530.3</ele>
        <time>2016-04-10T12:49:22Z</time>
      </trkpt>
      <trkpt lat="44.35265" lon="3.94593">
        <ele>528.86</ele>
        <time>2016-04-10T12:49:23Z</time>
      </trkpt>
      <trkpt lat="44.35134" lon="3.94703">
        <ele>517.33</ele>
        <time>2016-04-10T12:49:31Z</time>
      </trkpt>
      <trkpt lat="44.35104" lon="3.9473">
        <ele>513.96</ele>
        <time>2016-04-10T12:49:35Z</time>
      </trkpt>
      <trkpt lat="44.35102" lon="3.94733">
        <ele>513.48</ele>
        <time>2016-04-10T12:49:36Z</time>
      </trkpt>
      <trkpt lat="44.35105" lon="3.94732">
        <ele>514.92</ele>
        <time>2016-04-10T12:49:49Z</time>
      </trkpt>
      <trkpt lat="44.35107" lon="3.94733">
        <ele>519.25</ele>
        <time>2016-04-10T12:50:13Z</time>
      </trkpt>
      <trkpt lat="44.35105" lon="3.94747">
        <ele>518.29</ele>
        <time>2016-04-10T12:50:17Z</time>
      </trkpt>
      <trkpt lat="44.351" lon="3.94753">
        <ele>517.81</ele>
        <time>2016-04-10T12:50:18Z</time>
      </trkpt>
      <trkpt lat="44.35092" lon="3.94759">
        <ele>517.33</ele>
        <time>2016-04-10T12:50:19Z</time>
      </trkpt>
      <trkpt lat="44.35016" lon="3.94792">
        <ele>514.44</ele>
        <time>2016-04-10T12:50:28Z</time>
      </trkpt>
      <trkpt lat="44.349" lon="3.94817">
        <ele>508.19</ele>
        <time>2016-04-10T12:50:39Z</time>
      </trkpt>
      <trkpt lat="44.34793" lon="3.94839">
        <ele>502.91</ele>
        <time>2016-04-10T12:50:49Z</time>
      </trkpt>
      <trkpt lat="44.3477" lon="3.94846">
        <ele>502.43</ele>
        <time>2016-04-10T12:50:51Z</time>
      </trkpt>
      <trkpt lat="44.34758" lon="3.94853">
        <ele>500.98</ele>
        <time>2016-04-10T12:50:52Z</time>
      </trkpt>
      <trkpt lat="44.34747" lon="3.94863">
        <ele>500.02</ele>
        <time>2016-04-10T12:50:53Z</time>
      </trkpt>
      <trkpt lat="44.34736" lon="3.94875">
        <ele>499.06</ele>
        <time>2016-04-10T12:50:54Z</time>
      </trkpt>
      <trkpt lat="44.34724" lon="3.94886">
        <ele>498.1</ele>
        <time>2016-04-10T12:50:55Z</time>
      </trkpt>
      <trkpt lat="44.34612" lon="3.95013">
        <ele>489.93</ele>
        <time>2016-04-10T12:51:05Z</time>
      </trkpt>
      <trkpt lat="44.34573" lon="3.95047">
        <ele>487.05</ele>
        <time>2016-04-10T12:51:08Z</time>
      </trkpt>
      <trkpt lat="44.34559" lon="3.95055">
        <ele>486.08</ele>
        <time>2016-04-10T12:51:09Z</time>
      </trkpt>
      <trkpt lat="44.34543" lon="3.95058">
        <ele>485.6</ele>
        <time>2016-04-10T12:51:10Z</time>
      </trkpt>
      <trkpt lat="44.34527" lon="3.95062">
        <ele>485.12</ele>
        <time>2016-04-10T12:51:11Z</time>
      </trkpt>
      <trkpt lat="44.3451" lon="3.95064">
        <ele>485.6</ele>
        <time>2016-04-10T12:51:12Z</time>
      </trkpt>
      <trkpt lat="44.34492" lon="3.95065">
        <ele>485.6</ele>
        <time>2016-04-10T12:51:13Z</time>
      </trkpt>
      <trkpt lat="44.34358" lon="3.95104">
        <ele>479.35</ele>
        <time>2016-04-10T12:51:20Z</time>
      </trkpt>
      <trkpt lat="44.34258" lon="3.95116">
        <ele>473.59</ele>
        <time>2016-04-10T12:51:26Z</time>
      </trkpt>
      <trkpt lat="44.34246" lon="3.95111">
        <ele>472.63</ele>
        <time>2016-04-10T12:51:27Z</time>
      </trkpt>
      <trkpt lat="44.34239" lon="3.95095">
        <ele>472.14</ele>
        <time>2016-04-10T12:51:28Z</time>
      </trkpt>
      <trkpt lat="44.34233" lon="3.95079">
        <ele>471.18</ele>
        <time>2016-04-10T12:51:29Z</time>
      </trkpt>
      <trkpt lat="44.34225" lon="3.95058">
        <ele>470.7</ele>
        <time>2016-04-10T12:51:30Z</time>
      </trkpt>
      <trkpt lat="44.34214" lon="3.9504">
        <ele>469.26</ele>
        <time>2016-04-10T12:51:31Z</time>
      </trkpt>
      <trkpt lat="44.34201" lon="3.95024">
        <ele>469.26</ele>
        <time>2016-04-10T12:51:32Z</time>
      </trkpt>
      <trkpt lat="44.34187" lon="3.95008">
        <ele>468.3</ele>
        <time>2016-04-10T12:51:33Z</time>
      </trkpt>
      <trkpt lat="44.34175" lon="3.94991">
        <ele>467.34</ele>
        <time>2016-04-10T12:51:34Z</time>
      </trkpt>
      <trkpt lat="44.34165" lon="3.94972">
        <ele>466.38</ele>
        <time>2016-04-10T12:51:35Z</time>
      </trkpt>
      <trkpt lat="44.34154" lon="3.94955">
        <ele>465.9</ele>
        <time>2016-04-10T12:51:36Z</time>
      </trkpt>
      <trkpt lat="44.34144" lon="3.94939">
        <ele>465.42</ele>
        <time>2016-04-10T12:51:37Z</time>
      </trkpt>
      <trkpt lat="44.34131" lon="3.94925">
        <ele>464.45</ele>
        <time>2016-04-10T12:51:38Z</time>
      </trkpt>
      <trkpt lat="44.34119" lon="3.94915">
        <ele>463.49</ele>
        <time>2016-04-10T12:51:39Z</time>
      </trkpt>
      <trkpt lat="44.34107" lon="3.94909">
        <ele>463.01</ele>
        <time>2016-04-10T12:51:40Z</time>
      </trkpt>
      <trkpt lat="44.34096" lon="3.94909">
        <ele>462.05</ele>
        <time>2016-04-10T12:51:41Z</time>
      </trkpt>
      <trkpt lat="44.34085" lon="3.94915">
        <ele>461.09</ele>
        <time>2016-04-10T12:51:42Z</time>
      </trkpt>
      <trkpt lat="44.34078" lon="3.94928">
        <ele>460.13</ele>
        <time>2016-04-10T12:51:43Z</time>
      </trkpt>
      <trkpt lat="44.34074" lon="3.94945">
        <ele>459.17</ele>
        <time>2016-04-10T12:51:44Z</time>
      </trkpt>
      <trkpt lat="44.34077" lon="3.94966">
        <ele>457.72</ele>
        <time>2016-04-10T12:51:45Z</time>
      </trkpt>
      <trkpt lat="44.34084" lon="3.94986">
        <ele>457.24</ele>
        <time>2016-04-10T12:51:46Z</time>
      </trkpt>
      <trkpt lat="44.34095" lon="3.95007">
        <ele>457.72</ele>
        <time>2016-04-10T12:51:47Z</time>
      </trkpt>
      <trkpt lat="44.34107" lon="3.95028">
        <ele>457.72</ele>
        <time>2016-04-10T12:51:48Z</time>
      </trkpt>
      <trkpt lat="44.34128" lon="3.95069">
        <ele>457.72</ele>
        <time>2016-04-10T12:51:50Z</time>
      </trkpt>
      <trkpt lat="44.34135" lon="3.95089">
        <ele>457.72</ele>
        <time>2016-04-10T12:51:51Z</time>
      </trkpt>
      <trkpt lat="44.34139" lon="3.95107">
        <ele>456.76</ele>
        <time>2016-04-10T12:51:52Z</time>
      </trkpt>
      <trkpt lat="44.34134" lon="3.95123">
        <ele>456.28</ele>
        <time>2016-04-10T12:51:53Z</time>
      </trkpt>
      <trkpt lat="44.34124" lon="3.95135">
        <ele>456.76</ele>
        <time>2016-04-10T12:51:54Z</time>
      </trkpt>
      <trkpt lat="44.34111" lon="3.95145">
        <ele>455.8</ele>
        <time>2016-04-10T12:51:55Z</time>
      </trkpt>
      <trkpt lat="44.34095" lon="3.95156">
        <ele>456.28</ele>
        <time>2016-04-10T12:51:56Z</time>
      </trkpt>
      <trkpt lat="44.34077" lon="3.95164">
        <ele>456.28</ele>
        <time>2016-04-10T12:51:57Z</time>
      </trkpt>
      <trkpt lat="44.34059" lon="3.9517">
        <ele>456.28</ele>
        <time>2016-04-10T12:51:58Z</time>
      </trkpt>
      <trkpt lat="44.34042" lon="3.95177">
        <ele>456.28</ele>
        <time>2016-04-10T12:51:59Z</time>
      </trkpt>
      <trkpt lat="44.33878" lon="3.95244">
        <ele>455.32</ele>
        <time>2016-04-10T12:52:10Z</time>
      </trkpt>
      <trkpt lat="44.33865" lon="3.95243">
        <ele>453.4</ele>
        <time>2016-04-10T12:52:11Z</time>
      </trkpt>
      <trkpt lat="44.33851" lon="3.95239">
        <ele>451</ele>
        <time>2016-04-10T12:52:12Z</time>
      </trkpt>
      <trkpt lat="44.33839" lon="3.95233">
        <ele>451.48</ele>
        <time>2016-04-10T12:52:13Z</time>
      </trkpt>
      <trkpt lat="44.33826" lon="3.95228">
        <ele>451.48</ele>
        <time>2016-04-10T12:52:14Z</time>
      </trkpt>
      <trkpt lat="44.33811" lon="3.95233">
        <ele>449.55</ele>
        <time>2016-04-10T12:52:15Z</time>
      </trkpt>
      <trkpt lat="44.338" lon="3.9524">
        <ele>449.07</ele>
        <time>2016-04-10T12:52:16Z</time>
      </trkpt>
      <trkpt lat="44.3379" lon="3.9525">
        <ele>448.59</ele>
        <time>2016-04-10T12:52:17Z</time>
      </trkpt>
      <trkpt lat="44.3378" lon="3.95265">
        <ele>451</ele>
        <time>2016-04-10T12:52:18Z</time>
      </trkpt>
      <trkpt lat="44.33769" lon="3.95278">
        <ele>451.96</ele>
        <time>2016-04-10T12:52:19Z</time>
      </trkpt>
      <trkpt lat="44.33753" lon="3.9529">
        <ele>453.88</ele>
        <time>2016-04-10T12:52:20Z</time>
      </trkpt>
      <trkpt lat="44.33735" lon="3.95298">
        <ele>456.28</ele>
        <time>2016-04-10T12:52:21Z</time>
      </trkpt>
      <trkpt lat="44.33715" lon="3.95307">
        <ele>457.72</ele>
        <time>2016-04-10T12:52:22Z</time>
      </trkpt>
      <trkpt lat="44.33695" lon="3.95316">
        <ele>459.17</ele>
        <time>2016-04-10T12:52:23Z</time>
      </trkpt>
      <trkpt lat="44.33597" lon="3.95393">
        <ele>471.66</ele>
        <time>2016-04-10T12:52:29Z</time>
      </trkpt>
      <trkpt lat="44.33558" lon="3.9541">
        <ele>478.87</ele>
        <time>2016-04-10T12:52:34Z</time>
      </trkpt>
      <trkpt lat="44.33548" lon="3.95416">
        <ele>479.35</ele>
        <time>2016-04-10T12:52:36Z</time>
      </trkpt>
      <trkpt lat="44.33542" lon="3.95419">
        <ele>480.8</ele>
        <time>2016-04-10T12:52:37Z</time>
      </trkpt>
      <trkpt lat="44.33535" lon="3.9542">
        <ele>481.28</ele>
        <time>2016-04-10T12:52:38Z</time>
      </trkpt>
      <trkpt lat="44.33526" lon="3.95418">
        <ele>480.8</ele>
        <time>2016-04-10T12:52:39Z</time>
      </trkpt>
      <trkpt lat="44.33516" lon="3.95412">
        <ele>481.76</ele>
        <time>2016-04-10T12:52:40Z</time>
      </trkpt>
      <trkpt lat="44.33508" lon="3.95402">
        <ele>482.72</ele>
        <time>2016-04-10T12:52:41Z</time>
      </trkpt>
      <trkpt lat="44.33498" lon="3.9539">
        <ele>483.2</ele>
        <time>2016-04-10T12:52:42Z</time>
      </trkpt>
      <trkpt lat="44.33487" lon="3.95379">
        <ele>484.64</ele>
        <time>2016-04-10T12:52:43Z</time>
      </trkpt>
      <trkpt lat="44.33474" lon="3.95371">
        <ele>485.6</ele>
        <time>2016-04-10T12:52:44Z</time>
      </trkpt>
      <trkpt lat="44.33459" lon="3.95367">
        <ele>487.05</ele>
        <time>2016-04-10T12:52:45Z</time>
      </trkpt>
      <trkpt lat="44.33443" lon="3.95368">
        <ele>488.97</ele>
        <time>2016-04-10T12:52:46Z</time>
      </trkpt>
      <trkpt lat="44.33428" lon="3.95369">
        <ele>489.93</ele>
        <time>2016-04-10T12:52:47Z</time>
      </trkpt>
      <trkpt lat="44.33413" lon="3.95368">
        <ele>490.41</ele>
        <time>2016-04-10T12:52:48Z</time>
      </trkpt>
      <trkpt lat="44.33398" lon="3.95367">
        <ele>491.85</ele>
        <time>2016-04-10T12:52:49Z</time>
      </trkpt>
      <trkpt lat="44.33373" lon="3.95369">
        <ele>495.22</ele>
        <time>2016-04-10T12:52:51Z</time>
      </trkpt>
      <trkpt lat="44.33361" lon="3.95375">
        <ele>495.22</ele>
        <time>2016-04-10T12:52:52Z</time>
      </trkpt>
      <trkpt lat="44.33353" lon="3.95392">
        <ele>497.62</ele>
        <time>2016-04-10T12:52:53Z</time>
      </trkpt>
      <trkpt lat="44.33342" lon="3.95409">
        <ele>499.06</ele>
        <time>2016-04-10T12:52:54Z</time>
      </trkpt>
      <trkpt lat="44.33331" lon="3.95427">
        <ele>500.02</ele>
        <time>2016-04-10T12:52:55Z</time>
      </trkpt>
      <trkpt lat="44.3332" lon="3.95444">
        <ele>500.98</ele>
        <time>2016-04-10T12:52:56Z</time>
      </trkpt>
      <trkpt lat="44.33281" lon="3.95492">
        <ele>505.79</ele>
        <time>2016-04-10T12:53:00Z</time>
      </trkpt>
      <trkpt lat="44.33271" lon="3.95493">
        <ele>506.27</ele>
        <time>2016-04-10T12:53:01Z</time>
      </trkpt>
      <trkpt lat="44.3326" lon="3.95488">
        <ele>506.75</ele>
        <time>2016-04-10T12:53:02Z</time>
      </trkpt>
      <trkpt lat="44.33247" lon="3.95478">
        <ele>507.71</ele>
        <time>2016-04-10T12:53:03Z</time>
      </trkpt>
      <trkpt lat="44.33234" lon="3.95467">
        <ele>509.16</ele>
        <time>2016-04-10T12:53:04Z</time>
      </trkpt>
      <trkpt lat="44.3322" lon="3.95453">
        <ele>510.6</ele>
        <time>2016-04-10T12:53:05Z</time>
      </trkpt>
      <trkpt lat="44.33206" lon="3.95437">
        <ele>512.04</ele>
        <time>2016-04-10T12:53:06Z</time>
      </trkpt>
      <trkpt lat="44.33192" lon="3.95417">
        <ele>513.48</ele>
        <time>2016-04-10T12:53:07Z</time>
      </trkpt>
      <trkpt lat="44.3318" lon="3.95397">
        <ele>515.4</ele>
        <time>2016-04-10T12:53:08Z</time>
      </trkpt>
      <trkpt lat="44.33104" lon="3.95286">
        <ele>524.54</ele>
        <time>2016-04-10T12:53:14Z</time>
      </trkpt>
      <trkpt lat="44.33095" lon="3.95267">
        <ele>525.98</ele>
        <time>2016-04-10T12:53:15Z</time>
      </trkpt>
      <trkpt lat="44.33089" lon="3.95245">
        <ele>527.9</ele>
        <time>2016-04-10T12:53:16Z</time>
      </trkpt>
      <trkpt lat="44.33088" lon="3.952">
        <ele>531.75</ele>
        <time>2016-04-10T12:53:18Z</time>
      </trkpt>
      <trkpt lat="44.33097" lon="3.95181">
        <ele>533.19</ele>
        <time>2016-04-10T12:53:19Z</time>
      </trkpt>
      <trkpt lat="44.33108" lon="3.95161">
        <ele>535.11</ele>
        <time>2016-04-10T12:53:20Z</time>
      </trkpt>
      <trkpt lat="44.33124" lon="3.95147">
        <ele>536.07</ele>
        <time>2016-04-10T12:53:21Z</time>
      </trkpt>
      <trkpt lat="44.3314" lon="3.95129">
        <ele>537.99</ele>
        <time>2016-04-10T12:53:22Z</time>
      </trkpt>
      <trkpt lat="44.33156" lon="3.95111">
        <ele>539.44</ele>
        <time>2016-04-10T12:53:23Z</time>
      </trkpt>
      <trkpt lat="44.33203" lon="3.95051">
        <ele>540.88</ele>
        <time>2016-04-10T12:53:26Z</time>
      </trkpt>
      <trkpt lat="44.33216" lon="3.95027">
        <ele>541.36</ele>
        <time>2016-04-10T12:53:27Z</time>
      </trkpt>
      <trkpt lat="44.33283" lon="3.9491">
        <ele>544.72</ele>
        <time>2016-04-10T12:53:32Z</time>
      </trkpt>
      <trkpt lat="44.33293" lon="3.94886">
        <ele>545.2</ele>
        <time>2016-04-10T12:53:33Z</time>
      </trkpt>
      <trkpt lat="44.33301" lon="3.9486">
        <ele>546.17</ele>
        <time>2016-04-10T12:53:34Z</time>
      </trkpt>
      <trkpt lat="44.33307" lon="3.94833">
        <ele>546.65</ele>
        <time>2016-04-10T12:53:35Z</time>
      </trkpt>
      <trkpt lat="44.33312" lon="3.94807">
        <ele>547.61</ele>
        <time>2016-04-10T12:53:36Z</time>
      </trkpt>
      <trkpt lat="44.33318" lon="3.94741">
        <ele>550.01</ele>
        <time>2016-04-10T12:53:39Z</time>
      </trkpt>
      <trkpt lat="44.33312" lon="3.94721">
        <ele>550.01</ele>
        <time>2016-04-10T12:53:40Z</time>
      </trkpt>
      <trkpt lat="44.33302" lon="3.94701">
        <ele>550.49</ele>
        <time>2016-04-10T12:53:41Z</time>
      </trkpt>
      <trkpt lat="44.33291" lon="3.9468">
        <ele>551.45</ele>
        <time>2016-04-10T12:53:42Z</time>
      </trkpt>
      <trkpt lat="44.33279" lon="3.9466">
        <ele>551.93</ele>
        <time>2016-04-10T12:53:43Z</time>
      </trkpt>
      <trkpt lat="44.33269" lon="3.94638">
        <ele>552.9</ele>
        <time>2016-04-10T12:53:44Z</time>
      </trkpt>
      <trkpt lat="44.33262" lon="3.94615">
        <ele>553.38</ele>
        <time>2016-04-10T12:53:45Z</time>
      </trkpt>
      <trkpt lat="44.33257" lon="3.94589">
        <ele>554.34</ele>
        <time>2016-04-10T12:53:46Z</time>
      </trkpt>
      <trkpt lat="44.33256" lon="3.94563">
        <ele>554.82</ele>
        <time>2016-04-10T12:53:47Z</time>
      </trkpt>
      <trkpt lat="44.33259" lon="3.94536">
        <ele>555.78</ele>
        <time>2016-04-10T12:53:48Z</time>
      </trkpt>
      <trkpt lat="44.33264" lon="3.9451">
        <ele>557.22</ele>
        <time>2016-04-10T12:53:49Z</time>
      </trkpt>
      <trkpt lat="44.33271" lon="3.94487">
        <ele>558.18</ele>
        <time>2016-04-10T12:53:50Z</time>
      </trkpt>
      <trkpt lat="44.33278" lon="3.94465">
        <ele>559.14</ele>
        <time>2016-04-10T12:53:51Z</time>
      </trkpt>
      <trkpt lat="44.3329" lon="3.94428">
        <ele>561.07</ele>
        <time>2016-04-10T12:53:53Z</time>
      </trkpt>
      <trkpt lat="44.33291" lon="3.9441">
        <ele>561.55</ele>
        <time>2016-04-10T12:53:54Z</time>
      </trkpt>
      <trkpt lat="44.33288" lon="3.9439">
        <ele>562.03</ele>
        <time>2016-04-10T12:53:55Z</time>
      </trkpt>
      <trkpt lat="44.3328" lon="3.94368">
        <ele>562.99</ele>
        <time>2016-04-10T12:53:56Z</time>
      </trkpt>
      <trkpt lat="44.33269" lon="3.94344">
        <ele>563.95</ele>
        <time>2016-04-10T12:53:57Z</time>
      </trkpt>
      <trkpt lat="44.33256" lon="3.9432">
        <ele>564.43</ele>
        <time>2016-04-10T12:53:58Z</time>
      </trkpt>
      <trkpt lat="44.33241" lon="3.94296">
        <ele>565.87</ele>
        <time>2016-04-10T12:53:59Z</time>
      </trkpt>
      <trkpt lat="44.33224" lon="3.94274">
        <ele>566.83</ele>
        <time>2016-04-10T12:54:00Z</time>
      </trkpt>
      <trkpt lat="44.33207" lon="3.94254">
        <ele>568.28</ele>
        <time>2016-04-10T12:54:01Z</time>
      </trkpt>
      <trkpt lat="44.3319" lon="3.94233">
        <ele>568.76</ele>
        <time>2016-04-10T12:54:02Z</time>
      </trkpt>
      <trkpt lat="44.33143" lon="3.9415">
        <ele>571.64</ele>
        <time>2016-04-10T12:54:06Z</time>
      </trkpt>
      <trkpt lat="44.3314" lon="3.94129">
        <ele>572.6</ele>
        <time>2016-04-10T12:54:07Z</time>
      </trkpt>
      <trkpt lat="44.3314" lon="3.94105">
        <ele>573.56</ele>
        <time>2016-04-10T12:54:08Z</time>
      </trkpt>
      <trkpt lat="44.33146" lon="3.94081">
        <ele>575.01</ele>
        <time>2016-04-10T12:54:09Z</time>
      </trkpt>
      <trkpt lat="44.33152" lon="3.94054">
        <ele>575.97</ele>
        <time>2016-04-10T12:54:10Z</time>
      </trkpt>
      <trkpt lat="44.33163" lon="3.94028">
        <ele>575.97</ele>
        <time>2016-04-10T12:54:11Z</time>
      </trkpt>
      <trkpt lat="44.33177" lon="3.93999">
        <ele>575.97</ele>
        <time>2016-04-10T12:54:12Z</time>
      </trkpt>
      <trkpt lat="44.3319" lon="3.93974">
        <ele>575.97</ele>
        <time>2016-04-10T12:54:13Z</time>
      </trkpt>
      <trkpt lat="44.33205" lon="3.93953">
        <ele>576.45</ele>
        <time>2016-04-10T12:54:14Z</time>
      </trkpt>
      <trkpt lat="44.33216" lon="3.93934">
        <ele>576.93</ele>
        <time>2016-04-10T12:54:15Z</time>
      </trkpt>
      <trkpt lat="44.33225" lon="3.93917">
        <ele>576.93</ele>
        <time>2016-04-10T12:54:16Z</time>
      </trkpt>
      <trkpt lat="44.33229" lon="3.93897">
        <ele>575.97</ele>
        <time>2016-04-10T12:54:17Z</time>
      </trkpt>
      <trkpt lat="44.33228" lon="3.9387">
        <ele>576.45</ele>
        <time>2016-04-10T12:54:18Z</time>
      </trkpt>
      <trkpt lat="44.33233" lon="3.93729">
        <ele>581.25</ele>
        <time>2016-04-10T12:54:23Z</time>
      </trkpt>
      <trkpt lat="44.3323" lon="3.93709">
        <ele>581.73</ele>
        <time>2016-04-10T12:54:24Z</time>
      </trkpt>
      <trkpt lat="44.33223" lon="3.93689">
        <ele>582.22</ele>
        <time>2016-04-10T12:54:25Z</time>
      </trkpt>
      <trkpt lat="44.33213" lon="3.93667">
        <ele>582.7</ele>
        <time>2016-04-10T12:54:26Z</time>
      </trkpt>
      <trkpt lat="44.33199" lon="3.93643">
        <ele>583.18</ele>
        <time>2016-04-10T12:54:27Z</time>
      </trkpt>
      <trkpt lat="44.33187" lon="3.93617">
        <ele>584.14</ele>
        <time>2016-04-10T12:54:28Z</time>
      </trkpt>
      <trkpt lat="44.33177" lon="3.93589">
        <ele>585.1</ele>
        <time>2016-04-10T12:54:29Z</time>
      </trkpt>
      <trkpt lat="44.33169" lon="3.93562">
        <ele>586.54</ele>
        <time>2016-04-10T12:54:30Z</time>
      </trkpt>
      <trkpt lat="44.33161" lon="3.9346">
        <ele>587.5</ele>
        <time>2016-04-10T12:54:34Z</time>
      </trkpt>
      <trkpt lat="44.33164" lon="3.93436">
        <ele>587.5</ele>
        <time>2016-04-10T12:54:35Z</time>
      </trkpt>
      <trkpt lat="44.33161" lon="3.93378">
        <ele>587.5</ele>
        <time>2016-04-10T12:54:38Z</time>
      </trkpt>
      <trkpt lat="44.33152" lon="3.93357">
        <ele>587.5</ele>
        <time>2016-04-10T12:54:39Z</time>
      </trkpt>
      <trkpt lat="44.33141" lon="3.93335">
        <ele>587.5</ele>
        <time>2016-04-10T12:54:40Z</time>
      </trkpt>
      <trkpt lat="44.331" lon="3.93193">
        <ele>589.91</ele>
        <time>2016-04-10T12:54:47Z</time>
      </trkpt>
      <trkpt lat="44.33099" lon="3.93175">
        <ele>589.43</ele>
        <time>2016-04-10T12:54:48Z</time>
      </trkpt>
      <trkpt lat="44.33099" lon="3.93157">
        <ele>588.95</ele>
        <time>2016-04-10T12:54:49Z</time>
      </trkpt>
      <trkpt lat="44.33112" lon="3.93061">
        <ele>586.54</ele>
        <time>2016-04-10T12:54:54Z</time>
      </trkpt>
      <trkpt lat="44.33118" lon="3.93042">
        <ele>586.54</ele>
        <time>2016-04-10T12:54:55Z</time>
      </trkpt>
      <trkpt lat="44.33168" lon="3.92927">
        <ele>583.66</ele>
        <time>2016-04-10T12:55:02Z</time>
      </trkpt>
      <trkpt lat="44.33173" lon="3.92909">
        <ele>583.66</ele>
        <time>2016-04-10T12:55:03Z</time>
      </trkpt>
      <trkpt lat="44.33175" lon="3.9289">
        <ele>583.18</ele>
        <time>2016-04-10T12:55:04Z</time>
      </trkpt>
      <trkpt lat="44.33175" lon="3.9287">
        <ele>582.22</ele>
        <time>2016-04-10T12:55:05Z</time>
      </trkpt>
      <trkpt lat="44.33175" lon="3.9285">
        <ele>581.25</ele>
        <time>2016-04-10T12:55:06Z</time>
      </trkpt>
      <trkpt lat="44.33177" lon="3.9283">
        <ele>580.29</ele>
        <time>2016-04-10T12:55:07Z</time>
      </trkpt>
      <trkpt lat="44.33182" lon="3.92811">
        <ele>579.33</ele>
        <time>2016-04-10T12:55:08Z</time>
      </trkpt>
      <trkpt lat="44.33189" lon="3.92793">
        <ele>577.89</ele>
        <time>2016-04-10T12:55:09Z</time>
      </trkpt>
      <trkpt lat="44.33197" lon="3.92775">
        <ele>576.93</ele>
        <time>2016-04-10T12:55:10Z</time>
      </trkpt>
      <trkpt lat="44.33207" lon="3.92759">
        <ele>575.97</ele>
        <time>2016-04-10T12:55:11Z</time>
      </trkpt>
      <trkpt lat="44.33218" lon="3.92745">
        <ele>575.01</ele>
        <time>2016-04-10T12:55:12Z</time>
      </trkpt>
      <trkpt lat="44.3323" lon="3.92734">
        <ele>574.53</ele>
        <time>2016-04-10T12:55:13Z</time>
      </trkpt>
      <trkpt lat="44.33241" lon="3.92723">
        <ele>574.04</ele>
        <time>2016-04-10T12:55:14Z</time>
      </trkpt>
      <trkpt lat="44.33259" lon="3.92702">
        <ele>572.6</ele>
        <time>2016-04-10T12:55:16Z</time>
      </trkpt>
      <trkpt lat="44.33261" lon="3.92691">
        <ele>571.16</ele>
        <time>2016-04-10T12:55:17Z</time>
      </trkpt>
      <trkpt lat="44.33261" lon="3.92677">
        <ele>570.2</ele>
        <time>2016-04-10T12:55:18Z</time>
      </trkpt>
      <trkpt lat="44.33255" lon="3.92662">
        <ele>569.24</ele>
        <time>2016-04-10T12:55:19Z</time>
      </trkpt>
      <trkpt lat="44.33247" lon="3.92646">
        <ele>567.32</ele>
        <time>2016-04-10T12:55:20Z</time>
      </trkpt>
      <trkpt lat="44.33239" lon="3.92633">
        <ele>565.87</ele>
        <time>2016-04-10T12:55:21Z</time>
      </trkpt>
      <trkpt lat="44.33229" lon="3.92623">
        <ele>566.83</ele>
        <time>2016-04-10T12:55:22Z</time>
      </trkpt>
      <trkpt lat="44.33222" lon="3.92618">
        <ele>565.87</ele>
        <time>2016-04-10T12:55:23Z</time>
      </trkpt>
      <trkpt lat="44.33214" lon="3.92613">
        <ele>565.39</ele>
        <time>2016-04-10T12:55:24Z</time>
      </trkpt>
      <trkpt lat="44.3319" lon="3.92594">
        <ele>562.03</ele>
        <time>2016-04-10T12:55:30Z</time>
      </trkpt>
      <trkpt lat="44.33186" lon="3.92588">
        <ele>561.07</ele>
        <time>2016-04-10T12:55:31Z</time>
      </trkpt>
      <trkpt lat="44.33181" lon="3.92581">
        <ele>560.59</ele>
        <time>2016-04-10T12:55:32Z</time>
      </trkpt>
      <trkpt lat="44.33175" lon="3.9257">
        <ele>560.11</ele>
        <time>2016-04-10T12:55:33Z</time>
      </trkpt>
      <trkpt lat="44.33169" lon="3.92558">
        <ele>559.62</ele>
        <time>2016-04-10T12:55:34Z</time>
      </trkpt>
      <trkpt lat="44.33163" lon="3.92545">
        <ele>559.62</ele>
        <time>2016-04-10T12:55:35Z</time>
      </trkpt>
      <trkpt lat="44.33112" lon="3.92433">
        <ele>554.34</ele>
        <time>2016-04-10T12:55:44Z</time>
      </trkpt>
      <trkpt lat="44.3311" lon="3.9242">
        <ele>553.38</ele>
        <time>2016-04-10T12:55:45Z</time>
      </trkpt>
      <trkpt lat="44.33109" lon="3.92406">
        <ele>552.9</ele>
        <time>2016-04-10T12:55:46Z</time>
      </trkpt>
      <trkpt lat="44.33111" lon="3.92391">
        <ele>551.93</ele>
        <time>2016-04-10T12:55:47Z</time>
      </trkpt>
      <trkpt lat="44.33113" lon="3.92375">
        <ele>551.45</ele>
        <time>2016-04-10T12:55:48Z</time>
      </trkpt>
      <trkpt lat="44.33117" lon="3.92359">
        <ele>550.49</ele>
        <time>2016-04-10T12:55:49Z</time>
      </trkpt>
      <trkpt lat="44.33123" lon="3.92343">
        <ele>549.53</ele>
        <time>2016-04-10T12:55:50Z</time>
      </trkpt>
      <trkpt lat="44.33131" lon="3.92327">
        <ele>549.53</ele>
        <time>2016-04-10T12:55:51Z</time>
      </trkpt>
      <trkpt lat="44.33141" lon="3.92312">
        <ele>549.05</ele>
        <time>2016-04-10T12:55:52Z</time>
      </trkpt>
      <trkpt lat="44.33151" lon="3.92298">
        <ele>549.05</ele>
        <time>2016-04-10T12:55:53Z</time>
      </trkpt>
      <trkpt lat="44.33216" lon="3.92215">
        <ele>547.13</ele>
        <time>2016-04-10T12:56:00Z</time>
      </trkpt>
      <trkpt lat="44.33221" lon="3.92206">
        <ele>547.13</ele>
        <time>2016-04-10T12:56:01Z</time>
      </trkpt>
      <trkpt lat="44.33223" lon="3.92196">
        <ele>546.65</ele>
        <time>2016-04-10T12:56:02Z</time>
      </trkpt>
      <trkpt lat="44.33218" lon="3.92187">
        <ele>546.17</ele>
        <time>2016-04-10T12:56:03Z</time>
      </trkpt>
      <trkpt lat="44.33205" lon="3.9218">
        <ele>546.17</ele>
        <time>2016-04-10T12:56:04Z</time>
      </trkpt>
      <trkpt lat="44.33192" lon="3.92175">
        <ele>545.69</ele>
        <time>2016-04-10T12:56:05Z</time>
      </trkpt>
      <trkpt lat="44.33177" lon="3.92172">
        <ele>544.72</ele>
        <time>2016-04-10T12:56:06Z</time>
      </trkpt>
      <trkpt lat="44.33165" lon="3.92164">
        <ele>544.24</ele>
        <time>2016-04-10T12:56:07Z</time>
      </trkpt>
      <trkpt lat="44.33153" lon="3.92154">
        <ele>544.24</ele>
        <time>2016-04-10T12:56:08Z</time>
      </trkpt>
      <trkpt lat="44.33143" lon="3.9214">
        <ele>544.24</ele>
        <time>2016-04-10T12:56:09Z</time>
      </trkpt>
      <trkpt lat="44.33133" lon="3.92127">
        <ele>543.76</ele>
        <time>2016-04-10T12:56:10Z</time>
      </trkpt>
      <trkpt lat="44.33112" lon="3.92105">
        <ele>542.8</ele>
        <time>2016-04-10T12:56:12Z</time>
      </trkpt>
      <trkpt lat="44.331" lon="3.92096">
        <ele>542.8</ele>
        <time>2016-04-10T12:56:13Z</time>
      </trkpt>
      <trkpt lat="44.33087" lon="3.92089">
        <ele>542.32</ele>
        <time>2016-04-10T12:56:14Z</time>
      </trkpt>
      <trkpt lat="44.33049" lon="3.92073">
        <ele>542.32</ele>
        <time>2016-04-10T12:56:17Z</time>
      </trkpt>
      <trkpt lat="44.33037" lon="3.92065">
        <ele>542.8</ele>
        <time>2016-04-10T12:56:18Z</time>
      </trkpt>
      <trkpt lat="44.33027" lon="3.92053">
        <ele>542.8</ele>
        <time>2016-04-10T12:56:19Z</time>
      </trkpt>
      <trkpt lat="44.33019" lon="3.92038">
        <ele>542.32</ele>
        <time>2016-04-10T12:56:20Z</time>
      </trkpt>
      <trkpt lat="44.33012" lon="3.9202">
        <ele>541.84</ele>
        <time>2016-04-10T12:56:21Z</time>
      </trkpt>
      <trkpt lat="44.33007" lon="3.92">
        <ele>541.36</ele>
        <time>2016-04-10T12:56:22Z</time>
      </trkpt>
      <trkpt lat="44.33002" lon="3.91978">
        <ele>540.88</ele>
        <time>2016-04-10T12:56:23Z</time>
      </trkpt>
      <trkpt lat="44.32998" lon="3.91954">
        <ele>540.4</ele>
        <time>2016-04-10T12:56:24Z</time>
      </trkpt>
      <trkpt lat="44.32995" lon="3.91928">
        <ele>538.48</ele>
        <time>2016-04-10T12:56:25Z</time>
      </trkpt>
      <trkpt lat="44.32991" lon="3.91823">
        <ele>535.59</ele>
        <time>2016-04-10T12:56:29Z</time>
      </trkpt>
      <trkpt lat="44.32987" lon="3.91797">
        <ele>535.59</ele>
        <time>2016-04-10T12:56:30Z</time>
      </trkpt>
      <trkpt lat="44.32969" lon="3.91566">
        <ele>542.32</ele>
        <time>2016-04-10T12:56:38Z</time>
      </trkpt>
      <trkpt lat="44.32984" lon="3.91422">
        <ele>548.09</ele>
        <time>2016-04-10T12:56:44Z</time>
      </trkpt>
      <trkpt lat="44.32984" lon="3.91404">
        <ele>548.57</ele>
        <time>2016-04-10T12:56:45Z</time>
      </trkpt>
      <trkpt lat="44.32982" lon="3.91385">
        <ele>549.05</ele>
        <time>2016-04-10T12:56:46Z</time>
      </trkpt>
      <trkpt lat="44.32979" lon="3.91367">
        <ele>550.01</ele>
        <time>2016-04-10T12:56:47Z</time>
      </trkpt>
      <trkpt lat="44.32975" lon="3.91348">
        <ele>550.01</ele>
        <time>2016-04-10T12:56:48Z</time>
      </trkpt>
      <trkpt lat="44.3297" lon="3.9133">
        <ele>549.53</ele>
        <time>2016-04-10T12:56:49Z</time>
      </trkpt>
      <trkpt lat="44.3296" lon="3.91312">
        <ele>550.01</ele>
        <time>2016-04-10T12:56:50Z</time>
      </trkpt>
      <trkpt lat="44.3295" lon="3.91298">
        <ele>550.49</ele>
        <time>2016-04-10T12:56:51Z</time>
      </trkpt>
      <trkpt lat="44.32936" lon="3.91284">
        <ele>550.49</ele>
        <time>2016-04-10T12:56:52Z</time>
      </trkpt>
      <trkpt lat="44.32922" lon="3.91271">
        <ele>550.01</ele>
        <time>2016-04-10T12:56:53Z</time>
      </trkpt>
      <trkpt lat="44.3291" lon="3.91257">
        <ele>550.49</ele>
        <time>2016-04-10T12:56:54Z</time>
      </trkpt>
      <trkpt lat="44.329" lon="3.9124">
        <ele>550.97</ele>
        <time>2016-04-10T12:56:55Z</time>
      </trkpt>
      <trkpt lat="44.32891" lon="3.91222">
        <ele>551.93</ele>
        <time>2016-04-10T12:56:56Z</time>
      </trkpt>
      <trkpt lat="44.32884" lon="3.91203">
        <ele>552.9</ele>
        <time>2016-04-10T12:56:57Z</time>
      </trkpt>
      <trkpt lat="44.32879" lon="3.91182">
        <ele>552.9</ele>
        <time>2016-04-10T12:56:58Z</time>
      </trkpt>
      <trkpt lat="44.32875" lon="3.91161">
        <ele>553.38</ele>
        <time>2016-04-10T12:56:59Z</time>
      </trkpt>
      <trkpt lat="44.32872" lon="3.91138">
        <ele>553.38</ele>
        <time>2016-04-10T12:57:00Z</time>
      </trkpt>
      <trkpt lat="44.3287" lon="3.91116">
        <ele>553.38</ele>
        <time>2016-04-10T12:57:01Z</time>
      </trkpt>
      <trkpt lat="44.32869" lon="3.91093">
        <ele>553.38</ele>
        <time>2016-04-10T12:57:02Z</time>
      </trkpt>
      <trkpt lat="44.3287" lon="3.91068">
        <ele>552.9</ele>
        <time>2016-04-10T12:57:03Z</time>
      </trkpt>
      <trkpt lat="44.32872" lon="3.91043">
        <ele>551.93</ele>
        <time>2016-04-10T12:57:04Z</time>
      </trkpt>
      <trkpt lat="44.32876" lon="3.91018">
        <ele>551.93</ele>
        <time>2016-04-10T12:57:05Z</time>
      </trkpt>
      <trkpt lat="44.32881" lon="3.90994">
        <ele>551.45</ele>
        <time>2016-04-10T12:57:06Z</time>
      </trkpt>
      <trkpt lat="44.32909" lon="3.90851">
        <ele>548.09</ele>
        <time>2016-04-10T12:57:13Z</time>
      </trkpt>
      <trkpt lat="44.32915" lon="3.90833">
        <ele>547.61</ele>
        <time>2016-04-10T12:57:14Z</time>
      </trkpt>
      <trkpt lat="44.32923" lon="3.90815">
        <ele>547.13</ele>
        <time>2016-04-10T12:57:15Z</time>
      </trkpt>
      <trkpt lat="44.32932" lon="3.90797">
        <ele>546.65</ele>
        <time>2016-04-10T12:57:16Z</time>
      </trkpt>
      <trkpt lat="44.32942" lon="3.9078">
        <ele>546.17</ele>
        <time>2016-04-10T12:57:17Z</time>
      </trkpt>
      <trkpt lat="44.32953" lon="3.90763">
        <ele>545.69</ele>
        <time>2016-04-10T12:57:18Z</time>
      </trkpt>
      <trkpt lat="44.32987" lon="3.90723">
        <ele>544.72</ele>
        <time>2016-04-10T12:57:21Z</time>
      </trkpt>
      <trkpt lat="44.33002" lon="3.90717">
        <ele>544.72</ele>
        <time>2016-04-10T12:57:22Z</time>
      </trkpt>
      <trkpt lat="44.33017" lon="3.90716">
        <ele>544.72</ele>
        <time>2016-04-10T12:57:23Z</time>
      </trkpt>
      <trkpt lat="44.33033" lon="3.90719">
        <ele>544.72</ele>
        <time>2016-04-10T12:57:24Z</time>
      </trkpt>
      <trkpt lat="44.33048" lon="3.90724">
        <ele>545.2</ele>
        <time>2016-04-10T12:57:25Z</time>
      </trkpt>
      <trkpt lat="44.33064" lon="3.90733">
        <ele>544.24</ele>
        <time>2016-04-10T12:57:26Z</time>
      </trkpt>
      <trkpt lat="44.33078" lon="3.90738">
        <ele>544.24</ele>
        <time>2016-04-10T12:57:27Z</time>
      </trkpt>
      <trkpt lat="44.33091" lon="3.90739">
        <ele>543.76</ele>
        <time>2016-04-10T12:57:28Z</time>
      </trkpt>
      <trkpt lat="44.33103" lon="3.90734">
        <ele>543.76</ele>
        <time>2016-04-10T12:57:29Z</time>
      </trkpt>
      <trkpt lat="44.33115" lon="3.9073">
        <ele>543.28</ele>
        <time>2016-04-10T12:57:30Z</time>
      </trkpt>
      <trkpt lat="44.33127" lon="3.90724">
        <ele>542.8</ele>
        <time>2016-04-10T12:57:31Z</time>
      </trkpt>
      <trkpt lat="44.33215" lon="3.90682">
        <ele>540.4</ele>
        <time>2016-04-10T12:57:40Z</time>
      </trkpt>
      <trkpt lat="44.33314" lon="3.90682">
        <ele>535.59</ele>
        <time>2016-04-10T12:57:47Z</time>
      </trkpt>
      <trkpt lat="44.33445" lon="3.9068">
        <ele>533.67</ele>
        <time>2016-04-10T12:57:55Z</time>
      </trkpt>
      <trkpt lat="44.33458" lon="3.90684">
        <ele>534.15</ele>
        <time>2016-04-10T12:57:56Z</time>
      </trkpt>
      <trkpt lat="44.3347" lon="3.90689">
        <ele>535.11</ele>
        <time>2016-04-10T12:57:57Z</time>
      </trkpt>
      <trkpt lat="44.3349" lon="3.90689">
        <ele>535.11</ele>
        <time>2016-04-10T12:57:59Z</time>
      </trkpt>
      <trkpt lat="44.33494" lon="3.90679">
        <ele>534.15</ele>
        <time>2016-04-10T12:58:00Z</time>
      </trkpt>
      <trkpt lat="44.33496" lon="3.90665">
        <ele>534.15</ele>
        <time>2016-04-10T12:58:01Z</time>
      </trkpt>
      <trkpt lat="44.33492" lon="3.90649">
        <ele>533.67</ele>
        <time>2016-04-10T12:58:02Z</time>
      </trkpt>
      <trkpt lat="44.33484" lon="3.90634">
        <ele>533.19</ele>
        <time>2016-04-10T12:58:03Z</time>
      </trkpt>
      <trkpt lat="44.33474" lon="3.90617">
        <ele>533.67</ele>
        <time>2016-04-10T12:58:04Z</time>
      </trkpt>
      <trkpt lat="44.33463" lon="3.90602">
        <ele>534.15</ele>
        <time>2016-04-10T12:58:05Z</time>
      </trkpt>
      <trkpt lat="44.33453" lon="3.90587">
        <ele>534.15</ele>
        <time>2016-04-10T12:58:06Z</time>
      </trkpt>
      <trkpt lat="44.33443" lon="3.90575">
        <ele>533.67</ele>
        <time>2016-04-10T12:58:07Z</time>
      </trkpt>
      <trkpt lat="44.33433" lon="3.90565">
        <ele>533.67</ele>
        <time>2016-04-10T12:58:08Z</time>
      </trkpt>
      <trkpt lat="44.33421" lon="3.90557">
        <ele>534.15</ele>
        <time>2016-04-10T12:58:09Z</time>
      </trkpt>
      <trkpt lat="44.3341" lon="3.90547">
        <ele>534.15</ele>
        <time>2016-04-10T12:58:10Z</time>
      </trkpt>
      <trkpt lat="44.33401" lon="3.90533">
        <ele>534.63</ele>
        <time>2016-04-10T12:58:11Z</time>
      </trkpt>
      <trkpt lat="44.33392" lon="3.90519">
        <ele>535.11</ele>
        <time>2016-04-10T12:58:12Z</time>
      </trkpt>
      <trkpt lat="44.33381" lon="3.90507">
        <ele>536.07</ele>
        <time>2016-04-10T12:58:13Z</time>
      </trkpt>
      <trkpt lat="44.33368" lon="3.90498">
        <ele>536.55</ele>
        <time>2016-04-10T12:58:14Z</time>
      </trkpt>
      <trkpt lat="44.33357" lon="3.9049">
        <ele>537.03</ele>
        <time>2016-04-10T12:58:15Z</time>
      </trkpt>
      <trkpt lat="44.33348" lon="3.90481">
        <ele>537.51</ele>
        <time>2016-04-10T12:58:16Z</time>
      </trkpt>
      <trkpt lat="44.33341" lon="3.90469">
        <ele>537.99</ele>
        <time>2016-04-10T12:58:17Z</time>
      </trkpt>
      <trkpt lat="44.33337" lon="3.90457">
        <ele>538.96</ele>
        <time>2016-04-10T12:58:18Z</time>
      </trkpt>
      <trkpt lat="44.33335" lon="3.90444">
        <ele>539.92</ele>
        <time>2016-04-10T12:58:19Z</time>
      </trkpt>
      <trkpt lat="44.33339" lon="3.90431">
        <ele>541.84</ele>
        <time>2016-04-10T12:58:20Z</time>
      </trkpt>
      <trkpt lat="44.33347" lon="3.9042">
        <ele>543.76</ele>
        <time>2016-04-10T12:58:21Z</time>
      </trkpt>
      <trkpt lat="44.3336" lon="3.90412">
        <ele>544.24</ele>
        <time>2016-04-10T12:58:22Z</time>
      </trkpt>
      <trkpt lat="44.33373" lon="3.90401">
        <ele>544.72</ele>
        <time>2016-04-10T12:58:23Z</time>
      </trkpt>
      <trkpt lat="44.33386" lon="3.9039">
        <ele>545.2</ele>
        <time>2016-04-10T12:58:24Z</time>
      </trkpt>
      <trkpt lat="44.33399" lon="3.90379">
        <ele>546.17</ele>
        <time>2016-04-10T12:58:25Z</time>
      </trkpt>
      <trkpt lat="44.33414" lon="3.90369">
        <ele>546.65</ele>
        <time>2016-04-10T12:58:26Z</time>
      </trkpt>
      <trkpt lat="44.33544" lon="3.90299">
        <ele>556.74</ele>
        <time>2016-04-10T12:58:34Z</time>
      </trkpt>
      <trkpt lat="44.33583" lon="3.90288">
        <ele>560.59</ele>
        <time>2016-04-10T12:58:37Z</time>
      </trkpt>
      <trkpt lat="44.33598" lon="3.90292">
        <ele>562.03</ele>
        <time>2016-04-10T12:58:38Z</time>
      </trkpt>
      <trkpt lat="44.33612" lon="3.90298">
        <ele>562.99</ele>
        <time>2016-04-10T12:58:39Z</time>
      </trkpt>
      <trkpt lat="44.33625" lon="3.90305">
        <ele>563.95</ele>
        <time>2016-04-10T12:58:40Z</time>
      </trkpt>
      <trkpt lat="44.33637" lon="3.90315">
        <ele>564.91</ele>
        <time>2016-04-10T12:58:41Z</time>
      </trkpt>
      <trkpt lat="44.33649" lon="3.90326">
        <ele>565.87</ele>
        <time>2016-04-10T12:58:42Z</time>
      </trkpt>
      <trkpt lat="44.3366" lon="3.90335">
        <ele>566.83</ele>
        <time>2016-04-10T12:58:43Z</time>
      </trkpt>
      <trkpt lat="44.33673" lon="3.90344">
        <ele>567.32</ele>
        <time>2016-04-10T12:58:44Z</time>
      </trkpt>
      <trkpt lat="44.33687" lon="3.90344">
        <ele>568.28</ele>
        <time>2016-04-10T12:58:45Z</time>
      </trkpt>
      <trkpt lat="44.33701" lon="3.90343">
        <ele>568.76</ele>
        <time>2016-04-10T12:58:46Z</time>
      </trkpt>
      <trkpt lat="44.33714" lon="3.90343">
        <ele>569.72</ele>
        <time>2016-04-10T12:58:47Z</time>
      </trkpt>
      <trkpt lat="44.33732" lon="3.90343">
        <ele>570.2</ele>
        <time>2016-04-10T12:58:49Z</time>
      </trkpt>
      <trkpt lat="44.33737" lon="3.90338">
        <ele>569.24</ele>
        <time>2016-04-10T12:58:50Z</time>
      </trkpt>
      <trkpt lat="44.33741" lon="3.90325">
        <ele>569.72</ele>
        <time>2016-04-10T12:58:51Z</time>
      </trkpt>
      <trkpt lat="44.33741" lon="3.90308">
        <ele>570.2</ele>
        <time>2016-04-10T12:58:52Z</time>
      </trkpt>
      <trkpt lat="44.33739" lon="3.90289">
        <ele>571.16</ele>
        <time>2016-04-10T12:58:53Z</time>
      </trkpt>
      <trkpt lat="44.33741" lon="3.90272">
        <ele>572.12</ele>
        <time>2016-04-10T12:58:54Z</time>
      </trkpt>
      <trkpt lat="44.33746" lon="3.90256">
        <ele>572.12</ele>
        <time>2016-04-10T12:58:55Z</time>
      </trkpt>
      <trkpt lat="44.33754" lon="3.90243">
        <ele>573.08</ele>
        <time>2016-04-10T12:58:56Z</time>
      </trkpt>
      <trkpt lat="44.33764" lon="3.90234">
        <ele>574.04</ele>
        <time>2016-04-10T12:58:57Z</time>
      </trkpt>
      <trkpt lat="44.33772" lon="3.90223">
        <ele>574.04</ele>
        <time>2016-04-10T12:58:58Z</time>
      </trkpt>
      <trkpt lat="44.33777" lon="3.90206">
        <ele>574.53</ele>
        <time>2016-04-10T12:58:59Z</time>
      </trkpt>
      <trkpt lat="44.33781" lon="3.90188">
        <ele>574.53</ele>
        <time>2016-04-10T12:59:00Z</time>
      </trkpt>
      <trkpt lat="44.33782" lon="3.90168">
        <ele>575.01</ele>
        <time>2016-04-10T12:59:01Z</time>
      </trkpt>
      <trkpt lat="44.33783" lon="3.90148">
        <ele>575.49</ele>
        <time>2016-04-10T12:59:02Z</time>
      </trkpt>
      <trkpt lat="44.33782" lon="3.90131">
        <ele>575.97</ele>
        <time>2016-04-10T12:59:03Z</time>
      </trkpt>
      <trkpt lat="44.3378" lon="3.90115">
        <ele>576.45</ele>
        <time>2016-04-10T12:59:04Z</time>
      </trkpt>
      <trkpt lat="44.33774" lon="3.90105">
        <ele>576.45</ele>
        <time>2016-04-10T12:59:05Z</time>
      </trkpt>
      <trkpt lat="44.33762" lon="3.90097">
        <ele>576.45</ele>
        <time>2016-04-10T12:59:06Z</time>
      </trkpt>
      <trkpt lat="44.3375" lon="3.90093">
        <ele>576.93</ele>
        <time>2016-04-10T12:59:07Z</time>
      </trkpt>
      <trkpt lat="44.33736" lon="3.90089">
        <ele>577.41</ele>
        <time>2016-04-10T12:59:08Z</time>
      </trkpt>
      <trkpt lat="44.33723" lon="3.90083">
        <ele>577.89</ele>
        <time>2016-04-10T12:59:09Z</time>
      </trkpt>
      <trkpt lat="44.3371" lon="3.90074">
        <ele>578.85</ele>
        <time>2016-04-10T12:59:10Z</time>
      </trkpt>
      <trkpt lat="44.33697" lon="3.90062">
        <ele>579.81</ele>
        <time>2016-04-10T12:59:11Z</time>
      </trkpt>
      <trkpt lat="44.33646" lon="3.90021">
        <ele>583.18</ele>
        <time>2016-04-10T12:59:15Z</time>
      </trkpt>
      <trkpt lat="44.33636" lon="3.90007">
        <ele>584.14</ele>
        <time>2016-04-10T12:59:16Z</time>
      </trkpt>
      <trkpt lat="44.33626" lon="3.89994">
        <ele>584.62</ele>
        <time>2016-04-10T12:59:17Z</time>
      </trkpt>
      <trkpt lat="44.33615" lon="3.89981">
        <ele>585.58</ele>
        <time>2016-04-10T12:59:18Z</time>
      </trkpt>
      <trkpt lat="44.33605" lon="3.89965">
        <ele>587.02</ele>
        <time>2016-04-10T12:59:19Z</time>
      </trkpt>
      <trkpt lat="44.33597" lon="3.89948">
        <ele>587.98</ele>
        <time>2016-04-10T12:59:20Z</time>
      </trkpt>
      <trkpt lat="44.3359" lon="3.89932">
        <ele>588.95</ele>
        <time>2016-04-10T12:59:21Z</time>
      </trkpt>
      <trkpt lat="44.33584" lon="3.89917">
        <ele>588.95</ele>
        <time>2016-04-10T12:59:22Z</time>
      </trkpt>
      <trkpt lat="44.33583" lon="3.899">
        <ele>589.91</ele>
        <time>2016-04-10T12:59:23Z</time>
      </trkpt>
      <trkpt lat="44.33585" lon="3.89883">
        <ele>590.87</ele>
        <time>2016-04-10T12:59:24Z</time>
      </trkpt>
      <trkpt lat="44.3359" lon="3.89865">
        <ele>592.31</ele>
        <time>2016-04-10T12:59:25Z</time>
      </trkpt>
      <trkpt lat="44.33594" lon="3.89845">
        <ele>593.27</ele>
        <time>2016-04-10T12:59:26Z</time>
      </trkpt>
      <trkpt lat="44.33598" lon="3.89805">
        <ele>593.75</ele>
        <time>2016-04-10T12:59:28Z</time>
      </trkpt>
      <trkpt lat="44.33594" lon="3.89781">
        <ele>594.23</ele>
        <time>2016-04-10T12:59:29Z</time>
      </trkpt>
      <trkpt lat="44.33588" lon="3.89758">
        <ele>595.19</ele>
        <time>2016-04-10T12:59:30Z</time>
      </trkpt>
      <trkpt lat="44.33579" lon="3.89738">
        <ele>595.67</ele>
        <time>2016-04-10T12:59:31Z</time>
      </trkpt>
      <trkpt lat="44.33572" lon="3.89719">
        <ele>596.64</ele>
        <time>2016-04-10T12:59:32Z</time>
      </trkpt>
      <trkpt lat="44.33566" lon="3.89704">
        <ele>597.6</ele>
        <time>2016-04-10T12:59:33Z</time>
      </trkpt>
      <trkpt lat="44.3356" lon="3.89694">
        <ele>598.56</ele>
        <time>2016-04-10T12:59:34Z</time>
      </trkpt>
      <trkpt lat="44.33551" lon="3.89691">
        <ele>599.04</ele>
        <time>2016-04-10T12:59:35Z</time>
      </trkpt>
      <trkpt lat="44.33542" lon="3.89692">
        <ele>600</ele>
        <time>2016-04-10T12:59:36Z</time>
      </trkpt>
      <trkpt lat="44.33532" lon="3.89694">
        <ele>600.96</ele>
        <time>2016-04-10T12:59:37Z</time>
      </trkpt>
      <trkpt lat="44.33521" lon="3.89695">
        <ele>601.92</ele>
        <time>2016-04-10T12:59:38Z</time>
      </trkpt>
      <trkpt lat="44.3351" lon="3.89692">
        <ele>602.88</ele>
        <time>2016-04-10T12:59:39Z</time>
      </trkpt>
      <trkpt lat="44.33498" lon="3.89688">
        <ele>603.36</ele>
        <time>2016-04-10T12:59:40Z</time>
      </trkpt>
      <trkpt lat="44.33487" lon="3.89685">
        <ele>603.85</ele>
        <time>2016-04-10T12:59:41Z</time>
      </trkpt>
      <trkpt lat="44.33476" lon="3.89686">
        <ele>604.33</ele>
        <time>2016-04-10T12:59:42Z</time>
      </trkpt>
      <trkpt lat="44.33466" lon="3.8969">
        <ele>606.25</ele>
        <time>2016-04-10T12:59:43Z</time>
      </trkpt>
      <trkpt lat="44.33439" lon="3.89695">
        <ele>609.13</ele>
        <time>2016-04-10T12:59:46Z</time>
      </trkpt>
      <trkpt lat="44.3343" lon="3.89693">
        <ele>610.09</ele>
        <time>2016-04-10T12:59:47Z</time>
      </trkpt>
      <trkpt lat="44.33403" lon="3.89684">
        <ele>612.02</ele>
        <time>2016-04-10T12:59:50Z</time>
      </trkpt>
      <trkpt lat="44.33395" lon="3.8968">
        <ele>612.5</ele>
        <time>2016-04-10T12:59:51Z</time>
      </trkpt>
      <trkpt lat="44.3336" lon="3.8966">
        <ele>616.82</ele>
        <time>2016-04-10T12:59:57Z</time>
      </trkpt>
      <trkpt lat="44.33353" lon="3.89655">
        <ele>616.82</ele>
        <time>2016-04-10T12:59:58Z</time>
      </trkpt>
      <trkpt lat="44.33347" lon="3.89648">
        <ele>617.3</ele>
        <time>2016-04-10T12:59:59Z</time>
      </trkpt>
      <trkpt lat="44.33341" lon="3.89641">
        <ele>616.82</ele>
        <time>2016-04-10T13:00:00Z</time>
      </trkpt>
      <trkpt lat="44.33336" lon="3.89635">
        <ele>616.82</ele>
        <time>2016-04-10T13:00:01Z</time>
      </trkpt>
      <trkpt lat="44.33286" lon="3.89577">
        <ele>616.34</ele>
        <time>2016-04-10T13:00:10Z</time>
      </trkpt>
      <trkpt lat="44.33239" lon="3.89518">
        <ele>616.34</ele>
        <time>2016-04-10T13:00:18Z</time>
      </trkpt>
      <trkpt lat="44.3322" lon="3.89476">
        <ele>617.3</ele>
        <time>2016-04-10T13:00:26Z</time>
      </trkpt>
      <trkpt lat="44.332" lon="3.8943">
        <ele>617.78</ele>
        <time>2016-04-10T13:00:30Z</time>
      </trkpt>
      <trkpt lat="44.33192" lon="3.89424">
        <ele>617.78</ele>
        <time>2016-04-10T13:00:31Z</time>
      </trkpt>
      <trkpt lat="44.33183" lon="3.89426">
        <ele>617.78</ele>
        <time>2016-04-10T13:00:32Z</time>
      </trkpt>
      <trkpt lat="44.33174" lon="3.89429">
        <ele>617.78</ele>
        <time>2016-04-10T13:00:33Z</time>
      </trkpt>
      <trkpt lat="44.33166" lon="3.89439">
        <ele>617.78</ele>
        <time>2016-04-10T13:00:34Z</time>
      </trkpt>
      <trkpt lat="44.33158" lon="3.89451">
        <ele>617.78</ele>
        <time>2016-04-10T13:00:35Z</time>
      </trkpt>
      <trkpt lat="44.33151" lon="3.89463">
        <ele>617.3</ele>
        <time>2016-04-10T13:00:36Z</time>
      </trkpt>
      <trkpt lat="44.33142" lon="3.89477">
        <ele>617.78</ele>
        <time>2016-04-10T13:00:37Z</time>
      </trkpt>
      <trkpt lat="44.33131" lon="3.89485">
        <ele>617.78</ele>
        <time>2016-04-10T13:00:38Z</time>
      </trkpt>
      <trkpt lat="44.33121" lon="3.89494">
        <ele>618.26</ele>
        <time>2016-04-10T13:00:39Z</time>
      </trkpt>
      <trkpt lat="44.33113" lon="3.89504">
        <ele>618.75</ele>
        <time>2016-04-10T13:00:40Z</time>
      </trkpt>
      <trkpt lat="44.33108" lon="3.89517">
        <ele>618.26</ele>
        <time>2016-04-10T13:00:41Z</time>
      </trkpt>
      <trkpt lat="44.33103" lon="3.89531">
        <ele>618.26</ele>
        <time>2016-04-10T13:00:42Z</time>
      </trkpt>
      <trkpt lat="44.33098" lon="3.89547">
        <ele>618.75</ele>
        <time>2016-04-10T13:00:43Z</time>
      </trkpt>
      <trkpt lat="44.33091" lon="3.89562">
        <ele>618.75</ele>
        <time>2016-04-10T13:00:44Z</time>
      </trkpt>
      <trkpt lat="44.3308" lon="3.89572">
        <ele>619.71</ele>
        <time>2016-04-10T13:00:45Z</time>
      </trkpt>
      <trkpt lat="44.33066" lon="3.89578">
        <ele>620.19</ele>
        <time>2016-04-10T13:00:46Z</time>
      </trkpt>
      <trkpt lat="44.3305" lon="3.89579">
        <ele>621.15</ele>
        <time>2016-04-10T13:00:47Z</time>
      </trkpt>
      <trkpt lat="44.33034" lon="3.89579">
        <ele>621.63</ele>
        <time>2016-04-10T13:00:48Z</time>
      </trkpt>
      <trkpt lat="44.33017" lon="3.89575">
        <ele>622.11</ele>
        <time>2016-04-10T13:00:49Z</time>
      </trkpt>
      <trkpt lat="44.33" lon="3.89567">
        <ele>622.59</ele>
        <time>2016-04-10T13:00:50Z</time>
      </trkpt>
      <trkpt lat="44.32986" lon="3.89558">
        <ele>623.55</ele>
        <time>2016-04-10T13:00:51Z</time>
      </trkpt>
      <trkpt lat="44.32974" lon="3.89547">
        <ele>624.51</ele>
        <time>2016-04-10T13:00:52Z</time>
      </trkpt>
      <trkpt lat="44.32963" lon="3.89532">
        <ele>624.99</ele>
        <time>2016-04-10T13:00:53Z</time>
      </trkpt>
      <trkpt lat="44.32955" lon="3.89515">
        <ele>625.47</ele>
        <time>2016-04-10T13:00:54Z</time>
      </trkpt>
      <trkpt lat="44.3295" lon="3.89495">
        <ele>624.99</ele>
        <time>2016-04-10T13:00:55Z</time>
      </trkpt>
      <trkpt lat="44.32947" lon="3.89472">
        <ele>625.47</ele>
        <time>2016-04-10T13:00:56Z</time>
      </trkpt>
      <trkpt lat="44.3295" lon="3.89449">
        <ele>627.4</ele>
        <time>2016-04-10T13:00:57Z</time>
      </trkpt>
      <trkpt lat="44.32954" lon="3.89427">
        <ele>628.84</ele>
        <time>2016-04-10T13:00:58Z</time>
      </trkpt>
      <trkpt lat="44.32962" lon="3.89406">
        <ele>629.8</ele>
        <time>2016-04-10T13:00:59Z</time>
      </trkpt>
      <trkpt lat="44.3297" lon="3.89383">
        <ele>630.28</ele>
        <time>2016-04-10T13:01:00Z</time>
      </trkpt>
      <trkpt lat="44.3299" lon="3.89263">
        <ele>634.13</ele>
        <time>2016-04-10T13:01:05Z</time>
      </trkpt>
      <trkpt lat="44.32989" lon="3.89239">
        <ele>634.61</ele>
        <time>2016-04-10T13:01:06Z</time>
      </trkpt>
      <trkpt lat="44.32986" lon="3.89215">
        <ele>635.57</ele>
        <time>2016-04-10T13:01:07Z</time>
      </trkpt>
      <trkpt lat="44.32976" lon="3.89161">
        <ele>637.01</ele>
        <time>2016-04-10T13:01:09Z</time>
      </trkpt>
      <trkpt lat="44.32974" lon="3.89133">
        <ele>637.97</ele>
        <time>2016-04-10T13:01:10Z</time>
      </trkpt>
      <trkpt lat="44.32989" lon="3.88975">
        <ele>643.26</ele>
        <time>2016-04-10T13:01:16Z</time>
      </trkpt>
      <trkpt lat="44.32997" lon="3.88951">
        <ele>644.22</ele>
        <time>2016-04-10T13:01:17Z</time>
      </trkpt>
      <trkpt lat="44.33004" lon="3.88928">
        <ele>645.18</ele>
        <time>2016-04-10T13:01:18Z</time>
      </trkpt>
      <trkpt lat="44.3301" lon="3.88906">
        <ele>645.66</ele>
        <time>2016-04-10T13:01:19Z</time>
      </trkpt>
      <trkpt lat="44.33013" lon="3.88884">
        <ele>646.62</ele>
        <time>2016-04-10T13:01:20Z</time>
      </trkpt>
      <trkpt lat="44.33014" lon="3.88864">
        <ele>647.1</ele>
        <time>2016-04-10T13:01:21Z</time>
      </trkpt>
      <trkpt lat="44.33019" lon="3.88828">
        <ele>648.07</ele>
        <time>2016-04-10T13:01:23Z</time>
      </trkpt>
      <trkpt lat="44.33024" lon="3.88813">
        <ele>648.55</ele>
        <time>2016-04-10T13:01:24Z</time>
      </trkpt>
      <trkpt lat="44.33031" lon="3.88803">
        <ele>649.51</ele>
        <time>2016-04-10T13:01:25Z</time>
      </trkpt>
      <trkpt lat="44.33044" lon="3.888">
        <ele>649.99</ele>
        <time>2016-04-10T13:01:26Z</time>
      </trkpt>
      <trkpt lat="44.33058" lon="3.88802">
        <ele>650.47</ele>
        <time>2016-04-10T13:01:27Z</time>
      </trkpt>
      <trkpt lat="44.33071" lon="3.88798">
        <ele>650.95</ele>
        <time>2016-04-10T13:01:28Z</time>
      </trkpt>
      <trkpt lat="44.33081" lon="3.88785">
        <ele>651.91</ele>
        <time>2016-04-10T13:01:29Z</time>
      </trkpt>
      <trkpt lat="44.33084" lon="3.88772">
        <ele>651.91</ele>
        <time>2016-04-10T13:01:30Z</time>
      </trkpt>
      <trkpt lat="44.33085" lon="3.88754">
        <ele>653.35</ele>
        <time>2016-04-10T13:01:31Z</time>
      </trkpt>
      <trkpt lat="44.33079" lon="3.88736">
        <ele>652.87</ele>
        <time>2016-04-10T13:01:32Z</time>
      </trkpt>
      <trkpt lat="44.33075" lon="3.88714">
        <ele>653.35</ele>
        <time>2016-04-10T13:01:33Z</time>
      </trkpt>
      <trkpt lat="44.33074" lon="3.8869">
        <ele>653.35</ele>
        <time>2016-04-10T13:01:34Z</time>
      </trkpt>
      <trkpt lat="44.33075" lon="3.88667">
        <ele>653.83</ele>
        <time>2016-04-10T13:01:35Z</time>
      </trkpt>
      <trkpt lat="44.33087" lon="3.88597">
        <ele>655.76</ele>
        <time>2016-04-10T13:01:38Z</time>
      </trkpt>
      <trkpt lat="44.33094" lon="3.88576">
        <ele>656.24</ele>
        <time>2016-04-10T13:01:39Z</time>
      </trkpt>
      <trkpt lat="44.33101" lon="3.88555">
        <ele>656.72</ele>
        <time>2016-04-10T13:01:40Z</time>
      </trkpt>
      <trkpt lat="44.33107" lon="3.88532">
        <ele>656.72</ele>
        <time>2016-04-10T13:01:41Z</time>
      </trkpt>
      <trkpt lat="44.33112" lon="3.8851">
        <ele>657.2</ele>
        <time>2016-04-10T13:01:42Z</time>
      </trkpt>
      <trkpt lat="44.3312" lon="3.88488">
        <ele>657.68</ele>
        <time>2016-04-10T13:01:43Z</time>
      </trkpt>
      <trkpt lat="44.33129" lon="3.88469">
        <ele>658.16</ele>
        <time>2016-04-10T13:01:44Z</time>
      </trkpt>
      <trkpt lat="44.33139" lon="3.88453">
        <ele>658.16</ele>
        <time>2016-04-10T13:01:45Z</time>
      </trkpt>
      <trkpt lat="44.3315" lon="3.88438">
        <ele>658.64</ele>
        <time>2016-04-10T13:01:46Z</time>
      </trkpt>
      <trkpt lat="44.33162" lon="3.88424">
        <ele>659.6</ele>
        <time>2016-04-10T13:01:47Z</time>
      </trkpt>
      <trkpt lat="44.33292" lon="3.88272">
        <ele>664.41</ele>
        <time>2016-04-10T13:01:58Z</time>
      </trkpt>
      <trkpt lat="44.33315" lon="3.88265">
        <ele>666.33</ele>
        <time>2016-04-10T13:02:00Z</time>
      </trkpt>
      <trkpt lat="44.33325" lon="3.8827">
        <ele>666.81</ele>
        <time>2016-04-10T13:02:01Z</time>
      </trkpt>
      <trkpt lat="44.33336" lon="3.88274">
        <ele>667.77</ele>
        <time>2016-04-10T13:02:02Z</time>
      </trkpt>
      <trkpt lat="44.33347" lon="3.88271">
        <ele>668.73</ele>
        <time>2016-04-10T13:02:03Z</time>
      </trkpt>
      <trkpt lat="44.33355" lon="3.88266">
        <ele>670.18</ele>
        <time>2016-04-10T13:02:04Z</time>
      </trkpt>
      <trkpt lat="44.33359" lon="3.88258">
        <ele>671.14</ele>
        <time>2016-04-10T13:02:05Z</time>
      </trkpt>
      <trkpt lat="44.33362" lon="3.88245">
        <ele>672.1</ele>
        <time>2016-04-10T13:02:06Z</time>
      </trkpt>
      <trkpt lat="44.33362" lon="3.88231">
        <ele>672.58</ele>
        <time>2016-04-10T13:02:07Z</time>
      </trkpt>
      <trkpt lat="44.33361" lon="3.88214">
        <ele>671.14</ele>
        <time>2016-04-10T13:02:08Z</time>
      </trkpt>
      <trkpt lat="44.33358" lon="3.88196">
        <ele>670.66</ele>
        <time>2016-04-10T13:02:09Z</time>
      </trkpt>
      <trkpt lat="44.33354" lon="3.88176">
        <ele>670.18</ele>
        <time>2016-04-10T13:02:10Z</time>
      </trkpt>
      <trkpt lat="44.33343" lon="3.88126">
        <ele>670.18</ele>
        <time>2016-04-10T13:02:13Z</time>
      </trkpt>
      <trkpt lat="44.33334" lon="3.88114">
        <ele>669.7</ele>
        <time>2016-04-10T13:02:14Z</time>
      </trkpt>
      <trkpt lat="44.33324" lon="3.88108">
        <ele>669.7</ele>
        <time>2016-04-10T13:02:15Z</time>
      </trkpt>
      <trkpt lat="44.33312" lon="3.88103">
        <ele>669.22</ele>
        <time>2016-04-10T13:02:16Z</time>
      </trkpt>
      <trkpt lat="44.333" lon="3.88097">
        <ele>669.22</ele>
        <time>2016-04-10T13:02:17Z</time>
      </trkpt>
      <trkpt lat="44.3329" lon="3.88087">
        <ele>669.22</ele>
        <time>2016-04-10T13:02:18Z</time>
      </trkpt>
      <trkpt lat="44.33282" lon="3.88075">
        <ele>669.22</ele>
        <time>2016-04-10T13:02:19Z</time>
      </trkpt>
      <trkpt lat="44.33277" lon="3.8806">
        <ele>669.22</ele>
        <time>2016-04-10T13:02:20Z</time>
      </trkpt>
      <trkpt lat="44.33278" lon="3.88042">
        <ele>668.73</ele>
        <time>2016-04-10T13:02:21Z</time>
      </trkpt>
      <trkpt lat="44.33285" lon="3.88023">
        <ele>669.22</ele>
        <time>2016-04-10T13:02:22Z</time>
      </trkpt>
      <trkpt lat="44.33296" lon="3.88014">
        <ele>670.18</ele>
        <time>2016-04-10T13:02:23Z</time>
      </trkpt>
      <trkpt lat="44.33309" lon="3.88001">
        <ele>670.66</ele>
        <time>2016-04-10T13:02:24Z</time>
      </trkpt>
      <trkpt lat="44.33324" lon="3.87986">
        <ele>669.22</ele>
        <time>2016-04-10T13:02:25Z</time>
      </trkpt>
      <trkpt lat="44.3334" lon="3.87969">
        <ele>669.22</ele>
        <time>2016-04-10T13:02:26Z</time>
      </trkpt>
      <trkpt lat="44.33369" lon="3.87929">
        <ele>668.25</ele>
        <time>2016-04-10T13:02:28Z</time>
      </trkpt>
      <trkpt lat="44.3346" lon="3.87813">
        <ele>670.66</ele>
        <time>2016-04-10T13:02:35Z</time>
      </trkpt>
      <trkpt lat="44.33467" lon="3.87804">
        <ele>671.62</ele>
        <time>2016-04-10T13:02:36Z</time>
      </trkpt>
      <trkpt lat="44.33471" lon="3.87793">
        <ele>671.62</ele>
        <time>2016-04-10T13:02:37Z</time>
      </trkpt>
      <trkpt lat="44.33472" lon="3.87781">
        <ele>670.66</ele>
        <time>2016-04-10T13:02:38Z</time>
      </trkpt>
      <trkpt lat="44.33466" lon="3.8777">
        <ele>669.22</ele>
        <time>2016-04-10T13:02:39Z</time>
      </trkpt>
      <trkpt lat="44.33453" lon="3.87762">
        <ele>668.73</ele>
        <time>2016-04-10T13:02:40Z</time>
      </trkpt>
      <trkpt lat="44.33436" lon="3.87763">
        <ele>667.77</ele>
        <time>2016-04-10T13:02:41Z</time>
      </trkpt>
      <trkpt lat="44.33421" lon="3.87765">
        <ele>667.29</ele>
        <time>2016-04-10T13:02:42Z</time>
      </trkpt>
      <trkpt lat="44.33404" lon="3.87769">
        <ele>667.29</ele>
        <time>2016-04-10T13:02:43Z</time>
      </trkpt>
      <trkpt lat="44.33388" lon="3.87773">
        <ele>667.77</ele>
        <time>2016-04-10T13:02:44Z</time>
      </trkpt>
      <trkpt lat="44.33373" lon="3.87779">
        <ele>667.29</ele>
        <time>2016-04-10T13:02:45Z</time>
      </trkpt>
      <trkpt lat="44.3336" lon="3.87789">
        <ele>668.73</ele>
        <time>2016-04-10T13:02:46Z</time>
      </trkpt>
      <trkpt lat="44.33349" lon="3.87798">
        <ele>669.7</ele>
        <time>2016-04-10T13:02:47Z</time>
      </trkpt>
      <trkpt lat="44.33338" lon="3.87804">
        <ele>670.18</ele>
        <time>2016-04-10T13:02:48Z</time>
      </trkpt>
      <trkpt lat="44.33327" lon="3.87805">
        <ele>670.18</ele>
        <time>2016-04-10T13:02:49Z</time>
      </trkpt>
      <trkpt lat="44.33319" lon="3.87798">
        <ele>670.66</ele>
        <time>2016-04-10T13:02:50Z</time>
      </trkpt>
      <trkpt lat="44.33316" lon="3.87786">
        <ele>671.14</ele>
        <time>2016-04-10T13:02:51Z</time>
      </trkpt>
      <trkpt lat="44.33317" lon="3.87774">
        <ele>671.14</ele>
        <time>2016-04-10T13:02:52Z</time>
      </trkpt>
      <trkpt lat="44.33324" lon="3.87763">
        <ele>671.14</ele>
        <time>2016-04-10T13:02:53Z</time>
      </trkpt>
      <trkpt lat="44.33332" lon="3.8775">
        <ele>671.14</ele>
        <time>2016-04-10T13:02:54Z</time>
      </trkpt>
      <trkpt lat="44.33342" lon="3.87734">
        <ele>671.14</ele>
        <time>2016-04-10T13:02:55Z</time>
      </trkpt>
      <trkpt lat="44.33351" lon="3.87715">
        <ele>671.62</ele>
        <time>2016-04-10T13:02:56Z</time>
      </trkpt>
      <trkpt lat="44.33373" lon="3.87661">
        <ele>672.1</ele>
        <time>2016-04-10T13:02:59Z</time>
      </trkpt>
      <trkpt lat="44.33384" lon="3.87651">
        <ele>672.1</ele>
        <time>2016-04-10T13:03:00Z</time>
      </trkpt>
      <trkpt lat="44.33399" lon="3.87646">
        <ele>672.58</ele>
        <time>2016-04-10T13:03:01Z</time>
      </trkpt>
      <trkpt lat="44.33414" lon="3.87642">
        <ele>672.58</ele>
        <time>2016-04-10T13:03:02Z</time>
      </trkpt>
      <trkpt lat="44.33429" lon="3.87637">
        <ele>672.58</ele>
        <time>2016-04-10T13:03:03Z</time>
      </trkpt>
      <trkpt lat="44.33442" lon="3.87631">
        <ele>672.58</ele>
        <time>2016-04-10T13:03:04Z</time>
      </trkpt>
      <trkpt lat="44.33455" lon="3.87616">
        <ele>672.58</ele>
        <time>2016-04-10T13:03:05Z</time>
      </trkpt>
      <trkpt lat="44.33466" lon="3.87599">
        <ele>672.58</ele>
        <time>2016-04-10T13:03:06Z</time>
      </trkpt>
      <trkpt lat="44.33476" lon="3.87576">
        <ele>672.58</ele>
        <time>2016-04-10T13:03:07Z</time>
      </trkpt>
      <trkpt lat="44.33486" lon="3.87551">
        <ele>672.58</ele>
        <time>2016-04-10T13:03:08Z</time>
      </trkpt>
      <trkpt lat="44.33495" lon="3.87527">
        <ele>672.58</ele>
        <time>2016-04-10T13:03:09Z</time>
      </trkpt>
      <trkpt lat="44.33518" lon="3.87454">
        <ele>672.58</ele>
        <time>2016-04-10T13:03:13Z</time>
      </trkpt>
      <trkpt lat="44.33516" lon="3.87441">
        <ele>672.1</ele>
        <time>2016-04-10T13:03:14Z</time>
      </trkpt>
      <trkpt lat="44.33509" lon="3.87426">
        <ele>672.1</ele>
        <time>2016-04-10T13:03:15Z</time>
      </trkpt>
      <trkpt lat="44.33502" lon="3.87412">
        <ele>672.1</ele>
        <time>2016-04-10T13:03:16Z</time>
      </trkpt>
      <trkpt lat="44.33494" lon="3.874">
        <ele>671.62</ele>
        <time>2016-04-10T13:03:17Z</time>
      </trkpt>
      <trkpt lat="44.33483" lon="3.87395">
        <ele>670.66</ele>
        <time>2016-04-10T13:03:18Z</time>
      </trkpt>
      <trkpt lat="44.33471" lon="3.87394">
        <ele>670.18</ele>
        <time>2016-04-10T13:03:19Z</time>
      </trkpt>
      <trkpt lat="44.3346" lon="3.87402">
        <ele>669.7</ele>
        <time>2016-04-10T13:03:20Z</time>
      </trkpt>
      <trkpt lat="44.3345" lon="3.87411">
        <ele>668.73</ele>
        <time>2016-04-10T13:03:21Z</time>
      </trkpt>
      <trkpt lat="44.33437" lon="3.8742">
        <ele>669.22</ele>
        <time>2016-04-10T13:03:22Z</time>
      </trkpt>
      <trkpt lat="44.33423" lon="3.87427">
        <ele>668.73</ele>
        <time>2016-04-10T13:03:23Z</time>
      </trkpt>
      <trkpt lat="44.33409" lon="3.87434">
        <ele>668.25</ele>
        <time>2016-04-10T13:03:24Z</time>
      </trkpt>
      <trkpt lat="44.33395" lon="3.87445">
        <ele>668.25</ele>
        <time>2016-04-10T13:03:25Z</time>
      </trkpt>
      <trkpt lat="44.33383" lon="3.87462">
        <ele>668.25</ele>
        <time>2016-04-10T13:03:26Z</time>
      </trkpt>
      <trkpt lat="44.33371" lon="3.87479">
        <ele>668.73</ele>
        <time>2016-04-10T13:03:27Z</time>
      </trkpt>
      <trkpt lat="44.33359" lon="3.87496">
        <ele>670.18</ele>
        <time>2016-04-10T13:03:28Z</time>
      </trkpt>
      <trkpt lat="44.33348" lon="3.8751">
        <ele>671.14</ele>
        <time>2016-04-10T13:03:29Z</time>
      </trkpt>
      <trkpt lat="44.33335" lon="3.87517">
        <ele>672.1</ele>
        <time>2016-04-10T13:03:30Z</time>
      </trkpt>
      <trkpt lat="44.33321" lon="3.87522">
        <ele>673.54</ele>
        <time>2016-04-10T13:03:31Z</time>
      </trkpt>
      <trkpt lat="44.33306" lon="3.87529">
        <ele>674.5</ele>
        <time>2016-04-10T13:03:32Z</time>
      </trkpt>
      <trkpt lat="44.3329" lon="3.87539">
        <ele>676.42</ele>
        <time>2016-04-10T13:03:33Z</time>
      </trkpt>
      <trkpt lat="44.33276" lon="3.87549">
        <ele>678.35</ele>
        <time>2016-04-10T13:03:34Z</time>
      </trkpt>
      <trkpt lat="44.3325" lon="3.87564">
        <ele>680.75</ele>
        <time>2016-04-10T13:03:36Z</time>
      </trkpt>
      <trkpt lat="44.33238" lon="3.87564">
        <ele>681.71</ele>
        <time>2016-04-10T13:03:37Z</time>
      </trkpt>
      <trkpt lat="44.33228" lon="3.87555">
        <ele>683.15</ele>
        <time>2016-04-10T13:03:38Z</time>
      </trkpt>
      <trkpt lat="44.33221" lon="3.87541">
        <ele>684.6</ele>
        <time>2016-04-10T13:03:39Z</time>
      </trkpt>
      <trkpt lat="44.33215" lon="3.87523">
        <ele>685.56</ele>
        <time>2016-04-10T13:03:40Z</time>
      </trkpt>
      <trkpt lat="44.33209" lon="3.87503">
        <ele>687.48</ele>
        <time>2016-04-10T13:03:41Z</time>
      </trkpt>
      <trkpt lat="44.33202" lon="3.87481">
        <ele>688.92</ele>
        <time>2016-04-10T13:03:42Z</time>
      </trkpt>
      <trkpt lat="44.33174" lon="3.874">
        <ele>693.25</ele>
        <time>2016-04-10T13:03:47Z</time>
      </trkpt>
      <trkpt lat="44.33166" lon="3.87396">
        <ele>694.21</ele>
        <time>2016-04-10T13:03:48Z</time>
      </trkpt>
      <trkpt lat="44.33157" lon="3.87397">
        <ele>694.69</ele>
        <time>2016-04-10T13:03:49Z</time>
      </trkpt>
      <trkpt lat="44.33148" lon="3.87405">
        <ele>695.17</ele>
        <time>2016-04-10T13:03:50Z</time>
      </trkpt>
      <trkpt lat="44.33139" lon="3.87417">
        <ele>695.65</ele>
        <time>2016-04-10T13:03:51Z</time>
      </trkpt>
      <trkpt lat="44.33131" lon="3.87431">
        <ele>696.61</ele>
        <time>2016-04-10T13:03:52Z</time>
      </trkpt>
      <trkpt lat="44.33121" lon="3.87445">
        <ele>697.09</ele>
        <time>2016-04-10T13:03:53Z</time>
      </trkpt>
      <trkpt lat="44.33108" lon="3.87456">
        <ele>697.57</ele>
        <time>2016-04-10T13:03:54Z</time>
      </trkpt>
      <trkpt lat="44.33093" lon="3.87464">
        <ele>698.53</ele>
        <time>2016-04-10T13:03:55Z</time>
      </trkpt>
      <trkpt lat="44.33075" lon="3.87473">
        <ele>699.98</ele>
        <time>2016-04-10T13:03:56Z</time>
      </trkpt>
      <trkpt lat="44.33056" lon="3.87483">
        <ele>700.94</ele>
        <time>2016-04-10T13:03:57Z</time>
      </trkpt>
      <trkpt lat="44.32939" lon="3.87567">
        <ele>710.07</ele>
        <time>2016-04-10T13:04:04Z</time>
      </trkpt>
      <trkpt lat="44.32927" lon="3.87575">
        <ele>711.03</ele>
        <time>2016-04-10T13:04:05Z</time>
      </trkpt>
      <trkpt lat="44.32916" lon="3.87576">
        <ele>711.51</ele>
        <time>2016-04-10T13:04:06Z</time>
      </trkpt>
      <trkpt lat="44.32906" lon="3.87571">
        <ele>712.95</ele>
        <time>2016-04-10T13:04:07Z</time>
      </trkpt>
      <trkpt lat="44.32899" lon="3.87559">
        <ele>714.4</ele>
        <time>2016-04-10T13:04:08Z</time>
      </trkpt>
      <trkpt lat="44.32892" lon="3.87544">
        <ele>715.84</ele>
        <time>2016-04-10T13:04:09Z</time>
      </trkpt>
      <trkpt lat="44.32883" lon="3.87527">
        <ele>716.8</ele>
        <time>2016-04-10T13:04:10Z</time>
      </trkpt>
      <trkpt lat="44.32863" lon="3.8749">
        <ele>719.2</ele>
        <time>2016-04-10T13:04:12Z</time>
      </trkpt>
      <trkpt lat="44.32854" lon="3.87469">
        <ele>719.68</ele>
        <time>2016-04-10T13:04:13Z</time>
      </trkpt>
      <trkpt lat="44.32848" lon="3.8745">
        <ele>720.65</ele>
        <time>2016-04-10T13:04:14Z</time>
      </trkpt>
      <trkpt lat="44.32844" lon="3.87431">
        <ele>722.09</ele>
        <time>2016-04-10T13:04:15Z</time>
      </trkpt>
      <trkpt lat="44.32843" lon="3.87413">
        <ele>723.53</ele>
        <time>2016-04-10T13:04:16Z</time>
      </trkpt>
      <trkpt lat="44.32841" lon="3.87395">
        <ele>724.49</ele>
        <time>2016-04-10T13:04:17Z</time>
      </trkpt>
      <trkpt lat="44.32837" lon="3.87378">
        <ele>725.45</ele>
        <time>2016-04-10T13:04:18Z</time>
      </trkpt>
      <trkpt lat="44.3283" lon="3.87361">
        <ele>726.41</ele>
        <time>2016-04-10T13:04:19Z</time>
      </trkpt>
      <trkpt lat="44.3282" lon="3.87342">
        <ele>727.86</ele>
        <time>2016-04-10T13:04:20Z</time>
      </trkpt>
      <trkpt lat="44.3281" lon="3.87321">
        <ele>728.82</ele>
        <time>2016-04-10T13:04:21Z</time>
      </trkpt>
      <trkpt lat="44.32802" lon="3.87299">
        <ele>730.26</ele>
        <time>2016-04-10T13:04:22Z</time>
      </trkpt>
      <trkpt lat="44.32773" lon="3.87216">
        <ele>733.62</ele>
        <time>2016-04-10T13:04:26Z</time>
      </trkpt>
      <trkpt lat="44.32771" lon="3.87195">
        <ele>735.07</ele>
        <time>2016-04-10T13:04:27Z</time>
      </trkpt>
      <trkpt lat="44.3277" lon="3.87176">
        <ele>736.03</ele>
        <time>2016-04-10T13:04:28Z</time>
      </trkpt>
      <trkpt lat="44.32758" lon="3.8702">
        <ele>742.76</ele>
        <time>2016-04-10T13:04:36Z</time>
      </trkpt>
      <trkpt lat="44.32747" lon="3.8684">
        <ele>750.93</ele>
        <time>2016-04-10T13:04:44Z</time>
      </trkpt>
      <trkpt lat="44.3275" lon="3.86818">
        <ele>751.89</ele>
        <time>2016-04-10T13:04:45Z</time>
      </trkpt>
      <trkpt lat="44.32754" lon="3.86796">
        <ele>753.33</ele>
        <time>2016-04-10T13:04:46Z</time>
      </trkpt>
      <trkpt lat="44.32767" lon="3.86737">
        <ele>756.21</ele>
        <time>2016-04-10T13:04:49Z</time>
      </trkpt>
      <trkpt lat="44.32772" lon="3.86722">
        <ele>757.18</ele>
        <time>2016-04-10T13:04:50Z</time>
      </trkpt>
      <trkpt lat="44.3278" lon="3.86695">
        <ele>758.62</ele>
        <time>2016-04-10T13:04:52Z</time>
      </trkpt>
      <trkpt lat="44.32781" lon="3.86683">
        <ele>759.1</ele>
        <time>2016-04-10T13:04:53Z</time>
      </trkpt>
      <trkpt lat="44.32779" lon="3.86669">
        <ele>760.06</ele>
        <time>2016-04-10T13:04:54Z</time>
      </trkpt>
      <trkpt lat="44.32775" lon="3.86652">
        <ele>761.02</ele>
        <time>2016-04-10T13:04:55Z</time>
      </trkpt>
      <trkpt lat="44.32773" lon="3.86633">
        <ele>761.98</ele>
        <time>2016-04-10T13:04:56Z</time>
      </trkpt>
      <trkpt lat="44.32772" lon="3.86616">
        <ele>762.94</ele>
        <time>2016-04-10T13:04:57Z</time>
      </trkpt>
      <trkpt lat="44.32773" lon="3.86602">
        <ele>763.9</ele>
        <time>2016-04-10T13:04:58Z</time>
      </trkpt>
      <trkpt lat="44.32776" lon="3.8659">
        <ele>764.87</ele>
        <time>2016-04-10T13:04:59Z</time>
      </trkpt>
      <trkpt lat="44.3278" lon="3.86577">
        <ele>765.83</ele>
        <time>2016-04-10T13:05:00Z</time>
      </trkpt>
      <trkpt lat="44.32784" lon="3.86563">
        <ele>766.79</ele>
        <time>2016-04-10T13:05:01Z</time>
      </trkpt>
      <trkpt lat="44.32787" lon="3.86548">
        <ele>767.27</ele>
        <time>2016-04-10T13:05:02Z</time>
      </trkpt>
      <trkpt lat="44.32789" lon="3.86535">
        <ele>768.23</ele>
        <time>2016-04-10T13:05:03Z</time>
      </trkpt>
      <trkpt lat="44.32789" lon="3.86522">
        <ele>768.71</ele>
        <time>2016-04-10T13:05:04Z</time>
      </trkpt>
      <trkpt lat="44.32789" lon="3.86508">
        <ele>769.67</ele>
        <time>2016-04-10T13:05:05Z</time>
      </trkpt>
      <trkpt lat="44.32787" lon="3.86495">
        <ele>771.11</ele>
        <time>2016-04-10T13:05:06Z</time>
      </trkpt>
      <trkpt lat="44.3278" lon="3.86482">
        <ele>772.08</ele>
        <time>2016-04-10T13:05:07Z</time>
      </trkpt>
      <trkpt lat="44.32773" lon="3.86473">
        <ele>772.56</ele>
        <time>2016-04-10T13:05:08Z</time>
      </trkpt>
      <trkpt lat="44.32765" lon="3.86465">
        <ele>773.04</ele>
        <time>2016-04-10T13:05:09Z</time>
      </trkpt>
      <trkpt lat="44.32755" lon="3.86458">
        <ele>773.52</ele>
        <time>2016-04-10T13:05:10Z</time>
      </trkpt>
      <trkpt lat="44.32746" lon="3.86451">
        <ele>774</ele>
        <time>2016-04-10T13:05:11Z</time>
      </trkpt>
      <trkpt lat="44.32738" lon="3.86443">
        <ele>774.96</ele>
        <time>2016-04-10T13:05:12Z</time>
      </trkpt>
      <trkpt lat="44.32733" lon="3.86433">
        <ele>775.44</ele>
        <time>2016-04-10T13:05:13Z</time>
      </trkpt>
      <trkpt lat="44.32731" lon="3.8642">
        <ele>775.92</ele>
        <time>2016-04-10T13:05:14Z</time>
      </trkpt>
      <trkpt lat="44.3273" lon="3.86403">
        <ele>776.88</ele>
        <time>2016-04-10T13:05:15Z</time>
      </trkpt>
      <trkpt lat="44.32731" lon="3.86384">
        <ele>777.84</ele>
        <time>2016-04-10T13:05:16Z</time>
      </trkpt>
      <trkpt lat="44.3273" lon="3.86363">
        <ele>778.81</ele>
        <time>2016-04-10T13:05:17Z</time>
      </trkpt>
      <trkpt lat="44.32729" lon="3.8634">
        <ele>779.77</ele>
        <time>2016-04-10T13:05:18Z</time>
      </trkpt>
      <trkpt lat="44.32725" lon="3.86316">
        <ele>780.73</ele>
        <time>2016-04-10T13:05:19Z</time>
      </trkpt>
      <trkpt lat="44.32721" lon="3.86291">
        <ele>782.17</ele>
        <time>2016-04-10T13:05:20Z</time>
      </trkpt>
      <trkpt lat="44.32715" lon="3.86239">
        <ele>784.09</ele>
        <time>2016-04-10T13:05:22Z</time>
      </trkpt>
      <trkpt lat="44.32714" lon="3.86212">
        <ele>785.53</ele>
        <time>2016-04-10T13:05:23Z</time>
      </trkpt>
      <trkpt lat="44.32718" lon="3.86053">
        <ele>793.71</ele>
        <time>2016-04-10T13:05:29Z</time>
      </trkpt>
      <trkpt lat="44.32722" lon="3.86027">
        <ele>795.15</ele>
        <time>2016-04-10T13:05:30Z</time>
      </trkpt>
      <trkpt lat="44.32738" lon="3.85958">
        <ele>799.47</ele>
        <time>2016-04-10T13:05:33Z</time>
      </trkpt>
      <trkpt lat="44.32747" lon="3.85939">
        <ele>800.92</ele>
        <time>2016-04-10T13:05:34Z</time>
      </trkpt>
      <trkpt lat="44.32757" lon="3.85921">
        <ele>801.88</ele>
        <time>2016-04-10T13:05:35Z</time>
      </trkpt>
      <trkpt lat="44.3278" lon="3.85889">
        <ele>804.76</ele>
        <time>2016-04-10T13:05:37Z</time>
      </trkpt>
      <trkpt lat="44.32793" lon="3.85877">
        <ele>806.2</ele>
        <time>2016-04-10T13:05:38Z</time>
      </trkpt>
      <trkpt lat="44.32808" lon="3.85867">
        <ele>807.64</ele>
        <time>2016-04-10T13:05:39Z</time>
      </trkpt>
      <trkpt lat="44.32837" lon="3.85847">
        <ele>810.53</ele>
        <time>2016-04-10T13:05:41Z</time>
      </trkpt>
      <trkpt lat="44.3285" lon="3.85834">
        <ele>811.49</ele>
        <time>2016-04-10T13:05:42Z</time>
      </trkpt>
      <trkpt lat="44.32861" lon="3.85819">
        <ele>812.93</ele>
        <time>2016-04-10T13:05:43Z</time>
      </trkpt>
      <trkpt lat="44.3287" lon="3.85804">
        <ele>813.89</ele>
        <time>2016-04-10T13:05:44Z</time>
      </trkpt>
      <trkpt lat="44.32876" lon="3.8579">
        <ele>815.34</ele>
        <time>2016-04-10T13:05:45Z</time>
      </trkpt>
      <trkpt lat="44.32878" lon="3.85778">
        <ele>816.3</ele>
        <time>2016-04-10T13:05:46Z</time>
      </trkpt>
      <trkpt lat="44.32872" lon="3.85765">
        <ele>817.26</ele>
        <time>2016-04-10T13:05:47Z</time>
      </trkpt>
      <trkpt lat="44.32865" lon="3.85755">
        <ele>817.74</ele>
        <time>2016-04-10T13:05:48Z</time>
      </trkpt>
      <trkpt lat="44.32852" lon="3.85747">
        <ele>818.22</ele>
        <time>2016-04-10T13:05:49Z</time>
      </trkpt>
      <trkpt lat="44.32835" lon="3.85739">
        <ele>819.18</ele>
        <time>2016-04-10T13:05:50Z</time>
      </trkpt>
      <trkpt lat="44.32816" lon="3.85728">
        <ele>820.14</ele>
        <time>2016-04-10T13:05:51Z</time>
      </trkpt>
      <trkpt lat="44.32745" lon="3.85668">
        <ele>825.91</ele>
        <time>2016-04-10T13:05:56Z</time>
      </trkpt>
      <trkpt lat="44.32737" lon="3.85651">
        <ele>826.87</ele>
        <time>2016-04-10T13:05:57Z</time>
      </trkpt>
      <trkpt lat="44.32731" lon="3.85629">
        <ele>827.83</ele>
        <time>2016-04-10T13:05:58Z</time>
      </trkpt>
      <trkpt lat="44.32729" lon="3.85606">
        <ele>829.76</ele>
        <time>2016-04-10T13:05:59Z</time>
      </trkpt>
      <trkpt lat="44.32726" lon="3.85582">
        <ele>830.72</ele>
        <time>2016-04-10T13:06:00Z</time>
      </trkpt>
      <trkpt lat="44.32721" lon="3.8556">
        <ele>832.64</ele>
        <time>2016-04-10T13:06:01Z</time>
      </trkpt>
      <trkpt lat="44.32712" lon="3.85539">
        <ele>834.56</ele>
        <time>2016-04-10T13:06:02Z</time>
      </trkpt>
      <trkpt lat="44.32703" lon="3.85522">
        <ele>835.52</ele>
        <time>2016-04-10T13:06:03Z</time>
      </trkpt>
      <trkpt lat="44.32695" lon="3.85505">
        <ele>836.48</ele>
        <time>2016-04-10T13:06:04Z</time>
      </trkpt>
      <trkpt lat="44.32689" lon="3.85487">
        <ele>836.96</ele>
        <time>2016-04-10T13:06:05Z</time>
      </trkpt>
      <trkpt lat="44.32687" lon="3.85465">
        <ele>838.89</ele>
        <time>2016-04-10T13:06:06Z</time>
      </trkpt>
      <trkpt lat="44.3269" lon="3.85442">
        <ele>839.85</ele>
        <time>2016-04-10T13:06:07Z</time>
      </trkpt>
      <trkpt lat="44.32694" lon="3.85417">
        <ele>840.81</ele>
        <time>2016-04-10T13:06:08Z</time>
      </trkpt>
      <trkpt lat="44.32699" lon="3.85391">
        <ele>842.25</ele>
        <time>2016-04-10T13:06:09Z</time>
      </trkpt>
      <trkpt lat="44.32704" lon="3.85367">
        <ele>843.69</ele>
        <time>2016-04-10T13:06:10Z</time>
      </trkpt>
      <trkpt lat="44.32711" lon="3.85346">
        <ele>845.14</ele>
        <time>2016-04-10T13:06:11Z</time>
      </trkpt>
      <trkpt lat="44.3272" lon="3.85331">
        <ele>845.62</ele>
        <time>2016-04-10T13:06:12Z</time>
      </trkpt>
      <trkpt lat="44.32725" lon="3.85316">
        <ele>846.1</ele>
        <time>2016-04-10T13:06:13Z</time>
      </trkpt>
      <trkpt lat="44.32727" lon="3.85304">
        <ele>846.58</ele>
        <time>2016-04-10T13:06:14Z</time>
      </trkpt>
      <trkpt lat="44.32721" lon="3.85288">
        <ele>847.06</ele>
        <time>2016-04-10T13:06:15Z</time>
      </trkpt>
      <trkpt lat="44.32712" lon="3.85273">
        <ele>847.54</ele>
        <time>2016-04-10T13:06:16Z</time>
      </trkpt>
      <trkpt lat="44.32699" lon="3.85262">
        <ele>848.98</ele>
        <time>2016-04-10T13:06:17Z</time>
      </trkpt>
      <trkpt lat="44.32685" lon="3.85254">
        <ele>850.42</ele>
        <time>2016-04-10T13:06:18Z</time>
      </trkpt>
      <trkpt lat="44.32671" lon="3.85248">
        <ele>851.38</ele>
        <time>2016-04-10T13:06:19Z</time>
      </trkpt>
      <trkpt lat="44.32658" lon="3.85243">
        <ele>852.35</ele>
        <time>2016-04-10T13:06:20Z</time>
      </trkpt>
      <trkpt lat="44.32647" lon="3.85235">
        <ele>853.31</ele>
        <time>2016-04-10T13:06:21Z</time>
      </trkpt>
      <trkpt lat="44.32639" lon="3.85224">
        <ele>854.27</ele>
        <time>2016-04-10T13:06:22Z</time>
      </trkpt>
      <trkpt lat="44.32634" lon="3.85209">
        <ele>855.71</ele>
        <time>2016-04-10T13:06:23Z</time>
      </trkpt>
      <trkpt lat="44.32631" lon="3.85191">
        <ele>855.71</ele>
        <time>2016-04-10T13:06:24Z</time>
      </trkpt>
      <trkpt lat="44.32628" lon="3.85171">
        <ele>855.71</ele>
        <time>2016-04-10T13:06:25Z</time>
      </trkpt>
      <trkpt lat="44.32626" lon="3.85151">
        <ele>857.15</ele>
        <time>2016-04-10T13:06:26Z</time>
      </trkpt>
      <trkpt lat="44.32627" lon="3.8513">
        <ele>858.11</ele>
        <time>2016-04-10T13:06:27Z</time>
      </trkpt>
      <trkpt lat="44.3263" lon="3.8511">
        <ele>859.56</ele>
        <time>2016-04-10T13:06:28Z</time>
      </trkpt>
      <trkpt lat="44.32632" lon="3.85088">
        <ele>861</ele>
        <time>2016-04-10T13:06:29Z</time>
      </trkpt>
      <trkpt lat="44.32634" lon="3.85065">
        <ele>862.44</ele>
        <time>2016-04-10T13:06:30Z</time>
      </trkpt>
      <trkpt lat="44.3264" lon="3.85024">
        <ele>865.32</ele>
        <time>2016-04-10T13:06:32Z</time>
      </trkpt>
      <trkpt lat="44.32645" lon="3.85005">
        <ele>866.29</ele>
        <time>2016-04-10T13:06:33Z</time>
      </trkpt>
      <trkpt lat="44.32652" lon="3.8499">
        <ele>867.73</ele>
        <time>2016-04-10T13:06:34Z</time>
      </trkpt>
      <trkpt lat="44.32663" lon="3.84962">
        <ele>870.13</ele>
        <time>2016-04-10T13:06:36Z</time>
      </trkpt>
      <trkpt lat="44.32665" lon="3.84947">
        <ele>871.57</ele>
        <time>2016-04-10T13:06:37Z</time>
      </trkpt>
      <trkpt lat="44.32669" lon="3.8491">
        <ele>873.01</ele>
        <time>2016-04-10T13:06:39Z</time>
      </trkpt>
      <trkpt lat="44.32676" lon="3.84891">
        <ele>874.46</ele>
        <time>2016-04-10T13:06:40Z</time>
      </trkpt>
      <trkpt lat="44.32692" lon="3.84848">
        <ele>876.86</ele>
        <time>2016-04-10T13:06:42Z</time>
      </trkpt>
      <trkpt lat="44.32747" lon="3.84687">
        <ele>886.47</ele>
        <time>2016-04-10T13:06:49Z</time>
      </trkpt>
      <trkpt lat="44.32757" lon="3.84669">
        <ele>887.43</ele>
        <time>2016-04-10T13:06:50Z</time>
      </trkpt>
      <trkpt lat="44.32767" lon="3.84653">
        <ele>888.88</ele>
        <time>2016-04-10T13:06:51Z</time>
      </trkpt>
      <trkpt lat="44.32779" lon="3.8464">
        <ele>890.32</ele>
        <time>2016-04-10T13:06:52Z</time>
      </trkpt>
      <trkpt lat="44.3279" lon="3.84627">
        <ele>891.76</ele>
        <time>2016-04-10T13:06:53Z</time>
      </trkpt>
      <trkpt lat="44.32799" lon="3.84613">
        <ele>892.72</ele>
        <time>2016-04-10T13:06:54Z</time>
      </trkpt>
      <trkpt lat="44.32806" lon="3.84599">
        <ele>893.68</ele>
        <time>2016-04-10T13:06:55Z</time>
      </trkpt>
      <trkpt lat="44.32806" lon="3.84585">
        <ele>894.16</ele>
        <time>2016-04-10T13:06:56Z</time>
      </trkpt>
      <trkpt lat="44.32801" lon="3.84569">
        <ele>895.12</ele>
        <time>2016-04-10T13:06:57Z</time>
      </trkpt>
      <trkpt lat="44.32791" lon="3.84551">
        <ele>896.09</ele>
        <time>2016-04-10T13:06:58Z</time>
      </trkpt>
      <trkpt lat="44.3278" lon="3.84533">
        <ele>897.05</ele>
        <time>2016-04-10T13:06:59Z</time>
      </trkpt>
      <trkpt lat="44.32774" lon="3.84515">
        <ele>897.53</ele>
        <time>2016-04-10T13:07:00Z</time>
      </trkpt>
      <trkpt lat="44.3277" lon="3.84497">
        <ele>898.49</ele>
        <time>2016-04-10T13:07:01Z</time>
      </trkpt>
      <trkpt lat="44.32772" lon="3.84477">
        <ele>899.93</ele>
        <time>2016-04-10T13:07:02Z</time>
      </trkpt>
      <trkpt lat="44.32773" lon="3.84457">
        <ele>900.89</ele>
        <time>2016-04-10T13:07:03Z</time>
      </trkpt>
      <trkpt lat="44.32772" lon="3.84436">
        <ele>901.85</ele>
        <time>2016-04-10T13:07:04Z</time>
      </trkpt>
      <trkpt lat="44.3277" lon="3.84415">
        <ele>902.82</ele>
        <time>2016-04-10T13:07:05Z</time>
      </trkpt>
      <trkpt lat="44.32771" lon="3.84394">
        <ele>903.78</ele>
        <time>2016-04-10T13:07:06Z</time>
      </trkpt>
      <trkpt lat="44.32774" lon="3.84373">
        <ele>905.22</ele>
        <time>2016-04-10T13:07:07Z</time>
      </trkpt>
      <trkpt lat="44.32776" lon="3.84352">
        <ele>905.7</ele>
        <time>2016-04-10T13:07:08Z</time>
      </trkpt>
      <trkpt lat="44.3278" lon="3.84331">
        <ele>906.66</ele>
        <time>2016-04-10T13:07:09Z</time>
      </trkpt>
      <trkpt lat="44.32787" lon="3.84311">
        <ele>907.62</ele>
        <time>2016-04-10T13:07:10Z</time>
      </trkpt>
      <trkpt lat="44.32796" lon="3.84293">
        <ele>908.58</ele>
        <time>2016-04-10T13:07:11Z</time>
      </trkpt>
      <trkpt lat="44.32804" lon="3.84276">
        <ele>910.03</ele>
        <time>2016-04-10T13:07:12Z</time>
      </trkpt>
      <trkpt lat="44.32815" lon="3.84265">
        <ele>911.47</ele>
        <time>2016-04-10T13:07:13Z</time>
      </trkpt>
      <trkpt lat="44.32827" lon="3.84257">
        <ele>913.39</ele>
        <time>2016-04-10T13:07:14Z</time>
      </trkpt>
      <trkpt lat="44.32838" lon="3.84253">
        <ele>914.83</ele>
        <time>2016-04-10T13:07:15Z</time>
      </trkpt>
      <trkpt lat="44.32849" lon="3.84253">
        <ele>916.27</ele>
        <time>2016-04-10T13:07:16Z</time>
      </trkpt>
      <trkpt lat="44.32859" lon="3.84251">
        <ele>918.68</ele>
        <time>2016-04-10T13:07:17Z</time>
      </trkpt>
      <trkpt lat="44.32871" lon="3.84237">
        <ele>927.81</ele>
        <time>2016-04-10T13:07:20Z</time>
      </trkpt>
      <trkpt lat="44.32861" lon="3.84214">
        <ele>930.69</ele>
        <time>2016-04-10T13:07:22Z</time>
      </trkpt>
      <trkpt lat="44.32851" lon="3.842">
        <ele>932.14</ele>
        <time>2016-04-10T13:07:23Z</time>
      </trkpt>
      <trkpt lat="44.32841" lon="3.84186">
        <ele>933.58</ele>
        <time>2016-04-10T13:07:24Z</time>
      </trkpt>
      <trkpt lat="44.32834" lon="3.84171">
        <ele>935.02</ele>
        <time>2016-04-10T13:07:25Z</time>
      </trkpt>
      <trkpt lat="44.3283" lon="3.84156">
        <ele>934.54</ele>
        <time>2016-04-10T13:07:26Z</time>
      </trkpt>
      <trkpt lat="44.32831" lon="3.84141">
        <ele>935.5</ele>
        <time>2016-04-10T13:07:27Z</time>
      </trkpt>
      <trkpt lat="44.32834" lon="3.84126">
        <ele>936.94</ele>
        <time>2016-04-10T13:07:28Z</time>
      </trkpt>
      <trkpt lat="44.32839" lon="3.84111">
        <ele>938.38</ele>
        <time>2016-04-10T13:07:29Z</time>
      </trkpt>
      <trkpt lat="44.32843" lon="3.84093">
        <ele>938.86</ele>
        <time>2016-04-10T13:07:30Z</time>
      </trkpt>
      <trkpt lat="44.32845" lon="3.8408">
        <ele>939.83</ele>
        <time>2016-04-10T13:07:31Z</time>
      </trkpt>
      <trkpt lat="44.3284" lon="3.84068">
        <ele>941.75</ele>
        <time>2016-04-10T13:07:32Z</time>
      </trkpt>
      <trkpt lat="44.32825" lon="3.84066">
        <ele>943.19</ele>
        <time>2016-04-10T13:07:34Z</time>
      </trkpt>
      <trkpt lat="44.32809" lon="3.84062">
        <ele>946.07</ele>
        <time>2016-04-10T13:07:35Z</time>
      </trkpt>
      <trkpt lat="44.32792" lon="3.8406">
        <ele>946.56</ele>
        <time>2016-04-10T13:07:36Z</time>
      </trkpt>
      <trkpt lat="44.32777" lon="3.84058">
        <ele>945.11</ele>
        <time>2016-04-10T13:07:37Z</time>
      </trkpt>
      <trkpt lat="44.32746" lon="3.84056">
        <ele>943.19</ele>
        <time>2016-04-10T13:07:39Z</time>
      </trkpt>
      <trkpt lat="44.32732" lon="3.84059">
        <ele>942.71</ele>
        <time>2016-04-10T13:07:40Z</time>
      </trkpt>
      <trkpt lat="44.3272" lon="3.8406">
        <ele>941.75</ele>
        <time>2016-04-10T13:07:41Z</time>
      </trkpt>
      <trkpt lat="44.32709" lon="3.84059">
        <ele>941.75</ele>
        <time>2016-04-10T13:07:42Z</time>
      </trkpt>
      <trkpt lat="44.327" lon="3.84049">
        <ele>941.75</ele>
        <time>2016-04-10T13:07:43Z</time>
      </trkpt>
      <trkpt lat="44.32694" lon="3.84034">
        <ele>943.19</ele>
        <time>2016-04-10T13:07:44Z</time>
      </trkpt>
      <trkpt lat="44.32688" lon="3.84016">
        <ele>943.67</ele>
        <time>2016-04-10T13:07:45Z</time>
      </trkpt>
      <trkpt lat="44.32681" lon="3.83996">
        <ele>945.11</ele>
        <time>2016-04-10T13:07:46Z</time>
      </trkpt>
      <trkpt lat="44.32673" lon="3.83976">
        <ele>945.59</ele>
        <time>2016-04-10T13:07:47Z</time>
      </trkpt>
      <trkpt lat="44.32664" lon="3.83954">
        <ele>946.07</ele>
        <time>2016-04-10T13:07:48Z</time>
      </trkpt>
      <trkpt lat="44.32631" lon="3.83857">
        <ele>949.92</ele>
        <time>2016-04-10T13:07:53Z</time>
      </trkpt>
      <trkpt lat="44.32621" lon="3.83842">
        <ele>951.36</ele>
        <time>2016-04-10T13:07:54Z</time>
      </trkpt>
      <trkpt lat="44.32606" lon="3.83833">
        <ele>951.84</ele>
        <time>2016-04-10T13:07:55Z</time>
      </trkpt>
      <trkpt lat="44.3259" lon="3.83828">
        <ele>952.32</ele>
        <time>2016-04-10T13:07:56Z</time>
      </trkpt>
      <trkpt lat="44.32572" lon="3.83827">
        <ele>953.28</ele>
        <time>2016-04-10T13:07:57Z</time>
      </trkpt>
      <trkpt lat="44.32555" lon="3.83823">
        <ele>953.77</ele>
        <time>2016-04-10T13:07:58Z</time>
      </trkpt>
      <trkpt lat="44.32539" lon="3.83815">
        <ele>954.25</ele>
        <time>2016-04-10T13:07:59Z</time>
      </trkpt>
      <trkpt lat="44.32524" lon="3.83804">
        <ele>954.73</ele>
        <time>2016-04-10T13:08:00Z</time>
      </trkpt>
      <trkpt lat="44.32512" lon="3.83791">
        <ele>956.17</ele>
        <time>2016-04-10T13:08:01Z</time>
      </trkpt>
      <trkpt lat="44.32504" lon="3.83776">
        <ele>957.61</ele>
        <time>2016-04-10T13:08:02Z</time>
      </trkpt>
      <trkpt lat="44.32499" lon="3.83757">
        <ele>959.05</ele>
        <time>2016-04-10T13:08:03Z</time>
      </trkpt>
      <trkpt lat="44.32497" lon="3.83735">
        <ele>960.49</ele>
        <time>2016-04-10T13:08:04Z</time>
      </trkpt>
      <trkpt lat="44.32499" lon="3.83713">
        <ele>961.94</ele>
        <time>2016-04-10T13:08:05Z</time>
      </trkpt>
      <trkpt lat="44.32503" lon="3.83689">
        <ele>963.38</ele>
        <time>2016-04-10T13:08:06Z</time>
      </trkpt>
      <trkpt lat="44.32507" lon="3.83664">
        <ele>964.82</ele>
        <time>2016-04-10T13:08:07Z</time>
      </trkpt>
      <trkpt lat="44.32513" lon="3.83591">
        <ele>969.63</ele>
        <time>2016-04-10T13:08:10Z</time>
      </trkpt>
      <trkpt lat="44.32511" lon="3.83565">
        <ele>971.55</ele>
        <time>2016-04-10T13:08:11Z</time>
      </trkpt>
      <trkpt lat="44.32506" lon="3.8354">
        <ele>972.51</ele>
        <time>2016-04-10T13:08:12Z</time>
      </trkpt>
      <trkpt lat="44.325" lon="3.83517">
        <ele>974.43</ele>
        <time>2016-04-10T13:08:13Z</time>
      </trkpt>
      <trkpt lat="44.32492" lon="3.83494">
        <ele>975.88</ele>
        <time>2016-04-10T13:08:14Z</time>
      </trkpt>
      <trkpt lat="44.32479" lon="3.83454">
        <ele>978.76</ele>
        <time>2016-04-10T13:08:16Z</time>
      </trkpt>
      <trkpt lat="44.32476" lon="3.83434">
        <ele>980.68</ele>
        <time>2016-04-10T13:08:17Z</time>
      </trkpt>
      <trkpt lat="44.32472" lon="3.83399">
        <ele>983.57</ele>
        <time>2016-04-10T13:08:19Z</time>
      </trkpt>
      <trkpt lat="44.32468" lon="3.83383">
        <ele>984.53</ele>
        <time>2016-04-10T13:08:20Z</time>
      </trkpt>
      <trkpt lat="44.32458" lon="3.83372">
        <ele>984.53</ele>
        <time>2016-04-10T13:08:21Z</time>
      </trkpt>
      <trkpt lat="44.32446" lon="3.83363">
        <ele>985.49</ele>
        <time>2016-04-10T13:08:22Z</time>
      </trkpt>
      <trkpt lat="44.32432" lon="3.83354">
        <ele>986.93</ele>
        <time>2016-04-10T13:08:23Z</time>
      </trkpt>
      <trkpt lat="44.32416" lon="3.83347">
        <ele>987.89</ele>
        <time>2016-04-10T13:08:24Z</time>
      </trkpt>
      <trkpt lat="44.32403" lon="3.83335">
        <ele>989.33</ele>
        <time>2016-04-10T13:08:25Z</time>
      </trkpt>
      <trkpt lat="44.3239" lon="3.83319">
        <ele>990.3</ele>
        <time>2016-04-10T13:08:26Z</time>
      </trkpt>
      <trkpt lat="44.32379" lon="3.833">
        <ele>990.78</ele>
        <time>2016-04-10T13:08:27Z</time>
      </trkpt>
      <trkpt lat="44.32368" lon="3.83281">
        <ele>991.74</ele>
        <time>2016-04-10T13:08:28Z</time>
      </trkpt>
      <trkpt lat="44.32324" lon="3.83218">
        <ele>995.58</ele>
        <time>2016-04-10T13:08:32Z</time>
      </trkpt>
      <trkpt lat="44.32317" lon="3.83197">
        <ele>996.54</ele>
        <time>2016-04-10T13:08:33Z</time>
      </trkpt>
      <trkpt lat="44.32313" lon="3.83174">
        <ele>997.99</ele>
        <time>2016-04-10T13:08:34Z</time>
      </trkpt>
      <trkpt lat="44.32312" lon="3.83149">
        <ele>999.43</ele>
        <time>2016-04-10T13:08:35Z</time>
      </trkpt>
      <trkpt lat="44.32312" lon="3.83122">
        <ele>1000.39</ele>
        <time>2016-04-10T13:08:36Z</time>
      </trkpt>
      <trkpt lat="44.32313" lon="3.83095">
        <ele>1001.83</ele>
        <time>2016-04-10T13:08:37Z</time>
      </trkpt>
      <trkpt lat="44.32316" lon="3.83043">
        <ele>1004.72</ele>
        <time>2016-04-10T13:08:39Z</time>
      </trkpt>
      <trkpt lat="44.32329" lon="3.82964">
        <ele>1009.04</ele>
        <time>2016-04-10T13:08:43Z</time>
      </trkpt>
      <trkpt lat="44.32335" lon="3.8295">
        <ele>1010</ele>
        <time>2016-04-10T13:08:44Z</time>
      </trkpt>
      <trkpt lat="44.32344" lon="3.82936">
        <ele>1010.96</ele>
        <time>2016-04-10T13:08:45Z</time>
      </trkpt>
      <trkpt lat="44.32354" lon="3.82924">
        <ele>1012.41</ele>
        <time>2016-04-10T13:08:46Z</time>
      </trkpt>
      <trkpt lat="44.32366" lon="3.82915">
        <ele>1013.85</ele>
        <time>2016-04-10T13:08:47Z</time>
      </trkpt>
      <trkpt lat="44.32379" lon="3.82909">
        <ele>1015.29</ele>
        <time>2016-04-10T13:08:48Z</time>
      </trkpt>
      <trkpt lat="44.32391" lon="3.82905">
        <ele>1016.73</ele>
        <time>2016-04-10T13:08:49Z</time>
      </trkpt>
      <trkpt lat="44.32402" lon="3.82901">
        <ele>1017.69</ele>
        <time>2016-04-10T13:08:50Z</time>
      </trkpt>
      <trkpt lat="44.32412" lon="3.82894">
        <ele>1018.65</ele>
        <time>2016-04-10T13:08:51Z</time>
      </trkpt>
      <trkpt lat="44.32418" lon="3.82885">
        <ele>1019.62</ele>
        <time>2016-04-10T13:08:52Z</time>
      </trkpt>
      <trkpt lat="44.3242" lon="3.82871">
        <ele>1020.1</ele>
        <time>2016-04-10T13:08:53Z</time>
      </trkpt>
      <trkpt lat="44.32418" lon="3.82855">
        <ele>1020.58</ele>
        <time>2016-04-10T13:08:54Z</time>
      </trkpt>
      <trkpt lat="44.3241" lon="3.82834">
        <ele>1021.54</ele>
        <time>2016-04-10T13:08:55Z</time>
      </trkpt>
      <trkpt lat="44.32403" lon="3.82813">
        <ele>1022.98</ele>
        <time>2016-04-10T13:08:56Z</time>
      </trkpt>
      <trkpt lat="44.32399" lon="3.8279">
        <ele>1024.42</ele>
        <time>2016-04-10T13:08:57Z</time>
      </trkpt>
      <trkpt lat="44.32398" lon="3.82766">
        <ele>1025.38</ele>
        <time>2016-04-10T13:08:58Z</time>
      </trkpt>
      <trkpt lat="44.324" lon="3.8274">
        <ele>1026.83</ele>
        <time>2016-04-10T13:08:59Z</time>
      </trkpt>
      <trkpt lat="44.32402" lon="3.82714">
        <ele>1028.27</ele>
        <time>2016-04-10T13:09:00Z</time>
      </trkpt>
      <trkpt lat="44.32403" lon="3.82687">
        <ele>1029.71</ele>
        <time>2016-04-10T13:09:01Z</time>
      </trkpt>
      <trkpt lat="44.32405" lon="3.8266">
        <ele>1031.15</ele>
        <time>2016-04-10T13:09:02Z</time>
      </trkpt>
      <trkpt lat="44.32408" lon="3.82634">
        <ele>1032.59</ele>
        <time>2016-04-10T13:09:03Z</time>
      </trkpt>
      <trkpt lat="44.32432" lon="3.82519">
        <ele>1039.8</ele>
        <time>2016-04-10T13:09:08Z</time>
      </trkpt>
      <trkpt lat="44.32434" lon="3.82496">
        <ele>1040.76</ele>
        <time>2016-04-10T13:09:09Z</time>
      </trkpt>
      <trkpt lat="44.32434" lon="3.8247">
        <ele>1042.21</ele>
        <time>2016-04-10T13:09:10Z</time>
      </trkpt>
      <trkpt lat="44.32434" lon="3.82443">
        <ele>1043.65</ele>
        <time>2016-04-10T13:09:11Z</time>
      </trkpt>
      <trkpt lat="44.32435" lon="3.82415">
        <ele>1045.57</ele>
        <time>2016-04-10T13:09:12Z</time>
      </trkpt>
      <trkpt lat="44.32438" lon="3.82387">
        <ele>1047.01</ele>
        <time>2016-04-10T13:09:13Z</time>
      </trkpt>
      <trkpt lat="44.32442" lon="3.82358">
        <ele>1048.45</ele>
        <time>2016-04-10T13:09:14Z</time>
      </trkpt>
      <trkpt lat="44.32448" lon="3.8233">
        <ele>1050.38</ele>
        <time>2016-04-10T13:09:15Z</time>
      </trkpt>
      <trkpt lat="44.32457" lon="3.82302">
        <ele>1051.82</ele>
        <time>2016-04-10T13:09:16Z</time>
      </trkpt>
      <trkpt lat="44.32467" lon="3.82275">
        <ele>1053.74</ele>
        <time>2016-04-10T13:09:17Z</time>
      </trkpt>
      <trkpt lat="44.3248" lon="3.82247">
        <ele>1055.67</ele>
        <time>2016-04-10T13:09:18Z</time>
      </trkpt>
      <trkpt lat="44.32575" lon="3.82066">
        <ele>1068.16</ele>
        <time>2016-04-10T13:09:25Z</time>
      </trkpt>
      <trkpt lat="44.32596" lon="3.82025">
        <ele>1071.05</ele>
        <time>2016-04-10T13:09:27Z</time>
      </trkpt>
      <trkpt lat="44.32612" lon="3.81995">
        <ele>1073.45</ele>
        <time>2016-04-10T13:09:29Z</time>
      </trkpt>
      <trkpt lat="44.32615" lon="3.81976">
        <ele>1074.89</ele>
        <time>2016-04-10T13:09:30Z</time>
      </trkpt>
      <trkpt lat="44.32615" lon="3.81957">
        <ele>1075.85</ele>
        <time>2016-04-10T13:09:31Z</time>
      </trkpt>
      <trkpt lat="44.32616" lon="3.8191">
        <ele>1078.74</ele>
        <time>2016-04-10T13:09:33Z</time>
      </trkpt>
      <trkpt lat="44.32619" lon="3.81884">
        <ele>1079.7</ele>
        <time>2016-04-10T13:09:34Z</time>
      </trkpt>
      <trkpt lat="44.32633" lon="3.818">
        <ele>1084.02</ele>
        <time>2016-04-10T13:09:38Z</time>
      </trkpt>
      <trkpt lat="44.32632" lon="3.81788">
        <ele>1084.5</ele>
        <time>2016-04-10T13:09:39Z</time>
      </trkpt>
      <trkpt lat="44.32631" lon="3.81779">
        <ele>1084.99</ele>
        <time>2016-04-10T13:09:40Z</time>
      </trkpt>
      <trkpt lat="44.32628" lon="3.81773">
        <ele>1085.47</ele>
        <time>2016-04-10T13:09:41Z</time>
      </trkpt>
      <trkpt lat="44.32625" lon="3.81768">
        <ele>1085.95</ele>
        <time>2016-04-10T13:09:42Z</time>
      </trkpt>
      <trkpt lat="44.32623" lon="3.81765">
        <ele>1086.43</ele>
        <time>2016-04-10T13:09:43Z</time>
      </trkpt>
      <trkpt lat="44.32621" lon="3.81762">
        <ele>1086.43</ele>
        <time>2016-04-10T13:09:44Z</time>
      </trkpt>
      <trkpt lat="44.32621" lon="3.8176">
        <ele>1086.43</ele>
        <time>2016-04-10T13:09:45Z</time>
      </trkpt>
      <trkpt lat="44.32621" lon="3.81759">
        <ele>1086.43</ele>
        <time>2016-04-10T13:09:46Z</time>
      </trkpt>
      <trkpt lat="44.32621" lon="3.81757">
        <ele>1086.91</ele>
        <time>2016-04-10T13:09:47Z</time>
      </trkpt>
      <trkpt lat="44.32622" lon="3.81756">
        <ele>1086.91</ele>
        <time>2016-04-10T13:09:48Z</time>
      </trkpt>
      <trkpt lat="44.32622" lon="3.81757">
        <ele>1086.43</ele>
        <time>2016-04-10T13:10:06Z</time>
      </trkpt>
      <trkpt lat="44.32623" lon="3.81756">
        <ele>1086.43</ele>
        <time>2016-04-10T13:10:38Z</time>
      </trkpt>
      <trkpt lat="44.32621" lon="3.81753">
        <ele>1082.1</ele>
        <time>2016-04-10T13:16:46Z</time>
      </trkpt>
      <trkpt lat="44.32623" lon="3.81742">
        <ele>1083.06</ele>
        <time>2016-04-10T13:16:48Z</time>
      </trkpt>
      <trkpt lat="44.32626" lon="3.81733">
        <ele>1083.54</ele>
        <time>2016-04-10T13:16:49Z</time>
      </trkpt>
      <trkpt lat="44.32646" lon="3.81685">
        <ele>1087.87</ele>
        <time>2016-04-10T13:16:53Z</time>
      </trkpt>
      <trkpt lat="44.32653" lon="3.81672">
        <ele>1088.83</ele>
        <time>2016-04-10T13:16:54Z</time>
      </trkpt>
      <trkpt lat="44.32662" lon="3.8166">
        <ele>1089.31</ele>
        <time>2016-04-10T13:16:55Z</time>
      </trkpt>
      <trkpt lat="44.32671" lon="3.81648">
        <ele>1089.79</ele>
        <time>2016-04-10T13:16:56Z</time>
      </trkpt>
      <trkpt lat="44.32681" lon="3.81637">
        <ele>1090.27</ele>
        <time>2016-04-10T13:16:57Z</time>
      </trkpt>
      <trkpt lat="44.32691" lon="3.81628">
        <ele>1090.75</ele>
        <time>2016-04-10T13:16:58Z</time>
      </trkpt>
      <trkpt lat="44.32702" lon="3.81619">
        <ele>1090.75</ele>
        <time>2016-04-10T13:16:59Z</time>
      </trkpt>
      <trkpt lat="44.32801" lon="3.81574">
        <ele>1088.83</ele>
        <time>2016-04-10T13:17:06Z</time>
      </trkpt>
      <trkpt lat="44.32832" lon="3.81569">
        <ele>1087.39</ele>
        <time>2016-04-10T13:17:08Z</time>
      </trkpt>
      <trkpt lat="44.32861" lon="3.81562">
        <ele>1086.43</ele>
        <time>2016-04-10T13:17:10Z</time>
      </trkpt>
      <trkpt lat="44.32876" lon="3.81562">
        <ele>1085.95</ele>
        <time>2016-04-10T13:17:11Z</time>
      </trkpt>
      <trkpt lat="44.32891" lon="3.81564">
        <ele>1084.99</ele>
        <time>2016-04-10T13:17:12Z</time>
      </trkpt>
      <trkpt lat="44.33011" lon="3.81601">
        <ele>1080.66</ele>
        <time>2016-04-10T13:17:19Z</time>
      </trkpt>
      <trkpt lat="44.3312" lon="3.81623">
        <ele>1077.29</ele>
        <time>2016-04-10T13:17:26Z</time>
      </trkpt>
      <trkpt lat="44.33131" lon="3.81633">
        <ele>1076.33</ele>
        <time>2016-04-10T13:17:27Z</time>
      </trkpt>
      <trkpt lat="44.33139" lon="3.81647">
        <ele>1075.37</ele>
        <time>2016-04-10T13:17:28Z</time>
      </trkpt>
      <trkpt lat="44.33143" lon="3.81662">
        <ele>1074.89</ele>
        <time>2016-04-10T13:17:29Z</time>
      </trkpt>
      <trkpt lat="44.33142" lon="3.81677">
        <ele>1074.41</ele>
        <time>2016-04-10T13:17:30Z</time>
      </trkpt>
      <trkpt lat="44.3314" lon="3.81694">
        <ele>1073.45</ele>
        <time>2016-04-10T13:17:31Z</time>
      </trkpt>
      <trkpt lat="44.33137" lon="3.8171">
        <ele>1072.97</ele>
        <time>2016-04-10T13:17:32Z</time>
      </trkpt>
      <trkpt lat="44.33135" lon="3.81725">
        <ele>1072.49</ele>
        <time>2016-04-10T13:17:33Z</time>
      </trkpt>
      <trkpt lat="44.33136" lon="3.81736">
        <ele>1072.49</ele>
        <time>2016-04-10T13:17:34Z</time>
      </trkpt>
      <trkpt lat="44.33141" lon="3.81744">
        <ele>1072.01</ele>
        <time>2016-04-10T13:17:35Z</time>
      </trkpt>
      <trkpt lat="44.33149" lon="3.81747">
        <ele>1071.53</ele>
        <time>2016-04-10T13:17:36Z</time>
      </trkpt>
      <trkpt lat="44.33159" lon="3.81744">
        <ele>1071.53</ele>
        <time>2016-04-10T13:17:37Z</time>
      </trkpt>
      <trkpt lat="44.33169" lon="3.81733">
        <ele>1072.01</ele>
        <time>2016-04-10T13:17:38Z</time>
      </trkpt>
      <trkpt lat="44.33181" lon="3.81722">
        <ele>1072.01</ele>
        <time>2016-04-10T13:17:39Z</time>
      </trkpt>
      <trkpt lat="44.33193" lon="3.81709">
        <ele>1072.49</ele>
        <time>2016-04-10T13:17:40Z</time>
      </trkpt>
      <trkpt lat="44.33262" lon="3.81629">
        <ele>1072.97</ele>
        <time>2016-04-10T13:17:46Z</time>
      </trkpt>
      <trkpt lat="44.33275" lon="3.81617">
        <ele>1073.45</ele>
        <time>2016-04-10T13:17:47Z</time>
      </trkpt>
      <trkpt lat="44.33357" lon="3.81517">
        <ele>1075.37</ele>
        <time>2016-04-10T13:17:53Z</time>
      </trkpt>
      <trkpt lat="44.33378" lon="3.81474">
        <ele>1075.37</ele>
        <time>2016-04-10T13:17:55Z</time>
      </trkpt>
      <trkpt lat="44.33387" lon="3.8145">
        <ele>1074.89</ele>
        <time>2016-04-10T13:17:56Z</time>
      </trkpt>
      <trkpt lat="44.33394" lon="3.81423">
        <ele>1074.41</ele>
        <time>2016-04-10T13:17:57Z</time>
      </trkpt>
      <trkpt lat="44.33401" lon="3.81395">
        <ele>1073.45</ele>
        <time>2016-04-10T13:17:58Z</time>
      </trkpt>
      <trkpt lat="44.33407" lon="3.81367">
        <ele>1072.49</ele>
        <time>2016-04-10T13:17:59Z</time>
      </trkpt>
      <trkpt lat="44.33429" lon="3.81219">
        <ele>1067.2</ele>
        <time>2016-04-10T13:18:05Z</time>
      </trkpt>
      <trkpt lat="44.33425" lon="3.812">
        <ele>1066.24</ele>
        <time>2016-04-10T13:18:06Z</time>
      </trkpt>
      <trkpt lat="44.3342" lon="3.81183">
        <ele>1066.24</ele>
        <time>2016-04-10T13:18:07Z</time>
      </trkpt>
      <trkpt lat="44.33413" lon="3.81151">
        <ele>1066.24</ele>
        <time>2016-04-10T13:18:09Z</time>
      </trkpt>
      <trkpt lat="44.33413" lon="3.81137">
        <ele>1066.24</ele>
        <time>2016-04-10T13:18:10Z</time>
      </trkpt>
      <trkpt lat="44.33416" lon="3.81121">
        <ele>1066.24</ele>
        <time>2016-04-10T13:18:11Z</time>
      </trkpt>
      <trkpt lat="44.33423" lon="3.81103">
        <ele>1065.76</ele>
        <time>2016-04-10T13:18:12Z</time>
      </trkpt>
      <trkpt lat="44.33433" lon="3.81083">
        <ele>1064.8</ele>
        <time>2016-04-10T13:18:13Z</time>
      </trkpt>
      <trkpt lat="44.33442" lon="3.81062">
        <ele>1063.84</ele>
        <time>2016-04-10T13:18:14Z</time>
      </trkpt>
      <trkpt lat="44.33469" lon="3.80987">
        <ele>1060.47</ele>
        <time>2016-04-10T13:18:18Z</time>
      </trkpt>
      <trkpt lat="44.33469" lon="3.80964">
        <ele>1059.99</ele>
        <time>2016-04-10T13:18:19Z</time>
      </trkpt>
      <trkpt lat="44.33466" lon="3.80946">
        <ele>1059.03</ele>
        <time>2016-04-10T13:18:20Z</time>
      </trkpt>
      <trkpt lat="44.33459" lon="3.80926">
        <ele>1058.07</ele>
        <time>2016-04-10T13:18:21Z</time>
      </trkpt>
      <trkpt lat="44.3345" lon="3.80905">
        <ele>1057.59</ele>
        <time>2016-04-10T13:18:22Z</time>
      </trkpt>
      <trkpt lat="44.33439" lon="3.80882">
        <ele>1056.63</ele>
        <time>2016-04-10T13:18:23Z</time>
      </trkpt>
      <trkpt lat="44.33429" lon="3.80859">
        <ele>1057.11</ele>
        <time>2016-04-10T13:18:24Z</time>
      </trkpt>
      <trkpt lat="44.33418" lon="3.80838">
        <ele>1057.59</ele>
        <time>2016-04-10T13:18:25Z</time>
      </trkpt>
      <trkpt lat="44.33407" lon="3.80818">
        <ele>1057.59</ele>
        <time>2016-04-10T13:18:26Z</time>
      </trkpt>
      <trkpt lat="44.33388" lon="3.80779">
        <ele>1058.07</ele>
        <time>2016-04-10T13:18:28Z</time>
      </trkpt>
      <trkpt lat="44.33382" lon="3.80757">
        <ele>1058.07</ele>
        <time>2016-04-10T13:18:29Z</time>
      </trkpt>
      <trkpt lat="44.33353" lon="3.80556">
        <ele>1051.82</ele>
        <time>2016-04-10T13:18:37Z</time>
      </trkpt>
      <trkpt lat="44.33348" lon="3.80532">
        <ele>1050.86</ele>
        <time>2016-04-10T13:18:38Z</time>
      </trkpt>
      <trkpt lat="44.33338" lon="3.80509">
        <ele>1049.42</ele>
        <time>2016-04-10T13:18:39Z</time>
      </trkpt>
      <trkpt lat="44.33328" lon="3.80489">
        <ele>1048.45</ele>
        <time>2016-04-10T13:18:40Z</time>
      </trkpt>
      <trkpt lat="44.33317" lon="3.80469">
        <ele>1047.49</ele>
        <time>2016-04-10T13:18:41Z</time>
      </trkpt>
      <trkpt lat="44.33301" lon="3.80452">
        <ele>1047.01</ele>
        <time>2016-04-10T13:18:42Z</time>
      </trkpt>
      <trkpt lat="44.33285" lon="3.80435">
        <ele>1046.53</ele>
        <time>2016-04-10T13:18:43Z</time>
      </trkpt>
      <trkpt lat="44.33245" lon="3.80378">
        <ele>1044.61</ele>
        <time>2016-04-10T13:18:46Z</time>
      </trkpt>
      <trkpt lat="44.33234" lon="3.80355">
        <ele>1044.13</ele>
        <time>2016-04-10T13:18:47Z</time>
      </trkpt>
      <trkpt lat="44.33225" lon="3.8033">
        <ele>1043.65</ele>
        <time>2016-04-10T13:18:48Z</time>
      </trkpt>
      <trkpt lat="44.33192" lon="3.80191">
        <ele>1043.17</ele>
        <time>2016-04-10T13:18:53Z</time>
      </trkpt>
      <trkpt lat="44.33191" lon="3.80165">
        <ele>1042.69</ele>
        <time>2016-04-10T13:18:54Z</time>
      </trkpt>
      <trkpt lat="44.33192" lon="3.80137">
        <ele>1042.69</ele>
        <time>2016-04-10T13:18:55Z</time>
      </trkpt>
      <trkpt lat="44.332" lon="3.8011">
        <ele>1043.17</ele>
        <time>2016-04-10T13:18:56Z</time>
      </trkpt>
      <trkpt lat="44.33212" lon="3.80086">
        <ele>1042.69</ele>
        <time>2016-04-10T13:18:57Z</time>
      </trkpt>
      <trkpt lat="44.33224" lon="3.80062">
        <ele>1042.69</ele>
        <time>2016-04-10T13:18:58Z</time>
      </trkpt>
      <trkpt lat="44.33266" lon="3.79957">
        <ele>1041.73</ele>
        <time>2016-04-10T13:19:02Z</time>
      </trkpt>
      <trkpt lat="44.33273" lon="3.79929">
        <ele>1041.25</ele>
        <time>2016-04-10T13:19:03Z</time>
      </trkpt>
      <trkpt lat="44.33278" lon="3.79899">
        <ele>1040.76</ele>
        <time>2016-04-10T13:19:04Z</time>
      </trkpt>
      <trkpt lat="44.33281" lon="3.7987">
        <ele>1040.28</ele>
        <time>2016-04-10T13:19:05Z</time>
      </trkpt>
      <trkpt lat="44.33284" lon="3.7984">
        <ele>1039.8</ele>
        <time>2016-04-10T13:19:06Z</time>
      </trkpt>
      <trkpt lat="44.33285" lon="3.7981">
        <ele>1038.84</ele>
        <time>2016-04-10T13:19:07Z</time>
      </trkpt>
      <trkpt lat="44.33281" lon="3.79635">
        <ele>1033.07</ele>
        <time>2016-04-10T13:19:14Z</time>
      </trkpt>
      <trkpt lat="44.33284" lon="3.79619">
        <ele>1032.59</ele>
        <time>2016-04-10T13:19:15Z</time>
      </trkpt>
      <trkpt lat="44.33292" lon="3.79606">
        <ele>1033.07</ele>
        <time>2016-04-10T13:19:16Z</time>
      </trkpt>
      <trkpt lat="44.33308" lon="3.79594">
        <ele>1032.59</ele>
        <time>2016-04-10T13:19:17Z</time>
      </trkpt>
      <trkpt lat="44.33325" lon="3.79586">
        <ele>1032.11</ele>
        <time>2016-04-10T13:19:18Z</time>
      </trkpt>
      <trkpt lat="44.33344" lon="3.79579">
        <ele>1032.11</ele>
        <time>2016-04-10T13:19:19Z</time>
      </trkpt>
      <trkpt lat="44.33367" lon="3.79584">
        <ele>1031.63</ele>
        <time>2016-04-10T13:19:20Z</time>
      </trkpt>
      <trkpt lat="44.33388" lon="3.79588">
        <ele>1031.15</ele>
        <time>2016-04-10T13:19:21Z</time>
      </trkpt>
      <trkpt lat="44.33409" lon="3.79592">
        <ele>1030.67</ele>
        <time>2016-04-10T13:19:22Z</time>
      </trkpt>
      <trkpt lat="44.33429" lon="3.79598">
        <ele>1030.19</ele>
        <time>2016-04-10T13:19:23Z</time>
      </trkpt>
      <trkpt lat="44.33504" lon="3.79603">
        <ele>1031.63</ele>
        <time>2016-04-10T13:19:27Z</time>
      </trkpt>
      <trkpt lat="44.33522" lon="3.79584">
        <ele>1033.55</ele>
        <time>2016-04-10T13:19:28Z</time>
      </trkpt>
      <trkpt lat="44.33539" lon="3.79566">
        <ele>1034.52</ele>
        <time>2016-04-10T13:19:29Z</time>
      </trkpt>
      <trkpt lat="44.33557" lon="3.79546">
        <ele>1034.52</ele>
        <time>2016-04-10T13:19:30Z</time>
      </trkpt>
      <trkpt lat="44.33572" lon="3.7952">
        <ele>1034.04</ele>
        <time>2016-04-10T13:19:31Z</time>
      </trkpt>
      <trkpt lat="44.33585" lon="3.79496">
        <ele>1033.55</ele>
        <time>2016-04-10T13:19:32Z</time>
      </trkpt>
      <trkpt lat="44.33598" lon="3.79471">
        <ele>1033.55</ele>
        <time>2016-04-10T13:19:33Z</time>
      </trkpt>
      <trkpt lat="44.3361" lon="3.79447">
        <ele>1032.59</ele>
        <time>2016-04-10T13:19:34Z</time>
      </trkpt>
      <trkpt lat="44.33649" lon="3.79384">
        <ele>1031.15</ele>
        <time>2016-04-10T13:19:37Z</time>
      </trkpt>
      <trkpt lat="44.33663" lon="3.79368">
        <ele>1031.15</ele>
        <time>2016-04-10T13:19:38Z</time>
      </trkpt>
      <trkpt lat="44.33679" lon="3.79353">
        <ele>1030.67</ele>
        <time>2016-04-10T13:19:39Z</time>
      </trkpt>
      <trkpt lat="44.33696" lon="3.7934">
        <ele>1030.67</ele>
        <time>2016-04-10T13:19:40Z</time>
      </trkpt>
      <trkpt lat="44.33714" lon="3.79329">
        <ele>1030.67</ele>
        <time>2016-04-10T13:19:41Z</time>
      </trkpt>
      <trkpt lat="44.33792" lon="3.79276">
        <ele>1029.71</ele>
        <time>2016-04-10T13:19:46Z</time>
      </trkpt>
      <trkpt lat="44.33806" lon="3.7926">
        <ele>1029.71</ele>
        <time>2016-04-10T13:19:47Z</time>
      </trkpt>
      <trkpt lat="44.33865" lon="3.79171">
        <ele>1027.31</ele>
        <time>2016-04-10T13:19:52Z</time>
      </trkpt>
      <trkpt lat="44.33872" lon="3.79152">
        <ele>1026.83</ele>
        <time>2016-04-10T13:19:53Z</time>
      </trkpt>
      <trkpt lat="44.33886" lon="3.79112">
        <ele>1025.86</ele>
        <time>2016-04-10T13:19:55Z</time>
      </trkpt>
      <trkpt lat="44.33897" lon="3.79093">
        <ele>1025.38</ele>
        <time>2016-04-10T13:19:56Z</time>
      </trkpt>
      <trkpt lat="44.3391" lon="3.79076">
        <ele>1025.38</ele>
        <time>2016-04-10T13:19:57Z</time>
      </trkpt>
      <trkpt lat="44.33938" lon="3.79044">
        <ele>1024.42</ele>
        <time>2016-04-10T13:19:59Z</time>
      </trkpt>
      <trkpt lat="44.33955" lon="3.79034">
        <ele>1024.42</ele>
        <time>2016-04-10T13:20:00Z</time>
      </trkpt>
      <trkpt lat="44.33974" lon="3.79026">
        <ele>1023.94</ele>
        <time>2016-04-10T13:20:01Z</time>
      </trkpt>
      <trkpt lat="44.3405" lon="3.78988">
        <ele>1023.46</ele>
        <time>2016-04-10T13:20:05Z</time>
      </trkpt>
      <trkpt lat="44.34066" lon="3.78972">
        <ele>1022.98</ele>
        <time>2016-04-10T13:20:06Z</time>
      </trkpt>
      <trkpt lat="44.34081" lon="3.78953">
        <ele>1022.98</ele>
        <time>2016-04-10T13:20:07Z</time>
      </trkpt>
      <trkpt lat="44.34096" lon="3.78932">
        <ele>1022.98</ele>
        <time>2016-04-10T13:20:08Z</time>
      </trkpt>
      <trkpt lat="44.34113" lon="3.78913">
        <ele>1022.5</ele>
        <time>2016-04-10T13:20:09Z</time>
      </trkpt>
      <trkpt lat="44.34131" lon="3.78896">
        <ele>1022.5</ele>
        <time>2016-04-10T13:20:10Z</time>
      </trkpt>
      <trkpt lat="44.34212" lon="3.78829">
        <ele>1022.02</ele>
        <time>2016-04-10T13:20:14Z</time>
      </trkpt>
      <trkpt lat="44.34296" lon="3.78784">
        <ele>1021.54</ele>
        <time>2016-04-10T13:20:18Z</time>
      </trkpt>
      <trkpt lat="44.34318" lon="3.78778">
        <ele>1021.54</ele>
        <time>2016-04-10T13:20:19Z</time>
      </trkpt>
      <trkpt lat="44.34341" lon="3.78776">
        <ele>1021.06</ele>
        <time>2016-04-10T13:20:20Z</time>
      </trkpt>
      <trkpt lat="44.34433" lon="3.78778">
        <ele>1019.62</ele>
        <time>2016-04-10T13:20:24Z</time>
      </trkpt>
      <trkpt lat="44.34457" lon="3.78774">
        <ele>1019.13</ele>
        <time>2016-04-10T13:20:25Z</time>
      </trkpt>
      <trkpt lat="44.34615" lon="3.78742">
        <ele>1017.21</ele>
        <time>2016-04-10T13:20:32Z</time>
      </trkpt>
      <trkpt lat="44.34642" lon="3.7875">
        <ele>1017.21</ele>
        <time>2016-04-10T13:20:34Z</time>
      </trkpt>
      <trkpt lat="44.34654" lon="3.78755">
        <ele>1016.73</ele>
        <time>2016-04-10T13:20:35Z</time>
      </trkpt>
      <trkpt lat="44.34672" lon="3.78761">
        <ele>1016.25</ele>
        <time>2016-04-10T13:20:37Z</time>
      </trkpt>
      <trkpt lat="44.34681" lon="3.78762">
        <ele>1016.25</ele>
        <time>2016-04-10T13:20:38Z</time>
      </trkpt>
      <trkpt lat="44.34735" lon="3.78761">
        <ele>1015.29</ele>
        <time>2016-04-10T13:20:44Z</time>
      </trkpt>
      <trkpt lat="44.34745" lon="3.78753">
        <ele>1014.81</ele>
        <time>2016-04-10T13:20:45Z</time>
      </trkpt>
      <trkpt lat="44.34754" lon="3.78741">
        <ele>1014.33</ele>
        <time>2016-04-10T13:20:46Z</time>
      </trkpt>
      <trkpt lat="44.34763" lon="3.78724">
        <ele>1013.85</ele>
        <time>2016-04-10T13:20:47Z</time>
      </trkpt>
      <trkpt lat="44.34772" lon="3.78703">
        <ele>1013.37</ele>
        <time>2016-04-10T13:20:48Z</time>
      </trkpt>
      <trkpt lat="44.34781" lon="3.7868">
        <ele>1012.89</ele>
        <time>2016-04-10T13:20:49Z</time>
      </trkpt>
      <trkpt lat="44.34867" lon="3.78568">
        <ele>1010</ele>
        <time>2016-04-10T13:20:55Z</time>
      </trkpt>
      <trkpt lat="44.34981" lon="3.78482">
        <ele>1006.64</ele>
        <time>2016-04-10T13:21:01Z</time>
      </trkpt>
      <trkpt lat="44.34997" lon="3.78461">
        <ele>1006.16</ele>
        <time>2016-04-10T13:21:02Z</time>
      </trkpt>
      <trkpt lat="44.35012" lon="3.78438">
        <ele>1005.68</ele>
        <time>2016-04-10T13:21:03Z</time>
      </trkpt>
      <trkpt lat="44.35038" lon="3.78392">
        <ele>1004.23</ele>
        <time>2016-04-10T13:21:05Z</time>
      </trkpt>
      <trkpt lat="44.35048" lon="3.78369">
        <ele>1003.75</ele>
        <time>2016-04-10T13:21:06Z</time>
      </trkpt>
      <trkpt lat="44.35075" lon="3.78307">
        <ele>1001.35</ele>
        <time>2016-04-10T13:21:09Z</time>
      </trkpt>
      <trkpt lat="44.35091" lon="3.7829">
        <ele>1000.39</ele>
        <time>2016-04-10T13:21:10Z</time>
      </trkpt>
      <trkpt lat="44.35111" lon="3.78274">
        <ele>999.43</ele>
        <time>2016-04-10T13:21:11Z</time>
      </trkpt>
      <trkpt lat="44.35264" lon="3.78147">
        <ele>994.14</ele>
        <time>2016-04-10T13:21:18Z</time>
      </trkpt>
      <trkpt lat="44.35368" lon="3.78024">
        <ele>990.78</ele>
        <time>2016-04-10T13:21:24Z</time>
      </trkpt>
      <trkpt lat="44.35441" lon="3.77934">
        <ele>989.81</ele>
        <time>2016-04-10T13:21:29Z</time>
      </trkpt>
      <trkpt lat="44.35458" lon="3.77922">
        <ele>989.81</ele>
        <time>2016-04-10T13:21:30Z</time>
      </trkpt>
      <trkpt lat="44.3549" lon="3.77896">
        <ele>989.33</ele>
        <time>2016-04-10T13:21:32Z</time>
      </trkpt>
      <trkpt lat="44.35505" lon="3.7788">
        <ele>989.33</ele>
        <time>2016-04-10T13:21:33Z</time>
      </trkpt>
      <trkpt lat="44.35521" lon="3.77862">
        <ele>989.33</ele>
        <time>2016-04-10T13:21:34Z</time>
      </trkpt>
      <trkpt lat="44.35538" lon="3.77847">
        <ele>989.33</ele>
        <time>2016-04-10T13:21:35Z</time>
      </trkpt>
      <trkpt lat="44.35556" lon="3.77831">
        <ele>988.85</ele>
        <time>2016-04-10T13:21:36Z</time>
      </trkpt>
      <trkpt lat="44.35572" lon="3.77812">
        <ele>988.85</ele>
        <time>2016-04-10T13:21:37Z</time>
      </trkpt>
      <trkpt lat="44.35588" lon="3.77791">
        <ele>988.37</ele>
        <time>2016-04-10T13:21:38Z</time>
      </trkpt>
      <trkpt lat="44.35602" lon="3.77769">
        <ele>988.37</ele>
        <time>2016-04-10T13:21:39Z</time>
      </trkpt>
      <trkpt lat="44.35615" lon="3.77746">
        <ele>987.89</ele>
        <time>2016-04-10T13:21:40Z</time>
      </trkpt>
      <trkpt lat="44.35626" lon="3.77723">
        <ele>987.41</ele>
        <time>2016-04-10T13:21:41Z</time>
      </trkpt>
      <trkpt lat="44.35638" lon="3.77701">
        <ele>986.93</ele>
        <time>2016-04-10T13:21:42Z</time>
      </trkpt>
      <trkpt lat="44.35652" lon="3.77683">
        <ele>986.45</ele>
        <time>2016-04-10T13:21:43Z</time>
      </trkpt>
      <trkpt lat="44.35667" lon="3.77669">
        <ele>986.93</ele>
        <time>2016-04-10T13:21:44Z</time>
      </trkpt>
      <trkpt lat="44.35682" lon="3.77655">
        <ele>986.45</ele>
        <time>2016-04-10T13:21:45Z</time>
      </trkpt>
      <trkpt lat="44.35694" lon="3.77638">
        <ele>986.45</ele>
        <time>2016-04-10T13:21:46Z</time>
      </trkpt>
      <trkpt lat="44.35704" lon="3.77618">
        <ele>985.97</ele>
        <time>2016-04-10T13:21:47Z</time>
      </trkpt>
      <trkpt lat="44.3571" lon="3.77593">
        <ele>985.97</ele>
        <time>2016-04-10T13:21:48Z</time>
      </trkpt>
      <trkpt lat="44.35719" lon="3.7757">
        <ele>985.97</ele>
        <time>2016-04-10T13:21:49Z</time>
      </trkpt>
      <trkpt lat="44.35731" lon="3.77549">
        <ele>985.97</ele>
        <time>2016-04-10T13:21:50Z</time>
      </trkpt>
      <trkpt lat="44.35747" lon="3.77535">
        <ele>985.97</ele>
        <time>2016-04-10T13:21:51Z</time>
      </trkpt>
      <trkpt lat="44.35764" lon="3.77521">
        <ele>986.45</ele>
        <time>2016-04-10T13:21:52Z</time>
      </trkpt>
      <trkpt lat="44.3578" lon="3.77504">
        <ele>986.45</ele>
        <time>2016-04-10T13:21:53Z</time>
      </trkpt>
      <trkpt lat="44.35795" lon="3.77482">
        <ele>986.45</ele>
        <time>2016-04-10T13:21:54Z</time>
      </trkpt>
      <trkpt lat="44.35809" lon="3.77458">
        <ele>986.45</ele>
        <time>2016-04-10T13:21:55Z</time>
      </trkpt>
      <trkpt lat="44.35824" lon="3.77434">
        <ele>985.97</ele>
        <time>2016-04-10T13:21:56Z</time>
      </trkpt>
      <trkpt lat="44.35839" lon="3.77412">
        <ele>985.49</ele>
        <time>2016-04-10T13:21:57Z</time>
      </trkpt>
      <trkpt lat="44.35864" lon="3.77364">
        <ele>985.01</ele>
        <time>2016-04-10T13:21:59Z</time>
      </trkpt>
      <trkpt lat="44.35875" lon="3.77337">
        <ele>985.01</ele>
        <time>2016-04-10T13:22:00Z</time>
      </trkpt>
      <trkpt lat="44.35883" lon="3.77309">
        <ele>985.01</ele>
        <time>2016-04-10T13:22:01Z</time>
      </trkpt>
      <trkpt lat="44.35914" lon="3.77128">
        <ele>984.05</ele>
        <time>2016-04-10T13:22:08Z</time>
      </trkpt>
      <trkpt lat="44.35912" lon="3.77108">
        <ele>984.05</ele>
        <time>2016-04-10T13:22:09Z</time>
      </trkpt>
      <trkpt lat="44.35905" lon="3.77089">
        <ele>983.57</ele>
        <time>2016-04-10T13:22:10Z</time>
      </trkpt>
      <trkpt lat="44.35894" lon="3.77077">
        <ele>982.6</ele>
        <time>2016-04-10T13:22:11Z</time>
      </trkpt>
      <trkpt lat="44.3588" lon="3.7707">
        <ele>982.12</ele>
        <time>2016-04-10T13:22:12Z</time>
      </trkpt>
      <trkpt lat="44.35864" lon="3.7707">
        <ele>981.16</ele>
        <time>2016-04-10T13:22:13Z</time>
      </trkpt>
      <trkpt lat="44.35847" lon="3.77072">
        <ele>980.68</ele>
        <time>2016-04-10T13:22:14Z</time>
      </trkpt>
      <trkpt lat="44.35828" lon="3.77079">
        <ele>980.68</ele>
        <time>2016-04-10T13:22:15Z</time>
      </trkpt>
      <trkpt lat="44.35808" lon="3.77086">
        <ele>980.2</ele>
        <time>2016-04-10T13:22:16Z</time>
      </trkpt>
      <trkpt lat="44.35791" lon="3.7709">
        <ele>979.72</ele>
        <time>2016-04-10T13:22:17Z</time>
      </trkpt>
      <trkpt lat="44.35777" lon="3.77091">
        <ele>979.72</ele>
        <time>2016-04-10T13:22:18Z</time>
      </trkpt>
      <trkpt lat="44.35763" lon="3.77088">
        <ele>979.24</ele>
        <time>2016-04-10T13:22:19Z</time>
      </trkpt>
      <trkpt lat="44.35753" lon="3.77078">
        <ele>978.76</ele>
        <time>2016-04-10T13:22:20Z</time>
      </trkpt>
      <trkpt lat="44.35747" lon="3.77062">
        <ele>979.72</ele>
        <time>2016-04-10T13:22:21Z</time>
      </trkpt>
      <trkpt lat="44.35745" lon="3.77038">
        <ele>979.24</ele>
        <time>2016-04-10T13:22:22Z</time>
      </trkpt>
      <trkpt lat="44.35742" lon="3.77014">
        <ele>979.24</ele>
        <time>2016-04-10T13:22:23Z</time>
      </trkpt>
      <trkpt lat="44.35742" lon="3.76991">
        <ele>978.28</ele>
        <time>2016-04-10T13:22:24Z</time>
      </trkpt>
      <trkpt lat="44.35746" lon="3.76968">
        <ele>977.8</ele>
        <time>2016-04-10T13:22:25Z</time>
      </trkpt>
      <trkpt lat="44.35754" lon="3.76948">
        <ele>977.8</ele>
        <time>2016-04-10T13:22:26Z</time>
      </trkpt>
      <trkpt lat="44.35767" lon="3.7693">
        <ele>977.8</ele>
        <time>2016-04-10T13:22:27Z</time>
      </trkpt>
      <trkpt lat="44.35784" lon="3.76912">
        <ele>977.8</ele>
        <time>2016-04-10T13:22:28Z</time>
      </trkpt>
      <trkpt lat="44.35802" lon="3.76896">
        <ele>976.84</ele>
        <time>2016-04-10T13:22:29Z</time>
      </trkpt>
      <trkpt lat="44.35821" lon="3.76881">
        <ele>976.36</ele>
        <time>2016-04-10T13:22:30Z</time>
      </trkpt>
      <trkpt lat="44.35842" lon="3.76869">
        <ele>975.39</ele>
        <time>2016-04-10T13:22:31Z</time>
      </trkpt>
      <trkpt lat="44.35865" lon="3.76862">
        <ele>974.91</ele>
        <time>2016-04-10T13:22:32Z</time>
      </trkpt>
      <trkpt lat="44.35887" lon="3.76857">
        <ele>974.43</ele>
        <time>2016-04-10T13:22:33Z</time>
      </trkpt>
      <trkpt lat="44.35909" lon="3.76851">
        <ele>974.43</ele>
        <time>2016-04-10T13:22:34Z</time>
      </trkpt>
      <trkpt lat="44.35931" lon="3.7684">
        <ele>973.95</ele>
        <time>2016-04-10T13:22:35Z</time>
      </trkpt>
      <trkpt lat="44.3595" lon="3.76824">
        <ele>972.99</ele>
        <time>2016-04-10T13:22:36Z</time>
      </trkpt>
      <trkpt lat="44.35964" lon="3.76802">
        <ele>972.03</ele>
        <time>2016-04-10T13:22:37Z</time>
      </trkpt>
      <trkpt lat="44.35976" lon="3.76781">
        <ele>971.07</ele>
        <time>2016-04-10T13:22:38Z</time>
      </trkpt>
      <trkpt lat="44.35986" lon="3.7676">
        <ele>970.11</ele>
        <time>2016-04-10T13:22:39Z</time>
      </trkpt>
      <trkpt lat="44.35997" lon="3.76743">
        <ele>969.15</ele>
        <time>2016-04-10T13:22:40Z</time>
      </trkpt>
      <trkpt lat="44.36012" lon="3.76733">
        <ele>968.18</ele>
        <time>2016-04-10T13:22:41Z</time>
      </trkpt>
      <trkpt lat="44.3603" lon="3.76726">
        <ele>967.7</ele>
        <time>2016-04-10T13:22:42Z</time>
      </trkpt>
      <trkpt lat="44.36051" lon="3.76721">
        <ele>967.22</ele>
        <time>2016-04-10T13:22:43Z</time>
      </trkpt>
      <trkpt lat="44.36072" lon="3.76716">
        <ele>966.74</ele>
        <time>2016-04-10T13:22:44Z</time>
      </trkpt>
      <trkpt lat="44.3614" lon="3.76691">
        <ele>963.86</ele>
        <time>2016-04-10T13:22:48Z</time>
      </trkpt>
      <trkpt lat="44.36151" lon="3.76683">
        <ele>962.9</ele>
        <time>2016-04-10T13:22:49Z</time>
      </trkpt>
      <trkpt lat="44.36158" lon="3.76671">
        <ele>961.94</ele>
        <time>2016-04-10T13:22:50Z</time>
      </trkpt>
      <trkpt lat="44.36162" lon="3.76659">
        <ele>961.46</ele>
        <time>2016-04-10T13:22:51Z</time>
      </trkpt>
      <trkpt lat="44.36164" lon="3.76645">
        <ele>960.49</ele>
        <time>2016-04-10T13:22:52Z</time>
      </trkpt>
      <trkpt lat="44.36161" lon="3.7663">
        <ele>960.49</ele>
        <time>2016-04-10T13:22:53Z</time>
      </trkpt>
      <trkpt lat="44.36158" lon="3.76617">
        <ele>960.01</ele>
        <time>2016-04-10T13:22:54Z</time>
      </trkpt>
      <trkpt lat="44.36147" lon="3.76604">
        <ele>960.01</ele>
        <time>2016-04-10T13:22:55Z</time>
      </trkpt>
      <trkpt lat="44.36135" lon="3.766">
        <ele>959.05</ele>
        <time>2016-04-10T13:22:56Z</time>
      </trkpt>
      <trkpt lat="44.36122" lon="3.76599">
        <ele>958.09</ele>
        <time>2016-04-10T13:22:57Z</time>
      </trkpt>
      <trkpt lat="44.36107" lon="3.76602">
        <ele>957.61</ele>
        <time>2016-04-10T13:22:58Z</time>
      </trkpt>
      <trkpt lat="44.36092" lon="3.76605">
        <ele>957.13</ele>
        <time>2016-04-10T13:22:59Z</time>
      </trkpt>
      <trkpt lat="44.36077" lon="3.76604">
        <ele>957.13</ele>
        <time>2016-04-10T13:23:00Z</time>
      </trkpt>
      <trkpt lat="44.36063" lon="3.76599">
        <ele>956.17</ele>
        <time>2016-04-10T13:23:01Z</time>
      </trkpt>
      <trkpt lat="44.3605" lon="3.76588">
        <ele>955.69</ele>
        <time>2016-04-10T13:23:02Z</time>
      </trkpt>
      <trkpt lat="44.36042" lon="3.7657">
        <ele>955.21</ele>
        <time>2016-04-10T13:23:03Z</time>
      </trkpt>
      <trkpt lat="44.36041" lon="3.76545">
        <ele>956.65</ele>
        <time>2016-04-10T13:23:04Z</time>
      </trkpt>
      <trkpt lat="44.36041" lon="3.76521">
        <ele>956.65</ele>
        <time>2016-04-10T13:23:05Z</time>
      </trkpt>
      <trkpt lat="44.36044" lon="3.76492">
        <ele>957.61</ele>
        <time>2016-04-10T13:23:06Z</time>
      </trkpt>
      <trkpt lat="44.36046" lon="3.76463">
        <ele>957.61</ele>
        <time>2016-04-10T13:23:07Z</time>
      </trkpt>
      <trkpt lat="44.36045" lon="3.76435">
        <ele>957.13</ele>
        <time>2016-04-10T13:23:08Z</time>
      </trkpt>
      <trkpt lat="44.36042" lon="3.76406">
        <ele>956.17</ele>
        <time>2016-04-10T13:23:09Z</time>
      </trkpt>
      <trkpt lat="44.36032" lon="3.76307">
        <ele>955.21</ele>
        <time>2016-04-10T13:23:12Z</time>
      </trkpt>
      <trkpt lat="44.36022" lon="3.7606">
        <ele>948</ele>
        <time>2016-04-10T13:23:20Z</time>
      </trkpt>
      <trkpt lat="44.36013" lon="3.75987">
        <ele>945.11</ele>
        <time>2016-04-10T13:23:23Z</time>
      </trkpt>
      <trkpt lat="44.36015" lon="3.75964">
        <ele>944.15</ele>
        <time>2016-04-10T13:23:24Z</time>
      </trkpt>
      <trkpt lat="44.36019" lon="3.75918">
        <ele>942.71</ele>
        <time>2016-04-10T13:23:26Z</time>
      </trkpt>
      <trkpt lat="44.36018" lon="3.75895">
        <ele>941.75</ele>
        <time>2016-04-10T13:23:27Z</time>
      </trkpt>
      <trkpt lat="44.36015" lon="3.75873">
        <ele>941.27</ele>
        <time>2016-04-10T13:23:28Z</time>
      </trkpt>
      <trkpt lat="44.3599" lon="3.75777">
        <ele>937.42</ele>
        <time>2016-04-10T13:23:34Z</time>
      </trkpt>
      <trkpt lat="44.3598" lon="3.7575">
        <ele>936.46</ele>
        <time>2016-04-10T13:23:36Z</time>
      </trkpt>
      <trkpt lat="44.35977" lon="3.75734">
        <ele>935.5</ele>
        <time>2016-04-10T13:23:37Z</time>
      </trkpt>
      <trkpt lat="44.35975" lon="3.75718">
        <ele>935.02</ele>
        <time>2016-04-10T13:23:38Z</time>
      </trkpt>
      <trkpt lat="44.35976" lon="3.75699">
        <ele>934.54</ele>
        <time>2016-04-10T13:23:39Z</time>
      </trkpt>
      <trkpt lat="44.3598" lon="3.75681">
        <ele>933.58</ele>
        <time>2016-04-10T13:23:40Z</time>
      </trkpt>
      <trkpt lat="44.35986" lon="3.75663">
        <ele>932.62</ele>
        <time>2016-04-10T13:23:41Z</time>
      </trkpt>
      <trkpt lat="44.35996" lon="3.75647">
        <ele>931.65</ele>
        <time>2016-04-10T13:23:42Z</time>
      </trkpt>
      <trkpt lat="44.36011" lon="3.75635">
        <ele>931.17</ele>
        <time>2016-04-10T13:23:43Z</time>
      </trkpt>
      <trkpt lat="44.36026" lon="3.75622">
        <ele>930.21</ele>
        <time>2016-04-10T13:23:44Z</time>
      </trkpt>
      <trkpt lat="44.36041" lon="3.75606">
        <ele>929.25</ele>
        <time>2016-04-10T13:23:45Z</time>
      </trkpt>
      <trkpt lat="44.36056" lon="3.75588">
        <ele>928.29</ele>
        <time>2016-04-10T13:23:46Z</time>
      </trkpt>
      <trkpt lat="44.36127" lon="3.75528">
        <ele>925.41</ele>
        <time>2016-04-10T13:23:50Z</time>
      </trkpt>
      <trkpt lat="44.36284" lon="3.75436">
        <ele>917.72</ele>
        <time>2016-04-10T13:23:58Z</time>
      </trkpt>
      <trkpt lat="44.363" lon="3.75422">
        <ele>916.75</ele>
        <time>2016-04-10T13:23:59Z</time>
      </trkpt>
      <trkpt lat="44.36315" lon="3.75402">
        <ele>915.31</ele>
        <time>2016-04-10T13:24:00Z</time>
      </trkpt>
      <trkpt lat="44.36327" lon="3.75377">
        <ele>914.35</ele>
        <time>2016-04-10T13:24:01Z</time>
      </trkpt>
      <trkpt lat="44.36338" lon="3.75351">
        <ele>913.39</ele>
        <time>2016-04-10T13:24:02Z</time>
      </trkpt>
      <trkpt lat="44.36347" lon="3.75325">
        <ele>912.43</ele>
        <time>2016-04-10T13:24:03Z</time>
      </trkpt>
      <trkpt lat="44.36353" lon="3.75298">
        <ele>910.99</ele>
        <time>2016-04-10T13:24:04Z</time>
      </trkpt>
      <trkpt lat="44.36356" lon="3.75269">
        <ele>909.54</ele>
        <time>2016-04-10T13:24:05Z</time>
      </trkpt>
      <trkpt lat="44.36354" lon="3.75238">
        <ele>908.1</ele>
        <time>2016-04-10T13:24:06Z</time>
      </trkpt>
      <trkpt lat="44.3635" lon="3.75209">
        <ele>906.18</ele>
        <time>2016-04-10T13:24:07Z</time>
      </trkpt>
      <trkpt lat="44.36344" lon="3.75183">
        <ele>904.74</ele>
        <time>2016-04-10T13:24:08Z</time>
      </trkpt>
      <trkpt lat="44.36336" lon="3.75158">
        <ele>904.26</ele>
        <time>2016-04-10T13:24:09Z</time>
      </trkpt>
      <trkpt lat="44.36328" lon="3.75137">
        <ele>903.78</ele>
        <time>2016-04-10T13:24:10Z</time>
      </trkpt>
      <trkpt lat="44.36315" lon="3.75093">
        <ele>902.82</ele>
        <time>2016-04-10T13:24:13Z</time>
      </trkpt>
      <trkpt lat="44.36313" lon="3.75083">
        <ele>902.33</ele>
        <time>2016-04-10T13:24:14Z</time>
      </trkpt>
      <trkpt lat="44.36307" lon="3.75041">
        <ele>901.85</ele>
        <time>2016-04-10T13:24:22Z</time>
      </trkpt>
      <trkpt lat="44.36304" lon="3.75036">
        <ele>901.37</ele>
        <time>2016-04-10T13:24:25Z</time>
      </trkpt>
      <trkpt lat="44.36303" lon="3.75036">
        <ele>903.78</ele>
        <time>2016-04-10T13:24:42Z</time>
      </trkpt>
      <trkpt lat="44.36304" lon="3.75042">
        <ele>904.74</ele>
        <time>2016-04-10T13:27:05Z</time>
      </trkpt>
      <trkpt lat="44.36303" lon="3.75022">
        <ele>906.18</ele>
        <time>2016-04-10T13:27:32Z</time>
      </trkpt>
      <trkpt lat="44.3631" lon="3.74949">
        <ele>902.82</ele>
        <time>2016-04-10T13:27:37Z</time>
      </trkpt>
      <trkpt lat="44.36314" lon="3.7493">
        <ele>901.85</ele>
        <time>2016-04-10T13:27:38Z</time>
      </trkpt>
      <trkpt lat="44.3632" lon="3.74914">
        <ele>900.89</ele>
        <time>2016-04-10T13:27:39Z</time>
      </trkpt>
      <trkpt lat="44.36332" lon="3.74869">
        <ele>898.49</ele>
        <time>2016-04-10T13:27:42Z</time>
      </trkpt>
      <trkpt lat="44.36334" lon="3.74855">
        <ele>898.01</ele>
        <time>2016-04-10T13:27:43Z</time>
      </trkpt>
      <trkpt lat="44.36341" lon="3.74773">
        <ele>894.64</ele>
        <time>2016-04-10T13:27:51Z</time>
      </trkpt>
      <trkpt lat="44.36344" lon="3.74752">
        <ele>893.68</ele>
        <time>2016-04-10T13:27:53Z</time>
      </trkpt>
      <trkpt lat="44.36344" lon="3.74741">
        <ele>893.68</ele>
        <time>2016-04-10T13:27:54Z</time>
      </trkpt>
      <trkpt lat="44.36343" lon="3.7473">
        <ele>892.72</ele>
        <time>2016-04-10T13:27:55Z</time>
      </trkpt>
      <trkpt lat="44.36337" lon="3.74696">
        <ele>890.8</ele>
        <time>2016-04-10T13:27:58Z</time>
      </trkpt>
      <trkpt lat="44.36333" lon="3.74684">
        <ele>890.32</ele>
        <time>2016-04-10T13:27:59Z</time>
      </trkpt>
      <trkpt lat="44.36309" lon="3.74617">
        <ele>886.47</ele>
        <time>2016-04-10T13:28:05Z</time>
      </trkpt>
      <trkpt lat="44.36307" lon="3.74604">
        <ele>885.51</ele>
        <time>2016-04-10T13:28:06Z</time>
      </trkpt>
      <trkpt lat="44.36306" lon="3.74591">
        <ele>884.55</ele>
        <time>2016-04-10T13:28:07Z</time>
      </trkpt>
      <trkpt lat="44.36303" lon="3.74487">
        <ele>878.78</ele>
        <time>2016-04-10T13:28:16Z</time>
      </trkpt>
      <trkpt lat="44.36304" lon="3.74474">
        <ele>878.3</ele>
        <time>2016-04-10T13:28:17Z</time>
      </trkpt>
      <trkpt lat="44.36306" lon="3.74463">
        <ele>877.82</ele>
        <time>2016-04-10T13:28:18Z</time>
      </trkpt>
      <trkpt lat="44.36317" lon="3.74422">
        <ele>876.86</ele>
        <time>2016-04-10T13:28:25Z</time>
      </trkpt>
      <trkpt lat="44.36323" lon="3.74407">
        <ele>877.34</ele>
        <time>2016-04-10T13:28:38Z</time>
      </trkpt>
      <trkpt lat="44.36327" lon="3.74388">
        <ele>879.26</ele>
        <time>2016-04-10T13:29:29Z</time>
      </trkpt>
      <trkpt lat="44.36334" lon="3.74363">
        <ele>879.74</ele>
        <time>2016-04-10T13:29:39Z</time>
      </trkpt>
      <trkpt lat="44.36338" lon="3.74358">
        <ele>880.22</ele>
        <time>2016-04-10T13:29:40Z</time>
      </trkpt>
      <trkpt lat="44.36365" lon="3.74339">
        <ele>880.71</ele>
        <time>2016-04-10T13:29:45Z</time>
      </trkpt>
      <trkpt lat="44.36369" lon="3.74334">
        <ele>881.19</ele>
        <time>2016-04-10T13:29:46Z</time>
      </trkpt>
      <trkpt lat="44.36376" lon="3.74323">
        <ele>881.67</ele>
        <time>2016-04-10T13:29:48Z</time>
      </trkpt>
      <trkpt lat="44.36377" lon="3.74309">
        <ele>882.15</ele>
        <time>2016-04-10T13:29:49Z</time>
      </trkpt>
      <trkpt lat="44.36377" lon="3.74298">
        <ele>882.15</ele>
        <time>2016-04-10T13:29:50Z</time>
      </trkpt>
      <trkpt lat="44.36379" lon="3.74275">
        <ele>881.67</ele>
        <time>2016-04-10T13:29:52Z</time>
      </trkpt>
      <trkpt lat="44.36384" lon="3.74263">
        <ele>882.63</ele>
        <time>2016-04-10T13:29:53Z</time>
      </trkpt>
      <trkpt lat="44.36391" lon="3.74251">
        <ele>883.59</ele>
        <time>2016-04-10T13:29:54Z</time>
      </trkpt>
      <trkpt lat="44.36399" lon="3.74239">
        <ele>884.55</ele>
        <time>2016-04-10T13:29:55Z</time>
      </trkpt>
      <trkpt lat="44.36409" lon="3.74229">
        <ele>885.51</ele>
        <time>2016-04-10T13:29:56Z</time>
      </trkpt>
      <trkpt lat="44.36418" lon="3.74218">
        <ele>886.47</ele>
        <time>2016-04-10T13:29:57Z</time>
      </trkpt>
      <trkpt lat="44.36506" lon="3.74104">
        <ele>894.16</ele>
        <time>2016-04-10T13:30:06Z</time>
      </trkpt>
      <trkpt lat="44.3661" lon="3.73953">
        <ele>902.33</ele>
        <time>2016-04-10T13:30:15Z</time>
      </trkpt>
      <trkpt lat="44.36632" lon="3.73897">
        <ele>905.22</ele>
        <time>2016-04-10T13:30:18Z</time>
      </trkpt>
      <trkpt lat="44.36637" lon="3.73879">
        <ele>906.18</ele>
        <time>2016-04-10T13:30:19Z</time>
      </trkpt>
      <trkpt lat="44.36642" lon="3.73861">
        <ele>906.66</ele>
        <time>2016-04-10T13:30:20Z</time>
      </trkpt>
      <trkpt lat="44.36648" lon="3.73843">
        <ele>907.62</ele>
        <time>2016-04-10T13:30:21Z</time>
      </trkpt>
      <trkpt lat="44.36657" lon="3.73827">
        <ele>908.58</ele>
        <time>2016-04-10T13:30:22Z</time>
      </trkpt>
      <trkpt lat="44.36666" lon="3.73813">
        <ele>909.06</ele>
        <time>2016-04-10T13:30:23Z</time>
      </trkpt>
      <trkpt lat="44.36675" lon="3.73801">
        <ele>910.03</ele>
        <time>2016-04-10T13:30:24Z</time>
      </trkpt>
      <trkpt lat="44.36682" lon="3.7379">
        <ele>910.99</ele>
        <time>2016-04-10T13:30:25Z</time>
      </trkpt>
      <trkpt lat="44.36689" lon="3.73781">
        <ele>911.47</ele>
        <time>2016-04-10T13:30:26Z</time>
      </trkpt>
      <trkpt lat="44.36692" lon="3.73772">
        <ele>911.95</ele>
        <time>2016-04-10T13:30:27Z</time>
      </trkpt>
      <trkpt lat="44.36693" lon="3.73763">
        <ele>911.95</ele>
        <time>2016-04-10T13:30:28Z</time>
      </trkpt>
      <trkpt lat="44.36691" lon="3.73753">
        <ele>911.47</ele>
        <time>2016-04-10T13:30:29Z</time>
      </trkpt>
      <trkpt lat="44.36685" lon="3.73742">
        <ele>911.95</ele>
        <time>2016-04-10T13:30:30Z</time>
      </trkpt>
      <trkpt lat="44.36679" lon="3.7373">
        <ele>912.91</ele>
        <time>2016-04-10T13:30:31Z</time>
      </trkpt>
      <trkpt lat="44.36674" lon="3.73716">
        <ele>913.39</ele>
        <time>2016-04-10T13:30:32Z</time>
      </trkpt>
      <trkpt lat="44.3667" lon="3.73701">
        <ele>913.39</ele>
        <time>2016-04-10T13:30:33Z</time>
      </trkpt>
      <trkpt lat="44.36668" lon="3.73686">
        <ele>913.87</ele>
        <time>2016-04-10T13:30:34Z</time>
      </trkpt>
      <trkpt lat="44.36667" lon="3.7367">
        <ele>914.35</ele>
        <time>2016-04-10T13:30:35Z</time>
      </trkpt>
      <trkpt lat="44.36669" lon="3.73653">
        <ele>914.83</ele>
        <time>2016-04-10T13:30:36Z</time>
      </trkpt>
      <trkpt lat="44.36671" lon="3.73637">
        <ele>915.31</ele>
        <time>2016-04-10T13:30:37Z</time>
      </trkpt>
      <trkpt lat="44.36676" lon="3.7362">
        <ele>915.79</ele>
        <time>2016-04-10T13:30:38Z</time>
      </trkpt>
      <trkpt lat="44.36682" lon="3.73604">
        <ele>916.27</ele>
        <time>2016-04-10T13:30:39Z</time>
      </trkpt>
      <trkpt lat="44.36688" lon="3.73589">
        <ele>916.75</ele>
        <time>2016-04-10T13:30:40Z</time>
      </trkpt>
      <trkpt lat="44.36729" lon="3.7347">
        <ele>921.56</ele>
        <time>2016-04-10T13:30:48Z</time>
      </trkpt>
      <trkpt lat="44.36732" lon="3.73459">
        <ele>922.52</ele>
        <time>2016-04-10T13:30:49Z</time>
      </trkpt>
      <trkpt lat="44.36732" lon="3.73447">
        <ele>923.48</ele>
        <time>2016-04-10T13:30:50Z</time>
      </trkpt>
      <trkpt lat="44.3673" lon="3.73434">
        <ele>923.96</ele>
        <time>2016-04-10T13:30:51Z</time>
      </trkpt>
      <trkpt lat="44.36726" lon="3.73421">
        <ele>924.45</ele>
        <time>2016-04-10T13:30:52Z</time>
      </trkpt>
      <trkpt lat="44.36721" lon="3.73407">
        <ele>925.41</ele>
        <time>2016-04-10T13:30:53Z</time>
      </trkpt>
      <trkpt lat="44.36716" lon="3.73394">
        <ele>925.89</ele>
        <time>2016-04-10T13:30:54Z</time>
      </trkpt>
      <trkpt lat="44.36709" lon="3.73383">
        <ele>926.85</ele>
        <time>2016-04-10T13:30:55Z</time>
      </trkpt>
      <trkpt lat="44.36698" lon="3.73375">
        <ele>926.85</ele>
        <time>2016-04-10T13:30:56Z</time>
      </trkpt>
      <trkpt lat="44.36687" lon="3.73369">
        <ele>926.85</ele>
        <time>2016-04-10T13:30:57Z</time>
      </trkpt>
      <trkpt lat="44.36677" lon="3.73367">
        <ele>925.89</ele>
        <time>2016-04-10T13:30:58Z</time>
      </trkpt>
      <trkpt lat="44.36666" lon="3.73372">
        <ele>924.45</ele>
        <time>2016-04-10T13:30:59Z</time>
      </trkpt>
      <trkpt lat="44.36653" lon="3.7338">
        <ele>923.96</ele>
        <time>2016-04-10T13:31:00Z</time>
      </trkpt>
      <trkpt lat="44.36639" lon="3.73392">
        <ele>923.96</ele>
        <time>2016-04-10T13:31:01Z</time>
      </trkpt>
      <trkpt lat="44.36622" lon="3.73404">
        <ele>923.48</ele>
        <time>2016-04-10T13:31:02Z</time>
      </trkpt>
      <trkpt lat="44.36603" lon="3.73412">
        <ele>923</ele>
        <time>2016-04-10T13:31:03Z</time>
      </trkpt>
      <trkpt lat="44.36584" lon="3.73417">
        <ele>923</ele>
        <time>2016-04-10T13:31:04Z</time>
      </trkpt>
      <trkpt lat="44.36564" lon="3.73418">
        <ele>922.52</ele>
        <time>2016-04-10T13:31:05Z</time>
      </trkpt>
      <trkpt lat="44.36545" lon="3.73416">
        <ele>922.04</ele>
        <time>2016-04-10T13:31:06Z</time>
      </trkpt>
      <trkpt lat="44.36525" lon="3.73413">
        <ele>922.04</ele>
        <time>2016-04-10T13:31:07Z</time>
      </trkpt>
      <trkpt lat="44.36487" lon="3.73417">
        <ele>921.56</ele>
        <time>2016-04-10T13:31:09Z</time>
      </trkpt>
      <trkpt lat="44.36467" lon="3.73426">
        <ele>921.56</ele>
        <time>2016-04-10T13:31:10Z</time>
      </trkpt>
      <trkpt lat="44.36446" lon="3.73438">
        <ele>922.04</ele>
        <time>2016-04-10T13:31:11Z</time>
      </trkpt>
      <trkpt lat="44.36285" lon="3.73501">
        <ele>922.52</ele>
        <time>2016-04-10T13:31:19Z</time>
      </trkpt>
      <trkpt lat="44.36265" lon="3.73505">
        <ele>922.52</ele>
        <time>2016-04-10T13:31:20Z</time>
      </trkpt>
      <trkpt lat="44.36243" lon="3.73506">
        <ele>922.52</ele>
        <time>2016-04-10T13:31:21Z</time>
      </trkpt>
      <trkpt lat="44.36156" lon="3.73495">
        <ele>923</ele>
        <time>2016-04-10T13:31:26Z</time>
      </trkpt>
      <trkpt lat="44.36144" lon="3.73486">
        <ele>921.56</ele>
        <time>2016-04-10T13:31:27Z</time>
      </trkpt>
      <trkpt lat="44.36135" lon="3.73473">
        <ele>921.56</ele>
        <time>2016-04-10T13:31:28Z</time>
      </trkpt>
      <trkpt lat="44.36132" lon="3.73454">
        <ele>921.56</ele>
        <time>2016-04-10T13:31:29Z</time>
      </trkpt>
      <trkpt lat="44.36139" lon="3.73434">
        <ele>923.96</ele>
        <time>2016-04-10T13:31:30Z</time>
      </trkpt>
      <trkpt lat="44.3615" lon="3.73417">
        <ele>923.96</ele>
        <time>2016-04-10T13:31:31Z</time>
      </trkpt>
      <trkpt lat="44.36162" lon="3.73401">
        <ele>923.48</ele>
        <time>2016-04-10T13:31:32Z</time>
      </trkpt>
      <trkpt lat="44.36177" lon="3.73385">
        <ele>923.48</ele>
        <time>2016-04-10T13:31:33Z</time>
      </trkpt>
      <trkpt lat="44.36193" lon="3.73369">
        <ele>923</ele>
        <time>2016-04-10T13:31:34Z</time>
      </trkpt>
      <trkpt lat="44.36209" lon="3.7335">
        <ele>922.52</ele>
        <time>2016-04-10T13:31:35Z</time>
      </trkpt>
      <trkpt lat="44.36224" lon="3.73329">
        <ele>921.56</ele>
        <time>2016-04-10T13:31:36Z</time>
      </trkpt>
      <trkpt lat="44.3626" lon="3.73257">
        <ele>920.12</ele>
        <time>2016-04-10T13:31:39Z</time>
      </trkpt>
      <trkpt lat="44.36267" lon="3.7323">
        <ele>919.16</ele>
        <time>2016-04-10T13:31:40Z</time>
      </trkpt>
      <trkpt lat="44.36272" lon="3.73201">
        <ele>918.2</ele>
        <time>2016-04-10T13:31:41Z</time>
      </trkpt>
      <trkpt lat="44.36273" lon="3.73172">
        <ele>917.24</ele>
        <time>2016-04-10T13:31:42Z</time>
      </trkpt>
      <trkpt lat="44.36271" lon="3.73144">
        <ele>916.27</ele>
        <time>2016-04-10T13:31:43Z</time>
      </trkpt>
      <trkpt lat="44.36268" lon="3.73121">
        <ele>915.31</ele>
        <time>2016-04-10T13:31:44Z</time>
      </trkpt>
      <trkpt lat="44.36263" lon="3.73105">
        <ele>914.35</ele>
        <time>2016-04-10T13:31:45Z</time>
      </trkpt>
      <trkpt lat="44.36256" lon="3.73086">
        <ele>913.87</ele>
        <time>2016-04-10T13:31:46Z</time>
      </trkpt>
      <trkpt lat="44.36247" lon="3.73067">
        <ele>913.39</ele>
        <time>2016-04-10T13:31:47Z</time>
      </trkpt>
      <trkpt lat="44.36239" lon="3.73047">
        <ele>912.43</ele>
        <time>2016-04-10T13:31:48Z</time>
      </trkpt>
      <trkpt lat="44.36234" lon="3.73027">
        <ele>911.95</ele>
        <time>2016-04-10T13:31:49Z</time>
      </trkpt>
      <trkpt lat="44.36231" lon="3.73006">
        <ele>911.47</ele>
        <time>2016-04-10T13:31:50Z</time>
      </trkpt>
      <trkpt lat="44.36231" lon="3.72984">
        <ele>910.99</ele>
        <time>2016-04-10T13:31:51Z</time>
      </trkpt>
      <trkpt lat="44.36235" lon="3.7296">
        <ele>910.51</ele>
        <time>2016-04-10T13:31:52Z</time>
      </trkpt>
      <trkpt lat="44.36239" lon="3.72934">
        <ele>910.03</ele>
        <time>2016-04-10T13:31:53Z</time>
      </trkpt>
      <trkpt lat="44.36253" lon="3.72813">
        <ele>907.14</ele>
        <time>2016-04-10T13:31:58Z</time>
      </trkpt>
      <trkpt lat="44.3625" lon="3.7279">
        <ele>907.14</ele>
        <time>2016-04-10T13:31:59Z</time>
      </trkpt>
      <trkpt lat="44.36243" lon="3.72769">
        <ele>906.66</ele>
        <time>2016-04-10T13:32:00Z</time>
      </trkpt>
      <trkpt lat="44.36234" lon="3.72754">
        <ele>906.18</ele>
        <time>2016-04-10T13:32:01Z</time>
      </trkpt>
      <trkpt lat="44.3622" lon="3.72746">
        <ele>904.74</ele>
        <time>2016-04-10T13:32:02Z</time>
      </trkpt>
      <trkpt lat="44.36208" lon="3.72741">
        <ele>903.78</ele>
        <time>2016-04-10T13:32:03Z</time>
      </trkpt>
      <trkpt lat="44.36199" lon="3.72734">
        <ele>903.78</ele>
        <time>2016-04-10T13:32:04Z</time>
      </trkpt>
      <trkpt lat="44.36191" lon="3.72726">
        <ele>903.78</ele>
        <time>2016-04-10T13:32:05Z</time>
      </trkpt>
      <trkpt lat="44.36187" lon="3.72714">
        <ele>903.3</ele>
        <time>2016-04-10T13:32:06Z</time>
      </trkpt>
      <trkpt lat="44.3619" lon="3.72702">
        <ele>904.26</ele>
        <time>2016-04-10T13:32:07Z</time>
      </trkpt>
      <trkpt lat="44.36196" lon="3.72691">
        <ele>905.22</ele>
        <time>2016-04-10T13:32:08Z</time>
      </trkpt>
      <trkpt lat="44.36204" lon="3.72681">
        <ele>904.74</ele>
        <time>2016-04-10T13:32:09Z</time>
      </trkpt>
      <trkpt lat="44.36212" lon="3.72669">
        <ele>904.26</ele>
        <time>2016-04-10T13:32:10Z</time>
      </trkpt>
      <trkpt lat="44.36218" lon="3.72655">
        <ele>904.26</ele>
        <time>2016-04-10T13:32:11Z</time>
      </trkpt>
      <trkpt lat="44.3622" lon="3.72639">
        <ele>903.78</ele>
        <time>2016-04-10T13:32:12Z</time>
      </trkpt>
      <trkpt lat="44.36217" lon="3.72624">
        <ele>903.3</ele>
        <time>2016-04-10T13:32:13Z</time>
      </trkpt>
      <trkpt lat="44.36211" lon="3.72607">
        <ele>903.3</ele>
        <time>2016-04-10T13:32:14Z</time>
      </trkpt>
      <trkpt lat="44.36206" lon="3.7259">
        <ele>902.33</ele>
        <time>2016-04-10T13:32:15Z</time>
      </trkpt>
      <trkpt lat="44.36204" lon="3.7257">
        <ele>901.85</ele>
        <time>2016-04-10T13:32:16Z</time>
      </trkpt>
      <trkpt lat="44.36206" lon="3.72547">
        <ele>901.37</ele>
        <time>2016-04-10T13:32:17Z</time>
      </trkpt>
      <trkpt lat="44.3621" lon="3.72526">
        <ele>901.37</ele>
        <time>2016-04-10T13:32:18Z</time>
      </trkpt>
      <trkpt lat="44.36217" lon="3.72502">
        <ele>900.41</ele>
        <time>2016-04-10T13:32:19Z</time>
      </trkpt>
      <trkpt lat="44.36224" lon="3.7248">
        <ele>899.45</ele>
        <time>2016-04-10T13:32:20Z</time>
      </trkpt>
      <trkpt lat="44.36232" lon="3.72459">
        <ele>898.49</ele>
        <time>2016-04-10T13:32:21Z</time>
      </trkpt>
      <trkpt lat="44.3624" lon="3.72439">
        <ele>898.01</ele>
        <time>2016-04-10T13:32:22Z</time>
      </trkpt>
      <trkpt lat="44.3625" lon="3.72402">
        <ele>896.57</ele>
        <time>2016-04-10T13:32:24Z</time>
      </trkpt>
      <trkpt lat="44.36251" lon="3.72383">
        <ele>895.12</ele>
        <time>2016-04-10T13:32:25Z</time>
      </trkpt>
      <trkpt lat="44.36247" lon="3.72362">
        <ele>893.68</ele>
        <time>2016-04-10T13:32:26Z</time>
      </trkpt>
      <trkpt lat="44.36238" lon="3.72336">
        <ele>893.68</ele>
        <time>2016-04-10T13:32:27Z</time>
      </trkpt>
      <trkpt lat="44.36227" lon="3.72311">
        <ele>893.2</ele>
        <time>2016-04-10T13:32:28Z</time>
      </trkpt>
      <trkpt lat="44.36217" lon="3.72288">
        <ele>892.72</ele>
        <time>2016-04-10T13:32:29Z</time>
      </trkpt>
      <trkpt lat="44.36201" lon="3.72243">
        <ele>891.76</ele>
        <time>2016-04-10T13:32:31Z</time>
      </trkpt>
      <trkpt lat="44.36197" lon="3.72222">
        <ele>890.8</ele>
        <time>2016-04-10T13:32:32Z</time>
      </trkpt>
      <trkpt lat="44.36197" lon="3.722">
        <ele>890.32</ele>
        <time>2016-04-10T13:32:33Z</time>
      </trkpt>
      <trkpt lat="44.36201" lon="3.72176">
        <ele>889.84</ele>
        <time>2016-04-10T13:32:34Z</time>
      </trkpt>
      <trkpt lat="44.36207" lon="3.7215">
        <ele>889.36</ele>
        <time>2016-04-10T13:32:35Z</time>
      </trkpt>
      <trkpt lat="44.36216" lon="3.72124">
        <ele>888.88</ele>
        <time>2016-04-10T13:32:36Z</time>
      </trkpt>
      <trkpt lat="44.36225" lon="3.72098">
        <ele>888.4</ele>
        <time>2016-04-10T13:32:37Z</time>
      </trkpt>
      <trkpt lat="44.36259" lon="3.71995">
        <ele>887.91</ele>
        <time>2016-04-10T13:32:42Z</time>
      </trkpt>
      <trkpt lat="44.36257" lon="3.71983">
        <ele>887.91</ele>
        <time>2016-04-10T13:32:43Z</time>
      </trkpt>
      <trkpt lat="44.36249" lon="3.71969">
        <ele>886.95</ele>
        <time>2016-04-10T13:32:44Z</time>
      </trkpt>
      <trkpt lat="44.36239" lon="3.71958">
        <ele>885.51</ele>
        <time>2016-04-10T13:32:45Z</time>
      </trkpt>
      <trkpt lat="44.36226" lon="3.7196">
        <ele>884.07</ele>
        <time>2016-04-10T13:32:46Z</time>
      </trkpt>
      <trkpt lat="44.36213" lon="3.71966">
        <ele>882.63</ele>
        <time>2016-04-10T13:32:47Z</time>
      </trkpt>
      <trkpt lat="44.36197" lon="3.71974">
        <ele>881.19</ele>
        <time>2016-04-10T13:32:48Z</time>
      </trkpt>
      <trkpt lat="44.36181" lon="3.71982">
        <ele>880.71</ele>
        <time>2016-04-10T13:32:49Z</time>
      </trkpt>
      <trkpt lat="44.36164" lon="3.71987">
        <ele>879.74</ele>
        <time>2016-04-10T13:32:50Z</time>
      </trkpt>
      <trkpt lat="44.36148" lon="3.71989">
        <ele>879.26</ele>
        <time>2016-04-10T13:32:51Z</time>
      </trkpt>
      <trkpt lat="44.36133" lon="3.7199">
        <ele>878.3</ele>
        <time>2016-04-10T13:32:52Z</time>
      </trkpt>
      <trkpt lat="44.36119" lon="3.71989">
        <ele>877.34</ele>
        <time>2016-04-10T13:32:53Z</time>
      </trkpt>
      <trkpt lat="44.36107" lon="3.71985">
        <ele>877.34</ele>
        <time>2016-04-10T13:32:54Z</time>
      </trkpt>
      <trkpt lat="44.36097" lon="3.71974">
        <ele>875.42</ele>
        <time>2016-04-10T13:32:55Z</time>
      </trkpt>
      <trkpt lat="44.36092" lon="3.71956">
        <ele>874.46</ele>
        <time>2016-04-10T13:32:56Z</time>
      </trkpt>
      <trkpt lat="44.36094" lon="3.71938">
        <ele>874.46</ele>
        <time>2016-04-10T13:32:57Z</time>
      </trkpt>
      <trkpt lat="44.36102" lon="3.71918">
        <ele>872.53</ele>
        <time>2016-04-10T13:32:58Z</time>
      </trkpt>
      <trkpt lat="44.36109" lon="3.71897">
        <ele>871.09</ele>
        <time>2016-04-10T13:32:59Z</time>
      </trkpt>
      <trkpt lat="44.36117" lon="3.7187">
        <ele>871.57</ele>
        <time>2016-04-10T13:33:00Z</time>
      </trkpt>
      <trkpt lat="44.36125" lon="3.7184">
        <ele>872.05</ele>
        <time>2016-04-10T13:33:01Z</time>
      </trkpt>
      <trkpt lat="44.3614" lon="3.71703">
        <ele>867.73</ele>
        <time>2016-04-10T13:33:06Z</time>
      </trkpt>
      <trkpt lat="44.36124" lon="3.71585">
        <ele>866.77</ele>
        <time>2016-04-10T13:33:10Z</time>
      </trkpt>
      <trkpt lat="44.36119" lon="3.71563">
        <ele>866.29</ele>
        <time>2016-04-10T13:33:11Z</time>
      </trkpt>
      <trkpt lat="44.36114" lon="3.71546">
        <ele>865.32</ele>
        <time>2016-04-10T13:33:12Z</time>
      </trkpt>
      <trkpt lat="44.36112" lon="3.71531">
        <ele>864.84</ele>
        <time>2016-04-10T13:33:13Z</time>
      </trkpt>
      <trkpt lat="44.36113" lon="3.71518">
        <ele>863.88</ele>
        <time>2016-04-10T13:33:14Z</time>
      </trkpt>
      <trkpt lat="44.36117" lon="3.71508">
        <ele>864.36</ele>
        <time>2016-04-10T13:33:15Z</time>
      </trkpt>
      <trkpt lat="44.36127" lon="3.71498">
        <ele>863.88</ele>
        <time>2016-04-10T13:33:16Z</time>
      </trkpt>
      <trkpt lat="44.36142" lon="3.71487">
        <ele>863.88</ele>
        <time>2016-04-10T13:33:17Z</time>
      </trkpt>
      <trkpt lat="44.36158" lon="3.71475">
        <ele>863.88</ele>
        <time>2016-04-10T13:33:18Z</time>
      </trkpt>
      <trkpt lat="44.36176" lon="3.71462">
        <ele>863.88</ele>
        <time>2016-04-10T13:33:19Z</time>
      </trkpt>
      <trkpt lat="44.36194" lon="3.71451">
        <ele>863.88</ele>
        <time>2016-04-10T13:33:20Z</time>
      </trkpt>
      <trkpt lat="44.3621" lon="3.71438">
        <ele>864.36</ele>
        <time>2016-04-10T13:33:21Z</time>
      </trkpt>
      <trkpt lat="44.36226" lon="3.71425">
        <ele>863.88</ele>
        <time>2016-04-10T13:33:22Z</time>
      </trkpt>
      <trkpt lat="44.36286" lon="3.71315">
        <ele>857.15</ele>
        <time>2016-04-10T13:33:27Z</time>
      </trkpt>
      <trkpt lat="44.36293" lon="3.71284">
        <ele>856.19</ele>
        <time>2016-04-10T13:33:28Z</time>
      </trkpt>
      <trkpt lat="44.363" lon="3.71256">
        <ele>855.23</ele>
        <time>2016-04-10T13:33:29Z</time>
      </trkpt>
      <trkpt lat="44.36314" lon="3.71208">
        <ele>852.83</ele>
        <time>2016-04-10T13:33:31Z</time>
      </trkpt>
      <trkpt lat="44.36324" lon="3.71188">
        <ele>851.87</ele>
        <time>2016-04-10T13:33:32Z</time>
      </trkpt>
      <trkpt lat="44.36341" lon="3.7115">
        <ele>850.42</ele>
        <time>2016-04-10T13:33:34Z</time>
      </trkpt>
      <trkpt lat="44.36345" lon="3.7113">
        <ele>848.98</ele>
        <time>2016-04-10T13:33:35Z</time>
      </trkpt>
      <trkpt lat="44.36347" lon="3.7111">
        <ele>848.5</ele>
        <time>2016-04-10T13:33:36Z</time>
      </trkpt>
      <trkpt lat="44.3635" lon="3.71091">
        <ele>847.54</ele>
        <time>2016-04-10T13:33:37Z</time>
      </trkpt>
      <trkpt lat="44.36355" lon="3.71073">
        <ele>846.58</ele>
        <time>2016-04-10T13:33:38Z</time>
      </trkpt>
      <trkpt lat="44.36362" lon="3.71057">
        <ele>846.58</ele>
        <time>2016-04-10T13:33:39Z</time>
      </trkpt>
      <trkpt lat="44.36369" lon="3.7104">
        <ele>845.62</ele>
        <time>2016-04-10T13:33:40Z</time>
      </trkpt>
      <trkpt lat="44.36375" lon="3.71021">
        <ele>845.14</ele>
        <time>2016-04-10T13:33:41Z</time>
      </trkpt>
      <trkpt lat="44.36379" lon="3.70999">
        <ele>844.18</ele>
        <time>2016-04-10T13:33:42Z</time>
      </trkpt>
      <trkpt lat="44.36384" lon="3.70975">
        <ele>843.69</ele>
        <time>2016-04-10T13:33:43Z</time>
      </trkpt>
      <trkpt lat="44.36399" lon="3.70906">
        <ele>841.29</ele>
        <time>2016-04-10T13:33:46Z</time>
      </trkpt>
      <trkpt lat="44.36405" lon="3.70862">
        <ele>839.85</ele>
        <time>2016-04-10T13:33:48Z</time>
      </trkpt>
      <trkpt lat="44.3641" lon="3.70842">
        <ele>839.37</ele>
        <time>2016-04-10T13:33:49Z</time>
      </trkpt>
      <trkpt lat="44.36417" lon="3.70824">
        <ele>838.41</ele>
        <time>2016-04-10T13:33:50Z</time>
      </trkpt>
      <trkpt lat="44.36427" lon="3.70808">
        <ele>838.41</ele>
        <time>2016-04-10T13:33:51Z</time>
      </trkpt>
      <trkpt lat="44.3644" lon="3.70792">
        <ele>837.45</ele>
        <time>2016-04-10T13:33:52Z</time>
      </trkpt>
      <trkpt lat="44.36453" lon="3.70776">
        <ele>836.48</ele>
        <time>2016-04-10T13:33:53Z</time>
      </trkpt>
      <trkpt lat="44.36496" lon="3.70733">
        <ele>834.56</ele>
        <time>2016-04-10T13:33:56Z</time>
      </trkpt>
      <trkpt lat="44.36512" lon="3.70723">
        <ele>834.08</ele>
        <time>2016-04-10T13:33:57Z</time>
      </trkpt>
      <trkpt lat="44.36528" lon="3.70718">
        <ele>833.6</ele>
        <time>2016-04-10T13:33:58Z</time>
      </trkpt>
      <trkpt lat="44.36544" lon="3.70714">
        <ele>833.12</ele>
        <time>2016-04-10T13:33:59Z</time>
      </trkpt>
      <trkpt lat="44.36558" lon="3.70717">
        <ele>833.12</ele>
        <time>2016-04-10T13:34:00Z</time>
      </trkpt>
      <trkpt lat="44.3657" lon="3.7072">
        <ele>833.12</ele>
        <time>2016-04-10T13:34:01Z</time>
      </trkpt>
      <trkpt lat="44.3658" lon="3.70724">
        <ele>832.16</ele>
        <time>2016-04-10T13:34:02Z</time>
      </trkpt>
      <trkpt lat="44.36589" lon="3.70722">
        <ele>831.68</ele>
        <time>2016-04-10T13:34:03Z</time>
      </trkpt>
      <trkpt lat="44.36599" lon="3.70715">
        <ele>831.2</ele>
        <time>2016-04-10T13:34:04Z</time>
      </trkpt>
      <trkpt lat="44.36609" lon="3.70702">
        <ele>831.68</ele>
        <time>2016-04-10T13:34:05Z</time>
      </trkpt>
      <trkpt lat="44.36622" lon="3.70687">
        <ele>830.24</ele>
        <time>2016-04-10T13:34:06Z</time>
      </trkpt>
      <trkpt lat="44.36633" lon="3.70672">
        <ele>828.79</ele>
        <time>2016-04-10T13:34:07Z</time>
      </trkpt>
      <trkpt lat="44.36644" lon="3.70654">
        <ele>826.87</ele>
        <time>2016-04-10T13:34:08Z</time>
      </trkpt>
      <trkpt lat="44.36654" lon="3.70636">
        <ele>825.91</ele>
        <time>2016-04-10T13:34:09Z</time>
      </trkpt>
      <trkpt lat="44.36665" lon="3.7062">
        <ele>824.95</ele>
        <time>2016-04-10T13:34:10Z</time>
      </trkpt>
      <trkpt lat="44.36675" lon="3.70604">
        <ele>823.99</ele>
        <time>2016-04-10T13:34:11Z</time>
      </trkpt>
      <trkpt lat="44.36684" lon="3.70588">
        <ele>823.51</ele>
        <time>2016-04-10T13:34:12Z</time>
      </trkpt>
      <trkpt lat="44.3669" lon="3.70572">
        <ele>822.55</ele>
        <time>2016-04-10T13:34:13Z</time>
      </trkpt>
      <trkpt lat="44.36693" lon="3.70556">
        <ele>821.58</ele>
        <time>2016-04-10T13:34:14Z</time>
      </trkpt>
      <trkpt lat="44.36694" lon="3.70541">
        <ele>821.1</ele>
        <time>2016-04-10T13:34:15Z</time>
      </trkpt>
      <trkpt lat="44.36689" lon="3.70529">
        <ele>820.14</ele>
        <time>2016-04-10T13:34:16Z</time>
      </trkpt>
      <trkpt lat="44.3668" lon="3.70519">
        <ele>818.7</ele>
        <time>2016-04-10T13:34:17Z</time>
      </trkpt>
      <trkpt lat="44.36669" lon="3.70517">
        <ele>817.74</ele>
        <time>2016-04-10T13:34:18Z</time>
      </trkpt>
      <trkpt lat="44.36659" lon="3.7052">
        <ele>816.3</ele>
        <time>2016-04-10T13:34:19Z</time>
      </trkpt>
      <trkpt lat="44.3665" lon="3.70526">
        <ele>815.34</ele>
        <time>2016-04-10T13:34:20Z</time>
      </trkpt>
      <trkpt lat="44.36641" lon="3.70531">
        <ele>814.85</ele>
        <time>2016-04-10T13:34:21Z</time>
      </trkpt>
      <trkpt lat="44.36632" lon="3.70534">
        <ele>814.85</ele>
        <time>2016-04-10T13:34:22Z</time>
      </trkpt>
      <trkpt lat="44.36623" lon="3.70532">
        <ele>815.34</ele>
        <time>2016-04-10T13:34:23Z</time>
      </trkpt>
      <trkpt lat="44.36616" lon="3.7052">
        <ele>815.34</ele>
        <time>2016-04-10T13:34:24Z</time>
      </trkpt>
      <trkpt lat="44.36614" lon="3.70504">
        <ele>814.37</ele>
        <time>2016-04-10T13:34:25Z</time>
      </trkpt>
      <trkpt lat="44.36618" lon="3.70484">
        <ele>813.41</ele>
        <time>2016-04-10T13:34:26Z</time>
      </trkpt>
      <trkpt lat="44.36625" lon="3.70463">
        <ele>812.45</ele>
        <time>2016-04-10T13:34:27Z</time>
      </trkpt>
      <trkpt lat="44.36633" lon="3.70441">
        <ele>812.45</ele>
        <time>2016-04-10T13:34:28Z</time>
      </trkpt>
      <trkpt lat="44.36641" lon="3.70417">
        <ele>811.01</ele>
        <time>2016-04-10T13:34:29Z</time>
      </trkpt>
      <trkpt lat="44.36684" lon="3.70226">
        <ele>802.36</ele>
        <time>2016-04-10T13:34:37Z</time>
      </trkpt>
      <trkpt lat="44.36688" lon="3.70183">
        <ele>800.44</ele>
        <time>2016-04-10T13:34:39Z</time>
      </trkpt>
      <trkpt lat="44.36686" lon="3.70162">
        <ele>798.99</ele>
        <time>2016-04-10T13:34:40Z</time>
      </trkpt>
      <trkpt lat="44.36682" lon="3.70143">
        <ele>797.55</ele>
        <time>2016-04-10T13:34:41Z</time>
      </trkpt>
      <trkpt lat="44.36676" lon="3.70087">
        <ele>795.15</ele>
        <time>2016-04-10T13:34:44Z</time>
      </trkpt>
      <trkpt lat="44.36678" lon="3.7007">
        <ele>794.19</ele>
        <time>2016-04-10T13:34:45Z</time>
      </trkpt>
      <trkpt lat="44.36682" lon="3.70053">
        <ele>793.71</ele>
        <time>2016-04-10T13:34:46Z</time>
      </trkpt>
      <trkpt lat="44.36689" lon="3.70039">
        <ele>792.74</ele>
        <time>2016-04-10T13:34:47Z</time>
      </trkpt>
      <trkpt lat="44.367" lon="3.70031">
        <ele>792.26</ele>
        <time>2016-04-10T13:34:48Z</time>
      </trkpt>
      <trkpt lat="44.36707" lon="3.69959">
        <ele>790.82</ele>
        <time>2016-04-10T13:34:55Z</time>
      </trkpt>
      <trkpt lat="44.36697" lon="3.69953">
        <ele>790.34</ele>
        <time>2016-04-10T13:34:56Z</time>
      </trkpt>
      <trkpt lat="44.36684" lon="3.69946">
        <ele>789.38</ele>
        <time>2016-04-10T13:34:57Z</time>
      </trkpt>
      <trkpt lat="44.36668" lon="3.69939">
        <ele>788.42</ele>
        <time>2016-04-10T13:34:58Z</time>
      </trkpt>
      <trkpt lat="44.36653" lon="3.69932">
        <ele>787.46</ele>
        <time>2016-04-10T13:34:59Z</time>
      </trkpt>
      <trkpt lat="44.36612" lon="3.69914">
        <ele>785.05</ele>
        <time>2016-04-10T13:35:03Z</time>
      </trkpt>
      <trkpt lat="44.36574" lon="3.69872">
        <ele>782.65</ele>
        <time>2016-04-10T13:35:07Z</time>
      </trkpt>
      <trkpt lat="44.36565" lon="3.69852">
        <ele>781.69</ele>
        <time>2016-04-10T13:35:08Z</time>
      </trkpt>
      <trkpt lat="44.36554" lon="3.69834">
        <ele>781.69</ele>
        <time>2016-04-10T13:35:09Z</time>
      </trkpt>
      <trkpt lat="44.36544" lon="3.69818">
        <ele>780.73</ele>
        <time>2016-04-10T13:35:10Z</time>
      </trkpt>
      <trkpt lat="44.36534" lon="3.69804">
        <ele>779.77</ele>
        <time>2016-04-10T13:35:11Z</time>
      </trkpt>
      <trkpt lat="44.36503" lon="3.69706">
        <ele>776.88</ele>
        <time>2016-04-10T13:35:15Z</time>
      </trkpt>
      <trkpt lat="44.36499" lon="3.69671">
        <ele>775.92</ele>
        <time>2016-04-10T13:35:16Z</time>
      </trkpt>
      <trkpt lat="44.36496" lon="3.69637">
        <ele>774.48</ele>
        <time>2016-04-10T13:35:17Z</time>
      </trkpt>
      <trkpt lat="44.36469" lon="3.69511">
        <ele>770.63</ele>
        <time>2016-04-10T13:35:21Z</time>
      </trkpt>
      <trkpt lat="44.36454" lon="3.69478">
        <ele>769.67</ele>
        <time>2016-04-10T13:35:22Z</time>
      </trkpt>
      <trkpt lat="44.36367" lon="3.69282">
        <ele>760.54</ele>
        <time>2016-04-10T13:35:29Z</time>
      </trkpt>
      <trkpt lat="44.36363" lon="3.69256">
        <ele>759.58</ele>
        <time>2016-04-10T13:35:30Z</time>
      </trkpt>
      <trkpt lat="44.36361" lon="3.69227">
        <ele>758.62</ele>
        <time>2016-04-10T13:35:31Z</time>
      </trkpt>
      <trkpt lat="44.36359" lon="3.69196">
        <ele>757.18</ele>
        <time>2016-04-10T13:35:32Z</time>
      </trkpt>
      <trkpt lat="44.36359" lon="3.69164">
        <ele>755.73</ele>
        <time>2016-04-10T13:35:33Z</time>
      </trkpt>
      <trkpt lat="44.36361" lon="3.69134">
        <ele>754.29</ele>
        <time>2016-04-10T13:35:34Z</time>
      </trkpt>
      <trkpt lat="44.36363" lon="3.69106">
        <ele>753.33</ele>
        <time>2016-04-10T13:35:35Z</time>
      </trkpt>
      <trkpt lat="44.36367" lon="3.6908">
        <ele>752.37</ele>
        <time>2016-04-10T13:35:36Z</time>
      </trkpt>
      <trkpt lat="44.36371" lon="3.69054">
        <ele>750.93</ele>
        <time>2016-04-10T13:35:37Z</time>
      </trkpt>
      <trkpt lat="44.36404" lon="3.68943">
        <ele>747.56</ele>
        <time>2016-04-10T13:35:42Z</time>
      </trkpt>
      <trkpt lat="44.36443" lon="3.68861">
        <ele>742.76</ele>
        <time>2016-04-10T13:35:47Z</time>
      </trkpt>
      <trkpt lat="44.36445" lon="3.68846">
        <ele>741.31</ele>
        <time>2016-04-10T13:35:48Z</time>
      </trkpt>
      <trkpt lat="44.36444" lon="3.68828">
        <ele>739.87</ele>
        <time>2016-04-10T13:35:49Z</time>
      </trkpt>
      <trkpt lat="44.36442" lon="3.68806">
        <ele>739.39</ele>
        <time>2016-04-10T13:35:50Z</time>
      </trkpt>
      <trkpt lat="44.3644" lon="3.68787">
        <ele>737.95</ele>
        <time>2016-04-10T13:35:51Z</time>
      </trkpt>
      <trkpt lat="44.36436" lon="3.68749">
        <ele>735.55</ele>
        <time>2016-04-10T13:35:53Z</time>
      </trkpt>
      <trkpt lat="44.36431" lon="3.6873">
        <ele>734.58</ele>
        <time>2016-04-10T13:35:54Z</time>
      </trkpt>
      <trkpt lat="44.36423" lon="3.68712">
        <ele>733.62</ele>
        <time>2016-04-10T13:35:55Z</time>
      </trkpt>
      <trkpt lat="44.36412" lon="3.68696">
        <ele>732.66</ele>
        <time>2016-04-10T13:35:56Z</time>
      </trkpt>
      <trkpt lat="44.36397" lon="3.68683">
        <ele>732.66</ele>
        <time>2016-04-10T13:35:57Z</time>
      </trkpt>
      <trkpt lat="44.3638" lon="3.68674">
        <ele>731.7</ele>
        <time>2016-04-10T13:35:58Z</time>
      </trkpt>
      <trkpt lat="44.36365" lon="3.68666">
        <ele>730.74</ele>
        <time>2016-04-10T13:35:59Z</time>
      </trkpt>
      <trkpt lat="44.36352" lon="3.68658">
        <ele>730.26</ele>
        <time>2016-04-10T13:36:00Z</time>
      </trkpt>
      <trkpt lat="44.36342" lon="3.6865">
        <ele>729.78</ele>
        <time>2016-04-10T13:36:01Z</time>
      </trkpt>
      <trkpt lat="44.36334" lon="3.6864">
        <ele>728.82</ele>
        <time>2016-04-10T13:36:02Z</time>
      </trkpt>
      <trkpt lat="44.36329" lon="3.68627">
        <ele>727.37</ele>
        <time>2016-04-10T13:36:03Z</time>
      </trkpt>
      <trkpt lat="44.36329" lon="3.6861">
        <ele>726.89</ele>
        <time>2016-04-10T13:36:04Z</time>
      </trkpt>
      <trkpt lat="44.36336" lon="3.68587">
        <ele>725.93</ele>
        <time>2016-04-10T13:36:05Z</time>
      </trkpt>
      <trkpt lat="44.36343" lon="3.68566">
        <ele>725.93</ele>
        <time>2016-04-10T13:36:06Z</time>
      </trkpt>
      <trkpt lat="44.36353" lon="3.68551">
        <ele>725.93</ele>
        <time>2016-04-10T13:36:07Z</time>
      </trkpt>
      <trkpt lat="44.36367" lon="3.6854">
        <ele>725.93</ele>
        <time>2016-04-10T13:36:08Z</time>
      </trkpt>
      <trkpt lat="44.3638" lon="3.68527">
        <ele>726.41</ele>
        <time>2016-04-10T13:36:09Z</time>
      </trkpt>
      <trkpt lat="44.36395" lon="3.6852">
        <ele>725.93</ele>
        <time>2016-04-10T13:36:10Z</time>
      </trkpt>
      <trkpt lat="44.36411" lon="3.68511">
        <ele>726.41</ele>
        <time>2016-04-10T13:36:11Z</time>
      </trkpt>
      <trkpt lat="44.36427" lon="3.68505">
        <ele>726.89</ele>
        <time>2016-04-10T13:36:12Z</time>
      </trkpt>
      <trkpt lat="44.36441" lon="3.68497">
        <ele>726.89</ele>
        <time>2016-04-10T13:36:13Z</time>
      </trkpt>
      <trkpt lat="44.36454" lon="3.68488">
        <ele>726.41</ele>
        <time>2016-04-10T13:36:14Z</time>
      </trkpt>
      <trkpt lat="44.36466" lon="3.68477">
        <ele>725.45</ele>
        <time>2016-04-10T13:36:15Z</time>
      </trkpt>
      <trkpt lat="44.36475" lon="3.68465">
        <ele>724.97</ele>
        <time>2016-04-10T13:36:16Z</time>
      </trkpt>
      <trkpt lat="44.36482" lon="3.68453">
        <ele>725.45</ele>
        <time>2016-04-10T13:36:17Z</time>
      </trkpt>
      <trkpt lat="44.36483" lon="3.6844">
        <ele>725.45</ele>
        <time>2016-04-10T13:36:18Z</time>
      </trkpt>
      <trkpt lat="44.3648" lon="3.68426">
        <ele>726.41</ele>
        <time>2016-04-10T13:36:19Z</time>
      </trkpt>
      <trkpt lat="44.36459" lon="3.6842">
        <ele>726.89</ele>
        <time>2016-04-10T13:36:21Z</time>
      </trkpt>
      <trkpt lat="44.36446" lon="3.68421">
        <ele>728.34</ele>
        <time>2016-04-10T13:36:22Z</time>
      </trkpt>
      <trkpt lat="44.36432" lon="3.68427">
        <ele>728.82</ele>
        <time>2016-04-10T13:36:23Z</time>
      </trkpt>
      <trkpt lat="44.36414" lon="3.68436">
        <ele>732.66</ele>
        <time>2016-04-10T13:36:24Z</time>
      </trkpt>
      <trkpt lat="44.36399" lon="3.6844">
        <ele>732.18</ele>
        <time>2016-04-10T13:36:25Z</time>
      </trkpt>
      <trkpt lat="44.36386" lon="3.6844">
        <ele>728.34</ele>
        <time>2016-04-10T13:36:26Z</time>
      </trkpt>
      <trkpt lat="44.36371" lon="3.68437">
        <ele>727.37</ele>
        <time>2016-04-10T13:36:27Z</time>
      </trkpt>
      <trkpt lat="44.36296" lon="3.68433">
        <ele>723.05</ele>
        <time>2016-04-10T13:36:32Z</time>
      </trkpt>
      <trkpt lat="44.3628" lon="3.68444">
        <ele>720.16</ele>
        <time>2016-04-10T13:36:33Z</time>
      </trkpt>
      <trkpt lat="44.36264" lon="3.68461">
        <ele>718.24</ele>
        <time>2016-04-10T13:36:34Z</time>
      </trkpt>
      <trkpt lat="44.36249" lon="3.6848">
        <ele>716.8</ele>
        <time>2016-04-10T13:36:35Z</time>
      </trkpt>
      <trkpt lat="44.36233" lon="3.68498">
        <ele>716.8</ele>
        <time>2016-04-10T13:36:36Z</time>
      </trkpt>
      <trkpt lat="44.36183" lon="3.68553">
        <ele>712.47</ele>
        <time>2016-04-10T13:36:40Z</time>
      </trkpt>
      <trkpt lat="44.36169" lon="3.68558">
        <ele>711.03</ele>
        <time>2016-04-10T13:36:41Z</time>
      </trkpt>
      <trkpt lat="44.36156" lon="3.68559">
        <ele>710.07</ele>
        <time>2016-04-10T13:36:42Z</time>
      </trkpt>
      <trkpt lat="44.36143" lon="3.68556">
        <ele>708.63</ele>
        <time>2016-04-10T13:36:43Z</time>
      </trkpt>
      <trkpt lat="44.36132" lon="3.68545">
        <ele>705.75</ele>
        <time>2016-04-10T13:36:44Z</time>
      </trkpt>
      <trkpt lat="44.36124" lon="3.68529">
        <ele>703.82</ele>
        <time>2016-04-10T13:36:45Z</time>
      </trkpt>
      <trkpt lat="44.36121" lon="3.6851">
        <ele>702.38</ele>
        <time>2016-04-10T13:36:46Z</time>
      </trkpt>
      <trkpt lat="44.36121" lon="3.68488">
        <ele>702.38</ele>
        <time>2016-04-10T13:36:47Z</time>
      </trkpt>
      <trkpt lat="44.36125" lon="3.68465">
        <ele>702.38</ele>
        <time>2016-04-10T13:36:48Z</time>
      </trkpt>
      <trkpt lat="44.36129" lon="3.68442">
        <ele>702.38</ele>
        <time>2016-04-10T13:36:49Z</time>
      </trkpt>
      <trkpt lat="44.36133" lon="3.6842">
        <ele>702.38</ele>
        <time>2016-04-10T13:36:50Z</time>
      </trkpt>
      <trkpt lat="44.36141" lon="3.68395">
        <ele>702.86</ele>
        <time>2016-04-10T13:36:51Z</time>
      </trkpt>
      <trkpt lat="44.36152" lon="3.68369">
        <ele>702.86</ele>
        <time>2016-04-10T13:36:52Z</time>
      </trkpt>
      <trkpt lat="44.36163" lon="3.68343">
        <ele>702.38</ele>
        <time>2016-04-10T13:36:53Z</time>
      </trkpt>
      <trkpt lat="44.36203" lon="3.68246">
        <ele>700.46</ele>
        <time>2016-04-10T13:36:58Z</time>
      </trkpt>
      <trkpt lat="44.36207" lon="3.68224">
        <ele>699.98</ele>
        <time>2016-04-10T13:36:59Z</time>
      </trkpt>
      <trkpt lat="44.3621" lon="3.68198">
        <ele>699.02</ele>
        <time>2016-04-10T13:37:00Z</time>
      </trkpt>
      <trkpt lat="44.36211" lon="3.6814">
        <ele>699.02</ele>
        <time>2016-04-10T13:37:02Z</time>
      </trkpt>
      <trkpt lat="44.36207" lon="3.68051">
        <ele>698.05</ele>
        <time>2016-04-10T13:37:06Z</time>
      </trkpt>
      <trkpt lat="44.36201" lon="3.68034">
        <ele>698.05</ele>
        <time>2016-04-10T13:37:07Z</time>
      </trkpt>
      <trkpt lat="44.3619" lon="3.68021">
        <ele>697.57</ele>
        <time>2016-04-10T13:37:08Z</time>
      </trkpt>
      <trkpt lat="44.36176" lon="3.68012">
        <ele>697.57</ele>
        <time>2016-04-10T13:37:09Z</time>
      </trkpt>
      <trkpt lat="44.36159" lon="3.68006">
        <ele>698.05</ele>
        <time>2016-04-10T13:37:10Z</time>
      </trkpt>
      <trkpt lat="44.36146" lon="3.67999">
        <ele>697.09</ele>
        <time>2016-04-10T13:37:11Z</time>
      </trkpt>
      <trkpt lat="44.36134" lon="3.67991">
        <ele>697.09</ele>
        <time>2016-04-10T13:37:12Z</time>
      </trkpt>
      <trkpt lat="44.36124" lon="3.6798">
        <ele>697.09</ele>
        <time>2016-04-10T13:37:13Z</time>
      </trkpt>
      <trkpt lat="44.36118" lon="3.67963">
        <ele>696.13</ele>
        <time>2016-04-10T13:37:14Z</time>
      </trkpt>
      <trkpt lat="44.36112" lon="3.67942">
        <ele>696.13</ele>
        <time>2016-04-10T13:37:15Z</time>
      </trkpt>
      <trkpt lat="44.36102" lon="3.67915">
        <ele>696.13</ele>
        <time>2016-04-10T13:37:16Z</time>
      </trkpt>
      <trkpt lat="44.3609" lon="3.67887">
        <ele>696.61</ele>
        <time>2016-04-10T13:37:17Z</time>
      </trkpt>
      <trkpt lat="44.3606" lon="3.67772">
        <ele>696.13</ele>
        <time>2016-04-10T13:37:22Z</time>
      </trkpt>
      <trkpt lat="44.36065" lon="3.67753">
        <ele>695.65</ele>
        <time>2016-04-10T13:37:23Z</time>
      </trkpt>
      <trkpt lat="44.36072" lon="3.67733">
        <ele>695.17</ele>
        <time>2016-04-10T13:37:24Z</time>
      </trkpt>
      <trkpt lat="44.36082" lon="3.67712">
        <ele>694.69</ele>
        <time>2016-04-10T13:37:25Z</time>
      </trkpt>
      <trkpt lat="44.36096" lon="3.67691">
        <ele>694.21</ele>
        <time>2016-04-10T13:37:26Z</time>
      </trkpt>
      <trkpt lat="44.3611" lon="3.6767">
        <ele>693.25</ele>
        <time>2016-04-10T13:37:27Z</time>
      </trkpt>
      <trkpt lat="44.36122" lon="3.67646">
        <ele>693.25</ele>
        <time>2016-04-10T13:37:28Z</time>
      </trkpt>
      <trkpt lat="44.36133" lon="3.6762">
        <ele>692.77</ele>
        <time>2016-04-10T13:37:29Z</time>
      </trkpt>
      <trkpt lat="44.36199" lon="3.6742">
        <ele>687.96</ele>
        <time>2016-04-10T13:37:36Z</time>
      </trkpt>
      <trkpt lat="44.36255" lon="3.67273">
        <ele>684.6</ele>
        <time>2016-04-10T13:37:42Z</time>
      </trkpt>
      <trkpt lat="44.36271" lon="3.67242">
        <ele>683.63</ele>
        <time>2016-04-10T13:37:44Z</time>
      </trkpt>
      <trkpt lat="44.36271" lon="3.67229">
        <ele>682.19</ele>
        <time>2016-04-10T13:37:45Z</time>
      </trkpt>
      <trkpt lat="44.36266" lon="3.67212">
        <ele>681.23</ele>
        <time>2016-04-10T13:37:46Z</time>
      </trkpt>
      <trkpt lat="44.36259" lon="3.6719">
        <ele>681.23</ele>
        <time>2016-04-10T13:37:47Z</time>
      </trkpt>
      <trkpt lat="44.36249" lon="3.67167">
        <ele>681.23</ele>
        <time>2016-04-10T13:37:48Z</time>
      </trkpt>
      <trkpt lat="44.36239" lon="3.67144">
        <ele>680.75</ele>
        <time>2016-04-10T13:37:49Z</time>
      </trkpt>
      <trkpt lat="44.36184" lon="3.67055">
        <ele>680.75</ele>
        <time>2016-04-10T13:37:53Z</time>
      </trkpt>
      <trkpt lat="44.36164" lon="3.67035">
        <ele>680.27</ele>
        <time>2016-04-10T13:37:54Z</time>
      </trkpt>
      <trkpt lat="44.36073" lon="3.66979">
        <ele>677.39</ele>
        <time>2016-04-10T13:37:59Z</time>
      </trkpt>
      <trkpt lat="44.36055" lon="3.66979">
        <ele>676.42</ele>
        <time>2016-04-10T13:38:00Z</time>
      </trkpt>
      <trkpt lat="44.36018" lon="3.66972">
        <ele>676.42</ele>
        <time>2016-04-10T13:38:02Z</time>
      </trkpt>
      <trkpt lat="44.36" lon="3.66965">
        <ele>675.94</ele>
        <time>2016-04-10T13:38:03Z</time>
      </trkpt>
      <trkpt lat="44.35951" lon="3.66938">
        <ele>674.98</ele>
        <time>2016-04-10T13:38:06Z</time>
      </trkpt>
      <trkpt lat="44.35938" lon="3.66925">
        <ele>674.02</ele>
        <time>2016-04-10T13:38:07Z</time>
      </trkpt>
      <trkpt lat="44.35927" lon="3.6691">
        <ele>673.54</ele>
        <time>2016-04-10T13:38:08Z</time>
      </trkpt>
      <trkpt lat="44.35915" lon="3.66897">
        <ele>672.58</ele>
        <time>2016-04-10T13:38:09Z</time>
      </trkpt>
      <trkpt lat="44.359" lon="3.66886">
        <ele>672.1</ele>
        <time>2016-04-10T13:38:10Z</time>
      </trkpt>
      <trkpt lat="44.35884" lon="3.66879">
        <ele>671.62</ele>
        <time>2016-04-10T13:38:11Z</time>
      </trkpt>
      <trkpt lat="44.35868" lon="3.66875">
        <ele>671.14</ele>
        <time>2016-04-10T13:38:12Z</time>
      </trkpt>
      <trkpt lat="44.35853" lon="3.66873">
        <ele>671.14</ele>
        <time>2016-04-10T13:38:13Z</time>
      </trkpt>
      <trkpt lat="44.35839" lon="3.6687">
        <ele>670.66</ele>
        <time>2016-04-10T13:38:14Z</time>
      </trkpt>
      <trkpt lat="44.35827" lon="3.66865">
        <ele>670.66</ele>
        <time>2016-04-10T13:38:15Z</time>
      </trkpt>
      <trkpt lat="44.35816" lon="3.66854">
        <ele>670.18</ele>
        <time>2016-04-10T13:38:16Z</time>
      </trkpt>
      <trkpt lat="44.35805" lon="3.66842">
        <ele>670.18</ele>
        <time>2016-04-10T13:38:17Z</time>
      </trkpt>
      <trkpt lat="44.35793" lon="3.6683">
        <ele>670.18</ele>
        <time>2016-04-10T13:38:18Z</time>
      </trkpt>
      <trkpt lat="44.35779" lon="3.66819">
        <ele>669.7</ele>
        <time>2016-04-10T13:38:19Z</time>
      </trkpt>
      <trkpt lat="44.35764" lon="3.6681">
        <ele>669.7</ele>
        <time>2016-04-10T13:38:20Z</time>
      </trkpt>
      <trkpt lat="44.35748" lon="3.66803">
        <ele>669.7</ele>
        <time>2016-04-10T13:38:21Z</time>
      </trkpt>
      <trkpt lat="44.35722" lon="3.66785">
        <ele>669.7</ele>
        <time>2016-04-10T13:38:23Z</time>
      </trkpt>
      <trkpt lat="44.35711" lon="3.66773">
        <ele>669.7</ele>
        <time>2016-04-10T13:38:24Z</time>
      </trkpt>
      <trkpt lat="44.35703" lon="3.66759">
        <ele>669.22</ele>
        <time>2016-04-10T13:38:25Z</time>
      </trkpt>
      <trkpt lat="44.35698" lon="3.66741">
        <ele>669.22</ele>
        <time>2016-04-10T13:38:26Z</time>
      </trkpt>
      <trkpt lat="44.35695" lon="3.66721">
        <ele>668.73</ele>
        <time>2016-04-10T13:38:27Z</time>
      </trkpt>
      <trkpt lat="44.35696" lon="3.66698">
        <ele>668.25</ele>
        <time>2016-04-10T13:38:28Z</time>
      </trkpt>
      <trkpt lat="44.35699" lon="3.66671">
        <ele>667.77</ele>
        <time>2016-04-10T13:38:29Z</time>
      </trkpt>
      <trkpt lat="44.35702" lon="3.66642">
        <ele>667.29</ele>
        <time>2016-04-10T13:38:30Z</time>
      </trkpt>
      <trkpt lat="44.35703" lon="3.66583">
        <ele>666.81</ele>
        <time>2016-04-10T13:38:32Z</time>
      </trkpt>
      <trkpt lat="44.357" lon="3.66553">
        <ele>666.81</ele>
        <time>2016-04-10T13:38:33Z</time>
      </trkpt>
      <trkpt lat="44.35692" lon="3.66495">
        <ele>666.33</ele>
        <time>2016-04-10T13:38:35Z</time>
      </trkpt>
      <trkpt lat="44.35692" lon="3.66465">
        <ele>666.33</ele>
        <time>2016-04-10T13:38:36Z</time>
      </trkpt>
      <trkpt lat="44.35696" lon="3.66434">
        <ele>666.81</ele>
        <time>2016-04-10T13:38:37Z</time>
      </trkpt>
      <trkpt lat="44.35709" lon="3.66241">
        <ele>665.37</ele>
        <time>2016-04-10T13:38:43Z</time>
      </trkpt>
      <trkpt lat="44.35728" lon="3.6612">
        <ele>663.93</ele>
        <time>2016-04-10T13:38:48Z</time>
      </trkpt>
      <trkpt lat="44.35728" lon="3.66108">
        <ele>663.93</ele>
        <time>2016-04-10T13:38:49Z</time>
      </trkpt>
      <trkpt lat="44.35724" lon="3.66099">
        <ele>663.45</ele>
        <time>2016-04-10T13:38:50Z</time>
      </trkpt>
      <trkpt lat="44.35715" lon="3.66091">
        <ele>662.97</ele>
        <time>2016-04-10T13:38:51Z</time>
      </trkpt>
      <trkpt lat="44.35702" lon="3.66086">
        <ele>662.49</ele>
        <time>2016-04-10T13:38:52Z</time>
      </trkpt>
      <trkpt lat="44.35688" lon="3.66084">
        <ele>662.01</ele>
        <time>2016-04-10T13:38:53Z</time>
      </trkpt>
      <trkpt lat="44.35671" lon="3.66085">
        <ele>662.01</ele>
        <time>2016-04-10T13:38:54Z</time>
      </trkpt>
      <trkpt lat="44.35655" lon="3.66085">
        <ele>661.04</ele>
        <time>2016-04-10T13:38:55Z</time>
      </trkpt>
      <trkpt lat="44.35639" lon="3.66082">
        <ele>661.52</ele>
        <time>2016-04-10T13:38:56Z</time>
      </trkpt>
      <trkpt lat="44.35621" lon="3.66074">
        <ele>661.52</ele>
        <time>2016-04-10T13:38:57Z</time>
      </trkpt>
      <trkpt lat="44.35605" lon="3.66064">
        <ele>661.04</ele>
        <time>2016-04-10T13:38:58Z</time>
      </trkpt>
      <trkpt lat="44.35589" lon="3.66054">
        <ele>660.56</ele>
        <time>2016-04-10T13:38:59Z</time>
      </trkpt>
      <trkpt lat="44.35575" lon="3.66042">
        <ele>660.56</ele>
        <time>2016-04-10T13:39:00Z</time>
      </trkpt>
      <trkpt lat="44.35562" lon="3.66027">
        <ele>660.08</ele>
        <time>2016-04-10T13:39:01Z</time>
      </trkpt>
      <trkpt lat="44.3555" lon="3.66014">
        <ele>659.6</ele>
        <time>2016-04-10T13:39:02Z</time>
      </trkpt>
      <trkpt lat="44.35538" lon="3.66004">
        <ele>659.12</ele>
        <time>2016-04-10T13:39:03Z</time>
      </trkpt>
      <trkpt lat="44.35528" lon="3.65995">
        <ele>658.64</ele>
        <time>2016-04-10T13:39:04Z</time>
      </trkpt>
      <trkpt lat="44.35521" lon="3.65984">
        <ele>657.68</ele>
        <time>2016-04-10T13:39:05Z</time>
      </trkpt>
      <trkpt lat="44.35519" lon="3.65965">
        <ele>656.72</ele>
        <time>2016-04-10T13:39:06Z</time>
      </trkpt>
      <trkpt lat="44.3552" lon="3.65943">
        <ele>656.72</ele>
        <time>2016-04-10T13:39:07Z</time>
      </trkpt>
      <trkpt lat="44.35524" lon="3.65921">
        <ele>655.76</ele>
        <time>2016-04-10T13:39:08Z</time>
      </trkpt>
      <trkpt lat="44.3553" lon="3.65898">
        <ele>654.8</ele>
        <time>2016-04-10T13:39:09Z</time>
      </trkpt>
      <trkpt lat="44.35537" lon="3.65876">
        <ele>654.31</ele>
        <time>2016-04-10T13:39:10Z</time>
      </trkpt>
      <trkpt lat="44.35549" lon="3.65855">
        <ele>654.31</ele>
        <time>2016-04-10T13:39:11Z</time>
      </trkpt>
      <trkpt lat="44.35562" lon="3.65836">
        <ele>653.83</ele>
        <time>2016-04-10T13:39:12Z</time>
      </trkpt>
      <trkpt lat="44.35578" lon="3.65815">
        <ele>652.87</ele>
        <time>2016-04-10T13:39:13Z</time>
      </trkpt>
      <trkpt lat="44.35648" lon="3.65668">
        <ele>649.51</ele>
        <time>2016-04-10T13:39:18Z</time>
      </trkpt>
      <trkpt lat="44.35678" lon="3.65546">
        <ele>645.18</ele>
        <time>2016-04-10T13:39:23Z</time>
      </trkpt>
      <trkpt lat="44.35674" lon="3.65525">
        <ele>643.74</ele>
        <time>2016-04-10T13:39:24Z</time>
      </trkpt>
      <trkpt lat="44.35668" lon="3.65501">
        <ele>642.3</ele>
        <time>2016-04-10T13:39:25Z</time>
      </trkpt>
      <trkpt lat="44.3566" lon="3.65474">
        <ele>641.82</ele>
        <time>2016-04-10T13:39:26Z</time>
      </trkpt>
      <trkpt lat="44.35651" lon="3.65445">
        <ele>640.86</ele>
        <time>2016-04-10T13:39:27Z</time>
      </trkpt>
      <trkpt lat="44.35642" lon="3.65418">
        <ele>640.38</ele>
        <time>2016-04-10T13:39:28Z</time>
      </trkpt>
      <trkpt lat="44.35616" lon="3.65317">
        <ele>637.97</ele>
        <time>2016-04-10T13:39:32Z</time>
      </trkpt>
      <trkpt lat="44.35616" lon="3.65292">
        <ele>637.49</ele>
        <time>2016-04-10T13:39:33Z</time>
      </trkpt>
      <trkpt lat="44.35621" lon="3.65269">
        <ele>637.01</ele>
        <time>2016-04-10T13:39:34Z</time>
      </trkpt>
      <trkpt lat="44.35626" lon="3.65249">
        <ele>636.05</ele>
        <time>2016-04-10T13:39:35Z</time>
      </trkpt>
      <trkpt lat="44.35628" lon="3.65229">
        <ele>635.57</ele>
        <time>2016-04-10T13:39:36Z</time>
      </trkpt>
      <trkpt lat="44.35625" lon="3.65211">
        <ele>635.09</ele>
        <time>2016-04-10T13:39:37Z</time>
      </trkpt>
      <trkpt lat="44.35619" lon="3.65193">
        <ele>633.65</ele>
        <time>2016-04-10T13:39:38Z</time>
      </trkpt>
      <trkpt lat="44.35608" lon="3.65178">
        <ele>633.17</ele>
        <time>2016-04-10T13:39:39Z</time>
      </trkpt>
      <trkpt lat="44.35595" lon="3.6517">
        <ele>632.68</ele>
        <time>2016-04-10T13:39:40Z</time>
      </trkpt>
      <trkpt lat="44.3558" lon="3.65169">
        <ele>631.72</ele>
        <time>2016-04-10T13:39:41Z</time>
      </trkpt>
      <trkpt lat="44.35564" lon="3.65175">
        <ele>630.76</ele>
        <time>2016-04-10T13:39:42Z</time>
      </trkpt>
      <trkpt lat="44.35547" lon="3.65185">
        <ele>630.76</ele>
        <time>2016-04-10T13:39:43Z</time>
      </trkpt>
      <trkpt lat="44.3553" lon="3.65193">
        <ele>630.28</ele>
        <time>2016-04-10T13:39:44Z</time>
      </trkpt>
      <trkpt lat="44.35513" lon="3.65196">
        <ele>629.8</ele>
        <time>2016-04-10T13:39:45Z</time>
      </trkpt>
      <trkpt lat="44.35495" lon="3.65193">
        <ele>629.32</ele>
        <time>2016-04-10T13:39:46Z</time>
      </trkpt>
      <trkpt lat="44.35479" lon="3.65183">
        <ele>628.84</ele>
        <time>2016-04-10T13:39:47Z</time>
      </trkpt>
      <trkpt lat="44.35464" lon="3.65171">
        <ele>628.84</ele>
        <time>2016-04-10T13:39:48Z</time>
      </trkpt>
      <trkpt lat="44.35451" lon="3.65155">
        <ele>627.88</ele>
        <time>2016-04-10T13:39:49Z</time>
      </trkpt>
      <trkpt lat="44.35439" lon="3.65138">
        <ele>628.36</ele>
        <time>2016-04-10T13:39:50Z</time>
      </trkpt>
      <trkpt lat="44.35429" lon="3.65118">
        <ele>628.36</ele>
        <time>2016-04-10T13:39:51Z</time>
      </trkpt>
      <trkpt lat="44.35423" lon="3.65095">
        <ele>627.88</ele>
        <time>2016-04-10T13:39:52Z</time>
      </trkpt>
      <trkpt lat="44.3542" lon="3.6507">
        <ele>627.4</ele>
        <time>2016-04-10T13:39:53Z</time>
      </trkpt>
      <trkpt lat="44.3542" lon="3.65043">
        <ele>627.88</ele>
        <time>2016-04-10T13:39:54Z</time>
      </trkpt>
      <trkpt lat="44.35419" lon="3.65015">
        <ele>628.36</ele>
        <time>2016-04-10T13:39:55Z</time>
      </trkpt>
      <trkpt lat="44.35417" lon="3.64926">
        <ele>628.36</ele>
        <time>2016-04-10T13:39:58Z</time>
      </trkpt>
      <trkpt lat="44.35422" lon="3.64895">
        <ele>628.36</ele>
        <time>2016-04-10T13:39:59Z</time>
      </trkpt>
      <trkpt lat="44.35445" lon="3.64741">
        <ele>627.88</ele>
        <time>2016-04-10T13:40:04Z</time>
      </trkpt>
      <trkpt lat="44.35452" lon="3.64713">
        <ele>628.36</ele>
        <time>2016-04-10T13:40:05Z</time>
      </trkpt>
      <trkpt lat="44.35461" lon="3.64689">
        <ele>628.36</ele>
        <time>2016-04-10T13:40:06Z</time>
      </trkpt>
      <trkpt lat="44.35468" lon="3.64664">
        <ele>628.36</ele>
        <time>2016-04-10T13:40:07Z</time>
      </trkpt>
      <trkpt lat="44.35473" lon="3.6464">
        <ele>628.36</ele>
        <time>2016-04-10T13:40:08Z</time>
      </trkpt>
      <trkpt lat="44.35479" lon="3.64619">
        <ele>628.84</ele>
        <time>2016-04-10T13:40:09Z</time>
      </trkpt>
      <trkpt lat="44.35488" lon="3.64601">
        <ele>628.84</ele>
        <time>2016-04-10T13:40:10Z</time>
      </trkpt>
      <trkpt lat="44.355" lon="3.64585">
        <ele>628.84</ele>
        <time>2016-04-10T13:40:11Z</time>
      </trkpt>
      <trkpt lat="44.35514" lon="3.64566">
        <ele>628.84</ele>
        <time>2016-04-10T13:40:12Z</time>
      </trkpt>
      <trkpt lat="44.35528" lon="3.64542">
        <ele>629.32</ele>
        <time>2016-04-10T13:40:13Z</time>
      </trkpt>
      <trkpt lat="44.35541" lon="3.64516">
        <ele>629.32</ele>
        <time>2016-04-10T13:40:14Z</time>
      </trkpt>
      <trkpt lat="44.35554" lon="3.64485">
        <ele>629.32</ele>
        <time>2016-04-10T13:40:15Z</time>
      </trkpt>
      <trkpt lat="44.35567" lon="3.64449">
        <ele>629.32</ele>
        <time>2016-04-10T13:40:16Z</time>
      </trkpt>
      <trkpt lat="44.3558" lon="3.64412">
        <ele>629.32</ele>
        <time>2016-04-10T13:40:17Z</time>
      </trkpt>
      <trkpt lat="44.35626" lon="3.64265">
        <ele>629.8</ele>
        <time>2016-04-10T13:40:22Z</time>
      </trkpt>
      <trkpt lat="44.35634" lon="3.64248">
        <ele>629.8</ele>
        <time>2016-04-10T13:40:23Z</time>
      </trkpt>
      <trkpt lat="44.35643" lon="3.64236">
        <ele>629.8</ele>
        <time>2016-04-10T13:40:24Z</time>
      </trkpt>
      <trkpt lat="44.35655" lon="3.6423">
        <ele>629.32</ele>
        <time>2016-04-10T13:40:25Z</time>
      </trkpt>
      <trkpt lat="44.35669" lon="3.64231">
        <ele>628.84</ele>
        <time>2016-04-10T13:40:26Z</time>
      </trkpt>
      <trkpt lat="44.35684" lon="3.6424">
        <ele>629.32</ele>
        <time>2016-04-10T13:40:27Z</time>
      </trkpt>
      <trkpt lat="44.35699" lon="3.64246">
        <ele>629.8</ele>
        <time>2016-04-10T13:40:28Z</time>
      </trkpt>
      <trkpt lat="44.35715" lon="3.64252">
        <ele>630.28</ele>
        <time>2016-04-10T13:40:29Z</time>
      </trkpt>
      <trkpt lat="44.35812" lon="3.64289">
        <ele>626.92</ele>
        <time>2016-04-10T13:40:35Z</time>
      </trkpt>
      <trkpt lat="44.35822" lon="3.64289">
        <ele>626.92</ele>
        <time>2016-04-10T13:40:36Z</time>
      </trkpt>
      <trkpt lat="44.35828" lon="3.64285">
        <ele>626.44</ele>
        <time>2016-04-10T13:40:37Z</time>
      </trkpt>
      <trkpt lat="44.35836" lon="3.64273">
        <ele>624.51</ele>
        <time>2016-04-10T13:40:38Z</time>
      </trkpt>
      <trkpt lat="44.3584" lon="3.64261">
        <ele>623.55</ele>
        <time>2016-04-10T13:40:39Z</time>
      </trkpt>
      <trkpt lat="44.35839" lon="3.64246">
        <ele>623.07</ele>
        <time>2016-04-10T13:40:40Z</time>
      </trkpt>
      <trkpt lat="44.35837" lon="3.64229">
        <ele>621.63</ele>
        <time>2016-04-10T13:40:41Z</time>
      </trkpt>
      <trkpt lat="44.35832" lon="3.64213">
        <ele>620.67</ele>
        <time>2016-04-10T13:40:42Z</time>
      </trkpt>
      <trkpt lat="44.35824" lon="3.64196">
        <ele>620.19</ele>
        <time>2016-04-10T13:40:43Z</time>
      </trkpt>
      <trkpt lat="44.35813" lon="3.6418">
        <ele>619.71</ele>
        <time>2016-04-10T13:40:44Z</time>
      </trkpt>
      <trkpt lat="44.358" lon="3.64168">
        <ele>618.26</ele>
        <time>2016-04-10T13:40:45Z</time>
      </trkpt>
      <trkpt lat="44.35787" lon="3.64158">
        <ele>616.82</ele>
        <time>2016-04-10T13:40:46Z</time>
      </trkpt>
      <trkpt lat="44.35771" lon="3.64153">
        <ele>616.34</ele>
        <time>2016-04-10T13:40:47Z</time>
      </trkpt>
      <trkpt lat="44.35756" lon="3.6415">
        <ele>615.86</ele>
        <time>2016-04-10T13:40:48Z</time>
      </trkpt>
      <trkpt lat="44.35739" lon="3.64148">
        <ele>615.38</ele>
        <time>2016-04-10T13:40:49Z</time>
      </trkpt>
      <trkpt lat="44.35708" lon="3.64137">
        <ele>613.94</ele>
        <time>2016-04-10T13:40:51Z</time>
      </trkpt>
      <trkpt lat="44.35695" lon="3.64127">
        <ele>613.94</ele>
        <time>2016-04-10T13:40:52Z</time>
      </trkpt>
      <trkpt lat="44.35682" lon="3.64113">
        <ele>612.98</ele>
        <time>2016-04-10T13:40:53Z</time>
      </trkpt>
      <trkpt lat="44.3567" lon="3.64095">
        <ele>612.02</ele>
        <time>2016-04-10T13:40:54Z</time>
      </trkpt>
      <trkpt lat="44.3566" lon="3.64073">
        <ele>611.06</ele>
        <time>2016-04-10T13:40:55Z</time>
      </trkpt>
      <trkpt lat="44.35651" lon="3.64048">
        <ele>611.06</ele>
        <time>2016-04-10T13:40:56Z</time>
      </trkpt>
      <trkpt lat="44.35642" lon="3.64022">
        <ele>610.57</ele>
        <time>2016-04-10T13:40:57Z</time>
      </trkpt>
      <trkpt lat="44.3558" lon="3.63854">
        <ele>614.9</ele>
        <time>2016-04-10T13:41:04Z</time>
      </trkpt>
      <trkpt lat="44.35564" lon="3.63839">
        <ele>616.34</ele>
        <time>2016-04-10T13:41:05Z</time>
      </trkpt>
      <trkpt lat="44.35547" lon="3.63823">
        <ele>617.78</ele>
        <time>2016-04-10T13:41:06Z</time>
      </trkpt>
      <trkpt lat="44.35531" lon="3.63805">
        <ele>618.26</ele>
        <time>2016-04-10T13:41:07Z</time>
      </trkpt>
      <trkpt lat="44.35515" lon="3.63785">
        <ele>619.23</ele>
        <time>2016-04-10T13:41:08Z</time>
      </trkpt>
      <trkpt lat="44.35483" lon="3.63752">
        <ele>620.67</ele>
        <time>2016-04-10T13:41:10Z</time>
      </trkpt>
      <trkpt lat="44.35444" lon="3.63707">
        <ele>622.59</ele>
        <time>2016-04-10T13:41:13Z</time>
      </trkpt>
      <trkpt lat="44.35434" lon="3.63687">
        <ele>622.59</ele>
        <time>2016-04-10T13:41:14Z</time>
      </trkpt>
      <trkpt lat="44.35429" lon="3.63663">
        <ele>622.59</ele>
        <time>2016-04-10T13:41:15Z</time>
      </trkpt>
      <trkpt lat="44.35427" lon="3.63632">
        <ele>621.63</ele>
        <time>2016-04-10T13:41:16Z</time>
      </trkpt>
      <trkpt lat="44.35429" lon="3.63596">
        <ele>620.19</ele>
        <time>2016-04-10T13:41:17Z</time>
      </trkpt>
      <trkpt lat="44.35427" lon="3.63555">
        <ele>618.26</ele>
        <time>2016-04-10T13:41:18Z</time>
      </trkpt>
      <trkpt lat="44.35405" lon="3.63334">
        <ele>612.02</ele>
        <time>2016-04-10T13:41:24Z</time>
      </trkpt>
      <trkpt lat="44.35407" lon="3.63302">
        <ele>611.06</ele>
        <time>2016-04-10T13:41:25Z</time>
      </trkpt>
      <trkpt lat="44.3541" lon="3.63271">
        <ele>610.09</ele>
        <time>2016-04-10T13:41:26Z</time>
      </trkpt>
      <trkpt lat="44.35414" lon="3.6311">
        <ele>608.65</ele>
        <time>2016-04-10T13:41:32Z</time>
      </trkpt>
      <trkpt lat="44.35414" lon="3.63049">
        <ele>609.61</ele>
        <time>2016-04-10T13:41:35Z</time>
      </trkpt>
      <trkpt lat="44.35409" lon="3.63032">
        <ele>610.09</ele>
        <time>2016-04-10T13:41:36Z</time>
      </trkpt>
      <trkpt lat="44.354" lon="3.63016">
        <ele>611.54</ele>
        <time>2016-04-10T13:41:37Z</time>
      </trkpt>
      <trkpt lat="44.3539" lon="3.63002">
        <ele>612.5</ele>
        <time>2016-04-10T13:41:38Z</time>
      </trkpt>
      <trkpt lat="44.35382" lon="3.6299">
        <ele>612.5</ele>
        <time>2016-04-10T13:41:39Z</time>
      </trkpt>
      <trkpt lat="44.35374" lon="3.62979">
        <ele>612.02</ele>
        <time>2016-04-10T13:41:40Z</time>
      </trkpt>
      <trkpt lat="44.35365" lon="3.62974">
        <ele>611.54</ele>
        <time>2016-04-10T13:41:41Z</time>
      </trkpt>
      <trkpt lat="44.35355" lon="3.62979">
        <ele>612.02</ele>
        <time>2016-04-10T13:41:42Z</time>
      </trkpt>
      <trkpt lat="44.35343" lon="3.62986">
        <ele>612.98</ele>
        <time>2016-04-10T13:41:43Z</time>
      </trkpt>
      <trkpt lat="44.35332" lon="3.62989">
        <ele>613.46</ele>
        <time>2016-04-10T13:41:44Z</time>
      </trkpt>
      <trkpt lat="44.35317" lon="3.62989">
        <ele>614.42</ele>
        <time>2016-04-10T13:41:45Z</time>
      </trkpt>
      <trkpt lat="44.35302" lon="3.62983">
        <ele>614.9</ele>
        <time>2016-04-10T13:41:46Z</time>
      </trkpt>
      <trkpt lat="44.35287" lon="3.62976">
        <ele>615.38</ele>
        <time>2016-04-10T13:41:47Z</time>
      </trkpt>
      <trkpt lat="44.35271" lon="3.62972">
        <ele>616.34</ele>
        <time>2016-04-10T13:41:48Z</time>
      </trkpt>
      <trkpt lat="44.35254" lon="3.62969">
        <ele>616.34</ele>
        <time>2016-04-10T13:41:49Z</time>
      </trkpt>
      <trkpt lat="44.35236" lon="3.62969">
        <ele>616.82</ele>
        <time>2016-04-10T13:41:50Z</time>
      </trkpt>
      <trkpt lat="44.35217" lon="3.62972">
        <ele>616.82</ele>
        <time>2016-04-10T13:41:51Z</time>
      </trkpt>
      <trkpt lat="44.35198" lon="3.62976">
        <ele>617.3</ele>
        <time>2016-04-10T13:41:52Z</time>
      </trkpt>
      <trkpt lat="44.35181" lon="3.62982">
        <ele>617.78</ele>
        <time>2016-04-10T13:41:53Z</time>
      </trkpt>
      <trkpt lat="44.35165" lon="3.62989">
        <ele>618.26</ele>
        <time>2016-04-10T13:41:54Z</time>
      </trkpt>
      <trkpt lat="44.35151" lon="3.62999">
        <ele>618.26</ele>
        <time>2016-04-10T13:41:55Z</time>
      </trkpt>
      <trkpt lat="44.35138" lon="3.63012">
        <ele>618.75</ele>
        <time>2016-04-10T13:41:56Z</time>
      </trkpt>
      <trkpt lat="44.35127" lon="3.63025">
        <ele>619.23</ele>
        <time>2016-04-10T13:41:57Z</time>
      </trkpt>
      <trkpt lat="44.35048" lon="3.63117">
        <ele>621.15</ele>
        <time>2016-04-10T13:42:04Z</time>
      </trkpt>
      <trkpt lat="44.35035" lon="3.63126">
        <ele>621.15</ele>
        <time>2016-04-10T13:42:05Z</time>
      </trkpt>
      <trkpt lat="44.35021" lon="3.63132">
        <ele>621.63</ele>
        <time>2016-04-10T13:42:06Z</time>
      </trkpt>
      <trkpt lat="44.35006" lon="3.63137">
        <ele>622.11</ele>
        <time>2016-04-10T13:42:07Z</time>
      </trkpt>
      <trkpt lat="44.34992" lon="3.63138">
        <ele>622.11</ele>
        <time>2016-04-10T13:42:08Z</time>
      </trkpt>
      <trkpt lat="44.34978" lon="3.63137">
        <ele>622.59</ele>
        <time>2016-04-10T13:42:09Z</time>
      </trkpt>
      <trkpt lat="44.34966" lon="3.63132">
        <ele>622.59</ele>
        <time>2016-04-10T13:42:10Z</time>
      </trkpt>
      <trkpt lat="44.34955" lon="3.63125">
        <ele>622.11</ele>
        <time>2016-04-10T13:42:11Z</time>
      </trkpt>
      <trkpt lat="44.34945" lon="3.63118">
        <ele>622.59</ele>
        <time>2016-04-10T13:42:12Z</time>
      </trkpt>
      <trkpt lat="44.34937" lon="3.6311">
        <ele>622.59</ele>
        <time>2016-04-10T13:42:13Z</time>
      </trkpt>
      <trkpt lat="44.34931" lon="3.63098">
        <ele>622.59</ele>
        <time>2016-04-10T13:42:14Z</time>
      </trkpt>
      <trkpt lat="44.34926" lon="3.63083">
        <ele>622.11</ele>
        <time>2016-04-10T13:42:15Z</time>
      </trkpt>
      <trkpt lat="44.34923" lon="3.63064">
        <ele>622.11</ele>
        <time>2016-04-10T13:42:16Z</time>
      </trkpt>
      <trkpt lat="44.34923" lon="3.6304">
        <ele>621.15</ele>
        <time>2016-04-10T13:42:17Z</time>
      </trkpt>
      <trkpt lat="44.34926" lon="3.63013">
        <ele>621.15</ele>
        <time>2016-04-10T13:42:18Z</time>
      </trkpt>
      <trkpt lat="44.34929" lon="3.62985">
        <ele>621.15</ele>
        <time>2016-04-10T13:42:19Z</time>
      </trkpt>
      <trkpt lat="44.34926" lon="3.62856">
        <ele>623.55</ele>
        <time>2016-04-10T13:42:24Z</time>
      </trkpt>
      <trkpt lat="44.34921" lon="3.62837">
        <ele>624.03</ele>
        <time>2016-04-10T13:42:25Z</time>
      </trkpt>
      <trkpt lat="44.34913" lon="3.6282">
        <ele>624.51</ele>
        <time>2016-04-10T13:42:26Z</time>
      </trkpt>
      <trkpt lat="44.34899" lon="3.62793">
        <ele>624.99</ele>
        <time>2016-04-10T13:42:28Z</time>
      </trkpt>
      <trkpt lat="44.34894" lon="3.62779">
        <ele>625.47</ele>
        <time>2016-04-10T13:42:29Z</time>
      </trkpt>
      <trkpt lat="44.34894" lon="3.62764">
        <ele>625.96</ele>
        <time>2016-04-10T13:42:30Z</time>
      </trkpt>
      <trkpt lat="44.34895" lon="3.62747">
        <ele>625.96</ele>
        <time>2016-04-10T13:42:31Z</time>
      </trkpt>
      <trkpt lat="44.34898" lon="3.62729">
        <ele>626.44</ele>
        <time>2016-04-10T13:42:32Z</time>
      </trkpt>
      <trkpt lat="44.34902" lon="3.62711">
        <ele>626.92</ele>
        <time>2016-04-10T13:42:33Z</time>
      </trkpt>
      <trkpt lat="44.34906" lon="3.62693">
        <ele>626.92</ele>
        <time>2016-04-10T13:42:34Z</time>
      </trkpt>
      <trkpt lat="44.34906" lon="3.62677">
        <ele>627.4</ele>
        <time>2016-04-10T13:42:35Z</time>
      </trkpt>
      <trkpt lat="44.34904" lon="3.62661">
        <ele>627.4</ele>
        <time>2016-04-10T13:42:36Z</time>
      </trkpt>
      <trkpt lat="44.34899" lon="3.62647">
        <ele>626.92</ele>
        <time>2016-04-10T13:42:37Z</time>
      </trkpt>
      <trkpt lat="44.34895" lon="3.62634">
        <ele>626.92</ele>
        <time>2016-04-10T13:42:38Z</time>
      </trkpt>
      <trkpt lat="44.34894" lon="3.6262">
        <ele>626.92</ele>
        <time>2016-04-10T13:42:39Z</time>
      </trkpt>
      <trkpt lat="44.34894" lon="3.62605">
        <ele>627.4</ele>
        <time>2016-04-10T13:42:40Z</time>
      </trkpt>
      <trkpt lat="44.34892" lon="3.62589">
        <ele>627.4</ele>
        <time>2016-04-10T13:42:41Z</time>
      </trkpt>
      <trkpt lat="44.34889" lon="3.62573">
        <ele>627.4</ele>
        <time>2016-04-10T13:42:42Z</time>
      </trkpt>
      <trkpt lat="44.34885" lon="3.62557">
        <ele>627.4</ele>
        <time>2016-04-10T13:42:43Z</time>
      </trkpt>
      <trkpt lat="44.3488" lon="3.62542">
        <ele>627.88</ele>
        <time>2016-04-10T13:42:44Z</time>
      </trkpt>
      <trkpt lat="44.34876" lon="3.62527">
        <ele>627.88</ele>
        <time>2016-04-10T13:42:45Z</time>
      </trkpt>
      <trkpt lat="44.34874" lon="3.62511">
        <ele>627.88</ele>
        <time>2016-04-10T13:42:46Z</time>
      </trkpt>
      <trkpt lat="44.34873" lon="3.62493">
        <ele>627.88</ele>
        <time>2016-04-10T13:42:47Z</time>
      </trkpt>
      <trkpt lat="44.34876" lon="3.62473">
        <ele>627.4</ele>
        <time>2016-04-10T13:42:48Z</time>
      </trkpt>
      <trkpt lat="44.34878" lon="3.6245">
        <ele>627.4</ele>
        <time>2016-04-10T13:42:49Z</time>
      </trkpt>
      <trkpt lat="44.34876" lon="3.62319">
        <ele>624.99</ele>
        <time>2016-04-10T13:42:56Z</time>
      </trkpt>
      <trkpt lat="44.34846" lon="3.62188">
        <ele>619.23</ele>
        <time>2016-04-10T13:43:04Z</time>
      </trkpt>
      <trkpt lat="44.34775" lon="3.62036">
        <ele>612.5</ele>
        <time>2016-04-10T13:43:14Z</time>
      </trkpt>
      <trkpt lat="44.34712" lon="3.61901">
        <ele>607.21</ele>
        <time>2016-04-10T13:43:23Z</time>
      </trkpt>
      <trkpt lat="44.34703" lon="3.61887">
        <ele>606.25</ele>
        <time>2016-04-10T13:43:24Z</time>
      </trkpt>
      <trkpt lat="44.34693" lon="3.61875">
        <ele>605.29</ele>
        <time>2016-04-10T13:43:25Z</time>
      </trkpt>
      <trkpt lat="44.3466" lon="3.61839">
        <ele>602.88</ele>
        <time>2016-04-10T13:43:28Z</time>
      </trkpt>
      <trkpt lat="44.3465" lon="3.61824">
        <ele>601.92</ele>
        <time>2016-04-10T13:43:29Z</time>
      </trkpt>
      <trkpt lat="44.34641" lon="3.61807">
        <ele>600.96</ele>
        <time>2016-04-10T13:43:30Z</time>
      </trkpt>
      <trkpt lat="44.34632" lon="3.61787">
        <ele>600</ele>
        <time>2016-04-10T13:43:31Z</time>
      </trkpt>
      <trkpt lat="44.34623" lon="3.61765">
        <ele>598.56</ele>
        <time>2016-04-10T13:43:32Z</time>
      </trkpt>
      <trkpt lat="44.34523" lon="3.61486">
        <ele>580.77</ele>
        <time>2016-04-10T13:43:44Z</time>
      </trkpt>
      <trkpt lat="44.34486" lon="3.61349">
        <ele>572.6</ele>
        <time>2016-04-10T13:43:49Z</time>
      </trkpt>
      <trkpt lat="44.34483" lon="3.61322">
        <ele>571.16</ele>
        <time>2016-04-10T13:43:50Z</time>
      </trkpt>
      <trkpt lat="44.34484" lon="3.61295">
        <ele>569.72</ele>
        <time>2016-04-10T13:43:51Z</time>
      </trkpt>
      <trkpt lat="44.34488" lon="3.61267">
        <ele>568.76</ele>
        <time>2016-04-10T13:43:52Z</time>
      </trkpt>
      <trkpt lat="44.34491" lon="3.61237">
        <ele>568.28</ele>
        <time>2016-04-10T13:43:53Z</time>
      </trkpt>
      <trkpt lat="44.34508" lon="3.61085">
        <ele>567.32</ele>
        <time>2016-04-10T13:43:59Z</time>
      </trkpt>
      <trkpt lat="44.34505" lon="3.61067">
        <ele>567.32</ele>
        <time>2016-04-10T13:44:00Z</time>
      </trkpt>
      <trkpt lat="44.345" lon="3.6105">
        <ele>567.32</ele>
        <time>2016-04-10T13:44:01Z</time>
      </trkpt>
      <trkpt lat="44.34492" lon="3.61035">
        <ele>566.83</ele>
        <time>2016-04-10T13:44:02Z</time>
      </trkpt>
      <trkpt lat="44.3448" lon="3.61023">
        <ele>567.32</ele>
        <time>2016-04-10T13:44:03Z</time>
      </trkpt>
      <trkpt lat="44.34467" lon="3.61013">
        <ele>567.8</ele>
        <time>2016-04-10T13:44:04Z</time>
      </trkpt>
      <trkpt lat="44.34457" lon="3.61003">
        <ele>567.8</ele>
        <time>2016-04-10T13:44:05Z</time>
      </trkpt>
      <trkpt lat="44.34449" lon="3.60993">
        <ele>568.28</ele>
        <time>2016-04-10T13:44:06Z</time>
      </trkpt>
      <trkpt lat="44.34444" lon="3.60981">
        <ele>568.76</ele>
        <time>2016-04-10T13:44:07Z</time>
      </trkpt>
      <trkpt lat="44.34441" lon="3.60968">
        <ele>568.76</ele>
        <time>2016-04-10T13:44:08Z</time>
      </trkpt>
      <trkpt lat="44.3444" lon="3.60953">
        <ele>569.24</ele>
        <time>2016-04-10T13:44:09Z</time>
      </trkpt>
      <trkpt lat="44.34441" lon="3.60934">
        <ele>569.72</ele>
        <time>2016-04-10T13:44:10Z</time>
      </trkpt>
      <trkpt lat="44.34441" lon="3.60912">
        <ele>570.68</ele>
        <time>2016-04-10T13:44:11Z</time>
      </trkpt>
      <trkpt lat="44.34441" lon="3.60891">
        <ele>571.16</ele>
        <time>2016-04-10T13:44:12Z</time>
      </trkpt>
      <trkpt lat="44.34443" lon="3.60871">
        <ele>572.12</ele>
        <time>2016-04-10T13:44:13Z</time>
      </trkpt>
      <trkpt lat="44.34449" lon="3.60855">
        <ele>573.08</ele>
        <time>2016-04-10T13:44:14Z</time>
      </trkpt>
      <trkpt lat="44.34457" lon="3.60826">
        <ele>575.01</ele>
        <time>2016-04-10T13:44:16Z</time>
      </trkpt>
      <trkpt lat="44.34457" lon="3.60813">
        <ele>575.49</ele>
        <time>2016-04-10T13:44:17Z</time>
      </trkpt>
      <trkpt lat="44.34456" lon="3.608">
        <ele>575.49</ele>
        <time>2016-04-10T13:44:18Z</time>
      </trkpt>
      <trkpt lat="44.34452" lon="3.60788">
        <ele>575.49</ele>
        <time>2016-04-10T13:44:19Z</time>
      </trkpt>
      <trkpt lat="44.34449" lon="3.60776">
        <ele>575.49</ele>
        <time>2016-04-10T13:44:20Z</time>
      </trkpt>
      <trkpt lat="44.34427" lon="3.60671">
        <ele>573.08</ele>
        <time>2016-04-10T13:44:27Z</time>
      </trkpt>
      <trkpt lat="44.34427" lon="3.60657">
        <ele>572.6</ele>
        <time>2016-04-10T13:44:28Z</time>
      </trkpt>
      <trkpt lat="44.34426" lon="3.60599">
        <ele>570.68</ele>
        <time>2016-04-10T13:44:32Z</time>
      </trkpt>
      <trkpt lat="44.34423" lon="3.60584">
        <ele>570.2</ele>
        <time>2016-04-10T13:44:33Z</time>
      </trkpt>
      <trkpt lat="44.34418" lon="3.60569">
        <ele>569.24</ele>
        <time>2016-04-10T13:44:34Z</time>
      </trkpt>
      <trkpt lat="44.34411" lon="3.60554">
        <ele>568.76</ele>
        <time>2016-04-10T13:44:35Z</time>
      </trkpt>
      <trkpt lat="44.34404" lon="3.60539">
        <ele>568.28</ele>
        <time>2016-04-10T13:44:36Z</time>
      </trkpt>
      <trkpt lat="44.34356" lon="3.60407">
        <ele>565.39</ele>
        <time>2016-04-10T13:44:45Z</time>
      </trkpt>
      <trkpt lat="44.34325" lon="3.60277">
        <ele>566.83</ele>
        <time>2016-04-10T13:44:53Z</time>
      </trkpt>
      <trkpt lat="44.34323" lon="3.60258">
        <ele>567.32</ele>
        <time>2016-04-10T13:44:54Z</time>
      </trkpt>
      <trkpt lat="44.34323" lon="3.60239">
        <ele>568.28</ele>
        <time>2016-04-10T13:44:55Z</time>
      </trkpt>
      <trkpt lat="44.34323" lon="3.60219">
        <ele>569.24</ele>
        <time>2016-04-10T13:44:56Z</time>
      </trkpt>
      <trkpt lat="44.34325" lon="3.602">
        <ele>570.2</ele>
        <time>2016-04-10T13:44:57Z</time>
      </trkpt>
      <trkpt lat="44.34327" lon="3.60182">
        <ele>570.68</ele>
        <time>2016-04-10T13:44:58Z</time>
      </trkpt>
      <trkpt lat="44.34336" lon="3.60133">
        <ele>573.56</ele>
        <time>2016-04-10T13:45:01Z</time>
      </trkpt>
      <trkpt lat="44.34341" lon="3.60118">
        <ele>574.53</ele>
        <time>2016-04-10T13:45:02Z</time>
      </trkpt>
      <trkpt lat="44.34348" lon="3.60104">
        <ele>575.49</ele>
        <time>2016-04-10T13:45:03Z</time>
      </trkpt>
      <trkpt lat="44.34364" lon="3.60074">
        <ele>577.41</ele>
        <time>2016-04-10T13:45:05Z</time>
      </trkpt>
      <trkpt lat="44.34371" lon="3.60053">
        <ele>578.37</ele>
        <time>2016-04-10T13:45:06Z</time>
      </trkpt>
      <trkpt lat="44.34374" lon="3.60029">
        <ele>579.33</ele>
        <time>2016-04-10T13:45:07Z</time>
      </trkpt>
      <trkpt lat="44.34374" lon="3.60004">
        <ele>580.77</ele>
        <time>2016-04-10T13:45:08Z</time>
      </trkpt>
      <trkpt lat="44.34374" lon="3.59979">
        <ele>581.73</ele>
        <time>2016-04-10T13:45:09Z</time>
      </trkpt>
      <trkpt lat="44.34372" lon="3.59931">
        <ele>583.66</ele>
        <time>2016-04-10T13:45:11Z</time>
      </trkpt>
      <trkpt lat="44.34368" lon="3.59907">
        <ele>584.62</ele>
        <time>2016-04-10T13:45:12Z</time>
      </trkpt>
      <trkpt lat="44.34345" lon="3.59726">
        <ele>592.31</ele>
        <time>2016-04-10T13:45:19Z</time>
      </trkpt>
      <trkpt lat="44.34325" lon="3.59587">
        <ele>595.67</ele>
        <time>2016-04-10T13:45:26Z</time>
      </trkpt>
      <trkpt lat="44.34319" lon="3.5957">
        <ele>595.67</ele>
        <time>2016-04-10T13:45:27Z</time>
      </trkpt>
      <trkpt lat="44.3431" lon="3.59558">
        <ele>596.15</ele>
        <time>2016-04-10T13:45:28Z</time>
      </trkpt>
      <trkpt lat="44.34299" lon="3.59552">
        <ele>596.15</ele>
        <time>2016-04-10T13:45:29Z</time>
      </trkpt>
      <trkpt lat="44.34286" lon="3.5955">
        <ele>595.67</ele>
        <time>2016-04-10T13:45:30Z</time>
      </trkpt>
      <trkpt lat="44.3427" lon="3.59556">
        <ele>594.71</ele>
        <time>2016-04-10T13:45:31Z</time>
      </trkpt>
      <trkpt lat="44.34254" lon="3.5957">
        <ele>595.19</ele>
        <time>2016-04-10T13:45:32Z</time>
      </trkpt>
      <trkpt lat="44.34237" lon="3.59585">
        <ele>595.67</ele>
        <time>2016-04-10T13:45:33Z</time>
      </trkpt>
      <trkpt lat="44.34221" lon="3.596">
        <ele>595.19</ele>
        <time>2016-04-10T13:45:34Z</time>
      </trkpt>
      <trkpt lat="44.34098" lon="3.5968">
        <ele>588.46</ele>
        <time>2016-04-10T13:45:40Z</time>
      </trkpt>
      <trkpt lat="44.33948" lon="3.59706">
        <ele>578.37</ele>
        <time>2016-04-10T13:45:47Z</time>
      </trkpt>
      <trkpt lat="44.33778" lon="3.59688">
        <ele>566.35</ele>
        <time>2016-04-10T13:45:55Z</time>
      </trkpt>
      <trkpt lat="44.33763" lon="3.59684">
        <ele>565.39</ele>
        <time>2016-04-10T13:45:56Z</time>
      </trkpt>
      <trkpt lat="44.33747" lon="3.59671">
        <ele>565.87</ele>
        <time>2016-04-10T13:45:57Z</time>
      </trkpt>
      <trkpt lat="44.33731" lon="3.59657">
        <ele>565.87</ele>
        <time>2016-04-10T13:45:58Z</time>
      </trkpt>
      <trkpt lat="44.33719" lon="3.59643">
        <ele>565.87</ele>
        <time>2016-04-10T13:45:59Z</time>
      </trkpt>
      <trkpt lat="44.33704" lon="3.59627">
        <ele>567.8</ele>
        <time>2016-04-10T13:46:00Z</time>
      </trkpt>
      <trkpt lat="44.33689" lon="3.59609">
        <ele>567.8</ele>
        <time>2016-04-10T13:46:01Z</time>
      </trkpt>
      <trkpt lat="44.33676" lon="3.5959">
        <ele>568.28</ele>
        <time>2016-04-10T13:46:02Z</time>
      </trkpt>
      <trkpt lat="44.33664" lon="3.59569">
        <ele>568.76</ele>
        <time>2016-04-10T13:46:03Z</time>
      </trkpt>
      <trkpt lat="44.33655" lon="3.59549">
        <ele>568.76</ele>
        <time>2016-04-10T13:46:04Z</time>
      </trkpt>
      <trkpt lat="44.33649" lon="3.59526">
        <ele>568.28</ele>
        <time>2016-04-10T13:46:05Z</time>
      </trkpt>
      <trkpt lat="44.33644" lon="3.59501">
        <ele>567.32</ele>
        <time>2016-04-10T13:46:06Z</time>
      </trkpt>
      <trkpt lat="44.33638" lon="3.59476">
        <ele>566.35</ele>
        <time>2016-04-10T13:46:07Z</time>
      </trkpt>
      <trkpt lat="44.33618" lon="3.59378">
        <ele>562.03</ele>
        <time>2016-04-10T13:46:11Z</time>
      </trkpt>
      <trkpt lat="44.33571" lon="3.59214">
        <ele>554.34</ele>
        <time>2016-04-10T13:46:18Z</time>
      </trkpt>
      <trkpt lat="44.33558" lon="3.59057">
        <ele>546.65</ele>
        <time>2016-04-10T13:46:24Z</time>
      </trkpt>
      <trkpt lat="44.33559" lon="3.58894">
        <ele>540.4</ele>
        <time>2016-04-10T13:46:30Z</time>
      </trkpt>
      <trkpt lat="44.33565" lon="3.58869">
        <ele>539.44</ele>
        <time>2016-04-10T13:46:31Z</time>
      </trkpt>
      <trkpt lat="44.33591" lon="3.58722">
        <ele>539.44</ele>
        <time>2016-04-10T13:46:38Z</time>
      </trkpt>
      <trkpt lat="44.33593" lon="3.58647">
        <ele>544.24</ele>
        <time>2016-04-10T13:46:43Z</time>
      </trkpt>
      <trkpt lat="44.33596" lon="3.58638">
        <ele>545.2</ele>
        <time>2016-04-10T13:46:44Z</time>
      </trkpt>
      <trkpt lat="44.33599" lon="3.5863">
        <ele>545.69</ele>
        <time>2016-04-10T13:46:45Z</time>
      </trkpt>
      <trkpt lat="44.33604" lon="3.58615">
        <ele>546.65</ele>
        <time>2016-04-10T13:46:47Z</time>
      </trkpt>
      <trkpt lat="44.33603" lon="3.58606">
        <ele>547.13</ele>
        <time>2016-04-10T13:46:48Z</time>
      </trkpt>
      <trkpt lat="44.33599" lon="3.58601">
        <ele>547.13</ele>
        <time>2016-04-10T13:46:49Z</time>
      </trkpt>
      <trkpt lat="44.33592" lon="3.58601">
        <ele>547.61</ele>
        <time>2016-04-10T13:46:50Z</time>
      </trkpt>
      <trkpt lat="44.33582" lon="3.58606">
        <ele>547.13</ele>
        <time>2016-04-10T13:46:51Z</time>
      </trkpt>
      <trkpt lat="44.33571" lon="3.5861">
        <ele>547.61</ele>
        <time>2016-04-10T13:46:52Z</time>
      </trkpt>
      <trkpt lat="44.33557" lon="3.58611">
        <ele>547.61</ele>
        <time>2016-04-10T13:46:53Z</time>
      </trkpt>
      <trkpt lat="44.33542" lon="3.5861">
        <ele>548.09</ele>
        <time>2016-04-10T13:46:54Z</time>
      </trkpt>
      <trkpt lat="44.33528" lon="3.5861">
        <ele>548.09</ele>
        <time>2016-04-10T13:46:55Z</time>
      </trkpt>
      <trkpt lat="44.3342" lon="3.58641">
        <ele>549.53</ele>
        <time>2016-04-10T13:47:03Z</time>
      </trkpt>
      <trkpt lat="44.33325" lon="3.58735">
        <ele>549.53</ele>
        <time>2016-04-10T13:47:10Z</time>
      </trkpt>
      <trkpt lat="44.33261" lon="3.58878">
        <ele>549.53</ele>
        <time>2016-04-10T13:47:17Z</time>
      </trkpt>
      <trkpt lat="44.33189" lon="3.59062">
        <ele>548.57</ele>
        <time>2016-04-10T13:47:27Z</time>
      </trkpt>
      <trkpt lat="44.3317" lon="3.5911">
        <ele>548.09</ele>
        <time>2016-04-10T13:47:33Z</time>
      </trkpt>
      <trkpt lat="44.33165" lon="3.59115">
        <ele>548.09</ele>
        <time>2016-04-10T13:47:34Z</time>
      </trkpt>
      <trkpt lat="44.3316" lon="3.59119">
        <ele>548.09</ele>
        <time>2016-04-10T13:47:35Z</time>
      </trkpt>
      <trkpt lat="44.33154" lon="3.59122">
        <ele>548.09</ele>
        <time>2016-04-10T13:47:36Z</time>
      </trkpt>
      <trkpt lat="44.33148" lon="3.59118">
        <ele>548.57</ele>
        <time>2016-04-10T13:47:37Z</time>
      </trkpt>
      <trkpt lat="44.33142" lon="3.59112">
        <ele>549.05</ele>
        <time>2016-04-10T13:47:38Z</time>
      </trkpt>
      <trkpt lat="44.33135" lon="3.59103">
        <ele>549.53</ele>
        <time>2016-04-10T13:47:39Z</time>
      </trkpt>
      <trkpt lat="44.33129" lon="3.59094">
        <ele>550.01</ele>
        <time>2016-04-10T13:47:40Z</time>
      </trkpt>
      <trkpt lat="44.33104" lon="3.5906">
        <ele>550.01</ele>
        <time>2016-04-10T13:47:44Z</time>
      </trkpt>
      <trkpt lat="44.33095" lon="3.59054">
        <ele>549.53</ele>
        <time>2016-04-10T13:47:45Z</time>
      </trkpt>
      <trkpt lat="44.33086" lon="3.5905">
        <ele>549.05</ele>
        <time>2016-04-10T13:47:46Z</time>
      </trkpt>
      <trkpt lat="44.33076" lon="3.59047">
        <ele>548.57</ele>
        <time>2016-04-10T13:47:47Z</time>
      </trkpt>
      <trkpt lat="44.33066" lon="3.59047">
        <ele>548.57</ele>
        <time>2016-04-10T13:47:48Z</time>
      </trkpt>
      <trkpt lat="44.33056" lon="3.5905">
        <ele>548.09</ele>
        <time>2016-04-10T13:47:49Z</time>
      </trkpt>
      <trkpt lat="44.33047" lon="3.59054">
        <ele>547.61</ele>
        <time>2016-04-10T13:47:50Z</time>
      </trkpt>
      <trkpt lat="44.33039" lon="3.5906">
        <ele>547.13</ele>
        <time>2016-04-10T13:47:51Z</time>
      </trkpt>
      <trkpt lat="44.33031" lon="3.59067">
        <ele>546.17</ele>
        <time>2016-04-10T13:47:52Z</time>
      </trkpt>
      <trkpt lat="44.3296" lon="3.59124">
        <ele>545.69</ele>
        <time>2016-04-10T13:48:04Z</time>
      </trkpt>
      <trkpt lat="44.32923" lon="3.59153">
        <ele>545.69</ele>
        <time>2016-04-10T13:48:15Z</time>
      </trkpt>
      <trkpt lat="44.32903" lon="3.59167">
        <ele>545.69</ele>
        <time>2016-04-10T13:48:19Z</time>
      </trkpt>
      <trkpt lat="44.32898" lon="3.59168">
        <ele>545.2</ele>
        <time>2016-04-10T13:48:20Z</time>
      </trkpt>
      <trkpt lat="44.32892" lon="3.59168">
        <ele>545.69</ele>
        <time>2016-04-10T13:48:21Z</time>
      </trkpt>
      <trkpt lat="44.3288" lon="3.59166">
        <ele>545.69</ele>
        <time>2016-04-10T13:48:23Z</time>
      </trkpt>
      <trkpt lat="44.32875" lon="3.59169">
        <ele>545.69</ele>
        <time>2016-04-10T13:48:24Z</time>
      </trkpt>
      <trkpt lat="44.32872" lon="3.59177">
        <ele>545.2</ele>
        <time>2016-04-10T13:48:25Z</time>
      </trkpt>
      <trkpt lat="44.32869" lon="3.59187">
        <ele>545.2</ele>
        <time>2016-04-10T13:48:26Z</time>
      </trkpt>
      <trkpt lat="44.32865" lon="3.59197">
        <ele>545.2</ele>
        <time>2016-04-10T13:48:27Z</time>
      </trkpt>
      <trkpt lat="44.32859" lon="3.59206">
        <ele>545.2</ele>
        <time>2016-04-10T13:48:28Z</time>
      </trkpt>
      <trkpt lat="44.32852" lon="3.59211">
        <ele>545.2</ele>
        <time>2016-04-10T13:48:29Z</time>
      </trkpt>
      <trkpt lat="44.32847" lon="3.59214">
        <ele>545.2</ele>
        <time>2016-04-10T13:48:30Z</time>
      </trkpt>
      <trkpt lat="44.32843" lon="3.59215">
        <ele>545.2</ele>
        <time>2016-04-10T13:48:31Z</time>
      </trkpt>
      <trkpt lat="44.3284" lon="3.59216">
        <ele>545.2</ele>
        <time>2016-04-10T13:48:32Z</time>
      </trkpt>
      <trkpt lat="44.32827" lon="3.5922">
        <ele>545.2</ele>
        <time>2016-04-10T13:48:43Z</time>
      </trkpt>
      <trkpt lat="44.32828" lon="3.59221">
        <ele>546.17</ele>
        <time>2016-04-10T13:49:13Z</time>
      </trkpt>
      <trkpt lat="44.32822" lon="3.59226">
        <ele>550.01</ele>
        <time>2016-04-10T14:02:33Z</time>
      </trkpt>
      <trkpt lat="44.32821" lon="3.59232">
        <ele>551.45</ele>
        <time>2016-04-10T14:02:50Z</time>
      </trkpt>
      <trkpt lat="44.32821" lon="3.59234">
        <ele>551.45</ele>
        <time>2016-04-10T14:03:12Z</time>
      </trkpt>
      <trkpt lat="44.32816" lon="3.59242">
        <ele>551.45</ele>
        <time>2016-04-10T14:03:15Z</time>
      </trkpt>
      <trkpt lat="44.3281" lon="3.59247">
        <ele>550.97</ele>
        <time>2016-04-10T14:03:16Z</time>
      </trkpt>
      <trkpt lat="44.32801" lon="3.59253">
        <ele>550.97</ele>
        <time>2016-04-10T14:03:17Z</time>
      </trkpt>
      <trkpt lat="44.32737" lon="3.59298">
        <ele>550.97</ele>
        <time>2016-04-10T14:03:26Z</time>
      </trkpt>
      <trkpt lat="44.32641" lon="3.59374">
        <ele>554.82</ele>
        <time>2016-04-10T14:03:39Z</time>
      </trkpt>
      <trkpt lat="44.32569" lon="3.59433">
        <ele>557.22</ele>
        <time>2016-04-10T14:03:49Z</time>
      </trkpt>
      <trkpt lat="44.32559" lon="3.59438">
        <ele>557.7</ele>
        <time>2016-04-10T14:03:50Z</time>
      </trkpt>
      <trkpt lat="44.32513" lon="3.59474">
        <ele>561.07</ele>
        <time>2016-04-10T14:03:57Z</time>
      </trkpt>
      <trkpt lat="44.32431" lon="3.59541">
        <ele>556.74</ele>
        <time>2016-04-10T14:04:07Z</time>
      </trkpt>
      <trkpt lat="44.32336" lon="3.59616">
        <ele>554.34</ele>
        <time>2016-04-10T14:04:18Z</time>
      </trkpt>
      <trkpt lat="44.32319" lon="3.59625">
        <ele>553.86</ele>
        <time>2016-04-10T14:04:20Z</time>
      </trkpt>
      <trkpt lat="44.32309" lon="3.59628">
        <ele>553.38</ele>
        <time>2016-04-10T14:04:21Z</time>
      </trkpt>
      <trkpt lat="44.32173" lon="3.59655">
        <ele>552.41</ele>
        <time>2016-04-10T14:04:35Z</time>
      </trkpt>
      <trkpt lat="44.3211" lon="3.59668">
        <ele>553.38</ele>
        <time>2016-04-10T14:04:42Z</time>
      </trkpt>
      <trkpt lat="44.32102" lon="3.59671">
        <ele>552.9</ele>
        <time>2016-04-10T14:04:43Z</time>
      </trkpt>
      <trkpt lat="44.32094" lon="3.59675">
        <ele>552.9</ele>
        <time>2016-04-10T14:04:44Z</time>
      </trkpt>
      <trkpt lat="44.32045" lon="3.5971">
        <ele>555.3</ele>
        <time>2016-04-10T14:04:54Z</time>
      </trkpt>
      <trkpt lat="44.32038" lon="3.59712">
        <ele>554.82</ele>
        <time>2016-04-10T14:04:58Z</time>
      </trkpt>
      <trkpt lat="44.32037" lon="3.5971">
        <ele>554.82</ele>
        <time>2016-04-10T14:04:59Z</time>
      </trkpt>
      <trkpt lat="44.32036" lon="3.59709">
        <ele>554.34</ele>
        <time>2016-04-10T14:05:00Z</time>
      </trkpt>
      <trkpt lat="44.32035" lon="3.59708">
        <ele>554.82</ele>
        <time>2016-04-10T14:05:01Z</time>
      </trkpt>
      <trkpt lat="44.32038" lon="3.59701">
        <ele>559.14</ele>
        <time>2016-04-10T14:05:17Z</time>
      </trkpt>
      <trkpt lat="44.32038" lon="3.59695">
        <ele>550.49</ele>
        <time>2016-04-10T14:05:53Z</time>
      </trkpt>
      <trkpt lat="44.32037" lon="3.59701">
        <ele>546.17</ele>
        <time>2016-04-10T14:33:54Z</time>
      </trkpt>
      <trkpt lat="44.32043" lon="3.597">
        <ele>558.66</ele>
        <time>2016-04-10T14:34:54Z</time>
      </trkpt>
      <trkpt lat="44.32046" lon="3.597">
        <ele>564.43</ele>
        <time>2016-04-10T14:35:12Z</time>
      </trkpt>
      <trkpt lat="44.32036" lon="3.59716">
        <ele>558.66</ele>
        <time>2016-04-10T14:35:19Z</time>
      </trkpt>
      <trkpt lat="44.3203" lon="3.59719">
        <ele>557.7</ele>
        <time>2016-04-10T14:35:20Z</time>
      </trkpt>
      <trkpt lat="44.31941" lon="3.59762">
        <ele>553.38</ele>
        <time>2016-04-10T14:35:33Z</time>
      </trkpt>
      <trkpt lat="44.31882" lon="3.5978">
        <ele>553.86</ele>
        <time>2016-04-10T14:35:45Z</time>
      </trkpt>
      <trkpt lat="44.31796" lon="3.59801">
        <ele>553.86</ele>
        <time>2016-04-10T14:35:54Z</time>
      </trkpt>
      <trkpt lat="44.31625" lon="3.59809">
        <ele>553.38</ele>
        <time>2016-04-10T14:36:06Z</time>
      </trkpt>
      <trkpt lat="44.31523" lon="3.59778">
        <ele>553.38</ele>
        <time>2016-04-10T14:36:13Z</time>
      </trkpt>
      <trkpt lat="44.3151" lon="3.59775">
        <ele>553.38</ele>
        <time>2016-04-10T14:36:14Z</time>
      </trkpt>
      <trkpt lat="44.31496" lon="3.59774">
        <ele>553.38</ele>
        <time>2016-04-10T14:36:15Z</time>
      </trkpt>
      <trkpt lat="44.31481" lon="3.59777">
        <ele>553.38</ele>
        <time>2016-04-10T14:36:16Z</time>
      </trkpt>
      <trkpt lat="44.31465" lon="3.59778">
        <ele>553.86</ele>
        <time>2016-04-10T14:36:17Z</time>
      </trkpt>
      <trkpt lat="44.31355" lon="3.59783">
        <ele>554.34</ele>
        <time>2016-04-10T14:36:24Z</time>
      </trkpt>
      <trkpt lat="44.3134" lon="3.59788">
        <ele>554.82</ele>
        <time>2016-04-10T14:36:25Z</time>
      </trkpt>
      <trkpt lat="44.31209" lon="3.59834">
        <ele>556.26</ele>
        <time>2016-04-10T14:36:33Z</time>
      </trkpt>
      <trkpt lat="44.31021" lon="3.59855">
        <ele>559.62</ele>
        <time>2016-04-10T14:36:44Z</time>
      </trkpt>
      <trkpt lat="44.31004" lon="3.5985">
        <ele>560.11</ele>
        <time>2016-04-10T14:36:45Z</time>
      </trkpt>
      <trkpt lat="44.30798" lon="3.59762">
        <ele>568.28</ele>
        <time>2016-04-10T14:36:57Z</time>
      </trkpt>
      <trkpt lat="44.30607" lon="3.59666">
        <ele>579.81</ele>
        <time>2016-04-10T14:37:09Z</time>
      </trkpt>
      <trkpt lat="44.30545" lon="3.59625">
        <ele>583.66</ele>
        <time>2016-04-10T14:37:13Z</time>
      </trkpt>
      <trkpt lat="44.30528" lon="3.5962">
        <ele>584.62</ele>
        <time>2016-04-10T14:37:14Z</time>
      </trkpt>
      <trkpt lat="44.30511" lon="3.59618">
        <ele>585.58</ele>
        <time>2016-04-10T14:37:15Z</time>
      </trkpt>
      <trkpt lat="44.30493" lon="3.59621">
        <ele>586.54</ele>
        <time>2016-04-10T14:37:16Z</time>
      </trkpt>
      <trkpt lat="44.30475" lon="3.59626">
        <ele>587.5</ele>
        <time>2016-04-10T14:37:17Z</time>
      </trkpt>
      <trkpt lat="44.30356" lon="3.5966">
        <ele>594.71</ele>
        <time>2016-04-10T14:37:24Z</time>
      </trkpt>
      <trkpt lat="44.3034" lon="3.59669">
        <ele>595.67</ele>
        <time>2016-04-10T14:37:25Z</time>
      </trkpt>
      <trkpt lat="44.30325" lon="3.5968">
        <ele>596.64</ele>
        <time>2016-04-10T14:37:26Z</time>
      </trkpt>
      <trkpt lat="44.30311" lon="3.59696">
        <ele>597.12</ele>
        <time>2016-04-10T14:37:27Z</time>
      </trkpt>
      <trkpt lat="44.30298" lon="3.59714">
        <ele>598.08</ele>
        <time>2016-04-10T14:37:28Z</time>
      </trkpt>
      <trkpt lat="44.30285" lon="3.59735">
        <ele>599.04</ele>
        <time>2016-04-10T14:37:29Z</time>
      </trkpt>
      <trkpt lat="44.30273" lon="3.59757">
        <ele>600</ele>
        <time>2016-04-10T14:37:30Z</time>
      </trkpt>
      <trkpt lat="44.30147" lon="3.5999">
        <ele>611.54</ele>
        <time>2016-04-10T14:37:41Z</time>
      </trkpt>
      <trkpt lat="44.30097" lon="3.60032">
        <ele>614.42</ele>
        <time>2016-04-10T14:37:44Z</time>
      </trkpt>
      <trkpt lat="44.30078" lon="3.60034">
        <ele>615.86</ele>
        <time>2016-04-10T14:37:45Z</time>
      </trkpt>
      <trkpt lat="44.3006" lon="3.60026">
        <ele>617.3</ele>
        <time>2016-04-10T14:37:46Z</time>
      </trkpt>
      <trkpt lat="44.30042" lon="3.60013">
        <ele>618.26</ele>
        <time>2016-04-10T14:37:47Z</time>
      </trkpt>
      <trkpt lat="44.30026" lon="3.59994">
        <ele>619.71</ele>
        <time>2016-04-10T14:37:48Z</time>
      </trkpt>
      <trkpt lat="44.30016" lon="3.59974">
        <ele>617.78</ele>
        <time>2016-04-10T14:37:49Z</time>
      </trkpt>
      <trkpt lat="44.30003" lon="3.59955">
        <ele>617.3</ele>
        <time>2016-04-10T14:37:50Z</time>
      </trkpt>
      <trkpt lat="44.29987" lon="3.59943">
        <ele>618.26</ele>
        <time>2016-04-10T14:37:51Z</time>
      </trkpt>
      <trkpt lat="44.29969" lon="3.59939">
        <ele>619.71</ele>
        <time>2016-04-10T14:37:52Z</time>
      </trkpt>
      <trkpt lat="44.29949" lon="3.59941">
        <ele>620.67</ele>
        <time>2016-04-10T14:37:53Z</time>
      </trkpt>
      <trkpt lat="44.2993" lon="3.59942">
        <ele>622.11</ele>
        <time>2016-04-10T14:37:54Z</time>
      </trkpt>
      <trkpt lat="44.29908" lon="3.59945">
        <ele>623.55</ele>
        <time>2016-04-10T14:37:55Z</time>
      </trkpt>
      <trkpt lat="44.29734" lon="3.59982">
        <ele>634.13</ele>
        <time>2016-04-10T14:38:03Z</time>
      </trkpt>
      <trkpt lat="44.29665" lon="3.60001">
        <ele>639.41</ele>
        <time>2016-04-10T14:38:07Z</time>
      </trkpt>
      <trkpt lat="44.29651" lon="3.59993">
        <ele>640.38</ele>
        <time>2016-04-10T14:38:08Z</time>
      </trkpt>
      <trkpt lat="44.29639" lon="3.5998">
        <ele>641.82</ele>
        <time>2016-04-10T14:38:09Z</time>
      </trkpt>
      <trkpt lat="44.2963" lon="3.59958">
        <ele>642.78</ele>
        <time>2016-04-10T14:38:10Z</time>
      </trkpt>
      <trkpt lat="44.29623" lon="3.59934">
        <ele>643.74</ele>
        <time>2016-04-10T14:38:11Z</time>
      </trkpt>
      <trkpt lat="44.29618" lon="3.59907">
        <ele>645.18</ele>
        <time>2016-04-10T14:38:12Z</time>
      </trkpt>
      <trkpt lat="44.29612" lon="3.5988">
        <ele>647.1</ele>
        <time>2016-04-10T14:38:13Z</time>
      </trkpt>
      <trkpt lat="44.29609" lon="3.59852">
        <ele>648.07</ele>
        <time>2016-04-10T14:38:14Z</time>
      </trkpt>
      <trkpt lat="44.29607" lon="3.59823">
        <ele>649.03</ele>
        <time>2016-04-10T14:38:15Z</time>
      </trkpt>
      <trkpt lat="44.29612" lon="3.59795">
        <ele>649.03</ele>
        <time>2016-04-10T14:38:16Z</time>
      </trkpt>
      <trkpt lat="44.29617" lon="3.59769">
        <ele>650.47</ele>
        <time>2016-04-10T14:38:17Z</time>
      </trkpt>
      <trkpt lat="44.2963" lon="3.59669">
        <ele>653.83</ele>
        <time>2016-04-10T14:38:21Z</time>
      </trkpt>
      <trkpt lat="44.29628" lon="3.59648">
        <ele>654.31</ele>
        <time>2016-04-10T14:38:22Z</time>
      </trkpt>
      <trkpt lat="44.29623" lon="3.59629">
        <ele>654.8</ele>
        <time>2016-04-10T14:38:23Z</time>
      </trkpt>
      <trkpt lat="44.29613" lon="3.59614">
        <ele>655.76</ele>
        <time>2016-04-10T14:38:24Z</time>
      </trkpt>
      <trkpt lat="44.29601" lon="3.59604">
        <ele>656.24</ele>
        <time>2016-04-10T14:38:25Z</time>
      </trkpt>
      <trkpt lat="44.29586" lon="3.59599">
        <ele>656.72</ele>
        <time>2016-04-10T14:38:26Z</time>
      </trkpt>
      <trkpt lat="44.2957" lon="3.59602">
        <ele>656.72</ele>
        <time>2016-04-10T14:38:27Z</time>
      </trkpt>
      <trkpt lat="44.29552" lon="3.59602">
        <ele>656.72</ele>
        <time>2016-04-10T14:38:28Z</time>
      </trkpt>
      <trkpt lat="44.29532" lon="3.59602">
        <ele>656.72</ele>
        <time>2016-04-10T14:38:29Z</time>
      </trkpt>
      <trkpt lat="44.29512" lon="3.59598">
        <ele>657.2</ele>
        <time>2016-04-10T14:38:30Z</time>
      </trkpt>
      <trkpt lat="44.29491" lon="3.59587">
        <ele>657.68</ele>
        <time>2016-04-10T14:38:31Z</time>
      </trkpt>
      <trkpt lat="44.29473" lon="3.59575">
        <ele>656.72</ele>
        <time>2016-04-10T14:38:32Z</time>
      </trkpt>
      <trkpt lat="44.29455" lon="3.59567">
        <ele>656.24</ele>
        <time>2016-04-10T14:38:33Z</time>
      </trkpt>
      <trkpt lat="44.29437" lon="3.59566">
        <ele>655.28</ele>
        <time>2016-04-10T14:38:34Z</time>
      </trkpt>
      <trkpt lat="44.29421" lon="3.59572">
        <ele>655.28</ele>
        <time>2016-04-10T14:38:35Z</time>
      </trkpt>
      <trkpt lat="44.29406" lon="3.59584">
        <ele>655.28</ele>
        <time>2016-04-10T14:38:36Z</time>
      </trkpt>
      <trkpt lat="44.29391" lon="3.59598">
        <ele>654.8</ele>
        <time>2016-04-10T14:38:37Z</time>
      </trkpt>
      <trkpt lat="44.29377" lon="3.59615">
        <ele>654.8</ele>
        <time>2016-04-10T14:38:38Z</time>
      </trkpt>
      <trkpt lat="44.29361" lon="3.59629">
        <ele>653.83</ele>
        <time>2016-04-10T14:38:39Z</time>
      </trkpt>
      <trkpt lat="44.29343" lon="3.5964">
        <ele>652.87</ele>
        <time>2016-04-10T14:38:40Z</time>
      </trkpt>
      <trkpt lat="44.29325" lon="3.59646">
        <ele>652.39</ele>
        <time>2016-04-10T14:38:41Z</time>
      </trkpt>
      <trkpt lat="44.29306" lon="3.59645">
        <ele>650.95</ele>
        <time>2016-04-10T14:38:42Z</time>
      </trkpt>
      <trkpt lat="44.29287" lon="3.59646">
        <ele>650.47</ele>
        <time>2016-04-10T14:38:43Z</time>
      </trkpt>
      <trkpt lat="44.29269" lon="3.5965">
        <ele>649.99</ele>
        <time>2016-04-10T14:38:44Z</time>
      </trkpt>
      <trkpt lat="44.29251" lon="3.59657">
        <ele>649.99</ele>
        <time>2016-04-10T14:38:45Z</time>
      </trkpt>
      <trkpt lat="44.29234" lon="3.59671">
        <ele>649.51</ele>
        <time>2016-04-10T14:38:46Z</time>
      </trkpt>
      <trkpt lat="44.29217" lon="3.59687">
        <ele>649.51</ele>
        <time>2016-04-10T14:38:47Z</time>
      </trkpt>
      <trkpt lat="44.29201" lon="3.59705">
        <ele>649.51</ele>
        <time>2016-04-10T14:38:48Z</time>
      </trkpt>
      <trkpt lat="44.29187" lon="3.59729">
        <ele>649.03</ele>
        <time>2016-04-10T14:38:49Z</time>
      </trkpt>
      <trkpt lat="44.29173" lon="3.59752">
        <ele>649.03</ele>
        <time>2016-04-10T14:38:50Z</time>
      </trkpt>
      <trkpt lat="44.29116" lon="3.59837">
        <ele>646.62</ele>
        <time>2016-04-10T14:38:55Z</time>
      </trkpt>
      <trkpt lat="44.29106" lon="3.59841">
        <ele>645.66</ele>
        <time>2016-04-10T14:38:56Z</time>
      </trkpt>
      <trkpt lat="44.29095" lon="3.5984">
        <ele>643.74</ele>
        <time>2016-04-10T14:38:57Z</time>
      </trkpt>
      <trkpt lat="44.2908" lon="3.5983">
        <ele>644.7</ele>
        <time>2016-04-10T14:38:58Z</time>
      </trkpt>
      <trkpt lat="44.29069" lon="3.59818">
        <ele>644.7</ele>
        <time>2016-04-10T14:38:59Z</time>
      </trkpt>
      <trkpt lat="44.29059" lon="3.59796">
        <ele>644.7</ele>
        <time>2016-04-10T14:39:00Z</time>
      </trkpt>
      <trkpt lat="44.29052" lon="3.59772">
        <ele>644.22</ele>
        <time>2016-04-10T14:39:01Z</time>
      </trkpt>
      <trkpt lat="44.29047" lon="3.59747">
        <ele>643.74</ele>
        <time>2016-04-10T14:39:02Z</time>
      </trkpt>
      <trkpt lat="44.29038" lon="3.5972">
        <ele>643.26</ele>
        <time>2016-04-10T14:39:03Z</time>
      </trkpt>
      <trkpt lat="44.28991" lon="3.59635">
        <ele>641.34</ele>
        <time>2016-04-10T14:39:07Z</time>
      </trkpt>
      <trkpt lat="44.28976" lon="3.59623">
        <ele>640.38</ele>
        <time>2016-04-10T14:39:08Z</time>
      </trkpt>
      <trkpt lat="44.2896" lon="3.59614">
        <ele>638.93</ele>
        <time>2016-04-10T14:39:09Z</time>
      </trkpt>
      <trkpt lat="44.28944" lon="3.59609">
        <ele>637.97</ele>
        <time>2016-04-10T14:39:10Z</time>
      </trkpt>
      <trkpt lat="44.28929" lon="3.59601">
        <ele>637.01</ele>
        <time>2016-04-10T14:39:11Z</time>
      </trkpt>
      <trkpt lat="44.28915" lon="3.5959">
        <ele>636.53</ele>
        <time>2016-04-10T14:39:12Z</time>
      </trkpt>
      <trkpt lat="44.28907" lon="3.59573">
        <ele>635.09</ele>
        <time>2016-04-10T14:39:13Z</time>
      </trkpt>
      <trkpt lat="44.28908" lon="3.59547">
        <ele>633.65</ele>
        <time>2016-04-10T14:39:14Z</time>
      </trkpt>
      <trkpt lat="44.2891" lon="3.59523">
        <ele>632.68</ele>
        <time>2016-04-10T14:39:15Z</time>
      </trkpt>
      <trkpt lat="44.28913" lon="3.59501">
        <ele>631.72</ele>
        <time>2016-04-10T14:39:16Z</time>
      </trkpt>
      <trkpt lat="44.28917" lon="3.5948">
        <ele>631.72</ele>
        <time>2016-04-10T14:39:17Z</time>
      </trkpt>
      <trkpt lat="44.28922" lon="3.59462">
        <ele>631.72</ele>
        <time>2016-04-10T14:39:18Z</time>
      </trkpt>
      <trkpt lat="44.28925" lon="3.59447">
        <ele>631.72</ele>
        <time>2016-04-10T14:39:19Z</time>
      </trkpt>
      <trkpt lat="44.28925" lon="3.59434">
        <ele>631.72</ele>
        <time>2016-04-10T14:39:20Z</time>
      </trkpt>
      <trkpt lat="44.2892" lon="3.59423">
        <ele>631.24</ele>
        <time>2016-04-10T14:39:21Z</time>
      </trkpt>
      <trkpt lat="44.28912" lon="3.59414">
        <ele>630.76</ele>
        <time>2016-04-10T14:39:22Z</time>
      </trkpt>
      <trkpt lat="44.28902" lon="3.5941">
        <ele>631.72</ele>
        <time>2016-04-10T14:39:23Z</time>
      </trkpt>
      <trkpt lat="44.28889" lon="3.59413">
        <ele>632.2</ele>
        <time>2016-04-10T14:39:24Z</time>
      </trkpt>
      <trkpt lat="44.28875" lon="3.59423">
        <ele>632.68</ele>
        <time>2016-04-10T14:39:25Z</time>
      </trkpt>
      <trkpt lat="44.28863" lon="3.59435">
        <ele>632.68</ele>
        <time>2016-04-10T14:39:26Z</time>
      </trkpt>
      <trkpt lat="44.28849" lon="3.59449">
        <ele>632.68</ele>
        <time>2016-04-10T14:39:27Z</time>
      </trkpt>
      <trkpt lat="44.28838" lon="3.5946">
        <ele>632.68</ele>
        <time>2016-04-10T14:39:28Z</time>
      </trkpt>
      <trkpt lat="44.28771" lon="3.59534">
        <ele>633.17</ele>
        <time>2016-04-10T14:39:36Z</time>
      </trkpt>
      <trkpt lat="44.28761" lon="3.5954">
        <ele>632.2</ele>
        <time>2016-04-10T14:39:37Z</time>
      </trkpt>
      <trkpt lat="44.28751" lon="3.59545">
        <ele>631.72</ele>
        <time>2016-04-10T14:39:38Z</time>
      </trkpt>
      <trkpt lat="44.28729" lon="3.59557">
        <ele>631.24</ele>
        <time>2016-04-10T14:39:40Z</time>
      </trkpt>
      <trkpt lat="44.28718" lon="3.59566">
        <ele>631.24</ele>
        <time>2016-04-10T14:39:41Z</time>
      </trkpt>
      <trkpt lat="44.2871" lon="3.59578">
        <ele>631.24</ele>
        <time>2016-04-10T14:39:42Z</time>
      </trkpt>
      <trkpt lat="44.28702" lon="3.59592">
        <ele>631.72</ele>
        <time>2016-04-10T14:39:43Z</time>
      </trkpt>
      <trkpt lat="44.28695" lon="3.59606">
        <ele>631.24</ele>
        <time>2016-04-10T14:39:44Z</time>
      </trkpt>
      <trkpt lat="44.28688" lon="3.5962">
        <ele>630.28</ele>
        <time>2016-04-10T14:39:45Z</time>
      </trkpt>
      <trkpt lat="44.28679" lon="3.59633">
        <ele>629.32</ele>
        <time>2016-04-10T14:39:46Z</time>
      </trkpt>
      <trkpt lat="44.28669" lon="3.59643">
        <ele>628.36</ele>
        <time>2016-04-10T14:39:47Z</time>
      </trkpt>
      <trkpt lat="44.28656" lon="3.59651">
        <ele>627.4</ele>
        <time>2016-04-10T14:39:48Z</time>
      </trkpt>
      <trkpt lat="44.28639" lon="3.59654">
        <ele>626.44</ele>
        <time>2016-04-10T14:39:49Z</time>
      </trkpt>
      <trkpt lat="44.28622" lon="3.59658">
        <ele>624.99</ele>
        <time>2016-04-10T14:39:50Z</time>
      </trkpt>
      <trkpt lat="44.28546" lon="3.59694">
        <ele>618.26</ele>
        <time>2016-04-10T14:39:55Z</time>
      </trkpt>
      <trkpt lat="44.28486" lon="3.59747">
        <ele>612.98</ele>
        <time>2016-04-10T14:40:00Z</time>
      </trkpt>
      <trkpt lat="44.28474" lon="3.59749">
        <ele>612.5</ele>
        <time>2016-04-10T14:40:01Z</time>
      </trkpt>
      <trkpt lat="44.28464" lon="3.59746">
        <ele>611.06</ele>
        <time>2016-04-10T14:40:02Z</time>
      </trkpt>
      <trkpt lat="44.28459" lon="3.59712">
        <ele>607.21</ele>
        <time>2016-04-10T14:40:04Z</time>
      </trkpt>
      <trkpt lat="44.28459" lon="3.59688">
        <ele>605.29</ele>
        <time>2016-04-10T14:40:05Z</time>
      </trkpt>
      <trkpt lat="44.28457" lon="3.59663">
        <ele>603.36</ele>
        <time>2016-04-10T14:40:06Z</time>
      </trkpt>
      <trkpt lat="44.28457" lon="3.59633">
        <ele>601.92</ele>
        <time>2016-04-10T14:40:07Z</time>
      </trkpt>
      <trkpt lat="44.28456" lon="3.59603">
        <ele>600.48</ele>
        <time>2016-04-10T14:40:08Z</time>
      </trkpt>
      <trkpt lat="44.28423" lon="3.59394">
        <ele>588.46</ele>
        <time>2016-04-10T14:40:16Z</time>
      </trkpt>
      <trkpt lat="44.28411" lon="3.59368">
        <ele>585.1</ele>
        <time>2016-04-10T14:40:18Z</time>
      </trkpt>
      <trkpt lat="44.28402" lon="3.59361">
        <ele>584.14</ele>
        <time>2016-04-10T14:40:19Z</time>
      </trkpt>
      <trkpt lat="44.28393" lon="3.59362">
        <ele>583.18</ele>
        <time>2016-04-10T14:40:20Z</time>
      </trkpt>
      <trkpt lat="44.28375" lon="3.59386">
        <ele>582.7</ele>
        <time>2016-04-10T14:40:22Z</time>
      </trkpt>
      <trkpt lat="44.28368" lon="3.59402">
        <ele>582.22</ele>
        <time>2016-04-10T14:40:23Z</time>
      </trkpt>
      <trkpt lat="44.28366" lon="3.59426">
        <ele>581.73</ele>
        <time>2016-04-10T14:40:24Z</time>
      </trkpt>
      <trkpt lat="44.28371" lon="3.59447">
        <ele>581.25</ele>
        <time>2016-04-10T14:40:25Z</time>
      </trkpt>
      <trkpt lat="44.28374" lon="3.59472">
        <ele>581.25</ele>
        <time>2016-04-10T14:40:26Z</time>
      </trkpt>
      <trkpt lat="44.28374" lon="3.59498">
        <ele>581.73</ele>
        <time>2016-04-10T14:40:27Z</time>
      </trkpt>
      <trkpt lat="44.28373" lon="3.59525">
        <ele>582.7</ele>
        <time>2016-04-10T14:40:28Z</time>
      </trkpt>
      <trkpt lat="44.28369" lon="3.59551">
        <ele>584.14</ele>
        <time>2016-04-10T14:40:29Z</time>
      </trkpt>
      <trkpt lat="44.28364" lon="3.59577">
        <ele>587.02</ele>
        <time>2016-04-10T14:40:30Z</time>
      </trkpt>
      <trkpt lat="44.28354" lon="3.59601">
        <ele>588.95</ele>
        <time>2016-04-10T14:40:31Z</time>
      </trkpt>
      <trkpt lat="44.28341" lon="3.59622">
        <ele>590.87</ele>
        <time>2016-04-10T14:40:32Z</time>
      </trkpt>
      <trkpt lat="44.28326" lon="3.59641">
        <ele>592.79</ele>
        <time>2016-04-10T14:40:33Z</time>
      </trkpt>
      <trkpt lat="44.2831" lon="3.59662">
        <ele>595.19</ele>
        <time>2016-04-10T14:40:34Z</time>
      </trkpt>
      <trkpt lat="44.28205" lon="3.59781">
        <ele>610.57</ele>
        <time>2016-04-10T14:40:41Z</time>
      </trkpt>
      <trkpt lat="44.28176" lon="3.59805">
        <ele>614.9</ele>
        <time>2016-04-10T14:40:43Z</time>
      </trkpt>
      <trkpt lat="44.2816" lon="3.59814">
        <ele>618.26</ele>
        <time>2016-04-10T14:40:44Z</time>
      </trkpt>
      <trkpt lat="44.28143" lon="3.59816">
        <ele>621.63</ele>
        <time>2016-04-10T14:40:45Z</time>
      </trkpt>
      <trkpt lat="44.28126" lon="3.59813">
        <ele>624.51</ele>
        <time>2016-04-10T14:40:46Z</time>
      </trkpt>
      <trkpt lat="44.28107" lon="3.59813">
        <ele>626.44</ele>
        <time>2016-04-10T14:40:47Z</time>
      </trkpt>
      <trkpt lat="44.28027" lon="3.59829">
        <ele>637.49</ele>
        <time>2016-04-10T14:40:51Z</time>
      </trkpt>
      <trkpt lat="44.27865" lon="3.59903">
        <ele>658.16</ele>
        <time>2016-04-10T14:40:58Z</time>
      </trkpt>
      <trkpt lat="44.27722" lon="3.60001">
        <ele>676.42</ele>
        <time>2016-04-10T14:41:05Z</time>
      </trkpt>
      <trkpt lat="44.27707" lon="3.6002">
        <ele>679.31</ele>
        <time>2016-04-10T14:41:06Z</time>
      </trkpt>
      <trkpt lat="44.27696" lon="3.60039">
        <ele>681.23</ele>
        <time>2016-04-10T14:41:07Z</time>
      </trkpt>
      <trkpt lat="44.27669" lon="3.60086">
        <ele>687.96</ele>
        <time>2016-04-10T14:41:11Z</time>
      </trkpt>
      <trkpt lat="44.27665" lon="3.60084">
        <ele>689.4</ele>
        <time>2016-04-10T14:41:12Z</time>
      </trkpt>
      <trkpt lat="44.27667" lon="3.60068">
        <ele>691.81</ele>
        <time>2016-04-10T14:41:14Z</time>
      </trkpt>
      <trkpt lat="44.27672" lon="3.60057">
        <ele>693.25</ele>
        <time>2016-04-10T14:41:15Z</time>
      </trkpt>
      <trkpt lat="44.2768" lon="3.60044">
        <ele>694.69</ele>
        <time>2016-04-10T14:41:16Z</time>
      </trkpt>
      <trkpt lat="44.27689" lon="3.60028">
        <ele>695.65</ele>
        <time>2016-04-10T14:41:17Z</time>
      </trkpt>
      <trkpt lat="44.277" lon="3.60009">
        <ele>696.61</ele>
        <time>2016-04-10T14:41:18Z</time>
      </trkpt>
      <trkpt lat="44.27772" lon="3.59869">
        <ele>698.53</ele>
        <time>2016-04-10T14:41:24Z</time>
      </trkpt>
      <trkpt lat="44.2781" lon="3.598">
        <ele>701.9</ele>
        <time>2016-04-10T14:41:27Z</time>
      </trkpt>
      <trkpt lat="44.27827" lon="3.59782">
        <ele>702.86</ele>
        <time>2016-04-10T14:41:28Z</time>
      </trkpt>
      <trkpt lat="44.27846" lon="3.59766">
        <ele>704.3</ele>
        <time>2016-04-10T14:41:29Z</time>
      </trkpt>
      <trkpt lat="44.27906" lon="3.59704">
        <ele>709.59</ele>
        <time>2016-04-10T14:41:33Z</time>
      </trkpt>
      <trkpt lat="44.27917" lon="3.59685">
        <ele>710.55</ele>
        <time>2016-04-10T14:41:34Z</time>
      </trkpt>
      <trkpt lat="44.27926" lon="3.59662">
        <ele>711.99</ele>
        <time>2016-04-10T14:41:35Z</time>
      </trkpt>
      <trkpt lat="44.27937" lon="3.5964">
        <ele>713.44</ele>
        <time>2016-04-10T14:41:36Z</time>
      </trkpt>
      <trkpt lat="44.2795" lon="3.59621">
        <ele>715.36</ele>
        <time>2016-04-10T14:41:37Z</time>
      </trkpt>
      <trkpt lat="44.27965" lon="3.59605">
        <ele>717.28</ele>
        <time>2016-04-10T14:41:38Z</time>
      </trkpt>
      <trkpt lat="44.27984" lon="3.59591">
        <ele>718.72</ele>
        <time>2016-04-10T14:41:39Z</time>
      </trkpt>
      <trkpt lat="44.28003" lon="3.59576">
        <ele>719.68</ele>
        <time>2016-04-10T14:41:40Z</time>
      </trkpt>
      <trkpt lat="44.28035" lon="3.59542">
        <ele>722.09</ele>
        <time>2016-04-10T14:41:42Z</time>
      </trkpt>
      <trkpt lat="44.28049" lon="3.59522">
        <ele>723.05</ele>
        <time>2016-04-10T14:41:43Z</time>
      </trkpt>
      <trkpt lat="44.2806" lon="3.595">
        <ele>724.49</ele>
        <time>2016-04-10T14:41:44Z</time>
      </trkpt>
      <trkpt lat="44.28069" lon="3.59477">
        <ele>726.41</ele>
        <time>2016-04-10T14:41:45Z</time>
      </trkpt>
      <trkpt lat="44.28076" lon="3.59454">
        <ele>727.86</ele>
        <time>2016-04-10T14:41:46Z</time>
      </trkpt>
      <trkpt lat="44.28079" lon="3.59433">
        <ele>729.78</ele>
        <time>2016-04-10T14:41:47Z</time>
      </trkpt>
      <trkpt lat="44.28076" lon="3.59414">
        <ele>732.18</ele>
        <time>2016-04-10T14:41:48Z</time>
      </trkpt>
      <trkpt lat="44.28067" lon="3.594">
        <ele>732.18</ele>
        <time>2016-04-10T14:41:49Z</time>
      </trkpt>
      <trkpt lat="44.28057" lon="3.5939">
        <ele>732.66</ele>
        <time>2016-04-10T14:41:50Z</time>
      </trkpt>
      <trkpt lat="44.28039" lon="3.59387">
        <ele>734.58</ele>
        <time>2016-04-10T14:41:51Z</time>
      </trkpt>
      <trkpt lat="44.28021" lon="3.59391">
        <ele>736.51</ele>
        <time>2016-04-10T14:41:52Z</time>
      </trkpt>
      <trkpt lat="44.28004" lon="3.59395">
        <ele>737.95</ele>
        <time>2016-04-10T14:41:53Z</time>
      </trkpt>
      <trkpt lat="44.27984" lon="3.59404">
        <ele>739.39</ele>
        <time>2016-04-10T14:41:54Z</time>
      </trkpt>
      <trkpt lat="44.27961" lon="3.59416">
        <ele>739.39</ele>
        <time>2016-04-10T14:41:55Z</time>
      </trkpt>
      <trkpt lat="44.27917" lon="3.59434">
        <ele>742.28</ele>
        <time>2016-04-10T14:41:57Z</time>
      </trkpt>
      <trkpt lat="44.27892" lon="3.59437">
        <ele>744.2</ele>
        <time>2016-04-10T14:41:58Z</time>
      </trkpt>
      <trkpt lat="44.27868" lon="3.59435">
        <ele>746.6</ele>
        <time>2016-04-10T14:41:59Z</time>
      </trkpt>
      <trkpt lat="44.27742" lon="3.59438">
        <ele>755.25</ele>
        <time>2016-04-10T14:42:05Z</time>
      </trkpt>
      <trkpt lat="44.27727" lon="3.59451">
        <ele>756.21</ele>
        <time>2016-04-10T14:42:06Z</time>
      </trkpt>
      <trkpt lat="44.27713" lon="3.59471">
        <ele>757.66</ele>
        <time>2016-04-10T14:42:07Z</time>
      </trkpt>
      <trkpt lat="44.27699" lon="3.59496">
        <ele>758.62</ele>
        <time>2016-04-10T14:42:08Z</time>
      </trkpt>
      <trkpt lat="44.27685" lon="3.59523">
        <ele>760.06</ele>
        <time>2016-04-10T14:42:09Z</time>
      </trkpt>
      <trkpt lat="44.27672" lon="3.59552">
        <ele>761.5</ele>
        <time>2016-04-10T14:42:10Z</time>
      </trkpt>
      <trkpt lat="44.27661" lon="3.59581">
        <ele>761.98</ele>
        <time>2016-04-10T14:42:11Z</time>
      </trkpt>
      <trkpt lat="44.27651" lon="3.59608">
        <ele>762.46</ele>
        <time>2016-04-10T14:42:12Z</time>
      </trkpt>
      <trkpt lat="44.27639" lon="3.59633">
        <ele>763.42</ele>
        <time>2016-04-10T14:42:13Z</time>
      </trkpt>
      <trkpt lat="44.27623" lon="3.59653">
        <ele>764.39</ele>
        <time>2016-04-10T14:42:14Z</time>
      </trkpt>
      <trkpt lat="44.27604" lon="3.59671">
        <ele>765.35</ele>
        <time>2016-04-10T14:42:15Z</time>
      </trkpt>
      <trkpt lat="44.27583" lon="3.59687">
        <ele>766.79</ele>
        <time>2016-04-10T14:42:16Z</time>
      </trkpt>
      <trkpt lat="44.27563" lon="3.59702">
        <ele>768.71</ele>
        <time>2016-04-10T14:42:17Z</time>
      </trkpt>
      <trkpt lat="44.27392" lon="3.59835">
        <ele>789.86</ele>
        <time>2016-04-10T14:42:26Z</time>
      </trkpt>
      <trkpt lat="44.27341" lon="3.59859">
        <ele>796.59</ele>
        <time>2016-04-10T14:42:29Z</time>
      </trkpt>
      <trkpt lat="44.27325" lon="3.59863">
        <ele>798.03</ele>
        <time>2016-04-10T14:42:30Z</time>
      </trkpt>
      <trkpt lat="44.27312" lon="3.59859">
        <ele>799.95</ele>
        <time>2016-04-10T14:42:31Z</time>
      </trkpt>
      <trkpt lat="44.273" lon="3.59855">
        <ele>801.88</ele>
        <time>2016-04-10T14:42:32Z</time>
      </trkpt>
      <trkpt lat="44.27291" lon="3.59852">
        <ele>803.8</ele>
        <time>2016-04-10T14:42:33Z</time>
      </trkpt>
      <trkpt lat="44.27283" lon="3.59853">
        <ele>805.24</ele>
        <time>2016-04-10T14:42:34Z</time>
      </trkpt>
      <trkpt lat="44.27278" lon="3.59859">
        <ele>807.16</ele>
        <time>2016-04-10T14:42:35Z</time>
      </trkpt>
      <trkpt lat="44.27278" lon="3.59867">
        <ele>808.61</ele>
        <time>2016-04-10T14:42:36Z</time>
      </trkpt>
      <trkpt lat="44.27282" lon="3.59872">
        <ele>808.13</ele>
        <time>2016-04-10T14:42:37Z</time>
      </trkpt>
      <trkpt lat="44.2729" lon="3.59879">
        <ele>808.61</ele>
        <time>2016-04-10T14:42:38Z</time>
      </trkpt>
      <trkpt lat="44.273" lon="3.59884">
        <ele>809.09</ele>
        <time>2016-04-10T14:42:39Z</time>
      </trkpt>
      <trkpt lat="44.27313" lon="3.59891">
        <ele>810.53</ele>
        <time>2016-04-10T14:42:40Z</time>
      </trkpt>
      <trkpt lat="44.27328" lon="3.59901">
        <ele>811.49</ele>
        <time>2016-04-10T14:42:41Z</time>
      </trkpt>
      <trkpt lat="44.27339" lon="3.59914">
        <ele>812.93</ele>
        <time>2016-04-10T14:42:42Z</time>
      </trkpt>
      <trkpt lat="44.27347" lon="3.59931">
        <ele>814.37</ele>
        <time>2016-04-10T14:42:43Z</time>
      </trkpt>
      <trkpt lat="44.2735" lon="3.59949">
        <ele>815.82</ele>
        <time>2016-04-10T14:42:44Z</time>
      </trkpt>
      <trkpt lat="44.27344" lon="3.59969">
        <ele>815.34</ele>
        <time>2016-04-10T14:42:45Z</time>
      </trkpt>
      <trkpt lat="44.27337" lon="3.59988">
        <ele>817.26</ele>
        <time>2016-04-10T14:42:46Z</time>
      </trkpt>
      <trkpt lat="44.27325" lon="3.60008">
        <ele>818.7</ele>
        <time>2016-04-10T14:42:47Z</time>
      </trkpt>
      <trkpt lat="44.27313" lon="3.60027">
        <ele>819.66</ele>
        <time>2016-04-10T14:42:48Z</time>
      </trkpt>
      <trkpt lat="44.27301" lon="3.60047">
        <ele>821.58</ele>
        <time>2016-04-10T14:42:49Z</time>
      </trkpt>
      <trkpt lat="44.2721" lon="3.60214">
        <ele>837.93</ele>
        <time>2016-04-10T14:42:57Z</time>
      </trkpt>
      <trkpt lat="44.27134" lon="3.6034">
        <ele>851.87</ele>
        <time>2016-04-10T14:43:04Z</time>
      </trkpt>
      <trkpt lat="44.27028" lon="3.60473">
        <ele>861</ele>
        <time>2016-04-10T14:43:12Z</time>
      </trkpt>
      <trkpt lat="44.27014" lon="3.60493">
        <ele>861.96</ele>
        <time>2016-04-10T14:43:13Z</time>
      </trkpt>
      <trkpt lat="44.27002" lon="3.60516">
        <ele>862.92</ele>
        <time>2016-04-10T14:43:14Z</time>
      </trkpt>
      <trkpt lat="44.26992" lon="3.60541">
        <ele>864.36</ele>
        <time>2016-04-10T14:43:15Z</time>
      </trkpt>
      <trkpt lat="44.26983" lon="3.6057">
        <ele>865.32</ele>
        <time>2016-04-10T14:43:16Z</time>
      </trkpt>
      <trkpt lat="44.26977" lon="3.606">
        <ele>867.25</ele>
        <time>2016-04-10T14:43:17Z</time>
      </trkpt>
      <trkpt lat="44.2697" lon="3.60629">
        <ele>868.69</ele>
        <time>2016-04-10T14:43:18Z</time>
      </trkpt>
      <trkpt lat="44.26936" lon="3.60743">
        <ele>874.46</ele>
        <time>2016-04-10T14:43:22Z</time>
      </trkpt>
      <trkpt lat="44.26923" lon="3.60765">
        <ele>875.42</ele>
        <time>2016-04-10T14:43:23Z</time>
      </trkpt>
      <trkpt lat="44.26909" lon="3.60784">
        <ele>876.38</ele>
        <time>2016-04-10T14:43:24Z</time>
      </trkpt>
      <trkpt lat="44.26889" lon="3.60795">
        <ele>876.86</ele>
        <time>2016-04-10T14:43:25Z</time>
      </trkpt>
      <trkpt lat="44.26868" lon="3.60803">
        <ele>877.82</ele>
        <time>2016-04-10T14:43:26Z</time>
      </trkpt>
      <trkpt lat="44.26848" lon="3.60814">
        <ele>878.3</ele>
        <time>2016-04-10T14:43:27Z</time>
      </trkpt>
      <trkpt lat="44.26812" lon="3.60839">
        <ele>879.74</ele>
        <time>2016-04-10T14:43:29Z</time>
      </trkpt>
      <trkpt lat="44.26796" lon="3.60855">
        <ele>880.22</ele>
        <time>2016-04-10T14:43:30Z</time>
      </trkpt>
      <trkpt lat="44.26782" lon="3.60874">
        <ele>881.19</ele>
        <time>2016-04-10T14:43:31Z</time>
      </trkpt>
      <trkpt lat="44.2677" lon="3.60894">
        <ele>882.15</ele>
        <time>2016-04-10T14:43:32Z</time>
      </trkpt>
      <trkpt lat="44.26762" lon="3.60919">
        <ele>883.11</ele>
        <time>2016-04-10T14:43:33Z</time>
      </trkpt>
      <trkpt lat="44.26756" lon="3.60946">
        <ele>883.11</ele>
        <time>2016-04-10T14:43:34Z</time>
      </trkpt>
      <trkpt lat="44.26759" lon="3.60975">
        <ele>882.15</ele>
        <time>2016-04-10T14:43:35Z</time>
      </trkpt>
      <trkpt lat="44.2676" lon="3.60999">
        <ele>882.63</ele>
        <time>2016-04-10T14:43:36Z</time>
      </trkpt>
      <trkpt lat="44.26762" lon="3.61022">
        <ele>883.59</ele>
        <time>2016-04-10T14:43:37Z</time>
      </trkpt>
      <trkpt lat="44.2676" lon="3.61045">
        <ele>884.55</ele>
        <time>2016-04-10T14:43:38Z</time>
      </trkpt>
      <trkpt lat="44.26754" lon="3.61067">
        <ele>885.03</ele>
        <time>2016-04-10T14:43:39Z</time>
      </trkpt>
      <trkpt lat="44.26743" lon="3.61086">
        <ele>885.51</ele>
        <time>2016-04-10T14:43:40Z</time>
      </trkpt>
      <trkpt lat="44.26729" lon="3.61105">
        <ele>885.99</ele>
        <time>2016-04-10T14:43:41Z</time>
      </trkpt>
      <trkpt lat="44.26714" lon="3.61127">
        <ele>886.95</ele>
        <time>2016-04-10T14:43:42Z</time>
      </trkpt>
      <trkpt lat="44.26605" lon="3.61317">
        <ele>899.45</ele>
        <time>2016-04-10T14:43:50Z</time>
      </trkpt>
      <trkpt lat="44.26471" lon="3.61548">
        <ele>916.27</ele>
        <time>2016-04-10T14:44:00Z</time>
      </trkpt>
      <trkpt lat="44.26425" lon="3.61654">
        <ele>923.96</ele>
        <time>2016-04-10T14:44:05Z</time>
      </trkpt>
      <trkpt lat="44.26421" lon="3.61673">
        <ele>924.93</ele>
        <time>2016-04-10T14:44:06Z</time>
      </trkpt>
      <trkpt lat="44.26418" lon="3.61695">
        <ele>925.41</ele>
        <time>2016-04-10T14:44:07Z</time>
      </trkpt>
      <trkpt lat="44.26417" lon="3.61717">
        <ele>926.37</ele>
        <time>2016-04-10T14:44:08Z</time>
      </trkpt>
      <trkpt lat="44.26419" lon="3.61741">
        <ele>927.33</ele>
        <time>2016-04-10T14:44:09Z</time>
      </trkpt>
      <trkpt lat="44.26422" lon="3.61765">
        <ele>928.29</ele>
        <time>2016-04-10T14:44:10Z</time>
      </trkpt>
      <trkpt lat="44.26425" lon="3.61788">
        <ele>929.25</ele>
        <time>2016-04-10T14:44:11Z</time>
      </trkpt>
      <trkpt lat="44.26427" lon="3.61812">
        <ele>930.69</ele>
        <time>2016-04-10T14:44:12Z</time>
      </trkpt>
      <trkpt lat="44.26426" lon="3.61836">
        <ele>932.62</ele>
        <time>2016-04-10T14:44:13Z</time>
      </trkpt>
      <trkpt lat="44.26422" lon="3.61859">
        <ele>934.54</ele>
        <time>2016-04-10T14:44:14Z</time>
      </trkpt>
      <trkpt lat="44.2641" lon="3.61918">
        <ele>939.35</ele>
        <time>2016-04-10T14:44:17Z</time>
      </trkpt>
      <trkpt lat="44.26404" lon="3.61931">
        <ele>940.31</ele>
        <time>2016-04-10T14:44:18Z</time>
      </trkpt>
      <trkpt lat="44.26393" lon="3.61939">
        <ele>941.75</ele>
        <time>2016-04-10T14:44:19Z</time>
      </trkpt>
      <trkpt lat="44.26379" lon="3.61941">
        <ele>942.71</ele>
        <time>2016-04-10T14:44:20Z</time>
      </trkpt>
      <trkpt lat="44.26365" lon="3.61943">
        <ele>944.15</ele>
        <time>2016-04-10T14:44:21Z</time>
      </trkpt>
      <trkpt lat="44.26349" lon="3.61942">
        <ele>945.11</ele>
        <time>2016-04-10T14:44:22Z</time>
      </trkpt>
      <trkpt lat="44.2633" lon="3.61946">
        <ele>946.07</ele>
        <time>2016-04-10T14:44:23Z</time>
      </trkpt>
      <trkpt lat="44.26311" lon="3.61954">
        <ele>947.04</ele>
        <time>2016-04-10T14:44:24Z</time>
      </trkpt>
      <trkpt lat="44.26292" lon="3.61965">
        <ele>948.96</ele>
        <time>2016-04-10T14:44:25Z</time>
      </trkpt>
      <trkpt lat="44.26274" lon="3.61977">
        <ele>950.88</ele>
        <time>2016-04-10T14:44:26Z</time>
      </trkpt>
      <trkpt lat="44.26241" lon="3.62006">
        <ele>954.25</ele>
        <time>2016-04-10T14:44:28Z</time>
      </trkpt>
      <trkpt lat="44.26226" lon="3.62025">
        <ele>955.69</ele>
        <time>2016-04-10T14:44:29Z</time>
      </trkpt>
      <trkpt lat="44.26112" lon="3.62161">
        <ele>969.63</ele>
        <time>2016-04-10T14:44:36Z</time>
      </trkpt>
      <trkpt lat="44.26055" lon="3.62223">
        <ele>978.28</ele>
        <time>2016-04-10T14:44:40Z</time>
      </trkpt>
      <trkpt lat="44.2604" lon="3.62233">
        <ele>980.2</ele>
        <time>2016-04-10T14:44:41Z</time>
      </trkpt>
      <trkpt lat="44.26023" lon="3.62234">
        <ele>982.6</ele>
        <time>2016-04-10T14:44:42Z</time>
      </trkpt>
      <trkpt lat="44.26003" lon="3.62231">
        <ele>985.97</ele>
        <time>2016-04-10T14:44:43Z</time>
      </trkpt>
      <trkpt lat="44.25982" lon="3.62225">
        <ele>988.85</ele>
        <time>2016-04-10T14:44:44Z</time>
      </trkpt>
      <trkpt lat="44.25961" lon="3.62218">
        <ele>991.74</ele>
        <time>2016-04-10T14:44:45Z</time>
      </trkpt>
      <trkpt lat="44.25873" lon="3.62201">
        <ele>1001.83</ele>
        <time>2016-04-10T14:44:49Z</time>
      </trkpt>
      <trkpt lat="44.25849" lon="3.62204">
        <ele>1004.23</ele>
        <time>2016-04-10T14:44:50Z</time>
      </trkpt>
      <trkpt lat="44.25608" lon="3.62271">
        <ele>1023.46</ele>
        <time>2016-04-10T14:45:00Z</time>
      </trkpt>
      <trkpt lat="44.25265" lon="3.62369">
        <ele>1029.71</ele>
        <time>2016-04-10T14:45:14Z</time>
      </trkpt>
      <trkpt lat="44.25062" lon="3.62475">
        <ele>1028.27</ele>
        <time>2016-04-10T14:45:22Z</time>
      </trkpt>
      <trkpt lat="44.24855" lon="3.626">
        <ele>1025.38</ele>
        <time>2016-04-10T14:45:31Z</time>
      </trkpt>
      <trkpt lat="44.24831" lon="3.62608">
        <ele>1024.9</ele>
        <time>2016-04-10T14:45:32Z</time>
      </trkpt>
      <trkpt lat="44.24809" lon="3.62608">
        <ele>1024.42</ele>
        <time>2016-04-10T14:45:33Z</time>
      </trkpt>
      <trkpt lat="44.24787" lon="3.62602">
        <ele>1023.46</ele>
        <time>2016-04-10T14:45:34Z</time>
      </trkpt>
      <trkpt lat="44.24764" lon="3.62591">
        <ele>1023.46</ele>
        <time>2016-04-10T14:45:35Z</time>
      </trkpt>
      <trkpt lat="44.24744" lon="3.62574">
        <ele>1022.98</ele>
        <time>2016-04-10T14:45:36Z</time>
      </trkpt>
      <trkpt lat="44.24726" lon="3.62549">
        <ele>1022.5</ele>
        <time>2016-04-10T14:45:37Z</time>
      </trkpt>
      <trkpt lat="44.24709" lon="3.62522">
        <ele>1022.02</ele>
        <time>2016-04-10T14:45:38Z</time>
      </trkpt>
      <trkpt lat="44.24692" lon="3.62492">
        <ele>1021.06</ele>
        <time>2016-04-10T14:45:39Z</time>
      </trkpt>
      <trkpt lat="44.24674" lon="3.62462">
        <ele>1019.62</ele>
        <time>2016-04-10T14:45:40Z</time>
      </trkpt>
      <trkpt lat="44.24498" lon="3.622">
        <ele>1010</ele>
        <time>2016-04-10T14:45:50Z</time>
      </trkpt>
      <trkpt lat="44.24476" lon="3.62185">
        <ele>1010.48</ele>
        <time>2016-04-10T14:45:51Z</time>
      </trkpt>
      <trkpt lat="44.24455" lon="3.62173">
        <ele>1010.96</ele>
        <time>2016-04-10T14:45:52Z</time>
      </trkpt>
      <trkpt lat="44.24414" lon="3.62146">
        <ele>1012.89</ele>
        <time>2016-04-10T14:45:54Z</time>
      </trkpt>
      <trkpt lat="44.24394" lon="3.62128">
        <ele>1013.85</ele>
        <time>2016-04-10T14:45:55Z</time>
      </trkpt>
      <trkpt lat="44.24377" lon="3.62103">
        <ele>1014.81</ele>
        <time>2016-04-10T14:45:56Z</time>
      </trkpt>
      <trkpt lat="44.24361" lon="3.62077">
        <ele>1015.77</ele>
        <time>2016-04-10T14:45:57Z</time>
      </trkpt>
      <trkpt lat="44.24346" lon="3.6205">
        <ele>1016.73</ele>
        <time>2016-04-10T14:45:58Z</time>
      </trkpt>
      <trkpt lat="44.24332" lon="3.62021">
        <ele>1017.69</ele>
        <time>2016-04-10T14:45:59Z</time>
      </trkpt>
      <trkpt lat="44.24174" lon="3.61743">
        <ele>1017.21</ele>
        <time>2016-04-10T14:46:10Z</time>
      </trkpt>
      <trkpt lat="44.24144" lon="3.61705">
        <ele>1016.73</ele>
        <time>2016-04-10T14:46:12Z</time>
      </trkpt>
      <trkpt lat="44.24127" lon="3.61689">
        <ele>1016.25</ele>
        <time>2016-04-10T14:46:13Z</time>
      </trkpt>
      <trkpt lat="44.24105" lon="3.6168">
        <ele>1015.77</ele>
        <time>2016-04-10T14:46:14Z</time>
      </trkpt>
      <trkpt lat="44.24083" lon="3.61674">
        <ele>1014.81</ele>
        <time>2016-04-10T14:46:15Z</time>
      </trkpt>
      <trkpt lat="44.24058" lon="3.61671">
        <ele>1014.81</ele>
        <time>2016-04-10T14:46:16Z</time>
      </trkpt>
      <trkpt lat="44.24033" lon="3.6167">
        <ele>1014.33</ele>
        <time>2016-04-10T14:46:17Z</time>
      </trkpt>
      <trkpt lat="44.24007" lon="3.61672">
        <ele>1013.85</ele>
        <time>2016-04-10T14:46:18Z</time>
      </trkpt>
      <trkpt lat="44.2398" lon="3.61678">
        <ele>1012.89</ele>
        <time>2016-04-10T14:46:19Z</time>
      </trkpt>
      <trkpt lat="44.23954" lon="3.61684">
        <ele>1012.41</ele>
        <time>2016-04-10T14:46:20Z</time>
      </trkpt>
      <trkpt lat="44.23803" lon="3.61717">
        <ele>1011.44</ele>
        <time>2016-04-10T14:46:26Z</time>
      </trkpt>
      <trkpt lat="44.23779" lon="3.61717">
        <ele>1011.93</ele>
        <time>2016-04-10T14:46:27Z</time>
      </trkpt>
      <trkpt lat="44.23576" lon="3.61728">
        <ele>1018.17</ele>
        <time>2016-04-10T14:46:35Z</time>
      </trkpt>
      <trkpt lat="44.23364" lon="3.61811">
        <ele>1023.94</ele>
        <time>2016-04-10T14:46:44Z</time>
      </trkpt>
      <trkpt lat="44.23115" lon="3.61901">
        <ele>1027.79</ele>
        <time>2016-04-10T14:46:54Z</time>
      </trkpt>
      <trkpt lat="44.23088" lon="3.61899">
        <ele>1028.75</ele>
        <time>2016-04-10T14:46:55Z</time>
      </trkpt>
      <trkpt lat="44.22867" lon="3.61871">
        <ele>1042.69</ele>
        <time>2016-04-10T14:47:04Z</time>
      </trkpt>
      <trkpt lat="44.22715" lon="3.61871">
        <ele>1046.53</ele>
        <time>2016-04-10T14:47:11Z</time>
      </trkpt>
      <trkpt lat="44.22502" lon="3.61958">
        <ele>1042.21</ele>
        <time>2016-04-10T14:47:20Z</time>
      </trkpt>
      <trkpt lat="44.22264" lon="3.62119">
        <ele>1036.44</ele>
        <time>2016-04-10T14:47:30Z</time>
      </trkpt>
      <trkpt lat="44.22031" lon="3.62287">
        <ele>1034.52</ele>
        <time>2016-04-10T14:47:40Z</time>
      </trkpt>
      <trkpt lat="44.21764" lon="3.62466">
        <ele>1032.11</ele>
        <time>2016-04-10T14:47:51Z</time>
      </trkpt>
      <trkpt lat="44.21426" lon="3.62684">
        <ele>1034.52</ele>
        <time>2016-04-10T14:48:06Z</time>
      </trkpt>
      <trkpt lat="44.2118" lon="3.6284">
        <ele>1030.67</ele>
        <time>2016-04-10T14:48:17Z</time>
      </trkpt>
      <trkpt lat="44.21048" lon="3.63002">
        <ele>1035</ele>
        <time>2016-04-10T14:48:24Z</time>
      </trkpt>
      <trkpt lat="44.20956" lon="3.63179">
        <ele>1039.8</ele>
        <time>2016-04-10T14:48:31Z</time>
      </trkpt>
      <trkpt lat="44.20883" lon="3.63309">
        <ele>1039.8</ele>
        <time>2016-04-10T14:48:36Z</time>
      </trkpt>
      <trkpt lat="44.20864" lon="3.63329">
        <ele>1039.8</ele>
        <time>2016-04-10T14:48:37Z</time>
      </trkpt>
      <trkpt lat="44.20841" lon="3.63347">
        <ele>1039.32</ele>
        <time>2016-04-10T14:48:38Z</time>
      </trkpt>
      <trkpt lat="44.20702" lon="3.63418">
        <ele>1039.32</ele>
        <time>2016-04-10T14:48:44Z</time>
      </trkpt>
      <trkpt lat="44.20623" lon="3.63454">
        <ele>1040.28</ele>
        <time>2016-04-10T14:48:48Z</time>
      </trkpt>
      <trkpt lat="44.20606" lon="3.63474">
        <ele>1040.76</ele>
        <time>2016-04-10T14:48:49Z</time>
      </trkpt>
      <trkpt lat="44.20591" lon="3.63498">
        <ele>1040.76</ele>
        <time>2016-04-10T14:48:50Z</time>
      </trkpt>
      <trkpt lat="44.20578" lon="3.63524">
        <ele>1040.76</ele>
        <time>2016-04-10T14:48:51Z</time>
      </trkpt>
      <trkpt lat="44.20565" lon="3.63552">
        <ele>1040.76</ele>
        <time>2016-04-10T14:48:52Z</time>
      </trkpt>
      <trkpt lat="44.2042" lon="3.63851">
        <ele>1043.65</ele>
        <time>2016-04-10T14:49:03Z</time>
      </trkpt>
      <trkpt lat="44.20277" lon="3.64031">
        <ele>1044.61</ele>
        <time>2016-04-10T14:49:11Z</time>
      </trkpt>
      <trkpt lat="44.20232" lon="3.64083">
        <ele>1045.57</ele>
        <time>2016-04-10T14:49:14Z</time>
      </trkpt>
      <trkpt lat="44.20217" lon="3.64096">
        <ele>1045.57</ele>
        <time>2016-04-10T14:49:15Z</time>
      </trkpt>
      <trkpt lat="44.20201" lon="3.64104">
        <ele>1045.09</ele>
        <time>2016-04-10T14:49:16Z</time>
      </trkpt>
      <trkpt lat="44.20184" lon="3.6411">
        <ele>1044.13</ele>
        <time>2016-04-10T14:49:17Z</time>
      </trkpt>
      <trkpt lat="44.20165" lon="3.64112">
        <ele>1042.69</ele>
        <time>2016-04-10T14:49:18Z</time>
      </trkpt>
      <trkpt lat="44.20145" lon="3.64113">
        <ele>1040.76</ele>
        <time>2016-04-10T14:49:19Z</time>
      </trkpt>
      <trkpt lat="44.20125" lon="3.64111">
        <ele>1039.32</ele>
        <time>2016-04-10T14:49:20Z</time>
      </trkpt>
      <trkpt lat="44.20105" lon="3.64108">
        <ele>1037.4</ele>
        <time>2016-04-10T14:49:21Z</time>
      </trkpt>
      <trkpt lat="44.19968" lon="3.64082">
        <ele>1023.46</ele>
        <time>2016-04-10T14:49:28Z</time>
      </trkpt>
      <trkpt lat="44.19948" lon="3.64082">
        <ele>1021.54</ele>
        <time>2016-04-10T14:49:29Z</time>
      </trkpt>
      <trkpt lat="44.19928" lon="3.64089">
        <ele>1020.1</ele>
        <time>2016-04-10T14:49:30Z</time>
      </trkpt>
      <trkpt lat="44.19909" lon="3.64099">
        <ele>1017.69</ele>
        <time>2016-04-10T14:49:31Z</time>
      </trkpt>
      <trkpt lat="44.19891" lon="3.64113">
        <ele>1015.77</ele>
        <time>2016-04-10T14:49:32Z</time>
      </trkpt>
      <trkpt lat="44.19874" lon="3.6413">
        <ele>1013.85</ele>
        <time>2016-04-10T14:49:33Z</time>
      </trkpt>
      <trkpt lat="44.19858" lon="3.64148">
        <ele>1011.93</ele>
        <time>2016-04-10T14:49:34Z</time>
      </trkpt>
      <trkpt lat="44.19814" lon="3.64192">
        <ele>1007.12</ele>
        <time>2016-04-10T14:49:37Z</time>
      </trkpt>
      <trkpt lat="44.198" lon="3.64199">
        <ele>1005.68</ele>
        <time>2016-04-10T14:49:38Z</time>
      </trkpt>
      <trkpt lat="44.19786" lon="3.642">
        <ele>1003.75</ele>
        <time>2016-04-10T14:49:39Z</time>
      </trkpt>
      <trkpt lat="44.19774" lon="3.64195">
        <ele>1001.83</ele>
        <time>2016-04-10T14:49:40Z</time>
      </trkpt>
      <trkpt lat="44.19762" lon="3.64186">
        <ele>999.91</ele>
        <time>2016-04-10T14:49:41Z</time>
      </trkpt>
      <trkpt lat="44.19751" lon="3.64168">
        <ele>998.95</ele>
        <time>2016-04-10T14:49:42Z</time>
      </trkpt>
      <trkpt lat="44.19746" lon="3.64148">
        <ele>997.02</ele>
        <time>2016-04-10T14:49:43Z</time>
      </trkpt>
      <trkpt lat="44.19747" lon="3.64122">
        <ele>995.1</ele>
        <time>2016-04-10T14:49:44Z</time>
      </trkpt>
      <trkpt lat="44.19751" lon="3.64095">
        <ele>993.66</ele>
        <time>2016-04-10T14:49:45Z</time>
      </trkpt>
      <trkpt lat="44.19761" lon="3.64068">
        <ele>992.7</ele>
        <time>2016-04-10T14:49:46Z</time>
      </trkpt>
      <trkpt lat="44.19771" lon="3.64043">
        <ele>991.74</ele>
        <time>2016-04-10T14:49:47Z</time>
      </trkpt>
      <trkpt lat="44.19782" lon="3.64019">
        <ele>990.78</ele>
        <time>2016-04-10T14:49:48Z</time>
      </trkpt>
      <trkpt lat="44.19808" lon="3.6392">
        <ele>985.01</ele>
        <time>2016-04-10T14:49:52Z</time>
      </trkpt>
      <trkpt lat="44.19813" lon="3.63802">
        <ele>980.68</ele>
        <time>2016-04-10T14:49:57Z</time>
      </trkpt>
      <trkpt lat="44.19808" lon="3.63788">
        <ele>979.72</ele>
        <time>2016-04-10T14:49:58Z</time>
      </trkpt>
      <trkpt lat="44.19801" lon="3.63776">
        <ele>978.76</ele>
        <time>2016-04-10T14:49:59Z</time>
      </trkpt>
      <trkpt lat="44.19791" lon="3.63766">
        <ele>977.32</ele>
        <time>2016-04-10T14:50:00Z</time>
      </trkpt>
      <trkpt lat="44.1978" lon="3.63756">
        <ele>976.36</ele>
        <time>2016-04-10T14:50:01Z</time>
      </trkpt>
      <trkpt lat="44.19771" lon="3.63745">
        <ele>974.91</ele>
        <time>2016-04-10T14:50:02Z</time>
      </trkpt>
      <trkpt lat="44.19763" lon="3.63732">
        <ele>974.43</ele>
        <time>2016-04-10T14:50:03Z</time>
      </trkpt>
      <trkpt lat="44.19758" lon="3.6372">
        <ele>973.95</ele>
        <time>2016-04-10T14:50:04Z</time>
      </trkpt>
      <trkpt lat="44.19753" lon="3.63709">
        <ele>973.47</ele>
        <time>2016-04-10T14:50:05Z</time>
      </trkpt>
      <trkpt lat="44.19748" lon="3.63702">
        <ele>972.99</ele>
        <time>2016-04-10T14:50:06Z</time>
      </trkpt>
      <trkpt lat="44.19743" lon="3.63706">
        <ele>972.03</ele>
        <time>2016-04-10T14:50:07Z</time>
      </trkpt>
      <trkpt lat="44.19739" lon="3.63712">
        <ele>971.07</ele>
        <time>2016-04-10T14:50:08Z</time>
      </trkpt>
      <trkpt lat="44.19738" lon="3.63722">
        <ele>970.59</ele>
        <time>2016-04-10T14:50:09Z</time>
      </trkpt>
      <trkpt lat="44.19745" lon="3.63737">
        <ele>969.63</ele>
        <time>2016-04-10T14:50:10Z</time>
      </trkpt>
      <trkpt lat="44.19753" lon="3.63752">
        <ele>968.67</ele>
        <time>2016-04-10T14:50:11Z</time>
      </trkpt>
      <trkpt lat="44.19762" lon="3.63769">
        <ele>967.7</ele>
        <time>2016-04-10T14:50:12Z</time>
      </trkpt>
      <trkpt lat="44.1977" lon="3.63786">
        <ele>966.26</ele>
        <time>2016-04-10T14:50:13Z</time>
      </trkpt>
      <trkpt lat="44.19775" lon="3.63807">
        <ele>965.3</ele>
        <time>2016-04-10T14:50:14Z</time>
      </trkpt>
      <trkpt lat="44.19776" lon="3.63828">
        <ele>963.86</ele>
        <time>2016-04-10T14:50:15Z</time>
      </trkpt>
      <trkpt lat="44.19772" lon="3.63852">
        <ele>962.9</ele>
        <time>2016-04-10T14:50:16Z</time>
      </trkpt>
      <trkpt lat="44.19764" lon="3.63875">
        <ele>961.46</ele>
        <time>2016-04-10T14:50:17Z</time>
      </trkpt>
      <trkpt lat="44.19756" lon="3.63899">
        <ele>960.01</ele>
        <time>2016-04-10T14:50:18Z</time>
      </trkpt>
      <trkpt lat="44.19674" lon="3.64083">
        <ele>948</ele>
        <time>2016-04-10T14:50:26Z</time>
      </trkpt>
      <trkpt lat="44.19666" lon="3.64106">
        <ele>946.07</ele>
        <time>2016-04-10T14:50:27Z</time>
      </trkpt>
      <trkpt lat="44.19659" lon="3.64133">
        <ele>944.15</ele>
        <time>2016-04-10T14:50:28Z</time>
      </trkpt>
      <trkpt lat="44.19618" lon="3.64387">
        <ele>925.89</ele>
        <time>2016-04-10T14:50:37Z</time>
      </trkpt>
      <trkpt lat="44.19604" lon="3.64467">
        <ele>919.64</ele>
        <time>2016-04-10T14:50:40Z</time>
      </trkpt>
      <trkpt lat="44.19596" lon="3.64488">
        <ele>918.2</ele>
        <time>2016-04-10T14:50:41Z</time>
      </trkpt>
      <trkpt lat="44.19585" lon="3.64504">
        <ele>916.27</ele>
        <time>2016-04-10T14:50:42Z</time>
      </trkpt>
      <trkpt lat="44.19572" lon="3.64516">
        <ele>914.35</ele>
        <time>2016-04-10T14:50:43Z</time>
      </trkpt>
      <trkpt lat="44.19558" lon="3.6452">
        <ele>912.43</ele>
        <time>2016-04-10T14:50:44Z</time>
      </trkpt>
      <trkpt lat="44.19541" lon="3.64522">
        <ele>910.51</ele>
        <time>2016-04-10T14:50:45Z</time>
      </trkpt>
      <trkpt lat="44.1952" lon="3.64518">
        <ele>910.51</ele>
        <time>2016-04-10T14:50:46Z</time>
      </trkpt>
      <trkpt lat="44.195" lon="3.64515">
        <ele>910.51</ele>
        <time>2016-04-10T14:50:47Z</time>
      </trkpt>
      <trkpt lat="44.19393" lon="3.64519">
        <ele>906.18</ele>
        <time>2016-04-10T14:50:53Z</time>
      </trkpt>
      <trkpt lat="44.19377" lon="3.64515">
        <ele>905.22</ele>
        <time>2016-04-10T14:50:54Z</time>
      </trkpt>
      <trkpt lat="44.19362" lon="3.6451">
        <ele>904.74</ele>
        <time>2016-04-10T14:50:55Z</time>
      </trkpt>
      <trkpt lat="44.19333" lon="3.64498">
        <ele>903.3</ele>
        <time>2016-04-10T14:50:57Z</time>
      </trkpt>
      <trkpt lat="44.19319" lon="3.64497">
        <ele>902.82</ele>
        <time>2016-04-10T14:50:58Z</time>
      </trkpt>
      <trkpt lat="44.19306" lon="3.64505">
        <ele>902.33</ele>
        <time>2016-04-10T14:50:59Z</time>
      </trkpt>
      <trkpt lat="44.19293" lon="3.64517">
        <ele>901.37</ele>
        <time>2016-04-10T14:51:00Z</time>
      </trkpt>
      <trkpt lat="44.19279" lon="3.64532">
        <ele>900.89</ele>
        <time>2016-04-10T14:51:01Z</time>
      </trkpt>
      <trkpt lat="44.19266" lon="3.64548">
        <ele>899.45</ele>
        <time>2016-04-10T14:51:02Z</time>
      </trkpt>
      <trkpt lat="44.19192" lon="3.64631">
        <ele>892.24</ele>
        <time>2016-04-10T14:51:08Z</time>
      </trkpt>
      <trkpt lat="44.19186" lon="3.64645">
        <ele>890.8</ele>
        <time>2016-04-10T14:51:09Z</time>
      </trkpt>
      <trkpt lat="44.19186" lon="3.6466">
        <ele>888.88</ele>
        <time>2016-04-10T14:51:10Z</time>
      </trkpt>
      <trkpt lat="44.19194" lon="3.64677">
        <ele>886.95</ele>
        <time>2016-04-10T14:51:11Z</time>
      </trkpt>
      <trkpt lat="44.19204" lon="3.64692">
        <ele>885.51</ele>
        <time>2016-04-10T14:51:12Z</time>
      </trkpt>
      <trkpt lat="44.19217" lon="3.64703">
        <ele>884.07</ele>
        <time>2016-04-10T14:51:13Z</time>
      </trkpt>
      <trkpt lat="44.19233" lon="3.64706">
        <ele>882.15</ele>
        <time>2016-04-10T14:51:14Z</time>
      </trkpt>
      <trkpt lat="44.19251" lon="3.64704">
        <ele>880.71</ele>
        <time>2016-04-10T14:51:15Z</time>
      </trkpt>
      <trkpt lat="44.19269" lon="3.64699">
        <ele>878.78</ele>
        <time>2016-04-10T14:51:16Z</time>
      </trkpt>
      <trkpt lat="44.19286" lon="3.64695">
        <ele>876.38</ele>
        <time>2016-04-10T14:51:17Z</time>
      </trkpt>
      <trkpt lat="44.19304" lon="3.64697">
        <ele>874.46</ele>
        <time>2016-04-10T14:51:18Z</time>
      </trkpt>
      <trkpt lat="44.19321" lon="3.64706">
        <ele>872.53</ele>
        <time>2016-04-10T14:51:19Z</time>
      </trkpt>
      <trkpt lat="44.19337" lon="3.6472">
        <ele>870.61</ele>
        <time>2016-04-10T14:51:20Z</time>
      </trkpt>
      <trkpt lat="44.19351" lon="3.64737">
        <ele>868.21</ele>
        <time>2016-04-10T14:51:21Z</time>
      </trkpt>
      <trkpt lat="44.19361" lon="3.64756">
        <ele>866.29</ele>
        <time>2016-04-10T14:51:22Z</time>
      </trkpt>
      <trkpt lat="44.19372" lon="3.64775">
        <ele>864.36</ele>
        <time>2016-04-10T14:51:23Z</time>
      </trkpt>
      <trkpt lat="44.19384" lon="3.6479">
        <ele>862.44</ele>
        <time>2016-04-10T14:51:24Z</time>
      </trkpt>
      <trkpt lat="44.19398" lon="3.64799">
        <ele>860.52</ele>
        <time>2016-04-10T14:51:25Z</time>
      </trkpt>
      <trkpt lat="44.19412" lon="3.64803">
        <ele>858.59</ele>
        <time>2016-04-10T14:51:26Z</time>
      </trkpt>
      <trkpt lat="44.19427" lon="3.64803">
        <ele>857.15</ele>
        <time>2016-04-10T14:51:27Z</time>
      </trkpt>
      <trkpt lat="44.19441" lon="3.64802">
        <ele>856.67</ele>
        <time>2016-04-10T14:51:28Z</time>
      </trkpt>
      <trkpt lat="44.19452" lon="3.64801">
        <ele>856.19</ele>
        <time>2016-04-10T14:51:29Z</time>
      </trkpt>
      <trkpt lat="44.19462" lon="3.64805">
        <ele>855.23</ele>
        <time>2016-04-10T14:51:30Z</time>
      </trkpt>
      <trkpt lat="44.19468" lon="3.64814">
        <ele>853.79</ele>
        <time>2016-04-10T14:51:31Z</time>
      </trkpt>
      <trkpt lat="44.19473" lon="3.64827">
        <ele>852.83</ele>
        <time>2016-04-10T14:51:32Z</time>
      </trkpt>
      <trkpt lat="44.19477" lon="3.64842">
        <ele>852.35</ele>
        <time>2016-04-10T14:51:33Z</time>
      </trkpt>
      <trkpt lat="44.1948" lon="3.64858">
        <ele>850.9</ele>
        <time>2016-04-10T14:51:34Z</time>
      </trkpt>
      <trkpt lat="44.195" lon="3.64927">
        <ele>844.66</ele>
        <time>2016-04-10T14:51:39Z</time>
      </trkpt>
      <trkpt lat="44.19498" lon="3.64939">
        <ele>843.21</ele>
        <time>2016-04-10T14:51:40Z</time>
      </trkpt>
      <trkpt lat="44.1949" lon="3.64948">
        <ele>841.77</ele>
        <time>2016-04-10T14:51:41Z</time>
      </trkpt>
      <trkpt lat="44.19481" lon="3.64952">
        <ele>840.33</ele>
        <time>2016-04-10T14:51:42Z</time>
      </trkpt>
      <trkpt lat="44.19468" lon="3.64952">
        <ele>837.93</ele>
        <time>2016-04-10T14:51:43Z</time>
      </trkpt>
      <trkpt lat="44.19454" lon="3.6494">
        <ele>836.48</ele>
        <time>2016-04-10T14:51:44Z</time>
      </trkpt>
      <trkpt lat="44.19443" lon="3.64924">
        <ele>835.52</ele>
        <time>2016-04-10T14:51:45Z</time>
      </trkpt>
      <trkpt lat="44.19433" lon="3.64908">
        <ele>834.08</ele>
        <time>2016-04-10T14:51:46Z</time>
      </trkpt>
      <trkpt lat="44.19426" lon="3.64889">
        <ele>833.6</ele>
        <time>2016-04-10T14:51:47Z</time>
      </trkpt>
      <trkpt lat="44.1942" lon="3.64875">
        <ele>833.6</ele>
        <time>2016-04-10T14:51:48Z</time>
      </trkpt>
      <trkpt lat="44.19413" lon="3.64863">
        <ele>833.12</ele>
        <time>2016-04-10T14:51:49Z</time>
      </trkpt>
      <trkpt lat="44.19403" lon="3.64858">
        <ele>832.64</ele>
        <time>2016-04-10T14:51:50Z</time>
      </trkpt>
      <trkpt lat="44.19392" lon="3.64862">
        <ele>832.16</ele>
        <time>2016-04-10T14:51:51Z</time>
      </trkpt>
      <trkpt lat="44.19381" lon="3.64868">
        <ele>831.2</ele>
        <time>2016-04-10T14:51:52Z</time>
      </trkpt>
      <trkpt lat="44.1937" lon="3.64875">
        <ele>830.24</ele>
        <time>2016-04-10T14:51:53Z</time>
      </trkpt>
      <trkpt lat="44.19345" lon="3.64896">
        <ele>829.27</ele>
        <time>2016-04-10T14:51:56Z</time>
      </trkpt>
      <trkpt lat="44.19343" lon="3.64904">
        <ele>828.31</ele>
        <time>2016-04-10T14:51:57Z</time>
      </trkpt>
      <trkpt lat="44.19345" lon="3.64911">
        <ele>827.35</ele>
        <time>2016-04-10T14:51:58Z</time>
      </trkpt>
      <trkpt lat="44.1935" lon="3.64916">
        <ele>825.91</ele>
        <time>2016-04-10T14:51:59Z</time>
      </trkpt>
      <trkpt lat="44.1936" lon="3.64913">
        <ele>825.43</ele>
        <time>2016-04-10T14:52:00Z</time>
      </trkpt>
      <trkpt lat="44.1937" lon="3.64907">
        <ele>824.95</ele>
        <time>2016-04-10T14:52:01Z</time>
      </trkpt>
      <trkpt lat="44.19379" lon="3.649">
        <ele>824.47</ele>
        <time>2016-04-10T14:52:02Z</time>
      </trkpt>
      <trkpt lat="44.19387" lon="3.64897">
        <ele>823.99</ele>
        <time>2016-04-10T14:52:03Z</time>
      </trkpt>
      <trkpt lat="44.19396" lon="3.649">
        <ele>823.03</ele>
        <time>2016-04-10T14:52:04Z</time>
      </trkpt>
      <trkpt lat="44.19402" lon="3.64911">
        <ele>822.06</ele>
        <time>2016-04-10T14:52:05Z</time>
      </trkpt>
      <trkpt lat="44.19404" lon="3.64928">
        <ele>821.58</ele>
        <time>2016-04-10T14:52:06Z</time>
      </trkpt>
      <trkpt lat="44.19407" lon="3.64946">
        <ele>820.14</ele>
        <time>2016-04-10T14:52:07Z</time>
      </trkpt>
      <trkpt lat="44.19423" lon="3.65025">
        <ele>814.37</ele>
        <time>2016-04-10T14:52:11Z</time>
      </trkpt>
      <trkpt lat="44.19433" lon="3.65043">
        <ele>812.45</ele>
        <time>2016-04-10T14:52:12Z</time>
      </trkpt>
      <trkpt lat="44.19445" lon="3.65058">
        <ele>811.01</ele>
        <time>2016-04-10T14:52:13Z</time>
      </trkpt>
      <trkpt lat="44.19457" lon="3.65074">
        <ele>809.09</ele>
        <time>2016-04-10T14:52:14Z</time>
      </trkpt>
      <trkpt lat="44.19468" lon="3.65096">
        <ele>807.64</ele>
        <time>2016-04-10T14:52:15Z</time>
      </trkpt>
      <trkpt lat="44.19476" lon="3.65119">
        <ele>805.24</ele>
        <time>2016-04-10T14:52:16Z</time>
      </trkpt>
      <trkpt lat="44.19483" lon="3.65142">
        <ele>803.32</ele>
        <time>2016-04-10T14:52:17Z</time>
      </trkpt>
      <trkpt lat="44.1949" lon="3.65165">
        <ele>801.4</ele>
        <time>2016-04-10T14:52:18Z</time>
      </trkpt>
      <trkpt lat="44.19513" lon="3.65263">
        <ele>791.78</ele>
        <time>2016-04-10T14:52:23Z</time>
      </trkpt>
      <trkpt lat="44.19515" lon="3.65281">
        <ele>789.86</ele>
        <time>2016-04-10T14:52:24Z</time>
      </trkpt>
      <trkpt lat="44.19519" lon="3.65416">
        <ele>778.32</ele>
        <time>2016-04-10T14:52:33Z</time>
      </trkpt>
      <trkpt lat="44.19511" lon="3.65568">
        <ele>772.08</ele>
        <time>2016-04-10T14:52:43Z</time>
      </trkpt>
      <trkpt lat="44.19497" lon="3.65687">
        <ele>774</ele>
        <time>2016-04-10T14:52:51Z</time>
      </trkpt>
      <trkpt lat="44.19467" lon="3.6586">
        <ele>780.25</ele>
        <time>2016-04-10T14:53:01Z</time>
      </trkpt>
      <trkpt lat="44.19407" lon="3.65983">
        <ele>785.05</ele>
        <time>2016-04-10T14:53:07Z</time>
      </trkpt>
      <trkpt lat="44.19375" lon="3.66059">
        <ele>788.42</ele>
        <time>2016-04-10T14:53:10Z</time>
      </trkpt>
      <trkpt lat="44.19367" lon="3.66088">
        <ele>789.38</ele>
        <time>2016-04-10T14:53:11Z</time>
      </trkpt>
      <trkpt lat="44.19362" lon="3.66119">
        <ele>790.82</ele>
        <time>2016-04-10T14:53:12Z</time>
      </trkpt>
      <trkpt lat="44.1934" lon="3.66385">
        <ele>799.95</ele>
        <time>2016-04-10T14:53:21Z</time>
      </trkpt>
      <trkpt lat="44.19329" lon="3.66612">
        <ele>807.64</ele>
        <time>2016-04-10T14:53:29Z</time>
      </trkpt>
      <trkpt lat="44.19322" lon="3.66638">
        <ele>808.61</ele>
        <time>2016-04-10T14:53:30Z</time>
      </trkpt>
      <trkpt lat="44.19313" lon="3.66664">
        <ele>809.57</ele>
        <time>2016-04-10T14:53:31Z</time>
      </trkpt>
      <trkpt lat="44.19301" lon="3.66688">
        <ele>810.53</ele>
        <time>2016-04-10T14:53:32Z</time>
      </trkpt>
      <trkpt lat="44.19287" lon="3.66712">
        <ele>811.01</ele>
        <time>2016-04-10T14:53:33Z</time>
      </trkpt>
      <trkpt lat="44.19274" lon="3.66734">
        <ele>811.49</ele>
        <time>2016-04-10T14:53:34Z</time>
      </trkpt>
      <trkpt lat="44.1926" lon="3.66754">
        <ele>812.45</ele>
        <time>2016-04-10T14:53:35Z</time>
      </trkpt>
      <trkpt lat="44.19242" lon="3.6677">
        <ele>812.45</ele>
        <time>2016-04-10T14:53:36Z</time>
      </trkpt>
      <trkpt lat="44.1922" lon="3.66783">
        <ele>812.93</ele>
        <time>2016-04-10T14:53:37Z</time>
      </trkpt>
      <trkpt lat="44.19197" lon="3.66796">
        <ele>813.41</ele>
        <time>2016-04-10T14:53:38Z</time>
      </trkpt>
      <trkpt lat="44.19175" lon="3.66808">
        <ele>813.89</ele>
        <time>2016-04-10T14:53:39Z</time>
      </trkpt>
      <trkpt lat="44.18964" lon="3.66898">
        <ele>819.66</ele>
        <time>2016-04-10T14:53:48Z</time>
      </trkpt>
      <trkpt lat="44.18852" lon="3.6693">
        <ele>823.99</ele>
        <time>2016-04-10T14:53:53Z</time>
      </trkpt>
      <trkpt lat="44.1883" lon="3.66927">
        <ele>824.95</ele>
        <time>2016-04-10T14:53:54Z</time>
      </trkpt>
      <trkpt lat="44.18808" lon="3.66921">
        <ele>825.91</ele>
        <time>2016-04-10T14:53:55Z</time>
      </trkpt>
      <trkpt lat="44.18715" lon="3.66929">
        <ele>829.76</ele>
        <time>2016-04-10T14:54:00Z</time>
      </trkpt>
      <trkpt lat="44.18696" lon="3.66941">
        <ele>830.24</ele>
        <time>2016-04-10T14:54:01Z</time>
      </trkpt>
      <trkpt lat="44.18678" lon="3.66962">
        <ele>830.72</ele>
        <time>2016-04-10T14:54:02Z</time>
      </trkpt>
      <trkpt lat="44.18661" lon="3.66984">
        <ele>830.24</ele>
        <time>2016-04-10T14:54:03Z</time>
      </trkpt>
      <trkpt lat="44.18648" lon="3.67011">
        <ele>829.76</ele>
        <time>2016-04-10T14:54:04Z</time>
      </trkpt>
      <trkpt lat="44.18636" lon="3.67039">
        <ele>830.24</ele>
        <time>2016-04-10T14:54:05Z</time>
      </trkpt>
      <trkpt lat="44.18627" lon="3.6707">
        <ele>831.2</ele>
        <time>2016-04-10T14:54:06Z</time>
      </trkpt>
      <trkpt lat="44.18618" lon="3.67102">
        <ele>831.68</ele>
        <time>2016-04-10T14:54:07Z</time>
      </trkpt>
      <trkpt lat="44.18607" lon="3.67134">
        <ele>832.16</ele>
        <time>2016-04-10T14:54:08Z</time>
      </trkpt>
      <trkpt lat="44.18595" lon="3.67165">
        <ele>832.16</ele>
        <time>2016-04-10T14:54:09Z</time>
      </trkpt>
      <trkpt lat="44.18581" lon="3.67195">
        <ele>832.16</ele>
        <time>2016-04-10T14:54:10Z</time>
      </trkpt>
      <trkpt lat="44.18427" lon="3.67493">
        <ele>832.64</ele>
        <time>2016-04-10T14:54:20Z</time>
      </trkpt>
      <trkpt lat="44.18309" lon="3.67724">
        <ele>835.52</ele>
        <time>2016-04-10T14:54:28Z</time>
      </trkpt>
      <trkpt lat="44.18283" lon="3.6789">
        <ele>837.93</ele>
        <time>2016-04-10T14:54:33Z</time>
      </trkpt>
      <trkpt lat="44.18287" lon="3.67922">
        <ele>837.93</ele>
        <time>2016-04-10T14:54:34Z</time>
      </trkpt>
      <trkpt lat="44.18275" lon="3.6813">
        <ele>842.73</ele>
        <time>2016-04-10T14:54:40Z</time>
      </trkpt>
      <trkpt lat="44.18263" lon="3.68344">
        <ele>848.98</ele>
        <time>2016-04-10T14:54:47Z</time>
      </trkpt>
      <trkpt lat="44.18258" lon="3.68416">
        <ele>850.9</ele>
        <time>2016-04-10T14:54:50Z</time>
      </trkpt>
      <trkpt lat="44.18252" lon="3.68438">
        <ele>851.38</ele>
        <time>2016-04-10T14:54:51Z</time>
      </trkpt>
      <trkpt lat="44.18244" lon="3.68455">
        <ele>851.87</ele>
        <time>2016-04-10T14:54:52Z</time>
      </trkpt>
      <trkpt lat="44.1823" lon="3.68468">
        <ele>851.38</ele>
        <time>2016-04-10T14:54:53Z</time>
      </trkpt>
      <trkpt lat="44.18213" lon="3.68471">
        <ele>850.42</ele>
        <time>2016-04-10T14:54:54Z</time>
      </trkpt>
      <trkpt lat="44.18187" lon="3.68465">
        <ele>851.38</ele>
        <time>2016-04-10T14:54:55Z</time>
      </trkpt>
      <trkpt lat="44.18163" lon="3.68453">
        <ele>851.38</ele>
        <time>2016-04-10T14:54:56Z</time>
      </trkpt>
      <trkpt lat="44.18141" lon="3.68444">
        <ele>850.42</ele>
        <time>2016-04-10T14:54:57Z</time>
      </trkpt>
      <trkpt lat="44.18118" lon="3.68434">
        <ele>849.94</ele>
        <time>2016-04-10T14:54:58Z</time>
      </trkpt>
      <trkpt lat="44.18073" lon="3.68422">
        <ele>848.5</ele>
        <time>2016-04-10T14:55:00Z</time>
      </trkpt>
      <trkpt lat="44.18051" lon="3.68425">
        <ele>847.54</ele>
        <time>2016-04-10T14:55:01Z</time>
      </trkpt>
      <trkpt lat="44.1803" lon="3.68433">
        <ele>847.06</ele>
        <time>2016-04-10T14:55:02Z</time>
      </trkpt>
      <trkpt lat="44.18008" lon="3.68448">
        <ele>846.58</ele>
        <time>2016-04-10T14:55:03Z</time>
      </trkpt>
      <trkpt lat="44.17987" lon="3.68464">
        <ele>846.1</ele>
        <time>2016-04-10T14:55:04Z</time>
      </trkpt>
      <trkpt lat="44.17967" lon="3.68482">
        <ele>845.62</ele>
        <time>2016-04-10T14:55:05Z</time>
      </trkpt>
      <trkpt lat="44.17946" lon="3.68501">
        <ele>846.1</ele>
        <time>2016-04-10T14:55:06Z</time>
      </trkpt>
      <trkpt lat="44.17758" lon="3.68672">
        <ele>846.1</ele>
        <time>2016-04-10T14:55:15Z</time>
      </trkpt>
      <trkpt lat="44.17658" lon="3.68747">
        <ele>847.06</ele>
        <time>2016-04-10T14:55:20Z</time>
      </trkpt>
      <trkpt lat="44.17634" lon="3.68753">
        <ele>847.54</ele>
        <time>2016-04-10T14:55:21Z</time>
      </trkpt>
      <trkpt lat="44.1761" lon="3.68759">
        <ele>847.06</ele>
        <time>2016-04-10T14:55:22Z</time>
      </trkpt>
      <trkpt lat="44.17588" lon="3.68769">
        <ele>847.06</ele>
        <time>2016-04-10T14:55:23Z</time>
      </trkpt>
      <trkpt lat="44.17566" lon="3.68787">
        <ele>847.06</ele>
        <time>2016-04-10T14:55:24Z</time>
      </trkpt>
      <trkpt lat="44.17544" lon="3.68806">
        <ele>847.06</ele>
        <time>2016-04-10T14:55:25Z</time>
      </trkpt>
      <trkpt lat="44.17383" lon="3.68986">
        <ele>847.06</ele>
        <time>2016-04-10T14:55:33Z</time>
      </trkpt>
      <trkpt lat="44.17239" lon="3.69168">
        <ele>845.62</ele>
        <time>2016-04-10T14:55:41Z</time>
      </trkpt>
      <trkpt lat="44.17116" lon="3.69279">
        <ele>845.14</ele>
        <time>2016-04-10T14:55:48Z</time>
      </trkpt>
      <trkpt lat="44.17089" lon="3.69324">
        <ele>843.69</ele>
        <time>2016-04-10T14:55:50Z</time>
      </trkpt>
      <trkpt lat="44.17078" lon="3.69348">
        <ele>843.21</ele>
        <time>2016-04-10T14:55:51Z</time>
      </trkpt>
      <trkpt lat="44.17047" lon="3.69426">
        <ele>842.73</ele>
        <time>2016-04-10T14:55:54Z</time>
      </trkpt>
      <trkpt lat="44.1704" lon="3.69459">
        <ele>841.77</ele>
        <time>2016-04-10T14:55:55Z</time>
      </trkpt>
      <trkpt lat="44.17037" lon="3.69495">
        <ele>841.29</ele>
        <time>2016-04-10T14:55:56Z</time>
      </trkpt>
      <trkpt lat="44.17039" lon="3.69533">
        <ele>841.29</ele>
        <time>2016-04-10T14:55:57Z</time>
      </trkpt>
      <trkpt lat="44.1704" lon="3.69571">
        <ele>840.81</ele>
        <time>2016-04-10T14:55:58Z</time>
      </trkpt>
      <trkpt lat="44.17033" lon="3.69873">
        <ele>839.85</ele>
        <time>2016-04-10T14:56:06Z</time>
      </trkpt>
      <trkpt lat="44.17021" lon="3.69943">
        <ele>839.85</ele>
        <time>2016-04-10T14:56:08Z</time>
      </trkpt>
      <trkpt lat="44.17011" lon="3.69977">
        <ele>839.37</ele>
        <time>2016-04-10T14:56:09Z</time>
      </trkpt>
      <trkpt lat="44.16974" lon="3.70067">
        <ele>837.93</ele>
        <time>2016-04-10T14:56:12Z</time>
      </trkpt>
      <trkpt lat="44.16956" lon="3.70091">
        <ele>837.93</ele>
        <time>2016-04-10T14:56:13Z</time>
      </trkpt>
      <trkpt lat="44.16937" lon="3.70116">
        <ele>837.45</ele>
        <time>2016-04-10T14:56:14Z</time>
      </trkpt>
      <trkpt lat="44.1684" lon="3.7023">
        <ele>836</ele>
        <time>2016-04-10T14:56:19Z</time>
      </trkpt>
      <trkpt lat="44.168" lon="3.7027">
        <ele>835.52</ele>
        <time>2016-04-10T14:56:21Z</time>
      </trkpt>
      <trkpt lat="44.16782" lon="3.70295">
        <ele>835.52</ele>
        <time>2016-04-10T14:56:22Z</time>
      </trkpt>
      <trkpt lat="44.16765" lon="3.70324">
        <ele>835.04</ele>
        <time>2016-04-10T14:56:23Z</time>
      </trkpt>
      <trkpt lat="44.16636" lon="3.70515">
        <ele>831.68</ele>
        <time>2016-04-10T14:56:30Z</time>
      </trkpt>
      <trkpt lat="44.16602" lon="3.7057">
        <ele>830.24</ele>
        <time>2016-04-10T14:56:32Z</time>
      </trkpt>
      <trkpt lat="44.16587" lon="3.70601">
        <ele>829.76</ele>
        <time>2016-04-10T14:56:33Z</time>
      </trkpt>
      <trkpt lat="44.16528" lon="3.70772">
        <ele>827.35</ele>
        <time>2016-04-10T14:56:38Z</time>
      </trkpt>
      <trkpt lat="44.16522" lon="3.70808">
        <ele>826.39</ele>
        <time>2016-04-10T14:56:39Z</time>
      </trkpt>
      <trkpt lat="44.16518" lon="3.70843">
        <ele>825.43</ele>
        <time>2016-04-10T14:56:40Z</time>
      </trkpt>
      <trkpt lat="44.16509" lon="3.70909">
        <ele>823.51</ele>
        <time>2016-04-10T14:56:42Z</time>
      </trkpt>
      <trkpt lat="44.16499" lon="3.70941">
        <ele>823.03</ele>
        <time>2016-04-10T14:56:43Z</time>
      </trkpt>
      <trkpt lat="44.16463" lon="3.71146">
        <ele>820.62</ele>
        <time>2016-04-10T14:56:49Z</time>
      </trkpt>
      <trkpt lat="44.16467" lon="3.71216">
        <ele>818.7</ele>
        <time>2016-04-10T14:56:51Z</time>
      </trkpt>
      <trkpt lat="44.16476" lon="3.7125">
        <ele>817.74</ele>
        <time>2016-04-10T14:56:52Z</time>
      </trkpt>
      <trkpt lat="44.1649" lon="3.71284">
        <ele>817.26</ele>
        <time>2016-04-10T14:56:53Z</time>
      </trkpt>
      <trkpt lat="44.16505" lon="3.71318">
        <ele>816.78</ele>
        <time>2016-04-10T14:56:54Z</time>
      </trkpt>
      <trkpt lat="44.16519" lon="3.71352">
        <ele>815.82</ele>
        <time>2016-04-10T14:56:55Z</time>
      </trkpt>
      <trkpt lat="44.16575" lon="3.71479">
        <ele>813.89</ele>
        <time>2016-04-10T14:56:59Z</time>
      </trkpt>
      <trkpt lat="44.16585" lon="3.71512">
        <ele>813.41</ele>
        <time>2016-04-10T14:57:00Z</time>
      </trkpt>
      <trkpt lat="44.1659" lon="3.71545">
        <ele>812.93</ele>
        <time>2016-04-10T14:57:01Z</time>
      </trkpt>
      <trkpt lat="44.16592" lon="3.71577">
        <ele>812.45</ele>
        <time>2016-04-10T14:57:02Z</time>
      </trkpt>
      <trkpt lat="44.1659" lon="3.71611">
        <ele>811.97</ele>
        <time>2016-04-10T14:57:03Z</time>
      </trkpt>
      <trkpt lat="44.16584" lon="3.71646">
        <ele>811.49</ele>
        <time>2016-04-10T14:57:04Z</time>
      </trkpt>
      <trkpt lat="44.16581" lon="3.71682">
        <ele>810.53</ele>
        <time>2016-04-10T14:57:05Z</time>
      </trkpt>
      <trkpt lat="44.1658" lon="3.71719">
        <ele>810.53</ele>
        <time>2016-04-10T14:57:06Z</time>
      </trkpt>
      <trkpt lat="44.16581" lon="3.71756">
        <ele>809.57</ele>
        <time>2016-04-10T14:57:07Z</time>
      </trkpt>
      <trkpt lat="44.16585" lon="3.71792">
        <ele>810.05</ele>
        <time>2016-04-10T14:57:08Z</time>
      </trkpt>
      <trkpt lat="44.16596" lon="3.71962">
        <ele>809.09</ele>
        <time>2016-04-10T14:57:13Z</time>
      </trkpt>
      <trkpt lat="44.1659" lon="3.71995">
        <ele>808.13</ele>
        <time>2016-04-10T14:57:14Z</time>
      </trkpt>
      <trkpt lat="44.16581" lon="3.72027">
        <ele>807.64</ele>
        <time>2016-04-10T14:57:15Z</time>
      </trkpt>
      <trkpt lat="44.16568" lon="3.72057">
        <ele>807.16</ele>
        <time>2016-04-10T14:57:16Z</time>
      </trkpt>
      <trkpt lat="44.16553" lon="3.72085">
        <ele>807.16</ele>
        <time>2016-04-10T14:57:17Z</time>
      </trkpt>
      <trkpt lat="44.16537" lon="3.72112">
        <ele>807.16</ele>
        <time>2016-04-10T14:57:18Z</time>
      </trkpt>
      <trkpt lat="44.16502" lon="3.72201">
        <ele>807.16</ele>
        <time>2016-04-10T14:57:21Z</time>
      </trkpt>
      <trkpt lat="44.16498" lon="3.72234">
        <ele>807.16</ele>
        <time>2016-04-10T14:57:22Z</time>
      </trkpt>
      <trkpt lat="44.165" lon="3.72272">
        <ele>807.16</ele>
        <time>2016-04-10T14:57:23Z</time>
      </trkpt>
      <trkpt lat="44.16505" lon="3.72312">
        <ele>807.16</ele>
        <time>2016-04-10T14:57:24Z</time>
      </trkpt>
      <trkpt lat="44.16509" lon="3.72352">
        <ele>807.16</ele>
        <time>2016-04-10T14:57:25Z</time>
      </trkpt>
      <trkpt lat="44.16523" lon="3.72558">
        <ele>804.76</ele>
        <time>2016-04-10T14:57:31Z</time>
      </trkpt>
      <trkpt lat="44.16518" lon="3.72592">
        <ele>804.76</ele>
        <time>2016-04-10T14:57:32Z</time>
      </trkpt>
      <trkpt lat="44.16511" lon="3.72624">
        <ele>804.28</ele>
        <time>2016-04-10T14:57:33Z</time>
      </trkpt>
      <trkpt lat="44.165" lon="3.72653">
        <ele>803.8</ele>
        <time>2016-04-10T14:57:34Z</time>
      </trkpt>
      <trkpt lat="44.16486" lon="3.72678">
        <ele>803.32</ele>
        <time>2016-04-10T14:57:35Z</time>
      </trkpt>
      <trkpt lat="44.16448" lon="3.7272">
        <ele>803.32</ele>
        <time>2016-04-10T14:57:37Z</time>
      </trkpt>
      <trkpt lat="44.16423" lon="3.72737">
        <ele>803.32</ele>
        <time>2016-04-10T14:57:38Z</time>
      </trkpt>
      <trkpt lat="44.16378" lon="3.72775">
        <ele>800.92</ele>
        <time>2016-04-10T14:57:40Z</time>
      </trkpt>
      <trkpt lat="44.1636" lon="3.728">
        <ele>799.95</ele>
        <time>2016-04-10T14:57:41Z</time>
      </trkpt>
      <trkpt lat="44.16347" lon="3.72829">
        <ele>798.51</ele>
        <time>2016-04-10T14:57:42Z</time>
      </trkpt>
      <trkpt lat="44.16337" lon="3.72857">
        <ele>797.07</ele>
        <time>2016-04-10T14:57:43Z</time>
      </trkpt>
      <trkpt lat="44.16328" lon="3.72884">
        <ele>795.63</ele>
        <time>2016-04-10T14:57:44Z</time>
      </trkpt>
      <trkpt lat="44.16317" lon="3.72906">
        <ele>794.19</ele>
        <time>2016-04-10T14:57:45Z</time>
      </trkpt>
      <trkpt lat="44.16304" lon="3.72922">
        <ele>792.74</ele>
        <time>2016-04-10T14:57:46Z</time>
      </trkpt>
      <trkpt lat="44.16291" lon="3.72934">
        <ele>790.82</ele>
        <time>2016-04-10T14:57:47Z</time>
      </trkpt>
      <trkpt lat="44.16269" lon="3.72938">
        <ele>788.9</ele>
        <time>2016-04-10T14:57:48Z</time>
      </trkpt>
      <trkpt lat="44.16246" lon="3.72938">
        <ele>788.42</ele>
        <time>2016-04-10T14:57:49Z</time>
      </trkpt>
      <trkpt lat="44.16222" lon="3.72937">
        <ele>788.42</ele>
        <time>2016-04-10T14:57:50Z</time>
      </trkpt>
      <trkpt lat="44.16199" lon="3.72939">
        <ele>788.42</ele>
        <time>2016-04-10T14:57:51Z</time>
      </trkpt>
      <trkpt lat="44.16176" lon="3.72946">
        <ele>787.94</ele>
        <time>2016-04-10T14:57:52Z</time>
      </trkpt>
      <trkpt lat="44.16154" lon="3.72958">
        <ele>787.94</ele>
        <time>2016-04-10T14:57:53Z</time>
      </trkpt>
      <trkpt lat="44.16133" lon="3.72973">
        <ele>787.46</ele>
        <time>2016-04-10T14:57:54Z</time>
      </trkpt>
      <trkpt lat="44.16115" lon="3.7299">
        <ele>787.46</ele>
        <time>2016-04-10T14:57:55Z</time>
      </trkpt>
      <trkpt lat="44.16099" lon="3.73009">
        <ele>786.98</ele>
        <time>2016-04-10T14:57:56Z</time>
      </trkpt>
      <trkpt lat="44.16087" lon="3.73033">
        <ele>786.5</ele>
        <time>2016-04-10T14:57:57Z</time>
      </trkpt>
      <trkpt lat="44.16078" lon="3.73061">
        <ele>786.5</ele>
        <time>2016-04-10T14:57:58Z</time>
      </trkpt>
      <trkpt lat="44.16073" lon="3.73089">
        <ele>785.53</ele>
        <time>2016-04-10T14:57:59Z</time>
      </trkpt>
      <trkpt lat="44.1607" lon="3.73119">
        <ele>786.02</ele>
        <time>2016-04-10T14:58:00Z</time>
      </trkpt>
      <trkpt lat="44.16066" lon="3.73148">
        <ele>786.5</ele>
        <time>2016-04-10T14:58:01Z</time>
      </trkpt>
      <trkpt lat="44.1606" lon="3.73176">
        <ele>786.5</ele>
        <time>2016-04-10T14:58:02Z</time>
      </trkpt>
      <trkpt lat="44.16052" lon="3.73201">
        <ele>786.5</ele>
        <time>2016-04-10T14:58:03Z</time>
      </trkpt>
      <trkpt lat="44.16039" lon="3.73224">
        <ele>786.5</ele>
        <time>2016-04-10T14:58:04Z</time>
      </trkpt>
      <trkpt lat="44.16025" lon="3.73243">
        <ele>786.5</ele>
        <time>2016-04-10T14:58:05Z</time>
      </trkpt>
      <trkpt lat="44.16004" lon="3.73255">
        <ele>786.98</ele>
        <time>2016-04-10T14:58:06Z</time>
      </trkpt>
      <trkpt lat="44.15978" lon="3.73264">
        <ele>788.42</ele>
        <time>2016-04-10T14:58:07Z</time>
      </trkpt>
      <trkpt lat="44.15956" lon="3.73277">
        <ele>789.86</ele>
        <time>2016-04-10T14:58:08Z</time>
      </trkpt>
      <trkpt lat="44.15834" lon="3.73394">
        <ele>792.74</ele>
        <time>2016-04-10T14:58:14Z</time>
      </trkpt>
      <trkpt lat="44.15714" lon="3.73499">
        <ele>788.42</ele>
        <time>2016-04-10T14:58:20Z</time>
      </trkpt>
      <trkpt lat="44.15702" lon="3.73529">
        <ele>787.46</ele>
        <time>2016-04-10T14:58:21Z</time>
      </trkpt>
      <trkpt lat="44.15694" lon="3.73562">
        <ele>785.53</ele>
        <time>2016-04-10T14:58:22Z</time>
      </trkpt>
      <trkpt lat="44.15687" lon="3.73597">
        <ele>784.09</ele>
        <time>2016-04-10T14:58:23Z</time>
      </trkpt>
      <trkpt lat="44.1568" lon="3.73633">
        <ele>782.65</ele>
        <time>2016-04-10T14:58:24Z</time>
      </trkpt>
      <trkpt lat="44.15672" lon="3.73669">
        <ele>780.25</ele>
        <time>2016-04-10T14:58:25Z</time>
      </trkpt>
      <trkpt lat="44.15644" lon="3.73855">
        <ele>769.19</ele>
        <time>2016-04-10T14:58:30Z</time>
      </trkpt>
      <trkpt lat="44.15646" lon="3.73895">
        <ele>766.79</ele>
        <time>2016-04-10T14:58:31Z</time>
      </trkpt>
      <trkpt lat="44.15654" lon="3.73934">
        <ele>762.94</ele>
        <time>2016-04-10T14:58:32Z</time>
      </trkpt>
      <trkpt lat="44.15662" lon="3.73971">
        <ele>760.06</ele>
        <time>2016-04-10T14:58:33Z</time>
      </trkpt>
      <trkpt lat="44.15673" lon="3.74006">
        <ele>757.66</ele>
        <time>2016-04-10T14:58:34Z</time>
      </trkpt>
      <trkpt lat="44.15684" lon="3.74041">
        <ele>755.73</ele>
        <time>2016-04-10T14:58:35Z</time>
      </trkpt>
      <trkpt lat="44.15701" lon="3.74184">
        <ele>748.52</ele>
        <time>2016-04-10T14:58:39Z</time>
      </trkpt>
      <trkpt lat="44.15701" lon="3.74435">
        <ele>737.47</ele>
        <time>2016-04-10T14:58:46Z</time>
      </trkpt>
      <trkpt lat="44.15703" lon="3.74533">
        <ele>733.62</ele>
        <time>2016-04-10T14:58:49Z</time>
      </trkpt>
      <trkpt lat="44.15704" lon="3.74566">
        <ele>732.18</ele>
        <time>2016-04-10T14:58:50Z</time>
      </trkpt>
      <trkpt lat="44.15702" lon="3.74599">
        <ele>730.74</ele>
        <time>2016-04-10T14:58:51Z</time>
      </trkpt>
      <trkpt lat="44.15696" lon="3.74631">
        <ele>728.82</ele>
        <time>2016-04-10T14:58:52Z</time>
      </trkpt>
      <trkpt lat="44.1569" lon="3.74663">
        <ele>726.89</ele>
        <time>2016-04-10T14:58:53Z</time>
      </trkpt>
      <trkpt lat="44.15686" lon="3.74696">
        <ele>725.45</ele>
        <time>2016-04-10T14:58:54Z</time>
      </trkpt>
      <trkpt lat="44.15686" lon="3.74729">
        <ele>723.53</ele>
        <time>2016-04-10T14:58:55Z</time>
      </trkpt>
      <trkpt lat="44.15688" lon="3.74764">
        <ele>721.61</ele>
        <time>2016-04-10T14:58:56Z</time>
      </trkpt>
      <trkpt lat="44.1569" lon="3.74799">
        <ele>719.68</ele>
        <time>2016-04-10T14:58:57Z</time>
      </trkpt>
      <trkpt lat="44.15689" lon="3.74835">
        <ele>717.76</ele>
        <time>2016-04-10T14:58:58Z</time>
      </trkpt>
      <trkpt lat="44.15688" lon="3.74871">
        <ele>716.32</ele>
        <time>2016-04-10T14:58:59Z</time>
      </trkpt>
      <trkpt lat="44.15689" lon="3.74905">
        <ele>714.4</ele>
        <time>2016-04-10T14:59:00Z</time>
      </trkpt>
      <trkpt lat="44.15692" lon="3.74934">
        <ele>712.95</ele>
        <time>2016-04-10T14:59:01Z</time>
      </trkpt>
      <trkpt lat="44.1569" lon="3.74984">
        <ele>709.11</ele>
        <time>2016-04-10T14:59:03Z</time>
      </trkpt>
      <trkpt lat="44.15682" lon="3.75008">
        <ele>707.19</ele>
        <time>2016-04-10T14:59:04Z</time>
      </trkpt>
      <trkpt lat="44.15634" lon="3.75051">
        <ele>703.82</ele>
        <time>2016-04-10T14:59:07Z</time>
      </trkpt>
      <trkpt lat="44.15596" lon="3.75045">
        <ele>705.26</ele>
        <time>2016-04-10T14:59:08Z</time>
      </trkpt>
      <trkpt lat="44.15577" lon="3.75036">
        <ele>705.75</ele>
        <time>2016-04-10T14:59:09Z</time>
      </trkpt>
      <trkpt lat="44.15559" lon="3.75034">
        <ele>705.75</ele>
        <time>2016-04-10T14:59:10Z</time>
      </trkpt>
      <trkpt lat="44.15542" lon="3.75031">
        <ele>705.75</ele>
        <time>2016-04-10T14:59:11Z</time>
      </trkpt>
      <trkpt lat="44.15526" lon="3.75037">
        <ele>704.78</ele>
        <time>2016-04-10T14:59:12Z</time>
      </trkpt>
      <trkpt lat="44.15509" lon="3.7505">
        <ele>703.82</ele>
        <time>2016-04-10T14:59:13Z</time>
      </trkpt>
      <trkpt lat="44.15494" lon="3.7507">
        <ele>702.86</ele>
        <time>2016-04-10T14:59:14Z</time>
      </trkpt>
      <trkpt lat="44.15479" lon="3.75093">
        <ele>702.38</ele>
        <time>2016-04-10T14:59:15Z</time>
      </trkpt>
      <trkpt lat="44.15465" lon="3.75119">
        <ele>701.42</ele>
        <time>2016-04-10T14:59:16Z</time>
      </trkpt>
      <trkpt lat="44.1545" lon="3.75148">
        <ele>701.42</ele>
        <time>2016-04-10T14:59:17Z</time>
      </trkpt>
      <trkpt lat="44.15435" lon="3.75174">
        <ele>699.02</ele>
        <time>2016-04-10T14:59:18Z</time>
      </trkpt>
      <trkpt lat="44.15421" lon="3.75199">
        <ele>697.09</ele>
        <time>2016-04-10T14:59:19Z</time>
      </trkpt>
      <trkpt lat="44.1539" lon="3.75244">
        <ele>693.73</ele>
        <time>2016-04-10T14:59:21Z</time>
      </trkpt>
      <trkpt lat="44.15378" lon="3.75272">
        <ele>692.29</ele>
        <time>2016-04-10T14:59:22Z</time>
      </trkpt>
      <trkpt lat="44.15371" lon="3.75301">
        <ele>690.36</ele>
        <time>2016-04-10T14:59:23Z</time>
      </trkpt>
      <trkpt lat="44.15364" lon="3.75334">
        <ele>688.92</ele>
        <time>2016-04-10T14:59:24Z</time>
      </trkpt>
      <trkpt lat="44.15358" lon="3.75368">
        <ele>687.48</ele>
        <time>2016-04-10T14:59:25Z</time>
      </trkpt>
      <trkpt lat="44.15354" lon="3.75403">
        <ele>685.08</ele>
        <time>2016-04-10T14:59:26Z</time>
      </trkpt>
      <trkpt lat="44.15349" lon="3.75438">
        <ele>683.63</ele>
        <time>2016-04-10T14:59:27Z</time>
      </trkpt>
      <trkpt lat="44.15319" lon="3.75581">
        <ele>674.98</ele>
        <time>2016-04-10T14:59:32Z</time>
      </trkpt>
      <trkpt lat="44.15304" lon="3.756">
        <ele>674.02</ele>
        <time>2016-04-10T14:59:33Z</time>
      </trkpt>
      <trkpt lat="44.15289" lon="3.7562">
        <ele>673.06</ele>
        <time>2016-04-10T14:59:34Z</time>
      </trkpt>
      <trkpt lat="44.15235" lon="3.75754">
        <ele>666.33</ele>
        <time>2016-04-10T14:59:39Z</time>
      </trkpt>
      <trkpt lat="44.15232" lon="3.75792">
        <ele>665.37</ele>
        <time>2016-04-10T14:59:40Z</time>
      </trkpt>
      <trkpt lat="44.15216" lon="3.76042">
        <ele>653.83</ele>
        <time>2016-04-10T14:59:47Z</time>
      </trkpt>
      <trkpt lat="44.15218" lon="3.76076">
        <ele>651.91</ele>
        <time>2016-04-10T14:59:48Z</time>
      </trkpt>
      <trkpt lat="44.15216" lon="3.76109">
        <ele>650.47</ele>
        <time>2016-04-10T14:59:49Z</time>
      </trkpt>
      <trkpt lat="44.15211" lon="3.76143">
        <ele>649.03</ele>
        <time>2016-04-10T14:59:50Z</time>
      </trkpt>
      <trkpt lat="44.15203" lon="3.76175">
        <ele>647.59</ele>
        <time>2016-04-10T14:59:51Z</time>
      </trkpt>
      <trkpt lat="44.15193" lon="3.76206">
        <ele>646.14</ele>
        <time>2016-04-10T14:59:52Z</time>
      </trkpt>
      <trkpt lat="44.1518" lon="3.76234">
        <ele>644.22</ele>
        <time>2016-04-10T14:59:53Z</time>
      </trkpt>
      <trkpt lat="44.15163" lon="3.7626">
        <ele>642.78</ele>
        <time>2016-04-10T14:59:54Z</time>
      </trkpt>
      <trkpt lat="44.15144" lon="3.76283">
        <ele>641.34</ele>
        <time>2016-04-10T14:59:55Z</time>
      </trkpt>
      <trkpt lat="44.15125" lon="3.76307">
        <ele>640.38</ele>
        <time>2016-04-10T14:59:56Z</time>
      </trkpt>
      <trkpt lat="44.15059" lon="3.7643">
        <ele>633.17</ele>
        <time>2016-04-10T15:00:01Z</time>
      </trkpt>
      <trkpt lat="44.15058" lon="3.76458">
        <ele>630.28</ele>
        <time>2016-04-10T15:00:02Z</time>
      </trkpt>
      <trkpt lat="44.15062" lon="3.76486">
        <ele>628.84</ele>
        <time>2016-04-10T15:00:03Z</time>
      </trkpt>
      <trkpt lat="44.15064" lon="3.76515">
        <ele>629.32</ele>
        <time>2016-04-10T15:00:04Z</time>
      </trkpt>
      <trkpt lat="44.15064" lon="3.76544">
        <ele>628.36</ele>
        <time>2016-04-10T15:00:05Z</time>
      </trkpt>
      <trkpt lat="44.15059" lon="3.76574">
        <ele>626.92</ele>
        <time>2016-04-10T15:00:06Z</time>
      </trkpt>
      <trkpt lat="44.1505" lon="3.76604">
        <ele>625.47</ele>
        <time>2016-04-10T15:00:07Z</time>
      </trkpt>
      <trkpt lat="44.15038" lon="3.76632">
        <ele>624.51</ele>
        <time>2016-04-10T15:00:08Z</time>
      </trkpt>
      <trkpt lat="44.15022" lon="3.76658">
        <ele>625.47</ele>
        <time>2016-04-10T15:00:09Z</time>
      </trkpt>
      <trkpt lat="44.15008" lon="3.76683">
        <ele>625.47</ele>
        <time>2016-04-10T15:00:10Z</time>
      </trkpt>
      <trkpt lat="44.14984" lon="3.76733">
        <ele>626.44</ele>
        <time>2016-04-10T15:00:12Z</time>
      </trkpt>
      <trkpt lat="44.14977" lon="3.76758">
        <ele>626.92</ele>
        <time>2016-04-10T15:00:13Z</time>
      </trkpt>
      <trkpt lat="44.14972" lon="3.76786">
        <ele>626.92</ele>
        <time>2016-04-10T15:00:14Z</time>
      </trkpt>
      <trkpt lat="44.14971" lon="3.76815">
        <ele>626.44</ele>
        <time>2016-04-10T15:00:15Z</time>
      </trkpt>
      <trkpt lat="44.14975" lon="3.76845">
        <ele>625.96</ele>
        <time>2016-04-10T15:00:16Z</time>
      </trkpt>
      <trkpt lat="44.14981" lon="3.76874">
        <ele>625.96</ele>
        <time>2016-04-10T15:00:17Z</time>
      </trkpt>
      <trkpt lat="44.14985" lon="3.76902">
        <ele>626.44</ele>
        <time>2016-04-10T15:00:18Z</time>
      </trkpt>
      <trkpt lat="44.14985" lon="3.7693">
        <ele>625.96</ele>
        <time>2016-04-10T15:00:19Z</time>
      </trkpt>
      <trkpt lat="44.14983" lon="3.76959">
        <ele>625.96</ele>
        <time>2016-04-10T15:00:20Z</time>
      </trkpt>
      <trkpt lat="44.14975" lon="3.76986">
        <ele>625.96</ele>
        <time>2016-04-10T15:00:21Z</time>
      </trkpt>
      <trkpt lat="44.14965" lon="3.77011">
        <ele>625.96</ele>
        <time>2016-04-10T15:00:22Z</time>
      </trkpt>
      <trkpt lat="44.14952" lon="3.77034">
        <ele>626.44</ele>
        <time>2016-04-10T15:00:23Z</time>
      </trkpt>
      <trkpt lat="44.14936" lon="3.77054">
        <ele>626.44</ele>
        <time>2016-04-10T15:00:24Z</time>
      </trkpt>
      <trkpt lat="44.14914" lon="3.77068">
        <ele>626.92</ele>
        <time>2016-04-10T15:00:25Z</time>
      </trkpt>
      <trkpt lat="44.14895" lon="3.77082">
        <ele>627.4</ele>
        <time>2016-04-10T15:00:26Z</time>
      </trkpt>
      <trkpt lat="44.14878" lon="3.77095">
        <ele>627.4</ele>
        <time>2016-04-10T15:00:27Z</time>
      </trkpt>
      <trkpt lat="44.14863" lon="3.77109">
        <ele>626.92</ele>
        <time>2016-04-10T15:00:28Z</time>
      </trkpt>
      <trkpt lat="44.1485" lon="3.77125">
        <ele>626.44</ele>
        <time>2016-04-10T15:00:29Z</time>
      </trkpt>
      <trkpt lat="44.1484" lon="3.77146">
        <ele>625.47</ele>
        <time>2016-04-10T15:00:30Z</time>
      </trkpt>
      <trkpt lat="44.14831" lon="3.77171">
        <ele>624.51</ele>
        <time>2016-04-10T15:00:31Z</time>
      </trkpt>
      <trkpt lat="44.14824" lon="3.77199">
        <ele>623.07</ele>
        <time>2016-04-10T15:00:32Z</time>
      </trkpt>
      <trkpt lat="44.14817" lon="3.77228">
        <ele>622.11</ele>
        <time>2016-04-10T15:00:33Z</time>
      </trkpt>
      <trkpt lat="44.14778" lon="3.77392">
        <ele>621.15</ele>
        <time>2016-04-10T15:00:39Z</time>
      </trkpt>
      <trkpt lat="44.1478" lon="3.77421">
        <ele>621.15</ele>
        <time>2016-04-10T15:00:40Z</time>
      </trkpt>
      <trkpt lat="44.14787" lon="3.7745">
        <ele>621.63</ele>
        <time>2016-04-10T15:00:41Z</time>
      </trkpt>
      <trkpt lat="44.14794" lon="3.77478">
        <ele>623.07</ele>
        <time>2016-04-10T15:00:42Z</time>
      </trkpt>
      <trkpt lat="44.148" lon="3.77506">
        <ele>624.03</ele>
        <time>2016-04-10T15:00:43Z</time>
      </trkpt>
      <trkpt lat="44.14804" lon="3.77535">
        <ele>624.99</ele>
        <time>2016-04-10T15:00:44Z</time>
      </trkpt>
      <trkpt lat="44.14803" lon="3.77565">
        <ele>626.44</ele>
        <time>2016-04-10T15:00:45Z</time>
      </trkpt>
      <trkpt lat="44.148" lon="3.77595">
        <ele>627.88</ele>
        <time>2016-04-10T15:00:46Z</time>
      </trkpt>
      <trkpt lat="44.14767" lon="3.7773">
        <ele>642.78</ele>
        <time>2016-04-10T15:00:51Z</time>
      </trkpt>
      <trkpt lat="44.14758" lon="3.77755">
        <ele>645.18</ele>
        <time>2016-04-10T15:00:52Z</time>
      </trkpt>
      <trkpt lat="44.14739" lon="3.77793">
        <ele>649.51</ele>
        <time>2016-04-10T15:00:54Z</time>
      </trkpt>
      <trkpt lat="44.1473" lon="3.77804">
        <ele>651.91</ele>
        <time>2016-04-10T15:00:55Z</time>
      </trkpt>
      <trkpt lat="44.14722" lon="3.7781">
        <ele>653.35</ele>
        <time>2016-04-10T15:00:56Z</time>
      </trkpt>
      <trkpt lat="44.14715" lon="3.77808">
        <ele>655.76</ele>
        <time>2016-04-10T15:00:57Z</time>
      </trkpt>
      <trkpt lat="44.1471" lon="3.77799">
        <ele>657.2</ele>
        <time>2016-04-10T15:00:58Z</time>
      </trkpt>
      <trkpt lat="44.14706" lon="3.77778">
        <ele>658.64</ele>
        <time>2016-04-10T15:00:59Z</time>
      </trkpt>
      <trkpt lat="44.14708" lon="3.77757">
        <ele>660.08</ele>
        <time>2016-04-10T15:01:00Z</time>
      </trkpt>
      <trkpt lat="44.14713" lon="3.77736">
        <ele>660.56</ele>
        <time>2016-04-10T15:01:01Z</time>
      </trkpt>
      <trkpt lat="44.1472" lon="3.77715">
        <ele>661.04</ele>
        <time>2016-04-10T15:01:02Z</time>
      </trkpt>
      <trkpt lat="44.14725" lon="3.77692">
        <ele>662.01</ele>
        <time>2016-04-10T15:01:03Z</time>
      </trkpt>
      <trkpt lat="44.14728" lon="3.77668">
        <ele>662.97</ele>
        <time>2016-04-10T15:01:04Z</time>
      </trkpt>
      <trkpt lat="44.14729" lon="3.77644">
        <ele>663.45</ele>
        <time>2016-04-10T15:01:05Z</time>
      </trkpt>
      <trkpt lat="44.14725" lon="3.77621">
        <ele>663.93</ele>
        <time>2016-04-10T15:01:06Z</time>
      </trkpt>
      <trkpt lat="44.14705" lon="3.77598">
        <ele>663.45</ele>
        <time>2016-04-10T15:01:07Z</time>
      </trkpt>
      <trkpt lat="44.14688" lon="3.7758">
        <ele>664.41</ele>
        <time>2016-04-10T15:01:08Z</time>
      </trkpt>
      <trkpt lat="44.1467" lon="3.77569">
        <ele>666.81</ele>
        <time>2016-04-10T15:01:09Z</time>
      </trkpt>
      <trkpt lat="44.1465" lon="3.77561">
        <ele>668.25</ele>
        <time>2016-04-10T15:01:10Z</time>
      </trkpt>
      <trkpt lat="44.14631" lon="3.77559">
        <ele>669.7</ele>
        <time>2016-04-10T15:01:11Z</time>
      </trkpt>
      <trkpt lat="44.1461" lon="3.77564">
        <ele>671.14</ele>
        <time>2016-04-10T15:01:12Z</time>
      </trkpt>
      <trkpt lat="44.14587" lon="3.77577">
        <ele>673.54</ele>
        <time>2016-04-10T15:01:13Z</time>
      </trkpt>
      <trkpt lat="44.14565" lon="3.7759">
        <ele>675.94</ele>
        <time>2016-04-10T15:01:14Z</time>
      </trkpt>
      <trkpt lat="44.14542" lon="3.77605">
        <ele>677.87</ele>
        <time>2016-04-10T15:01:15Z</time>
      </trkpt>
      <trkpt lat="44.14334" lon="3.7774">
        <ele>695.65</ele>
        <time>2016-04-10T15:01:25Z</time>
      </trkpt>
      <trkpt lat="44.1428" lon="3.7779">
        <ele>700.46</ele>
        <time>2016-04-10T15:01:28Z</time>
      </trkpt>
      <trkpt lat="44.14263" lon="3.77813">
        <ele>701.42</ele>
        <time>2016-04-10T15:01:29Z</time>
      </trkpt>
      <trkpt lat="44.14128" lon="3.77999">
        <ele>705.75</ele>
        <time>2016-04-10T15:01:37Z</time>
      </trkpt>
      <trkpt lat="44.14107" lon="3.78015">
        <ele>706.23</ele>
        <time>2016-04-10T15:01:38Z</time>
      </trkpt>
      <trkpt lat="44.14082" lon="3.78026">
        <ele>705.75</ele>
        <time>2016-04-10T15:01:39Z</time>
      </trkpt>
      <trkpt lat="44.13974" lon="3.7808">
        <ele>705.26</ele>
        <time>2016-04-10T15:01:44Z</time>
      </trkpt>
      <trkpt lat="44.13829" lon="3.78213">
        <ele>694.69</ele>
        <time>2016-04-10T15:01:52Z</time>
      </trkpt>
      <trkpt lat="44.13781" lon="3.78266">
        <ele>685.56</ele>
        <time>2016-04-10T15:01:56Z</time>
      </trkpt>
      <trkpt lat="44.13768" lon="3.78268">
        <ele>683.15</ele>
        <time>2016-04-10T15:01:57Z</time>
      </trkpt>
      <trkpt lat="44.13757" lon="3.7826">
        <ele>681.23</ele>
        <time>2016-04-10T15:01:58Z</time>
      </trkpt>
      <trkpt lat="44.13744" lon="3.78249">
        <ele>679.79</ele>
        <time>2016-04-10T15:01:59Z</time>
      </trkpt>
      <trkpt lat="44.13733" lon="3.78239">
        <ele>678.83</ele>
        <time>2016-04-10T15:02:00Z</time>
      </trkpt>
      <trkpt lat="44.1372" lon="3.78233">
        <ele>676.42</ele>
        <time>2016-04-10T15:02:01Z</time>
      </trkpt>
      <trkpt lat="44.13707" lon="3.78235">
        <ele>674.02</ele>
        <time>2016-04-10T15:02:02Z</time>
      </trkpt>
      <trkpt lat="44.13693" lon="3.78246">
        <ele>671.62</ele>
        <time>2016-04-10T15:02:03Z</time>
      </trkpt>
      <trkpt lat="44.13679" lon="3.7826">
        <ele>669.22</ele>
        <time>2016-04-10T15:02:04Z</time>
      </trkpt>
      <trkpt lat="44.13663" lon="3.78277">
        <ele>667.29</ele>
        <time>2016-04-10T15:02:05Z</time>
      </trkpt>
      <trkpt lat="44.13646" lon="3.78293">
        <ele>665.37</ele>
        <time>2016-04-10T15:02:06Z</time>
      </trkpt>
      <trkpt lat="44.13627" lon="3.78304">
        <ele>664.41</ele>
        <time>2016-04-10T15:02:07Z</time>
      </trkpt>
      <trkpt lat="44.13609" lon="3.78314">
        <ele>662.97</ele>
        <time>2016-04-10T15:02:08Z</time>
      </trkpt>
      <trkpt lat="44.13594" lon="3.78328">
        <ele>661.04</ele>
        <time>2016-04-10T15:02:09Z</time>
      </trkpt>
      <trkpt lat="44.13582" lon="3.78346">
        <ele>659.12</ele>
        <time>2016-04-10T15:02:10Z</time>
      </trkpt>
      <trkpt lat="44.13575" lon="3.78369">
        <ele>657.68</ele>
        <time>2016-04-10T15:02:11Z</time>
      </trkpt>
      <trkpt lat="44.13574" lon="3.78401">
        <ele>655.76</ele>
        <time>2016-04-10T15:02:12Z</time>
      </trkpt>
      <trkpt lat="44.13571" lon="3.7843">
        <ele>654.8</ele>
        <time>2016-04-10T15:02:13Z</time>
      </trkpt>
      <trkpt lat="44.1357" lon="3.78462">
        <ele>654.31</ele>
        <time>2016-04-10T15:02:14Z</time>
      </trkpt>
      <trkpt lat="44.13569" lon="3.78496">
        <ele>652.39</ele>
        <time>2016-04-10T15:02:15Z</time>
      </trkpt>
      <trkpt lat="44.13545" lon="3.7859">
        <ele>648.07</ele>
        <time>2016-04-10T15:02:18Z</time>
      </trkpt>
      <trkpt lat="44.1353" lon="3.78619">
        <ele>646.62</ele>
        <time>2016-04-10T15:02:19Z</time>
      </trkpt>
      <trkpt lat="44.13513" lon="3.78646">
        <ele>646.14</ele>
        <time>2016-04-10T15:02:20Z</time>
      </trkpt>
      <trkpt lat="44.13495" lon="3.78674">
        <ele>644.7</ele>
        <time>2016-04-10T15:02:21Z</time>
      </trkpt>
      <trkpt lat="44.13476" lon="3.78702">
        <ele>644.22</ele>
        <time>2016-04-10T15:02:22Z</time>
      </trkpt>
      <trkpt lat="44.1332" lon="3.78913">
        <ele>642.3</ele>
        <time>2016-04-10T15:02:31Z</time>
      </trkpt>
      <trkpt lat="44.13272" lon="3.78963">
        <ele>640.86</ele>
        <time>2016-04-10T15:02:34Z</time>
      </trkpt>
      <trkpt lat="44.13259" lon="3.78989">
        <ele>639.89</ele>
        <time>2016-04-10T15:02:35Z</time>
      </trkpt>
      <trkpt lat="44.13251" lon="3.79024">
        <ele>638.93</ele>
        <time>2016-04-10T15:02:36Z</time>
      </trkpt>
      <trkpt lat="44.13244" lon="3.79057">
        <ele>638.45</ele>
        <time>2016-04-10T15:02:37Z</time>
      </trkpt>
      <trkpt lat="44.13239" lon="3.79094">
        <ele>638.45</ele>
        <time>2016-04-10T15:02:38Z</time>
      </trkpt>
      <trkpt lat="44.13236" lon="3.79133">
        <ele>637.97</ele>
        <time>2016-04-10T15:02:39Z</time>
      </trkpt>
      <trkpt lat="44.13232" lon="3.79171">
        <ele>637.49</ele>
        <time>2016-04-10T15:02:40Z</time>
      </trkpt>
      <trkpt lat="44.13216" lon="3.7937">
        <ele>637.97</ele>
        <time>2016-04-10T15:02:46Z</time>
      </trkpt>
      <trkpt lat="44.13208" lon="3.79422">
        <ele>637.97</ele>
        <time>2016-04-10T15:02:48Z</time>
      </trkpt>
      <trkpt lat="44.13201" lon="3.79445">
        <ele>637.97</ele>
        <time>2016-04-10T15:02:49Z</time>
      </trkpt>
      <trkpt lat="44.13188" lon="3.79463">
        <ele>638.93</ele>
        <time>2016-04-10T15:02:50Z</time>
      </trkpt>
      <trkpt lat="44.13171" lon="3.79477">
        <ele>639.41</ele>
        <time>2016-04-10T15:02:51Z</time>
      </trkpt>
      <trkpt lat="44.13153" lon="3.79493">
        <ele>639.89</ele>
        <time>2016-04-10T15:02:52Z</time>
      </trkpt>
      <trkpt lat="44.13133" lon="3.79508">
        <ele>640.38</ele>
        <time>2016-04-10T15:02:53Z</time>
      </trkpt>
      <trkpt lat="44.13114" lon="3.79527">
        <ele>640.38</ele>
        <time>2016-04-10T15:02:54Z</time>
      </trkpt>
      <trkpt lat="44.13096" lon="3.79551">
        <ele>639.89</ele>
        <time>2016-04-10T15:02:55Z</time>
      </trkpt>
      <trkpt lat="44.13081" lon="3.7958">
        <ele>639.89</ele>
        <time>2016-04-10T15:02:56Z</time>
      </trkpt>
      <trkpt lat="44.13069" lon="3.79611">
        <ele>639.89</ele>
        <time>2016-04-10T15:02:57Z</time>
      </trkpt>
      <trkpt lat="44.13021" lon="3.79729">
        <ele>641.34</ele>
        <time>2016-04-10T15:03:01Z</time>
      </trkpt>
      <trkpt lat="44.13012" lon="3.7976">
        <ele>641.82</ele>
        <time>2016-04-10T15:03:02Z</time>
      </trkpt>
      <trkpt lat="44.12953" lon="3.79966">
        <ele>640.38</ele>
        <time>2016-04-10T15:03:08Z</time>
      </trkpt>
      <trkpt lat="44.129" lon="3.80156">
        <ele>637.97</ele>
        <time>2016-04-10T15:03:14Z</time>
      </trkpt>
      <trkpt lat="44.12898" lon="3.80191">
        <ele>637.49</ele>
        <time>2016-04-10T15:03:15Z</time>
      </trkpt>
      <trkpt lat="44.12899" lon="3.80226">
        <ele>636.53</ele>
        <time>2016-04-10T15:03:16Z</time>
      </trkpt>
      <trkpt lat="44.12904" lon="3.80261">
        <ele>635.57</ele>
        <time>2016-04-10T15:03:17Z</time>
      </trkpt>
      <trkpt lat="44.12911" lon="3.80295">
        <ele>635.09</ele>
        <time>2016-04-10T15:03:18Z</time>
      </trkpt>
      <trkpt lat="44.12919" lon="3.80327">
        <ele>635.09</ele>
        <time>2016-04-10T15:03:19Z</time>
      </trkpt>
      <trkpt lat="44.12966" lon="3.80552">
        <ele>638.45</ele>
        <time>2016-04-10T15:03:26Z</time>
      </trkpt>
      <trkpt lat="44.12986" lon="3.80637">
        <ele>639.89</ele>
        <time>2016-04-10T15:03:29Z</time>
      </trkpt>
      <trkpt lat="44.12995" lon="3.80664">
        <ele>640.38</ele>
        <time>2016-04-10T15:03:30Z</time>
      </trkpt>
      <trkpt lat="44.13007" lon="3.80688">
        <ele>640.86</ele>
        <time>2016-04-10T15:03:31Z</time>
      </trkpt>
      <trkpt lat="44.13023" lon="3.80712">
        <ele>641.34</ele>
        <time>2016-04-10T15:03:32Z</time>
      </trkpt>
      <trkpt lat="44.13039" lon="3.80735">
        <ele>641.82</ele>
        <time>2016-04-10T15:03:33Z</time>
      </trkpt>
      <trkpt lat="44.13067" lon="3.80784">
        <ele>642.3</ele>
        <time>2016-04-10T15:03:35Z</time>
      </trkpt>
      <trkpt lat="44.13077" lon="3.80812">
        <ele>642.78</ele>
        <time>2016-04-10T15:03:36Z</time>
      </trkpt>
      <trkpt lat="44.13085" lon="3.80843">
        <ele>642.78</ele>
        <time>2016-04-10T15:03:37Z</time>
      </trkpt>
      <trkpt lat="44.1309" lon="3.80875">
        <ele>642.78</ele>
        <time>2016-04-10T15:03:38Z</time>
      </trkpt>
      <trkpt lat="44.13092" lon="3.80907">
        <ele>643.26</ele>
        <time>2016-04-10T15:03:39Z</time>
      </trkpt>
      <trkpt lat="44.13091" lon="3.80938">
        <ele>642.78</ele>
        <time>2016-04-10T15:03:40Z</time>
      </trkpt>
      <trkpt lat="44.13086" lon="3.8097">
        <ele>642.78</ele>
        <time>2016-04-10T15:03:41Z</time>
      </trkpt>
      <trkpt lat="44.13076" lon="3.81001">
        <ele>642.78</ele>
        <time>2016-04-10T15:03:42Z</time>
      </trkpt>
      <trkpt lat="44.13065" lon="3.81029">
        <ele>642.78</ele>
        <time>2016-04-10T15:03:43Z</time>
      </trkpt>
      <trkpt lat="44.13057" lon="3.81057">
        <ele>642.78</ele>
        <time>2016-04-10T15:03:44Z</time>
      </trkpt>
      <trkpt lat="44.13045" lon="3.81127">
        <ele>641.34</ele>
        <time>2016-04-10T15:03:47Z</time>
      </trkpt>
      <trkpt lat="44.13046" lon="3.81149">
        <ele>640.38</ele>
        <time>2016-04-10T15:03:48Z</time>
      </trkpt>
      <trkpt lat="44.13051" lon="3.81173">
        <ele>638.45</ele>
        <time>2016-04-10T15:03:49Z</time>
      </trkpt>
      <trkpt lat="44.13079" lon="3.81188">
        <ele>637.97</ele>
        <time>2016-04-10T15:03:50Z</time>
      </trkpt>
      <trkpt lat="44.13095" lon="3.81213">
        <ele>636.53</ele>
        <time>2016-04-10T15:03:51Z</time>
      </trkpt>
      <trkpt lat="44.13108" lon="3.81244">
        <ele>635.09</ele>
        <time>2016-04-10T15:03:52Z</time>
      </trkpt>
      <trkpt lat="44.1312" lon="3.81278">
        <ele>634.13</ele>
        <time>2016-04-10T15:03:53Z</time>
      </trkpt>
      <trkpt lat="44.13148" lon="3.81335">
        <ele>632.68</ele>
        <time>2016-04-10T15:03:55Z</time>
      </trkpt>
      <trkpt lat="44.13166" lon="3.81358">
        <ele>632.2</ele>
        <time>2016-04-10T15:03:56Z</time>
      </trkpt>
      <trkpt lat="44.13184" lon="3.81378">
        <ele>631.24</ele>
        <time>2016-04-10T15:03:57Z</time>
      </trkpt>
      <trkpt lat="44.1322" lon="3.8142">
        <ele>631.72</ele>
        <time>2016-04-10T15:03:59Z</time>
      </trkpt>
      <trkpt lat="44.13234" lon="3.81448">
        <ele>632.2</ele>
        <time>2016-04-10T15:04:00Z</time>
      </trkpt>
      <trkpt lat="44.13245" lon="3.81479">
        <ele>632.68</ele>
        <time>2016-04-10T15:04:01Z</time>
      </trkpt>
      <trkpt lat="44.13255" lon="3.81513">
        <ele>633.17</ele>
        <time>2016-04-10T15:04:02Z</time>
      </trkpt>
      <trkpt lat="44.13263" lon="3.81548">
        <ele>633.17</ele>
        <time>2016-04-10T15:04:03Z</time>
      </trkpt>
      <trkpt lat="44.1334" lon="3.81837">
        <ele>631.24</ele>
        <time>2016-04-10T15:04:11Z</time>
      </trkpt>
      <trkpt lat="44.13387" lon="3.81924">
        <ele>630.28</ele>
        <time>2016-04-10T15:04:14Z</time>
      </trkpt>
      <trkpt lat="44.13408" lon="3.8195">
        <ele>629.8</ele>
        <time>2016-04-10T15:04:15Z</time>
      </trkpt>
      <trkpt lat="44.1343" lon="3.81975">
        <ele>629.8</ele>
        <time>2016-04-10T15:04:16Z</time>
      </trkpt>
      <trkpt lat="44.13591" lon="3.8214">
        <ele>623.07</ele>
        <time>2016-04-10T15:04:24Z</time>
      </trkpt>
      <trkpt lat="44.1366" lon="3.82168">
        <ele>620.19</ele>
        <time>2016-04-10T15:04:27Z</time>
      </trkpt>
      <trkpt lat="44.13686" lon="3.82172">
        <ele>619.23</ele>
        <time>2016-04-10T15:04:28Z</time>
      </trkpt>
      <trkpt lat="44.13792" lon="3.82206">
        <ele>613.94</ele>
        <time>2016-04-10T15:04:33Z</time>
      </trkpt>
      <trkpt lat="44.13803" lon="3.82224">
        <ele>613.46</ele>
        <time>2016-04-10T15:04:34Z</time>
      </trkpt>
      <trkpt lat="44.13809" lon="3.82251">
        <ele>612.5</ele>
        <time>2016-04-10T15:04:35Z</time>
      </trkpt>
      <trkpt lat="44.13803" lon="3.82278">
        <ele>609.13</ele>
        <time>2016-04-10T15:04:36Z</time>
      </trkpt>
      <trkpt lat="44.13798" lon="3.82306">
        <ele>607.69</ele>
        <time>2016-04-10T15:04:37Z</time>
      </trkpt>
      <trkpt lat="44.13791" lon="3.82336">
        <ele>606.73</ele>
        <time>2016-04-10T15:04:38Z</time>
      </trkpt>
      <trkpt lat="44.13779" lon="3.82364">
        <ele>606.25</ele>
        <time>2016-04-10T15:04:39Z</time>
      </trkpt>
      <trkpt lat="44.13769" lon="3.82396">
        <ele>604.81</ele>
        <time>2016-04-10T15:04:40Z</time>
      </trkpt>
      <trkpt lat="44.13716" lon="3.82644">
        <ele>595.19</ele>
        <time>2016-04-10T15:04:48Z</time>
      </trkpt>
      <trkpt lat="44.13721" lon="3.82674">
        <ele>592.79</ele>
        <time>2016-04-10T15:04:49Z</time>
      </trkpt>
      <trkpt lat="44.13738" lon="3.82708">
        <ele>592.79</ele>
        <time>2016-04-10T15:04:50Z</time>
      </trkpt>
      <trkpt lat="44.13747" lon="3.82742">
        <ele>591.35</ele>
        <time>2016-04-10T15:04:51Z</time>
      </trkpt>
      <trkpt lat="44.13756" lon="3.82778">
        <ele>589.43</ele>
        <time>2016-04-10T15:04:52Z</time>
      </trkpt>
      <trkpt lat="44.13766" lon="3.82814">
        <ele>588.46</ele>
        <time>2016-04-10T15:04:53Z</time>
      </trkpt>
      <trkpt lat="44.13849" lon="3.83042">
        <ele>581.73</ele>
        <time>2016-04-10T15:05:00Z</time>
      </trkpt>
      <trkpt lat="44.13854" lon="3.83072">
        <ele>580.77</ele>
        <time>2016-04-10T15:05:01Z</time>
      </trkpt>
      <trkpt lat="44.13856" lon="3.83102">
        <ele>580.29</ele>
        <time>2016-04-10T15:05:02Z</time>
      </trkpt>
      <trkpt lat="44.13854" lon="3.8313">
        <ele>579.81</ele>
        <time>2016-04-10T15:05:03Z</time>
      </trkpt>
      <trkpt lat="44.13875" lon="3.83182">
        <ele>577.89</ele>
        <time>2016-04-10T15:05:06Z</time>
      </trkpt>
      <trkpt lat="44.13889" lon="3.83198">
        <ele>577.41</ele>
        <time>2016-04-10T15:05:07Z</time>
      </trkpt>
      <trkpt lat="44.13907" lon="3.83213">
        <ele>577.41</ele>
        <time>2016-04-10T15:05:08Z</time>
      </trkpt>
      <trkpt lat="44.13927" lon="3.83228">
        <ele>578.37</ele>
        <time>2016-04-10T15:05:09Z</time>
      </trkpt>
      <trkpt lat="44.13946" lon="3.83242">
        <ele>579.33</ele>
        <time>2016-04-10T15:05:10Z</time>
      </trkpt>
      <trkpt lat="44.13986" lon="3.83301">
        <ele>580.29</ele>
        <time>2016-04-10T15:05:13Z</time>
      </trkpt>
      <trkpt lat="44.13988" lon="3.83324">
        <ele>580.77</ele>
        <time>2016-04-10T15:05:14Z</time>
      </trkpt>
      <trkpt lat="44.13977" lon="3.8334">
        <ele>583.18</ele>
        <time>2016-04-10T15:05:15Z</time>
      </trkpt>
      <trkpt lat="44.13965" lon="3.83355">
        <ele>584.14</ele>
        <time>2016-04-10T15:05:16Z</time>
      </trkpt>
      <trkpt lat="44.13948" lon="3.83364">
        <ele>585.1</ele>
        <time>2016-04-10T15:05:17Z</time>
      </trkpt>
      <trkpt lat="44.13931" lon="3.83375">
        <ele>585.58</ele>
        <time>2016-04-10T15:05:18Z</time>
      </trkpt>
      <trkpt lat="44.1391" lon="3.83384">
        <ele>585.58</ele>
        <time>2016-04-10T15:05:19Z</time>
      </trkpt>
      <trkpt lat="44.13886" lon="3.83396">
        <ele>586.06</ele>
        <time>2016-04-10T15:05:20Z</time>
      </trkpt>
      <trkpt lat="44.13863" lon="3.83408">
        <ele>585.58</ele>
        <time>2016-04-10T15:05:21Z</time>
      </trkpt>
      <trkpt lat="44.13838" lon="3.83417">
        <ele>585.58</ele>
        <time>2016-04-10T15:05:22Z</time>
      </trkpt>
      <trkpt lat="44.13816" lon="3.83419">
        <ele>585.58</ele>
        <time>2016-04-10T15:05:23Z</time>
      </trkpt>
      <trkpt lat="44.13792" lon="3.83411">
        <ele>585.1</ele>
        <time>2016-04-10T15:05:24Z</time>
      </trkpt>
      <trkpt lat="44.13773" lon="3.83404">
        <ele>584.62</ele>
        <time>2016-04-10T15:05:25Z</time>
      </trkpt>
      <trkpt lat="44.13756" lon="3.83398">
        <ele>584.62</ele>
        <time>2016-04-10T15:05:26Z</time>
      </trkpt>
      <trkpt lat="44.13723" lon="3.8341">
        <ele>583.18</ele>
        <time>2016-04-10T15:05:28Z</time>
      </trkpt>
      <trkpt lat="44.13707" lon="3.83428">
        <ele>582.7</ele>
        <time>2016-04-10T15:05:29Z</time>
      </trkpt>
      <trkpt lat="44.13689" lon="3.83446">
        <ele>582.22</ele>
        <time>2016-04-10T15:05:30Z</time>
      </trkpt>
      <trkpt lat="44.13669" lon="3.8347">
        <ele>582.7</ele>
        <time>2016-04-10T15:05:31Z</time>
      </trkpt>
      <trkpt lat="44.13649" lon="3.83493">
        <ele>583.66</ele>
        <time>2016-04-10T15:05:32Z</time>
      </trkpt>
      <trkpt lat="44.13584" lon="3.83611">
        <ele>586.54</ele>
        <time>2016-04-10T15:05:36Z</time>
      </trkpt>
      <trkpt lat="44.13574" lon="3.83646">
        <ele>587.5</ele>
        <time>2016-04-10T15:05:37Z</time>
      </trkpt>
      <trkpt lat="44.13567" lon="3.83678">
        <ele>588.95</ele>
        <time>2016-04-10T15:05:38Z</time>
      </trkpt>
      <trkpt lat="44.13561" lon="3.8371">
        <ele>590.87</ele>
        <time>2016-04-10T15:05:39Z</time>
      </trkpt>
      <trkpt lat="44.13557" lon="3.83742">
        <ele>592.31</ele>
        <time>2016-04-10T15:05:40Z</time>
      </trkpt>
      <trkpt lat="44.13541" lon="3.83802">
        <ele>595.19</ele>
        <time>2016-04-10T15:05:42Z</time>
      </trkpt>
      <trkpt lat="44.1353" lon="3.83826">
        <ele>596.15</ele>
        <time>2016-04-10T15:05:43Z</time>
      </trkpt>
      <trkpt lat="44.13519" lon="3.83849">
        <ele>597.6</ele>
        <time>2016-04-10T15:05:44Z</time>
      </trkpt>
      <trkpt lat="44.13509" lon="3.83868">
        <ele>598.56</ele>
        <time>2016-04-10T15:05:45Z</time>
      </trkpt>
      <trkpt lat="44.13503" lon="3.83887">
        <ele>599.52</ele>
        <time>2016-04-10T15:05:46Z</time>
      </trkpt>
      <trkpt lat="44.13498" lon="3.83905">
        <ele>600.48</ele>
        <time>2016-04-10T15:05:47Z</time>
      </trkpt>
      <trkpt lat="44.13495" lon="3.83923">
        <ele>600.48</ele>
        <time>2016-04-10T15:05:48Z</time>
      </trkpt>
      <trkpt lat="44.13495" lon="3.83942">
        <ele>600.48</ele>
        <time>2016-04-10T15:05:49Z</time>
      </trkpt>
      <trkpt lat="44.13495" lon="3.8396">
        <ele>600</ele>
        <time>2016-04-10T15:05:50Z</time>
      </trkpt>
      <trkpt lat="44.13495" lon="3.83978">
        <ele>599.04</ele>
        <time>2016-04-10T15:05:51Z</time>
      </trkpt>
      <trkpt lat="44.13492" lon="3.8413">
        <ele>593.27</ele>
        <time>2016-04-10T15:05:58Z</time>
      </trkpt>
      <trkpt lat="44.13497" lon="3.84156">
        <ele>592.31</ele>
        <time>2016-04-10T15:05:59Z</time>
      </trkpt>
      <trkpt lat="44.13504" lon="3.84181">
        <ele>591.83</ele>
        <time>2016-04-10T15:06:00Z</time>
      </trkpt>
      <trkpt lat="44.13508" lon="3.84205">
        <ele>590.39</ele>
        <time>2016-04-10T15:06:01Z</time>
      </trkpt>
      <trkpt lat="44.1351" lon="3.8423">
        <ele>589.43</ele>
        <time>2016-04-10T15:06:02Z</time>
      </trkpt>
      <trkpt lat="44.13508" lon="3.84256">
        <ele>587.98</ele>
        <time>2016-04-10T15:06:03Z</time>
      </trkpt>
      <trkpt lat="44.135" lon="3.8428">
        <ele>587.02</ele>
        <time>2016-04-10T15:06:04Z</time>
      </trkpt>
      <trkpt lat="44.13491" lon="3.84303">
        <ele>586.06</ele>
        <time>2016-04-10T15:06:05Z</time>
      </trkpt>
      <trkpt lat="44.13476" lon="3.84322">
        <ele>584.62</ele>
        <time>2016-04-10T15:06:06Z</time>
      </trkpt>
      <trkpt lat="44.13461" lon="3.8434">
        <ele>583.18</ele>
        <time>2016-04-10T15:06:07Z</time>
      </trkpt>
      <trkpt lat="44.13446" lon="3.84356">
        <ele>581.73</ele>
        <time>2016-04-10T15:06:08Z</time>
      </trkpt>
      <trkpt lat="44.13432" lon="3.84373">
        <ele>580.29</ele>
        <time>2016-04-10T15:06:09Z</time>
      </trkpt>
      <trkpt lat="44.13413" lon="3.84403">
        <ele>577.89</ele>
        <time>2016-04-10T15:06:11Z</time>
      </trkpt>
      <trkpt lat="44.1341" lon="3.84418">
        <ele>575.49</ele>
        <time>2016-04-10T15:06:12Z</time>
      </trkpt>
      <trkpt lat="44.13414" lon="3.84431">
        <ele>573.08</ele>
        <time>2016-04-10T15:06:13Z</time>
      </trkpt>
      <trkpt lat="44.13423" lon="3.84443">
        <ele>571.16</ele>
        <time>2016-04-10T15:06:14Z</time>
      </trkpt>
      <trkpt lat="44.13438" lon="3.8445">
        <ele>569.72</ele>
        <time>2016-04-10T15:06:15Z</time>
      </trkpt>
      <trkpt lat="44.13452" lon="3.84459">
        <ele>568.76</ele>
        <time>2016-04-10T15:06:16Z</time>
      </trkpt>
      <trkpt lat="44.13465" lon="3.84469">
        <ele>567.32</ele>
        <time>2016-04-10T15:06:17Z</time>
      </trkpt>
      <trkpt lat="44.13476" lon="3.84484">
        <ele>565.87</ele>
        <time>2016-04-10T15:06:18Z</time>
      </trkpt>
      <trkpt lat="44.13481" lon="3.84504">
        <ele>564.43</ele>
        <time>2016-04-10T15:06:19Z</time>
      </trkpt>
      <trkpt lat="44.13479" lon="3.84527">
        <ele>563.95</ele>
        <time>2016-04-10T15:06:20Z</time>
      </trkpt>
      <trkpt lat="44.13476" lon="3.84552">
        <ele>562.99</ele>
        <time>2016-04-10T15:06:21Z</time>
      </trkpt>
      <trkpt lat="44.13471" lon="3.84575">
        <ele>561.55</ele>
        <time>2016-04-10T15:06:22Z</time>
      </trkpt>
      <trkpt lat="44.13468" lon="3.84597">
        <ele>560.59</ele>
        <time>2016-04-10T15:06:23Z</time>
      </trkpt>
      <trkpt lat="44.13468" lon="3.84618">
        <ele>559.14</ele>
        <time>2016-04-10T15:06:24Z</time>
      </trkpt>
      <trkpt lat="44.1347" lon="3.84638">
        <ele>558.18</ele>
        <time>2016-04-10T15:06:25Z</time>
      </trkpt>
      <trkpt lat="44.1347" lon="3.84655">
        <ele>556.74</ele>
        <time>2016-04-10T15:06:26Z</time>
      </trkpt>
      <trkpt lat="44.13464" lon="3.84668">
        <ele>555.3</ele>
        <time>2016-04-10T15:06:27Z</time>
      </trkpt>
      <trkpt lat="44.13451" lon="3.84678">
        <ele>554.34</ele>
        <time>2016-04-10T15:06:28Z</time>
      </trkpt>
      <trkpt lat="44.13434" lon="3.84685">
        <ele>553.38</ele>
        <time>2016-04-10T15:06:29Z</time>
      </trkpt>
      <trkpt lat="44.13416" lon="3.84689">
        <ele>552.41</ele>
        <time>2016-04-10T15:06:30Z</time>
      </trkpt>
      <trkpt lat="44.13399" lon="3.84691">
        <ele>551.45</ele>
        <time>2016-04-10T15:06:31Z</time>
      </trkpt>
      <trkpt lat="44.13382" lon="3.8469">
        <ele>550.01</ele>
        <time>2016-04-10T15:06:32Z</time>
      </trkpt>
      <trkpt lat="44.13366" lon="3.84691">
        <ele>549.05</ele>
        <time>2016-04-10T15:06:33Z</time>
      </trkpt>
      <trkpt lat="44.13352" lon="3.84693">
        <ele>548.09</ele>
        <time>2016-04-10T15:06:34Z</time>
      </trkpt>
      <trkpt lat="44.1334" lon="3.847">
        <ele>547.13</ele>
        <time>2016-04-10T15:06:35Z</time>
      </trkpt>
      <trkpt lat="44.13332" lon="3.8472">
        <ele>545.2</ele>
        <time>2016-04-10T15:06:36Z</time>
      </trkpt>
      <trkpt lat="44.13323" lon="3.84745">
        <ele>544.24</ele>
        <time>2016-04-10T15:06:37Z</time>
      </trkpt>
      <trkpt lat="44.13309" lon="3.84772">
        <ele>543.28</ele>
        <time>2016-04-10T15:06:38Z</time>
      </trkpt>
      <trkpt lat="44.13292" lon="3.84796">
        <ele>541.84</ele>
        <time>2016-04-10T15:06:39Z</time>
      </trkpt>
      <trkpt lat="44.13273" lon="3.8482">
        <ele>539.92</ele>
        <time>2016-04-10T15:06:40Z</time>
      </trkpt>
      <trkpt lat="44.13181" lon="3.84963">
        <ele>532.71</ele>
        <time>2016-04-10T15:06:46Z</time>
      </trkpt>
      <trkpt lat="44.13176" lon="3.84983">
        <ele>530.79</ele>
        <time>2016-04-10T15:06:47Z</time>
      </trkpt>
      <trkpt lat="44.13176" lon="3.84999">
        <ele>528.86</ele>
        <time>2016-04-10T15:06:48Z</time>
      </trkpt>
      <trkpt lat="44.13179" lon="3.85017">
        <ele>527.9</ele>
        <time>2016-04-10T15:06:49Z</time>
      </trkpt>
      <trkpt lat="44.13192" lon="3.8504">
        <ele>527.9</ele>
        <time>2016-04-10T15:06:50Z</time>
      </trkpt>
      <trkpt lat="44.13193" lon="3.85061">
        <ele>526.94</ele>
        <time>2016-04-10T15:06:51Z</time>
      </trkpt>
      <trkpt lat="44.13186" lon="3.85081">
        <ele>525.98</ele>
        <time>2016-04-10T15:06:52Z</time>
      </trkpt>
      <trkpt lat="44.13173" lon="3.85098">
        <ele>524.54</ele>
        <time>2016-04-10T15:06:53Z</time>
      </trkpt>
      <trkpt lat="44.13159" lon="3.85114">
        <ele>523.09</ele>
        <time>2016-04-10T15:06:54Z</time>
      </trkpt>
      <trkpt lat="44.1314" lon="3.8513">
        <ele>521.65</ele>
        <time>2016-04-10T15:06:55Z</time>
      </trkpt>
      <trkpt lat="44.13117" lon="3.85145">
        <ele>520.69</ele>
        <time>2016-04-10T15:06:56Z</time>
      </trkpt>
      <trkpt lat="44.13094" lon="3.85159">
        <ele>519.25</ele>
        <time>2016-04-10T15:06:57Z</time>
      </trkpt>
      <trkpt lat="44.13072" lon="3.85169">
        <ele>517.81</ele>
        <time>2016-04-10T15:06:58Z</time>
      </trkpt>
      <trkpt lat="44.13053" lon="3.85175">
        <ele>516.37</ele>
        <time>2016-04-10T15:06:59Z</time>
      </trkpt>
      <trkpt lat="44.13023" lon="3.8519">
        <ele>513.96</ele>
        <time>2016-04-10T15:07:01Z</time>
      </trkpt>
      <trkpt lat="44.13013" lon="3.85205">
        <ele>512.52</ele>
        <time>2016-04-10T15:07:02Z</time>
      </trkpt>
      <trkpt lat="44.13007" lon="3.85227">
        <ele>511.56</ele>
        <time>2016-04-10T15:07:03Z</time>
      </trkpt>
      <trkpt lat="44.13002" lon="3.85251">
        <ele>510.6</ele>
        <time>2016-04-10T15:07:04Z</time>
      </trkpt>
      <trkpt lat="44.12998" lon="3.85279">
        <ele>510.6</ele>
        <time>2016-04-10T15:07:05Z</time>
      </trkpt>
      <trkpt lat="44.12991" lon="3.85304">
        <ele>509.64</ele>
        <time>2016-04-10T15:07:06Z</time>
      </trkpt>
      <trkpt lat="44.12982" lon="3.85327">
        <ele>508.67</ele>
        <time>2016-04-10T15:07:07Z</time>
      </trkpt>
      <trkpt lat="44.12971" lon="3.85346">
        <ele>507.23</ele>
        <time>2016-04-10T15:07:08Z</time>
      </trkpt>
      <trkpt lat="44.12958" lon="3.85357">
        <ele>505.79</ele>
        <time>2016-04-10T15:07:09Z</time>
      </trkpt>
      <trkpt lat="44.12943" lon="3.8536">
        <ele>504.35</ele>
        <time>2016-04-10T15:07:10Z</time>
      </trkpt>
      <trkpt lat="44.12926" lon="3.85356">
        <ele>502.91</ele>
        <time>2016-04-10T15:07:11Z</time>
      </trkpt>
      <trkpt lat="44.12908" lon="3.8535">
        <ele>501.46</ele>
        <time>2016-04-10T15:07:12Z</time>
      </trkpt>
      <trkpt lat="44.1289" lon="3.85342">
        <ele>499.54</ele>
        <time>2016-04-10T15:07:13Z</time>
      </trkpt>
      <trkpt lat="44.12869" lon="3.85334">
        <ele>497.62</ele>
        <time>2016-04-10T15:07:14Z</time>
      </trkpt>
      <trkpt lat="44.12849" lon="3.85335">
        <ele>495.7</ele>
        <time>2016-04-10T15:07:15Z</time>
      </trkpt>
      <trkpt lat="44.12829" lon="3.85342">
        <ele>495.22</ele>
        <time>2016-04-10T15:07:16Z</time>
      </trkpt>
      <trkpt lat="44.12812" lon="3.85355">
        <ele>495.22</ele>
        <time>2016-04-10T15:07:17Z</time>
      </trkpt>
      <trkpt lat="44.12795" lon="3.85372">
        <ele>494.74</ele>
        <time>2016-04-10T15:07:18Z</time>
      </trkpt>
      <trkpt lat="44.12777" lon="3.85393">
        <ele>494.26</ele>
        <time>2016-04-10T15:07:19Z</time>
      </trkpt>
      <trkpt lat="44.12757" lon="3.85408">
        <ele>493.29</ele>
        <time>2016-04-10T15:07:20Z</time>
      </trkpt>
      <trkpt lat="44.12736" lon="3.85419">
        <ele>492.33</ele>
        <time>2016-04-10T15:07:21Z</time>
      </trkpt>
      <trkpt lat="44.12715" lon="3.85429">
        <ele>490.89</ele>
        <time>2016-04-10T15:07:22Z</time>
      </trkpt>
      <trkpt lat="44.12654" lon="3.85472">
        <ele>487.05</ele>
        <time>2016-04-10T15:07:25Z</time>
      </trkpt>
      <trkpt lat="44.12634" lon="3.85494">
        <ele>485.6</ele>
        <time>2016-04-10T15:07:26Z</time>
      </trkpt>
      <trkpt lat="44.1257" lon="3.85547">
        <ele>481.76</ele>
        <time>2016-04-10T15:07:29Z</time>
      </trkpt>
      <trkpt lat="44.12545" lon="3.85556">
        <ele>480.8</ele>
        <time>2016-04-10T15:07:30Z</time>
      </trkpt>
      <trkpt lat="44.1252" lon="3.85559">
        <ele>478.87</ele>
        <time>2016-04-10T15:07:31Z</time>
      </trkpt>
      <trkpt lat="44.12495" lon="3.85555">
        <ele>477.43</ele>
        <time>2016-04-10T15:07:32Z</time>
      </trkpt>
      <trkpt lat="44.12471" lon="3.85548">
        <ele>476.47</ele>
        <time>2016-04-10T15:07:33Z</time>
      </trkpt>
      <trkpt lat="44.12452" lon="3.85537">
        <ele>475.03</ele>
        <time>2016-04-10T15:07:34Z</time>
      </trkpt>
      <trkpt lat="44.12436" lon="3.85533">
        <ele>473.59</ele>
        <time>2016-04-10T15:07:35Z</time>
      </trkpt>
      <trkpt lat="44.1241" lon="3.85545">
        <ele>471.66</ele>
        <time>2016-04-10T15:07:37Z</time>
      </trkpt>
      <trkpt lat="44.12396" lon="3.85557">
        <ele>471.18</ele>
        <time>2016-04-10T15:07:38Z</time>
      </trkpt>
      <trkpt lat="44.12382" lon="3.85574">
        <ele>470.7</ele>
        <time>2016-04-10T15:07:39Z</time>
      </trkpt>
      <trkpt lat="44.12344" lon="3.85599">
        <ele>468.78</ele>
        <time>2016-04-10T15:07:41Z</time>
      </trkpt>
      <trkpt lat="44.12321" lon="3.85605">
        <ele>467.34</ele>
        <time>2016-04-10T15:07:42Z</time>
      </trkpt>
      <trkpt lat="44.12296" lon="3.85608">
        <ele>464.45</ele>
        <time>2016-04-10T15:07:43Z</time>
      </trkpt>
      <trkpt lat="44.12269" lon="3.85609">
        <ele>461.09</ele>
        <time>2016-04-10T15:07:44Z</time>
      </trkpt>
      <trkpt lat="44.12244" lon="3.8561">
        <ele>459.17</ele>
        <time>2016-04-10T15:07:45Z</time>
      </trkpt>
      <trkpt lat="44.12138" lon="3.85635">
        <ele>451.48</ele>
        <time>2016-04-10T15:07:50Z</time>
      </trkpt>
      <trkpt lat="44.12128" lon="3.85651">
        <ele>450.03</ele>
        <time>2016-04-10T15:07:51Z</time>
      </trkpt>
      <trkpt lat="44.1212" lon="3.85675">
        <ele>448.59</ele>
        <time>2016-04-10T15:07:52Z</time>
      </trkpt>
      <trkpt lat="44.12118" lon="3.857">
        <ele>446.67</ele>
        <time>2016-04-10T15:07:53Z</time>
      </trkpt>
      <trkpt lat="44.12113" lon="3.85724">
        <ele>444.27</ele>
        <time>2016-04-10T15:07:54Z</time>
      </trkpt>
      <trkpt lat="44.12124" lon="3.8576">
        <ele>441.38</ele>
        <time>2016-04-10T15:07:55Z</time>
      </trkpt>
      <trkpt lat="44.12135" lon="3.8579">
        <ele>439.94</ele>
        <time>2016-04-10T15:07:56Z</time>
      </trkpt>
      <trkpt lat="44.12148" lon="3.85821">
        <ele>438.5</ele>
        <time>2016-04-10T15:07:57Z</time>
      </trkpt>
      <trkpt lat="44.12161" lon="3.85851">
        <ele>436.1</ele>
        <time>2016-04-10T15:07:58Z</time>
      </trkpt>
      <trkpt lat="44.12174" lon="3.85877">
        <ele>434.17</ele>
        <time>2016-04-10T15:07:59Z</time>
      </trkpt>
      <trkpt lat="44.12194" lon="3.85911">
        <ele>431.77</ele>
        <time>2016-04-10T15:08:01Z</time>
      </trkpt>
      <trkpt lat="44.12206" lon="3.85919">
        <ele>430.81</ele>
        <time>2016-04-10T15:08:02Z</time>
      </trkpt>
      <trkpt lat="44.12221" lon="3.85922">
        <ele>428.4</ele>
        <time>2016-04-10T15:08:03Z</time>
      </trkpt>
      <trkpt lat="44.12242" lon="3.8592">
        <ele>427.92</ele>
        <time>2016-04-10T15:08:04Z</time>
      </trkpt>
      <trkpt lat="44.12263" lon="3.8592">
        <ele>427.44</ele>
        <time>2016-04-10T15:08:05Z</time>
      </trkpt>
      <trkpt lat="44.12285" lon="3.85922">
        <ele>426</ele>
        <time>2016-04-10T15:08:06Z</time>
      </trkpt>
      <trkpt lat="44.12307" lon="3.8593">
        <ele>425.04</ele>
        <time>2016-04-10T15:08:07Z</time>
      </trkpt>
      <trkpt lat="44.12327" lon="3.85941">
        <ele>424.08</ele>
        <time>2016-04-10T15:08:08Z</time>
      </trkpt>
      <trkpt lat="44.12345" lon="3.85955">
        <ele>422.64</ele>
        <time>2016-04-10T15:08:09Z</time>
      </trkpt>
      <trkpt lat="44.12359" lon="3.85975">
        <ele>421.19</ele>
        <time>2016-04-10T15:08:10Z</time>
      </trkpt>
      <trkpt lat="44.1237" lon="3.85999">
        <ele>419.75</ele>
        <time>2016-04-10T15:08:11Z</time>
      </trkpt>
      <trkpt lat="44.12379" lon="3.86021">
        <ele>418.79</ele>
        <time>2016-04-10T15:08:12Z</time>
      </trkpt>
      <trkpt lat="44.1239" lon="3.86041">
        <ele>417.83</ele>
        <time>2016-04-10T15:08:13Z</time>
      </trkpt>
      <trkpt lat="44.12403" lon="3.86055">
        <ele>416.87</ele>
        <time>2016-04-10T15:08:14Z</time>
      </trkpt>
      <trkpt lat="44.12421" lon="3.86067">
        <ele>415.43</ele>
        <time>2016-04-10T15:08:15Z</time>
      </trkpt>
      <trkpt lat="44.12442" lon="3.86078">
        <ele>414.95</ele>
        <time>2016-04-10T15:08:16Z</time>
      </trkpt>
      <trkpt lat="44.12465" lon="3.86088">
        <ele>413.98</ele>
        <time>2016-04-10T15:08:17Z</time>
      </trkpt>
      <trkpt lat="44.1249" lon="3.86096">
        <ele>412.06</ele>
        <time>2016-04-10T15:08:18Z</time>
      </trkpt>
      <trkpt lat="44.12514" lon="3.86107">
        <ele>410.62</ele>
        <time>2016-04-10T15:08:19Z</time>
      </trkpt>
      <trkpt lat="44.12557" lon="3.86134">
        <ele>406.29</ele>
        <time>2016-04-10T15:08:21Z</time>
      </trkpt>
      <trkpt lat="44.12575" lon="3.86154">
        <ele>405.33</ele>
        <time>2016-04-10T15:08:22Z</time>
      </trkpt>
      <trkpt lat="44.12591" lon="3.86176">
        <ele>403.89</ele>
        <time>2016-04-10T15:08:23Z</time>
      </trkpt>
      <trkpt lat="44.12617" lon="3.86213">
        <ele>401.01</ele>
        <time>2016-04-10T15:08:25Z</time>
      </trkpt>
      <trkpt lat="44.1263" lon="3.86223">
        <ele>399.57</ele>
        <time>2016-04-10T15:08:26Z</time>
      </trkpt>
      <trkpt lat="44.12643" lon="3.86225">
        <ele>398.12</ele>
        <time>2016-04-10T15:08:27Z</time>
      </trkpt>
      <trkpt lat="44.12659" lon="3.86222">
        <ele>396.2</ele>
        <time>2016-04-10T15:08:28Z</time>
      </trkpt>
      <trkpt lat="44.12677" lon="3.86204">
        <ele>394.28</ele>
        <time>2016-04-10T15:08:29Z</time>
      </trkpt>
      <trkpt lat="44.12692" lon="3.86183">
        <ele>393.32</ele>
        <time>2016-04-10T15:08:30Z</time>
      </trkpt>
      <trkpt lat="44.12707" lon="3.86165">
        <ele>392.36</ele>
        <time>2016-04-10T15:08:31Z</time>
      </trkpt>
      <trkpt lat="44.12734" lon="3.86138">
        <ele>389.95</ele>
        <time>2016-04-10T15:08:33Z</time>
      </trkpt>
      <trkpt lat="44.12745" lon="3.86136">
        <ele>389.47</ele>
        <time>2016-04-10T15:08:34Z</time>
      </trkpt>
      <trkpt lat="44.12757" lon="3.86141">
        <ele>388.51</ele>
        <time>2016-04-10T15:08:35Z</time>
      </trkpt>
      <trkpt lat="44.12768" lon="3.8615">
        <ele>386.59</ele>
        <time>2016-04-10T15:08:36Z</time>
      </trkpt>
      <trkpt lat="44.12778" lon="3.86161">
        <ele>385.63</ele>
        <time>2016-04-10T15:08:37Z</time>
      </trkpt>
      <trkpt lat="44.12789" lon="3.8617">
        <ele>384.18</ele>
        <time>2016-04-10T15:08:38Z</time>
      </trkpt>
      <trkpt lat="44.12801" lon="3.86171">
        <ele>384.18</ele>
        <time>2016-04-10T15:08:39Z</time>
      </trkpt>
      <trkpt lat="44.12812" lon="3.86163">
        <ele>383.22</ele>
        <time>2016-04-10T15:08:40Z</time>
      </trkpt>
      <trkpt lat="44.12822" lon="3.86157">
        <ele>381.78</ele>
        <time>2016-04-10T15:08:41Z</time>
      </trkpt>
      <trkpt lat="44.12831" lon="3.86157">
        <ele>380.82</ele>
        <time>2016-04-10T15:08:42Z</time>
      </trkpt>
      <trkpt lat="44.12838" lon="3.86166">
        <ele>380.34</ele>
        <time>2016-04-10T15:08:43Z</time>
      </trkpt>
      <trkpt lat="44.12845" lon="3.86186">
        <ele>379.38</ele>
        <time>2016-04-10T15:08:44Z</time>
      </trkpt>
      <trkpt lat="44.12849" lon="3.86209">
        <ele>378.9</ele>
        <time>2016-04-10T15:08:45Z</time>
      </trkpt>
      <trkpt lat="44.12852" lon="3.86231">
        <ele>377.94</ele>
        <time>2016-04-10T15:08:46Z</time>
      </trkpt>
      <trkpt lat="44.12855" lon="3.86253">
        <ele>377.45</ele>
        <time>2016-04-10T15:08:47Z</time>
      </trkpt>
      <trkpt lat="44.12859" lon="3.86274">
        <ele>376.97</ele>
        <time>2016-04-10T15:08:48Z</time>
      </trkpt>
      <trkpt lat="44.12868" lon="3.86291">
        <ele>376.49</ele>
        <time>2016-04-10T15:08:49Z</time>
      </trkpt>
      <trkpt lat="44.12878" lon="3.86303">
        <ele>375.53</ele>
        <time>2016-04-10T15:08:50Z</time>
      </trkpt>
      <trkpt lat="44.12893" lon="3.86307">
        <ele>373.61</ele>
        <time>2016-04-10T15:08:51Z</time>
      </trkpt>
      <trkpt lat="44.1291" lon="3.86311">
        <ele>371.69</ele>
        <time>2016-04-10T15:08:52Z</time>
      </trkpt>
      <trkpt lat="44.12923" lon="3.86311">
        <ele>371.69</ele>
        <time>2016-04-10T15:08:53Z</time>
      </trkpt>
      <trkpt lat="44.12935" lon="3.86311">
        <ele>371.21</ele>
        <time>2016-04-10T15:08:54Z</time>
      </trkpt>
      <trkpt lat="44.12943" lon="3.86319">
        <ele>370.73</ele>
        <time>2016-04-10T15:08:55Z</time>
      </trkpt>
      <trkpt lat="44.12945" lon="3.86329">
        <ele>370.24</ele>
        <time>2016-04-10T15:08:56Z</time>
      </trkpt>
      <trkpt lat="44.12943" lon="3.86344">
        <ele>369.28</ele>
        <time>2016-04-10T15:08:57Z</time>
      </trkpt>
      <trkpt lat="44.12936" lon="3.86361">
        <ele>368.32</ele>
        <time>2016-04-10T15:08:58Z</time>
      </trkpt>
      <trkpt lat="44.12924" lon="3.8638">
        <ele>367.36</ele>
        <time>2016-04-10T15:08:59Z</time>
      </trkpt>
      <trkpt lat="44.12911" lon="3.86399">
        <ele>365.92</ele>
        <time>2016-04-10T15:09:00Z</time>
      </trkpt>
      <trkpt lat="44.12897" lon="3.86421">
        <ele>364.96</ele>
        <time>2016-04-10T15:09:01Z</time>
      </trkpt>
      <trkpt lat="44.12877" lon="3.86438">
        <ele>363.52</ele>
        <time>2016-04-10T15:09:02Z</time>
      </trkpt>
      <trkpt lat="44.12855" lon="3.86451">
        <ele>362.07</ele>
        <time>2016-04-10T15:09:03Z</time>
      </trkpt>
      <trkpt lat="44.12834" lon="3.86461">
        <ele>361.11</ele>
        <time>2016-04-10T15:09:04Z</time>
      </trkpt>
      <trkpt lat="44.12813" lon="3.86465">
        <ele>360.15</ele>
        <time>2016-04-10T15:09:05Z</time>
      </trkpt>
      <trkpt lat="44.12795" lon="3.86471">
        <ele>358.23</ele>
        <time>2016-04-10T15:09:06Z</time>
      </trkpt>
      <trkpt lat="44.12777" lon="3.8648">
        <ele>356.79</ele>
        <time>2016-04-10T15:09:07Z</time>
      </trkpt>
      <trkpt lat="44.12765" lon="3.86493">
        <ele>355.34</ele>
        <time>2016-04-10T15:09:08Z</time>
      </trkpt>
      <trkpt lat="44.12757" lon="3.8651">
        <ele>354.38</ele>
        <time>2016-04-10T15:09:09Z</time>
      </trkpt>
      <trkpt lat="44.12755" lon="3.86528">
        <ele>351.98</ele>
        <time>2016-04-10T15:09:10Z</time>
      </trkpt>
      <trkpt lat="44.12758" lon="3.86546">
        <ele>349.58</ele>
        <time>2016-04-10T15:09:11Z</time>
      </trkpt>
      <trkpt lat="44.12767" lon="3.86568">
        <ele>348.13</ele>
        <time>2016-04-10T15:09:12Z</time>
      </trkpt>
      <trkpt lat="44.12778" lon="3.86593">
        <ele>348.13</ele>
        <time>2016-04-10T15:09:13Z</time>
      </trkpt>
      <trkpt lat="44.12792" lon="3.86618">
        <ele>350.06</ele>
        <time>2016-04-10T15:09:14Z</time>
      </trkpt>
      <trkpt lat="44.12805" lon="3.86641">
        <ele>350.06</ele>
        <time>2016-04-10T15:09:15Z</time>
      </trkpt>
      <trkpt lat="44.12816" lon="3.86663">
        <ele>349.58</ele>
        <time>2016-04-10T15:09:16Z</time>
      </trkpt>
      <trkpt lat="44.12826" lon="3.86684">
        <ele>348.62</ele>
        <time>2016-04-10T15:09:17Z</time>
      </trkpt>
      <trkpt lat="44.12833" lon="3.86705">
        <ele>347.65</ele>
        <time>2016-04-10T15:09:18Z</time>
      </trkpt>
      <trkpt lat="44.12835" lon="3.86724">
        <ele>345.73</ele>
        <time>2016-04-10T15:09:19Z</time>
      </trkpt>
      <trkpt lat="44.12825" lon="3.86751">
        <ele>342.37</ele>
        <time>2016-04-10T15:09:21Z</time>
      </trkpt>
      <trkpt lat="44.12816" lon="3.86762">
        <ele>340.92</ele>
        <time>2016-04-10T15:09:22Z</time>
      </trkpt>
      <trkpt lat="44.12804" lon="3.86774">
        <ele>339.48</ele>
        <time>2016-04-10T15:09:23Z</time>
      </trkpt>
      <trkpt lat="44.12791" lon="3.86785">
        <ele>337.56</ele>
        <time>2016-04-10T15:09:24Z</time>
      </trkpt>
      <trkpt lat="44.12778" lon="3.86792">
        <ele>335.64</ele>
        <time>2016-04-10T15:09:25Z</time>
      </trkpt>
      <trkpt lat="44.12767" lon="3.86793">
        <ele>333.71</ele>
        <time>2016-04-10T15:09:26Z</time>
      </trkpt>
      <trkpt lat="44.12761" lon="3.86786">
        <ele>332.27</ele>
        <time>2016-04-10T15:09:27Z</time>
      </trkpt>
      <trkpt lat="44.12755" lon="3.86773">
        <ele>330.83</ele>
        <time>2016-04-10T15:09:28Z</time>
      </trkpt>
      <trkpt lat="44.12748" lon="3.86759">
        <ele>329.39</ele>
        <time>2016-04-10T15:09:29Z</time>
      </trkpt>
      <trkpt lat="44.1274" lon="3.86742">
        <ele>326.99</ele>
        <time>2016-04-10T15:09:30Z</time>
      </trkpt>
      <trkpt lat="44.12729" lon="3.86729">
        <ele>325.54</ele>
        <time>2016-04-10T15:09:31Z</time>
      </trkpt>
      <trkpt lat="44.12714" lon="3.8672">
        <ele>324.1</ele>
        <time>2016-04-10T15:09:32Z</time>
      </trkpt>
      <trkpt lat="44.12697" lon="3.86711">
        <ele>323.14</ele>
        <time>2016-04-10T15:09:33Z</time>
      </trkpt>
      <trkpt lat="44.12682" lon="3.86704">
        <ele>322.18</ele>
        <time>2016-04-10T15:09:34Z</time>
      </trkpt>
      <trkpt lat="44.12651" lon="3.86693">
        <ele>321.7</ele>
        <time>2016-04-10T15:09:36Z</time>
      </trkpt>
      <trkpt lat="44.12636" lon="3.86693">
        <ele>321.22</ele>
        <time>2016-04-10T15:09:37Z</time>
      </trkpt>
      <trkpt lat="44.12623" lon="3.86696">
        <ele>320.74</ele>
        <time>2016-04-10T15:09:38Z</time>
      </trkpt>
      <trkpt lat="44.12578" lon="3.86705">
        <ele>317.37</ele>
        <time>2016-04-10T15:09:42Z</time>
      </trkpt>
      <trkpt lat="44.12568" lon="3.86704">
        <ele>316.41</ele>
        <time>2016-04-10T15:09:43Z</time>
      </trkpt>
      <trkpt lat="44.12504" lon="3.86697">
        <ele>312.09</ele>
        <time>2016-04-10T15:09:50Z</time>
      </trkpt>
      <trkpt lat="44.12501" lon="3.86691">
        <ele>311.6</ele>
        <time>2016-04-10T15:09:51Z</time>
      </trkpt>
      <trkpt lat="44.12508" lon="3.86677">
        <ele>311.12</ele>
        <time>2016-04-10T15:09:53Z</time>
      </trkpt>
      <trkpt lat="44.12524" lon="3.86672">
        <ele>309.68</ele>
        <time>2016-04-10T15:09:55Z</time>
      </trkpt>
      <trkpt lat="44.12537" lon="3.86672">
        <ele>309.2</ele>
        <time>2016-04-10T15:09:56Z</time>
      </trkpt>
      <trkpt lat="44.12551" lon="3.86673">
        <ele>309.2</ele>
        <time>2016-04-10T15:09:57Z</time>
      </trkpt>
      <trkpt lat="44.12564" lon="3.86674">
        <ele>308.72</ele>
        <time>2016-04-10T15:09:58Z</time>
      </trkpt>
      <trkpt lat="44.12598" lon="3.86672">
        <ele>307.76</ele>
        <time>2016-04-10T15:10:01Z</time>
      </trkpt>
      <trkpt lat="44.12609" lon="3.86667">
        <ele>306.8</ele>
        <time>2016-04-10T15:10:02Z</time>
      </trkpt>
      <trkpt lat="44.12655" lon="3.86649">
        <ele>304.39</ele>
        <time>2016-04-10T15:10:06Z</time>
      </trkpt>
      <trkpt lat="44.12667" lon="3.86649">
        <ele>303.43</ele>
        <time>2016-04-10T15:10:07Z</time>
      </trkpt>
      <trkpt lat="44.12679" lon="3.86651">
        <ele>302.95</ele>
        <time>2016-04-10T15:10:08Z</time>
      </trkpt>
      <trkpt lat="44.1269" lon="3.86656">
        <ele>302.95</ele>
        <time>2016-04-10T15:10:09Z</time>
      </trkpt>
      <trkpt lat="44.12701" lon="3.86661">
        <ele>302.95</ele>
        <time>2016-04-10T15:10:10Z</time>
      </trkpt>
      <trkpt lat="44.12721" lon="3.86669">
        <ele>301.99</ele>
        <time>2016-04-10T15:10:12Z</time>
      </trkpt>
      <trkpt lat="44.12729" lon="3.8667">
        <ele>301.51</ele>
        <time>2016-04-10T15:10:13Z</time>
      </trkpt>
      <trkpt lat="44.12736" lon="3.86669">
        <ele>301.03</ele>
        <time>2016-04-10T15:10:14Z</time>
      </trkpt>
      <trkpt lat="44.12741" lon="3.86664">
        <ele>300.55</ele>
        <time>2016-04-10T15:10:15Z</time>
      </trkpt>
      <trkpt lat="44.12743" lon="3.86653">
        <ele>300.07</ele>
        <time>2016-04-10T15:10:16Z</time>
      </trkpt>
      <trkpt lat="44.12739" lon="3.86646">
        <ele>300.55</ele>
        <time>2016-04-10T15:10:17Z</time>
      </trkpt>
      <trkpt lat="44.12733" lon="3.86637">
        <ele>301.51</ele>
        <time>2016-04-10T15:10:18Z</time>
      </trkpt>
      <trkpt lat="44.12727" lon="3.86625">
        <ele>301.51</ele>
        <time>2016-04-10T15:10:19Z</time>
      </trkpt>
      <trkpt lat="44.12719" lon="3.86614">
        <ele>302.47</ele>
        <time>2016-04-10T15:10:20Z</time>
      </trkpt>
      <trkpt lat="44.12709" lon="3.86604">
        <ele>306.32</ele>
        <time>2016-04-10T15:10:21Z</time>
      </trkpt>
      <trkpt lat="44.127" lon="3.86594">
        <ele>308.72</ele>
        <time>2016-04-10T15:10:22Z</time>
      </trkpt>
      <trkpt lat="44.12691" lon="3.86584">
        <ele>309.2</ele>
        <time>2016-04-10T15:10:23Z</time>
      </trkpt>
      <trkpt lat="44.12682" lon="3.86575">
        <ele>309.68</ele>
        <time>2016-04-10T15:10:24Z</time>
      </trkpt>
      <trkpt lat="44.12674" lon="3.86566">
        <ele>309.2</ele>
        <time>2016-04-10T15:10:25Z</time>
      </trkpt>
      <trkpt lat="44.12667" lon="3.86555">
        <ele>308.72</ele>
        <time>2016-04-10T15:10:26Z</time>
      </trkpt>
      <trkpt lat="44.12664" lon="3.86535">
        <ele>307.28</ele>
        <time>2016-04-10T15:10:27Z</time>
      </trkpt>
      <trkpt lat="44.12663" lon="3.86514">
        <ele>305.84</ele>
        <time>2016-04-10T15:10:28Z</time>
      </trkpt>
      <trkpt lat="44.12664" lon="3.86495">
        <ele>303.91</ele>
        <time>2016-04-10T15:10:29Z</time>
      </trkpt>
      <trkpt lat="44.12667" lon="3.86479">
        <ele>303.43</ele>
        <time>2016-04-10T15:10:30Z</time>
      </trkpt>
      <trkpt lat="44.1267" lon="3.86466">
        <ele>302.95</ele>
        <time>2016-04-10T15:10:31Z</time>
      </trkpt>
      <trkpt lat="44.12672" lon="3.86456">
        <ele>301.51</ele>
        <time>2016-04-10T15:10:32Z</time>
      </trkpt>
      <trkpt lat="44.12665" lon="3.86446">
        <ele>299.11</ele>
        <time>2016-04-10T15:10:34Z</time>
      </trkpt>
      <trkpt lat="44.12657" lon="3.86448">
        <ele>298.15</ele>
        <time>2016-04-10T15:10:35Z</time>
      </trkpt>
      <trkpt lat="44.12647" lon="3.86455">
        <ele>296.7</ele>
        <time>2016-04-10T15:10:36Z</time>
      </trkpt>
      <trkpt lat="44.12634" lon="3.86459">
        <ele>295.74</ele>
        <time>2016-04-10T15:10:37Z</time>
      </trkpt>
      <trkpt lat="44.1262" lon="3.86466">
        <ele>293.34</ele>
        <time>2016-04-10T15:10:38Z</time>
      </trkpt>
      <trkpt lat="44.12606" lon="3.86469">
        <ele>291.9</ele>
        <time>2016-04-10T15:10:39Z</time>
      </trkpt>
      <trkpt lat="44.12591" lon="3.8647">
        <ele>290.94</ele>
        <time>2016-04-10T15:10:40Z</time>
      </trkpt>
      <trkpt lat="44.12577" lon="3.86469">
        <ele>290.46</ele>
        <time>2016-04-10T15:10:41Z</time>
      </trkpt>
      <trkpt lat="44.12561" lon="3.86467">
        <ele>289.97</ele>
        <time>2016-04-10T15:10:42Z</time>
      </trkpt>
      <trkpt lat="44.124" lon="3.86422">
        <ele>278.44</ele>
        <time>2016-04-10T15:10:53Z</time>
      </trkpt>
      <trkpt lat="44.12261" lon="3.86402">
        <ele>267.86</ele>
        <time>2016-04-10T15:11:03Z</time>
      </trkpt>
      <trkpt lat="44.12171" lon="3.864">
        <ele>262.1</ele>
        <time>2016-04-10T15:11:10Z</time>
      </trkpt>
      <trkpt lat="44.12158" lon="3.86395">
        <ele>260.65</ele>
        <time>2016-04-10T15:11:11Z</time>
      </trkpt>
      <trkpt lat="44.12144" lon="3.86387">
        <ele>259.69</ele>
        <time>2016-04-10T15:11:12Z</time>
      </trkpt>
      <trkpt lat="44.12113" lon="3.86367">
        <ele>256.81</ele>
        <time>2016-04-10T15:11:14Z</time>
      </trkpt>
      <trkpt lat="44.12098" lon="3.86353">
        <ele>255.37</ele>
        <time>2016-04-10T15:11:15Z</time>
      </trkpt>
      <trkpt lat="44.12004" lon="3.86266">
        <ele>248.16</ele>
        <time>2016-04-10T15:11:22Z</time>
      </trkpt>
      <trkpt lat="44.11981" lon="3.86253">
        <ele>246.23</ele>
        <time>2016-04-10T15:11:24Z</time>
      </trkpt>
      <trkpt lat="44.11968" lon="3.86249">
        <ele>245.27</ele>
        <time>2016-04-10T15:11:25Z</time>
      </trkpt>
      <trkpt lat="44.11955" lon="3.86249">
        <ele>244.31</ele>
        <time>2016-04-10T15:11:26Z</time>
      </trkpt>
      <trkpt lat="44.11942" lon="3.86251">
        <ele>243.35</ele>
        <time>2016-04-10T15:11:27Z</time>
      </trkpt>
      <trkpt lat="44.1193" lon="3.86256">
        <ele>241.91</ele>
        <time>2016-04-10T15:11:28Z</time>
      </trkpt>
      <trkpt lat="44.11919" lon="3.86268">
        <ele>240.95</ele>
        <time>2016-04-10T15:11:29Z</time>
      </trkpt>
      <trkpt lat="44.11912" lon="3.86281">
        <ele>239.51</ele>
        <time>2016-04-10T15:11:30Z</time>
      </trkpt>
      <trkpt lat="44.11904" lon="3.86293">
        <ele>238.54</ele>
        <time>2016-04-10T15:11:31Z</time>
      </trkpt>
      <trkpt lat="44.11894" lon="3.86304">
        <ele>237.58</ele>
        <time>2016-04-10T15:11:32Z</time>
      </trkpt>
      <trkpt lat="44.11882" lon="3.86305">
        <ele>236.14</ele>
        <time>2016-04-10T15:11:33Z</time>
      </trkpt>
      <trkpt lat="44.1187" lon="3.86302">
        <ele>234.7</ele>
        <time>2016-04-10T15:11:34Z</time>
      </trkpt>
      <trkpt lat="44.11856" lon="3.86296">
        <ele>233.26</ele>
        <time>2016-04-10T15:11:35Z</time>
      </trkpt>
      <trkpt lat="44.11842" lon="3.86288">
        <ele>232.3</ele>
        <time>2016-04-10T15:11:36Z</time>
      </trkpt>
      <trkpt lat="44.11828" lon="3.8628">
        <ele>231.33</ele>
        <time>2016-04-10T15:11:37Z</time>
      </trkpt>
      <trkpt lat="44.11674" lon="3.86199">
        <ele>221.72</ele>
        <time>2016-04-10T15:11:46Z</time>
      </trkpt>
      <trkpt lat="44.11522" lon="3.86107">
        <ele>214.51</ele>
        <time>2016-04-10T15:11:53Z</time>
      </trkpt>
      <trkpt lat="44.11382" lon="3.86026">
        <ele>210.67</ele>
        <time>2016-04-10T15:12:01Z</time>
      </trkpt>
      <trkpt lat="44.11355" lon="3.86008">
        <ele>209.7</ele>
        <time>2016-04-10T15:12:03Z</time>
      </trkpt>
      <trkpt lat="44.11344" lon="3.85998">
        <ele>209.22</ele>
        <time>2016-04-10T15:12:04Z</time>
      </trkpt>
      <trkpt lat="44.11335" lon="3.85986">
        <ele>208.74</ele>
        <time>2016-04-10T15:12:05Z</time>
      </trkpt>
      <trkpt lat="44.11329" lon="3.85975">
        <ele>209.22</ele>
        <time>2016-04-10T15:12:06Z</time>
      </trkpt>
      <trkpt lat="44.11324" lon="3.85962">
        <ele>211.63</ele>
        <time>2016-04-10T15:12:07Z</time>
      </trkpt>
      <trkpt lat="44.11319" lon="3.85951">
        <ele>212.59</ele>
        <time>2016-04-10T15:12:08Z</time>
      </trkpt>
      <trkpt lat="44.11313" lon="3.85942">
        <ele>212.11</ele>
        <time>2016-04-10T15:12:09Z</time>
      </trkpt>
      <trkpt lat="44.11308" lon="3.85935">
        <ele>212.11</ele>
        <time>2016-04-10T15:12:10Z</time>
      </trkpt>
      <trkpt lat="44.113" lon="3.85929">
        <ele>212.11</ele>
        <time>2016-04-10T15:12:11Z</time>
      </trkpt>
      <trkpt lat="44.11293" lon="3.85925">
        <ele>211.63</ele>
        <time>2016-04-10T15:12:12Z</time>
      </trkpt>
      <trkpt lat="44.11285" lon="3.85928">
        <ele>211.63</ele>
        <time>2016-04-10T15:12:13Z</time>
      </trkpt>
      <trkpt lat="44.11278" lon="3.85935">
        <ele>212.11</ele>
        <time>2016-04-10T15:12:14Z</time>
      </trkpt>
      <trkpt lat="44.11276" lon="3.85947">
        <ele>212.59</ele>
        <time>2016-04-10T15:12:15Z</time>
      </trkpt>
      <trkpt lat="44.11272" lon="3.85963">
        <ele>213.07</ele>
        <time>2016-04-10T15:12:16Z</time>
      </trkpt>
      <trkpt lat="44.11269" lon="3.85985">
        <ele>213.07</ele>
        <time>2016-04-10T15:12:17Z</time>
      </trkpt>
      <trkpt lat="44.11264" lon="3.86006">
        <ele>212.59</ele>
        <time>2016-04-10T15:12:18Z</time>
      </trkpt>
      <trkpt lat="44.11227" lon="3.86146">
        <ele>211.15</ele>
        <time>2016-04-10T15:12:26Z</time>
      </trkpt>
      <trkpt lat="44.11213" lon="3.86183">
        <ele>210.67</ele>
        <time>2016-04-10T15:12:29Z</time>
      </trkpt>
      <trkpt lat="44.1121" lon="3.86196">
        <ele>210.67</ele>
        <time>2016-04-10T15:12:30Z</time>
      </trkpt>
      <trkpt lat="44.1121" lon="3.86208">
        <ele>210.19</ele>
        <time>2016-04-10T15:12:31Z</time>
      </trkpt>
      <trkpt lat="44.11212" lon="3.8622">
        <ele>208.74</ele>
        <time>2016-04-10T15:12:32Z</time>
      </trkpt>
      <trkpt lat="44.11216" lon="3.86231">
        <ele>207.78</ele>
        <time>2016-04-10T15:12:33Z</time>
      </trkpt>
      <trkpt lat="44.11221" lon="3.86242">
        <ele>206.82</ele>
        <time>2016-04-10T15:12:34Z</time>
      </trkpt>
      <trkpt lat="44.11225" lon="3.86251">
        <ele>206.82</ele>
        <time>2016-04-10T15:12:35Z</time>
      </trkpt>
      <trkpt lat="44.11232" lon="3.86264">
        <ele>204.9</ele>
        <time>2016-04-10T15:12:37Z</time>
      </trkpt>
      <trkpt lat="44.11234" lon="3.86268">
        <ele>204.42</ele>
        <time>2016-04-10T15:12:38Z</time>
      </trkpt>
      <trkpt lat="44.11238" lon="3.86277">
        <ele>199.61</ele>
        <time>2016-04-10T15:12:47Z</time>
      </trkpt>
      <trkpt lat="44.11233" lon="3.863">
        <ele>198.17</ele>
        <time>2016-04-10T15:12:58Z</time>
      </trkpt>
      <trkpt lat="44.11231" lon="3.86309">
        <ele>198.17</ele>
        <time>2016-04-10T15:13:00Z</time>
      </trkpt>
      <trkpt lat="44.1123" lon="3.8632">
        <ele>198.17</ele>
        <time>2016-04-10T15:13:01Z</time>
      </trkpt>
      <trkpt lat="44.11232" lon="3.86332">
        <ele>198.17</ele>
        <time>2016-04-10T15:13:02Z</time>
      </trkpt>
      <trkpt lat="44.11235" lon="3.86341">
        <ele>198.17</ele>
        <time>2016-04-10T15:13:03Z</time>
      </trkpt>
      <trkpt lat="44.11237" lon="3.8635">
        <ele>198.17</ele>
        <time>2016-04-10T15:13:04Z</time>
      </trkpt>
      <trkpt lat="44.11244" lon="3.86372">
        <ele>198.65</ele>
        <time>2016-04-10T15:13:11Z</time>
      </trkpt>
      <trkpt lat="44.11246" lon="3.86371">
        <ele>200.57</ele>
        <time>2016-04-10T15:14:01Z</time>
      </trkpt>
      <trkpt lat="44.11248" lon="3.86369">
        <ele>201.53</ele>
        <time>2016-04-10T15:14:13Z</time>
      </trkpt>
      <trkpt lat="44.11252" lon="3.86366">
        <ele>195.28</ele>
        <time>2016-04-10T15:20:50Z</time>
      </trkpt>
      <trkpt lat="44.11247" lon="3.86367">
        <ele>196.25</ele>
        <time>2016-04-10T15:21:41Z</time>
      </trkpt>
      <trkpt lat="44.11251" lon="3.8638">
        <ele>195.77</ele>
        <time>2016-04-10T15:21:46Z</time>
      </trkpt>
      <trkpt lat="44.11282" lon="3.86441">
        <ele>194.32</ele>
        <time>2016-04-10T15:21:54Z</time>
      </trkpt>
      <trkpt lat="44.11335" lon="3.86553">
        <ele>193.36</ele>
        <time>2016-04-10T15:22:02Z</time>
      </trkpt>
      <trkpt lat="44.11448" lon="3.86785">
        <ele>198.65</ele>
        <time>2016-04-10T15:22:14Z</time>
      </trkpt>
      <trkpt lat="44.11455" lon="3.86808">
        <ele>199.13</ele>
        <time>2016-04-10T15:22:15Z</time>
      </trkpt>
      <trkpt lat="44.1146" lon="3.86832">
        <ele>199.61</ele>
        <time>2016-04-10T15:22:16Z</time>
      </trkpt>
      <trkpt lat="44.11463" lon="3.86859">
        <ele>200.09</ele>
        <time>2016-04-10T15:22:17Z</time>
      </trkpt>
      <trkpt lat="44.11465" lon="3.86886">
        <ele>200.57</ele>
        <time>2016-04-10T15:22:18Z</time>
      </trkpt>
      <trkpt lat="44.11464" lon="3.86914">
        <ele>201.05</ele>
        <time>2016-04-10T15:22:19Z</time>
      </trkpt>
      <trkpt lat="44.11462" lon="3.86942">
        <ele>201.53</ele>
        <time>2016-04-10T15:22:20Z</time>
      </trkpt>
      <trkpt lat="44.11428" lon="3.87149">
        <ele>201.05</ele>
        <time>2016-04-10T15:22:28Z</time>
      </trkpt>
      <trkpt lat="44.1142" lon="3.87171">
        <ele>200.57</ele>
        <time>2016-04-10T15:22:29Z</time>
      </trkpt>
      <trkpt lat="44.1141" lon="3.87193">
        <ele>200.57</ele>
        <time>2016-04-10T15:22:30Z</time>
      </trkpt>
      <trkpt lat="44.11396" lon="3.87214">
        <ele>201.05</ele>
        <time>2016-04-10T15:22:31Z</time>
      </trkpt>
      <trkpt lat="44.11381" lon="3.87232">
        <ele>201.53</ele>
        <time>2016-04-10T15:22:32Z</time>
      </trkpt>
      <trkpt lat="44.11366" lon="3.87249">
        <ele>202.01</ele>
        <time>2016-04-10T15:22:33Z</time>
      </trkpt>
      <trkpt lat="44.11319" lon="3.8729">
        <ele>201.53</ele>
        <time>2016-04-10T15:22:36Z</time>
      </trkpt>
      <trkpt lat="44.11301" lon="3.87299">
        <ele>201.05</ele>
        <time>2016-04-10T15:22:37Z</time>
      </trkpt>
      <trkpt lat="44.11197" lon="3.87345">
        <ele>198.65</ele>
        <time>2016-04-10T15:22:43Z</time>
      </trkpt>
      <trkpt lat="44.11179" lon="3.87348">
        <ele>198.17</ele>
        <time>2016-04-10T15:22:44Z</time>
      </trkpt>
      <trkpt lat="44.11161" lon="3.87348">
        <ele>197.69</ele>
        <time>2016-04-10T15:22:45Z</time>
      </trkpt>
      <trkpt lat="44.11057" lon="3.8735">
        <ele>194.8</ele>
        <time>2016-04-10T15:22:51Z</time>
      </trkpt>
      <trkpt lat="44.10987" lon="3.87378">
        <ele>193.84</ele>
        <time>2016-04-10T15:22:55Z</time>
      </trkpt>
      <trkpt lat="44.10969" lon="3.87392">
        <ele>193.36</ele>
        <time>2016-04-10T15:22:56Z</time>
      </trkpt>
      <trkpt lat="44.10811" lon="3.87551">
        <ele>190.48</ele>
        <time>2016-04-10T15:23:05Z</time>
      </trkpt>
      <trkpt lat="44.10797" lon="3.87576">
        <ele>189.52</ele>
        <time>2016-04-10T15:23:06Z</time>
      </trkpt>
      <trkpt lat="44.10732" lon="3.87742">
        <ele>191.44</ele>
        <time>2016-04-10T15:23:13Z</time>
      </trkpt>
      <trkpt lat="44.10733" lon="3.87764">
        <ele>191.92</ele>
        <time>2016-04-10T15:23:14Z</time>
      </trkpt>
      <trkpt lat="44.10732" lon="3.87786">
        <ele>192.4</ele>
        <time>2016-04-10T15:23:15Z</time>
      </trkpt>
      <trkpt lat="44.10733" lon="3.87809">
        <ele>192.88</ele>
        <time>2016-04-10T15:23:16Z</time>
      </trkpt>
      <trkpt lat="44.10734" lon="3.87828">
        <ele>191.92</ele>
        <time>2016-04-10T15:23:17Z</time>
      </trkpt>
      <trkpt lat="44.10735" lon="3.87848">
        <ele>191.92</ele>
        <time>2016-04-10T15:23:18Z</time>
      </trkpt>
      <trkpt lat="44.10736" lon="3.87867">
        <ele>191.92</ele>
        <time>2016-04-10T15:23:19Z</time>
      </trkpt>
      <trkpt lat="44.1074" lon="3.87887">
        <ele>192.4</ele>
        <time>2016-04-10T15:23:20Z</time>
      </trkpt>
      <trkpt lat="44.10747" lon="3.87905">
        <ele>192.88</ele>
        <time>2016-04-10T15:23:21Z</time>
      </trkpt>
      <trkpt lat="44.10757" lon="3.87922">
        <ele>193.84</ele>
        <time>2016-04-10T15:23:22Z</time>
      </trkpt>
      <trkpt lat="44.10767" lon="3.87938">
        <ele>194.32</ele>
        <time>2016-04-10T15:23:23Z</time>
      </trkpt>
      <trkpt lat="44.10807" lon="3.88044">
        <ele>199.13</ele>
        <time>2016-04-10T15:23:29Z</time>
      </trkpt>
      <trkpt lat="44.1081" lon="3.88063">
        <ele>199.61</ele>
        <time>2016-04-10T15:23:30Z</time>
      </trkpt>
      <trkpt lat="44.10811" lon="3.88082">
        <ele>200.09</ele>
        <time>2016-04-10T15:23:31Z</time>
      </trkpt>
      <trkpt lat="44.10811" lon="3.88102">
        <ele>200.09</ele>
        <time>2016-04-10T15:23:32Z</time>
      </trkpt>
      <trkpt lat="44.1081" lon="3.88122">
        <ele>200.09</ele>
        <time>2016-04-10T15:23:33Z</time>
      </trkpt>
      <trkpt lat="44.10808" lon="3.88141">
        <ele>200.09</ele>
        <time>2016-04-10T15:23:34Z</time>
      </trkpt>
      <trkpt lat="44.10769" lon="3.88368">
        <ele>199.61</ele>
        <time>2016-04-10T15:23:45Z</time>
      </trkpt>
      <trkpt lat="44.10703" lon="3.88516">
        <ele>196.73</ele>
        <time>2016-04-10T15:23:53Z</time>
      </trkpt>
      <trkpt lat="44.10683" lon="3.88554">
        <ele>195.28</ele>
        <time>2016-04-10T15:23:58Z</time>
      </trkpt>
      <trkpt lat="44.10672" lon="3.88574">
        <ele>197.21</ele>
        <time>2016-04-10T15:24:09Z</time>
      </trkpt>
      <trkpt lat="44.10657" lon="3.88606">
        <ele>203.94</ele>
        <time>2016-04-10T15:24:38Z</time>
      </trkpt>
      <trkpt lat="44.10614" lon="3.88743">
        <ele>200.09</ele>
        <time>2016-04-10T15:24:46Z</time>
      </trkpt>
      <trkpt lat="44.10565" lon="3.88906">
        <ele>203.46</ele>
        <time>2016-04-10T15:24:53Z</time>
      </trkpt>
      <trkpt lat="44.10539" lon="3.88955">
        <ele>204.9</ele>
        <time>2016-04-10T15:24:55Z</time>
      </trkpt>
      <trkpt lat="44.10524" lon="3.88978">
        <ele>205.86</ele>
        <time>2016-04-10T15:24:56Z</time>
      </trkpt>
      <trkpt lat="44.10423" lon="3.89104">
        <ele>209.7</ele>
        <time>2016-04-10T15:25:02Z</time>
      </trkpt>
      <trkpt lat="44.10409" lon="3.89127">
        <ele>210.19</ele>
        <time>2016-04-10T15:25:03Z</time>
      </trkpt>
      <trkpt lat="44.10299" lon="3.89369">
        <ele>205.86</ele>
        <time>2016-04-10T15:25:12Z</time>
      </trkpt>
      <trkpt lat="44.1025" lon="3.89438">
        <ele>202.01</ele>
        <time>2016-04-10T15:25:15Z</time>
      </trkpt>
      <trkpt lat="44.1023" lon="3.89452">
        <ele>200.09</ele>
        <time>2016-04-10T15:25:16Z</time>
      </trkpt>
      <trkpt lat="44.10211" lon="3.89463">
        <ele>198.17</ele>
        <time>2016-04-10T15:25:17Z</time>
      </trkpt>
      <trkpt lat="44.10193" lon="3.89472">
        <ele>196.25</ele>
        <time>2016-04-10T15:25:18Z</time>
      </trkpt>
      <trkpt lat="44.10175" lon="3.89479">
        <ele>194.32</ele>
        <time>2016-04-10T15:25:19Z</time>
      </trkpt>
      <trkpt lat="44.10108" lon="3.895">
        <ele>189.52</ele>
        <time>2016-04-10T15:25:24Z</time>
      </trkpt>
      <trkpt lat="44.10095" lon="3.89507">
        <ele>188.56</ele>
        <time>2016-04-10T15:25:25Z</time>
      </trkpt>
      <trkpt lat="44.10024" lon="3.89566">
        <ele>185.67</ele>
        <time>2016-04-10T15:25:30Z</time>
      </trkpt>
      <trkpt lat="44.1001" lon="3.89583">
        <ele>185.19</ele>
        <time>2016-04-10T15:25:31Z</time>
      </trkpt>
      <trkpt lat="44.09998" lon="3.89604">
        <ele>184.71</ele>
        <time>2016-04-10T15:25:32Z</time>
      </trkpt>
      <trkpt lat="44.09988" lon="3.89627">
        <ele>184.23</ele>
        <time>2016-04-10T15:25:33Z</time>
      </trkpt>
      <trkpt lat="44.09979" lon="3.89654">
        <ele>183.27</ele>
        <time>2016-04-10T15:25:34Z</time>
      </trkpt>
      <trkpt lat="44.09971" lon="3.89682">
        <ele>183.27</ele>
        <time>2016-04-10T15:25:35Z</time>
      </trkpt>
      <trkpt lat="44.09964" lon="3.89711">
        <ele>182.79</ele>
        <time>2016-04-10T15:25:36Z</time>
      </trkpt>
      <trkpt lat="44.0992" lon="3.89926">
        <ele>184.23</ele>
        <time>2016-04-10T15:25:44Z</time>
      </trkpt>
      <trkpt lat="44.09865" lon="3.90058">
        <ele>184.71</ele>
        <time>2016-04-10T15:25:50Z</time>
      </trkpt>
      <trkpt lat="44.0982" lon="3.90148">
        <ele>184.71</ele>
        <time>2016-04-10T15:25:54Z</time>
      </trkpt>
      <trkpt lat="44.09812" lon="3.90174">
        <ele>184.23</ele>
        <time>2016-04-10T15:25:55Z</time>
      </trkpt>
      <trkpt lat="44.09806" lon="3.90201">
        <ele>184.23</ele>
        <time>2016-04-10T15:25:56Z</time>
      </trkpt>
      <trkpt lat="44.09777" lon="3.90411">
        <ele>184.71</ele>
        <time>2016-04-10T15:26:04Z</time>
      </trkpt>
      <trkpt lat="44.09786" lon="3.90575">
        <ele>184.23</ele>
        <time>2016-04-10T15:26:09Z</time>
      </trkpt>
      <trkpt lat="44.09792" lon="3.90607">
        <ele>184.23</ele>
        <time>2016-04-10T15:26:10Z</time>
      </trkpt>
      <trkpt lat="44.09813" lon="3.90705">
        <ele>181.35</ele>
        <time>2016-04-10T15:26:13Z</time>
      </trkpt>
      <trkpt lat="44.09816" lon="3.9074">
        <ele>180.38</ele>
        <time>2016-04-10T15:26:14Z</time>
      </trkpt>
      <trkpt lat="44.09816" lon="3.90773">
        <ele>179.9</ele>
        <time>2016-04-10T15:26:15Z</time>
      </trkpt>
      <trkpt lat="44.09819" lon="3.90893">
        <ele>177.98</ele>
        <time>2016-04-10T15:26:19Z</time>
      </trkpt>
      <trkpt lat="44.0984" lon="3.9109">
        <ele>178.94</ele>
        <time>2016-04-10T15:26:27Z</time>
      </trkpt>
      <trkpt lat="44.09838" lon="3.91112">
        <ele>179.42</ele>
        <time>2016-04-10T15:26:28Z</time>
      </trkpt>
      <trkpt lat="44.09821" lon="3.91226">
        <ele>181.83</ele>
        <time>2016-04-10T15:26:33Z</time>
      </trkpt>
      <trkpt lat="44.09815" lon="3.91248">
        <ele>181.83</ele>
        <time>2016-04-10T15:26:34Z</time>
      </trkpt>
      <trkpt lat="44.09753" lon="3.91454">
        <ele>181.35</ele>
        <time>2016-04-10T15:26:43Z</time>
      </trkpt>
      <trkpt lat="44.09749" lon="3.91478">
        <ele>181.35</ele>
        <time>2016-04-10T15:26:44Z</time>
      </trkpt>
      <trkpt lat="44.09747" lon="3.91504">
        <ele>181.35</ele>
        <time>2016-04-10T15:26:45Z</time>
      </trkpt>
      <trkpt lat="44.09738" lon="3.91658">
        <ele>182.79</ele>
        <time>2016-04-10T15:26:51Z</time>
      </trkpt>
      <trkpt lat="44.09732" lon="3.91681">
        <ele>182.79</ele>
        <time>2016-04-10T15:26:52Z</time>
      </trkpt>
      <trkpt lat="44.09724" lon="3.91702">
        <ele>183.27</ele>
        <time>2016-04-10T15:26:53Z</time>
      </trkpt>
      <trkpt lat="44.09714" lon="3.91722">
        <ele>183.27</ele>
        <time>2016-04-10T15:26:54Z</time>
      </trkpt>
      <trkpt lat="44.09701" lon="3.91741">
        <ele>183.75</ele>
        <time>2016-04-10T15:26:55Z</time>
      </trkpt>
      <trkpt lat="44.09688" lon="3.91761">
        <ele>184.23</ele>
        <time>2016-04-10T15:26:56Z</time>
      </trkpt>
      <trkpt lat="44.09626" lon="3.91848">
        <ele>186.15</ele>
        <time>2016-04-10T15:27:01Z</time>
      </trkpt>
      <trkpt lat="44.09612" lon="3.9186">
        <ele>186.15</ele>
        <time>2016-04-10T15:27:02Z</time>
      </trkpt>
      <trkpt lat="44.09596" lon="3.91871">
        <ele>186.15</ele>
        <time>2016-04-10T15:27:03Z</time>
      </trkpt>
      <trkpt lat="44.09578" lon="3.91878">
        <ele>186.63</ele>
        <time>2016-04-10T15:27:04Z</time>
      </trkpt>
      <trkpt lat="44.09559" lon="3.91884">
        <ele>187.11</ele>
        <time>2016-04-10T15:27:05Z</time>
      </trkpt>
      <trkpt lat="44.0954" lon="3.91887">
        <ele>187.11</ele>
        <time>2016-04-10T15:27:06Z</time>
      </trkpt>
      <trkpt lat="44.0952" lon="3.91889">
        <ele>187.59</ele>
        <time>2016-04-10T15:27:07Z</time>
      </trkpt>
      <trkpt lat="44.09425" lon="3.91889">
        <ele>189.52</ele>
        <time>2016-04-10T15:27:12Z</time>
      </trkpt>
      <trkpt lat="44.09406" lon="3.91878">
        <ele>189.52</ele>
        <time>2016-04-10T15:27:13Z</time>
      </trkpt>
      <trkpt lat="44.09388" lon="3.91865">
        <ele>189.52</ele>
        <time>2016-04-10T15:27:14Z</time>
      </trkpt>
      <trkpt lat="44.09371" lon="3.9185">
        <ele>190.96</ele>
        <time>2016-04-10T15:27:15Z</time>
      </trkpt>
      <trkpt lat="44.09354" lon="3.91834">
        <ele>192.4</ele>
        <time>2016-04-10T15:27:16Z</time>
      </trkpt>
      <trkpt lat="44.09168" lon="3.91714">
        <ele>200.57</ele>
        <time>2016-04-10T15:27:26Z</time>
      </trkpt>
      <trkpt lat="44.09015" lon="3.917">
        <ele>200.09</ele>
        <time>2016-04-10T15:27:34Z</time>
      </trkpt>
      <trkpt lat="44.08925" lon="3.91712">
        <ele>197.69</ele>
        <time>2016-04-10T15:27:39Z</time>
      </trkpt>
      <trkpt lat="44.08903" lon="3.91726">
        <ele>196.73</ele>
        <time>2016-04-10T15:27:40Z</time>
      </trkpt>
      <trkpt lat="44.08775" lon="3.91798">
        <ele>191.92</ele>
        <time>2016-04-10T15:27:45Z</time>
      </trkpt>
      <trkpt lat="44.08543" lon="3.91932">
        <ele>181.83</ele>
        <time>2016-04-10T15:27:54Z</time>
      </trkpt>
      <trkpt lat="44.0838" lon="3.92083">
        <ele>170.77</ele>
        <time>2016-04-10T15:28:01Z</time>
      </trkpt>
      <trkpt lat="44.08125" lon="3.92366">
        <ele>163.08</ele>
        <time>2016-04-10T15:28:13Z</time>
      </trkpt>
      <trkpt lat="44.0798" lon="3.92603">
        <ele>164.04</ele>
        <time>2016-04-10T15:28:21Z</time>
      </trkpt>
      <trkpt lat="44.07817" lon="3.92859">
        <ele>158.27</ele>
        <time>2016-04-10T15:28:30Z</time>
      </trkpt>
      <trkpt lat="44.07793" lon="3.92873">
        <ele>157.79</ele>
        <time>2016-04-10T15:28:31Z</time>
      </trkpt>
      <trkpt lat="44.07767" lon="3.92884">
        <ele>157.31</ele>
        <time>2016-04-10T15:28:32Z</time>
      </trkpt>
      <trkpt lat="44.0774" lon="3.9289">
        <ele>156.35</ele>
        <time>2016-04-10T15:28:33Z</time>
      </trkpt>
      <trkpt lat="44.07714" lon="3.92895">
        <ele>155.87</ele>
        <time>2016-04-10T15:28:34Z</time>
      </trkpt>
      <trkpt lat="44.0769" lon="3.92898">
        <ele>155.87</ele>
        <time>2016-04-10T15:28:35Z</time>
      </trkpt>
      <trkpt lat="44.07648" lon="3.92906">
        <ele>158.27</ele>
        <time>2016-04-10T15:28:37Z</time>
      </trkpt>
      <trkpt lat="44.0763" lon="3.92915">
        <ele>158.27</ele>
        <time>2016-04-10T15:28:38Z</time>
      </trkpt>
      <trkpt lat="44.07613" lon="3.92928">
        <ele>157.79</ele>
        <time>2016-04-10T15:28:39Z</time>
      </trkpt>
      <trkpt lat="44.07598" lon="3.92944">
        <ele>157.79</ele>
        <time>2016-04-10T15:28:40Z</time>
      </trkpt>
      <trkpt lat="44.07587" lon="3.92967">
        <ele>157.79</ele>
        <time>2016-04-10T15:28:41Z</time>
      </trkpt>
      <trkpt lat="44.07582" lon="3.92992">
        <ele>158.27</ele>
        <time>2016-04-10T15:28:42Z</time>
      </trkpt>
      <trkpt lat="44.07591" lon="3.93022">
        <ele>154.91</ele>
        <time>2016-04-10T15:28:43Z</time>
      </trkpt>
      <trkpt lat="44.07605" lon="3.93047">
        <ele>152.51</ele>
        <time>2016-04-10T15:28:44Z</time>
      </trkpt>
      <trkpt lat="44.07619" lon="3.93073">
        <ele>154.43</ele>
        <time>2016-04-10T15:28:45Z</time>
      </trkpt>
      <trkpt lat="44.07635" lon="3.93098">
        <ele>154.43</ele>
        <time>2016-04-10T15:28:46Z</time>
      </trkpt>
      <trkpt lat="44.07653" lon="3.93122">
        <ele>153.95</ele>
        <time>2016-04-10T15:28:47Z</time>
      </trkpt>
      <trkpt lat="44.0773" lon="3.93228">
        <ele>152.51</ele>
        <time>2016-04-10T15:28:51Z</time>
      </trkpt>
      <trkpt lat="44.07744" lon="3.9326">
        <ele>152.03</ele>
        <time>2016-04-10T15:28:52Z</time>
      </trkpt>
      <trkpt lat="44.07754" lon="3.93295">
        <ele>151.54</ele>
        <time>2016-04-10T15:28:53Z</time>
      </trkpt>
      <trkpt lat="44.07758" lon="3.93331">
        <ele>151.06</ele>
        <time>2016-04-10T15:28:54Z</time>
      </trkpt>
      <trkpt lat="44.07759" lon="3.93368">
        <ele>150.58</ele>
        <time>2016-04-10T15:28:55Z</time>
      </trkpt>
      <trkpt lat="44.07756" lon="3.93406">
        <ele>150.58</ele>
        <time>2016-04-10T15:28:56Z</time>
      </trkpt>
      <trkpt lat="44.0775" lon="3.93443">
        <ele>150.58</ele>
        <time>2016-04-10T15:28:57Z</time>
      </trkpt>
      <trkpt lat="44.07739" lon="3.93479">
        <ele>150.1</ele>
        <time>2016-04-10T15:28:58Z</time>
      </trkpt>
      <trkpt lat="44.07722" lon="3.93514">
        <ele>150.1</ele>
        <time>2016-04-10T15:28:59Z</time>
      </trkpt>
      <trkpt lat="44.07701" lon="3.93547">
        <ele>150.1</ele>
        <time>2016-04-10T15:29:00Z</time>
      </trkpt>
      <trkpt lat="44.07677" lon="3.93579">
        <ele>150.1</ele>
        <time>2016-04-10T15:29:01Z</time>
      </trkpt>
      <trkpt lat="44.07653" lon="3.93607">
        <ele>150.1</ele>
        <time>2016-04-10T15:29:02Z</time>
      </trkpt>
      <trkpt lat="44.07629" lon="3.93632">
        <ele>150.1</ele>
        <time>2016-04-10T15:29:03Z</time>
      </trkpt>
      <trkpt lat="44.07608" lon="3.93656">
        <ele>150.1</ele>
        <time>2016-04-10T15:29:04Z</time>
      </trkpt>
      <trkpt lat="44.07533" lon="3.93761">
        <ele>155.39</ele>
        <time>2016-04-10T15:29:09Z</time>
      </trkpt>
      <trkpt lat="44.07505" lon="3.93821">
        <ele>159.72</ele>
        <time>2016-04-10T15:29:13Z</time>
      </trkpt>
      <trkpt lat="44.07498" lon="3.93822">
        <ele>159.24</ele>
        <time>2016-04-10T15:29:14Z</time>
      </trkpt>
      <trkpt lat="44.07481" lon="3.93805">
        <ele>159.24</ele>
        <time>2016-04-10T15:29:16Z</time>
      </trkpt>
      <trkpt lat="44.0747" lon="3.93794">
        <ele>159.24</ele>
        <time>2016-04-10T15:29:17Z</time>
      </trkpt>
      <trkpt lat="44.07458" lon="3.93782">
        <ele>159.24</ele>
        <time>2016-04-10T15:29:18Z</time>
      </trkpt>
      <trkpt lat="44.07405" lon="3.93733">
        <ele>157.79</ele>
        <time>2016-04-10T15:29:24Z</time>
      </trkpt>
      <trkpt lat="44.07399" lon="3.9373">
        <ele>158.27</ele>
        <time>2016-04-10T15:29:27Z</time>
      </trkpt>
      <trkpt lat="44.07389" lon="3.93723">
        <ele>157.79</ele>
        <time>2016-04-10T15:29:29Z</time>
      </trkpt>
      <trkpt lat="44.07383" lon="3.93725">
        <ele>157.79</ele>
        <time>2016-04-10T15:29:30Z</time>
      </trkpt>
      <trkpt lat="44.07377" lon="3.93731">
        <ele>157.79</ele>
        <time>2016-04-10T15:29:31Z</time>
      </trkpt>
      <trkpt lat="44.07375" lon="3.93737">
        <ele>156.83</ele>
        <time>2016-04-10T15:29:32Z</time>
      </trkpt>
      <trkpt lat="44.07374" lon="3.93745">
        <ele>155.87</ele>
        <time>2016-04-10T15:29:33Z</time>
      </trkpt>
      <trkpt lat="44.07376" lon="3.93752">
        <ele>154.91</ele>
        <time>2016-04-10T15:29:34Z</time>
      </trkpt>
      <trkpt lat="44.07382" lon="3.93752">
        <ele>154.91</ele>
        <time>2016-04-10T15:29:35Z</time>
      </trkpt>
      <trkpt lat="44.07391" lon="3.93751">
        <ele>154.91</ele>
        <time>2016-04-10T15:29:36Z</time>
      </trkpt>
      <trkpt lat="44.07397" lon="3.93744">
        <ele>154.91</ele>
        <time>2016-04-10T15:29:37Z</time>
      </trkpt>
      <trkpt lat="44.074" lon="3.93736">
        <ele>154.43</ele>
        <time>2016-04-10T15:29:38Z</time>
      </trkpt>
      <trkpt lat="44.07398" lon="3.93728">
        <ele>153.95</ele>
        <time>2016-04-10T15:29:39Z</time>
      </trkpt>
      <trkpt lat="44.07392" lon="3.93722">
        <ele>153.95</ele>
        <time>2016-04-10T15:29:40Z</time>
      </trkpt>
      <trkpt lat="44.07385" lon="3.93726">
        <ele>154.43</ele>
        <time>2016-04-10T15:29:41Z</time>
      </trkpt>
      <trkpt lat="44.07379" lon="3.93735">
        <ele>154.91</ele>
        <time>2016-04-10T15:29:42Z</time>
      </trkpt>
      <trkpt lat="44.07373" lon="3.93746">
        <ele>153.95</ele>
        <time>2016-04-10T15:29:43Z</time>
      </trkpt>
      <trkpt lat="44.07367" lon="3.93763">
        <ele>153.95</ele>
        <time>2016-04-10T15:29:44Z</time>
      </trkpt>
      <trkpt lat="44.07363" lon="3.93783">
        <ele>153.47</ele>
        <time>2016-04-10T15:29:45Z</time>
      </trkpt>
      <trkpt lat="44.07358" lon="3.93806">
        <ele>153.95</ele>
        <time>2016-04-10T15:29:46Z</time>
      </trkpt>
      <trkpt lat="44.07349" lon="3.93865">
        <ele>153.47</ele>
        <time>2016-04-10T15:29:48Z</time>
      </trkpt>
      <trkpt lat="44.07347" lon="3.93897">
        <ele>153.47</ele>
        <time>2016-04-10T15:29:49Z</time>
      </trkpt>
      <trkpt lat="44.07337" lon="3.94182">
        <ele>152.51</ele>
        <time>2016-04-10T15:29:58Z</time>
      </trkpt>
      <trkpt lat="44.0733" lon="3.94261">
        <ele>151.06</ele>
        <time>2016-04-10T15:30:01Z</time>
      </trkpt>
      <trkpt lat="44.07323" lon="3.94282">
        <ele>150.1</ele>
        <time>2016-04-10T15:30:02Z</time>
      </trkpt>
      <trkpt lat="44.07314" lon="3.943">
        <ele>150.1</ele>
        <time>2016-04-10T15:30:03Z</time>
      </trkpt>
      <trkpt lat="44.07301" lon="3.94319">
        <ele>149.62</ele>
        <time>2016-04-10T15:30:04Z</time>
      </trkpt>
      <trkpt lat="44.07285" lon="3.94337">
        <ele>150.1</ele>
        <time>2016-04-10T15:30:05Z</time>
      </trkpt>
      <trkpt lat="44.07267" lon="3.94353">
        <ele>150.58</ele>
        <time>2016-04-10T15:30:06Z</time>
      </trkpt>
      <trkpt lat="44.07247" lon="3.94367">
        <ele>151.54</ele>
        <time>2016-04-10T15:30:07Z</time>
      </trkpt>
      <trkpt lat="44.07228" lon="3.94381">
        <ele>152.51</ele>
        <time>2016-04-10T15:30:08Z</time>
      </trkpt>
      <trkpt lat="44.07121" lon="3.94459">
        <ele>155.87</ele>
        <time>2016-04-10T15:30:15Z</time>
      </trkpt>
      <trkpt lat="44.06969" lon="3.94576">
        <ele>153.47</ele>
        <time>2016-04-10T15:30:25Z</time>
      </trkpt>
      <trkpt lat="44.06819" lon="3.94692">
        <ele>150.58</ele>
        <time>2016-04-10T15:30:33Z</time>
      </trkpt>
      <trkpt lat="44.06761" lon="3.94748">
        <ele>151.06</ele>
        <time>2016-04-10T15:30:36Z</time>
      </trkpt>
      <trkpt lat="44.06744" lon="3.94776">
        <ele>150.58</ele>
        <time>2016-04-10T15:30:37Z</time>
      </trkpt>
      <trkpt lat="44.0673" lon="3.94805">
        <ele>150.58</ele>
        <time>2016-04-10T15:30:38Z</time>
      </trkpt>
      <trkpt lat="44.06717" lon="3.94837">
        <ele>150.58</ele>
        <time>2016-04-10T15:30:39Z</time>
      </trkpt>
      <trkpt lat="44.06707" lon="3.94871">
        <ele>151.06</ele>
        <time>2016-04-10T15:30:40Z</time>
      </trkpt>
      <trkpt lat="44.06701" lon="3.94908">
        <ele>151.54</ele>
        <time>2016-04-10T15:30:41Z</time>
      </trkpt>
      <trkpt lat="44.06698" lon="3.94944">
        <ele>151.54</ele>
        <time>2016-04-10T15:30:42Z</time>
      </trkpt>
      <trkpt lat="44.06697" lon="3.94982">
        <ele>152.51</ele>
        <time>2016-04-10T15:30:43Z</time>
      </trkpt>
      <trkpt lat="44.06698" lon="3.95019">
        <ele>152.99</ele>
        <time>2016-04-10T15:30:44Z</time>
      </trkpt>
      <trkpt lat="44.06706" lon="3.95056">
        <ele>152.51</ele>
        <time>2016-04-10T15:30:45Z</time>
      </trkpt>
      <trkpt lat="44.06713" lon="3.95092">
        <ele>152.51</ele>
        <time>2016-04-10T15:30:46Z</time>
      </trkpt>
      <trkpt lat="44.06722" lon="3.95126">
        <ele>152.99</ele>
        <time>2016-04-10T15:30:47Z</time>
      </trkpt>
      <trkpt lat="44.06732" lon="3.95158">
        <ele>152.03</ele>
        <time>2016-04-10T15:30:48Z</time>
      </trkpt>
      <trkpt lat="44.06746" lon="3.95188">
        <ele>152.03</ele>
        <time>2016-04-10T15:30:49Z</time>
      </trkpt>
      <trkpt lat="44.06784" lon="3.9524">
        <ele>153.47</ele>
        <time>2016-04-10T15:30:51Z</time>
      </trkpt>
      <trkpt lat="44.06803" lon="3.95259">
        <ele>153.47</ele>
        <time>2016-04-10T15:30:52Z</time>
      </trkpt>
      <trkpt lat="44.06826" lon="3.95273">
        <ele>153.95</ele>
        <time>2016-04-10T15:30:53Z</time>
      </trkpt>
      <trkpt lat="44.0685" lon="3.95288">
        <ele>153.95</ele>
        <time>2016-04-10T15:30:54Z</time>
      </trkpt>
      <trkpt lat="44.06875" lon="3.95298">
        <ele>153.47</ele>
        <time>2016-04-10T15:30:55Z</time>
      </trkpt>
      <trkpt lat="44.06901" lon="3.95301">
        <ele>152.51</ele>
        <time>2016-04-10T15:30:56Z</time>
      </trkpt>
      <trkpt lat="44.06926" lon="3.95304">
        <ele>151.54</ele>
        <time>2016-04-10T15:30:57Z</time>
      </trkpt>
      <trkpt lat="44.06949" lon="3.95302">
        <ele>150.58</ele>
        <time>2016-04-10T15:30:58Z</time>
      </trkpt>
      <trkpt lat="44.06971" lon="3.95301">
        <ele>149.14</ele>
        <time>2016-04-10T15:30:59Z</time>
      </trkpt>
      <trkpt lat="44.07081" lon="3.95293">
        <ele>147.7</ele>
        <time>2016-04-10T15:31:05Z</time>
      </trkpt>
      <trkpt lat="44.07099" lon="3.95295">
        <ele>147.22</ele>
        <time>2016-04-10T15:31:06Z</time>
      </trkpt>
      <trkpt lat="44.07117" lon="3.953">
        <ele>146.26</ele>
        <time>2016-04-10T15:31:07Z</time>
      </trkpt>
      <trkpt lat="44.07136" lon="3.95306">
        <ele>146.26</ele>
        <time>2016-04-10T15:31:08Z</time>
      </trkpt>
      <trkpt lat="44.07153" lon="3.95314">
        <ele>145.78</ele>
        <time>2016-04-10T15:31:09Z</time>
      </trkpt>
      <trkpt lat="44.0717" lon="3.95323">
        <ele>145.3</ele>
        <time>2016-04-10T15:31:10Z</time>
      </trkpt>
      <trkpt lat="44.07185" lon="3.95334">
        <ele>144.82</ele>
        <time>2016-04-10T15:31:11Z</time>
      </trkpt>
      <trkpt lat="44.072" lon="3.95348">
        <ele>144.82</ele>
        <time>2016-04-10T15:31:12Z</time>
      </trkpt>
      <trkpt lat="44.07213" lon="3.95364">
        <ele>144.82</ele>
        <time>2016-04-10T15:31:13Z</time>
      </trkpt>
      <trkpt lat="44.07223" lon="3.95385">
        <ele>144.82</ele>
        <time>2016-04-10T15:31:14Z</time>
      </trkpt>
      <trkpt lat="44.07232" lon="3.95411">
        <ele>144.34</ele>
        <time>2016-04-10T15:31:15Z</time>
      </trkpt>
      <trkpt lat="44.07233" lon="3.95438">
        <ele>144.34</ele>
        <time>2016-04-10T15:31:16Z</time>
      </trkpt>
      <trkpt lat="44.07234" lon="3.95464">
        <ele>144.34</ele>
        <time>2016-04-10T15:31:17Z</time>
      </trkpt>
      <trkpt lat="44.07232" lon="3.95489">
        <ele>143.85</ele>
        <time>2016-04-10T15:31:18Z</time>
      </trkpt>
      <trkpt lat="44.07232" lon="3.95516">
        <ele>143.85</ele>
        <time>2016-04-10T15:31:19Z</time>
      </trkpt>
      <trkpt lat="44.07229" lon="3.95542">
        <ele>143.37</ele>
        <time>2016-04-10T15:31:20Z</time>
      </trkpt>
      <trkpt lat="44.0723" lon="3.95774">
        <ele>147.7</ele>
        <time>2016-04-10T15:31:29Z</time>
      </trkpt>
      <trkpt lat="44.07247" lon="3.95996">
        <ele>152.99</ele>
        <time>2016-04-10T15:31:39Z</time>
      </trkpt>
      <trkpt lat="44.07255" lon="3.96018">
        <ele>152.99</ele>
        <time>2016-04-10T15:31:40Z</time>
      </trkpt>
      <trkpt lat="44.07265" lon="3.96041">
        <ele>152.99</ele>
        <time>2016-04-10T15:31:41Z</time>
      </trkpt>
      <trkpt lat="44.07276" lon="3.96062">
        <ele>152.99</ele>
        <time>2016-04-10T15:31:42Z</time>
      </trkpt>
      <trkpt lat="44.07289" lon="3.96083">
        <ele>153.47</ele>
        <time>2016-04-10T15:31:43Z</time>
      </trkpt>
      <trkpt lat="44.07304" lon="3.96102">
        <ele>153.47</ele>
        <time>2016-04-10T15:31:44Z</time>
      </trkpt>
      <trkpt lat="44.07326" lon="3.96119">
        <ele>155.39</ele>
        <time>2016-04-10T15:31:45Z</time>
      </trkpt>
      <trkpt lat="44.07347" lon="3.96136">
        <ele>156.83</ele>
        <time>2016-04-10T15:31:46Z</time>
      </trkpt>
      <trkpt lat="44.07438" lon="3.96233">
        <ele>162.12</ele>
        <time>2016-04-10T15:31:52Z</time>
      </trkpt>
      <trkpt lat="44.07447" lon="3.96252">
        <ele>162.6</ele>
        <time>2016-04-10T15:31:53Z</time>
      </trkpt>
      <trkpt lat="44.07453" lon="3.96276">
        <ele>162.6</ele>
        <time>2016-04-10T15:31:54Z</time>
      </trkpt>
      <trkpt lat="44.07453" lon="3.96303">
        <ele>161.64</ele>
        <time>2016-04-10T15:31:55Z</time>
      </trkpt>
      <trkpt lat="44.07453" lon="3.96329">
        <ele>162.12</ele>
        <time>2016-04-10T15:31:56Z</time>
      </trkpt>
      <trkpt lat="44.07448" lon="3.96355">
        <ele>161.64</ele>
        <time>2016-04-10T15:31:57Z</time>
      </trkpt>
      <trkpt lat="44.07439" lon="3.9638">
        <ele>161.64</ele>
        <time>2016-04-10T15:31:58Z</time>
      </trkpt>
      <trkpt lat="44.07429" lon="3.96401">
        <ele>162.12</ele>
        <time>2016-04-10T15:31:59Z</time>
      </trkpt>
      <trkpt lat="44.07416" lon="3.96419">
        <ele>163.08</ele>
        <time>2016-04-10T15:32:00Z</time>
      </trkpt>
      <trkpt lat="44.07403" lon="3.96437">
        <ele>164.04</ele>
        <time>2016-04-10T15:32:01Z</time>
      </trkpt>
      <trkpt lat="44.07391" lon="3.96456">
        <ele>165</ele>
        <time>2016-04-10T15:32:02Z</time>
      </trkpt>
      <trkpt lat="44.07381" lon="3.96479">
        <ele>165.48</ele>
        <time>2016-04-10T15:32:03Z</time>
      </trkpt>
      <trkpt lat="44.07374" lon="3.96504">
        <ele>165.96</ele>
        <time>2016-04-10T15:32:04Z</time>
      </trkpt>
      <trkpt lat="44.07368" lon="3.96532">
        <ele>166.93</ele>
        <time>2016-04-10T15:32:05Z</time>
      </trkpt>
      <trkpt lat="44.07363" lon="3.96561">
        <ele>167.41</ele>
        <time>2016-04-10T15:32:06Z</time>
      </trkpt>
      <trkpt lat="44.0736" lon="3.96591">
        <ele>167.89</ele>
        <time>2016-04-10T15:32:07Z</time>
      </trkpt>
      <trkpt lat="44.07341" lon="3.96753">
        <ele>173.66</ele>
        <time>2016-04-10T15:32:14Z</time>
      </trkpt>
      <trkpt lat="44.07332" lon="3.9679">
        <ele>174.62</ele>
        <time>2016-04-10T15:32:16Z</time>
      </trkpt>
      <trkpt lat="44.07325" lon="3.96808">
        <ele>174.62</ele>
        <time>2016-04-10T15:32:17Z</time>
      </trkpt>
      <trkpt lat="44.07317" lon="3.96824">
        <ele>175.58</ele>
        <time>2016-04-10T15:32:18Z</time>
      </trkpt>
      <trkpt lat="44.07306" lon="3.96837">
        <ele>176.54</ele>
        <time>2016-04-10T15:32:19Z</time>
      </trkpt>
      <trkpt lat="44.07295" lon="3.96847">
        <ele>176.54</ele>
        <time>2016-04-10T15:32:20Z</time>
      </trkpt>
      <trkpt lat="44.07282" lon="3.96855">
        <ele>176.54</ele>
        <time>2016-04-10T15:32:21Z</time>
      </trkpt>
      <trkpt lat="44.07268" lon="3.96861">
        <ele>175.58</ele>
        <time>2016-04-10T15:32:22Z</time>
      </trkpt>
      <trkpt lat="44.07252" lon="3.96866">
        <ele>175.1</ele>
        <time>2016-04-10T15:32:23Z</time>
      </trkpt>
      <trkpt lat="44.07236" lon="3.96871">
        <ele>175.1</ele>
        <time>2016-04-10T15:32:24Z</time>
      </trkpt>
      <trkpt lat="44.0711" lon="3.96901">
        <ele>171.73</ele>
        <time>2016-04-10T15:32:32Z</time>
      </trkpt>
      <trkpt lat="44.06965" lon="3.96962">
        <ele>162.12</ele>
        <time>2016-04-10T15:32:40Z</time>
      </trkpt>
      <trkpt lat="44.06773" lon="3.97044">
        <ele>151.54</ele>
        <time>2016-04-10T15:32:50Z</time>
      </trkpt>
      <trkpt lat="44.06636" lon="3.97093">
        <ele>146.26</ele>
        <time>2016-04-10T15:32:59Z</time>
      </trkpt>
      <trkpt lat="44.06608" lon="3.97099">
        <ele>145.78</ele>
        <time>2016-04-10T15:33:02Z</time>
      </trkpt>
      <trkpt lat="44.066" lon="3.97098">
        <ele>146.26</ele>
        <time>2016-04-10T15:33:03Z</time>
      </trkpt>
      <trkpt lat="44.06591" lon="3.97097">
        <ele>145.78</ele>
        <time>2016-04-10T15:33:04Z</time>
      </trkpt>
      <trkpt lat="44.06582" lon="3.97098">
        <ele>145.78</ele>
        <time>2016-04-10T15:33:05Z</time>
      </trkpt>
      <trkpt lat="44.06573" lon="3.97107">
        <ele>145.3</ele>
        <time>2016-04-10T15:33:06Z</time>
      </trkpt>
      <trkpt lat="44.06563" lon="3.97117">
        <ele>145.3</ele>
        <time>2016-04-10T15:33:07Z</time>
      </trkpt>
      <trkpt lat="44.0655" lon="3.97129">
        <ele>144.82</ele>
        <time>2016-04-10T15:33:08Z</time>
      </trkpt>
      <trkpt lat="44.06534" lon="3.97137">
        <ele>144.34</ele>
        <time>2016-04-10T15:33:09Z</time>
      </trkpt>
      <trkpt lat="44.06425" lon="3.97182">
        <ele>142.41</ele>
        <time>2016-04-10T15:33:14Z</time>
      </trkpt>
      <trkpt lat="44.06285" lon="3.97241">
        <ele>140.01</ele>
        <time>2016-04-10T15:33:21Z</time>
      </trkpt>
      <trkpt lat="44.0622" lon="3.97264">
        <ele>140.49</ele>
        <time>2016-04-10T15:33:26Z</time>
      </trkpt>
      <trkpt lat="44.06212" lon="3.97258">
        <ele>140.49</ele>
        <time>2016-04-10T15:33:27Z</time>
      </trkpt>
      <trkpt lat="44.06204" lon="3.97251">
        <ele>140.49</ele>
        <time>2016-04-10T15:33:28Z</time>
      </trkpt>
      <trkpt lat="44.06196" lon="3.97245">
        <ele>140.49</ele>
        <time>2016-04-10T15:33:29Z</time>
      </trkpt>
      <trkpt lat="44.06189" lon="3.97246">
        <ele>140.49</ele>
        <time>2016-04-10T15:33:30Z</time>
      </trkpt>
      <trkpt lat="44.06182" lon="3.97253">
        <ele>140.49</ele>
        <time>2016-04-10T15:33:31Z</time>
      </trkpt>
      <trkpt lat="44.06177" lon="3.97263">
        <ele>140.49</ele>
        <time>2016-04-10T15:33:32Z</time>
      </trkpt>
      <trkpt lat="44.06173" lon="3.97275">
        <ele>140.49</ele>
        <time>2016-04-10T15:33:33Z</time>
      </trkpt>
      <trkpt lat="44.06168" lon="3.97287">
        <ele>140.49</ele>
        <time>2016-04-10T15:33:34Z</time>
      </trkpt>
      <trkpt lat="44.0616" lon="3.97298">
        <ele>140.01</ele>
        <time>2016-04-10T15:33:35Z</time>
      </trkpt>
      <trkpt lat="44.0615" lon="3.97307">
        <ele>140.49</ele>
        <time>2016-04-10T15:33:36Z</time>
      </trkpt>
      <trkpt lat="44.06139" lon="3.97314">
        <ele>140.49</ele>
        <time>2016-04-10T15:33:37Z</time>
      </trkpt>
      <trkpt lat="44.06126" lon="3.9732">
        <ele>140.49</ele>
        <time>2016-04-10T15:33:38Z</time>
      </trkpt>
      <trkpt lat="44.06113" lon="3.97326">
        <ele>140.49</ele>
        <time>2016-04-10T15:33:39Z</time>
      </trkpt>
      <trkpt lat="44.05968" lon="3.97391">
        <ele>141.93</ele>
        <time>2016-04-10T15:33:49Z</time>
      </trkpt>
      <trkpt lat="44.05892" lon="3.97428">
        <ele>141.93</ele>
        <time>2016-04-10T15:33:55Z</time>
      </trkpt>
      <trkpt lat="44.0588" lon="3.9744">
        <ele>142.41</ele>
        <time>2016-04-10T15:33:56Z</time>
      </trkpt>
      <trkpt lat="44.05871" lon="3.97456">
        <ele>141.93</ele>
        <time>2016-04-10T15:33:57Z</time>
      </trkpt>
      <trkpt lat="44.05863" lon="3.97472">
        <ele>141.93</ele>
        <time>2016-04-10T15:33:58Z</time>
      </trkpt>
      <trkpt lat="44.05858" lon="3.97488">
        <ele>141.93</ele>
        <time>2016-04-10T15:33:59Z</time>
      </trkpt>
      <trkpt lat="44.05854" lon="3.97506">
        <ele>141.45</ele>
        <time>2016-04-10T15:34:00Z</time>
      </trkpt>
      <trkpt lat="44.05852" lon="3.97525">
        <ele>141.45</ele>
        <time>2016-04-10T15:34:01Z</time>
      </trkpt>
      <trkpt lat="44.05853" lon="3.97545">
        <ele>140.97</ele>
        <time>2016-04-10T15:34:02Z</time>
      </trkpt>
      <trkpt lat="44.05857" lon="3.97566">
        <ele>140.49</ele>
        <time>2016-04-10T15:34:03Z</time>
      </trkpt>
      <trkpt lat="44.05863" lon="3.97587">
        <ele>140.01</ele>
        <time>2016-04-10T15:34:04Z</time>
      </trkpt>
      <trkpt lat="44.05869" lon="3.97609">
        <ele>139.53</ele>
        <time>2016-04-10T15:34:05Z</time>
      </trkpt>
      <trkpt lat="44.05927" lon="3.97826">
        <ele>137.13</ele>
        <time>2016-04-10T15:34:13Z</time>
      </trkpt>
      <trkpt lat="44.05978" lon="3.98023">
        <ele>137.13</ele>
        <time>2016-04-10T15:34:18Z</time>
      </trkpt>
      <trkpt lat="44.06014" lon="3.98177">
        <ele>135.2</ele>
        <time>2016-04-10T15:34:23Z</time>
      </trkpt>
      <trkpt lat="44.06015" lon="3.982">
        <ele>134.72</ele>
        <time>2016-04-10T15:34:24Z</time>
      </trkpt>
      <trkpt lat="44.06013" lon="3.98226">
        <ele>134.24</ele>
        <time>2016-04-10T15:34:25Z</time>
      </trkpt>
      <trkpt lat="44.06009" lon="3.98251">
        <ele>133.76</ele>
        <time>2016-04-10T15:34:26Z</time>
      </trkpt>
      <trkpt lat="44.06" lon="3.98276">
        <ele>133.76</ele>
        <time>2016-04-10T15:34:27Z</time>
      </trkpt>
      <trkpt lat="44.05993" lon="3.98301">
        <ele>133.28</ele>
        <time>2016-04-10T15:34:28Z</time>
      </trkpt>
      <trkpt lat="44.05969" lon="3.98426">
        <ele>133.76</ele>
        <time>2016-04-10T15:34:33Z</time>
      </trkpt>
      <trkpt lat="44.05961" lon="3.98447">
        <ele>133.76</ele>
        <time>2016-04-10T15:34:34Z</time>
      </trkpt>
      <trkpt lat="44.05952" lon="3.98467">
        <ele>135.2</ele>
        <time>2016-04-10T15:34:35Z</time>
      </trkpt>
      <trkpt lat="44.05941" lon="3.98486">
        <ele>136.16</ele>
        <time>2016-04-10T15:34:36Z</time>
      </trkpt>
      <trkpt lat="44.05929" lon="3.98503">
        <ele>138.09</ele>
        <time>2016-04-10T15:34:37Z</time>
      </trkpt>
      <trkpt lat="44.05917" lon="3.98518">
        <ele>138.09</ele>
        <time>2016-04-10T15:34:38Z</time>
      </trkpt>
      <trkpt lat="44.05905" lon="3.98532">
        <ele>138.09</ele>
        <time>2016-04-10T15:34:39Z</time>
      </trkpt>
      <trkpt lat="44.05796" lon="3.98622">
        <ele>138.57</ele>
        <time>2016-04-10T15:34:48Z</time>
      </trkpt>
      <trkpt lat="44.05667" lon="3.9868">
        <ele>138.09</ele>
        <time>2016-04-10T15:34:58Z</time>
      </trkpt>
      <trkpt lat="44.05595" lon="3.98711">
        <ele>138.57</ele>
        <time>2016-04-10T15:35:06Z</time>
      </trkpt>
      <trkpt lat="44.05555" lon="3.98725">
        <ele>139.53</ele>
        <time>2016-04-10T15:35:12Z</time>
      </trkpt>
      <trkpt lat="44.05549" lon="3.98724">
        <ele>139.53</ele>
        <time>2016-04-10T15:35:13Z</time>
      </trkpt>
      <trkpt lat="44.05541" lon="3.98723">
        <ele>139.05</ele>
        <time>2016-04-10T15:35:14Z</time>
      </trkpt>
      <trkpt lat="44.05533" lon="3.98723">
        <ele>138.57</ele>
        <time>2016-04-10T15:35:15Z</time>
      </trkpt>
      <trkpt lat="44.05524" lon="3.98724">
        <ele>138.09</ele>
        <time>2016-04-10T15:35:16Z</time>
      </trkpt>
      <trkpt lat="44.0542" lon="3.98734">
        <ele>135.68</ele>
        <time>2016-04-10T15:35:29Z</time>
      </trkpt>
      <trkpt lat="44.05403" lon="3.98736">
        <ele>135.2</ele>
        <time>2016-04-10T15:35:32Z</time>
      </trkpt>
      <trkpt lat="44.05397" lon="3.98733">
        <ele>135.2</ele>
        <time>2016-04-10T15:35:33Z</time>
      </trkpt>
      <trkpt lat="44.05393" lon="3.98729">
        <ele>134.72</ele>
        <time>2016-04-10T15:35:34Z</time>
      </trkpt>
      <trkpt lat="44.05388" lon="3.98726">
        <ele>135.2</ele>
        <time>2016-04-10T15:35:35Z</time>
      </trkpt>
      <trkpt lat="44.05385" lon="3.98722">
        <ele>135.68</ele>
        <time>2016-04-10T15:35:36Z</time>
      </trkpt>
      <trkpt lat="44.05382" lon="3.98719">
        <ele>137.13</ele>
        <time>2016-04-10T15:35:37Z</time>
      </trkpt>
      <trkpt lat="44.05377" lon="3.98689">
        <ele>131.36</ele>
        <time>2016-04-10T15:35:46Z</time>
      </trkpt>
      <trkpt lat="44.05367" lon="3.98642">
        <ele>127.51</ele>
        <time>2016-04-10T15:35:57Z</time>
      </trkpt>
      <trkpt lat="44.05365" lon="3.9863">
        <ele>127.03</ele>
        <time>2016-04-10T15:35:59Z</time>
      </trkpt>
      <trkpt lat="44.05362" lon="3.986">
        <ele>126.55</ele>
        <time>2016-04-10T15:36:09Z</time>
      </trkpt>
      <trkpt lat="44.05359" lon="3.98569">
        <ele>127.51</ele>
        <time>2016-04-10T15:36:16Z</time>
      </trkpt>
      <trkpt lat="44.05355" lon="3.98554">
        <ele>127.99</ele>
        <time>2016-04-10T15:36:18Z</time>
      </trkpt>
      <trkpt lat="44.05351" lon="3.98547">
        <ele>128.47</ele>
        <time>2016-04-10T15:36:19Z</time>
      </trkpt>
      <trkpt lat="44.05346" lon="3.98542">
        <ele>129.43</ele>
        <time>2016-04-10T15:36:20Z</time>
      </trkpt>
      <trkpt lat="44.05339" lon="3.98537">
        <ele>130.88</ele>
        <time>2016-04-10T15:36:21Z</time>
      </trkpt>
      <trkpt lat="44.05331" lon="3.98534">
        <ele>132.32</ele>
        <time>2016-04-10T15:36:22Z</time>
      </trkpt>
      <trkpt lat="44.05324" lon="3.98533">
        <ele>133.76</ele>
        <time>2016-04-10T15:36:23Z</time>
      </trkpt>
      <trkpt lat="44.05317" lon="3.98533">
        <ele>134.72</ele>
        <time>2016-04-10T15:36:24Z</time>
      </trkpt>
      <trkpt lat="44.05295" lon="3.98535">
        <ele>143.37</ele>
        <time>2016-04-10T15:36:31Z</time>
      </trkpt>
      <trkpt lat="44.05264" lon="3.98535">
        <ele>150.58</ele>
        <time>2016-04-10T15:36:41Z</time>
      </trkpt>
      <trkpt lat="44.05197" lon="3.98528">
        <ele>143.37</ele>
        <time>2016-04-10T15:36:50Z</time>
      </trkpt>
      <trkpt lat="44.05189" lon="3.98527">
        <ele>143.85</ele>
        <time>2016-04-10T15:36:51Z</time>
      </trkpt>
      <trkpt lat="44.05104" lon="3.98522">
        <ele>139.53</ele>
        <time>2016-04-10T15:36:59Z</time>
      </trkpt>
      <trkpt lat="44.05069" lon="3.9852">
        <ele>138.09</ele>
        <time>2016-04-10T15:37:02Z</time>
      </trkpt>
      <trkpt lat="44.04968" lon="3.98518">
        <ele>136.64</ele>
        <time>2016-04-10T15:37:09Z</time>
      </trkpt>
      <trkpt lat="44.04953" lon="3.98522">
        <ele>136.16</ele>
        <time>2016-04-10T15:37:10Z</time>
      </trkpt>
      <trkpt lat="44.04937" lon="3.98528">
        <ele>135.68</ele>
        <time>2016-04-10T15:37:11Z</time>
      </trkpt>
      <trkpt lat="44.04789" lon="3.98582">
        <ele>134.24</ele>
        <time>2016-04-10T15:37:19Z</time>
      </trkpt>
      <trkpt lat="44.04767" lon="3.9858">
        <ele>133.76</ele>
        <time>2016-04-10T15:37:20Z</time>
      </trkpt>
      <trkpt lat="44.04746" lon="3.98571">
        <ele>133.76</ele>
        <time>2016-04-10T15:37:21Z</time>
      </trkpt>
      <trkpt lat="44.04725" lon="3.98561">
        <ele>133.28</ele>
        <time>2016-04-10T15:37:22Z</time>
      </trkpt>
      <trkpt lat="44.04706" lon="3.98544">
        <ele>134.24</ele>
        <time>2016-04-10T15:37:23Z</time>
      </trkpt>
      <trkpt lat="44.04688" lon="3.98527">
        <ele>134.24</ele>
        <time>2016-04-10T15:37:24Z</time>
      </trkpt>
      <trkpt lat="44.0467" lon="3.98514">
        <ele>134.24</ele>
        <time>2016-04-10T15:37:25Z</time>
      </trkpt>
      <trkpt lat="44.04652" lon="3.98504">
        <ele>133.76</ele>
        <time>2016-04-10T15:37:26Z</time>
      </trkpt>
      <trkpt lat="44.04634" lon="3.98497">
        <ele>133.76</ele>
        <time>2016-04-10T15:37:27Z</time>
      </trkpt>
      <trkpt lat="44.04616" lon="3.98493">
        <ele>133.76</ele>
        <time>2016-04-10T15:37:28Z</time>
      </trkpt>
      <trkpt lat="44.04599" lon="3.98492">
        <ele>134.24</ele>
        <time>2016-04-10T15:37:29Z</time>
      </trkpt>
      <trkpt lat="44.04581" lon="3.98491">
        <ele>134.72</ele>
        <time>2016-04-10T15:37:30Z</time>
      </trkpt>
      <trkpt lat="44.04357" lon="3.9848">
        <ele>133.76</ele>
        <time>2016-04-10T15:37:43Z</time>
      </trkpt>
      <trkpt lat="44.04171" lon="3.98473">
        <ele>135.2</ele>
        <time>2016-04-10T15:37:56Z</time>
      </trkpt>
      <trkpt lat="44.04157" lon="3.98476">
        <ele>135.68</ele>
        <time>2016-04-10T15:37:57Z</time>
      </trkpt>
      <trkpt lat="44.04143" lon="3.98481">
        <ele>135.68</ele>
        <time>2016-04-10T15:37:58Z</time>
      </trkpt>
      <trkpt lat="44.04129" lon="3.98489">
        <ele>135.68</ele>
        <time>2016-04-10T15:37:59Z</time>
      </trkpt>
      <trkpt lat="44.04116" lon="3.98501">
        <ele>136.16</ele>
        <time>2016-04-10T15:38:00Z</time>
      </trkpt>
      <trkpt lat="44.04103" lon="3.98515">
        <ele>136.16</ele>
        <time>2016-04-10T15:38:01Z</time>
      </trkpt>
      <trkpt lat="44.04092" lon="3.98532">
        <ele>136.64</ele>
        <time>2016-04-10T15:38:02Z</time>
      </trkpt>
      <trkpt lat="44.04082" lon="3.98551">
        <ele>136.64</ele>
        <time>2016-04-10T15:38:03Z</time>
      </trkpt>
      <trkpt lat="44.04072" lon="3.98571">
        <ele>136.64</ele>
        <time>2016-04-10T15:38:04Z</time>
      </trkpt>
      <trkpt lat="44.04021" lon="3.98692">
        <ele>137.61</ele>
        <time>2016-04-10T15:38:11Z</time>
      </trkpt>
      <trkpt lat="44.03914" lon="3.98921">
        <ele>134.72</ele>
        <time>2016-04-10T15:38:24Z</time>
      </trkpt>
      <trkpt lat="44.03898" lon="3.98951">
        <ele>134.72</ele>
        <time>2016-04-10T15:38:26Z</time>
      </trkpt>
      <trkpt lat="44.03893" lon="3.98967">
        <ele>134.24</ele>
        <time>2016-04-10T15:38:27Z</time>
      </trkpt>
      <trkpt lat="44.0389" lon="3.98983">
        <ele>133.76</ele>
        <time>2016-04-10T15:38:28Z</time>
      </trkpt>
      <trkpt lat="44.03892" lon="3.98999">
        <ele>133.28</ele>
        <time>2016-04-10T15:38:29Z</time>
      </trkpt>
      <trkpt lat="44.03897" lon="3.99017">
        <ele>131.84</ele>
        <time>2016-04-10T15:38:30Z</time>
      </trkpt>
      <trkpt lat="44.03901" lon="3.99034">
        <ele>131.36</ele>
        <time>2016-04-10T15:38:31Z</time>
      </trkpt>
      <trkpt lat="44.03906" lon="3.99052">
        <ele>131.84</ele>
        <time>2016-04-10T15:38:32Z</time>
      </trkpt>
      <trkpt lat="44.03907" lon="3.9907">
        <ele>131.36</ele>
        <time>2016-04-10T15:38:33Z</time>
      </trkpt>
      <trkpt lat="44.03907" lon="3.99088">
        <ele>131.36</ele>
        <time>2016-04-10T15:38:34Z</time>
      </trkpt>
      <trkpt lat="44.03904" lon="3.99106">
        <ele>131.36</ele>
        <time>2016-04-10T15:38:35Z</time>
      </trkpt>
      <trkpt lat="44.039" lon="3.99123">
        <ele>130.88</ele>
        <time>2016-04-10T15:38:36Z</time>
      </trkpt>
      <trkpt lat="44.03894" lon="3.99139">
        <ele>130.4</ele>
        <time>2016-04-10T15:38:37Z</time>
      </trkpt>
      <trkpt lat="44.03887" lon="3.99154">
        <ele>130.88</ele>
        <time>2016-04-10T15:38:38Z</time>
      </trkpt>
      <trkpt lat="44.03844" lon="3.99278">
        <ele>129.92</ele>
        <time>2016-04-10T15:38:46Z</time>
      </trkpt>
      <trkpt lat="44.03834" lon="3.99343">
        <ele>128.47</ele>
        <time>2016-04-10T15:38:49Z</time>
      </trkpt>
      <trkpt lat="44.03834" lon="3.99365">
        <ele>127.99</ele>
        <time>2016-04-10T15:38:50Z</time>
      </trkpt>
      <trkpt lat="44.03851" lon="3.99567">
        <ele>126.07</ele>
        <time>2016-04-10T15:38:59Z</time>
      </trkpt>
      <trkpt lat="44.03856" lon="3.99628">
        <ele>126.07</ele>
        <time>2016-04-10T15:39:02Z</time>
      </trkpt>
      <trkpt lat="44.03851" lon="3.99806">
        <ele>125.11</ele>
        <time>2016-04-10T15:39:11Z</time>
      </trkpt>
      <trkpt lat="44.03846" lon="3.99994">
        <ele>125.11</ele>
        <time>2016-04-10T15:39:21Z</time>
      </trkpt>
      <trkpt lat="44.03838" lon="4.00025">
        <ele>125.59</ele>
        <time>2016-04-10T15:39:23Z</time>
      </trkpt>
      <trkpt lat="44.03828" lon="4.00036">
        <ele>126.07</ele>
        <time>2016-04-10T15:39:24Z</time>
      </trkpt>
      <trkpt lat="44.03817" lon="4.00045">
        <ele>126.55</ele>
        <time>2016-04-10T15:39:25Z</time>
      </trkpt>
      <trkpt lat="44.03805" lon="4.00049">
        <ele>127.03</ele>
        <time>2016-04-10T15:39:26Z</time>
      </trkpt>
      <trkpt lat="44.03792" lon="4.00053">
        <ele>127.51</ele>
        <time>2016-04-10T15:39:27Z</time>
      </trkpt>
      <trkpt lat="44.0378" lon="4.00056">
        <ele>127.99</ele>
        <time>2016-04-10T15:39:28Z</time>
      </trkpt>
      <trkpt lat="44.03723" lon="4.00078">
        <ele>126.55</ele>
        <time>2016-04-10T15:39:33Z</time>
      </trkpt>
      <trkpt lat="44.03714" lon="4.00087">
        <ele>126.55</ele>
        <time>2016-04-10T15:39:34Z</time>
      </trkpt>
      <trkpt lat="44.03707" lon="4.001">
        <ele>126.07</ele>
        <time>2016-04-10T15:39:35Z</time>
      </trkpt>
      <trkpt lat="44.03701" lon="4.00115">
        <ele>125.59</ele>
        <time>2016-04-10T15:39:36Z</time>
      </trkpt>
      <trkpt lat="44.03696" lon="4.00132">
        <ele>125.11</ele>
        <time>2016-04-10T15:39:37Z</time>
      </trkpt>
      <trkpt lat="44.03629" lon="4.00273">
        <ele>126.07</ele>
        <time>2016-04-10T15:39:47Z</time>
      </trkpt>
      <trkpt lat="44.03605" lon="4.00306">
        <ele>126.07</ele>
        <time>2016-04-10T15:39:50Z</time>
      </trkpt>
      <trkpt lat="44.03596" lon="4.00314">
        <ele>126.07</ele>
        <time>2016-04-10T15:39:51Z</time>
      </trkpt>
      <trkpt lat="44.03586" lon="4.0032">
        <ele>126.07</ele>
        <time>2016-04-10T15:39:52Z</time>
      </trkpt>
      <trkpt lat="44.03559" lon="4.00332">
        <ele>126.07</ele>
        <time>2016-04-10T15:39:55Z</time>
      </trkpt>
      <trkpt lat="44.03549" lon="4.00333">
        <ele>126.07</ele>
        <time>2016-04-10T15:39:56Z</time>
      </trkpt>
      <trkpt lat="44.03537" lon="4.00334">
        <ele>125.59</ele>
        <time>2016-04-10T15:39:57Z</time>
      </trkpt>
      <trkpt lat="44.03451" lon="4.0033">
        <ele>124.15</ele>
        <time>2016-04-10T15:40:05Z</time>
      </trkpt>
      <trkpt lat="44.03307" lon="4.00303">
        <ele>125.59</ele>
        <time>2016-04-10T15:40:14Z</time>
      </trkpt>
      <trkpt lat="44.03219" lon="4.00285">
        <ele>127.03</ele>
        <time>2016-04-10T15:40:19Z</time>
      </trkpt>
      <trkpt lat="44.03201" lon="4.00285">
        <ele>127.51</ele>
        <time>2016-04-10T15:40:20Z</time>
      </trkpt>
      <trkpt lat="44.03183" lon="4.00288">
        <ele>127.51</ele>
        <time>2016-04-10T15:40:21Z</time>
      </trkpt>
      <trkpt lat="44.03099" lon="4.00309">
        <ele>128.47</ele>
        <time>2016-04-10T15:40:26Z</time>
      </trkpt>
      <trkpt lat="44.03084" lon="4.00317">
        <ele>128.47</ele>
        <time>2016-04-10T15:40:27Z</time>
      </trkpt>
      <trkpt lat="44.03069" lon="4.00328">
        <ele>128.95</ele>
        <time>2016-04-10T15:40:28Z</time>
      </trkpt>
      <trkpt lat="44.03055" lon="4.00343">
        <ele>129.43</ele>
        <time>2016-04-10T15:40:29Z</time>
      </trkpt>
      <trkpt lat="44.03041" lon="4.0036">
        <ele>128.95</ele>
        <time>2016-04-10T15:40:30Z</time>
      </trkpt>
      <trkpt lat="44.02896" lon="4.00528">
        <ele>127.51</ele>
        <time>2016-04-10T15:40:40Z</time>
      </trkpt>
      <trkpt lat="44.02768" lon="4.00623">
        <ele>126.55</ele>
        <time>2016-04-10T15:40:49Z</time>
      </trkpt>
      <trkpt lat="44.02727" lon="4.0064">
        <ele>126.55</ele>
        <time>2016-04-10T15:40:52Z</time>
      </trkpt>
      <trkpt lat="44.02711" lon="4.00643">
        <ele>126.55</ele>
        <time>2016-04-10T15:40:53Z</time>
      </trkpt>
      <trkpt lat="44.02695" lon="4.00644">
        <ele>126.55</ele>
        <time>2016-04-10T15:40:54Z</time>
      </trkpt>
      <trkpt lat="44.0258" lon="4.00647">
        <ele>126.07</ele>
        <time>2016-04-10T15:40:59Z</time>
      </trkpt>
      <trkpt lat="44.02423" lon="4.00656">
        <ele>125.11</ele>
        <time>2016-04-10T15:41:06Z</time>
      </trkpt>
      <trkpt lat="44.02331" lon="4.00675">
        <ele>127.51</ele>
        <time>2016-04-10T15:41:13Z</time>
      </trkpt>
      <trkpt lat="44.02216" lon="4.00727">
        <ele>129.43</ele>
        <time>2016-04-10T15:41:23Z</time>
      </trkpt>
      <trkpt lat="44.02108" lon="4.0075">
        <ele>130.88</ele>
        <time>2016-04-10T15:41:32Z</time>
      </trkpt>
      <trkpt lat="44.01991" lon="4.00761">
        <ele>131.84</ele>
        <time>2016-04-10T15:41:43Z</time>
      </trkpt>
      <trkpt lat="44.01944" lon="4.00766">
        <ele>135.68</ele>
        <time>2016-04-10T15:41:51Z</time>
      </trkpt>
      <trkpt lat="44.01871" lon="4.00776">
        <ele>136.64</ele>
        <time>2016-04-10T15:41:58Z</time>
      </trkpt>
      <trkpt lat="44.01727" lon="4.0082">
        <ele>136.64</ele>
        <time>2016-04-10T15:42:08Z</time>
      </trkpt>
      <trkpt lat="44.01556" lon="4.00878">
        <ele>137.61</ele>
        <time>2016-04-10T15:42:17Z</time>
      </trkpt>
      <trkpt lat="44.01314" lon="4.00915">
        <ele>144.34</ele>
        <time>2016-04-10T15:42:28Z</time>
      </trkpt>
      <trkpt lat="44.01127" lon="4.0087">
        <ele>146.74</ele>
        <time>2016-04-10T15:42:36Z</time>
      </trkpt>
      <trkpt lat="44.00906" lon="4.00849">
        <ele>153.47</ele>
        <time>2016-04-10T15:42:45Z</time>
      </trkpt>
      <trkpt lat="44.00688" lon="4.00843">
        <ele>162.6</ele>
        <time>2016-04-10T15:42:54Z</time>
      </trkpt>
      <trkpt lat="44.00432" lon="4.0081">
        <ele>168.85</ele>
        <time>2016-04-10T15:43:05Z</time>
      </trkpt>
      <trkpt lat="44.00409" lon="4.00797">
        <ele>169.81</ele>
        <time>2016-04-10T15:43:06Z</time>
      </trkpt>
      <trkpt lat="44.00387" lon="4.00782">
        <ele>170.29</ele>
        <time>2016-04-10T15:43:07Z</time>
      </trkpt>
      <trkpt lat="44.00368" lon="4.00763">
        <ele>170.77</ele>
        <time>2016-04-10T15:43:08Z</time>
      </trkpt>
      <trkpt lat="44.00352" lon="4.00742">
        <ele>170.77</ele>
        <time>2016-04-10T15:43:09Z</time>
      </trkpt>
      <trkpt lat="44.00338" lon="4.00719">
        <ele>171.73</ele>
        <time>2016-04-10T15:43:10Z</time>
      </trkpt>
      <trkpt lat="44.00326" lon="4.00696">
        <ele>171.25</ele>
        <time>2016-04-10T15:43:11Z</time>
      </trkpt>
      <trkpt lat="44.00299" lon="4.00651">
        <ele>171.73</ele>
        <time>2016-04-10T15:43:13Z</time>
      </trkpt>
      <trkpt lat="44.00283" lon="4.00636">
        <ele>171.73</ele>
        <time>2016-04-10T15:43:14Z</time>
      </trkpt>
      <trkpt lat="44.00264" lon="4.00625">
        <ele>172.69</ele>
        <time>2016-04-10T15:43:15Z</time>
      </trkpt>
      <trkpt lat="44.00243" lon="4.00616">
        <ele>173.17</ele>
        <time>2016-04-10T15:43:16Z</time>
      </trkpt>
      <trkpt lat="44.00221" lon="4.00609">
        <ele>174.62</ele>
        <time>2016-04-10T15:43:17Z</time>
      </trkpt>
      <trkpt lat="44.00201" lon="4.006">
        <ele>175.58</ele>
        <time>2016-04-10T15:43:18Z</time>
      </trkpt>
      <trkpt lat="44.00183" lon="4.00588">
        <ele>176.06</ele>
        <time>2016-04-10T15:43:19Z</time>
      </trkpt>
      <trkpt lat="44.00164" lon="4.0057">
        <ele>176.54</ele>
        <time>2016-04-10T15:43:20Z</time>
      </trkpt>
      <trkpt lat="44.00147" lon="4.00551">
        <ele>177.02</ele>
        <time>2016-04-10T15:43:21Z</time>
      </trkpt>
      <trkpt lat="44.00129" lon="4.00532">
        <ele>177.5</ele>
        <time>2016-04-10T15:43:22Z</time>
      </trkpt>
      <trkpt lat="44.00078" lon="4.0048">
        <ele>177.5</ele>
        <time>2016-04-10T15:43:25Z</time>
      </trkpt>
      <trkpt lat="44.00065" lon="4.0046">
        <ele>177.5</ele>
        <time>2016-04-10T15:43:26Z</time>
      </trkpt>
      <trkpt lat="44.0004" lon="4.0042">
        <ele>177.5</ele>
        <time>2016-04-10T15:43:28Z</time>
      </trkpt>
      <trkpt lat="44.00023" lon="4.00404">
        <ele>177.02</ele>
        <time>2016-04-10T15:43:29Z</time>
      </trkpt>
      <trkpt lat="44.00003" lon="4.00392">
        <ele>177.02</ele>
        <time>2016-04-10T15:43:30Z</time>
      </trkpt>
      <trkpt lat="43.99981" lon="4.00382">
        <ele>177.5</ele>
        <time>2016-04-10T15:43:31Z</time>
      </trkpt>
      <trkpt lat="43.99958" lon="4.00373">
        <ele>177.98</ele>
        <time>2016-04-10T15:43:32Z</time>
      </trkpt>
      <trkpt lat="43.99898" lon="4.00343">
        <ele>179.42</ele>
        <time>2016-04-10T15:43:35Z</time>
      </trkpt>
      <trkpt lat="43.9988" lon="4.00328">
        <ele>179.42</ele>
        <time>2016-04-10T15:43:36Z</time>
      </trkpt>
      <trkpt lat="43.99775" lon="4.00237">
        <ele>175.58</ele>
        <time>2016-04-10T15:43:42Z</time>
      </trkpt>
      <trkpt lat="43.99755" lon="4.0023">
        <ele>175.1</ele>
        <time>2016-04-10T15:43:43Z</time>
      </trkpt>
      <trkpt lat="43.99734" lon="4.00228">
        <ele>174.62</ele>
        <time>2016-04-10T15:43:44Z</time>
      </trkpt>
      <trkpt lat="43.99711" lon="4.00227">
        <ele>173.66</ele>
        <time>2016-04-10T15:43:45Z</time>
      </trkpt>
      <trkpt lat="43.99687" lon="4.00226">
        <ele>173.17</ele>
        <time>2016-04-10T15:43:46Z</time>
      </trkpt>
      <trkpt lat="43.99575" lon="4.00217">
        <ele>169.33</ele>
        <time>2016-04-10T15:43:51Z</time>
      </trkpt>
      <trkpt lat="43.99555" lon="4.00206">
        <ele>168.85</ele>
        <time>2016-04-10T15:43:52Z</time>
      </trkpt>
      <trkpt lat="43.99535" lon="4.00192">
        <ele>168.85</ele>
        <time>2016-04-10T15:43:53Z</time>
      </trkpt>
      <trkpt lat="43.99515" lon="4.00175">
        <ele>169.33</ele>
        <time>2016-04-10T15:43:54Z</time>
      </trkpt>
      <trkpt lat="43.99497" lon="4.00158">
        <ele>169.33</ele>
        <time>2016-04-10T15:43:55Z</time>
      </trkpt>
      <trkpt lat="43.99477" lon="4.00143">
        <ele>169.33</ele>
        <time>2016-04-10T15:43:56Z</time>
      </trkpt>
      <trkpt lat="43.99458" lon="4.00133">
        <ele>168.85</ele>
        <time>2016-04-10T15:43:57Z</time>
      </trkpt>
      <trkpt lat="43.99437" lon="4.00129">
        <ele>168.85</ele>
        <time>2016-04-10T15:43:58Z</time>
      </trkpt>
      <trkpt lat="43.99414" lon="4.0013">
        <ele>168.37</ele>
        <time>2016-04-10T15:43:59Z</time>
      </trkpt>
      <trkpt lat="43.99391" lon="4.00134">
        <ele>167.41</ele>
        <time>2016-04-10T15:44:00Z</time>
      </trkpt>
      <trkpt lat="43.99367" lon="4.0014">
        <ele>165.96</ele>
        <time>2016-04-10T15:44:01Z</time>
      </trkpt>
      <trkpt lat="43.99231" lon="4.00145">
        <ele>161.16</ele>
        <time>2016-04-10T15:44:07Z</time>
      </trkpt>
      <trkpt lat="43.9921" lon="4.00151">
        <ele>160.68</ele>
        <time>2016-04-10T15:44:08Z</time>
      </trkpt>
      <trkpt lat="43.99191" lon="4.00161">
        <ele>160.2</ele>
        <time>2016-04-10T15:44:09Z</time>
      </trkpt>
      <trkpt lat="43.99173" lon="4.00172">
        <ele>160.2</ele>
        <time>2016-04-10T15:44:10Z</time>
      </trkpt>
      <trkpt lat="43.99124" lon="4.00201">
        <ele>159.72</ele>
        <time>2016-04-10T15:44:13Z</time>
      </trkpt>
      <trkpt lat="43.99107" lon="4.00203">
        <ele>159.24</ele>
        <time>2016-04-10T15:44:14Z</time>
      </trkpt>
      <trkpt lat="43.99089" lon="4.00202">
        <ele>158.75</ele>
        <time>2016-04-10T15:44:15Z</time>
      </trkpt>
      <trkpt lat="43.99072" lon="4.00199">
        <ele>158.27</ele>
        <time>2016-04-10T15:44:16Z</time>
      </trkpt>
      <trkpt lat="43.99054" lon="4.00194">
        <ele>157.31</ele>
        <time>2016-04-10T15:44:17Z</time>
      </trkpt>
      <trkpt lat="43.99036" lon="4.00186">
        <ele>156.83</ele>
        <time>2016-04-10T15:44:18Z</time>
      </trkpt>
      <trkpt lat="43.99018" lon="4.00176">
        <ele>155.87</ele>
        <time>2016-04-10T15:44:19Z</time>
      </trkpt>
      <trkpt lat="43.98999" lon="4.00164">
        <ele>154.43</ele>
        <time>2016-04-10T15:44:20Z</time>
      </trkpt>
      <trkpt lat="43.98797" lon="4.00039">
        <ele>144.34</ele>
        <time>2016-04-10T15:44:30Z</time>
      </trkpt>
      <trkpt lat="43.98596" lon="3.99952">
        <ele>137.61</ele>
        <time>2016-04-10T15:44:39Z</time>
      </trkpt>
      <trkpt lat="43.98507" lon="3.99903">
        <ele>136.16</ele>
        <time>2016-04-10T15:44:43Z</time>
      </trkpt>
      <trkpt lat="43.9849" lon="3.99885">
        <ele>136.16</ele>
        <time>2016-04-10T15:44:44Z</time>
      </trkpt>
      <trkpt lat="43.98386" lon="3.99744">
        <ele>138.09</ele>
        <time>2016-04-10T15:44:50Z</time>
      </trkpt>
      <trkpt lat="43.98334" lon="3.99664">
        <ele>141.45</ele>
        <time>2016-04-10T15:44:53Z</time>
      </trkpt>
      <trkpt lat="43.98312" lon="3.99642">
        <ele>142.41</ele>
        <time>2016-04-10T15:44:54Z</time>
      </trkpt>
      <trkpt lat="43.98287" lon="3.99622">
        <ele>143.37</ele>
        <time>2016-04-10T15:44:55Z</time>
      </trkpt>
      <trkpt lat="43.9811" lon="3.99506">
        <ele>147.22</ele>
        <time>2016-04-10T15:45:02Z</time>
      </trkpt>
      <trkpt lat="43.98056" lon="3.99472">
        <ele>148.18</ele>
        <time>2016-04-10T15:45:05Z</time>
      </trkpt>
      <trkpt lat="43.98044" lon="3.99456">
        <ele>148.18</ele>
        <time>2016-04-10T15:45:06Z</time>
      </trkpt>
      <trkpt lat="43.98037" lon="3.99437">
        <ele>148.18</ele>
        <time>2016-04-10T15:45:07Z</time>
      </trkpt>
      <trkpt lat="43.98031" lon="3.99417">
        <ele>148.18</ele>
        <time>2016-04-10T15:45:08Z</time>
      </trkpt>
      <trkpt lat="43.98025" lon="3.99396">
        <ele>147.7</ele>
        <time>2016-04-10T15:45:09Z</time>
      </trkpt>
      <trkpt lat="43.98016" lon="3.99378">
        <ele>146.74</ele>
        <time>2016-04-10T15:45:10Z</time>
      </trkpt>
      <trkpt lat="43.98003" lon="3.99366">
        <ele>146.26</ele>
        <time>2016-04-10T15:45:11Z</time>
      </trkpt>
      <trkpt lat="43.97984" lon="3.99356">
        <ele>145.78</ele>
        <time>2016-04-10T15:45:12Z</time>
      </trkpt>
      <trkpt lat="43.97964" lon="3.99347">
        <ele>145.78</ele>
        <time>2016-04-10T15:45:13Z</time>
      </trkpt>
      <trkpt lat="43.9794" lon="3.99339">
        <ele>145.78</ele>
        <time>2016-04-10T15:45:14Z</time>
      </trkpt>
      <trkpt lat="43.97917" lon="3.9933">
        <ele>146.26</ele>
        <time>2016-04-10T15:45:15Z</time>
      </trkpt>
      <trkpt lat="43.97793" lon="3.99248">
        <ele>147.22</ele>
        <time>2016-04-10T15:45:21Z</time>
      </trkpt>
      <trkpt lat="43.97669" lon="3.99189">
        <ele>145.78</ele>
        <time>2016-04-10T15:45:27Z</time>
      </trkpt>
      <trkpt lat="43.9765" lon="3.99182">
        <ele>145.3</ele>
        <time>2016-04-10T15:45:28Z</time>
      </trkpt>
      <trkpt lat="43.9763" lon="3.99181">
        <ele>144.82</ele>
        <time>2016-04-10T15:45:29Z</time>
      </trkpt>
      <trkpt lat="43.97608" lon="3.99189">
        <ele>146.74</ele>
        <time>2016-04-10T15:45:30Z</time>
      </trkpt>
      <trkpt lat="43.97585" lon="3.992">
        <ele>147.7</ele>
        <time>2016-04-10T15:45:31Z</time>
      </trkpt>
      <trkpt lat="43.97565" lon="3.99212">
        <ele>148.66</ele>
        <time>2016-04-10T15:45:32Z</time>
      </trkpt>
      <trkpt lat="43.97547" lon="3.99224">
        <ele>149.14</ele>
        <time>2016-04-10T15:45:33Z</time>
      </trkpt>
      <trkpt lat="43.97506" lon="3.99254">
        <ele>151.54</ele>
        <time>2016-04-10T15:45:36Z</time>
      </trkpt>
      <trkpt lat="43.97493" lon="3.99259">
        <ele>151.54</ele>
        <time>2016-04-10T15:45:37Z</time>
      </trkpt>
      <trkpt lat="43.9748" lon="3.99262">
        <ele>152.03</ele>
        <time>2016-04-10T15:45:38Z</time>
      </trkpt>
      <trkpt lat="43.97377" lon="3.99261">
        <ele>150.1</ele>
        <time>2016-04-10T15:45:47Z</time>
      </trkpt>
      <trkpt lat="43.97365" lon="3.99264">
        <ele>149.62</ele>
        <time>2016-04-10T15:45:48Z</time>
      </trkpt>
      <trkpt lat="43.97263" lon="3.99275">
        <ele>145.78</ele>
        <time>2016-04-10T15:45:58Z</time>
      </trkpt>
      <trkpt lat="43.97197" lon="3.99256">
        <ele>146.26</ele>
        <time>2016-04-10T15:46:05Z</time>
      </trkpt>
      <trkpt lat="43.97188" lon="3.99254">
        <ele>145.3</ele>
        <time>2016-04-10T15:46:06Z</time>
      </trkpt>
      <trkpt lat="43.97086" lon="3.9925">
        <ele>140.49</ele>
        <time>2016-04-10T15:46:15Z</time>
      </trkpt>
      <trkpt lat="43.96988" lon="3.9925">
        <ele>135.2</ele>
        <time>2016-04-10T15:46:24Z</time>
      </trkpt>
      <trkpt lat="43.9689" lon="3.99283">
        <ele>131.84</ele>
        <time>2016-04-10T15:46:32Z</time>
      </trkpt>
      <trkpt lat="43.96829" lon="3.99304">
        <ele>129.43</ele>
        <time>2016-04-10T15:46:38Z</time>
      </trkpt>
      <trkpt lat="43.96701" lon="3.99337">
        <ele>125.59</ele>
        <time>2016-04-10T15:46:45Z</time>
      </trkpt>
      <trkpt lat="43.96507" lon="3.9935">
        <ele>116.46</ele>
        <time>2016-04-10T15:46:53Z</time>
      </trkpt>
      <trkpt lat="43.96357" lon="3.99352">
        <ele>113.09</ele>
        <time>2016-04-10T15:46:59Z</time>
      </trkpt>
      <trkpt lat="43.96331" lon="3.9936">
        <ele>113.09</ele>
        <time>2016-04-10T15:47:00Z</time>
      </trkpt>
      <trkpt lat="43.96191" lon="3.99404">
        <ele>111.17</ele>
        <time>2016-04-10T15:47:06Z</time>
      </trkpt>
      <trkpt lat="43.96149" lon="3.99417">
        <ele>110.21</ele>
        <time>2016-04-10T15:47:08Z</time>
      </trkpt>
      <trkpt lat="43.96128" lon="3.9943">
        <ele>109.73</ele>
        <time>2016-04-10T15:47:09Z</time>
      </trkpt>
      <trkpt lat="43.96107" lon="3.99448">
        <ele>108.77</ele>
        <time>2016-04-10T15:47:10Z</time>
      </trkpt>
      <trkpt lat="43.95977" lon="3.99551">
        <ele>100.6</ele>
        <time>2016-04-10T15:47:16Z</time>
      </trkpt>
      <trkpt lat="43.95956" lon="3.99554">
        <ele>99.63</ele>
        <time>2016-04-10T15:47:17Z</time>
      </trkpt>
      <trkpt lat="43.95934" lon="3.9955">
        <ele>98.19</ele>
        <time>2016-04-10T15:47:18Z</time>
      </trkpt>
      <trkpt lat="43.95913" lon="3.99542">
        <ele>97.23</ele>
        <time>2016-04-10T15:47:19Z</time>
      </trkpt>
      <trkpt lat="43.95892" lon="3.99526">
        <ele>97.71</ele>
        <time>2016-04-10T15:47:20Z</time>
      </trkpt>
      <trkpt lat="43.95872" lon="3.9951">
        <ele>97.71</ele>
        <time>2016-04-10T15:47:21Z</time>
      </trkpt>
      <trkpt lat="43.95854" lon="3.99494">
        <ele>97.71</ele>
        <time>2016-04-10T15:47:22Z</time>
      </trkpt>
      <trkpt lat="43.95801" lon="3.99457">
        <ele>96.27</ele>
        <time>2016-04-10T15:47:25Z</time>
      </trkpt>
      <trkpt lat="43.95783" lon="3.99453">
        <ele>95.31</ele>
        <time>2016-04-10T15:47:26Z</time>
      </trkpt>
      <trkpt lat="43.95764" lon="3.99456">
        <ele>94.35</ele>
        <time>2016-04-10T15:47:27Z</time>
      </trkpt>
      <trkpt lat="43.95744" lon="3.99471">
        <ele>94.83</ele>
        <time>2016-04-10T15:47:28Z</time>
      </trkpt>
      <trkpt lat="43.95724" lon="3.99487">
        <ele>94.35</ele>
        <time>2016-04-10T15:47:29Z</time>
      </trkpt>
      <trkpt lat="43.95704" lon="3.99506">
        <ele>94.35</ele>
        <time>2016-04-10T15:47:30Z</time>
      </trkpt>
      <trkpt lat="43.95683" lon="3.99526">
        <ele>94.35</ele>
        <time>2016-04-10T15:47:31Z</time>
      </trkpt>
      <trkpt lat="43.95584" lon="3.99619">
        <ele>95.79</ele>
        <time>2016-04-10T15:47:36Z</time>
      </trkpt>
      <trkpt lat="43.95571" lon="3.99644">
        <ele>95.79</ele>
        <time>2016-04-10T15:47:37Z</time>
      </trkpt>
      <trkpt lat="43.95559" lon="3.99668">
        <ele>95.79</ele>
        <time>2016-04-10T15:47:38Z</time>
      </trkpt>
      <trkpt lat="43.95533" lon="3.99715">
        <ele>95.79</ele>
        <time>2016-04-10T15:47:40Z</time>
      </trkpt>
      <trkpt lat="43.95514" lon="3.99734">
        <ele>95.79</ele>
        <time>2016-04-10T15:47:41Z</time>
      </trkpt>
      <trkpt lat="43.95493" lon="3.99753">
        <ele>95.79</ele>
        <time>2016-04-10T15:47:42Z</time>
      </trkpt>
      <trkpt lat="43.95299" lon="3.99893">
        <ele>96.75</ele>
        <time>2016-04-10T15:47:51Z</time>
      </trkpt>
      <trkpt lat="43.95084" lon="3.99974">
        <ele>96.27</ele>
        <time>2016-04-10T15:48:00Z</time>
      </trkpt>
      <trkpt lat="43.94887" lon="4.00066">
        <ele>99.63</ele>
        <time>2016-04-10T15:48:08Z</time>
      </trkpt>
      <trkpt lat="43.94669" lon="4.00164">
        <ele>96.75</ele>
        <time>2016-04-10T15:48:17Z</time>
      </trkpt>
      <trkpt lat="43.94568" lon="4.0021">
        <ele>96.27</ele>
        <time>2016-04-10T15:48:22Z</time>
      </trkpt>
      <trkpt lat="43.94554" lon="4.00226">
        <ele>96.27</ele>
        <time>2016-04-10T15:48:23Z</time>
      </trkpt>
      <trkpt lat="43.94539" lon="4.00241">
        <ele>95.79</ele>
        <time>2016-04-10T15:48:24Z</time>
      </trkpt>
      <trkpt lat="43.94523" lon="4.0025">
        <ele>95.79</ele>
        <time>2016-04-10T15:48:25Z</time>
      </trkpt>
      <trkpt lat="43.94504" lon="4.00252">
        <ele>95.31</ele>
        <time>2016-04-10T15:48:26Z</time>
      </trkpt>
      <trkpt lat="43.94482" lon="4.0025">
        <ele>95.31</ele>
        <time>2016-04-10T15:48:27Z</time>
      </trkpt>
      <trkpt lat="43.94457" lon="4.00246">
        <ele>95.79</ele>
        <time>2016-04-10T15:48:28Z</time>
      </trkpt>
      <trkpt lat="43.94431" lon="4.00242">
        <ele>96.27</ele>
        <time>2016-04-10T15:48:29Z</time>
      </trkpt>
      <trkpt lat="43.94087" lon="4.00194">
        <ele>97.71</ele>
        <time>2016-04-10T15:48:42Z</time>
      </trkpt>
      <trkpt lat="43.93862" lon="4.00156">
        <ele>102.52</ele>
        <time>2016-04-10T15:48:51Z</time>
      </trkpt>
      <trkpt lat="43.93728" lon="4.00129">
        <ele>106.36</ele>
        <time>2016-04-10T15:48:58Z</time>
      </trkpt>
      <trkpt lat="43.93712" lon="4.0013">
        <ele>106.84</ele>
        <time>2016-04-10T15:48:59Z</time>
      </trkpt>
      <trkpt lat="43.93695" lon="4.00134">
        <ele>107.32</ele>
        <time>2016-04-10T15:49:00Z</time>
      </trkpt>
      <trkpt lat="43.93678" lon="4.00141">
        <ele>107.81</ele>
        <time>2016-04-10T15:49:01Z</time>
      </trkpt>
      <trkpt lat="43.93536" lon="4.00183">
        <ele>108.77</ele>
        <time>2016-04-10T15:49:07Z</time>
      </trkpt>
      <trkpt lat="43.93324" lon="4.00245">
        <ele>109.73</ele>
        <time>2016-04-10T15:49:15Z</time>
      </trkpt>
      <trkpt lat="43.93062" lon="4.00321">
        <ele>113.57</ele>
        <time>2016-04-10T15:49:25Z</time>
      </trkpt>
      <trkpt lat="43.92898" lon="4.00358">
        <ele>111.17</ele>
        <time>2016-04-10T15:49:31Z</time>
      </trkpt>
      <trkpt lat="43.92608" lon="4.00442">
        <ele>106.84</ele>
        <time>2016-04-10T15:49:41Z</time>
      </trkpt>
      <trkpt lat="43.92232" lon="4.00537">
        <ele>99.15</ele>
        <time>2016-04-10T15:49:55Z</time>
      </trkpt>
      <trkpt lat="43.92031" lon="4.00549">
        <ele>96.75</ele>
        <time>2016-04-10T15:50:03Z</time>
      </trkpt>
      <trkpt lat="43.91967" lon="4.0056">
        <ele>95.31</ele>
        <time>2016-04-10T15:50:06Z</time>
      </trkpt>
      <trkpt lat="43.91945" lon="4.00569">
        <ele>94.83</ele>
        <time>2016-04-10T15:50:07Z</time>
      </trkpt>
      <trkpt lat="43.91848" lon="4.00609">
        <ele>92.42</ele>
        <time>2016-04-10T15:50:12Z</time>
      </trkpt>
      <trkpt lat="43.91831" lon="4.00607">
        <ele>91.94</ele>
        <time>2016-04-10T15:50:13Z</time>
      </trkpt>
      <trkpt lat="43.91813" lon="4.00599">
        <ele>91.46</ele>
        <time>2016-04-10T15:50:14Z</time>
      </trkpt>
      <trkpt lat="43.91795" lon="4.00588">
        <ele>91.46</ele>
        <time>2016-04-10T15:50:15Z</time>
      </trkpt>
      <trkpt lat="43.91776" lon="4.00576">
        <ele>91.46</ele>
        <time>2016-04-10T15:50:16Z</time>
      </trkpt>
      <trkpt lat="43.91758" lon="4.00563">
        <ele>91.46</ele>
        <time>2016-04-10T15:50:17Z</time>
      </trkpt>
      <trkpt lat="43.91634" lon="4.0048">
        <ele>90.98</ele>
        <time>2016-04-10T15:50:25Z</time>
      </trkpt>
      <trkpt lat="43.91476" lon="4.00408">
        <ele>92.42</ele>
        <time>2016-04-10T15:50:35Z</time>
      </trkpt>
      <trkpt lat="43.91341" lon="4.00354">
        <ele>92.42</ele>
        <time>2016-04-10T15:50:44Z</time>
      </trkpt>
      <trkpt lat="43.91231" lon="4.00325">
        <ele>90.02</ele>
        <time>2016-04-10T15:50:53Z</time>
      </trkpt>
      <trkpt lat="43.91159" lon="4.00309">
        <ele>89.06</ele>
        <time>2016-04-10T15:51:01Z</time>
      </trkpt>
      <trkpt lat="43.91153" lon="4.00303">
        <ele>89.06</ele>
        <time>2016-04-10T15:51:02Z</time>
      </trkpt>
      <trkpt lat="43.9114" lon="4.0029">
        <ele>88.58</ele>
        <time>2016-04-10T15:51:04Z</time>
      </trkpt>
      <trkpt lat="43.91125" lon="4.00279">
        <ele>87.62</ele>
        <time>2016-04-10T15:51:06Z</time>
      </trkpt>
      <trkpt lat="43.91053" lon="4.00188">
        <ele>86.18</ele>
        <time>2016-04-10T15:51:17Z</time>
      </trkpt>
      <trkpt lat="43.91047" lon="4.00187">
        <ele>85.21</ele>
        <time>2016-04-10T15:51:18Z</time>
      </trkpt>
      <trkpt lat="43.91042" lon="4.00192">
        <ele>84.25</ele>
        <time>2016-04-10T15:51:19Z</time>
      </trkpt>
      <trkpt lat="43.91036" lon="4.002">
        <ele>84.25</ele>
        <time>2016-04-10T15:51:20Z</time>
      </trkpt>
      <trkpt lat="43.91029" lon="4.00209">
        <ele>83.77</ele>
        <time>2016-04-10T15:51:21Z</time>
      </trkpt>
      <trkpt lat="43.91021" lon="4.00219">
        <ele>83.29</ele>
        <time>2016-04-10T15:51:22Z</time>
      </trkpt>
      <trkpt lat="43.90929" lon="4.00279">
        <ele>79.93</ele>
        <time>2016-04-10T15:51:31Z</time>
      </trkpt>
      <trkpt lat="43.9078" lon="4.00342">
        <ele>75.6</ele>
        <time>2016-04-10T15:51:43Z</time>
      </trkpt>
      <trkpt lat="43.90769" lon="4.00352">
        <ele>75.6</ele>
        <time>2016-04-10T15:51:44Z</time>
      </trkpt>
      <trkpt lat="43.90758" lon="4.00364">
        <ele>74.64</ele>
        <time>2016-04-10T15:51:45Z</time>
      </trkpt>
      <trkpt lat="43.90748" lon="4.00378">
        <ele>74.16</ele>
        <time>2016-04-10T15:51:46Z</time>
      </trkpt>
      <trkpt lat="43.90737" lon="4.00394">
        <ele>73.68</ele>
        <time>2016-04-10T15:51:47Z</time>
      </trkpt>
      <trkpt lat="43.90683" lon="4.00467">
        <ele>71.76</ele>
        <time>2016-04-10T15:51:52Z</time>
      </trkpt>
      <trkpt lat="43.90672" lon="4.00477">
        <ele>71.76</ele>
        <time>2016-04-10T15:51:53Z</time>
      </trkpt>
      <trkpt lat="43.9066" lon="4.00485">
        <ele>71.27</ele>
        <time>2016-04-10T15:51:54Z</time>
      </trkpt>
      <trkpt lat="43.90648" lon="4.0049">
        <ele>71.27</ele>
        <time>2016-04-10T15:51:55Z</time>
      </trkpt>
      <trkpt lat="43.90637" lon="4.00489">
        <ele>71.76</ele>
        <time>2016-04-10T15:51:56Z</time>
      </trkpt>
      <trkpt lat="43.90626" lon="4.00485">
        <ele>71.27</ele>
        <time>2016-04-10T15:51:57Z</time>
      </trkpt>
      <trkpt lat="43.90618" lon="4.00476">
        <ele>71.76</ele>
        <time>2016-04-10T15:51:58Z</time>
      </trkpt>
      <trkpt lat="43.9061" lon="4.00462">
        <ele>72.72</ele>
        <time>2016-04-10T15:51:59Z</time>
      </trkpt>
      <trkpt lat="43.90602" lon="4.0045">
        <ele>72.72</ele>
        <time>2016-04-10T15:52:00Z</time>
      </trkpt>
      <trkpt lat="43.90592" lon="4.00441">
        <ele>73.2</ele>
        <time>2016-04-10T15:52:01Z</time>
      </trkpt>
      <trkpt lat="43.9058" lon="4.00438">
        <ele>73.2</ele>
        <time>2016-04-10T15:52:02Z</time>
      </trkpt>
      <trkpt lat="43.90569" lon="4.00435">
        <ele>73.2</ele>
        <time>2016-04-10T15:52:03Z</time>
      </trkpt>
      <trkpt lat="43.90558" lon="4.00429">
        <ele>73.68</ele>
        <time>2016-04-10T15:52:04Z</time>
      </trkpt>
      <trkpt lat="43.90548" lon="4.0042">
        <ele>73.68</ele>
        <time>2016-04-10T15:52:05Z</time>
      </trkpt>
      <trkpt lat="43.90538" lon="4.00409">
        <ele>74.16</ele>
        <time>2016-04-10T15:52:06Z</time>
      </trkpt>
      <trkpt lat="43.90423" lon="4.00257">
        <ele>75.6</ele>
        <time>2016-04-10T15:52:18Z</time>
      </trkpt>
      <trkpt lat="43.90336" lon="4.00138">
        <ele>76.56</ele>
        <time>2016-04-10T15:52:29Z</time>
      </trkpt>
      <trkpt lat="43.90321" lon="4.00107">
        <ele>77.04</ele>
        <time>2016-04-10T15:52:34Z</time>
      </trkpt>
      <trkpt lat="43.90315" lon="4.00101">
        <ele>77.04</ele>
        <time>2016-04-10T15:52:35Z</time>
      </trkpt>
      <trkpt lat="43.90308" lon="4.00101">
        <ele>77.52</ele>
        <time>2016-04-10T15:52:36Z</time>
      </trkpt>
      <trkpt lat="43.90301" lon="4.00106">
        <ele>77.52</ele>
        <time>2016-04-10T15:52:37Z</time>
      </trkpt>
      <trkpt lat="43.90296" lon="4.00113">
        <ele>78</ele>
        <time>2016-04-10T15:52:38Z</time>
      </trkpt>
      <trkpt lat="43.90292" lon="4.00121">
        <ele>77.52</ele>
        <time>2016-04-10T15:52:39Z</time>
      </trkpt>
      <trkpt lat="43.90289" lon="4.00128">
        <ele>77.52</ele>
        <time>2016-04-10T15:52:40Z</time>
      </trkpt>
      <trkpt lat="43.90285" lon="4.00133">
        <ele>77.52</ele>
        <time>2016-04-10T15:52:41Z</time>
      </trkpt>
      <trkpt lat="43.90279" lon="4.00136">
        <ele>77.04</ele>
        <time>2016-04-10T15:52:42Z</time>
      </trkpt>
      <trkpt lat="43.90274" lon="4.00137">
        <ele>77.04</ele>
        <time>2016-04-10T15:52:43Z</time>
      </trkpt>
      <trkpt lat="43.90268" lon="4.00136">
        <ele>77.04</ele>
        <time>2016-04-10T15:52:44Z</time>
      </trkpt>
      <trkpt lat="43.90261" lon="4.00133">
        <ele>77.04</ele>
        <time>2016-04-10T15:52:45Z</time>
      </trkpt>
      <trkpt lat="43.90255" lon="4.00129">
        <ele>76.56</ele>
        <time>2016-04-10T15:52:46Z</time>
      </trkpt>
      <trkpt lat="43.90248" lon="4.00125">
        <ele>76.56</ele>
        <time>2016-04-10T15:52:47Z</time>
      </trkpt>
      <trkpt lat="43.9023" lon="4.00116">
        <ele>76.08</ele>
        <time>2016-04-10T15:52:50Z</time>
      </trkpt>
      <trkpt lat="43.90227" lon="4.00115">
        <ele>76.08</ele>
        <time>2016-04-10T15:52:51Z</time>
      </trkpt>
      <trkpt lat="43.90226" lon="4.00114">
        <ele>76.08</ele>
        <time>2016-04-10T15:53:00Z</time>
      </trkpt>
      <trkpt lat="43.90201" lon="4.00114">
        <ele>75.6</ele>
        <time>2016-04-10T15:53:10Z</time>
      </trkpt>
      <trkpt lat="43.90115" lon="4.0011">
        <ele>74.16</ele>
        <time>2016-04-10T15:53:15Z</time>
      </trkpt>
      <trkpt lat="43.89952" lon="4.00133">
        <ele>69.35</ele>
        <time>2016-04-10T15:53:22Z</time>
      </trkpt>
      <trkpt lat="43.8976" lon="4.00193">
        <ele>68.39</ele>
        <time>2016-04-10T15:53:29Z</time>
      </trkpt>
      <trkpt lat="43.89544" lon="4.0025">
        <ele>65.99</ele>
        <time>2016-04-10T15:53:36Z</time>
      </trkpt>
      <trkpt lat="43.8938" lon="4.00276">
        <ele>67.91</ele>
        <time>2016-04-10T15:53:42Z</time>
      </trkpt>
      <trkpt lat="43.89357" lon="4.00269">
        <ele>68.39</ele>
        <time>2016-04-10T15:53:43Z</time>
      </trkpt>
      <trkpt lat="43.89336" lon="4.00262">
        <ele>68.87</ele>
        <time>2016-04-10T15:53:44Z</time>
      </trkpt>
      <trkpt lat="43.89317" lon="4.00249">
        <ele>69.35</ele>
        <time>2016-04-10T15:53:45Z</time>
      </trkpt>
      <trkpt lat="43.89302" lon="4.00232">
        <ele>70.31</ele>
        <time>2016-04-10T15:53:46Z</time>
      </trkpt>
      <trkpt lat="43.89288" lon="4.00214">
        <ele>71.27</ele>
        <time>2016-04-10T15:53:47Z</time>
      </trkpt>
      <trkpt lat="43.89274" lon="4.00196">
        <ele>71.76</ele>
        <time>2016-04-10T15:53:48Z</time>
      </trkpt>
      <trkpt lat="43.89261" lon="4.00181">
        <ele>72.24</ele>
        <time>2016-04-10T15:53:49Z</time>
      </trkpt>
      <trkpt lat="43.89248" lon="4.00169">
        <ele>73.2</ele>
        <time>2016-04-10T15:53:50Z</time>
      </trkpt>
      <trkpt lat="43.89233" lon="4.0016">
        <ele>73.2</ele>
        <time>2016-04-10T15:53:51Z</time>
      </trkpt>
      <trkpt lat="43.89217" lon="4.00156">
        <ele>73.2</ele>
        <time>2016-04-10T15:53:52Z</time>
      </trkpt>
      <trkpt lat="43.89197" lon="4.00158">
        <ele>73.68</ele>
        <time>2016-04-10T15:53:53Z</time>
      </trkpt>
      <trkpt lat="43.89176" lon="4.00159">
        <ele>74.16</ele>
        <time>2016-04-10T15:53:54Z</time>
      </trkpt>
      <trkpt lat="43.89057" lon="4.00161">
        <ele>76.08</ele>
        <time>2016-04-10T15:53:59Z</time>
      </trkpt>
      <trkpt lat="43.88942" lon="4.00192">
        <ele>73.2</ele>
        <time>2016-04-10T15:54:04Z</time>
      </trkpt>
      <trkpt lat="43.88922" lon="4.00209">
        <ele>72.72</ele>
        <time>2016-04-10T15:54:05Z</time>
      </trkpt>
      <trkpt lat="43.88903" lon="4.00231">
        <ele>72.24</ele>
        <time>2016-04-10T15:54:06Z</time>
      </trkpt>
      <trkpt lat="43.88884" lon="4.00255">
        <ele>71.76</ele>
        <time>2016-04-10T15:54:07Z</time>
      </trkpt>
      <trkpt lat="43.88867" lon="4.00282">
        <ele>71.76</ele>
        <time>2016-04-10T15:54:08Z</time>
      </trkpt>
      <trkpt lat="43.88852" lon="4.0031">
        <ele>71.27</ele>
        <time>2016-04-10T15:54:09Z</time>
      </trkpt>
      <trkpt lat="43.888" lon="4.00387">
        <ele>69.83</ele>
        <time>2016-04-10T15:54:12Z</time>
      </trkpt>
      <trkpt lat="43.88778" lon="4.00406">
        <ele>69.35</ele>
        <time>2016-04-10T15:54:13Z</time>
      </trkpt>
      <trkpt lat="43.88753" lon="4.00424">
        <ele>68.39</ele>
        <time>2016-04-10T15:54:14Z</time>
      </trkpt>
      <trkpt lat="43.88609" lon="4.00549">
        <ele>67.43</ele>
        <time>2016-04-10T15:54:19Z</time>
      </trkpt>
      <trkpt lat="43.88451" lon="4.00679">
        <ele>67.43</ele>
        <time>2016-04-10T15:54:25Z</time>
      </trkpt>
      <trkpt lat="43.88352" lon="4.00746">
        <ele>68.39</ele>
        <time>2016-04-10T15:54:30Z</time>
      </trkpt>
      <trkpt lat="43.88331" lon="4.00753">
        <ele>68.87</ele>
        <time>2016-04-10T15:54:31Z</time>
      </trkpt>
      <trkpt lat="43.88309" lon="4.00757">
        <ele>69.35</ele>
        <time>2016-04-10T15:54:32Z</time>
      </trkpt>
      <trkpt lat="43.88288" lon="4.00758">
        <ele>68.87</ele>
        <time>2016-04-10T15:54:33Z</time>
      </trkpt>
      <trkpt lat="43.88266" lon="4.00756">
        <ele>68.39</ele>
        <time>2016-04-10T15:54:34Z</time>
      </trkpt>
      <trkpt lat="43.88245" lon="4.0075">
        <ele>67.43</ele>
        <time>2016-04-10T15:54:35Z</time>
      </trkpt>
      <trkpt lat="43.88223" lon="4.00743">
        <ele>66.47</ele>
        <time>2016-04-10T15:54:36Z</time>
      </trkpt>
      <trkpt lat="43.88158" lon="4.00725">
        <ele>65.03</ele>
        <time>2016-04-10T15:54:39Z</time>
      </trkpt>
      <trkpt lat="43.88136" lon="4.00724">
        <ele>65.03</ele>
        <time>2016-04-10T15:54:40Z</time>
      </trkpt>
      <trkpt lat="43.8807" lon="4.00732">
        <ele>65.51</ele>
        <time>2016-04-10T15:54:43Z</time>
      </trkpt>
      <trkpt lat="43.8805" lon="4.00742">
        <ele>65.99</ele>
        <time>2016-04-10T15:54:44Z</time>
      </trkpt>
      <trkpt lat="43.88032" lon="4.00757">
        <ele>66.95</ele>
        <time>2016-04-10T15:54:45Z</time>
      </trkpt>
      <trkpt lat="43.88015" lon="4.00776">
        <ele>67.91</ele>
        <time>2016-04-10T15:54:46Z</time>
      </trkpt>
      <trkpt lat="43.88" lon="4.00798">
        <ele>68.87</ele>
        <time>2016-04-10T15:54:47Z</time>
      </trkpt>
      <trkpt lat="43.87987" lon="4.00822">
        <ele>69.35</ele>
        <time>2016-04-10T15:54:48Z</time>
      </trkpt>
      <trkpt lat="43.87974" lon="4.00847">
        <ele>69.35</ele>
        <time>2016-04-10T15:54:49Z</time>
      </trkpt>
      <trkpt lat="43.87841" lon="4.01051">
        <ele>71.27</ele>
        <time>2016-04-10T15:54:57Z</time>
      </trkpt>
      <trkpt lat="43.87678" lon="4.01236">
        <ele>76.08</ele>
        <time>2016-04-10T15:55:06Z</time>
      </trkpt>
      <trkpt lat="43.87658" lon="4.01249">
        <ele>77.04</ele>
        <time>2016-04-10T15:55:07Z</time>
      </trkpt>
      <trkpt lat="43.87636" lon="4.01258">
        <ele>77.52</ele>
        <time>2016-04-10T15:55:08Z</time>
      </trkpt>
      <trkpt lat="43.87613" lon="4.01266">
        <ele>78.48</ele>
        <time>2016-04-10T15:55:09Z</time>
      </trkpt>
      <trkpt lat="43.8737" lon="4.01371">
        <ele>76.08</ele>
        <time>2016-04-10T15:55:20Z</time>
      </trkpt>
      <trkpt lat="43.87348" lon="4.01391">
        <ele>76.08</ele>
        <time>2016-04-10T15:55:21Z</time>
      </trkpt>
      <trkpt lat="43.87328" lon="4.01412">
        <ele>75.6</ele>
        <time>2016-04-10T15:55:22Z</time>
      </trkpt>
      <trkpt lat="43.87193" lon="4.01557">
        <ele>70.31</ele>
        <time>2016-04-10T15:55:29Z</time>
      </trkpt>
      <trkpt lat="43.8717" lon="4.01571">
        <ele>69.35</ele>
        <time>2016-04-10T15:55:30Z</time>
      </trkpt>
      <trkpt lat="43.87146" lon="4.01579">
        <ele>68.39</ele>
        <time>2016-04-10T15:55:31Z</time>
      </trkpt>
      <trkpt lat="43.8712" lon="4.01583">
        <ele>67.43</ele>
        <time>2016-04-10T15:55:32Z</time>
      </trkpt>
      <trkpt lat="43.87093" lon="4.01584">
        <ele>66.95</ele>
        <time>2016-04-10T15:55:33Z</time>
      </trkpt>
      <trkpt lat="43.87065" lon="4.01583">
        <ele>66.47</ele>
        <time>2016-04-10T15:55:34Z</time>
      </trkpt>
      <trkpt lat="43.87038" lon="4.01581">
        <ele>66.95</ele>
        <time>2016-04-10T15:55:35Z</time>
      </trkpt>
      <trkpt lat="43.8683" lon="4.01545">
        <ele>67.43</ele>
        <time>2016-04-10T15:55:43Z</time>
      </trkpt>
      <trkpt lat="43.86681" lon="4.01573">
        <ele>67.91</ele>
        <time>2016-04-10T15:55:49Z</time>
      </trkpt>
      <trkpt lat="43.86409" lon="4.01658">
        <ele>68.87</ele>
        <time>2016-04-10T15:56:00Z</time>
      </trkpt>
      <trkpt lat="43.86344" lon="4.01699">
        <ele>71.76</ele>
        <time>2016-04-10T15:56:03Z</time>
      </trkpt>
      <trkpt lat="43.86321" lon="4.01708">
        <ele>72.72</ele>
        <time>2016-04-10T15:56:04Z</time>
      </trkpt>
      <trkpt lat="43.86297" lon="4.01712">
        <ele>73.68</ele>
        <time>2016-04-10T15:56:05Z</time>
      </trkpt>
      <trkpt lat="43.86272" lon="4.01712">
        <ele>74.64</ele>
        <time>2016-04-10T15:56:06Z</time>
      </trkpt>
      <trkpt lat="43.86246" lon="4.01708">
        <ele>76.08</ele>
        <time>2016-04-10T15:56:07Z</time>
      </trkpt>
      <trkpt lat="43.86222" lon="4.01703">
        <ele>76.56</ele>
        <time>2016-04-10T15:56:08Z</time>
      </trkpt>
      <trkpt lat="43.86198" lon="4.01697">
        <ele>77.52</ele>
        <time>2016-04-10T15:56:09Z</time>
      </trkpt>
      <trkpt lat="43.86047" lon="4.01696">
        <ele>79.93</ele>
        <time>2016-04-10T15:56:15Z</time>
      </trkpt>
      <trkpt lat="43.85796" lon="4.01699">
        <ele>82.33</ele>
        <time>2016-04-10T15:56:25Z</time>
      </trkpt>
      <trkpt lat="43.85542" lon="4.01704">
        <ele>84.73</ele>
        <time>2016-04-10T15:56:35Z</time>
      </trkpt>
      <trkpt lat="43.85212" lon="4.01767">
        <ele>89.06</ele>
        <time>2016-04-10T15:56:48Z</time>
      </trkpt>
      <trkpt lat="43.84866" lon="4.01916">
        <ele>93.87</ele>
        <time>2016-04-10T15:57:02Z</time>
      </trkpt>
      <trkpt lat="43.84681" lon="4.02029">
        <ele>95.31</ele>
        <time>2016-04-10T15:57:10Z</time>
      </trkpt>
      <trkpt lat="43.84533" lon="4.02103">
        <ele>97.71</ele>
        <time>2016-04-10T15:57:16Z</time>
      </trkpt>
      <trkpt lat="43.84486" lon="4.02118">
        <ele>99.15</ele>
        <time>2016-04-10T15:57:18Z</time>
      </trkpt>
      <trkpt lat="43.84462" lon="4.02121">
        <ele>100.11</ele>
        <time>2016-04-10T15:57:19Z</time>
      </trkpt>
      <trkpt lat="43.84381" lon="4.02126">
        <ele>103</ele>
        <time>2016-04-10T15:57:23Z</time>
      </trkpt>
      <trkpt lat="43.84366" lon="4.02132">
        <ele>103.48</ele>
        <time>2016-04-10T15:57:24Z</time>
      </trkpt>
      <trkpt lat="43.84352" lon="4.02149">
        <ele>104.44</ele>
        <time>2016-04-10T15:57:25Z</time>
      </trkpt>
      <trkpt lat="43.84338" lon="4.02167">
        <ele>105.88</ele>
        <time>2016-04-10T15:57:26Z</time>
      </trkpt>
      <trkpt lat="43.84325" lon="4.02188">
        <ele>106.36</ele>
        <time>2016-04-10T15:57:27Z</time>
      </trkpt>
      <trkpt lat="43.84309" lon="4.02207">
        <ele>106.84</ele>
        <time>2016-04-10T15:57:28Z</time>
      </trkpt>
      <trkpt lat="43.84292" lon="4.02224">
        <ele>107.81</ele>
        <time>2016-04-10T15:57:29Z</time>
      </trkpt>
      <trkpt lat="43.84273" lon="4.02236">
        <ele>107.81</ele>
        <time>2016-04-10T15:57:30Z</time>
      </trkpt>
      <trkpt lat="43.84254" lon="4.02247">
        <ele>108.77</ele>
        <time>2016-04-10T15:57:31Z</time>
      </trkpt>
      <trkpt lat="43.84236" lon="4.02258">
        <ele>109.73</ele>
        <time>2016-04-10T15:57:32Z</time>
      </trkpt>
      <trkpt lat="43.84221" lon="4.0227">
        <ele>109.73</ele>
        <time>2016-04-10T15:57:33Z</time>
      </trkpt>
      <trkpt lat="43.84209" lon="4.02286">
        <ele>110.69</ele>
        <time>2016-04-10T15:57:34Z</time>
      </trkpt>
      <trkpt lat="43.842" lon="4.02305">
        <ele>111.17</ele>
        <time>2016-04-10T15:57:35Z</time>
      </trkpt>
      <trkpt lat="43.84198" lon="4.02327">
        <ele>112.61</ele>
        <time>2016-04-10T15:57:36Z</time>
      </trkpt>
      <trkpt lat="43.84203" lon="4.02345">
        <ele>112.61</ele>
        <time>2016-04-10T15:57:37Z</time>
      </trkpt>
      <trkpt lat="43.84206" lon="4.02366">
        <ele>112.13</ele>
        <time>2016-04-10T15:57:38Z</time>
      </trkpt>
      <trkpt lat="43.84213" lon="4.02388">
        <ele>113.57</ele>
        <time>2016-04-10T15:57:39Z</time>
      </trkpt>
      <trkpt lat="43.84218" lon="4.02414">
        <ele>114.05</ele>
        <time>2016-04-10T15:57:40Z</time>
      </trkpt>
      <trkpt lat="43.84221" lon="4.0244">
        <ele>114.05</ele>
        <time>2016-04-10T15:57:41Z</time>
      </trkpt>
      <trkpt lat="43.84219" lon="4.02467">
        <ele>114.53</ele>
        <time>2016-04-10T15:57:42Z</time>
      </trkpt>
      <trkpt lat="43.84216" lon="4.02495">
        <ele>113.57</ele>
        <time>2016-04-10T15:57:43Z</time>
      </trkpt>
      <trkpt lat="43.84213" lon="4.02523">
        <ele>113.57</ele>
        <time>2016-04-10T15:57:44Z</time>
      </trkpt>
      <trkpt lat="43.84212" lon="4.02553">
        <ele>113.57</ele>
        <time>2016-04-10T15:57:45Z</time>
      </trkpt>
      <trkpt lat="43.84214" lon="4.02582">
        <ele>113.57</ele>
        <time>2016-04-10T15:57:46Z</time>
      </trkpt>
      <trkpt lat="43.8422" lon="4.02611">
        <ele>113.57</ele>
        <time>2016-04-10T15:57:47Z</time>
      </trkpt>
      <trkpt lat="43.84229" lon="4.0264">
        <ele>113.09</ele>
        <time>2016-04-10T15:57:48Z</time>
      </trkpt>
      <trkpt lat="43.8424" lon="4.02667">
        <ele>112.13</ele>
        <time>2016-04-10T15:57:49Z</time>
      </trkpt>
      <trkpt lat="43.8425" lon="4.02693">
        <ele>110.69</ele>
        <time>2016-04-10T15:57:50Z</time>
      </trkpt>
      <trkpt lat="43.8427" lon="4.02813">
        <ele>106.84</ele>
        <time>2016-04-10T15:57:55Z</time>
      </trkpt>
      <trkpt lat="43.84262" lon="4.02834">
        <ele>105.88</ele>
        <time>2016-04-10T15:57:56Z</time>
      </trkpt>
      <trkpt lat="43.84249" lon="4.02847">
        <ele>104.92</ele>
        <time>2016-04-10T15:57:57Z</time>
      </trkpt>
      <trkpt lat="43.84234" lon="4.02859">
        <ele>103.48</ele>
        <time>2016-04-10T15:57:58Z</time>
      </trkpt>
      <trkpt lat="43.84216" lon="4.02871">
        <ele>103</ele>
        <time>2016-04-10T15:57:59Z</time>
      </trkpt>
      <trkpt lat="43.84197" lon="4.0288">
        <ele>101.56</ele>
        <time>2016-04-10T15:58:00Z</time>
      </trkpt>
      <trkpt lat="43.84175" lon="4.02885">
        <ele>101.08</ele>
        <time>2016-04-10T15:58:01Z</time>
      </trkpt>
      <trkpt lat="43.84153" lon="4.02889">
        <ele>99.15</ele>
        <time>2016-04-10T15:58:02Z</time>
      </trkpt>
      <trkpt lat="43.84002" lon="4.02922">
        <ele>86.66</ele>
        <time>2016-04-10T15:58:10Z</time>
      </trkpt>
      <trkpt lat="43.83984" lon="4.02933">
        <ele>85.21</ele>
        <time>2016-04-10T15:58:11Z</time>
      </trkpt>
      <trkpt lat="43.83966" lon="4.02949">
        <ele>84.25</ele>
        <time>2016-04-10T15:58:12Z</time>
      </trkpt>
      <trkpt lat="43.83947" lon="4.02967">
        <ele>82.81</ele>
        <time>2016-04-10T15:58:13Z</time>
      </trkpt>
      <trkpt lat="43.83929" lon="4.02986">
        <ele>81.85</ele>
        <time>2016-04-10T15:58:14Z</time>
      </trkpt>
      <trkpt lat="43.83753" lon="4.03161">
        <ele>72.72</ele>
        <time>2016-04-10T15:58:24Z</time>
      </trkpt>
      <trkpt lat="43.83662" lon="4.03256">
        <ele>69.35</ele>
        <time>2016-04-10T15:58:29Z</time>
      </trkpt>
      <trkpt lat="43.83645" lon="4.03281">
        <ele>68.39</ele>
        <time>2016-04-10T15:58:30Z</time>
      </trkpt>
      <trkpt lat="43.83529" lon="4.03485">
        <ele>62.14</ele>
        <time>2016-04-10T15:58:38Z</time>
      </trkpt>
      <trkpt lat="43.83367" lon="4.0379">
        <ele>52.05</ele>
        <time>2016-04-10T15:58:50Z</time>
      </trkpt>
      <trkpt lat="43.83306" lon="4.0388">
        <ele>50.13</ele>
        <time>2016-04-10T15:58:54Z</time>
      </trkpt>
      <trkpt lat="43.83289" lon="4.03897">
        <ele>49.65</ele>
        <time>2016-04-10T15:58:55Z</time>
      </trkpt>
      <trkpt lat="43.83271" lon="4.03912">
        <ele>48.68</ele>
        <time>2016-04-10T15:58:56Z</time>
      </trkpt>
      <trkpt lat="43.83182" lon="4.03984">
        <ele>48.68</ele>
        <time>2016-04-10T15:59:01Z</time>
      </trkpt>
      <trkpt lat="43.83167" lon="4.04002">
        <ele>48.68</ele>
        <time>2016-04-10T15:59:02Z</time>
      </trkpt>
      <trkpt lat="43.83153" lon="4.04023">
        <ele>48.2</ele>
        <time>2016-04-10T15:59:03Z</time>
      </trkpt>
      <trkpt lat="43.8305" lon="4.04152">
        <ele>46.28</ele>
        <time>2016-04-10T15:59:09Z</time>
      </trkpt>
      <trkpt lat="43.82902" lon="4.04329">
        <ele>42.92</ele>
        <time>2016-04-10T15:59:16Z</time>
      </trkpt>
      <trkpt lat="43.82833" lon="4.04417">
        <ele>41.47</ele>
        <time>2016-04-10T15:59:21Z</time>
      </trkpt>
      <trkpt lat="43.82811" lon="4.04449">
        <ele>41.47</ele>
        <time>2016-04-10T15:59:23Z</time>
      </trkpt>
      <trkpt lat="43.82805" lon="4.04469">
        <ele>40.99</ele>
        <time>2016-04-10T15:59:24Z</time>
      </trkpt>
      <trkpt lat="43.82797" lon="4.04491">
        <ele>40.99</ele>
        <time>2016-04-10T15:59:25Z</time>
      </trkpt>
      <trkpt lat="43.82733" lon="4.04683">
        <ele>44.36</ele>
        <time>2016-04-10T15:59:34Z</time>
      </trkpt>
      <trkpt lat="43.82722" lon="4.04702">
        <ele>44.84</ele>
        <time>2016-04-10T15:59:35Z</time>
      </trkpt>
      <trkpt lat="43.8261" lon="4.04879">
        <ele>49.65</ele>
        <time>2016-04-10T15:59:43Z</time>
      </trkpt>
      <trkpt lat="43.82543" lon="4.05021">
        <ele>55.89</ele>
        <time>2016-04-10T15:59:49Z</time>
      </trkpt>
      <trkpt lat="43.82452" lon="4.05157">
        <ele>64.07</ele>
        <time>2016-04-10T15:59:57Z</time>
      </trkpt>
      <trkpt lat="43.82428" lon="4.0518">
        <ele>65.99</ele>
        <time>2016-04-10T15:59:59Z</time>
      </trkpt>
      <trkpt lat="43.82414" lon="4.05188">
        <ele>66.95</ele>
        <time>2016-04-10T16:00:00Z</time>
      </trkpt>
      <trkpt lat="43.824" lon="4.05193">
        <ele>67.43</ele>
        <time>2016-04-10T16:00:01Z</time>
      </trkpt>
      <trkpt lat="43.82381" lon="4.05189">
        <ele>68.39</ele>
        <time>2016-04-10T16:00:02Z</time>
      </trkpt>
      <trkpt lat="43.8236" lon="4.05188">
        <ele>68.39</ele>
        <time>2016-04-10T16:00:03Z</time>
      </trkpt>
      <trkpt lat="43.82338" lon="4.05187">
        <ele>68.87</ele>
        <time>2016-04-10T16:00:04Z</time>
      </trkpt>
      <trkpt lat="43.82216" lon="4.05184">
        <ele>69.83</ele>
        <time>2016-04-10T16:00:08Z</time>
      </trkpt>
      <trkpt lat="43.82078" lon="4.05204">
        <ele>71.76</ele>
        <time>2016-04-10T16:00:13Z</time>
      </trkpt>
      <trkpt lat="43.81902" lon="4.05261">
        <ele>77.04</ele>
        <time>2016-04-10T16:00:20Z</time>
      </trkpt>
      <trkpt lat="43.81885" lon="4.05277">
        <ele>78</ele>
        <time>2016-04-10T16:00:21Z</time>
      </trkpt>
      <trkpt lat="43.8187" lon="4.05298">
        <ele>79.45</ele>
        <time>2016-04-10T16:00:22Z</time>
      </trkpt>
      <trkpt lat="43.81859" lon="4.05323">
        <ele>80.41</ele>
        <time>2016-04-10T16:00:23Z</time>
      </trkpt>
      <trkpt lat="43.81851" lon="4.0535">
        <ele>81.37</ele>
        <time>2016-04-10T16:00:24Z</time>
      </trkpt>
      <trkpt lat="43.81846" lon="4.05378">
        <ele>82.33</ele>
        <time>2016-04-10T16:00:25Z</time>
      </trkpt>
      <trkpt lat="43.81843" lon="4.0541">
        <ele>83.77</ele>
        <time>2016-04-10T16:00:26Z</time>
      </trkpt>
      <trkpt lat="43.81841" lon="4.05445">
        <ele>83.77</ele>
        <time>2016-04-10T16:00:27Z</time>
      </trkpt>
      <trkpt lat="43.81838" lon="4.05481">
        <ele>83.77</ele>
        <time>2016-04-10T16:00:28Z</time>
      </trkpt>
      <trkpt lat="43.81833" lon="4.05517">
        <ele>84.25</ele>
        <time>2016-04-10T16:00:29Z</time>
      </trkpt>
      <trkpt lat="43.81824" lon="4.0555">
        <ele>84.73</ele>
        <time>2016-04-10T16:00:30Z</time>
      </trkpt>
      <trkpt lat="43.81813" lon="4.05581">
        <ele>85.21</ele>
        <time>2016-04-10T16:00:31Z</time>
      </trkpt>
      <trkpt lat="43.81797" lon="4.05609">
        <ele>85.21</ele>
        <time>2016-04-10T16:00:32Z</time>
      </trkpt>
      <trkpt lat="43.81776" lon="4.05635">
        <ele>85.21</ele>
        <time>2016-04-10T16:00:33Z</time>
      </trkpt>
      <trkpt lat="43.81754" lon="4.05661">
        <ele>84.73</ele>
        <time>2016-04-10T16:00:34Z</time>
      </trkpt>
      <trkpt lat="43.8173" lon="4.05688">
        <ele>83.77</ele>
        <time>2016-04-10T16:00:35Z</time>
      </trkpt>
      <trkpt lat="43.81553" lon="4.05881">
        <ele>72.24</ele>
        <time>2016-04-10T16:00:42Z</time>
      </trkpt>
      <trkpt lat="43.81417" lon="4.05987">
        <ele>60.7</ele>
        <time>2016-04-10T16:00:48Z</time>
      </trkpt>
      <trkpt lat="43.81341" lon="4.06012">
        <ele>54.45</ele>
        <time>2016-04-10T16:00:52Z</time>
      </trkpt>
      <trkpt lat="43.81326" lon="4.06011">
        <ele>53.01</ele>
        <time>2016-04-10T16:00:53Z</time>
      </trkpt>
      <trkpt lat="43.81312" lon="4.06011">
        <ele>52.53</ele>
        <time>2016-04-10T16:00:54Z</time>
      </trkpt>
      <trkpt lat="43.813" lon="4.06011">
        <ele>51.57</ele>
        <time>2016-04-10T16:00:55Z</time>
      </trkpt>
      <trkpt lat="43.81287" lon="4.06022">
        <ele>51.09</ele>
        <time>2016-04-10T16:00:56Z</time>
      </trkpt>
      <trkpt lat="43.81272" lon="4.06033">
        <ele>49.65</ele>
        <time>2016-04-10T16:00:57Z</time>
      </trkpt>
      <trkpt lat="43.81253" lon="4.06043">
        <ele>48.68</ele>
        <time>2016-04-10T16:00:58Z</time>
      </trkpt>
      <trkpt lat="43.81231" lon="4.06052">
        <ele>47.72</ele>
        <time>2016-04-10T16:00:59Z</time>
      </trkpt>
      <trkpt lat="43.81208" lon="4.06061">
        <ele>46.76</ele>
        <time>2016-04-10T16:01:00Z</time>
      </trkpt>
      <trkpt lat="43.81041" lon="4.06146">
        <ele>39.55</ele>
        <time>2016-04-10T16:01:07Z</time>
      </trkpt>
      <trkpt lat="43.80923" lon="4.06287">
        <ele>36.67</ele>
        <time>2016-04-10T16:01:13Z</time>
      </trkpt>
      <trkpt lat="43.80757" lon="4.06586">
        <ele>32.82</ele>
        <time>2016-04-10T16:01:24Z</time>
      </trkpt>
      <trkpt lat="43.8065" lon="4.06713">
        <ele>32.34</ele>
        <time>2016-04-10T16:01:30Z</time>
      </trkpt>
      <trkpt lat="43.80494" lon="4.06821">
        <ele>32.34</ele>
        <time>2016-04-10T16:01:37Z</time>
      </trkpt>
      <trkpt lat="43.80389" lon="4.06942">
        <ele>32.34</ele>
        <time>2016-04-10T16:01:42Z</time>
      </trkpt>
      <trkpt lat="43.80319" lon="4.07078">
        <ele>30.9</ele>
        <time>2016-04-10T16:01:47Z</time>
      </trkpt>
      <trkpt lat="43.80275" lon="4.07171">
        <ele>28.5</ele>
        <time>2016-04-10T16:01:52Z</time>
      </trkpt>
      <trkpt lat="43.80258" lon="4.07195">
        <ele>28.02</ele>
        <time>2016-04-10T16:01:54Z</time>
      </trkpt>
      <trkpt lat="43.80249" lon="4.07204">
        <ele>27.53</ele>
        <time>2016-04-10T16:01:55Z</time>
      </trkpt>
      <trkpt lat="43.8024" lon="4.07213">
        <ele>28.02</ele>
        <time>2016-04-10T16:01:56Z</time>
      </trkpt>
      <trkpt lat="43.80234" lon="4.07223">
        <ele>28.02</ele>
        <time>2016-04-10T16:01:57Z</time>
      </trkpt>
      <trkpt lat="43.80226" lon="4.07237">
        <ele>28.02</ele>
        <time>2016-04-10T16:01:58Z</time>
      </trkpt>
      <trkpt lat="43.80214" lon="4.0725">
        <ele>28.02</ele>
        <time>2016-04-10T16:01:59Z</time>
      </trkpt>
      <trkpt lat="43.80199" lon="4.07263">
        <ele>28.02</ele>
        <time>2016-04-10T16:02:00Z</time>
      </trkpt>
      <trkpt lat="43.80181" lon="4.07274">
        <ele>28.02</ele>
        <time>2016-04-10T16:02:01Z</time>
      </trkpt>
      <trkpt lat="43.80161" lon="4.07283">
        <ele>28.02</ele>
        <time>2016-04-10T16:02:02Z</time>
      </trkpt>
      <trkpt lat="43.8014" lon="4.0729">
        <ele>27.53</ele>
        <time>2016-04-10T16:02:03Z</time>
      </trkpt>
      <trkpt lat="43.80117" lon="4.07296">
        <ele>27.05</ele>
        <time>2016-04-10T16:02:04Z</time>
      </trkpt>
      <trkpt lat="43.79945" lon="4.07329">
        <ele>25.13</ele>
        <time>2016-04-10T16:02:12Z</time>
      </trkpt>
      <trkpt lat="43.79796" lon="4.07392">
        <ele>24.65</ele>
        <time>2016-04-10T16:02:19Z</time>
      </trkpt>
      <trkpt lat="43.79712" lon="4.07426">
        <ele>24.17</ele>
        <time>2016-04-10T16:02:23Z</time>
      </trkpt>
      <trkpt lat="43.79689" lon="4.07426">
        <ele>24.17</ele>
        <time>2016-04-10T16:02:24Z</time>
      </trkpt>
      <trkpt lat="43.79664" lon="4.0742">
        <ele>24.65</ele>
        <time>2016-04-10T16:02:25Z</time>
      </trkpt>
      <trkpt lat="43.79637" lon="4.07413">
        <ele>25.13</ele>
        <time>2016-04-10T16:02:26Z</time>
      </trkpt>
      <trkpt lat="43.79611" lon="4.07404">
        <ele>25.61</ele>
        <time>2016-04-10T16:02:27Z</time>
      </trkpt>
      <trkpt lat="43.79521" lon="4.07378">
        <ele>27.05</ele>
        <time>2016-04-10T16:02:31Z</time>
      </trkpt>
      <trkpt lat="43.79502" lon="4.0738">
        <ele>27.53</ele>
        <time>2016-04-10T16:02:32Z</time>
      </trkpt>
      <trkpt lat="43.79485" lon="4.07388">
        <ele>27.53</ele>
        <time>2016-04-10T16:02:33Z</time>
      </trkpt>
      <trkpt lat="43.79469" lon="4.07403">
        <ele>27.05</ele>
        <time>2016-04-10T16:02:34Z</time>
      </trkpt>
      <trkpt lat="43.79454" lon="4.07424">
        <ele>27.53</ele>
        <time>2016-04-10T16:02:35Z</time>
      </trkpt>
      <trkpt lat="43.79443" lon="4.07449">
        <ele>28.02</ele>
        <time>2016-04-10T16:02:36Z</time>
      </trkpt>
      <trkpt lat="43.79434" lon="4.07477">
        <ele>28.5</ele>
        <time>2016-04-10T16:02:37Z</time>
      </trkpt>
      <trkpt lat="43.79425" lon="4.07507">
        <ele>28.5</ele>
        <time>2016-04-10T16:02:38Z</time>
      </trkpt>
      <trkpt lat="43.79414" lon="4.07537">
        <ele>28.5</ele>
        <time>2016-04-10T16:02:39Z</time>
      </trkpt>
      <trkpt lat="43.79402" lon="4.07566">
        <ele>28.5</ele>
        <time>2016-04-10T16:02:40Z</time>
      </trkpt>
      <trkpt lat="43.79389" lon="4.07592">
        <ele>28.5</ele>
        <time>2016-04-10T16:02:41Z</time>
      </trkpt>
      <trkpt lat="43.79374" lon="4.07618">
        <ele>28.5</ele>
        <time>2016-04-10T16:02:42Z</time>
      </trkpt>
      <trkpt lat="43.79357" lon="4.07644">
        <ele>28.5</ele>
        <time>2016-04-10T16:02:43Z</time>
      </trkpt>
      <trkpt lat="43.79339" lon="4.07667">
        <ele>28.5</ele>
        <time>2016-04-10T16:02:44Z</time>
      </trkpt>
      <trkpt lat="43.79289" lon="4.07729">
        <ele>28.5</ele>
        <time>2016-04-10T16:02:47Z</time>
      </trkpt>
      <trkpt lat="43.79269" lon="4.07743">
        <ele>28.5</ele>
        <time>2016-04-10T16:02:48Z</time>
      </trkpt>
      <trkpt lat="43.79248" lon="4.07756">
        <ele>28.5</ele>
        <time>2016-04-10T16:02:49Z</time>
      </trkpt>
      <trkpt lat="43.79228" lon="4.07772">
        <ele>28.5</ele>
        <time>2016-04-10T16:02:50Z</time>
      </trkpt>
      <trkpt lat="43.79209" lon="4.07792">
        <ele>28.5</ele>
        <time>2016-04-10T16:02:51Z</time>
      </trkpt>
      <trkpt lat="43.79193" lon="4.07813">
        <ele>28.02</ele>
        <time>2016-04-10T16:02:52Z</time>
      </trkpt>
      <trkpt lat="43.79177" lon="4.07834">
        <ele>27.53</ele>
        <time>2016-04-10T16:02:53Z</time>
      </trkpt>
      <trkpt lat="43.79088" lon="4.07968">
        <ele>24.17</ele>
        <time>2016-04-10T16:03:00Z</time>
      </trkpt>
      <trkpt lat="43.79016" lon="4.08095">
        <ele>25.61</ele>
        <time>2016-04-10T16:03:09Z</time>
      </trkpt>
      <trkpt lat="43.78963" lon="4.08163">
        <ele>25.61</ele>
        <time>2016-04-10T16:03:15Z</time>
      </trkpt>
      <trkpt lat="43.78954" lon="4.0817">
        <ele>25.61</ele>
        <time>2016-04-10T16:03:16Z</time>
      </trkpt>
      <trkpt lat="43.78946" lon="4.08175">
        <ele>26.09</ele>
        <time>2016-04-10T16:03:17Z</time>
      </trkpt>
      <trkpt lat="43.78917" lon="4.08186">
        <ele>26.57</ele>
        <time>2016-04-10T16:03:23Z</time>
      </trkpt>
      <trkpt lat="43.78911" lon="4.08186">
        <ele>27.05</ele>
        <time>2016-04-10T16:03:24Z</time>
      </trkpt>
      <trkpt lat="43.78904" lon="4.08184">
        <ele>27.05</ele>
        <time>2016-04-10T16:03:25Z</time>
      </trkpt>
      <trkpt lat="43.78898" lon="4.08183">
        <ele>27.05</ele>
        <time>2016-04-10T16:03:26Z</time>
      </trkpt>
      <trkpt lat="43.78891" lon="4.08183">
        <ele>27.05</ele>
        <time>2016-04-10T16:03:27Z</time>
      </trkpt>
      <trkpt lat="43.78885" lon="4.08187">
        <ele>27.05</ele>
        <time>2016-04-10T16:03:28Z</time>
      </trkpt>
      <trkpt lat="43.7888" lon="4.08193">
        <ele>27.05</ele>
        <time>2016-04-10T16:03:29Z</time>
      </trkpt>
      <trkpt lat="43.78875" lon="4.08202">
        <ele>27.05</ele>
        <time>2016-04-10T16:03:30Z</time>
      </trkpt>
      <trkpt lat="43.78871" lon="4.08212">
        <ele>27.05</ele>
        <time>2016-04-10T16:03:31Z</time>
      </trkpt>
      <trkpt lat="43.78864" lon="4.08221">
        <ele>27.05</ele>
        <time>2016-04-10T16:03:32Z</time>
      </trkpt>
      <trkpt lat="43.78856" lon="4.0823">
        <ele>26.57</ele>
        <time>2016-04-10T16:03:33Z</time>
      </trkpt>
      <trkpt lat="43.78847" lon="4.08237">
        <ele>26.57</ele>
        <time>2016-04-10T16:03:34Z</time>
      </trkpt>
      <trkpt lat="43.78762" lon="4.08307">
        <ele>24.17</ele>
        <time>2016-04-10T16:03:44Z</time>
      </trkpt>
      <trkpt lat="43.78687" lon="4.08367">
        <ele>22.25</ele>
        <time>2016-04-10T16:03:54Z</time>
      </trkpt>
      <trkpt lat="43.78614" lon="4.08407">
        <ele>22.25</ele>
        <time>2016-04-10T16:04:05Z</time>
      </trkpt>
      <trkpt lat="43.7855" lon="4.08437">
        <ele>21.77</ele>
        <time>2016-04-10T16:04:14Z</time>
      </trkpt>
      <trkpt lat="43.78537" lon="4.08442">
        <ele>22.25</ele>
        <time>2016-04-10T16:04:16Z</time>
      </trkpt>
      <trkpt lat="43.78531" lon="4.08447">
        <ele>22.25</ele>
        <time>2016-04-10T16:04:17Z</time>
      </trkpt>
      <trkpt lat="43.78526" lon="4.08455">
        <ele>22.25</ele>
        <time>2016-04-10T16:04:18Z</time>
      </trkpt>
      <trkpt lat="43.78521" lon="4.08465">
        <ele>22.25</ele>
        <time>2016-04-10T16:04:19Z</time>
      </trkpt>
      <trkpt lat="43.78516" lon="4.08474">
        <ele>22.25</ele>
        <time>2016-04-10T16:04:20Z</time>
      </trkpt>
      <trkpt lat="43.78509" lon="4.08484">
        <ele>21.77</ele>
        <time>2016-04-10T16:04:21Z</time>
      </trkpt>
      <trkpt lat="43.78502" lon="4.08492">
        <ele>21.77</ele>
        <time>2016-04-10T16:04:22Z</time>
      </trkpt>
      <trkpt lat="43.78406" lon="4.08597">
        <ele>21.77</ele>
        <time>2016-04-10T16:04:35Z</time>
      </trkpt>
      <trkpt lat="43.78302" lon="4.087">
        <ele>21.77</ele>
        <time>2016-04-10T16:04:49Z</time>
      </trkpt>
      <trkpt lat="43.78258" lon="4.08727">
        <ele>22.25</ele>
        <time>2016-04-10T16:04:57Z</time>
      </trkpt>
      <trkpt lat="43.78242" lon="4.08727">
        <ele>22.25</ele>
        <time>2016-04-10T16:05:05Z</time>
      </trkpt>
      <trkpt lat="43.78238" lon="4.08726">
        <ele>22.25</ele>
        <time>2016-04-10T16:05:06Z</time>
      </trkpt>
      <trkpt lat="43.78233" lon="4.08724">
        <ele>22.73</ele>
        <time>2016-04-10T16:05:07Z</time>
      </trkpt>
      <trkpt lat="43.78229" lon="4.08722">
        <ele>22.73</ele>
        <time>2016-04-10T16:05:08Z</time>
      </trkpt>
      <trkpt lat="43.78226" lon="4.08719">
        <ele>22.73</ele>
        <time>2016-04-10T16:05:09Z</time>
      </trkpt>
      <trkpt lat="43.78223" lon="4.08716">
        <ele>23.21</ele>
        <time>2016-04-10T16:05:10Z</time>
      </trkpt>
      <trkpt lat="43.78221" lon="4.08713">
        <ele>23.21</ele>
        <time>2016-04-10T16:05:11Z</time>
      </trkpt>
      <trkpt lat="43.7822" lon="4.08711">
        <ele>23.21</ele>
        <time>2016-04-10T16:05:12Z</time>
      </trkpt>
      <trkpt lat="43.78219" lon="4.08709">
        <ele>23.69</ele>
        <time>2016-04-10T16:05:13Z</time>
      </trkpt>
      <trkpt lat="43.78216" lon="4.08701">
        <ele>23.69</ele>
        <time>2016-04-10T16:05:15Z</time>
      </trkpt>
      <trkpt lat="43.78213" lon="4.08694">
        <ele>23.69</ele>
        <time>2016-04-10T16:05:16Z</time>
      </trkpt>
      <trkpt lat="43.78209" lon="4.08687">
        <ele>23.69</ele>
        <time>2016-04-10T16:05:17Z</time>
      </trkpt>
      <trkpt lat="43.78204" lon="4.08681">
        <ele>23.69</ele>
        <time>2016-04-10T16:05:18Z</time>
      </trkpt>
      <trkpt lat="43.78198" lon="4.08676">
        <ele>23.69</ele>
        <time>2016-04-10T16:05:19Z</time>
      </trkpt>
      <trkpt lat="43.7819" lon="4.08674">
        <ele>23.69</ele>
        <time>2016-04-10T16:05:20Z</time>
      </trkpt>
      <trkpt lat="43.78182" lon="4.08672">
        <ele>23.69</ele>
        <time>2016-04-10T16:05:21Z</time>
      </trkpt>
      <trkpt lat="43.78173" lon="4.0867">
        <ele>23.69</ele>
        <time>2016-04-10T16:05:22Z</time>
      </trkpt>
      <trkpt lat="43.78164" lon="4.08667">
        <ele>23.69</ele>
        <time>2016-04-10T16:05:23Z</time>
      </trkpt>
      <trkpt lat="43.78154" lon="4.08664">
        <ele>23.69</ele>
        <time>2016-04-10T16:05:24Z</time>
      </trkpt>
      <trkpt lat="43.78144" lon="4.08664">
        <ele>23.69</ele>
        <time>2016-04-10T16:05:25Z</time>
      </trkpt>
      <trkpt lat="43.78134" lon="4.08665">
        <ele>23.69</ele>
        <time>2016-04-10T16:05:26Z</time>
      </trkpt>
      <trkpt lat="43.7806" lon="4.08679">
        <ele>22.25</ele>
        <time>2016-04-10T16:05:33Z</time>
      </trkpt>
      <trkpt lat="43.78048" lon="4.08677">
        <ele>22.25</ele>
        <time>2016-04-10T16:05:34Z</time>
      </trkpt>
      <trkpt lat="43.78036" lon="4.08674">
        <ele>22.25</ele>
        <time>2016-04-10T16:05:35Z</time>
      </trkpt>
      <trkpt lat="43.77938" lon="4.0865">
        <ele>23.21</ele>
        <time>2016-04-10T16:05:44Z</time>
      </trkpt>
      <trkpt lat="43.77911" lon="4.0864">
        <ele>23.69</ele>
        <time>2016-04-10T16:05:52Z</time>
      </trkpt>
      <trkpt lat="43.77908" lon="4.08637">
        <ele>23.69</ele>
        <time>2016-04-10T16:05:53Z</time>
      </trkpt>
      <trkpt lat="43.77897" lon="4.08628">
        <ele>23.69</ele>
        <time>2016-04-10T16:05:55Z</time>
      </trkpt>
      <trkpt lat="43.7789" lon="4.08626">
        <ele>23.69</ele>
        <time>2016-04-10T16:05:56Z</time>
      </trkpt>
      <trkpt lat="43.77883" lon="4.08631">
        <ele>23.69</ele>
        <time>2016-04-10T16:05:57Z</time>
      </trkpt>
      <trkpt lat="43.77867" lon="4.0864">
        <ele>23.69</ele>
        <time>2016-04-10T16:05:59Z</time>
      </trkpt>
      <trkpt lat="43.77856" lon="4.08641">
        <ele>23.69</ele>
        <time>2016-04-10T16:06:00Z</time>
      </trkpt>
      <trkpt lat="43.77844" lon="4.0864">
        <ele>23.69</ele>
        <time>2016-04-10T16:06:01Z</time>
      </trkpt>
      <trkpt lat="43.77741" lon="4.08647">
        <ele>24.17</ele>
        <time>2016-04-10T16:06:08Z</time>
      </trkpt>
      <trkpt lat="43.77613" lon="4.08706">
        <ele>22.73</ele>
        <time>2016-04-10T16:06:16Z</time>
      </trkpt>
      <trkpt lat="43.77578" lon="4.08711">
        <ele>22.73</ele>
        <time>2016-04-10T16:06:18Z</time>
      </trkpt>
      <trkpt lat="43.7756" lon="4.08711">
        <ele>22.25</ele>
        <time>2016-04-10T16:06:19Z</time>
      </trkpt>
      <trkpt lat="43.77542" lon="4.08708">
        <ele>22.25</ele>
        <time>2016-04-10T16:06:20Z</time>
      </trkpt>
      <trkpt lat="43.77523" lon="4.08703">
        <ele>22.25</ele>
        <time>2016-04-10T16:06:21Z</time>
      </trkpt>
      <trkpt lat="43.77504" lon="4.08696">
        <ele>22.25</ele>
        <time>2016-04-10T16:06:22Z</time>
      </trkpt>
      <trkpt lat="43.77487" lon="4.08688">
        <ele>22.25</ele>
        <time>2016-04-10T16:06:23Z</time>
      </trkpt>
      <trkpt lat="43.7747" lon="4.08678">
        <ele>22.25</ele>
        <time>2016-04-10T16:06:24Z</time>
      </trkpt>
      <trkpt lat="43.77454" lon="4.08668">
        <ele>22.25</ele>
        <time>2016-04-10T16:06:25Z</time>
      </trkpt>
      <trkpt lat="43.77321" lon="4.08583">
        <ele>21.77</ele>
        <time>2016-04-10T16:06:32Z</time>
      </trkpt>
      <trkpt lat="43.77122" lon="4.08453">
        <ele>21.29</ele>
        <time>2016-04-10T16:06:41Z</time>
      </trkpt>
      <trkpt lat="43.76961" lon="4.08386">
        <ele>21.29</ele>
        <time>2016-04-10T16:06:49Z</time>
      </trkpt>
      <trkpt lat="43.76771" lon="4.08353">
        <ele>22.73</ele>
        <time>2016-04-10T16:06:59Z</time>
      </trkpt>
      <trkpt lat="43.7664" lon="4.08355">
        <ele>22.25</ele>
        <time>2016-04-10T16:07:07Z</time>
      </trkpt>
      <trkpt lat="43.7658" lon="4.08348">
        <ele>22.73</ele>
        <time>2016-04-10T16:07:12Z</time>
      </trkpt>
      <trkpt lat="43.76571" lon="4.08343">
        <ele>23.21</ele>
        <time>2016-04-10T16:07:13Z</time>
      </trkpt>
      <trkpt lat="43.76564" lon="4.08336">
        <ele>23.69</ele>
        <time>2016-04-10T16:07:14Z</time>
      </trkpt>
      <trkpt lat="43.76557" lon="4.0833">
        <ele>23.69</ele>
        <time>2016-04-10T16:07:15Z</time>
      </trkpt>
      <trkpt lat="43.7655" lon="4.08327">
        <ele>24.17</ele>
        <time>2016-04-10T16:07:16Z</time>
      </trkpt>
      <trkpt lat="43.76543" lon="4.08329">
        <ele>24.17</ele>
        <time>2016-04-10T16:07:17Z</time>
      </trkpt>
      <trkpt lat="43.76534" lon="4.08332">
        <ele>23.69</ele>
        <time>2016-04-10T16:07:18Z</time>
      </trkpt>
      <trkpt lat="43.76523" lon="4.08333">
        <ele>23.69</ele>
        <time>2016-04-10T16:07:19Z</time>
      </trkpt>
      <trkpt lat="43.76511" lon="4.0833">
        <ele>23.69</ele>
        <time>2016-04-10T16:07:20Z</time>
      </trkpt>
      <trkpt lat="43.76498" lon="4.08325">
        <ele>23.69</ele>
        <time>2016-04-10T16:07:21Z</time>
      </trkpt>
      <trkpt lat="43.76487" lon="4.0832">
        <ele>23.21</ele>
        <time>2016-04-10T16:07:22Z</time>
      </trkpt>
      <trkpt lat="43.76398" lon="4.08275">
        <ele>23.69</ele>
        <time>2016-04-10T16:07:29Z</time>
      </trkpt>
      <trkpt lat="43.76276" lon="4.08191">
        <ele>26.09</ele>
        <time>2016-04-10T16:07:37Z</time>
      </trkpt>
      <trkpt lat="43.76196" lon="4.08133">
        <ele>28.5</ele>
        <time>2016-04-10T16:07:43Z</time>
      </trkpt>
      <trkpt lat="43.76183" lon="4.08129">
        <ele>28.98</ele>
        <time>2016-04-10T16:07:44Z</time>
      </trkpt>
      <trkpt lat="43.76108" lon="4.08106">
        <ele>28.5</ele>
        <time>2016-04-10T16:07:51Z</time>
      </trkpt>
      <trkpt lat="43.76101" lon="4.081">
        <ele>28.5</ele>
        <time>2016-04-10T16:07:52Z</time>
      </trkpt>
      <trkpt lat="43.76094" lon="4.08093">
        <ele>28.5</ele>
        <time>2016-04-10T16:07:53Z</time>
      </trkpt>
      <trkpt lat="43.76087" lon="4.08085">
        <ele>28.5</ele>
        <time>2016-04-10T16:07:54Z</time>
      </trkpt>
      <trkpt lat="43.76082" lon="4.08076">
        <ele>28.98</ele>
        <time>2016-04-10T16:07:55Z</time>
      </trkpt>
      <trkpt lat="43.76076" lon="4.08066">
        <ele>28.98</ele>
        <time>2016-04-10T16:07:56Z</time>
      </trkpt>
      <trkpt lat="43.75992" lon="4.07924">
        <ele>33.3</ele>
        <time>2016-04-10T16:08:10Z</time>
      </trkpt>
      <trkpt lat="43.75926" lon="4.07816">
        <ele>38.59</ele>
        <time>2016-04-10T16:08:21Z</time>
      </trkpt>
      <trkpt lat="43.7585" lon="4.07692">
        <ele>41.95</ele>
        <time>2016-04-10T16:08:33Z</time>
      </trkpt>
      <trkpt lat="43.7584" lon="4.0768">
        <ele>42.44</ele>
        <time>2016-04-10T16:08:34Z</time>
      </trkpt>
      <trkpt lat="43.75829" lon="4.07668">
        <ele>42.92</ele>
        <time>2016-04-10T16:08:35Z</time>
      </trkpt>
      <trkpt lat="43.75816" lon="4.07657">
        <ele>42.92</ele>
        <time>2016-04-10T16:08:36Z</time>
      </trkpt>
      <trkpt lat="43.75802" lon="4.07648">
        <ele>43.88</ele>
        <time>2016-04-10T16:08:37Z</time>
      </trkpt>
      <trkpt lat="43.75787" lon="4.07644">
        <ele>44.36</ele>
        <time>2016-04-10T16:08:38Z</time>
      </trkpt>
      <trkpt lat="43.75767" lon="4.07647">
        <ele>44.36</ele>
        <time>2016-04-10T16:08:39Z</time>
      </trkpt>
      <trkpt lat="43.7575" lon="4.07648">
        <ele>44.84</ele>
        <time>2016-04-10T16:08:40Z</time>
      </trkpt>
      <trkpt lat="43.75733" lon="4.07652">
        <ele>45.8</ele>
        <time>2016-04-10T16:08:41Z</time>
      </trkpt>
      <trkpt lat="43.75715" lon="4.07655">
        <ele>45.8</ele>
        <time>2016-04-10T16:08:42Z</time>
      </trkpt>
      <trkpt lat="43.75697" lon="4.07654">
        <ele>46.76</ele>
        <time>2016-04-10T16:08:43Z</time>
      </trkpt>
      <trkpt lat="43.7568" lon="4.07651">
        <ele>47.24</ele>
        <time>2016-04-10T16:08:44Z</time>
      </trkpt>
      <trkpt lat="43.75663" lon="4.07647">
        <ele>48.68</ele>
        <time>2016-04-10T16:08:45Z</time>
      </trkpt>
      <trkpt lat="43.75582" lon="4.07609">
        <ele>52.53</ele>
        <time>2016-04-10T16:08:50Z</time>
      </trkpt>
      <trkpt lat="43.75567" lon="4.07596">
        <ele>53.49</ele>
        <time>2016-04-10T16:08:51Z</time>
      </trkpt>
      <trkpt lat="43.75552" lon="4.07582">
        <ele>53.97</ele>
        <time>2016-04-10T16:08:52Z</time>
      </trkpt>
      <trkpt lat="43.75379" lon="4.07389">
        <ele>56.37</ele>
        <time>2016-04-10T16:09:04Z</time>
      </trkpt>
      <trkpt lat="43.75168" lon="4.07128">
        <ele>56.86</ele>
        <time>2016-04-10T16:09:19Z</time>
      </trkpt>
      <trkpt lat="43.75131" lon="4.07075">
        <ele>55.89</ele>
        <time>2016-04-10T16:09:22Z</time>
      </trkpt>
      <trkpt lat="43.75122" lon="4.07054">
        <ele>55.89</ele>
        <time>2016-04-10T16:09:23Z</time>
      </trkpt>
      <trkpt lat="43.75114" lon="4.07031">
        <ele>55.89</ele>
        <time>2016-04-10T16:09:24Z</time>
      </trkpt>
      <trkpt lat="43.7507" lon="4.06876">
        <ele>57.82</ele>
        <time>2016-04-10T16:09:29Z</time>
      </trkpt>
      <trkpt lat="43.75009" lon="4.06657">
        <ele>61.18</ele>
        <time>2016-04-10T16:09:36Z</time>
      </trkpt>
      <trkpt lat="43.74933" lon="4.06385">
        <ele>67.91</ele>
        <time>2016-04-10T16:09:47Z</time>
      </trkpt>
      <trkpt lat="43.7492" lon="4.06196">
        <ele>71.76</ele>
        <time>2016-04-10T16:09:55Z</time>
      </trkpt>
      <trkpt lat="43.7494" lon="4.05981">
        <ele>74.64</ele>
        <time>2016-04-10T16:10:03Z</time>
      </trkpt>
      <trkpt lat="43.74961" lon="4.05788">
        <ele>73.2</ele>
        <time>2016-04-10T16:10:10Z</time>
      </trkpt>
      <trkpt lat="43.74962" lon="4.05735">
        <ele>73.2</ele>
        <time>2016-04-10T16:10:12Z</time>
      </trkpt>
      <trkpt lat="43.74959" lon="4.05709">
        <ele>72.72</ele>
        <time>2016-04-10T16:10:13Z</time>
      </trkpt>
      <trkpt lat="43.74953" lon="4.05685">
        <ele>72.72</ele>
        <time>2016-04-10T16:10:14Z</time>
      </trkpt>
      <trkpt lat="43.74945" lon="4.05661">
        <ele>72.72</ele>
        <time>2016-04-10T16:10:15Z</time>
      </trkpt>
      <trkpt lat="43.74935" lon="4.05638">
        <ele>72.24</ele>
        <time>2016-04-10T16:10:16Z</time>
      </trkpt>
      <trkpt lat="43.74923" lon="4.05616">
        <ele>72.24</ele>
        <time>2016-04-10T16:10:17Z</time>
      </trkpt>
      <trkpt lat="43.7491" lon="4.05596">
        <ele>71.76</ele>
        <time>2016-04-10T16:10:18Z</time>
      </trkpt>
      <trkpt lat="43.74895" lon="4.05578">
        <ele>71.27</ele>
        <time>2016-04-10T16:10:19Z</time>
      </trkpt>
      <trkpt lat="43.74878" lon="4.0556">
        <ele>71.27</ele>
        <time>2016-04-10T16:10:20Z</time>
      </trkpt>
      <trkpt lat="43.74858" lon="4.05542">
        <ele>71.27</ele>
        <time>2016-04-10T16:10:21Z</time>
      </trkpt>
      <trkpt lat="43.74721" lon="4.05408">
        <ele>71.76</ele>
        <time>2016-04-10T16:10:27Z</time>
      </trkpt>
      <trkpt lat="43.74481" lon="4.05182">
        <ele>69.35</ele>
        <time>2016-04-10T16:10:38Z</time>
      </trkpt>
      <trkpt lat="43.7432" lon="4.05125">
        <ele>70.31</ele>
        <time>2016-04-10T16:10:44Z</time>
      </trkpt>
      <trkpt lat="43.73941" lon="4.05018">
        <ele>73.2</ele>
        <time>2016-04-10T16:10:57Z</time>
      </trkpt>
      <trkpt lat="43.73576" lon="4.04914">
        <ele>78.48</ele>
        <time>2016-04-10T16:11:11Z</time>
      </trkpt>
      <trkpt lat="43.73422" lon="4.0487">
        <ele>81.85</ele>
        <time>2016-04-10T16:11:18Z</time>
      </trkpt>
      <trkpt lat="43.73222" lon="4.04797">
        <ele>88.1</ele>
        <time>2016-04-10T16:11:30Z</time>
      </trkpt>
      <trkpt lat="43.73112" lon="4.04674">
        <ele>91.94</ele>
        <time>2016-04-10T16:11:38Z</time>
      </trkpt>
      <trkpt lat="43.73016" lon="4.04463">
        <ele>96.27</ele>
        <time>2016-04-10T16:11:48Z</time>
      </trkpt>
      <trkpt lat="43.72915" lon="4.04339">
        <ele>91.94</ele>
        <time>2016-04-10T16:11:55Z</time>
      </trkpt>
      <trkpt lat="43.72733" lon="4.04189">
        <ele>88.1</ele>
        <time>2016-04-10T16:12:06Z</time>
      </trkpt>
      <trkpt lat="43.72573" lon="4.04057">
        <ele>82.33</ele>
        <time>2016-04-10T16:12:19Z</time>
      </trkpt>
      <trkpt lat="43.7247" lon="4.03972">
        <ele>78.97</ele>
        <time>2016-04-10T16:12:30Z</time>
      </trkpt>
      <trkpt lat="43.72399" lon="4.03913">
        <ele>79.93</ele>
        <time>2016-04-10T16:12:40Z</time>
      </trkpt>
      <trkpt lat="43.72392" lon="4.03905">
        <ele>80.41</ele>
        <time>2016-04-10T16:12:41Z</time>
      </trkpt>
      <trkpt lat="43.72387" lon="4.03896">
        <ele>80.89</ele>
        <time>2016-04-10T16:12:42Z</time>
      </trkpt>
      <trkpt lat="43.72383" lon="4.03886">
        <ele>81.37</ele>
        <time>2016-04-10T16:12:43Z</time>
      </trkpt>
      <trkpt lat="43.72381" lon="4.03876">
        <ele>81.85</ele>
        <time>2016-04-10T16:12:44Z</time>
      </trkpt>
      <trkpt lat="43.72379" lon="4.03866">
        <ele>81.37</ele>
        <time>2016-04-10T16:12:45Z</time>
      </trkpt>
      <trkpt lat="43.72343" lon="4.03775">
        <ele>83.77</ele>
        <time>2016-04-10T16:12:54Z</time>
      </trkpt>
      <trkpt lat="43.72283" lon="4.03663">
        <ele>81.85</ele>
        <time>2016-04-10T16:13:05Z</time>
      </trkpt>
      <trkpt lat="43.72267" lon="4.03637">
        <ele>81.85</ele>
        <time>2016-04-10T16:13:07Z</time>
      </trkpt>
      <trkpt lat="43.72257" lon="4.03627">
        <ele>81.37</ele>
        <time>2016-04-10T16:13:08Z</time>
      </trkpt>
      <trkpt lat="43.72246" lon="4.03619">
        <ele>81.85</ele>
        <time>2016-04-10T16:13:09Z</time>
      </trkpt>
      <trkpt lat="43.72233" lon="4.03613">
        <ele>82.81</ele>
        <time>2016-04-10T16:13:10Z</time>
      </trkpt>
      <trkpt lat="43.7222" lon="4.03607">
        <ele>83.29</ele>
        <time>2016-04-10T16:13:11Z</time>
      </trkpt>
      <trkpt lat="43.72101" lon="4.03579">
        <ele>90.5</ele>
        <time>2016-04-10T16:13:20Z</time>
      </trkpt>
      <trkpt lat="43.72087" lon="4.03573">
        <ele>90.5</ele>
        <time>2016-04-10T16:13:21Z</time>
      </trkpt>
      <trkpt lat="43.7195" lon="4.03497">
        <ele>90.02</ele>
        <time>2016-04-10T16:13:29Z</time>
      </trkpt>
      <trkpt lat="43.71866" lon="4.03436">
        <ele>90.02</ele>
        <time>2016-04-10T16:13:34Z</time>
      </trkpt>
      <trkpt lat="43.71851" lon="4.03419">
        <ele>90.02</ele>
        <time>2016-04-10T16:13:35Z</time>
      </trkpt>
      <trkpt lat="43.71732" lon="4.0327">
        <ele>82.81</ele>
        <time>2016-04-10T16:13:43Z</time>
      </trkpt>
      <trkpt lat="43.71527" lon="4.03097">
        <ele>71.76</ele>
        <time>2016-04-10T16:13:53Z</time>
      </trkpt>
      <trkpt lat="43.71318" lon="4.02937">
        <ele>78.97</ele>
        <time>2016-04-10T16:14:04Z</time>
      </trkpt>
      <trkpt lat="43.71089" lon="4.02809">
        <ele>87.14</ele>
        <time>2016-04-10T16:14:15Z</time>
      </trkpt>
      <trkpt lat="43.70942" lon="4.02742">
        <ele>90.02</ele>
        <time>2016-04-10T16:14:22Z</time>
      </trkpt>
      <trkpt lat="43.70597" lon="4.02564">
        <ele>80.41</ele>
        <time>2016-04-10T16:14:37Z</time>
      </trkpt>
      <trkpt lat="43.70412" lon="4.02457">
        <ele>76.08</ele>
        <time>2016-04-10T16:14:46Z</time>
      </trkpt>
      <trkpt lat="43.70393" lon="4.02438">
        <ele>75.12</ele>
        <time>2016-04-10T16:14:47Z</time>
      </trkpt>
      <trkpt lat="43.70222" lon="4.02219">
        <ele>66.95</ele>
        <time>2016-04-10T16:14:57Z</time>
      </trkpt>
      <trkpt lat="43.70082" lon="4.01982">
        <ele>64.07</ele>
        <time>2016-04-10T16:15:07Z</time>
      </trkpt>
      <trkpt lat="43.69959" lon="4.01817">
        <ele>59.74</ele>
        <time>2016-04-10T16:15:16Z</time>
      </trkpt>
      <trkpt lat="43.69807" lon="4.01635">
        <ele>53.01</ele>
        <time>2016-04-10T16:15:27Z</time>
      </trkpt>
      <trkpt lat="43.6967" lon="4.01469">
        <ele>47.72</ele>
        <time>2016-04-10T16:15:38Z</time>
      </trkpt>
      <trkpt lat="43.696" lon="4.01384">
        <ele>44.84</ele>
        <time>2016-04-10T16:15:46Z</time>
      </trkpt>
      <trkpt lat="43.6949" lon="4.01243">
        <ele>41.95</ele>
        <time>2016-04-10T16:15:56Z</time>
      </trkpt>
      <trkpt lat="43.69371" lon="4.01033">
        <ele>40.03</ele>
        <time>2016-04-10T16:16:07Z</time>
      </trkpt>
      <trkpt lat="43.69249" lon="4.00849">
        <ele>39.55</ele>
        <time>2016-04-10T16:16:17Z</time>
      </trkpt>
      <trkpt lat="43.69136" lon="4.00681">
        <ele>40.99</ele>
        <time>2016-04-10T16:16:25Z</time>
      </trkpt>
      <trkpt lat="43.69097" lon="4.00616">
        <ele>40.99</ele>
        <time>2016-04-10T16:16:28Z</time>
      </trkpt>
      <trkpt lat="43.69086" lon="4.00589">
        <ele>40.99</ele>
        <time>2016-04-10T16:16:29Z</time>
      </trkpt>
      <trkpt lat="43.69077" lon="4.00557">
        <ele>40.99</ele>
        <time>2016-04-10T16:16:30Z</time>
      </trkpt>
      <trkpt lat="43.6907" lon="4.00525">
        <ele>40.99</ele>
        <time>2016-04-10T16:16:31Z</time>
      </trkpt>
      <trkpt lat="43.69065" lon="4.00491">
        <ele>41.95</ele>
        <time>2016-04-10T16:16:32Z</time>
      </trkpt>
      <trkpt lat="43.68997" lon="4.00225">
        <ele>44.84</ele>
        <time>2016-04-10T16:16:41Z</time>
      </trkpt>
      <trkpt lat="43.68873" lon="3.99956">
        <ele>45.32</ele>
        <time>2016-04-10T16:16:51Z</time>
      </trkpt>
      <trkpt lat="43.68832" lon="3.99778">
        <ele>46.28</ele>
        <time>2016-04-10T16:16:58Z</time>
      </trkpt>
      <trkpt lat="43.68813" lon="3.99729">
        <ele>46.76</ele>
        <time>2016-04-10T16:17:00Z</time>
      </trkpt>
      <trkpt lat="43.688" lon="3.99708">
        <ele>46.28</ele>
        <time>2016-04-10T16:17:01Z</time>
      </trkpt>
      <trkpt lat="43.68785" lon="3.9969">
        <ele>46.28</ele>
        <time>2016-04-10T16:17:02Z</time>
      </trkpt>
      <trkpt lat="43.6877" lon="3.99674">
        <ele>46.28</ele>
        <time>2016-04-10T16:17:03Z</time>
      </trkpt>
      <trkpt lat="43.68754" lon="3.99659">
        <ele>46.28</ele>
        <time>2016-04-10T16:17:04Z</time>
      </trkpt>
      <trkpt lat="43.68622" lon="3.99566">
        <ele>44.84</ele>
        <time>2016-04-10T16:17:12Z</time>
      </trkpt>
      <trkpt lat="43.68486" lon="3.99481">
        <ele>45.32</ele>
        <time>2016-04-10T16:17:22Z</time>
      </trkpt>
      <trkpt lat="43.68437" lon="3.99448">
        <ele>44.36</ele>
        <time>2016-04-10T16:17:26Z</time>
      </trkpt>
      <trkpt lat="43.68425" lon="3.99436">
        <ele>44.36</ele>
        <time>2016-04-10T16:17:27Z</time>
      </trkpt>
      <trkpt lat="43.68298" lon="3.99281">
        <ele>46.28</ele>
        <time>2016-04-10T16:17:38Z</time>
      </trkpt>
      <trkpt lat="43.68144" lon="3.99093">
        <ele>52.53</ele>
        <time>2016-04-10T16:17:52Z</time>
      </trkpt>
      <trkpt lat="43.6811" lon="3.99026">
        <ele>53.49</ele>
        <time>2016-04-10T16:17:59Z</time>
      </trkpt>
      <trkpt lat="43.68067" lon="3.98954">
        <ele>54.93</ele>
        <time>2016-04-10T16:18:07Z</time>
      </trkpt>
      <trkpt lat="43.68003" lon="3.98835">
        <ele>59.26</ele>
        <time>2016-04-10T16:18:17Z</time>
      </trkpt>
      <trkpt lat="43.67956" lon="3.98715">
        <ele>62.62</ele>
        <time>2016-04-10T16:18:27Z</time>
      </trkpt>
      <trkpt lat="43.67906" lon="3.98568">
        <ele>65.99</ele>
        <time>2016-04-10T16:18:40Z</time>
      </trkpt>
      <trkpt lat="43.67854" lon="3.98445">
        <ele>63.58</ele>
        <time>2016-04-10T16:18:50Z</time>
      </trkpt>
      <trkpt lat="43.67829" lon="3.98405">
        <ele>62.62</ele>
        <time>2016-04-10T16:18:54Z</time>
      </trkpt>
      <trkpt lat="43.67822" lon="3.98398">
        <ele>62.14</ele>
        <time>2016-04-10T16:18:55Z</time>
      </trkpt>
      <trkpt lat="43.6781" lon="3.98388">
        <ele>61.18</ele>
        <time>2016-04-10T16:18:57Z</time>
      </trkpt>
      <trkpt lat="43.67804" lon="3.98384">
        <ele>61.18</ele>
        <time>2016-04-10T16:18:58Z</time>
      </trkpt>
      <trkpt lat="43.67796" lon="3.98381">
        <ele>60.22</ele>
        <time>2016-04-10T16:18:59Z</time>
      </trkpt>
      <trkpt lat="43.67788" lon="3.98379">
        <ele>59.74</ele>
        <time>2016-04-10T16:19:00Z</time>
      </trkpt>
      <trkpt lat="43.67781" lon="3.98378">
        <ele>59.26</ele>
        <time>2016-04-10T16:19:01Z</time>
      </trkpt>
      <trkpt lat="43.67776" lon="3.98378">
        <ele>59.26</ele>
        <time>2016-04-10T16:19:02Z</time>
      </trkpt>
      <trkpt lat="43.67756" lon="3.98378">
        <ele>58.3</ele>
        <time>2016-04-10T16:19:10Z</time>
      </trkpt>
      <trkpt lat="43.6775" lon="3.98382">
        <ele>64.55</ele>
        <time>2016-04-10T16:19:19Z</time>
      </trkpt>
      <trkpt lat="43.6771" lon="3.98378">
        <ele>64.07</ele>
        <time>2016-04-10T16:19:25Z</time>
      </trkpt>
      <trkpt lat="43.67623" lon="3.98375">
        <ele>58.78</ele>
        <time>2016-04-10T16:19:34Z</time>
      </trkpt>
      <trkpt lat="43.67613" lon="3.98371">
        <ele>58.3</ele>
        <time>2016-04-10T16:19:35Z</time>
      </trkpt>
      <trkpt lat="43.67602" lon="3.98366">
        <ele>58.3</ele>
        <time>2016-04-10T16:19:36Z</time>
      </trkpt>
      <trkpt lat="43.67569" lon="3.98341">
        <ele>55.41</ele>
        <time>2016-04-10T16:19:41Z</time>
      </trkpt>
      <trkpt lat="43.67565" lon="3.98335">
        <ele>54.93</ele>
        <time>2016-04-10T16:19:42Z</time>
      </trkpt>
      <trkpt lat="43.67559" lon="3.9832">
        <ele>53.97</ele>
        <time>2016-04-10T16:19:44Z</time>
      </trkpt>
      <trkpt lat="43.67554" lon="3.98316">
        <ele>53.49</ele>
        <time>2016-04-10T16:19:45Z</time>
      </trkpt>
      <trkpt lat="43.67549" lon="3.98313">
        <ele>53.01</ele>
        <time>2016-04-10T16:19:46Z</time>
      </trkpt>
      <trkpt lat="43.67544" lon="3.98311">
        <ele>53.01</ele>
        <time>2016-04-10T16:19:47Z</time>
      </trkpt>
      <trkpt lat="43.6754" lon="3.98308">
        <ele>52.53</ele>
        <time>2016-04-10T16:19:48Z</time>
      </trkpt>
      <trkpt lat="43.67537" lon="3.98304">
        <ele>52.05</ele>
        <time>2016-04-10T16:19:49Z</time>
      </trkpt>
      <trkpt lat="43.67535" lon="3.98298">
        <ele>52.05</ele>
        <time>2016-04-10T16:19:50Z</time>
      </trkpt>
      <trkpt lat="43.67535" lon="3.98292">
        <ele>51.57</ele>
        <time>2016-04-10T16:19:51Z</time>
      </trkpt>
      <trkpt lat="43.67535" lon="3.98288">
        <ele>51.57</ele>
        <time>2016-04-10T16:19:52Z</time>
      </trkpt>
      <trkpt lat="43.67535" lon="3.98283">
        <ele>51.09</ele>
        <time>2016-04-10T16:19:53Z</time>
      </trkpt>
      <trkpt lat="43.67535" lon="3.9828">
        <ele>51.09</ele>
        <time>2016-04-10T16:19:54Z</time>
      </trkpt>
      <trkpt lat="43.67535" lon="3.98278">
        <ele>50.13</ele>
        <time>2016-04-10T16:20:06Z</time>
      </trkpt>
      <trkpt lat="43.67533" lon="3.98269">
        <ele>51.09</ele>
        <time>2016-04-10T16:50:32Z</time>
      </trkpt>
      <trkpt lat="43.67533" lon="3.98262">
        <ele>49.16</ele>
        <time>2016-04-10T16:50:43Z</time>
      </trkpt>
      <trkpt lat="43.6753" lon="3.98253">
        <ele>49.16</ele>
        <time>2016-04-10T16:50:46Z</time>
      </trkpt>
      <trkpt lat="43.67525" lon="3.98248">
        <ele>49.16</ele>
        <time>2016-04-10T16:50:47Z</time>
      </trkpt>
      <trkpt lat="43.67501" lon="3.98226">
        <ele>48.68</ele>
        <time>2016-04-10T16:50:54Z</time>
      </trkpt>
      <trkpt lat="43.67495" lon="3.98222">
        <ele>48.68</ele>
        <time>2016-04-10T16:50:55Z</time>
      </trkpt>
      <trkpt lat="43.67488" lon="3.9822">
        <ele>48.2</ele>
        <time>2016-04-10T16:50:56Z</time>
      </trkpt>
      <trkpt lat="43.6748" lon="3.9822">
        <ele>48.2</ele>
        <time>2016-04-10T16:50:57Z</time>
      </trkpt>
      <trkpt lat="43.67473" lon="3.98218">
        <ele>48.2</ele>
        <time>2016-04-10T16:50:58Z</time>
      </trkpt>
      <trkpt lat="43.67465" lon="3.98215">
        <ele>48.2</ele>
        <time>2016-04-10T16:50:59Z</time>
      </trkpt>
      <trkpt lat="43.67458" lon="3.98212">
        <ele>48.2</ele>
        <time>2016-04-10T16:51:00Z</time>
      </trkpt>
      <trkpt lat="43.67451" lon="3.9821">
        <ele>48.2</ele>
        <time>2016-04-10T16:51:01Z</time>
      </trkpt>
      <trkpt lat="43.67444" lon="3.98212">
        <ele>48.2</ele>
        <time>2016-04-10T16:51:02Z</time>
      </trkpt>
      <trkpt lat="43.67437" lon="3.98216">
        <ele>48.2</ele>
        <time>2016-04-10T16:51:03Z</time>
      </trkpt>
      <trkpt lat="43.67432" lon="3.98223">
        <ele>48.2</ele>
        <time>2016-04-10T16:51:04Z</time>
      </trkpt>
      <trkpt lat="43.67427" lon="3.98231">
        <ele>48.2</ele>
        <time>2016-04-10T16:51:05Z</time>
      </trkpt>
      <trkpt lat="43.6742" lon="3.98237">
        <ele>47.72</ele>
        <time>2016-04-10T16:51:06Z</time>
      </trkpt>
      <trkpt lat="43.6741" lon="3.98243">
        <ele>48.2</ele>
        <time>2016-04-10T16:51:07Z</time>
      </trkpt>
      <trkpt lat="43.67399" lon="3.98242">
        <ele>48.2</ele>
        <time>2016-04-10T16:51:08Z</time>
      </trkpt>
      <trkpt lat="43.67387" lon="3.98235">
        <ele>48.2</ele>
        <time>2016-04-10T16:51:09Z</time>
      </trkpt>
      <trkpt lat="43.67377" lon="3.98226">
        <ele>47.72</ele>
        <time>2016-04-10T16:51:10Z</time>
      </trkpt>
      <trkpt lat="43.67367" lon="3.98218">
        <ele>47.24</ele>
        <time>2016-04-10T16:51:11Z</time>
      </trkpt>
      <trkpt lat="43.67263" lon="3.98125">
        <ele>45.8</ele>
        <time>2016-04-10T16:51:21Z</time>
      </trkpt>
      <trkpt lat="43.67174" lon="3.98014">
        <ele>44.36</ele>
        <time>2016-04-10T16:51:32Z</time>
      </trkpt>
      <trkpt lat="43.67117" lon="3.97898">
        <ele>43.4</ele>
        <time>2016-04-10T16:51:42Z</time>
      </trkpt>
      <trkpt lat="43.67022" lon="3.97699">
        <ele>46.28</ele>
        <time>2016-04-10T16:51:58Z</time>
      </trkpt>
      <trkpt lat="43.66932" lon="3.97556">
        <ele>47.72</ele>
        <time>2016-04-10T16:52:10Z</time>
      </trkpt>
      <trkpt lat="43.66877" lon="3.97517">
        <ele>48.2</ele>
        <time>2016-04-10T16:52:17Z</time>
      </trkpt>
      <trkpt lat="43.6687" lon="3.97508">
        <ele>48.68</ele>
        <time>2016-04-10T16:52:23Z</time>
      </trkpt>
      <trkpt lat="43.66868" lon="3.97498">
        <ele>48.68</ele>
        <time>2016-04-10T16:52:24Z</time>
      </trkpt>
      <trkpt lat="43.66861" lon="3.97472">
        <ele>49.16</ele>
        <time>2016-04-10T16:52:26Z</time>
      </trkpt>
      <trkpt lat="43.66854" lon="3.97461">
        <ele>49.16</ele>
        <time>2016-04-10T16:52:27Z</time>
      </trkpt>
      <trkpt lat="43.66845" lon="3.97452">
        <ele>49.16</ele>
        <time>2016-04-10T16:52:28Z</time>
      </trkpt>
      <trkpt lat="43.66834" lon="3.97445">
        <ele>49.16</ele>
        <time>2016-04-10T16:52:29Z</time>
      </trkpt>
      <trkpt lat="43.66822" lon="3.97442">
        <ele>48.68</ele>
        <time>2016-04-10T16:52:30Z</time>
      </trkpt>
      <trkpt lat="43.6681" lon="3.97441">
        <ele>48.68</ele>
        <time>2016-04-10T16:52:31Z</time>
      </trkpt>
      <trkpt lat="43.66797" lon="3.97442">
        <ele>48.2</ele>
        <time>2016-04-10T16:52:32Z</time>
      </trkpt>
      <trkpt lat="43.66786" lon="3.97441">
        <ele>48.2</ele>
        <time>2016-04-10T16:52:33Z</time>
      </trkpt>
      <trkpt lat="43.66775" lon="3.97435">
        <ele>47.72</ele>
        <time>2016-04-10T16:52:34Z</time>
      </trkpt>
      <trkpt lat="43.66767" lon="3.97425">
        <ele>47.72</ele>
        <time>2016-04-10T16:52:35Z</time>
      </trkpt>
      <trkpt lat="43.6676" lon="3.97413">
        <ele>47.72</ele>
        <time>2016-04-10T16:52:36Z</time>
      </trkpt>
      <trkpt lat="43.66755" lon="3.97399">
        <ele>47.72</ele>
        <time>2016-04-10T16:52:37Z</time>
      </trkpt>
      <trkpt lat="43.6675" lon="3.97382">
        <ele>47.72</ele>
        <time>2016-04-10T16:52:38Z</time>
      </trkpt>
      <trkpt lat="43.66745" lon="3.97363">
        <ele>47.72</ele>
        <time>2016-04-10T16:52:39Z</time>
      </trkpt>
      <trkpt lat="43.66741" lon="3.97344">
        <ele>47.72</ele>
        <time>2016-04-10T16:52:40Z</time>
      </trkpt>
      <trkpt lat="43.66689" lon="3.97198">
        <ele>46.76</ele>
        <time>2016-04-10T16:52:47Z</time>
      </trkpt>
      <trkpt lat="43.66599" lon="3.97103">
        <ele>46.28</ele>
        <time>2016-04-10T16:52:53Z</time>
      </trkpt>
      <trkpt lat="43.66431" lon="3.96957">
        <ele>44.84</ele>
        <time>2016-04-10T16:53:04Z</time>
      </trkpt>
      <trkpt lat="43.66304" lon="3.96823">
        <ele>43.4</ele>
        <time>2016-04-10T16:53:14Z</time>
      </trkpt>
      <trkpt lat="43.66147" lon="3.96635">
        <ele>42.44</ele>
        <time>2016-04-10T16:53:28Z</time>
      </trkpt>
      <trkpt lat="43.65979" lon="3.9645">
        <ele>44.84</ele>
        <time>2016-04-10T16:53:42Z</time>
      </trkpt>
      <trkpt lat="43.65864" lon="3.9635">
        <ele>44.36</ele>
        <time>2016-04-10T16:53:52Z</time>
      </trkpt>
      <trkpt lat="43.6585" lon="3.96341">
        <ele>44.36</ele>
        <time>2016-04-10T16:53:57Z</time>
      </trkpt>
      <trkpt lat="43.65839" lon="3.96331">
        <ele>44.36</ele>
        <time>2016-04-10T16:54:14Z</time>
      </trkpt>
      <trkpt lat="43.65833" lon="3.96322">
        <ele>43.88</ele>
        <time>2016-04-10T16:54:15Z</time>
      </trkpt>
      <trkpt lat="43.65829" lon="3.96309">
        <ele>43.88</ele>
        <time>2016-04-10T16:54:16Z</time>
      </trkpt>
      <trkpt lat="43.65827" lon="3.96291">
        <ele>43.88</ele>
        <time>2016-04-10T16:54:17Z</time>
      </trkpt>
      <trkpt lat="43.65826" lon="3.96273">
        <ele>43.88</ele>
        <time>2016-04-10T16:54:18Z</time>
      </trkpt>
      <trkpt lat="43.65827" lon="3.96255">
        <ele>43.88</ele>
        <time>2016-04-10T16:54:19Z</time>
      </trkpt>
      <trkpt lat="43.65827" lon="3.96235">
        <ele>43.4</ele>
        <time>2016-04-10T16:54:20Z</time>
      </trkpt>
      <trkpt lat="43.65815" lon="3.96015">
        <ele>44.84</ele>
        <time>2016-04-10T16:54:31Z</time>
      </trkpt>
      <trkpt lat="43.65826" lon="3.95818">
        <ele>51.57</ele>
        <time>2016-04-10T16:54:39Z</time>
      </trkpt>
      <trkpt lat="43.65889" lon="3.95481">
        <ele>53.01</ele>
        <time>2016-04-10T16:54:50Z</time>
      </trkpt>
      <trkpt lat="43.6592" lon="3.95289">
        <ele>55.41</ele>
        <time>2016-04-10T16:54:58Z</time>
      </trkpt>
      <trkpt lat="43.65941" lon="3.95178">
        <ele>56.86</ele>
        <time>2016-04-10T16:55:06Z</time>
      </trkpt>
      <trkpt lat="43.65949" lon="3.95157">
        <ele>56.86</ele>
        <time>2016-04-10T16:55:09Z</time>
      </trkpt>
      <trkpt lat="43.65952" lon="3.95152">
        <ele>56.86</ele>
        <time>2016-04-10T16:55:10Z</time>
      </trkpt>
      <trkpt lat="43.65956" lon="3.95148">
        <ele>56.86</ele>
        <time>2016-04-10T16:55:11Z</time>
      </trkpt>
      <trkpt lat="43.6596" lon="3.95145">
        <ele>56.86</ele>
        <time>2016-04-10T16:55:12Z</time>
      </trkpt>
      <trkpt lat="43.65965" lon="3.95141">
        <ele>56.86</ele>
        <time>2016-04-10T16:55:13Z</time>
      </trkpt>
      <trkpt lat="43.65971" lon="3.95135">
        <ele>56.86</ele>
        <time>2016-04-10T16:55:14Z</time>
      </trkpt>
      <trkpt lat="43.65977" lon="3.95125">
        <ele>56.86</ele>
        <time>2016-04-10T16:55:15Z</time>
      </trkpt>
      <trkpt lat="43.65981" lon="3.95114">
        <ele>57.34</ele>
        <time>2016-04-10T16:55:16Z</time>
      </trkpt>
      <trkpt lat="43.65982" lon="3.951">
        <ele>57.34</ele>
        <time>2016-04-10T16:55:17Z</time>
      </trkpt>
      <trkpt lat="43.65979" lon="3.95084">
        <ele>56.86</ele>
        <time>2016-04-10T16:55:18Z</time>
      </trkpt>
      <trkpt lat="43.65975" lon="3.95065">
        <ele>56.86</ele>
        <time>2016-04-10T16:55:19Z</time>
      </trkpt>
      <trkpt lat="43.65975" lon="3.95044">
        <ele>56.86</ele>
        <time>2016-04-10T16:55:20Z</time>
      </trkpt>
      <trkpt lat="43.65978" lon="3.95023">
        <ele>56.86</ele>
        <time>2016-04-10T16:55:21Z</time>
      </trkpt>
      <trkpt lat="43.65984" lon="3.94999">
        <ele>56.37</ele>
        <time>2016-04-10T16:55:22Z</time>
      </trkpt>
      <trkpt lat="43.65991" lon="3.94974">
        <ele>56.37</ele>
        <time>2016-04-10T16:55:23Z</time>
      </trkpt>
      <trkpt lat="43.66" lon="3.94948">
        <ele>56.86</ele>
        <time>2016-04-10T16:55:24Z</time>
      </trkpt>
      <trkpt lat="43.66056" lon="3.94722">
        <ele>57.82</ele>
        <time>2016-04-10T16:55:32Z</time>
      </trkpt>
      <trkpt lat="43.66062" lon="3.94649">
        <ele>57.34</ele>
        <time>2016-04-10T16:55:36Z</time>
      </trkpt>
      <trkpt lat="43.66069" lon="3.94643">
        <ele>56.37</ele>
        <time>2016-04-10T16:55:37Z</time>
      </trkpt>
      <trkpt lat="43.66079" lon="3.94638">
        <ele>56.37</ele>
        <time>2016-04-10T16:55:38Z</time>
      </trkpt>
      <trkpt lat="43.66088" lon="3.94631">
        <ele>55.89</ele>
        <time>2016-04-10T16:55:39Z</time>
      </trkpt>
      <trkpt lat="43.66095" lon="3.94621">
        <ele>55.89</ele>
        <time>2016-04-10T16:55:40Z</time>
      </trkpt>
      <trkpt lat="43.66097" lon="3.94607">
        <ele>55.41</ele>
        <time>2016-04-10T16:55:41Z</time>
      </trkpt>
      <trkpt lat="43.66095" lon="3.94593">
        <ele>54.93</ele>
        <time>2016-04-10T16:55:42Z</time>
      </trkpt>
      <trkpt lat="43.66088" lon="3.9458">
        <ele>55.41</ele>
        <time>2016-04-10T16:55:43Z</time>
      </trkpt>
      <trkpt lat="43.66079" lon="3.94567">
        <ele>55.89</ele>
        <time>2016-04-10T16:55:44Z</time>
      </trkpt>
      <trkpt lat="43.66072" lon="3.9455">
        <ele>55.41</ele>
        <time>2016-04-10T16:55:45Z</time>
      </trkpt>
      <trkpt lat="43.66066" lon="3.94529">
        <ele>55.41</ele>
        <time>2016-04-10T16:55:46Z</time>
      </trkpt>
      <trkpt lat="43.66062" lon="3.94504">
        <ele>55.41</ele>
        <time>2016-04-10T16:55:47Z</time>
      </trkpt>
      <trkpt lat="43.66059" lon="3.94478">
        <ele>54.93</ele>
        <time>2016-04-10T16:55:48Z</time>
      </trkpt>
      <trkpt lat="43.66057" lon="3.9445">
        <ele>54.45</ele>
        <time>2016-04-10T16:55:49Z</time>
      </trkpt>
      <trkpt lat="43.66056" lon="3.94422">
        <ele>54.45</ele>
        <time>2016-04-10T16:55:50Z</time>
      </trkpt>
      <trkpt lat="43.66049" lon="3.94298">
        <ele>53.49</ele>
        <time>2016-04-10T16:55:55Z</time>
      </trkpt>
      <trkpt lat="43.6602" lon="3.94135">
        <ele>51.57</ele>
        <time>2016-04-10T16:56:00Z</time>
      </trkpt>
      <trkpt lat="43.6595" lon="3.9378">
        <ele>47.72</ele>
        <time>2016-04-10T16:56:10Z</time>
      </trkpt>
      <trkpt lat="43.65902" lon="3.9364">
        <ele>45.8</ele>
        <time>2016-04-10T16:56:16Z</time>
      </trkpt>
      <trkpt lat="43.65898" lon="3.93625">
        <ele>45.8</ele>
        <time>2016-04-10T16:56:17Z</time>
      </trkpt>
      <trkpt lat="43.65898" lon="3.93615">
        <ele>45.32</ele>
        <time>2016-04-10T16:56:18Z</time>
      </trkpt>
      <trkpt lat="43.65902" lon="3.93603">
        <ele>45.32</ele>
        <time>2016-04-10T16:56:19Z</time>
      </trkpt>
      <trkpt lat="43.65907" lon="3.93588">
        <ele>45.32</ele>
        <time>2016-04-10T16:56:20Z</time>
      </trkpt>
      <trkpt lat="43.65908" lon="3.9357">
        <ele>45.32</ele>
        <time>2016-04-10T16:56:21Z</time>
      </trkpt>
      <trkpt lat="43.65906" lon="3.93551">
        <ele>45.32</ele>
        <time>2016-04-10T16:56:22Z</time>
      </trkpt>
      <trkpt lat="43.65899" lon="3.93532">
        <ele>45.32</ele>
        <time>2016-04-10T16:56:23Z</time>
      </trkpt>
      <trkpt lat="43.65891" lon="3.93513">
        <ele>44.84</ele>
        <time>2016-04-10T16:56:24Z</time>
      </trkpt>
      <trkpt lat="43.65886" lon="3.93494">
        <ele>44.84</ele>
        <time>2016-04-10T16:56:25Z</time>
      </trkpt>
      <trkpt lat="43.65886" lon="3.93472">
        <ele>44.84</ele>
        <time>2016-04-10T16:56:26Z</time>
      </trkpt>
      <trkpt lat="43.65891" lon="3.93449">
        <ele>44.84</ele>
        <time>2016-04-10T16:56:27Z</time>
      </trkpt>
      <trkpt lat="43.65899" lon="3.93422">
        <ele>45.32</ele>
        <time>2016-04-10T16:56:28Z</time>
      </trkpt>
      <trkpt lat="43.65907" lon="3.93394">
        <ele>45.32</ele>
        <time>2016-04-10T16:56:29Z</time>
      </trkpt>
      <trkpt lat="43.65948" lon="3.932">
        <ele>46.76</ele>
        <time>2016-04-10T16:56:35Z</time>
      </trkpt>
      <trkpt lat="43.65971" lon="3.9309">
        <ele>47.24</ele>
        <time>2016-04-10T16:56:40Z</time>
      </trkpt>
      <trkpt lat="43.65978" lon="3.93079">
        <ele>47.24</ele>
        <time>2016-04-10T16:56:41Z</time>
      </trkpt>
      <trkpt lat="43.65989" lon="3.93068">
        <ele>47.24</ele>
        <time>2016-04-10T16:56:42Z</time>
      </trkpt>
      <trkpt lat="43.66015" lon="3.93041">
        <ele>47.24</ele>
        <time>2016-04-10T16:56:44Z</time>
      </trkpt>
      <trkpt lat="43.66028" lon="3.93024">
        <ele>47.24</ele>
        <time>2016-04-10T16:56:45Z</time>
      </trkpt>
      <trkpt lat="43.66039" lon="3.93005">
        <ele>47.24</ele>
        <time>2016-04-10T16:56:46Z</time>
      </trkpt>
      <trkpt lat="43.66049" lon="3.92985">
        <ele>47.24</ele>
        <time>2016-04-10T16:56:47Z</time>
      </trkpt>
      <trkpt lat="43.66056" lon="3.92965">
        <ele>46.76</ele>
        <time>2016-04-10T16:56:48Z</time>
      </trkpt>
      <trkpt lat="43.66058" lon="3.92944">
        <ele>46.76</ele>
        <time>2016-04-10T16:56:49Z</time>
      </trkpt>
      <trkpt lat="43.66057" lon="3.92923">
        <ele>46.76</ele>
        <time>2016-04-10T16:56:50Z</time>
      </trkpt>
      <trkpt lat="43.66054" lon="3.92902">
        <ele>46.76</ele>
        <time>2016-04-10T16:56:51Z</time>
      </trkpt>
      <trkpt lat="43.66048" lon="3.92884">
        <ele>46.76</ele>
        <time>2016-04-10T16:56:52Z</time>
      </trkpt>
      <trkpt lat="43.6604" lon="3.92868">
        <ele>46.28</ele>
        <time>2016-04-10T16:56:53Z</time>
      </trkpt>
      <trkpt lat="43.66029" lon="3.92857">
        <ele>46.28</ele>
        <time>2016-04-10T16:56:54Z</time>
      </trkpt>
      <trkpt lat="43.66017" lon="3.9285">
        <ele>46.28</ele>
        <time>2016-04-10T16:56:55Z</time>
      </trkpt>
      <trkpt lat="43.66003" lon="3.92846">
        <ele>46.28</ele>
        <time>2016-04-10T16:56:56Z</time>
      </trkpt>
      <trkpt lat="43.65991" lon="3.92838">
        <ele>46.76</ele>
        <time>2016-04-10T16:56:57Z</time>
      </trkpt>
      <trkpt lat="43.6598" lon="3.92825">
        <ele>47.72</ele>
        <time>2016-04-10T16:56:58Z</time>
      </trkpt>
      <trkpt lat="43.65972" lon="3.92805">
        <ele>48.2</ele>
        <time>2016-04-10T16:56:59Z</time>
      </trkpt>
      <trkpt lat="43.65966" lon="3.92782">
        <ele>48.68</ele>
        <time>2016-04-10T16:57:00Z</time>
      </trkpt>
      <trkpt lat="43.65962" lon="3.92757">
        <ele>49.65</ele>
        <time>2016-04-10T16:57:01Z</time>
      </trkpt>
      <trkpt lat="43.65955" lon="3.92732">
        <ele>51.09</ele>
        <time>2016-04-10T16:57:02Z</time>
      </trkpt>
      <trkpt lat="43.65883" lon="3.92553">
        <ele>57.82</ele>
        <time>2016-04-10T16:57:09Z</time>
      </trkpt>
      <trkpt lat="43.65788" lon="3.9244">
        <ele>58.3</ele>
        <time>2016-04-10T16:57:15Z</time>
      </trkpt>
      <trkpt lat="43.65647" lon="3.92354">
        <ele>57.34</ele>
        <time>2016-04-10T16:57:22Z</time>
      </trkpt>
      <trkpt lat="43.6536" lon="3.92183">
        <ele>68.87</ele>
        <time>2016-04-10T16:57:34Z</time>
      </trkpt>
      <trkpt lat="43.65239" lon="3.92116">
        <ele>75.6</ele>
        <time>2016-04-10T16:57:40Z</time>
      </trkpt>
      <trkpt lat="43.6522" lon="3.92102">
        <ele>77.04</ele>
        <time>2016-04-10T16:57:42Z</time>
      </trkpt>
      <trkpt lat="43.65215" lon="3.92091">
        <ele>78</ele>
        <time>2016-04-10T16:57:43Z</time>
      </trkpt>
      <trkpt lat="43.6521" lon="3.92076">
        <ele>78.48</ele>
        <time>2016-04-10T16:57:44Z</time>
      </trkpt>
      <trkpt lat="43.65203" lon="3.92063">
        <ele>78.97</ele>
        <time>2016-04-10T16:57:45Z</time>
      </trkpt>
      <trkpt lat="43.65196" lon="3.92055">
        <ele>78.97</ele>
        <time>2016-04-10T16:57:46Z</time>
      </trkpt>
      <trkpt lat="43.65185" lon="3.92052">
        <ele>79.45</ele>
        <time>2016-04-10T16:57:47Z</time>
      </trkpt>
      <trkpt lat="43.65173" lon="3.92055">
        <ele>79.45</ele>
        <time>2016-04-10T16:57:48Z</time>
      </trkpt>
      <trkpt lat="43.65161" lon="3.9206">
        <ele>79.93</ele>
        <time>2016-04-10T16:57:49Z</time>
      </trkpt>
      <trkpt lat="43.65148" lon="3.92063">
        <ele>79.93</ele>
        <time>2016-04-10T16:57:50Z</time>
      </trkpt>
      <trkpt lat="43.65133" lon="3.92058">
        <ele>80.41</ele>
        <time>2016-04-10T16:57:51Z</time>
      </trkpt>
      <trkpt lat="43.65116" lon="3.92049">
        <ele>80.41</ele>
        <time>2016-04-10T16:57:52Z</time>
      </trkpt>
      <trkpt lat="43.65098" lon="3.92038">
        <ele>80.89</ele>
        <time>2016-04-10T16:57:53Z</time>
      </trkpt>
      <trkpt lat="43.65078" lon="3.92022">
        <ele>81.37</ele>
        <time>2016-04-10T16:57:54Z</time>
      </trkpt>
      <trkpt lat="43.65057" lon="3.92003">
        <ele>81.37</ele>
        <time>2016-04-10T16:57:55Z</time>
      </trkpt>
      <trkpt lat="43.65037" lon="3.91981">
        <ele>81.85</ele>
        <time>2016-04-10T16:57:56Z</time>
      </trkpt>
      <trkpt lat="43.65017" lon="3.91957">
        <ele>81.85</ele>
        <time>2016-04-10T16:57:57Z</time>
      </trkpt>
      <trkpt lat="43.64998" lon="3.91931">
        <ele>82.33</ele>
        <time>2016-04-10T16:57:58Z</time>
      </trkpt>
      <trkpt lat="43.64981" lon="3.91902">
        <ele>82.33</ele>
        <time>2016-04-10T16:57:59Z</time>
      </trkpt>
      <trkpt lat="43.64965" lon="3.91872">
        <ele>81.85</ele>
        <time>2016-04-10T16:58:00Z</time>
      </trkpt>
      <trkpt lat="43.6495" lon="3.9184">
        <ele>81.37</ele>
        <time>2016-04-10T16:58:01Z</time>
      </trkpt>
      <trkpt lat="43.64937" lon="3.91807">
        <ele>81.37</ele>
        <time>2016-04-10T16:58:02Z</time>
      </trkpt>
      <trkpt lat="43.64926" lon="3.91774">
        <ele>80.89</ele>
        <time>2016-04-10T16:58:03Z</time>
      </trkpt>
      <trkpt lat="43.64916" lon="3.9174">
        <ele>80.89</ele>
        <time>2016-04-10T16:58:04Z</time>
      </trkpt>
      <trkpt lat="43.64852" lon="3.91473">
        <ele>81.85</ele>
        <time>2016-04-10T16:58:12Z</time>
      </trkpt>
      <trkpt lat="43.64769" lon="3.91212">
        <ele>76.56</ele>
        <time>2016-04-10T16:58:20Z</time>
      </trkpt>
      <trkpt lat="43.64706" lon="3.90864">
        <ele>59.26</ele>
        <time>2016-04-10T16:58:29Z</time>
      </trkpt>
      <trkpt lat="43.64612" lon="3.90595">
        <ele>51.57</ele>
        <time>2016-04-10T16:58:36Z</time>
      </trkpt>
      <trkpt lat="43.64467" lon="3.9019">
        <ele>49.65</ele>
        <time>2016-04-10T16:58:47Z</time>
      </trkpt>
      <trkpt lat="43.64428" lon="3.89943">
        <ele>43.88</ele>
        <time>2016-04-10T16:58:54Z</time>
      </trkpt>
      <trkpt lat="43.64373" lon="3.89774">
        <ele>41.95</ele>
        <time>2016-04-10T16:59:00Z</time>
      </trkpt>
      <trkpt lat="43.64318" lon="3.89561">
        <ele>40.51</ele>
        <time>2016-04-10T16:59:09Z</time>
      </trkpt>
      <trkpt lat="43.64324" lon="3.89377">
        <ele>36.67</ele>
        <time>2016-04-10T16:59:16Z</time>
      </trkpt>
      <trkpt lat="43.64388" lon="3.89202">
        <ele>34.26</ele>
        <time>2016-04-10T16:59:23Z</time>
      </trkpt>
      <trkpt lat="43.64471" lon="3.89086">
        <ele>34.26</ele>
        <time>2016-04-10T16:59:28Z</time>
      </trkpt>
      <trkpt lat="43.64596" lon="3.88946">
        <ele>36.67</ele>
        <time>2016-04-10T16:59:36Z</time>
      </trkpt>
      <trkpt lat="43.64708" lon="3.88771">
        <ele>38.59</ele>
        <time>2016-04-10T16:59:45Z</time>
      </trkpt>
      <trkpt lat="43.64797" lon="3.88537">
        <ele>40.03</ele>
        <time>2016-04-10T16:59:55Z</time>
      </trkpt>
      <trkpt lat="43.64808" lon="3.88515">
        <ele>40.03</ele>
        <time>2016-04-10T16:59:56Z</time>
      </trkpt>
      <trkpt lat="43.6482" lon="3.88495">
        <ele>40.51</ele>
        <time>2016-04-10T16:59:57Z</time>
      </trkpt>
      <trkpt lat="43.64833" lon="3.88477">
        <ele>40.51</ele>
        <time>2016-04-10T16:59:58Z</time>
      </trkpt>
      <trkpt lat="43.64848" lon="3.8846">
        <ele>40.99</ele>
        <time>2016-04-10T16:59:59Z</time>
      </trkpt>
      <trkpt lat="43.64863" lon="3.88445">
        <ele>41.47</ele>
        <time>2016-04-10T17:00:00Z</time>
      </trkpt>
      <trkpt lat="43.64879" lon="3.88431">
        <ele>42.44</ele>
        <time>2016-04-10T17:00:01Z</time>
      </trkpt>
      <trkpt lat="43.64895" lon="3.88421">
        <ele>42.92</ele>
        <time>2016-04-10T17:00:02Z</time>
      </trkpt>
      <trkpt lat="43.64911" lon="3.88412">
        <ele>43.4</ele>
        <time>2016-04-10T17:00:03Z</time>
      </trkpt>
      <trkpt lat="43.64928" lon="3.88405">
        <ele>44.36</ele>
        <time>2016-04-10T17:00:04Z</time>
      </trkpt>
      <trkpt lat="43.65061" lon="3.88354">
        <ele>49.16</ele>
        <time>2016-04-10T17:00:10Z</time>
      </trkpt>
      <trkpt lat="43.65202" lon="3.88294">
        <ele>53.01</ele>
        <time>2016-04-10T17:00:16Z</time>
      </trkpt>
      <trkpt lat="43.65224" lon="3.88277">
        <ele>53.01</ele>
        <time>2016-04-10T17:00:17Z</time>
      </trkpt>
      <trkpt lat="43.65245" lon="3.88254">
        <ele>52.53</ele>
        <time>2016-04-10T17:00:18Z</time>
      </trkpt>
      <trkpt lat="43.65266" lon="3.88229">
        <ele>52.05</ele>
        <time>2016-04-10T17:00:19Z</time>
      </trkpt>
      <trkpt lat="43.65283" lon="3.882">
        <ele>52.53</ele>
        <time>2016-04-10T17:00:20Z</time>
      </trkpt>
      <trkpt lat="43.65462" lon="3.87949">
        <ele>53.97</ele>
        <time>2016-04-10T17:00:30Z</time>
      </trkpt>
      <trkpt lat="43.65473" lon="3.87922">
        <ele>53.49</ele>
        <time>2016-04-10T17:00:31Z</time>
      </trkpt>
      <trkpt lat="43.65482" lon="3.87894">
        <ele>53.01</ele>
        <time>2016-04-10T17:00:32Z</time>
      </trkpt>
      <trkpt lat="43.65487" lon="3.87864">
        <ele>53.01</ele>
        <time>2016-04-10T17:00:33Z</time>
      </trkpt>
      <trkpt lat="43.6549" lon="3.87833">
        <ele>52.53</ele>
        <time>2016-04-10T17:00:34Z</time>
      </trkpt>
      <trkpt lat="43.65491" lon="3.87801">
        <ele>52.05</ele>
        <time>2016-04-10T17:00:35Z</time>
      </trkpt>
      <trkpt lat="43.65491" lon="3.87768">
        <ele>51.57</ele>
        <time>2016-04-10T17:00:36Z</time>
      </trkpt>
      <trkpt lat="43.65491" lon="3.87491">
        <ele>51.09</ele>
        <time>2016-04-10T17:00:45Z</time>
      </trkpt>
      <trkpt lat="43.65487" lon="3.87426">
        <ele>51.57</ele>
        <time>2016-04-10T17:00:49Z</time>
      </trkpt>
      <trkpt lat="43.65489" lon="3.87414">
        <ele>51.57</ele>
        <time>2016-04-10T17:00:50Z</time>
      </trkpt>
      <trkpt lat="43.65495" lon="3.87401">
        <ele>51.57</ele>
        <time>2016-04-10T17:00:51Z</time>
      </trkpt>
      <trkpt lat="43.65499" lon="3.87383">
        <ele>51.57</ele>
        <time>2016-04-10T17:00:52Z</time>
      </trkpt>
      <trkpt lat="43.65502" lon="3.87361">
        <ele>51.57</ele>
        <time>2016-04-10T17:00:53Z</time>
      </trkpt>
      <trkpt lat="43.65504" lon="3.87337">
        <ele>51.57</ele>
        <time>2016-04-10T17:00:54Z</time>
      </trkpt>
      <trkpt lat="43.65506" lon="3.87268">
        <ele>50.13</ele>
        <time>2016-04-10T17:00:57Z</time>
      </trkpt>
      <trkpt lat="43.65504" lon="3.87248">
        <ele>49.65</ele>
        <time>2016-04-10T17:00:58Z</time>
      </trkpt>
      <trkpt lat="43.65499" lon="3.87231">
        <ele>48.68</ele>
        <time>2016-04-10T17:00:59Z</time>
      </trkpt>
      <trkpt lat="43.65491" lon="3.87217">
        <ele>47.72</ele>
        <time>2016-04-10T17:01:00Z</time>
      </trkpt>
      <trkpt lat="43.65478" lon="3.87207">
        <ele>46.76</ele>
        <time>2016-04-10T17:01:01Z</time>
      </trkpt>
      <trkpt lat="43.6546" lon="3.87201">
        <ele>46.28</ele>
        <time>2016-04-10T17:01:02Z</time>
      </trkpt>
      <trkpt lat="43.65443" lon="3.87197">
        <ele>45.8</ele>
        <time>2016-04-10T17:01:03Z</time>
      </trkpt>
      <trkpt lat="43.65426" lon="3.87196">
        <ele>45.32</ele>
        <time>2016-04-10T17:01:04Z</time>
      </trkpt>
      <trkpt lat="43.6541" lon="3.87197">
        <ele>45.32</ele>
        <time>2016-04-10T17:01:05Z</time>
      </trkpt>
      <trkpt lat="43.65395" lon="3.87201">
        <ele>45.32</ele>
        <time>2016-04-10T17:01:06Z</time>
      </trkpt>
      <trkpt lat="43.65381" lon="3.87207">
        <ele>45.32</ele>
        <time>2016-04-10T17:01:07Z</time>
      </trkpt>
      <trkpt lat="43.65368" lon="3.87215">
        <ele>45.32</ele>
        <time>2016-04-10T17:01:08Z</time>
      </trkpt>
      <trkpt lat="43.65356" lon="3.87224">
        <ele>45.32</ele>
        <time>2016-04-10T17:01:09Z</time>
      </trkpt>
      <trkpt lat="43.65346" lon="3.87232">
        <ele>45.32</ele>
        <time>2016-04-10T17:01:10Z</time>
      </trkpt>
      <trkpt lat="43.65336" lon="3.87238">
        <ele>45.32</ele>
        <time>2016-04-10T17:01:11Z</time>
      </trkpt>
      <trkpt lat="43.65325" lon="3.87237">
        <ele>45.32</ele>
        <time>2016-04-10T17:01:12Z</time>
      </trkpt>
      <trkpt lat="43.65311" lon="3.8723">
        <ele>44.84</ele>
        <time>2016-04-10T17:01:13Z</time>
      </trkpt>
      <trkpt lat="43.65294" lon="3.87217">
        <ele>44.36</ele>
        <time>2016-04-10T17:01:14Z</time>
      </trkpt>
      <trkpt lat="43.65276" lon="3.87201">
        <ele>43.88</ele>
        <time>2016-04-10T17:01:15Z</time>
      </trkpt>
      <trkpt lat="43.65258" lon="3.87183">
        <ele>43.4</ele>
        <time>2016-04-10T17:01:16Z</time>
      </trkpt>
      <trkpt lat="43.65242" lon="3.87163">
        <ele>42.92</ele>
        <time>2016-04-10T17:01:17Z</time>
      </trkpt>
      <trkpt lat="43.65226" lon="3.87139">
        <ele>42.92</ele>
        <time>2016-04-10T17:01:18Z</time>
      </trkpt>
      <trkpt lat="43.65212" lon="3.87114">
        <ele>42.44</ele>
        <time>2016-04-10T17:01:19Z</time>
      </trkpt>
      <trkpt lat="43.65198" lon="3.87085">
        <ele>42.44</ele>
        <time>2016-04-10T17:01:20Z</time>
      </trkpt>
      <trkpt lat="43.65185" lon="3.87055">
        <ele>42.44</ele>
        <time>2016-04-10T17:01:21Z</time>
      </trkpt>
      <trkpt lat="43.65105" lon="3.86814">
        <ele>43.88</ele>
        <time>2016-04-10T17:01:29Z</time>
      </trkpt>
      <trkpt lat="43.65082" lon="3.86568">
        <ele>48.2</ele>
        <time>2016-04-10T17:01:36Z</time>
      </trkpt>
      <trkpt lat="43.65041" lon="3.86169">
        <ele>46.76</ele>
        <time>2016-04-10T17:01:47Z</time>
      </trkpt>
      <trkpt lat="43.64985" lon="3.85789">
        <ele>55.89</ele>
        <time>2016-04-10T17:01:58Z</time>
      </trkpt>
      <trkpt lat="43.64914" lon="3.85596">
        <ele>56.37</ele>
        <time>2016-04-10T17:02:04Z</time>
      </trkpt>
      <trkpt lat="43.6481" lon="3.85475">
        <ele>58.3</ele>
        <time>2016-04-10T17:02:09Z</time>
      </trkpt>
      <trkpt lat="43.64785" lon="3.85458">
        <ele>59.26</ele>
        <time>2016-04-10T17:02:10Z</time>
      </trkpt>
      <trkpt lat="43.6476" lon="3.85444">
        <ele>60.22</ele>
        <time>2016-04-10T17:02:11Z</time>
      </trkpt>
      <trkpt lat="43.64595" lon="3.85361">
        <ele>65.99</ele>
        <time>2016-04-10T17:02:18Z</time>
      </trkpt>
      <trkpt lat="43.64534" lon="3.85291">
        <ele>68.87</ele>
        <time>2016-04-10T17:02:23Z</time>
      </trkpt>
      <trkpt lat="43.64526" lon="3.85268">
        <ele>69.83</ele>
        <time>2016-04-10T17:02:26Z</time>
      </trkpt>
      <trkpt lat="43.64525" lon="3.85256">
        <ele>69.83</ele>
        <time>2016-04-10T17:02:27Z</time>
      </trkpt>
      <trkpt lat="43.64521" lon="3.8523">
        <ele>69.83</ele>
        <time>2016-04-10T17:02:29Z</time>
      </trkpt>
      <trkpt lat="43.64514" lon="3.85222">
        <ele>69.35</ele>
        <time>2016-04-10T17:02:30Z</time>
      </trkpt>
      <trkpt lat="43.64504" lon="3.85216">
        <ele>69.35</ele>
        <time>2016-04-10T17:02:31Z</time>
      </trkpt>
      <trkpt lat="43.64492" lon="3.85209">
        <ele>69.35</ele>
        <time>2016-04-10T17:02:32Z</time>
      </trkpt>
      <trkpt lat="43.6448" lon="3.85196">
        <ele>69.35</ele>
        <time>2016-04-10T17:02:33Z</time>
      </trkpt>
      <trkpt lat="43.64468" lon="3.85178">
        <ele>68.87</ele>
        <time>2016-04-10T17:02:34Z</time>
      </trkpt>
      <trkpt lat="43.64457" lon="3.85159">
        <ele>68.87</ele>
        <time>2016-04-10T17:02:35Z</time>
      </trkpt>
      <trkpt lat="43.64367" lon="3.84988">
        <ele>72.24</ele>
        <time>2016-04-10T17:02:42Z</time>
      </trkpt>
      <trkpt lat="43.64281" lon="3.84812">
        <ele>70.79</ele>
        <time>2016-04-10T17:02:49Z</time>
      </trkpt>
      <trkpt lat="43.64264" lon="3.84792">
        <ele>69.83</ele>
        <time>2016-04-10T17:02:50Z</time>
      </trkpt>
      <trkpt lat="43.64245" lon="3.84775">
        <ele>68.39</ele>
        <time>2016-04-10T17:02:51Z</time>
      </trkpt>
      <trkpt lat="43.64225" lon="3.84759">
        <ele>66.95</ele>
        <time>2016-04-10T17:02:52Z</time>
      </trkpt>
      <trkpt lat="43.64204" lon="3.84746">
        <ele>64.55</ele>
        <time>2016-04-10T17:02:53Z</time>
      </trkpt>
      <trkpt lat="43.64181" lon="3.84735">
        <ele>62.62</ele>
        <time>2016-04-10T17:02:54Z</time>
      </trkpt>
      <trkpt lat="43.64158" lon="3.84726">
        <ele>60.7</ele>
        <time>2016-04-10T17:02:55Z</time>
      </trkpt>
      <trkpt lat="43.63833" lon="3.84624">
        <ele>49.16</ele>
        <time>2016-04-10T17:03:09Z</time>
      </trkpt>
      <trkpt lat="43.63748" lon="3.84552">
        <ele>50.61</ele>
        <time>2016-04-10T17:03:15Z</time>
      </trkpt>
      <trkpt lat="43.63712" lon="3.84517">
        <ele>51.57</ele>
        <time>2016-04-10T17:03:21Z</time>
      </trkpt>
      <trkpt lat="43.63712" lon="3.84516">
        <ele>52.05</ele>
        <time>2016-04-10T17:03:31Z</time>
      </trkpt>
      <trkpt lat="43.63692" lon="3.84496">
        <ele>52.05</ele>
        <time>2016-04-10T17:03:37Z</time>
      </trkpt>
      <trkpt lat="43.63612" lon="3.84439">
        <ele>49.16</ele>
        <time>2016-04-10T17:03:45Z</time>
      </trkpt>
      <trkpt lat="43.63456" lon="3.84355">
        <ele>52.53</ele>
        <time>2016-04-10T17:03:57Z</time>
      </trkpt>
      <trkpt lat="43.63325" lon="3.84307">
        <ele>53.01</ele>
        <time>2016-04-10T17:04:08Z</time>
      </trkpt>
      <trkpt lat="43.63214" lon="3.84263">
        <ele>51.57</ele>
        <time>2016-04-10T17:04:16Z</time>
      </trkpt>
      <trkpt lat="43.63169" lon="3.84224">
        <ele>52.53</ele>
        <time>2016-04-10T17:04:23Z</time>
      </trkpt>
      <trkpt lat="43.63167" lon="3.8422">
        <ele>52.53</ele>
        <time>2016-04-10T17:04:24Z</time>
      </trkpt>
      <trkpt lat="43.63164" lon="3.84209">
        <ele>53.01</ele>
        <time>2016-04-10T17:04:25Z</time>
      </trkpt>
      <trkpt lat="43.63155" lon="3.84179">
        <ele>53.01</ele>
        <time>2016-04-10T17:04:27Z</time>
      </trkpt>
      <trkpt lat="43.63147" lon="3.84166">
        <ele>53.49</ele>
        <time>2016-04-10T17:04:28Z</time>
      </trkpt>
      <trkpt lat="43.63137" lon="3.84156">
        <ele>53.97</ele>
        <time>2016-04-10T17:04:29Z</time>
      </trkpt>
      <trkpt lat="43.63125" lon="3.84152">
        <ele>53.97</ele>
        <time>2016-04-10T17:04:30Z</time>
      </trkpt>
      <trkpt lat="43.63114" lon="3.84154">
        <ele>54.45</ele>
        <time>2016-04-10T17:04:31Z</time>
      </trkpt>
      <trkpt lat="43.63104" lon="3.84158">
        <ele>54.45</ele>
        <time>2016-04-10T17:04:32Z</time>
      </trkpt>
      <trkpt lat="43.63095" lon="3.84164">
        <ele>54.45</ele>
        <time>2016-04-10T17:04:33Z</time>
      </trkpt>
      <trkpt lat="43.63087" lon="3.84171">
        <ele>54.45</ele>
        <time>2016-04-10T17:04:34Z</time>
      </trkpt>
      <trkpt lat="43.63077" lon="3.84178">
        <ele>54.45</ele>
        <time>2016-04-10T17:04:35Z</time>
      </trkpt>
      <trkpt lat="43.63066" lon="3.84182">
        <ele>54.45</ele>
        <time>2016-04-10T17:04:36Z</time>
      </trkpt>
      <trkpt lat="43.63053" lon="3.84183">
        <ele>54.45</ele>
        <time>2016-04-10T17:04:37Z</time>
      </trkpt>
      <trkpt lat="43.63039" lon="3.84181">
        <ele>54.45</ele>
        <time>2016-04-10T17:04:38Z</time>
      </trkpt>
      <trkpt lat="43.63025" lon="3.84179">
        <ele>54.45</ele>
        <time>2016-04-10T17:04:39Z</time>
      </trkpt>
      <trkpt lat="43.62897" lon="3.84137">
        <ele>55.41</ele>
        <time>2016-04-10T17:04:47Z</time>
      </trkpt>
      <trkpt lat="43.62767" lon="3.84013">
        <ele>59.26</ele>
        <time>2016-04-10T17:04:55Z</time>
      </trkpt>
      <trkpt lat="43.62656" lon="3.83849">
        <ele>64.55</ele>
        <time>2016-04-10T17:05:03Z</time>
      </trkpt>
      <trkpt lat="43.6256" lon="3.8369">
        <ele>70.31</ele>
        <time>2016-04-10T17:05:13Z</time>
      </trkpt>
      <trkpt lat="43.62555" lon="3.83681">
        <ele>70.31</ele>
        <time>2016-04-10T17:05:14Z</time>
      </trkpt>
      <trkpt lat="43.62551" lon="3.83671">
        <ele>70.79</ele>
        <time>2016-04-10T17:05:15Z</time>
      </trkpt>
      <trkpt lat="43.62549" lon="3.83659">
        <ele>70.79</ele>
        <time>2016-04-10T17:05:16Z</time>
      </trkpt>
      <trkpt lat="43.6255" lon="3.83645">
        <ele>71.27</ele>
        <time>2016-04-10T17:05:17Z</time>
      </trkpt>
      <trkpt lat="43.6255" lon="3.8363">
        <ele>71.27</ele>
        <time>2016-04-10T17:05:18Z</time>
      </trkpt>
      <trkpt lat="43.6255" lon="3.83614">
        <ele>71.76</ele>
        <time>2016-04-10T17:05:19Z</time>
      </trkpt>
      <trkpt lat="43.62547" lon="3.83599">
        <ele>71.76</ele>
        <time>2016-04-10T17:05:20Z</time>
      </trkpt>
      <trkpt lat="43.62542" lon="3.83588">
        <ele>71.76</ele>
        <time>2016-04-10T17:05:21Z</time>
      </trkpt>
      <trkpt lat="43.62534" lon="3.83579">
        <ele>71.76</ele>
        <time>2016-04-10T17:05:22Z</time>
      </trkpt>
      <trkpt lat="43.62523" lon="3.83574">
        <ele>71.76</ele>
        <time>2016-04-10T17:05:23Z</time>
      </trkpt>
      <trkpt lat="43.62513" lon="3.83566">
        <ele>71.76</ele>
        <time>2016-04-10T17:05:24Z</time>
      </trkpt>
      <trkpt lat="43.62505" lon="3.83555">
        <ele>71.76</ele>
        <time>2016-04-10T17:05:25Z</time>
      </trkpt>
      <trkpt lat="43.62498" lon="3.83541">
        <ele>71.76</ele>
        <time>2016-04-10T17:05:26Z</time>
      </trkpt>
      <trkpt lat="43.62492" lon="3.83524">
        <ele>71.76</ele>
        <time>2016-04-10T17:05:27Z</time>
      </trkpt>
      <trkpt lat="43.62445" lon="3.83444">
        <ele>71.27</ele>
        <time>2016-04-10T17:05:32Z</time>
      </trkpt>
      <trkpt lat="43.62432" lon="3.8343">
        <ele>71.27</ele>
        <time>2016-04-10T17:05:33Z</time>
      </trkpt>
      <trkpt lat="43.62418" lon="3.83418">
        <ele>70.79</ele>
        <time>2016-04-10T17:05:34Z</time>
      </trkpt>
      <trkpt lat="43.62404" lon="3.83408">
        <ele>70.79</ele>
        <time>2016-04-10T17:05:35Z</time>
      </trkpt>
      <trkpt lat="43.6239" lon="3.834">
        <ele>70.79</ele>
        <time>2016-04-10T17:05:36Z</time>
      </trkpt>
      <trkpt lat="43.62378" lon="3.83394">
        <ele>70.79</ele>
        <time>2016-04-10T17:05:37Z</time>
      </trkpt>
      <trkpt lat="43.62351" lon="3.83377">
        <ele>70.79</ele>
        <time>2016-04-10T17:05:40Z</time>
      </trkpt>
      <trkpt lat="43.62346" lon="3.8337">
        <ele>70.79</ele>
        <time>2016-04-10T17:05:41Z</time>
      </trkpt>
      <trkpt lat="43.62341" lon="3.83359">
        <ele>70.79</ele>
        <time>2016-04-10T17:05:42Z</time>
      </trkpt>
      <trkpt lat="43.62337" lon="3.83347">
        <ele>70.79</ele>
        <time>2016-04-10T17:05:43Z</time>
      </trkpt>
      <trkpt lat="43.62332" lon="3.83336">
        <ele>70.79</ele>
        <time>2016-04-10T17:05:44Z</time>
      </trkpt>
      <trkpt lat="43.62325" lon="3.83328">
        <ele>70.31</ele>
        <time>2016-04-10T17:05:45Z</time>
      </trkpt>
      <trkpt lat="43.62317" lon="3.83324">
        <ele>70.31</ele>
        <time>2016-04-10T17:05:46Z</time>
      </trkpt>
      <trkpt lat="43.62308" lon="3.83327">
        <ele>70.31</ele>
        <time>2016-04-10T17:05:47Z</time>
      </trkpt>
      <trkpt lat="43.62299" lon="3.83334">
        <ele>70.31</ele>
        <time>2016-04-10T17:05:48Z</time>
      </trkpt>
      <trkpt lat="43.62291" lon="3.83344">
        <ele>70.31</ele>
        <time>2016-04-10T17:05:49Z</time>
      </trkpt>
      <trkpt lat="43.62287" lon="3.83358">
        <ele>70.79</ele>
        <time>2016-04-10T17:05:50Z</time>
      </trkpt>
      <trkpt lat="43.62287" lon="3.83375">
        <ele>71.27</ele>
        <time>2016-04-10T17:05:51Z</time>
      </trkpt>
      <trkpt lat="43.62287" lon="3.8339">
        <ele>71.76</ele>
        <time>2016-04-10T17:05:52Z</time>
      </trkpt>
      <trkpt lat="43.62288" lon="3.83405">
        <ele>71.76</ele>
        <time>2016-04-10T17:05:53Z</time>
      </trkpt>
      <trkpt lat="43.62288" lon="3.8342">
        <ele>71.76</ele>
        <time>2016-04-10T17:05:54Z</time>
      </trkpt>
      <trkpt lat="43.62284" lon="3.83435">
        <ele>72.24</ele>
        <time>2016-04-10T17:05:55Z</time>
      </trkpt>
      <trkpt lat="43.62279" lon="3.83448">
        <ele>72.72</ele>
        <time>2016-04-10T17:05:56Z</time>
      </trkpt>
      <trkpt lat="43.62253" lon="3.83515">
        <ele>75.12</ele>
        <time>2016-04-10T17:06:02Z</time>
      </trkpt>
      <trkpt lat="43.62246" lon="3.83528">
        <ele>75.6</ele>
        <time>2016-04-10T17:06:03Z</time>
      </trkpt>
      <trkpt lat="43.62198" lon="3.83597">
        <ele>76.08</ele>
        <time>2016-04-10T17:06:08Z</time>
      </trkpt>
      <trkpt lat="43.62186" lon="3.83609">
        <ele>76.56</ele>
        <time>2016-04-10T17:06:09Z</time>
      </trkpt>
      <trkpt lat="43.62173" lon="3.83619">
        <ele>76.08</ele>
        <time>2016-04-10T17:06:10Z</time>
      </trkpt>
      <trkpt lat="43.62032" lon="3.83732">
        <ele>78.48</ele>
        <time>2016-04-10T17:06:21Z</time>
      </trkpt>
      <trkpt lat="43.61987" lon="3.83767">
        <ele>78.48</ele>
        <time>2016-04-10T17:06:27Z</time>
      </trkpt>
      <trkpt lat="43.61986" lon="3.83767">
        <ele>78.97</ele>
        <time>2016-04-10T17:06:35Z</time>
      </trkpt>
      <trkpt lat="43.6198" lon="3.83773">
        <ele>78.48</ele>
        <time>2016-04-10T17:07:05Z</time>
      </trkpt>
      <trkpt lat="43.61977" lon="3.83781">
        <ele>78.48</ele>
        <time>2016-04-10T17:07:06Z</time>
      </trkpt>
      <trkpt lat="43.61976" lon="3.83789">
        <ele>78.48</ele>
        <time>2016-04-10T17:07:07Z</time>
      </trkpt>
      <trkpt lat="43.61978" lon="3.83799">
        <ele>78.48</ele>
        <time>2016-04-10T17:07:08Z</time>
      </trkpt>
      <trkpt lat="43.61982" lon="3.83808">
        <ele>78.48</ele>
        <time>2016-04-10T17:07:09Z</time>
      </trkpt>
      <trkpt lat="43.61988" lon="3.83818">
        <ele>78.48</ele>
        <time>2016-04-10T17:07:10Z</time>
      </trkpt>
      <trkpt lat="43.61998" lon="3.83827">
        <ele>78.48</ele>
        <time>2016-04-10T17:07:11Z</time>
      </trkpt>
      <trkpt lat="43.62009" lon="3.83838">
        <ele>78.97</ele>
        <time>2016-04-10T17:07:12Z</time>
      </trkpt>
      <trkpt lat="43.62093" lon="3.83945">
        <ele>75.12</ele>
        <time>2016-04-10T17:07:21Z</time>
      </trkpt>
      <trkpt lat="43.62098" lon="3.83958">
        <ele>74.16</ele>
        <time>2016-04-10T17:07:22Z</time>
      </trkpt>
      <trkpt lat="43.62101" lon="3.83972">
        <ele>73.68</ele>
        <time>2016-04-10T17:07:23Z</time>
      </trkpt>
      <trkpt lat="43.62105" lon="3.83999">
        <ele>71.27</ele>
        <time>2016-04-10T17:07:25Z</time>
      </trkpt>
      <trkpt lat="43.62109" lon="3.84039">
        <ele>66.95</ele>
        <time>2016-04-10T17:07:29Z</time>
      </trkpt>
      <trkpt lat="43.62106" lon="3.84045">
        <ele>65.51</ele>
        <time>2016-04-10T17:07:30Z</time>
      </trkpt>
      <trkpt lat="43.62102" lon="3.84048">
        <ele>65.51</ele>
        <time>2016-04-10T17:07:31Z</time>
      </trkpt>
      <trkpt lat="43.62097" lon="3.8405">
        <ele>65.51</ele>
        <time>2016-04-10T17:07:32Z</time>
      </trkpt>
      <trkpt lat="43.62092" lon="3.84051">
        <ele>65.51</ele>
        <time>2016-04-10T17:07:33Z</time>
      </trkpt>
      <trkpt lat="43.62088" lon="3.84051">
        <ele>65.51</ele>
        <time>2016-04-10T17:07:34Z</time>
      </trkpt>
      <trkpt lat="43.62084" lon="3.8405">
        <ele>65.51</ele>
        <time>2016-04-10T17:07:35Z</time>
      </trkpt>
      <trkpt lat="43.62083" lon="3.84046">
        <ele>65.99</ele>
        <time>2016-04-10T17:07:36Z</time>
      </trkpt>
    </trkseg>
  </trk>
</gpx>